<?xml version="1.0" encoding="UTF-8" standalone="no" ?>
<gpx xmlns="http://www.topografix.com/GPX/1/1" xmlns:xsi="http://www.w3.org/2001/XMLSchema-instance" xsi:schemaLocation="http://www.topografix.com/GPX/1/1 http://www.topografix.com/GPX/1/1/gpx.xsd" version="1.1" creator="VisuGPX - https://www.visugpx.com">
  <metadata>
    <name>Mountain Trail: traversée trou de la mouche - Tardeval</name>
    <desc><![CDATA[trace xav Perrin]]></desc>
  </metadata>
  <trk>
    <name><![CDATA[Mountain Trail: traversée trou de la mouche - Tardeval]]></name>
    <extensions>
      <line xmlns="http://www.topografix.com/GPX/gpx_style/0/2">
        <color>0000FF</color>
        <width>4</width>
      </line>
    </extensions>
    <trkseg>
      <trkpt lat="45.92057" lon="6.48143">
        <ele>1421</ele>
        <time>2017-08-29T07:01:36Z</time>
      </trkpt>
      <trkpt lat="45.92057" lon="6.48143">
        <ele>1421</ele>
        <time>2017-08-29T07:01:37Z</time>
      </trkpt>
      <trkpt lat="45.92057" lon="6.48143">
        <ele>1421</ele>
        <time>2017-08-29T07:01:38Z</time>
      </trkpt>
      <trkpt lat="45.92057" lon="6.48147">
        <ele>1422</ele>
        <time>2017-08-29T07:01:39Z</time>
      </trkpt>
      <trkpt lat="45.92057" lon="6.48147">
        <ele>1422</ele>
        <time>2017-08-29T07:01:40Z</time>
      </trkpt>
      <trkpt lat="45.92057" lon="6.48152">
        <ele>1422</ele>
        <time>2017-08-29T07:01:41Z</time>
      </trkpt>
      <trkpt lat="45.92057" lon="6.48152">
        <ele>1423</ele>
        <time>2017-08-29T07:01:42Z</time>
      </trkpt>
      <trkpt lat="45.92058" lon="6.48157">
        <ele>1423</ele>
        <time>2017-08-29T07:01:43Z</time>
      </trkpt>
      <trkpt lat="45.92058" lon="6.48157">
        <ele>1423</ele>
        <time>2017-08-29T07:01:44Z</time>
      </trkpt>
      <trkpt lat="45.92058" lon="6.48162">
        <ele>1424</ele>
        <time>2017-08-29T07:01:45Z</time>
      </trkpt>
      <trkpt lat="45.92058" lon="6.48162">
        <ele>1424</ele>
        <time>2017-08-29T07:01:46Z</time>
      </trkpt>
      <trkpt lat="45.92058" lon="6.48166">
        <ele>1424</ele>
        <time>2017-08-29T07:01:47Z</time>
      </trkpt>
      <trkpt lat="45.92058" lon="6.48166">
        <ele>1424</ele>
        <time>2017-08-29T07:01:48Z</time>
      </trkpt>
      <trkpt lat="45.92059" lon="6.4817">
        <ele>1425</ele>
        <time>2017-08-29T07:01:49Z</time>
      </trkpt>
      <trkpt lat="45.92059" lon="6.4817">
        <ele>1425</ele>
        <time>2017-08-29T07:01:50Z</time>
      </trkpt>
      <trkpt lat="45.92059" lon="6.48175">
        <ele>1425</ele>
        <time>2017-08-29T07:01:51Z</time>
      </trkpt>
      <trkpt lat="45.92058" lon="6.48178">
        <ele>1426</ele>
        <time>2017-08-29T07:01:52Z</time>
      </trkpt>
      <trkpt lat="45.92058" lon="6.48181">
        <ele>1426</ele>
        <time>2017-08-29T07:01:53Z</time>
      </trkpt>
      <trkpt lat="45.92058" lon="6.48181">
        <ele>1426</ele>
        <time>2017-08-29T07:01:54Z</time>
      </trkpt>
      <trkpt lat="45.92059" lon="6.48186">
        <ele>1426</ele>
        <time>2017-08-29T07:01:55Z</time>
      </trkpt>
      <trkpt lat="45.92059" lon="6.48186">
        <ele>1426</ele>
        <time>2017-08-29T07:01:56Z</time>
      </trkpt>
      <trkpt lat="45.92059" lon="6.4819">
        <ele>1427</ele>
        <time>2017-08-29T07:01:57Z</time>
      </trkpt>
      <trkpt lat="45.92059" lon="6.4819">
        <ele>1427</ele>
        <time>2017-08-29T07:01:58Z</time>
      </trkpt>
      <trkpt lat="45.92061" lon="6.48194">
        <ele>1427</ele>
        <time>2017-08-29T07:01:59Z</time>
      </trkpt>
      <trkpt lat="45.92061" lon="6.48194">
        <ele>1427</ele>
        <time>2017-08-29T07:02:00Z</time>
      </trkpt>
      <trkpt lat="45.92062" lon="6.48198">
        <ele>1428</ele>
        <time>2017-08-29T07:02:01Z</time>
      </trkpt>
      <trkpt lat="45.92062" lon="6.48198">
        <ele>1428</ele>
        <time>2017-08-29T07:02:02Z</time>
      </trkpt>
      <trkpt lat="45.92063" lon="6.48203">
        <ele>1429</ele>
        <time>2017-08-29T07:02:03Z</time>
      </trkpt>
      <trkpt lat="45.92064" lon="6.48205">
        <ele>1429</ele>
        <time>2017-08-29T07:02:04Z</time>
      </trkpt>
      <trkpt lat="45.92064" lon="6.48205">
        <ele>1429</ele>
        <time>2017-08-29T07:02:05Z</time>
      </trkpt>
      <trkpt lat="45.92065" lon="6.48209">
        <ele>1429</ele>
        <time>2017-08-29T07:02:06Z</time>
      </trkpt>
      <trkpt lat="45.92065" lon="6.48209">
        <ele>1429</ele>
        <time>2017-08-29T07:02:07Z</time>
      </trkpt>
      <trkpt lat="45.92066" lon="6.48213">
        <ele>1429</ele>
        <time>2017-08-29T07:02:08Z</time>
      </trkpt>
      <trkpt lat="45.92066" lon="6.48213">
        <ele>1430</ele>
        <time>2017-08-29T07:02:09Z</time>
      </trkpt>
      <trkpt lat="45.92067" lon="6.48217">
        <ele>1430</ele>
        <time>2017-08-29T07:02:10Z</time>
      </trkpt>
      <trkpt lat="45.92067" lon="6.48217">
        <ele>1430</ele>
        <time>2017-08-29T07:02:11Z</time>
      </trkpt>
      <trkpt lat="45.92068" lon="6.48221">
        <ele>1430</ele>
        <time>2017-08-29T07:02:12Z</time>
      </trkpt>
      <trkpt lat="45.92068" lon="6.48224">
        <ele>1430</ele>
        <time>2017-08-29T07:02:13Z</time>
      </trkpt>
      <trkpt lat="45.92068" lon="6.48224">
        <ele>1430</ele>
        <time>2017-08-29T07:02:14Z</time>
      </trkpt>
      <trkpt lat="45.92069" lon="6.48229">
        <ele>1430</ele>
        <time>2017-08-29T07:02:15Z</time>
      </trkpt>
      <trkpt lat="45.92069" lon="6.48229">
        <ele>1431</ele>
        <time>2017-08-29T07:02:16Z</time>
      </trkpt>
      <trkpt lat="45.9207" lon="6.48234">
        <ele>1431</ele>
        <time>2017-08-29T07:02:17Z</time>
      </trkpt>
      <trkpt lat="45.9207" lon="6.48234">
        <ele>1431</ele>
        <time>2017-08-29T07:02:18Z</time>
      </trkpt>
      <trkpt lat="45.9207" lon="6.48238">
        <ele>1432</ele>
        <time>2017-08-29T07:02:19Z</time>
      </trkpt>
      <trkpt lat="45.9207" lon="6.48238">
        <ele>1432</ele>
        <time>2017-08-29T07:02:20Z</time>
      </trkpt>
      <trkpt lat="45.92072" lon="6.48242">
        <ele>1432</ele>
        <time>2017-08-29T07:02:21Z</time>
      </trkpt>
      <trkpt lat="45.92072" lon="6.48242">
        <ele>1432</ele>
        <time>2017-08-29T07:02:22Z</time>
      </trkpt>
      <trkpt lat="45.92073" lon="6.48246">
        <ele>1433</ele>
        <time>2017-08-29T07:02:23Z</time>
      </trkpt>
      <trkpt lat="45.92073" lon="6.48246">
        <ele>1433</ele>
        <time>2017-08-29T07:02:24Z</time>
      </trkpt>
      <trkpt lat="45.92073" lon="6.4825">
        <ele>1433</ele>
        <time>2017-08-29T07:02:25Z</time>
      </trkpt>
      <trkpt lat="45.92073" lon="6.4825">
        <ele>1433</ele>
        <time>2017-08-29T07:02:26Z</time>
      </trkpt>
      <trkpt lat="45.92073" lon="6.48255">
        <ele>1433</ele>
        <time>2017-08-29T07:02:27Z</time>
      </trkpt>
      <trkpt lat="45.92073" lon="6.48255">
        <ele>1434</ele>
        <time>2017-08-29T07:02:28Z</time>
      </trkpt>
      <trkpt lat="45.92074" lon="6.48259">
        <ele>1434</ele>
        <time>2017-08-29T07:02:29Z</time>
      </trkpt>
      <trkpt lat="45.92074" lon="6.48259">
        <ele>1435</ele>
        <time>2017-08-29T07:02:30Z</time>
      </trkpt>
      <trkpt lat="45.92074" lon="6.48263">
        <ele>1435</ele>
        <time>2017-08-29T07:02:31Z</time>
      </trkpt>
      <trkpt lat="45.92074" lon="6.48263">
        <ele>1435</ele>
        <time>2017-08-29T07:02:32Z</time>
      </trkpt>
      <trkpt lat="45.92075" lon="6.48267">
        <ele>1435</ele>
        <time>2017-08-29T07:02:33Z</time>
      </trkpt>
      <trkpt lat="45.92075" lon="6.48267">
        <ele>1435</ele>
        <time>2017-08-29T07:02:34Z</time>
      </trkpt>
      <trkpt lat="45.92075" lon="6.48272">
        <ele>1436</ele>
        <time>2017-08-29T07:02:35Z</time>
      </trkpt>
      <trkpt lat="45.92075" lon="6.48272">
        <ele>1436</ele>
        <time>2017-08-29T07:02:36Z</time>
      </trkpt>
      <trkpt lat="45.92076" lon="6.48276">
        <ele>1436</ele>
        <time>2017-08-29T07:02:37Z</time>
      </trkpt>
      <trkpt lat="45.92076" lon="6.48276">
        <ele>1436</ele>
        <time>2017-08-29T07:02:38Z</time>
      </trkpt>
      <trkpt lat="45.92076" lon="6.48281">
        <ele>1437</ele>
        <time>2017-08-29T07:02:39Z</time>
      </trkpt>
      <trkpt lat="45.92076" lon="6.48281">
        <ele>1437</ele>
        <time>2017-08-29T07:02:40Z</time>
      </trkpt>
      <trkpt lat="45.92077" lon="6.48285">
        <ele>1437</ele>
        <time>2017-08-29T07:02:41Z</time>
      </trkpt>
      <trkpt lat="45.92077" lon="6.48285">
        <ele>1437</ele>
        <time>2017-08-29T07:02:42Z</time>
      </trkpt>
      <trkpt lat="45.92078" lon="6.48289">
        <ele>1437</ele>
        <time>2017-08-29T07:02:43Z</time>
      </trkpt>
      <trkpt lat="45.92078" lon="6.48289">
        <ele>1437</ele>
        <time>2017-08-29T07:02:44Z</time>
      </trkpt>
      <trkpt lat="45.92079" lon="6.48293">
        <ele>1437</ele>
        <time>2017-08-29T07:02:45Z</time>
      </trkpt>
      <trkpt lat="45.92079" lon="6.48293">
        <ele>1438</ele>
        <time>2017-08-29T07:02:46Z</time>
      </trkpt>
      <trkpt lat="45.92079" lon="6.48298">
        <ele>1438</ele>
        <time>2017-08-29T07:02:47Z</time>
      </trkpt>
      <trkpt lat="45.92079" lon="6.48298">
        <ele>1439</ele>
        <time>2017-08-29T07:02:48Z</time>
      </trkpt>
      <trkpt lat="45.92079" lon="6.48301">
        <ele>1439</ele>
        <time>2017-08-29T07:02:49Z</time>
      </trkpt>
      <trkpt lat="45.92079" lon="6.48301">
        <ele>1439</ele>
        <time>2017-08-29T07:02:50Z</time>
      </trkpt>
      <trkpt lat="45.92079" lon="6.48305">
        <ele>1439</ele>
        <time>2017-08-29T07:02:51Z</time>
      </trkpt>
      <trkpt lat="45.92079" lon="6.48305">
        <ele>1439</ele>
        <time>2017-08-29T07:02:52Z</time>
      </trkpt>
      <trkpt lat="45.92078" lon="6.48309">
        <ele>1440</ele>
        <time>2017-08-29T07:02:53Z</time>
      </trkpt>
      <trkpt lat="45.92078" lon="6.48309">
        <ele>1441</ele>
        <time>2017-08-29T07:02:54Z</time>
      </trkpt>
      <trkpt lat="45.92078" lon="6.48312">
        <ele>1441</ele>
        <time>2017-08-29T07:02:55Z</time>
      </trkpt>
      <trkpt lat="45.92078" lon="6.48312">
        <ele>1442</ele>
        <time>2017-08-29T07:02:56Z</time>
      </trkpt>
      <trkpt lat="45.92078" lon="6.48316">
        <ele>1442</ele>
        <time>2017-08-29T07:02:57Z</time>
      </trkpt>
      <trkpt lat="45.92078" lon="6.48316">
        <ele>1442</ele>
        <time>2017-08-29T07:02:58Z</time>
      </trkpt>
      <trkpt lat="45.92078" lon="6.48319">
        <ele>1442</ele>
        <time>2017-08-29T07:02:59Z</time>
      </trkpt>
      <trkpt lat="45.92078" lon="6.48319">
        <ele>1442</ele>
        <time>2017-08-29T07:03:00Z</time>
      </trkpt>
      <trkpt lat="45.92079" lon="6.48323">
        <ele>1443</ele>
        <time>2017-08-29T07:03:01Z</time>
      </trkpt>
      <trkpt lat="45.92079" lon="6.48323">
        <ele>1443</ele>
        <time>2017-08-29T07:03:02Z</time>
      </trkpt>
      <trkpt lat="45.92078" lon="6.48327">
        <ele>1443</ele>
        <time>2017-08-29T07:03:03Z</time>
      </trkpt>
      <trkpt lat="45.92078" lon="6.48327">
        <ele>1443</ele>
        <time>2017-08-29T07:03:04Z</time>
      </trkpt>
      <trkpt lat="45.92078" lon="6.4833">
        <ele>1443</ele>
        <time>2017-08-29T07:03:05Z</time>
      </trkpt>
      <trkpt lat="45.92078" lon="6.4833">
        <ele>1444</ele>
        <time>2017-08-29T07:03:06Z</time>
      </trkpt>
      <trkpt lat="45.92078" lon="6.48333">
        <ele>1444</ele>
        <time>2017-08-29T07:03:07Z</time>
      </trkpt>
      <trkpt lat="45.92078" lon="6.48333">
        <ele>1444</ele>
        <time>2017-08-29T07:03:08Z</time>
      </trkpt>
      <trkpt lat="45.92078" lon="6.48337">
        <ele>1444</ele>
        <time>2017-08-29T07:03:09Z</time>
      </trkpt>
      <trkpt lat="45.92078" lon="6.48337">
        <ele>1444</ele>
        <time>2017-08-29T07:03:10Z</time>
      </trkpt>
      <trkpt lat="45.92078" lon="6.48341">
        <ele>1444</ele>
        <time>2017-08-29T07:03:11Z</time>
      </trkpt>
      <trkpt lat="45.92078" lon="6.48341">
        <ele>1444</ele>
        <time>2017-08-29T07:03:12Z</time>
      </trkpt>
      <trkpt lat="45.92078" lon="6.48345">
        <ele>1445</ele>
        <time>2017-08-29T07:03:13Z</time>
      </trkpt>
      <trkpt lat="45.92078" lon="6.48345">
        <ele>1445</ele>
        <time>2017-08-29T07:03:14Z</time>
      </trkpt>
      <trkpt lat="45.92078" lon="6.48348">
        <ele>1445</ele>
        <time>2017-08-29T07:03:15Z</time>
      </trkpt>
      <trkpt lat="45.92078" lon="6.48348">
        <ele>1445</ele>
        <time>2017-08-29T07:03:16Z</time>
      </trkpt>
      <trkpt lat="45.92078" lon="6.48352">
        <ele>1446</ele>
        <time>2017-08-29T07:03:17Z</time>
      </trkpt>
      <trkpt lat="45.92078" lon="6.48352">
        <ele>1446</ele>
        <time>2017-08-29T07:03:18Z</time>
      </trkpt>
      <trkpt lat="45.92077" lon="6.48355">
        <ele>1446</ele>
        <time>2017-08-29T07:03:19Z</time>
      </trkpt>
      <trkpt lat="45.92077" lon="6.48355">
        <ele>1446</ele>
        <time>2017-08-29T07:03:20Z</time>
      </trkpt>
      <trkpt lat="45.92077" lon="6.48359">
        <ele>1447</ele>
        <time>2017-08-29T07:03:21Z</time>
      </trkpt>
      <trkpt lat="45.92077" lon="6.48359">
        <ele>1447</ele>
        <time>2017-08-29T07:03:22Z</time>
      </trkpt>
      <trkpt lat="45.92076" lon="6.48363">
        <ele>1447</ele>
        <time>2017-08-29T07:03:23Z</time>
      </trkpt>
      <trkpt lat="45.92076" lon="6.48363">
        <ele>1448</ele>
        <time>2017-08-29T07:03:24Z</time>
      </trkpt>
      <trkpt lat="45.92076" lon="6.48367">
        <ele>1448</ele>
        <time>2017-08-29T07:03:25Z</time>
      </trkpt>
      <trkpt lat="45.92076" lon="6.48367">
        <ele>1448</ele>
        <time>2017-08-29T07:03:26Z</time>
      </trkpt>
      <trkpt lat="45.92076" lon="6.48371">
        <ele>1448</ele>
        <time>2017-08-29T07:03:27Z</time>
      </trkpt>
      <trkpt lat="45.92076" lon="6.48371">
        <ele>1448</ele>
        <time>2017-08-29T07:03:28Z</time>
      </trkpt>
      <trkpt lat="45.92075" lon="6.48374">
        <ele>1448</ele>
        <time>2017-08-29T07:03:29Z</time>
      </trkpt>
      <trkpt lat="45.92075" lon="6.48374">
        <ele>1448</ele>
        <time>2017-08-29T07:03:30Z</time>
      </trkpt>
      <trkpt lat="45.92075" lon="6.48377">
        <ele>1449</ele>
        <time>2017-08-29T07:03:31Z</time>
      </trkpt>
      <trkpt lat="45.92075" lon="6.48377">
        <ele>1449</ele>
        <time>2017-08-29T07:03:32Z</time>
      </trkpt>
      <trkpt lat="45.92075" lon="6.48381">
        <ele>1449</ele>
        <time>2017-08-29T07:03:33Z</time>
      </trkpt>
      <trkpt lat="45.92075" lon="6.48381">
        <ele>1449</ele>
        <time>2017-08-29T07:03:34Z</time>
      </trkpt>
      <trkpt lat="45.92075" lon="6.48384">
        <ele>1450</ele>
        <time>2017-08-29T07:03:35Z</time>
      </trkpt>
      <trkpt lat="45.92075" lon="6.48384">
        <ele>1450</ele>
        <time>2017-08-29T07:03:36Z</time>
      </trkpt>
      <trkpt lat="45.92075" lon="6.48387">
        <ele>1450</ele>
        <time>2017-08-29T07:03:37Z</time>
      </trkpt>
      <trkpt lat="45.92075" lon="6.48387">
        <ele>1450</ele>
        <time>2017-08-29T07:03:38Z</time>
      </trkpt>
      <trkpt lat="45.92075" lon="6.48391">
        <ele>1450</ele>
        <time>2017-08-29T07:03:39Z</time>
      </trkpt>
      <trkpt lat="45.92075" lon="6.48391">
        <ele>1451</ele>
        <time>2017-08-29T07:03:40Z</time>
      </trkpt>
      <trkpt lat="45.92074" lon="6.48394">
        <ele>1452</ele>
        <time>2017-08-29T07:03:41Z</time>
      </trkpt>
      <trkpt lat="45.92074" lon="6.48394">
        <ele>1453</ele>
        <time>2017-08-29T07:03:42Z</time>
      </trkpt>
      <trkpt lat="45.92075" lon="6.48398">
        <ele>1453</ele>
        <time>2017-08-29T07:03:43Z</time>
      </trkpt>
      <trkpt lat="45.92075" lon="6.48398">
        <ele>1453</ele>
        <time>2017-08-29T07:03:44Z</time>
      </trkpt>
      <trkpt lat="45.92075" lon="6.48401">
        <ele>1453</ele>
        <time>2017-08-29T07:03:45Z</time>
      </trkpt>
      <trkpt lat="45.92075" lon="6.48401">
        <ele>1453</ele>
        <time>2017-08-29T07:03:46Z</time>
      </trkpt>
      <trkpt lat="45.92074" lon="6.48405">
        <ele>1453</ele>
        <time>2017-08-29T07:03:47Z</time>
      </trkpt>
      <trkpt lat="45.92074" lon="6.48405">
        <ele>1454</ele>
        <time>2017-08-29T07:03:48Z</time>
      </trkpt>
      <trkpt lat="45.92074" lon="6.48409">
        <ele>1454</ele>
        <time>2017-08-29T07:03:49Z</time>
      </trkpt>
      <trkpt lat="45.92074" lon="6.48409">
        <ele>1454</ele>
        <time>2017-08-29T07:03:50Z</time>
      </trkpt>
      <trkpt lat="45.92073" lon="6.48412">
        <ele>1454</ele>
        <time>2017-08-29T07:03:51Z</time>
      </trkpt>
      <trkpt lat="45.92073" lon="6.48412">
        <ele>1454</ele>
        <time>2017-08-29T07:03:52Z</time>
      </trkpt>
      <trkpt lat="45.92072" lon="6.48415">
        <ele>1454</ele>
        <time>2017-08-29T07:03:53Z</time>
      </trkpt>
      <trkpt lat="45.92072" lon="6.48415">
        <ele>1455</ele>
        <time>2017-08-29T07:03:54Z</time>
      </trkpt>
      <trkpt lat="45.92071" lon="6.48419">
        <ele>1455</ele>
        <time>2017-08-29T07:03:55Z</time>
      </trkpt>
      <trkpt lat="45.92071" lon="6.48419">
        <ele>1455</ele>
        <time>2017-08-29T07:03:56Z</time>
      </trkpt>
      <trkpt lat="45.92072" lon="6.48424">
        <ele>1455</ele>
        <time>2017-08-29T07:03:57Z</time>
      </trkpt>
      <trkpt lat="45.92072" lon="6.48424">
        <ele>1456</ele>
        <time>2017-08-29T07:03:58Z</time>
      </trkpt>
      <trkpt lat="45.92072" lon="6.48428">
        <ele>1456</ele>
        <time>2017-08-29T07:03:59Z</time>
      </trkpt>
      <trkpt lat="45.92072" lon="6.48428">
        <ele>1456</ele>
        <time>2017-08-29T07:04:00Z</time>
      </trkpt>
      <trkpt lat="45.92072" lon="6.48431">
        <ele>1456</ele>
        <time>2017-08-29T07:04:01Z</time>
      </trkpt>
      <trkpt lat="45.92072" lon="6.48431">
        <ele>1456</ele>
        <time>2017-08-29T07:04:02Z</time>
      </trkpt>
      <trkpt lat="45.92072" lon="6.48431">
        <ele>1456</ele>
        <time>2017-08-29T07:04:03Z</time>
      </trkpt>
      <trkpt lat="45.92072" lon="6.48431">
        <ele>1456</ele>
        <time>2017-08-29T07:04:04Z</time>
      </trkpt>
      <trkpt lat="45.92072" lon="6.48431">
        <ele>1456</ele>
        <time>2017-08-29T07:04:05Z</time>
      </trkpt>
      <trkpt lat="45.92072" lon="6.48431">
        <ele>1456</ele>
        <time>2017-08-29T07:04:06Z</time>
      </trkpt>
      <trkpt lat="45.92072" lon="6.48431">
        <ele>1456</ele>
        <time>2017-08-29T07:04:07Z</time>
      </trkpt>
      <trkpt lat="45.92072" lon="6.48433">
        <ele>1456</ele>
        <time>2017-08-29T07:04:08Z</time>
      </trkpt>
      <trkpt lat="45.92072" lon="6.48433">
        <ele>1456</ele>
        <time>2017-08-29T07:04:09Z</time>
      </trkpt>
      <trkpt lat="45.92072" lon="6.48436">
        <ele>1456</ele>
        <time>2017-08-29T07:04:10Z</time>
      </trkpt>
      <trkpt lat="45.92072" lon="6.48436">
        <ele>1456</ele>
        <time>2017-08-29T07:04:11Z</time>
      </trkpt>
      <trkpt lat="45.92071" lon="6.4844">
        <ele>1457</ele>
        <time>2017-08-29T07:04:12Z</time>
      </trkpt>
      <trkpt lat="45.92071" lon="6.4844">
        <ele>1457</ele>
        <time>2017-08-29T07:04:13Z</time>
      </trkpt>
      <trkpt lat="45.92071" lon="6.48444">
        <ele>1457</ele>
        <time>2017-08-29T07:04:14Z</time>
      </trkpt>
      <trkpt lat="45.92071" lon="6.48444">
        <ele>1458</ele>
        <time>2017-08-29T07:04:15Z</time>
      </trkpt>
      <trkpt lat="45.92072" lon="6.48448">
        <ele>1458</ele>
        <time>2017-08-29T07:04:16Z</time>
      </trkpt>
      <trkpt lat="45.92072" lon="6.48448">
        <ele>1458</ele>
        <time>2017-08-29T07:04:17Z</time>
      </trkpt>
      <trkpt lat="45.92073" lon="6.48452">
        <ele>1458</ele>
        <time>2017-08-29T07:04:18Z</time>
      </trkpt>
      <trkpt lat="45.92073" lon="6.48452">
        <ele>1459</ele>
        <time>2017-08-29T07:04:19Z</time>
      </trkpt>
      <trkpt lat="45.92074" lon="6.48456">
        <ele>1459</ele>
        <time>2017-08-29T07:04:20Z</time>
      </trkpt>
      <trkpt lat="45.92074" lon="6.48456">
        <ele>1459</ele>
        <time>2017-08-29T07:04:21Z</time>
      </trkpt>
      <trkpt lat="45.92075" lon="6.4846">
        <ele>1459</ele>
        <time>2017-08-29T07:04:22Z</time>
      </trkpt>
      <trkpt lat="45.92075" lon="6.4846">
        <ele>1459</ele>
        <time>2017-08-29T07:04:23Z</time>
      </trkpt>
      <trkpt lat="45.92077" lon="6.48464">
        <ele>1459</ele>
        <time>2017-08-29T07:04:24Z</time>
      </trkpt>
      <trkpt lat="45.92077" lon="6.48464">
        <ele>1459</ele>
        <time>2017-08-29T07:04:25Z</time>
      </trkpt>
      <trkpt lat="45.92078" lon="6.48468">
        <ele>1459</ele>
        <time>2017-08-29T07:04:26Z</time>
      </trkpt>
      <trkpt lat="45.92078" lon="6.48468">
        <ele>1459</ele>
        <time>2017-08-29T07:04:27Z</time>
      </trkpt>
      <trkpt lat="45.92079" lon="6.48472">
        <ele>1459</ele>
        <time>2017-08-29T07:04:28Z</time>
      </trkpt>
      <trkpt lat="45.92079" lon="6.48472">
        <ele>1460</ele>
        <time>2017-08-29T07:04:29Z</time>
      </trkpt>
      <trkpt lat="45.9208" lon="6.48476">
        <ele>1460</ele>
        <time>2017-08-29T07:04:30Z</time>
      </trkpt>
      <trkpt lat="45.9208" lon="6.48476">
        <ele>1460</ele>
        <time>2017-08-29T07:04:31Z</time>
      </trkpt>
      <trkpt lat="45.9208" lon="6.48479">
        <ele>1460</ele>
        <time>2017-08-29T07:04:32Z</time>
      </trkpt>
      <trkpt lat="45.9208" lon="6.48479">
        <ele>1461</ele>
        <time>2017-08-29T07:04:33Z</time>
      </trkpt>
      <trkpt lat="45.9208" lon="6.48483">
        <ele>1461</ele>
        <time>2017-08-29T07:04:34Z</time>
      </trkpt>
      <trkpt lat="45.9208" lon="6.48483">
        <ele>1461</ele>
        <time>2017-08-29T07:04:35Z</time>
      </trkpt>
      <trkpt lat="45.92079" lon="6.48487">
        <ele>1461</ele>
        <time>2017-08-29T07:04:36Z</time>
      </trkpt>
      <trkpt lat="45.92079" lon="6.48487">
        <ele>1461</ele>
        <time>2017-08-29T07:04:37Z</time>
      </trkpt>
      <trkpt lat="45.92078" lon="6.48491">
        <ele>1462</ele>
        <time>2017-08-29T07:04:38Z</time>
      </trkpt>
      <trkpt lat="45.92078" lon="6.48491">
        <ele>1462</ele>
        <time>2017-08-29T07:04:39Z</time>
      </trkpt>
      <trkpt lat="45.92077" lon="6.48494">
        <ele>1463</ele>
        <time>2017-08-29T07:04:40Z</time>
      </trkpt>
      <trkpt lat="45.92077" lon="6.48494">
        <ele>1463</ele>
        <time>2017-08-29T07:04:41Z</time>
      </trkpt>
      <trkpt lat="45.92077" lon="6.48498">
        <ele>1463</ele>
        <time>2017-08-29T07:04:42Z</time>
      </trkpt>
      <trkpt lat="45.92077" lon="6.48498">
        <ele>1463</ele>
        <time>2017-08-29T07:04:43Z</time>
      </trkpt>
      <trkpt lat="45.92077" lon="6.48503">
        <ele>1463</ele>
        <time>2017-08-29T07:04:44Z</time>
      </trkpt>
      <trkpt lat="45.92077" lon="6.48503">
        <ele>1463</ele>
        <time>2017-08-29T07:04:45Z</time>
      </trkpt>
      <trkpt lat="45.92076" lon="6.48507">
        <ele>1463</ele>
        <time>2017-08-29T07:04:46Z</time>
      </trkpt>
      <trkpt lat="45.92076" lon="6.48507">
        <ele>1463</ele>
        <time>2017-08-29T07:04:47Z</time>
      </trkpt>
      <trkpt lat="45.92076" lon="6.48511">
        <ele>1464</ele>
        <time>2017-08-29T07:04:48Z</time>
      </trkpt>
      <trkpt lat="45.92076" lon="6.48511">
        <ele>1464</ele>
        <time>2017-08-29T07:04:49Z</time>
      </trkpt>
      <trkpt lat="45.92077" lon="6.48514">
        <ele>1464</ele>
        <time>2017-08-29T07:04:50Z</time>
      </trkpt>
      <trkpt lat="45.92077" lon="6.48514">
        <ele>1464</ele>
        <time>2017-08-29T07:04:51Z</time>
      </trkpt>
      <trkpt lat="45.92078" lon="6.48519">
        <ele>1464</ele>
        <time>2017-08-29T07:04:52Z</time>
      </trkpt>
      <trkpt lat="45.92078" lon="6.48519">
        <ele>1464</ele>
        <time>2017-08-29T07:04:53Z</time>
      </trkpt>
      <trkpt lat="45.92079" lon="6.48522">
        <ele>1464</ele>
        <time>2017-08-29T07:04:54Z</time>
      </trkpt>
      <trkpt lat="45.92079" lon="6.48522">
        <ele>1464</ele>
        <time>2017-08-29T07:04:55Z</time>
      </trkpt>
      <trkpt lat="45.9208" lon="6.48526">
        <ele>1464</ele>
        <time>2017-08-29T07:04:56Z</time>
      </trkpt>
      <trkpt lat="45.9208" lon="6.48526">
        <ele>1465</ele>
        <time>2017-08-29T07:04:57Z</time>
      </trkpt>
      <trkpt lat="45.92082" lon="6.48529">
        <ele>1465</ele>
        <time>2017-08-29T07:04:58Z</time>
      </trkpt>
      <trkpt lat="45.92082" lon="6.48529">
        <ele>1466</ele>
        <time>2017-08-29T07:04:59Z</time>
      </trkpt>
      <trkpt lat="45.92083" lon="6.48533">
        <ele>1466</ele>
        <time>2017-08-29T07:05:00Z</time>
      </trkpt>
      <trkpt lat="45.92083" lon="6.48533">
        <ele>1466</ele>
        <time>2017-08-29T07:05:01Z</time>
      </trkpt>
      <trkpt lat="45.92085" lon="6.48537">
        <ele>1466</ele>
        <time>2017-08-29T07:05:02Z</time>
      </trkpt>
      <trkpt lat="45.92085" lon="6.48537">
        <ele>1466</ele>
        <time>2017-08-29T07:05:03Z</time>
      </trkpt>
      <trkpt lat="45.92088" lon="6.48539">
        <ele>1467</ele>
        <time>2017-08-29T07:05:04Z</time>
      </trkpt>
      <trkpt lat="45.9209" lon="6.48539">
        <ele>1467</ele>
        <time>2017-08-29T07:05:05Z</time>
      </trkpt>
      <trkpt lat="45.92093" lon="6.48539">
        <ele>1467</ele>
        <time>2017-08-29T07:05:06Z</time>
      </trkpt>
      <trkpt lat="45.92095" lon="6.4854">
        <ele>1467</ele>
        <time>2017-08-29T07:05:07Z</time>
      </trkpt>
      <trkpt lat="45.92096" lon="6.4854">
        <ele>1468</ele>
        <time>2017-08-29T07:05:08Z</time>
      </trkpt>
      <trkpt lat="45.92099" lon="6.4854">
        <ele>1468</ele>
        <time>2017-08-29T07:05:09Z</time>
      </trkpt>
      <trkpt lat="45.92099" lon="6.4854">
        <ele>1468</ele>
        <time>2017-08-29T07:05:10Z</time>
      </trkpt>
      <trkpt lat="45.92102" lon="6.48538">
        <ele>1468</ele>
        <time>2017-08-29T07:05:11Z</time>
      </trkpt>
      <trkpt lat="45.92104" lon="6.48538">
        <ele>1468</ele>
        <time>2017-08-29T07:05:12Z</time>
      </trkpt>
      <trkpt lat="45.92106" lon="6.48537">
        <ele>1468</ele>
        <time>2017-08-29T07:05:13Z</time>
      </trkpt>
      <trkpt lat="45.92106" lon="6.48537">
        <ele>1468</ele>
        <time>2017-08-29T07:05:14Z</time>
      </trkpt>
      <trkpt lat="45.9211" lon="6.48536">
        <ele>1468</ele>
        <time>2017-08-29T07:05:15Z</time>
      </trkpt>
      <trkpt lat="45.92111" lon="6.48535">
        <ele>1468</ele>
        <time>2017-08-29T07:05:16Z</time>
      </trkpt>
      <trkpt lat="45.92111" lon="6.48535">
        <ele>1468</ele>
        <time>2017-08-29T07:05:17Z</time>
      </trkpt>
      <trkpt lat="45.92113" lon="6.48533">
        <ele>1468</ele>
        <time>2017-08-29T07:05:18Z</time>
      </trkpt>
      <trkpt lat="45.92113" lon="6.48533">
        <ele>1469</ele>
        <time>2017-08-29T07:05:19Z</time>
      </trkpt>
      <trkpt lat="45.92115" lon="6.48533">
        <ele>1469</ele>
        <time>2017-08-29T07:05:20Z</time>
      </trkpt>
      <trkpt lat="45.92115" lon="6.48533">
        <ele>1469</ele>
        <time>2017-08-29T07:05:21Z</time>
      </trkpt>
      <trkpt lat="45.92115" lon="6.48533">
        <ele>1469</ele>
        <time>2017-08-29T07:05:22Z</time>
      </trkpt>
      <trkpt lat="45.92117" lon="6.48533">
        <ele>1469</ele>
        <time>2017-08-29T07:05:23Z</time>
      </trkpt>
      <trkpt lat="45.92117" lon="6.48533">
        <ele>1469</ele>
        <time>2017-08-29T07:05:24Z</time>
      </trkpt>
      <trkpt lat="45.92119" lon="6.48532">
        <ele>1469</ele>
        <time>2017-08-29T07:05:25Z</time>
      </trkpt>
      <trkpt lat="45.92119" lon="6.48532">
        <ele>1469</ele>
        <time>2017-08-29T07:05:26Z</time>
      </trkpt>
      <trkpt lat="45.92119" lon="6.48532">
        <ele>1469</ele>
        <time>2017-08-29T07:05:27Z</time>
      </trkpt>
      <trkpt lat="45.92122" lon="6.48532">
        <ele>1469</ele>
        <time>2017-08-29T07:05:28Z</time>
      </trkpt>
      <trkpt lat="45.92122" lon="6.48532">
        <ele>1469</ele>
        <time>2017-08-29T07:05:29Z</time>
      </trkpt>
      <trkpt lat="45.92123" lon="6.48533">
        <ele>1469</ele>
        <time>2017-08-29T07:05:30Z</time>
      </trkpt>
      <trkpt lat="45.92123" lon="6.48533">
        <ele>1469</ele>
        <time>2017-08-29T07:05:31Z</time>
      </trkpt>
      <trkpt lat="45.92125" lon="6.48535">
        <ele>1469</ele>
        <time>2017-08-29T07:05:32Z</time>
      </trkpt>
      <trkpt lat="45.92125" lon="6.48535">
        <ele>1468</ele>
        <time>2017-08-29T07:05:33Z</time>
      </trkpt>
      <trkpt lat="45.92127" lon="6.48538">
        <ele>1467</ele>
        <time>2017-08-29T07:05:34Z</time>
      </trkpt>
      <trkpt lat="45.92127" lon="6.48538">
        <ele>1467</ele>
        <time>2017-08-29T07:05:35Z</time>
      </trkpt>
      <trkpt lat="45.92129" lon="6.4854">
        <ele>1467</ele>
        <time>2017-08-29T07:05:36Z</time>
      </trkpt>
      <trkpt lat="45.92129" lon="6.4854">
        <ele>1467</ele>
        <time>2017-08-29T07:05:37Z</time>
      </trkpt>
      <trkpt lat="45.92131" lon="6.48543">
        <ele>1467</ele>
        <time>2017-08-29T07:05:38Z</time>
      </trkpt>
      <trkpt lat="45.92131" lon="6.48543">
        <ele>1468</ele>
        <time>2017-08-29T07:05:39Z</time>
      </trkpt>
      <trkpt lat="45.92133" lon="6.48546">
        <ele>1468</ele>
        <time>2017-08-29T07:05:40Z</time>
      </trkpt>
      <trkpt lat="45.92133" lon="6.48546">
        <ele>1468</ele>
        <time>2017-08-29T07:05:41Z</time>
      </trkpt>
      <trkpt lat="45.92134" lon="6.48549">
        <ele>1467</ele>
        <time>2017-08-29T07:05:42Z</time>
      </trkpt>
      <trkpt lat="45.92134" lon="6.48549">
        <ele>1467</ele>
        <time>2017-08-29T07:05:43Z</time>
      </trkpt>
      <trkpt lat="45.92136" lon="6.48553">
        <ele>1467</ele>
        <time>2017-08-29T07:05:44Z</time>
      </trkpt>
      <trkpt lat="45.92136" lon="6.48553">
        <ele>1467</ele>
        <time>2017-08-29T07:05:45Z</time>
      </trkpt>
      <trkpt lat="45.92138" lon="6.48556">
        <ele>1466</ele>
        <time>2017-08-29T07:05:46Z</time>
      </trkpt>
      <trkpt lat="45.92138" lon="6.48556">
        <ele>1466</ele>
        <time>2017-08-29T07:05:47Z</time>
      </trkpt>
      <trkpt lat="45.92139" lon="6.48559">
        <ele>1466</ele>
        <time>2017-08-29T07:05:48Z</time>
      </trkpt>
      <trkpt lat="45.92139" lon="6.48559">
        <ele>1466</ele>
        <time>2017-08-29T07:05:49Z</time>
      </trkpt>
      <trkpt lat="45.9214" lon="6.48562">
        <ele>1466</ele>
        <time>2017-08-29T07:05:50Z</time>
      </trkpt>
      <trkpt lat="45.9214" lon="6.48562">
        <ele>1466</ele>
        <time>2017-08-29T07:05:51Z</time>
      </trkpt>
      <trkpt lat="45.92141" lon="6.48566">
        <ele>1466</ele>
        <time>2017-08-29T07:05:52Z</time>
      </trkpt>
      <trkpt lat="45.92141" lon="6.48566">
        <ele>1465</ele>
        <time>2017-08-29T07:05:53Z</time>
      </trkpt>
      <trkpt lat="45.92141" lon="6.48569">
        <ele>1465</ele>
        <time>2017-08-29T07:05:54Z</time>
      </trkpt>
      <trkpt lat="45.92141" lon="6.48569">
        <ele>1465</ele>
        <time>2017-08-29T07:05:55Z</time>
      </trkpt>
      <trkpt lat="45.92141" lon="6.48569">
        <ele>1466</ele>
        <time>2017-08-29T07:05:56Z</time>
      </trkpt>
      <trkpt lat="45.9214" lon="6.48573">
        <ele>1466</ele>
        <time>2017-08-29T07:05:57Z</time>
      </trkpt>
      <trkpt lat="45.9214" lon="6.48573">
        <ele>1466</ele>
        <time>2017-08-29T07:05:58Z</time>
      </trkpt>
      <trkpt lat="45.92138" lon="6.48576">
        <ele>1466</ele>
        <time>2017-08-29T07:05:59Z</time>
      </trkpt>
      <trkpt lat="45.92138" lon="6.48576">
        <ele>1466</ele>
        <time>2017-08-29T07:06:00Z</time>
      </trkpt>
      <trkpt lat="45.92137" lon="6.4858">
        <ele>1466</ele>
        <time>2017-08-29T07:06:01Z</time>
      </trkpt>
      <trkpt lat="45.92137" lon="6.4858">
        <ele>1466</ele>
        <time>2017-08-29T07:06:02Z</time>
      </trkpt>
      <trkpt lat="45.92135" lon="6.48584">
        <ele>1466</ele>
        <time>2017-08-29T07:06:03Z</time>
      </trkpt>
      <trkpt lat="45.92135" lon="6.48584">
        <ele>1466</ele>
        <time>2017-08-29T07:06:04Z</time>
      </trkpt>
      <trkpt lat="45.92134" lon="6.48587">
        <ele>1466</ele>
        <time>2017-08-29T07:06:05Z</time>
      </trkpt>
      <trkpt lat="45.92134" lon="6.48587">
        <ele>1466</ele>
        <time>2017-08-29T07:06:06Z</time>
      </trkpt>
      <trkpt lat="45.92132" lon="6.48591">
        <ele>1466</ele>
        <time>2017-08-29T07:06:07Z</time>
      </trkpt>
      <trkpt lat="45.92132" lon="6.48591">
        <ele>1466</ele>
        <time>2017-08-29T07:06:08Z</time>
      </trkpt>
      <trkpt lat="45.92131" lon="6.48594">
        <ele>1467</ele>
        <time>2017-08-29T07:06:09Z</time>
      </trkpt>
      <trkpt lat="45.9213" lon="6.48597">
        <ele>1467</ele>
        <time>2017-08-29T07:06:10Z</time>
      </trkpt>
      <trkpt lat="45.92129" lon="6.486">
        <ele>1467</ele>
        <time>2017-08-29T07:06:11Z</time>
      </trkpt>
      <trkpt lat="45.92128" lon="6.48602">
        <ele>1467</ele>
        <time>2017-08-29T07:06:12Z</time>
      </trkpt>
      <trkpt lat="45.92128" lon="6.48606">
        <ele>1467</ele>
        <time>2017-08-29T07:06:13Z</time>
      </trkpt>
      <trkpt lat="45.92127" lon="6.48609">
        <ele>1467</ele>
        <time>2017-08-29T07:06:14Z</time>
      </trkpt>
      <trkpt lat="45.92126" lon="6.48612">
        <ele>1467</ele>
        <time>2017-08-29T07:06:15Z</time>
      </trkpt>
      <trkpt lat="45.92125" lon="6.48615">
        <ele>1467</ele>
        <time>2017-08-29T07:06:16Z</time>
      </trkpt>
      <trkpt lat="45.92124" lon="6.48618">
        <ele>1466</ele>
        <time>2017-08-29T07:06:17Z</time>
      </trkpt>
      <trkpt lat="45.92122" lon="6.48622">
        <ele>1466</ele>
        <time>2017-08-29T07:06:18Z</time>
      </trkpt>
      <trkpt lat="45.92122" lon="6.48625">
        <ele>1466</ele>
        <time>2017-08-29T07:06:19Z</time>
      </trkpt>
      <trkpt lat="45.92121" lon="6.48628">
        <ele>1466</ele>
        <time>2017-08-29T07:06:20Z</time>
      </trkpt>
      <trkpt lat="45.9212" lon="6.4863">
        <ele>1466</ele>
        <time>2017-08-29T07:06:21Z</time>
      </trkpt>
      <trkpt lat="45.92119" lon="6.48632">
        <ele>1466</ele>
        <time>2017-08-29T07:06:22Z</time>
      </trkpt>
      <trkpt lat="45.92117" lon="6.48639">
        <ele>1466</ele>
        <time>2017-08-29T07:06:23Z</time>
      </trkpt>
      <trkpt lat="45.92117" lon="6.48643">
        <ele>1466</ele>
        <time>2017-08-29T07:06:24Z</time>
      </trkpt>
      <trkpt lat="45.92116" lon="6.48646">
        <ele>1466</ele>
        <time>2017-08-29T07:06:25Z</time>
      </trkpt>
      <trkpt lat="45.92116" lon="6.4865">
        <ele>1466</ele>
        <time>2017-08-29T07:06:26Z</time>
      </trkpt>
      <trkpt lat="45.92116" lon="6.48654">
        <ele>1466</ele>
        <time>2017-08-29T07:06:27Z</time>
      </trkpt>
      <trkpt lat="45.92117" lon="6.48657">
        <ele>1466</ele>
        <time>2017-08-29T07:06:28Z</time>
      </trkpt>
      <trkpt lat="45.92118" lon="6.4866">
        <ele>1466</ele>
        <time>2017-08-29T07:06:29Z</time>
      </trkpt>
      <trkpt lat="45.92119" lon="6.48663">
        <ele>1465</ele>
        <time>2017-08-29T07:06:30Z</time>
      </trkpt>
      <trkpt lat="45.92121" lon="6.48666">
        <ele>1465</ele>
        <time>2017-08-29T07:06:31Z</time>
      </trkpt>
      <trkpt lat="45.92123" lon="6.48668">
        <ele>1465</ele>
        <time>2017-08-29T07:06:32Z</time>
      </trkpt>
      <trkpt lat="45.92126" lon="6.48671">
        <ele>1465</ele>
        <time>2017-08-29T07:06:33Z</time>
      </trkpt>
      <trkpt lat="45.92127" lon="6.48674">
        <ele>1465</ele>
        <time>2017-08-29T07:06:34Z</time>
      </trkpt>
      <trkpt lat="45.92129" lon="6.48678">
        <ele>1465</ele>
        <time>2017-08-29T07:06:35Z</time>
      </trkpt>
      <trkpt lat="45.92131" lon="6.4868">
        <ele>1465</ele>
        <time>2017-08-29T07:06:36Z</time>
      </trkpt>
      <trkpt lat="45.92132" lon="6.48683">
        <ele>1464</ele>
        <time>2017-08-29T07:06:37Z</time>
      </trkpt>
      <trkpt lat="45.92134" lon="6.48685">
        <ele>1464</ele>
        <time>2017-08-29T07:06:38Z</time>
      </trkpt>
      <trkpt lat="45.92135" lon="6.48688">
        <ele>1464</ele>
        <time>2017-08-29T07:06:39Z</time>
      </trkpt>
      <trkpt lat="45.92138" lon="6.4869">
        <ele>1464</ele>
        <time>2017-08-29T07:06:40Z</time>
      </trkpt>
      <trkpt lat="45.9214" lon="6.48692">
        <ele>1464</ele>
        <time>2017-08-29T07:06:41Z</time>
      </trkpt>
      <trkpt lat="45.92142" lon="6.48694">
        <ele>1465</ele>
        <time>2017-08-29T07:06:42Z</time>
      </trkpt>
      <trkpt lat="45.92145" lon="6.48695">
        <ele>1465</ele>
        <time>2017-08-29T07:06:43Z</time>
      </trkpt>
      <trkpt lat="45.92147" lon="6.48697">
        <ele>1465</ele>
        <time>2017-08-29T07:06:44Z</time>
      </trkpt>
      <trkpt lat="45.92149" lon="6.487">
        <ele>1464</ele>
        <time>2017-08-29T07:06:45Z</time>
      </trkpt>
      <trkpt lat="45.92151" lon="6.48702">
        <ele>1464</ele>
        <time>2017-08-29T07:06:46Z</time>
      </trkpt>
      <trkpt lat="45.92153" lon="6.48705">
        <ele>1464</ele>
        <time>2017-08-29T07:06:47Z</time>
      </trkpt>
      <trkpt lat="45.92155" lon="6.48708">
        <ele>1464</ele>
        <time>2017-08-29T07:06:48Z</time>
      </trkpt>
      <trkpt lat="45.92156" lon="6.48711">
        <ele>1464</ele>
        <time>2017-08-29T07:06:49Z</time>
      </trkpt>
      <trkpt lat="45.92157" lon="6.48714">
        <ele>1464</ele>
        <time>2017-08-29T07:06:50Z</time>
      </trkpt>
      <trkpt lat="45.92159" lon="6.48718">
        <ele>1464</ele>
        <time>2017-08-29T07:06:51Z</time>
      </trkpt>
      <trkpt lat="45.9216" lon="6.48721">
        <ele>1463</ele>
        <time>2017-08-29T07:06:52Z</time>
      </trkpt>
      <trkpt lat="45.92161" lon="6.48724">
        <ele>1463</ele>
        <time>2017-08-29T07:06:53Z</time>
      </trkpt>
      <trkpt lat="45.92162" lon="6.48727">
        <ele>1463</ele>
        <time>2017-08-29T07:06:54Z</time>
      </trkpt>
      <trkpt lat="45.92162" lon="6.48727">
        <ele>1463</ele>
        <time>2017-08-29T07:06:55Z</time>
      </trkpt>
      <trkpt lat="45.92162" lon="6.48731">
        <ele>1463</ele>
        <time>2017-08-29T07:06:56Z</time>
      </trkpt>
      <trkpt lat="45.92162" lon="6.48731">
        <ele>1463</ele>
        <time>2017-08-29T07:06:57Z</time>
      </trkpt>
      <trkpt lat="45.92162" lon="6.48735">
        <ele>1463</ele>
        <time>2017-08-29T07:06:58Z</time>
      </trkpt>
      <trkpt lat="45.92162" lon="6.48735">
        <ele>1463</ele>
        <time>2017-08-29T07:06:59Z</time>
      </trkpt>
      <trkpt lat="45.92162" lon="6.48738">
        <ele>1463</ele>
        <time>2017-08-29T07:07:00Z</time>
      </trkpt>
      <trkpt lat="45.92162" lon="6.48738">
        <ele>1463</ele>
        <time>2017-08-29T07:07:01Z</time>
      </trkpt>
      <trkpt lat="45.92163" lon="6.48741">
        <ele>1463</ele>
        <time>2017-08-29T07:07:02Z</time>
      </trkpt>
      <trkpt lat="45.92163" lon="6.48741">
        <ele>1463</ele>
        <time>2017-08-29T07:07:03Z</time>
      </trkpt>
      <trkpt lat="45.92165" lon="6.48743">
        <ele>1463</ele>
        <time>2017-08-29T07:07:04Z</time>
      </trkpt>
      <trkpt lat="45.92165" lon="6.48743">
        <ele>1463</ele>
        <time>2017-08-29T07:07:05Z</time>
      </trkpt>
      <trkpt lat="45.92166" lon="6.48747">
        <ele>1463</ele>
        <time>2017-08-29T07:07:06Z</time>
      </trkpt>
      <trkpt lat="45.92166" lon="6.48747">
        <ele>1463</ele>
        <time>2017-08-29T07:07:07Z</time>
      </trkpt>
      <trkpt lat="45.92168" lon="6.48751">
        <ele>1463</ele>
        <time>2017-08-29T07:07:08Z</time>
      </trkpt>
      <trkpt lat="45.92168" lon="6.48751">
        <ele>1463</ele>
        <time>2017-08-29T07:07:09Z</time>
      </trkpt>
      <trkpt lat="45.92169" lon="6.48754">
        <ele>1462</ele>
        <time>2017-08-29T07:07:10Z</time>
      </trkpt>
      <trkpt lat="45.9217" lon="6.48757">
        <ele>1462</ele>
        <time>2017-08-29T07:07:11Z</time>
      </trkpt>
      <trkpt lat="45.92171" lon="6.4876">
        <ele>1462</ele>
        <time>2017-08-29T07:07:12Z</time>
      </trkpt>
      <trkpt lat="45.92172" lon="6.48763">
        <ele>1462</ele>
        <time>2017-08-29T07:07:13Z</time>
      </trkpt>
      <trkpt lat="45.92172" lon="6.48766">
        <ele>1461</ele>
        <time>2017-08-29T07:07:14Z</time>
      </trkpt>
      <trkpt lat="45.92172" lon="6.4877">
        <ele>1460</ele>
        <time>2017-08-29T07:07:15Z</time>
      </trkpt>
      <trkpt lat="45.92172" lon="6.48774">
        <ele>1460</ele>
        <time>2017-08-29T07:07:16Z</time>
      </trkpt>
      <trkpt lat="45.92173" lon="6.48778">
        <ele>1460</ele>
        <time>2017-08-29T07:07:17Z</time>
      </trkpt>
      <trkpt lat="45.92174" lon="6.48781">
        <ele>1460</ele>
        <time>2017-08-29T07:07:18Z</time>
      </trkpt>
      <trkpt lat="45.92174" lon="6.48785">
        <ele>1460</ele>
        <time>2017-08-29T07:07:19Z</time>
      </trkpt>
      <trkpt lat="45.92174" lon="6.48788">
        <ele>1460</ele>
        <time>2017-08-29T07:07:20Z</time>
      </trkpt>
      <trkpt lat="45.92175" lon="6.48792">
        <ele>1460</ele>
        <time>2017-08-29T07:07:21Z</time>
      </trkpt>
      <trkpt lat="45.92176" lon="6.48795">
        <ele>1460</ele>
        <time>2017-08-29T07:07:22Z</time>
      </trkpt>
      <trkpt lat="45.92176" lon="6.48799">
        <ele>1460</ele>
        <time>2017-08-29T07:07:23Z</time>
      </trkpt>
      <trkpt lat="45.92177" lon="6.48802">
        <ele>1460</ele>
        <time>2017-08-29T07:07:24Z</time>
      </trkpt>
      <trkpt lat="45.92177" lon="6.48805">
        <ele>1459</ele>
        <time>2017-08-29T07:07:25Z</time>
      </trkpt>
      <trkpt lat="45.92177" lon="6.48809">
        <ele>1459</ele>
        <time>2017-08-29T07:07:26Z</time>
      </trkpt>
      <trkpt lat="45.92177" lon="6.48813">
        <ele>1459</ele>
        <time>2017-08-29T07:07:27Z</time>
      </trkpt>
      <trkpt lat="45.92177" lon="6.48816">
        <ele>1459</ele>
        <time>2017-08-29T07:07:28Z</time>
      </trkpt>
      <trkpt lat="45.92177" lon="6.48819">
        <ele>1459</ele>
        <time>2017-08-29T07:07:29Z</time>
      </trkpt>
      <trkpt lat="45.92177" lon="6.48823">
        <ele>1458</ele>
        <time>2017-08-29T07:07:30Z</time>
      </trkpt>
      <trkpt lat="45.92176" lon="6.48827">
        <ele>1458</ele>
        <time>2017-08-29T07:07:31Z</time>
      </trkpt>
      <trkpt lat="45.92174" lon="6.4883">
        <ele>1458</ele>
        <time>2017-08-29T07:07:32Z</time>
      </trkpt>
      <trkpt lat="45.92173" lon="6.48834">
        <ele>1457</ele>
        <time>2017-08-29T07:07:33Z</time>
      </trkpt>
      <trkpt lat="45.92172" lon="6.48838">
        <ele>1456</ele>
        <time>2017-08-29T07:07:34Z</time>
      </trkpt>
      <trkpt lat="45.9217" lon="6.48841">
        <ele>1456</ele>
        <time>2017-08-29T07:07:35Z</time>
      </trkpt>
      <trkpt lat="45.92168" lon="6.48844">
        <ele>1456</ele>
        <time>2017-08-29T07:07:36Z</time>
      </trkpt>
      <trkpt lat="45.92166" lon="6.48847">
        <ele>1456</ele>
        <time>2017-08-29T07:07:37Z</time>
      </trkpt>
      <trkpt lat="45.92165" lon="6.4885">
        <ele>1456</ele>
        <time>2017-08-29T07:07:38Z</time>
      </trkpt>
      <trkpt lat="45.92163" lon="6.48854">
        <ele>1456</ele>
        <time>2017-08-29T07:07:39Z</time>
      </trkpt>
      <trkpt lat="45.92162" lon="6.48857">
        <ele>1455</ele>
        <time>2017-08-29T07:07:40Z</time>
      </trkpt>
      <trkpt lat="45.92161" lon="6.48861">
        <ele>1455</ele>
        <time>2017-08-29T07:07:41Z</time>
      </trkpt>
      <trkpt lat="45.9216" lon="6.48864">
        <ele>1455</ele>
        <time>2017-08-29T07:07:42Z</time>
      </trkpt>
      <trkpt lat="45.9216" lon="6.48867">
        <ele>1455</ele>
        <time>2017-08-29T07:07:43Z</time>
      </trkpt>
      <trkpt lat="45.9216" lon="6.48871">
        <ele>1455</ele>
        <time>2017-08-29T07:07:44Z</time>
      </trkpt>
      <trkpt lat="45.9216" lon="6.48875">
        <ele>1455</ele>
        <time>2017-08-29T07:07:45Z</time>
      </trkpt>
      <trkpt lat="45.9216" lon="6.48877">
        <ele>1455</ele>
        <time>2017-08-29T07:07:46Z</time>
      </trkpt>
      <trkpt lat="45.9216" lon="6.4888">
        <ele>1455</ele>
        <time>2017-08-29T07:07:47Z</time>
      </trkpt>
      <trkpt lat="45.9216" lon="6.4888">
        <ele>1454</ele>
        <time>2017-08-29T07:07:48Z</time>
      </trkpt>
      <trkpt lat="45.92161" lon="6.48884">
        <ele>1454</ele>
        <time>2017-08-29T07:07:49Z</time>
      </trkpt>
      <trkpt lat="45.92161" lon="6.48884">
        <ele>1454</ele>
        <time>2017-08-29T07:07:50Z</time>
      </trkpt>
      <trkpt lat="45.92161" lon="6.48884">
        <ele>1454</ele>
        <time>2017-08-29T07:07:51Z</time>
      </trkpt>
      <trkpt lat="45.92162" lon="6.48888">
        <ele>1455</ele>
        <time>2017-08-29T07:07:52Z</time>
      </trkpt>
      <trkpt lat="45.92162" lon="6.48888">
        <ele>1455</ele>
        <time>2017-08-29T07:07:53Z</time>
      </trkpt>
      <trkpt lat="45.92162" lon="6.48888">
        <ele>1454</ele>
        <time>2017-08-29T07:07:54Z</time>
      </trkpt>
      <trkpt lat="45.92162" lon="6.48888">
        <ele>1454</ele>
        <time>2017-08-29T07:07:55Z</time>
      </trkpt>
      <trkpt lat="45.92161" lon="6.4889">
        <ele>1454</ele>
        <time>2017-08-29T07:07:56Z</time>
      </trkpt>
      <trkpt lat="45.92161" lon="6.4889">
        <ele>1454</ele>
        <time>2017-08-29T07:07:57Z</time>
      </trkpt>
      <trkpt lat="45.92161" lon="6.48893">
        <ele>1455</ele>
        <time>2017-08-29T07:07:58Z</time>
      </trkpt>
      <trkpt lat="45.92161" lon="6.48893">
        <ele>1455</ele>
        <time>2017-08-29T07:07:59Z</time>
      </trkpt>
      <trkpt lat="45.92161" lon="6.48896">
        <ele>1455</ele>
        <time>2017-08-29T07:08:00Z</time>
      </trkpt>
      <trkpt lat="45.92161" lon="6.48896">
        <ele>1455</ele>
        <time>2017-08-29T07:08:01Z</time>
      </trkpt>
      <trkpt lat="45.92161" lon="6.489">
        <ele>1456</ele>
        <time>2017-08-29T07:08:02Z</time>
      </trkpt>
      <trkpt lat="45.92161" lon="6.489">
        <ele>1456</ele>
        <time>2017-08-29T07:08:03Z</time>
      </trkpt>
      <trkpt lat="45.92161" lon="6.48903">
        <ele>1456</ele>
        <time>2017-08-29T07:08:04Z</time>
      </trkpt>
      <trkpt lat="45.92161" lon="6.48903">
        <ele>1456</ele>
        <time>2017-08-29T07:08:05Z</time>
      </trkpt>
      <trkpt lat="45.92161" lon="6.48906">
        <ele>1457</ele>
        <time>2017-08-29T07:08:06Z</time>
      </trkpt>
      <trkpt lat="45.92161" lon="6.48906">
        <ele>1457</ele>
        <time>2017-08-29T07:08:07Z</time>
      </trkpt>
      <trkpt lat="45.92161" lon="6.48909">
        <ele>1457</ele>
        <time>2017-08-29T07:08:08Z</time>
      </trkpt>
      <trkpt lat="45.92161" lon="6.48909">
        <ele>1457</ele>
        <time>2017-08-29T07:08:09Z</time>
      </trkpt>
      <trkpt lat="45.9216" lon="6.48911">
        <ele>1457</ele>
        <time>2017-08-29T07:08:10Z</time>
      </trkpt>
      <trkpt lat="45.9216" lon="6.48911">
        <ele>1457</ele>
        <time>2017-08-29T07:08:11Z</time>
      </trkpt>
      <trkpt lat="45.9216" lon="6.48914">
        <ele>1457</ele>
        <time>2017-08-29T07:08:12Z</time>
      </trkpt>
      <trkpt lat="45.9216" lon="6.48914">
        <ele>1458</ele>
        <time>2017-08-29T07:08:13Z</time>
      </trkpt>
      <trkpt lat="45.9216" lon="6.48918">
        <ele>1458</ele>
        <time>2017-08-29T07:08:14Z</time>
      </trkpt>
      <trkpt lat="45.9216" lon="6.48918">
        <ele>1458</ele>
        <time>2017-08-29T07:08:15Z</time>
      </trkpt>
      <trkpt lat="45.9216" lon="6.48923">
        <ele>1458</ele>
        <time>2017-08-29T07:08:16Z</time>
      </trkpt>
      <trkpt lat="45.9216" lon="6.48923">
        <ele>1458</ele>
        <time>2017-08-29T07:08:17Z</time>
      </trkpt>
      <trkpt lat="45.9216" lon="6.48928">
        <ele>1459</ele>
        <time>2017-08-29T07:08:18Z</time>
      </trkpt>
      <trkpt lat="45.9216" lon="6.48928">
        <ele>1459</ele>
        <time>2017-08-29T07:08:19Z</time>
      </trkpt>
      <trkpt lat="45.92161" lon="6.48933">
        <ele>1459</ele>
        <time>2017-08-29T07:08:20Z</time>
      </trkpt>
      <trkpt lat="45.92161" lon="6.48933">
        <ele>1459</ele>
        <time>2017-08-29T07:08:21Z</time>
      </trkpt>
      <trkpt lat="45.92161" lon="6.48938">
        <ele>1459</ele>
        <time>2017-08-29T07:08:22Z</time>
      </trkpt>
      <trkpt lat="45.92161" lon="6.48938">
        <ele>1459</ele>
        <time>2017-08-29T07:08:23Z</time>
      </trkpt>
      <trkpt lat="45.92161" lon="6.48942">
        <ele>1459</ele>
        <time>2017-08-29T07:08:24Z</time>
      </trkpt>
      <trkpt lat="45.9216" lon="6.48945">
        <ele>1460</ele>
        <time>2017-08-29T07:08:25Z</time>
      </trkpt>
      <trkpt lat="45.9216" lon="6.48947">
        <ele>1460</ele>
        <time>2017-08-29T07:08:26Z</time>
      </trkpt>
      <trkpt lat="45.9216" lon="6.48947">
        <ele>1460</ele>
        <time>2017-08-29T07:08:27Z</time>
      </trkpt>
      <trkpt lat="45.9216" lon="6.48952">
        <ele>1461</ele>
        <time>2017-08-29T07:08:28Z</time>
      </trkpt>
      <trkpt lat="45.9216" lon="6.48952">
        <ele>1461</ele>
        <time>2017-08-29T07:08:29Z</time>
      </trkpt>
      <trkpt lat="45.9216" lon="6.48957">
        <ele>1461</ele>
        <time>2017-08-29T07:08:30Z</time>
      </trkpt>
      <trkpt lat="45.9216" lon="6.48957">
        <ele>1461</ele>
        <time>2017-08-29T07:08:31Z</time>
      </trkpt>
      <trkpt lat="45.9216" lon="6.48962">
        <ele>1462</ele>
        <time>2017-08-29T07:08:32Z</time>
      </trkpt>
      <trkpt lat="45.9216" lon="6.48962">
        <ele>1462</ele>
        <time>2017-08-29T07:08:33Z</time>
      </trkpt>
      <trkpt lat="45.9216" lon="6.48967">
        <ele>1462</ele>
        <time>2017-08-29T07:08:34Z</time>
      </trkpt>
      <trkpt lat="45.9216" lon="6.48967">
        <ele>1463</ele>
        <time>2017-08-29T07:08:35Z</time>
      </trkpt>
      <trkpt lat="45.9216" lon="6.48972">
        <ele>1463</ele>
        <time>2017-08-29T07:08:36Z</time>
      </trkpt>
      <trkpt lat="45.9216" lon="6.48972">
        <ele>1463</ele>
        <time>2017-08-29T07:08:37Z</time>
      </trkpt>
      <trkpt lat="45.9216" lon="6.48976">
        <ele>1463</ele>
        <time>2017-08-29T07:08:38Z</time>
      </trkpt>
      <trkpt lat="45.9216" lon="6.48976">
        <ele>1463</ele>
        <time>2017-08-29T07:08:39Z</time>
      </trkpt>
      <trkpt lat="45.9216" lon="6.4898">
        <ele>1463</ele>
        <time>2017-08-29T07:08:40Z</time>
      </trkpt>
      <trkpt lat="45.9216" lon="6.4898">
        <ele>1463</ele>
        <time>2017-08-29T07:08:41Z</time>
      </trkpt>
      <trkpt lat="45.9216" lon="6.48985">
        <ele>1463</ele>
        <time>2017-08-29T07:08:42Z</time>
      </trkpt>
      <trkpt lat="45.9216" lon="6.48985">
        <ele>1463</ele>
        <time>2017-08-29T07:08:43Z</time>
      </trkpt>
      <trkpt lat="45.9216" lon="6.48989">
        <ele>1464</ele>
        <time>2017-08-29T07:08:44Z</time>
      </trkpt>
      <trkpt lat="45.9216" lon="6.48989">
        <ele>1464</ele>
        <time>2017-08-29T07:08:45Z</time>
      </trkpt>
      <trkpt lat="45.9216" lon="6.48993">
        <ele>1464</ele>
        <time>2017-08-29T07:08:46Z</time>
      </trkpt>
      <trkpt lat="45.9216" lon="6.48993">
        <ele>1464</ele>
        <time>2017-08-29T07:08:47Z</time>
      </trkpt>
      <trkpt lat="45.9216" lon="6.48997">
        <ele>1464</ele>
        <time>2017-08-29T07:08:48Z</time>
      </trkpt>
      <trkpt lat="45.9216" lon="6.48997">
        <ele>1464</ele>
        <time>2017-08-29T07:08:49Z</time>
      </trkpt>
      <trkpt lat="45.92159" lon="6.49001">
        <ele>1464</ele>
        <time>2017-08-29T07:08:50Z</time>
      </trkpt>
      <trkpt lat="45.9216" lon="6.49003">
        <ele>1464</ele>
        <time>2017-08-29T07:08:51Z</time>
      </trkpt>
      <trkpt lat="45.9216" lon="6.49005">
        <ele>1464</ele>
        <time>2017-08-29T07:08:52Z</time>
      </trkpt>
      <trkpt lat="45.9216" lon="6.49007">
        <ele>1464</ele>
        <time>2017-08-29T07:08:53Z</time>
      </trkpt>
      <trkpt lat="45.9216" lon="6.49007">
        <ele>1465</ele>
        <time>2017-08-29T07:08:54Z</time>
      </trkpt>
      <trkpt lat="45.9216" lon="6.49011">
        <ele>1465</ele>
        <time>2017-08-29T07:08:55Z</time>
      </trkpt>
      <trkpt lat="45.9216" lon="6.49011">
        <ele>1465</ele>
        <time>2017-08-29T07:08:56Z</time>
      </trkpt>
      <trkpt lat="45.92159" lon="6.49016">
        <ele>1466</ele>
        <time>2017-08-29T07:08:57Z</time>
      </trkpt>
      <trkpt lat="45.92159" lon="6.49016">
        <ele>1466</ele>
        <time>2017-08-29T07:08:58Z</time>
      </trkpt>
      <trkpt lat="45.9216" lon="6.4902">
        <ele>1466</ele>
        <time>2017-08-29T07:08:59Z</time>
      </trkpt>
      <trkpt lat="45.9216" lon="6.4902">
        <ele>1466</ele>
        <time>2017-08-29T07:09:00Z</time>
      </trkpt>
      <trkpt lat="45.9216" lon="6.49023">
        <ele>1466</ele>
        <time>2017-08-29T07:09:01Z</time>
      </trkpt>
      <trkpt lat="45.9216" lon="6.49023">
        <ele>1467</ele>
        <time>2017-08-29T07:09:02Z</time>
      </trkpt>
      <trkpt lat="45.92161" lon="6.49026">
        <ele>1468</ele>
        <time>2017-08-29T07:09:03Z</time>
      </trkpt>
      <trkpt lat="45.92161" lon="6.49026">
        <ele>1468</ele>
        <time>2017-08-29T07:09:04Z</time>
      </trkpt>
      <trkpt lat="45.92162" lon="6.4903">
        <ele>1468</ele>
        <time>2017-08-29T07:09:05Z</time>
      </trkpt>
      <trkpt lat="45.92162" lon="6.4903">
        <ele>1468</ele>
        <time>2017-08-29T07:09:06Z</time>
      </trkpt>
      <trkpt lat="45.92163" lon="6.49033">
        <ele>1468</ele>
        <time>2017-08-29T07:09:07Z</time>
      </trkpt>
      <trkpt lat="45.92163" lon="6.49033">
        <ele>1469</ele>
        <time>2017-08-29T07:09:08Z</time>
      </trkpt>
      <trkpt lat="45.92164" lon="6.49036">
        <ele>1470</ele>
        <time>2017-08-29T07:09:09Z</time>
      </trkpt>
      <trkpt lat="45.92164" lon="6.49036">
        <ele>1470</ele>
        <time>2017-08-29T07:09:10Z</time>
      </trkpt>
      <trkpt lat="45.92165" lon="6.49039">
        <ele>1470</ele>
        <time>2017-08-29T07:09:11Z</time>
      </trkpt>
      <trkpt lat="45.92165" lon="6.49039">
        <ele>1470</ele>
        <time>2017-08-29T07:09:12Z</time>
      </trkpt>
      <trkpt lat="45.92167" lon="6.49043">
        <ele>1470</ele>
        <time>2017-08-29T07:09:13Z</time>
      </trkpt>
      <trkpt lat="45.92167" lon="6.49043">
        <ele>1470</ele>
        <time>2017-08-29T07:09:14Z</time>
      </trkpt>
      <trkpt lat="45.92168" lon="6.49046">
        <ele>1470</ele>
        <time>2017-08-29T07:09:15Z</time>
      </trkpt>
      <trkpt lat="45.92169" lon="6.49048">
        <ele>1470</ele>
        <time>2017-08-29T07:09:16Z</time>
      </trkpt>
      <trkpt lat="45.9217" lon="6.49049">
        <ele>1471</ele>
        <time>2017-08-29T07:09:17Z</time>
      </trkpt>
      <trkpt lat="45.9217" lon="6.49051">
        <ele>1471</ele>
        <time>2017-08-29T07:09:18Z</time>
      </trkpt>
      <trkpt lat="45.9217" lon="6.49051">
        <ele>1472</ele>
        <time>2017-08-29T07:09:19Z</time>
      </trkpt>
      <trkpt lat="45.92171" lon="6.49054">
        <ele>1472</ele>
        <time>2017-08-29T07:09:20Z</time>
      </trkpt>
      <trkpt lat="45.92171" lon="6.49054">
        <ele>1472</ele>
        <time>2017-08-29T07:09:21Z</time>
      </trkpt>
      <trkpt lat="45.92171" lon="6.49058">
        <ele>1472</ele>
        <time>2017-08-29T07:09:22Z</time>
      </trkpt>
      <trkpt lat="45.92171" lon="6.49058">
        <ele>1472</ele>
        <time>2017-08-29T07:09:23Z</time>
      </trkpt>
      <trkpt lat="45.92171" lon="6.49061">
        <ele>1472</ele>
        <time>2017-08-29T07:09:24Z</time>
      </trkpt>
      <trkpt lat="45.92171" lon="6.49061">
        <ele>1473</ele>
        <time>2017-08-29T07:09:25Z</time>
      </trkpt>
      <trkpt lat="45.92173" lon="6.49064">
        <ele>1473</ele>
        <time>2017-08-29T07:09:26Z</time>
      </trkpt>
      <trkpt lat="45.92173" lon="6.49064">
        <ele>1473</ele>
        <time>2017-08-29T07:09:27Z</time>
      </trkpt>
      <trkpt lat="45.92174" lon="6.49067">
        <ele>1474</ele>
        <time>2017-08-29T07:09:28Z</time>
      </trkpt>
      <trkpt lat="45.92174" lon="6.49067">
        <ele>1474</ele>
        <time>2017-08-29T07:09:29Z</time>
      </trkpt>
      <trkpt lat="45.92175" lon="6.4907">
        <ele>1474</ele>
        <time>2017-08-29T07:09:30Z</time>
      </trkpt>
      <trkpt lat="45.92175" lon="6.4907">
        <ele>1474</ele>
        <time>2017-08-29T07:09:31Z</time>
      </trkpt>
      <trkpt lat="45.92176" lon="6.49073">
        <ele>1474</ele>
        <time>2017-08-29T07:09:32Z</time>
      </trkpt>
      <trkpt lat="45.92176" lon="6.49073">
        <ele>1474</ele>
        <time>2017-08-29T07:09:33Z</time>
      </trkpt>
      <trkpt lat="45.92177" lon="6.49076">
        <ele>1475</ele>
        <time>2017-08-29T07:09:34Z</time>
      </trkpt>
      <trkpt lat="45.92177" lon="6.49076">
        <ele>1476</ele>
        <time>2017-08-29T07:09:35Z</time>
      </trkpt>
      <trkpt lat="45.92178" lon="6.49079">
        <ele>1476</ele>
        <time>2017-08-29T07:09:36Z</time>
      </trkpt>
      <trkpt lat="45.92178" lon="6.49079">
        <ele>1476</ele>
        <time>2017-08-29T07:09:37Z</time>
      </trkpt>
      <trkpt lat="45.9218" lon="6.49081">
        <ele>1477</ele>
        <time>2017-08-29T07:09:38Z</time>
      </trkpt>
      <trkpt lat="45.9218" lon="6.49081">
        <ele>1477</ele>
        <time>2017-08-29T07:09:39Z</time>
      </trkpt>
      <trkpt lat="45.92181" lon="6.49085">
        <ele>1477</ele>
        <time>2017-08-29T07:09:40Z</time>
      </trkpt>
      <trkpt lat="45.92181" lon="6.49085">
        <ele>1477</ele>
        <time>2017-08-29T07:09:41Z</time>
      </trkpt>
      <trkpt lat="45.92182" lon="6.49088">
        <ele>1477</ele>
        <time>2017-08-29T07:09:42Z</time>
      </trkpt>
      <trkpt lat="45.92182" lon="6.49088">
        <ele>1477</ele>
        <time>2017-08-29T07:09:43Z</time>
      </trkpt>
      <trkpt lat="45.92183" lon="6.49091">
        <ele>1478</ele>
        <time>2017-08-29T07:09:44Z</time>
      </trkpt>
      <trkpt lat="45.92183" lon="6.49091">
        <ele>1478</ele>
        <time>2017-08-29T07:09:45Z</time>
      </trkpt>
      <trkpt lat="45.92183" lon="6.49094">
        <ele>1478</ele>
        <time>2017-08-29T07:09:46Z</time>
      </trkpt>
      <trkpt lat="45.92183" lon="6.49094">
        <ele>1478</ele>
        <time>2017-08-29T07:09:47Z</time>
      </trkpt>
      <trkpt lat="45.92184" lon="6.49097">
        <ele>1478</ele>
        <time>2017-08-29T07:09:48Z</time>
      </trkpt>
      <trkpt lat="45.92184" lon="6.49097">
        <ele>1478</ele>
        <time>2017-08-29T07:09:49Z</time>
      </trkpt>
      <trkpt lat="45.92185" lon="6.491">
        <ele>1479</ele>
        <time>2017-08-29T07:09:50Z</time>
      </trkpt>
      <trkpt lat="45.92185" lon="6.491">
        <ele>1479</ele>
        <time>2017-08-29T07:09:51Z</time>
      </trkpt>
      <trkpt lat="45.92185" lon="6.49104">
        <ele>1479</ele>
        <time>2017-08-29T07:09:52Z</time>
      </trkpt>
      <trkpt lat="45.92185" lon="6.49104">
        <ele>1479</ele>
        <time>2017-08-29T07:09:53Z</time>
      </trkpt>
      <trkpt lat="45.92185" lon="6.49107">
        <ele>1480</ele>
        <time>2017-08-29T07:09:54Z</time>
      </trkpt>
      <trkpt lat="45.92185" lon="6.49107">
        <ele>1480</ele>
        <time>2017-08-29T07:09:55Z</time>
      </trkpt>
      <trkpt lat="45.92185" lon="6.4911">
        <ele>1480</ele>
        <time>2017-08-29T07:09:56Z</time>
      </trkpt>
      <trkpt lat="45.92185" lon="6.4911">
        <ele>1481</ele>
        <time>2017-08-29T07:09:57Z</time>
      </trkpt>
      <trkpt lat="45.92185" lon="6.49113">
        <ele>1481</ele>
        <time>2017-08-29T07:09:58Z</time>
      </trkpt>
      <trkpt lat="45.92185" lon="6.49113">
        <ele>1481</ele>
        <time>2017-08-29T07:09:59Z</time>
      </trkpt>
      <trkpt lat="45.92185" lon="6.49117">
        <ele>1481</ele>
        <time>2017-08-29T07:10:00Z</time>
      </trkpt>
      <trkpt lat="45.92185" lon="6.49117">
        <ele>1481</ele>
        <time>2017-08-29T07:10:01Z</time>
      </trkpt>
      <trkpt lat="45.92185" lon="6.4912">
        <ele>1482</ele>
        <time>2017-08-29T07:10:02Z</time>
      </trkpt>
      <trkpt lat="45.92185" lon="6.4912">
        <ele>1482</ele>
        <time>2017-08-29T07:10:03Z</time>
      </trkpt>
      <trkpt lat="45.92185" lon="6.49124">
        <ele>1482</ele>
        <time>2017-08-29T07:10:04Z</time>
      </trkpt>
      <trkpt lat="45.92185" lon="6.49124">
        <ele>1482</ele>
        <time>2017-08-29T07:10:05Z</time>
      </trkpt>
      <trkpt lat="45.92185" lon="6.49127">
        <ele>1482</ele>
        <time>2017-08-29T07:10:06Z</time>
      </trkpt>
      <trkpt lat="45.92185" lon="6.49127">
        <ele>1483</ele>
        <time>2017-08-29T07:10:07Z</time>
      </trkpt>
      <trkpt lat="45.92184" lon="6.4913">
        <ele>1484</ele>
        <time>2017-08-29T07:10:08Z</time>
      </trkpt>
      <trkpt lat="45.92184" lon="6.4913">
        <ele>1484</ele>
        <time>2017-08-29T07:10:09Z</time>
      </trkpt>
      <trkpt lat="45.92184" lon="6.49134">
        <ele>1484</ele>
        <time>2017-08-29T07:10:10Z</time>
      </trkpt>
      <trkpt lat="45.92184" lon="6.49134">
        <ele>1484</ele>
        <time>2017-08-29T07:10:11Z</time>
      </trkpt>
      <trkpt lat="45.92184" lon="6.49138">
        <ele>1485</ele>
        <time>2017-08-29T07:10:12Z</time>
      </trkpt>
      <trkpt lat="45.92184" lon="6.49139">
        <ele>1485</ele>
        <time>2017-08-29T07:10:13Z</time>
      </trkpt>
      <trkpt lat="45.92184" lon="6.49141">
        <ele>1486</ele>
        <time>2017-08-29T07:10:14Z</time>
      </trkpt>
      <trkpt lat="45.92184" lon="6.49143">
        <ele>1486</ele>
        <time>2017-08-29T07:10:15Z</time>
      </trkpt>
      <trkpt lat="45.92184" lon="6.49144">
        <ele>1486</ele>
        <time>2017-08-29T07:10:16Z</time>
      </trkpt>
      <trkpt lat="45.92184" lon="6.49144">
        <ele>1487</ele>
        <time>2017-08-29T07:10:17Z</time>
      </trkpt>
      <trkpt lat="45.92183" lon="6.49147">
        <ele>1487</ele>
        <time>2017-08-29T07:10:18Z</time>
      </trkpt>
      <trkpt lat="45.92183" lon="6.49147">
        <ele>1487</ele>
        <time>2017-08-29T07:10:19Z</time>
      </trkpt>
      <trkpt lat="45.92183" lon="6.49147">
        <ele>1487</ele>
        <time>2017-08-29T07:10:20Z</time>
      </trkpt>
      <trkpt lat="45.92183" lon="6.49151">
        <ele>1488</ele>
        <time>2017-08-29T07:10:21Z</time>
      </trkpt>
      <trkpt lat="45.92183" lon="6.49151">
        <ele>1488</ele>
        <time>2017-08-29T07:10:22Z</time>
      </trkpt>
      <trkpt lat="45.92183" lon="6.49151">
        <ele>1488</ele>
        <time>2017-08-29T07:10:23Z</time>
      </trkpt>
      <trkpt lat="45.92184" lon="6.49155">
        <ele>1488</ele>
        <time>2017-08-29T07:10:24Z</time>
      </trkpt>
      <trkpt lat="45.92184" lon="6.49155">
        <ele>1488</ele>
        <time>2017-08-29T07:10:25Z</time>
      </trkpt>
      <trkpt lat="45.92184" lon="6.49158">
        <ele>1489</ele>
        <time>2017-08-29T07:10:26Z</time>
      </trkpt>
      <trkpt lat="45.92184" lon="6.49158">
        <ele>1489</ele>
        <time>2017-08-29T07:10:27Z</time>
      </trkpt>
      <trkpt lat="45.92185" lon="6.49161">
        <ele>1489</ele>
        <time>2017-08-29T07:10:28Z</time>
      </trkpt>
      <trkpt lat="45.92185" lon="6.49161">
        <ele>1489</ele>
        <time>2017-08-29T07:10:29Z</time>
      </trkpt>
      <trkpt lat="45.92186" lon="6.49164">
        <ele>1489</ele>
        <time>2017-08-29T07:10:30Z</time>
      </trkpt>
      <trkpt lat="45.92186" lon="6.49164">
        <ele>1490</ele>
        <time>2017-08-29T07:10:31Z</time>
      </trkpt>
      <trkpt lat="45.92186" lon="6.49166">
        <ele>1491</ele>
        <time>2017-08-29T07:10:32Z</time>
      </trkpt>
      <trkpt lat="45.92186" lon="6.49168">
        <ele>1491</ele>
        <time>2017-08-29T07:10:33Z</time>
      </trkpt>
      <trkpt lat="45.92186" lon="6.49169">
        <ele>1492</ele>
        <time>2017-08-29T07:10:34Z</time>
      </trkpt>
      <trkpt lat="45.92187" lon="6.4917">
        <ele>1492</ele>
        <time>2017-08-29T07:10:35Z</time>
      </trkpt>
      <trkpt lat="45.92187" lon="6.49172">
        <ele>1492</ele>
        <time>2017-08-29T07:10:36Z</time>
      </trkpt>
      <trkpt lat="45.92187" lon="6.49173">
        <ele>1492</ele>
        <time>2017-08-29T07:10:37Z</time>
      </trkpt>
      <trkpt lat="45.92187" lon="6.49174">
        <ele>1492</ele>
        <time>2017-08-29T07:10:38Z</time>
      </trkpt>
      <trkpt lat="45.92188" lon="6.49176">
        <ele>1492</ele>
        <time>2017-08-29T07:10:39Z</time>
      </trkpt>
      <trkpt lat="45.92188" lon="6.49177">
        <ele>1492</ele>
        <time>2017-08-29T07:10:40Z</time>
      </trkpt>
      <trkpt lat="45.92188" lon="6.49177">
        <ele>1493</ele>
        <time>2017-08-29T07:10:41Z</time>
      </trkpt>
      <trkpt lat="45.92189" lon="6.49179">
        <ele>1494</ele>
        <time>2017-08-29T07:10:42Z</time>
      </trkpt>
      <trkpt lat="45.92189" lon="6.49179">
        <ele>1494</ele>
        <time>2017-08-29T07:10:43Z</time>
      </trkpt>
      <trkpt lat="45.9219" lon="6.49182">
        <ele>1494</ele>
        <time>2017-08-29T07:10:44Z</time>
      </trkpt>
      <trkpt lat="45.9219" lon="6.49182">
        <ele>1495</ele>
        <time>2017-08-29T07:10:45Z</time>
      </trkpt>
      <trkpt lat="45.92191" lon="6.49186">
        <ele>1495</ele>
        <time>2017-08-29T07:10:46Z</time>
      </trkpt>
      <trkpt lat="45.92191" lon="6.49186">
        <ele>1495</ele>
        <time>2017-08-29T07:10:47Z</time>
      </trkpt>
      <trkpt lat="45.92191" lon="6.49188">
        <ele>1495</ele>
        <time>2017-08-29T07:10:48Z</time>
      </trkpt>
      <trkpt lat="45.92192" lon="6.49189">
        <ele>1495</ele>
        <time>2017-08-29T07:10:49Z</time>
      </trkpt>
      <trkpt lat="45.92192" lon="6.49191">
        <ele>1496</ele>
        <time>2017-08-29T07:10:50Z</time>
      </trkpt>
      <trkpt lat="45.92192" lon="6.49192">
        <ele>1496</ele>
        <time>2017-08-29T07:10:51Z</time>
      </trkpt>
      <trkpt lat="45.92193" lon="6.49194">
        <ele>1496</ele>
        <time>2017-08-29T07:10:52Z</time>
      </trkpt>
      <trkpt lat="45.92193" lon="6.49195">
        <ele>1496</ele>
        <time>2017-08-29T07:10:53Z</time>
      </trkpt>
      <trkpt lat="45.92194" lon="6.49196">
        <ele>1497</ele>
        <time>2017-08-29T07:10:54Z</time>
      </trkpt>
      <trkpt lat="45.92194" lon="6.49198">
        <ele>1497</ele>
        <time>2017-08-29T07:10:55Z</time>
      </trkpt>
      <trkpt lat="45.92194" lon="6.49199">
        <ele>1497</ele>
        <time>2017-08-29T07:10:56Z</time>
      </trkpt>
      <trkpt lat="45.92195" lon="6.492">
        <ele>1498</ele>
        <time>2017-08-29T07:10:57Z</time>
      </trkpt>
      <trkpt lat="45.92195" lon="6.49202">
        <ele>1498</ele>
        <time>2017-08-29T07:10:58Z</time>
      </trkpt>
      <trkpt lat="45.92194" lon="6.49203">
        <ele>1498</ele>
        <time>2017-08-29T07:10:59Z</time>
      </trkpt>
      <trkpt lat="45.92194" lon="6.49205">
        <ele>1499</ele>
        <time>2017-08-29T07:11:00Z</time>
      </trkpt>
      <trkpt lat="45.92194" lon="6.49206">
        <ele>1499</ele>
        <time>2017-08-29T07:11:01Z</time>
      </trkpt>
      <trkpt lat="45.92194" lon="6.49208">
        <ele>1499</ele>
        <time>2017-08-29T07:11:02Z</time>
      </trkpt>
      <trkpt lat="45.92194" lon="6.49209">
        <ele>1499</ele>
        <time>2017-08-29T07:11:03Z</time>
      </trkpt>
      <trkpt lat="45.92194" lon="6.49209">
        <ele>1499</ele>
        <time>2017-08-29T07:11:04Z</time>
      </trkpt>
      <trkpt lat="45.92194" lon="6.49209">
        <ele>1499</ele>
        <time>2017-08-29T07:11:05Z</time>
      </trkpt>
      <trkpt lat="45.92194" lon="6.49213">
        <ele>1499</ele>
        <time>2017-08-29T07:11:06Z</time>
      </trkpt>
      <trkpt lat="45.92194" lon="6.49213">
        <ele>1499</ele>
        <time>2017-08-29T07:11:07Z</time>
      </trkpt>
      <trkpt lat="45.92195" lon="6.49215">
        <ele>1500</ele>
        <time>2017-08-29T07:11:08Z</time>
      </trkpt>
      <trkpt lat="45.92195" lon="6.49215">
        <ele>1501</ele>
        <time>2017-08-29T07:11:09Z</time>
      </trkpt>
      <trkpt lat="45.92195" lon="6.49215">
        <ele>1501</ele>
        <time>2017-08-29T07:11:10Z</time>
      </trkpt>
      <trkpt lat="45.92196" lon="6.49219">
        <ele>1501</ele>
        <time>2017-08-29T07:11:11Z</time>
      </trkpt>
      <trkpt lat="45.92196" lon="6.49219">
        <ele>1502</ele>
        <time>2017-08-29T07:11:12Z</time>
      </trkpt>
      <trkpt lat="45.92197" lon="6.49222">
        <ele>1502</ele>
        <time>2017-08-29T07:11:13Z</time>
      </trkpt>
      <trkpt lat="45.92197" lon="6.49223">
        <ele>1502</ele>
        <time>2017-08-29T07:11:14Z</time>
      </trkpt>
      <trkpt lat="45.92198" lon="6.49224">
        <ele>1502</ele>
        <time>2017-08-29T07:11:15Z</time>
      </trkpt>
      <trkpt lat="45.92198" lon="6.49225">
        <ele>1502</ele>
        <time>2017-08-29T07:11:16Z</time>
      </trkpt>
      <trkpt lat="45.92199" lon="6.49226">
        <ele>1503</ele>
        <time>2017-08-29T07:11:17Z</time>
      </trkpt>
      <trkpt lat="45.92199" lon="6.49227">
        <ele>1503</ele>
        <time>2017-08-29T07:11:18Z</time>
      </trkpt>
      <trkpt lat="45.922" lon="6.49229">
        <ele>1503</ele>
        <time>2017-08-29T07:11:19Z</time>
      </trkpt>
      <trkpt lat="45.92201" lon="6.4923">
        <ele>1504</ele>
        <time>2017-08-29T07:11:20Z</time>
      </trkpt>
      <trkpt lat="45.92201" lon="6.49231">
        <ele>1504</ele>
        <time>2017-08-29T07:11:21Z</time>
      </trkpt>
      <trkpt lat="45.92202" lon="6.49232">
        <ele>1504</ele>
        <time>2017-08-29T07:11:22Z</time>
      </trkpt>
      <trkpt lat="45.92202" lon="6.49233">
        <ele>1504</ele>
        <time>2017-08-29T07:11:23Z</time>
      </trkpt>
      <trkpt lat="45.92202" lon="6.49234">
        <ele>1505</ele>
        <time>2017-08-29T07:11:24Z</time>
      </trkpt>
      <trkpt lat="45.92203" lon="6.49236">
        <ele>1506</ele>
        <time>2017-08-29T07:11:25Z</time>
      </trkpt>
      <trkpt lat="45.92203" lon="6.49237">
        <ele>1506</ele>
        <time>2017-08-29T07:11:26Z</time>
      </trkpt>
      <trkpt lat="45.92203" lon="6.49239">
        <ele>1506</ele>
        <time>2017-08-29T07:11:27Z</time>
      </trkpt>
      <trkpt lat="45.92203" lon="6.4924">
        <ele>1507</ele>
        <time>2017-08-29T07:11:28Z</time>
      </trkpt>
      <trkpt lat="45.92203" lon="6.49242">
        <ele>1507</ele>
        <time>2017-08-29T07:11:29Z</time>
      </trkpt>
      <trkpt lat="45.92203" lon="6.49243">
        <ele>1507</ele>
        <time>2017-08-29T07:11:30Z</time>
      </trkpt>
      <trkpt lat="45.92204" lon="6.49245">
        <ele>1507</ele>
        <time>2017-08-29T07:11:31Z</time>
      </trkpt>
      <trkpt lat="45.92204" lon="6.49246">
        <ele>1507</ele>
        <time>2017-08-29T07:11:32Z</time>
      </trkpt>
      <trkpt lat="45.92204" lon="6.49248">
        <ele>1508</ele>
        <time>2017-08-29T07:11:33Z</time>
      </trkpt>
      <trkpt lat="45.92203" lon="6.49249">
        <ele>1508</ele>
        <time>2017-08-29T07:11:34Z</time>
      </trkpt>
      <trkpt lat="45.92203" lon="6.4925">
        <ele>1508</ele>
        <time>2017-08-29T07:11:35Z</time>
      </trkpt>
      <trkpt lat="45.92203" lon="6.49251">
        <ele>1508</ele>
        <time>2017-08-29T07:11:36Z</time>
      </trkpt>
      <trkpt lat="45.92203" lon="6.49253">
        <ele>1508</ele>
        <time>2017-08-29T07:11:37Z</time>
      </trkpt>
      <trkpt lat="45.92203" lon="6.49254">
        <ele>1509</ele>
        <time>2017-08-29T07:11:38Z</time>
      </trkpt>
      <trkpt lat="45.92203" lon="6.49255">
        <ele>1509</ele>
        <time>2017-08-29T07:11:39Z</time>
      </trkpt>
      <trkpt lat="45.92203" lon="6.49256">
        <ele>1509</ele>
        <time>2017-08-29T07:11:40Z</time>
      </trkpt>
      <trkpt lat="45.92203" lon="6.49258">
        <ele>1509</ele>
        <time>2017-08-29T07:11:41Z</time>
      </trkpt>
      <trkpt lat="45.92202" lon="6.49259">
        <ele>1510</ele>
        <time>2017-08-29T07:11:42Z</time>
      </trkpt>
      <trkpt lat="45.92202" lon="6.4926">
        <ele>1510</ele>
        <time>2017-08-29T07:11:43Z</time>
      </trkpt>
      <trkpt lat="45.92202" lon="6.49262">
        <ele>1510</ele>
        <time>2017-08-29T07:11:44Z</time>
      </trkpt>
      <trkpt lat="45.92202" lon="6.49263">
        <ele>1510</ele>
        <time>2017-08-29T07:11:45Z</time>
      </trkpt>
      <trkpt lat="45.92202" lon="6.49265">
        <ele>1511</ele>
        <time>2017-08-29T07:11:46Z</time>
      </trkpt>
      <trkpt lat="45.92202" lon="6.49267">
        <ele>1511</ele>
        <time>2017-08-29T07:11:47Z</time>
      </trkpt>
      <trkpt lat="45.92202" lon="6.49268">
        <ele>1511</ele>
        <time>2017-08-29T07:11:48Z</time>
      </trkpt>
      <trkpt lat="45.92202" lon="6.4927">
        <ele>1511</ele>
        <time>2017-08-29T07:11:49Z</time>
      </trkpt>
      <trkpt lat="45.92202" lon="6.49271">
        <ele>1512</ele>
        <time>2017-08-29T07:11:50Z</time>
      </trkpt>
      <trkpt lat="45.92202" lon="6.49273">
        <ele>1512</ele>
        <time>2017-08-29T07:11:51Z</time>
      </trkpt>
      <trkpt lat="45.92202" lon="6.49275">
        <ele>1513</ele>
        <time>2017-08-29T07:11:52Z</time>
      </trkpt>
      <trkpt lat="45.92202" lon="6.49276">
        <ele>1513</ele>
        <time>2017-08-29T07:11:53Z</time>
      </trkpt>
      <trkpt lat="45.92203" lon="6.49278">
        <ele>1513</ele>
        <time>2017-08-29T07:11:54Z</time>
      </trkpt>
      <trkpt lat="45.92203" lon="6.49279">
        <ele>1513</ele>
        <time>2017-08-29T07:11:55Z</time>
      </trkpt>
      <trkpt lat="45.92203" lon="6.4928">
        <ele>1513</ele>
        <time>2017-08-29T07:11:56Z</time>
      </trkpt>
      <trkpt lat="45.92203" lon="6.49282">
        <ele>1514</ele>
        <time>2017-08-29T07:11:57Z</time>
      </trkpt>
      <trkpt lat="45.92203" lon="6.49283">
        <ele>1514</ele>
        <time>2017-08-29T07:11:58Z</time>
      </trkpt>
      <trkpt lat="45.92204" lon="6.49285">
        <ele>1514</ele>
        <time>2017-08-29T07:11:59Z</time>
      </trkpt>
      <trkpt lat="45.92204" lon="6.49286">
        <ele>1515</ele>
        <time>2017-08-29T07:12:00Z</time>
      </trkpt>
      <trkpt lat="45.92204" lon="6.49288">
        <ele>1515</ele>
        <time>2017-08-29T07:12:01Z</time>
      </trkpt>
      <trkpt lat="45.92204" lon="6.49289">
        <ele>1515</ele>
        <time>2017-08-29T07:12:02Z</time>
      </trkpt>
      <trkpt lat="45.92205" lon="6.4929">
        <ele>1516</ele>
        <time>2017-08-29T07:12:03Z</time>
      </trkpt>
      <trkpt lat="45.92205" lon="6.49292">
        <ele>1516</ele>
        <time>2017-08-29T07:12:04Z</time>
      </trkpt>
      <trkpt lat="45.92205" lon="6.49293">
        <ele>1516</ele>
        <time>2017-08-29T07:12:05Z</time>
      </trkpt>
      <trkpt lat="45.92205" lon="6.49295">
        <ele>1516</ele>
        <time>2017-08-29T07:12:06Z</time>
      </trkpt>
      <trkpt lat="45.92206" lon="6.49296">
        <ele>1517</ele>
        <time>2017-08-29T07:12:07Z</time>
      </trkpt>
      <trkpt lat="45.92206" lon="6.49297">
        <ele>1517</ele>
        <time>2017-08-29T07:12:08Z</time>
      </trkpt>
      <trkpt lat="45.92206" lon="6.49299">
        <ele>1517</ele>
        <time>2017-08-29T07:12:09Z</time>
      </trkpt>
      <trkpt lat="45.92207" lon="6.493">
        <ele>1517</ele>
        <time>2017-08-29T07:12:10Z</time>
      </trkpt>
      <trkpt lat="45.92207" lon="6.49301">
        <ele>1518</ele>
        <time>2017-08-29T07:12:11Z</time>
      </trkpt>
      <trkpt lat="45.92207" lon="6.49301">
        <ele>1518</ele>
        <time>2017-08-29T07:12:12Z</time>
      </trkpt>
      <trkpt lat="45.92208" lon="6.49302">
        <ele>1518</ele>
        <time>2017-08-29T07:12:13Z</time>
      </trkpt>
      <trkpt lat="45.92208" lon="6.49302">
        <ele>1518</ele>
        <time>2017-08-29T07:12:14Z</time>
      </trkpt>
      <trkpt lat="45.92209" lon="6.49303">
        <ele>1518</ele>
        <time>2017-08-29T07:12:15Z</time>
      </trkpt>
      <trkpt lat="45.92209" lon="6.49303">
        <ele>1518</ele>
        <time>2017-08-29T07:12:16Z</time>
      </trkpt>
      <trkpt lat="45.92209" lon="6.49304">
        <ele>1519</ele>
        <time>2017-08-29T07:12:17Z</time>
      </trkpt>
      <trkpt lat="45.9221" lon="6.49305">
        <ele>1519</ele>
        <time>2017-08-29T07:12:18Z</time>
      </trkpt>
      <trkpt lat="45.9221" lon="6.49305">
        <ele>1519</ele>
        <time>2017-08-29T07:12:19Z</time>
      </trkpt>
      <trkpt lat="45.92214" lon="6.4931">
        <ele>1520</ele>
        <time>2017-08-29T07:12:20Z</time>
      </trkpt>
      <trkpt lat="45.92214" lon="6.49311">
        <ele>1520</ele>
        <time>2017-08-29T07:12:21Z</time>
      </trkpt>
      <trkpt lat="45.92215" lon="6.49313">
        <ele>1520</ele>
        <time>2017-08-29T07:12:22Z</time>
      </trkpt>
      <trkpt lat="45.92215" lon="6.49314">
        <ele>1520</ele>
        <time>2017-08-29T07:12:23Z</time>
      </trkpt>
      <trkpt lat="45.92216" lon="6.49315">
        <ele>1520</ele>
        <time>2017-08-29T07:12:24Z</time>
      </trkpt>
      <trkpt lat="45.92216" lon="6.49316">
        <ele>1520</ele>
        <time>2017-08-29T07:12:25Z</time>
      </trkpt>
      <trkpt lat="45.92217" lon="6.49317">
        <ele>1521</ele>
        <time>2017-08-29T07:12:26Z</time>
      </trkpt>
      <trkpt lat="45.92217" lon="6.49318">
        <ele>1521</ele>
        <time>2017-08-29T07:12:27Z</time>
      </trkpt>
      <trkpt lat="45.92218" lon="6.49319">
        <ele>1521</ele>
        <time>2017-08-29T07:12:28Z</time>
      </trkpt>
      <trkpt lat="45.92219" lon="6.4932">
        <ele>1521</ele>
        <time>2017-08-29T07:12:29Z</time>
      </trkpt>
      <trkpt lat="45.92219" lon="6.49321">
        <ele>1522</ele>
        <time>2017-08-29T07:12:30Z</time>
      </trkpt>
      <trkpt lat="45.9222" lon="6.49322">
        <ele>1522</ele>
        <time>2017-08-29T07:12:31Z</time>
      </trkpt>
      <trkpt lat="45.9222" lon="6.49323">
        <ele>1522</ele>
        <time>2017-08-29T07:12:32Z</time>
      </trkpt>
      <trkpt lat="45.92221" lon="6.49325">
        <ele>1522</ele>
        <time>2017-08-29T07:12:33Z</time>
      </trkpt>
      <trkpt lat="45.92222" lon="6.49326">
        <ele>1523</ele>
        <time>2017-08-29T07:12:34Z</time>
      </trkpt>
      <trkpt lat="45.92222" lon="6.49327">
        <ele>1523</ele>
        <time>2017-08-29T07:12:35Z</time>
      </trkpt>
      <trkpt lat="45.92223" lon="6.49328">
        <ele>1523</ele>
        <time>2017-08-29T07:12:36Z</time>
      </trkpt>
      <trkpt lat="45.92224" lon="6.49329">
        <ele>1524</ele>
        <time>2017-08-29T07:12:37Z</time>
      </trkpt>
      <trkpt lat="45.92224" lon="6.4933">
        <ele>1524</ele>
        <time>2017-08-29T07:12:38Z</time>
      </trkpt>
      <trkpt lat="45.92225" lon="6.49331">
        <ele>1525</ele>
        <time>2017-08-29T07:12:39Z</time>
      </trkpt>
      <trkpt lat="45.92226" lon="6.49333">
        <ele>1525</ele>
        <time>2017-08-29T07:12:40Z</time>
      </trkpt>
      <trkpt lat="45.92226" lon="6.49334">
        <ele>1525</ele>
        <time>2017-08-29T07:12:41Z</time>
      </trkpt>
      <trkpt lat="45.92227" lon="6.49335">
        <ele>1525</ele>
        <time>2017-08-29T07:12:42Z</time>
      </trkpt>
      <trkpt lat="45.92227" lon="6.49337">
        <ele>1526</ele>
        <time>2017-08-29T07:12:43Z</time>
      </trkpt>
      <trkpt lat="45.92227" lon="6.49338">
        <ele>1526</ele>
        <time>2017-08-29T07:12:44Z</time>
      </trkpt>
      <trkpt lat="45.92227" lon="6.49339">
        <ele>1526</ele>
        <time>2017-08-29T07:12:45Z</time>
      </trkpt>
      <trkpt lat="45.92227" lon="6.4934">
        <ele>1526</ele>
        <time>2017-08-29T07:12:46Z</time>
      </trkpt>
      <trkpt lat="45.92227" lon="6.49342">
        <ele>1526</ele>
        <time>2017-08-29T07:12:47Z</time>
      </trkpt>
      <trkpt lat="45.92226" lon="6.49343">
        <ele>1526</ele>
        <time>2017-08-29T07:12:48Z</time>
      </trkpt>
      <trkpt lat="45.92226" lon="6.49344">
        <ele>1526</ele>
        <time>2017-08-29T07:12:49Z</time>
      </trkpt>
      <trkpt lat="45.92226" lon="6.49345">
        <ele>1527</ele>
        <time>2017-08-29T07:12:50Z</time>
      </trkpt>
      <trkpt lat="45.92226" lon="6.49346">
        <ele>1527</ele>
        <time>2017-08-29T07:12:51Z</time>
      </trkpt>
      <trkpt lat="45.92226" lon="6.49348">
        <ele>1527</ele>
        <time>2017-08-29T07:12:52Z</time>
      </trkpt>
      <trkpt lat="45.92226" lon="6.49349">
        <ele>1527</ele>
        <time>2017-08-29T07:12:53Z</time>
      </trkpt>
      <trkpt lat="45.92225" lon="6.4935">
        <ele>1527</ele>
        <time>2017-08-29T07:12:54Z</time>
      </trkpt>
      <trkpt lat="45.92225" lon="6.4935">
        <ele>1528</ele>
        <time>2017-08-29T07:12:55Z</time>
      </trkpt>
      <trkpt lat="45.92225" lon="6.4935">
        <ele>1528</ele>
        <time>2017-08-29T07:12:56Z</time>
      </trkpt>
      <trkpt lat="45.92225" lon="6.49353">
        <ele>1529</ele>
        <time>2017-08-29T07:12:57Z</time>
      </trkpt>
      <trkpt lat="45.92225" lon="6.49354">
        <ele>1529</ele>
        <time>2017-08-29T07:12:58Z</time>
      </trkpt>
      <trkpt lat="45.92225" lon="6.49356">
        <ele>1529</ele>
        <time>2017-08-29T07:12:59Z</time>
      </trkpt>
      <trkpt lat="45.92226" lon="6.49357">
        <ele>1529</ele>
        <time>2017-08-29T07:13:00Z</time>
      </trkpt>
      <trkpt lat="45.92226" lon="6.49358">
        <ele>1529</ele>
        <time>2017-08-29T07:13:01Z</time>
      </trkpt>
      <trkpt lat="45.92226" lon="6.49359">
        <ele>1530</ele>
        <time>2017-08-29T07:13:02Z</time>
      </trkpt>
      <trkpt lat="45.92226" lon="6.49359">
        <ele>1530</ele>
        <time>2017-08-29T07:13:03Z</time>
      </trkpt>
      <trkpt lat="45.92226" lon="6.49363">
        <ele>1530</ele>
        <time>2017-08-29T07:13:04Z</time>
      </trkpt>
      <trkpt lat="45.92226" lon="6.49363">
        <ele>1530</ele>
        <time>2017-08-29T07:13:05Z</time>
      </trkpt>
      <trkpt lat="45.92226" lon="6.49363">
        <ele>1531</ele>
        <time>2017-08-29T07:13:06Z</time>
      </trkpt>
      <trkpt lat="45.92226" lon="6.49366">
        <ele>1531</ele>
        <time>2017-08-29T07:13:07Z</time>
      </trkpt>
      <trkpt lat="45.92226" lon="6.49366">
        <ele>1531</ele>
        <time>2017-08-29T07:13:08Z</time>
      </trkpt>
      <trkpt lat="45.92226" lon="6.49369">
        <ele>1531</ele>
        <time>2017-08-29T07:13:09Z</time>
      </trkpt>
      <trkpt lat="45.92226" lon="6.49369">
        <ele>1531</ele>
        <time>2017-08-29T07:13:10Z</time>
      </trkpt>
      <trkpt lat="45.92227" lon="6.49372">
        <ele>1531</ele>
        <time>2017-08-29T07:13:11Z</time>
      </trkpt>
      <trkpt lat="45.92227" lon="6.49372">
        <ele>1532</ele>
        <time>2017-08-29T07:13:12Z</time>
      </trkpt>
      <trkpt lat="45.92227" lon="6.49372">
        <ele>1532</ele>
        <time>2017-08-29T07:13:13Z</time>
      </trkpt>
      <trkpt lat="45.92228" lon="6.49376">
        <ele>1533</ele>
        <time>2017-08-29T07:13:14Z</time>
      </trkpt>
      <trkpt lat="45.92228" lon="6.49376">
        <ele>1533</ele>
        <time>2017-08-29T07:13:15Z</time>
      </trkpt>
      <trkpt lat="45.92228" lon="6.49376">
        <ele>1534</ele>
        <time>2017-08-29T07:13:16Z</time>
      </trkpt>
      <trkpt lat="45.92228" lon="6.49379">
        <ele>1534</ele>
        <time>2017-08-29T07:13:17Z</time>
      </trkpt>
      <trkpt lat="45.92228" lon="6.49379">
        <ele>1534</ele>
        <time>2017-08-29T07:13:18Z</time>
      </trkpt>
      <trkpt lat="45.92228" lon="6.49379">
        <ele>1534</ele>
        <time>2017-08-29T07:13:19Z</time>
      </trkpt>
      <trkpt lat="45.92228" lon="6.49383">
        <ele>1535</ele>
        <time>2017-08-29T07:13:20Z</time>
      </trkpt>
      <trkpt lat="45.92228" lon="6.49383">
        <ele>1535</ele>
        <time>2017-08-29T07:13:21Z</time>
      </trkpt>
      <trkpt lat="45.92228" lon="6.49383">
        <ele>1535</ele>
        <time>2017-08-29T07:13:22Z</time>
      </trkpt>
      <trkpt lat="45.92228" lon="6.49386">
        <ele>1535</ele>
        <time>2017-08-29T07:13:23Z</time>
      </trkpt>
      <trkpt lat="45.92228" lon="6.49386">
        <ele>1535</ele>
        <time>2017-08-29T07:13:24Z</time>
      </trkpt>
      <trkpt lat="45.92228" lon="6.49386">
        <ele>1535</ele>
        <time>2017-08-29T07:13:25Z</time>
      </trkpt>
      <trkpt lat="45.92228" lon="6.49389">
        <ele>1535</ele>
        <time>2017-08-29T07:13:26Z</time>
      </trkpt>
      <trkpt lat="45.92228" lon="6.49389">
        <ele>1536</ele>
        <time>2017-08-29T07:13:27Z</time>
      </trkpt>
      <trkpt lat="45.92228" lon="6.49389">
        <ele>1536</ele>
        <time>2017-08-29T07:13:28Z</time>
      </trkpt>
      <trkpt lat="45.92229" lon="6.49392">
        <ele>1537</ele>
        <time>2017-08-29T07:13:29Z</time>
      </trkpt>
      <trkpt lat="45.92229" lon="6.49392">
        <ele>1537</ele>
        <time>2017-08-29T07:13:30Z</time>
      </trkpt>
      <trkpt lat="45.92229" lon="6.49395">
        <ele>1537</ele>
        <time>2017-08-29T07:13:31Z</time>
      </trkpt>
      <trkpt lat="45.92229" lon="6.49395">
        <ele>1537</ele>
        <time>2017-08-29T07:13:32Z</time>
      </trkpt>
      <trkpt lat="45.92229" lon="6.49398">
        <ele>1537</ele>
        <time>2017-08-29T07:13:33Z</time>
      </trkpt>
      <trkpt lat="45.92229" lon="6.49398">
        <ele>1537</ele>
        <time>2017-08-29T07:13:34Z</time>
      </trkpt>
      <trkpt lat="45.92229" lon="6.49398">
        <ele>1537</ele>
        <time>2017-08-29T07:13:35Z</time>
      </trkpt>
      <trkpt lat="45.92229" lon="6.49402">
        <ele>1538</ele>
        <time>2017-08-29T07:13:36Z</time>
      </trkpt>
      <trkpt lat="45.92229" lon="6.49402">
        <ele>1538</ele>
        <time>2017-08-29T07:13:37Z</time>
      </trkpt>
      <trkpt lat="45.92229" lon="6.49402">
        <ele>1538</ele>
        <time>2017-08-29T07:13:38Z</time>
      </trkpt>
      <trkpt lat="45.92229" lon="6.49405">
        <ele>1538</ele>
        <time>2017-08-29T07:13:39Z</time>
      </trkpt>
      <trkpt lat="45.92229" lon="6.49405">
        <ele>1539</ele>
        <time>2017-08-29T07:13:40Z</time>
      </trkpt>
      <trkpt lat="45.92229" lon="6.49405">
        <ele>1540</ele>
        <time>2017-08-29T07:13:41Z</time>
      </trkpt>
      <trkpt lat="45.92229" lon="6.49408">
        <ele>1540</ele>
        <time>2017-08-29T07:13:42Z</time>
      </trkpt>
      <trkpt lat="45.92229" lon="6.4941">
        <ele>1540</ele>
        <time>2017-08-29T07:13:43Z</time>
      </trkpt>
      <trkpt lat="45.9223" lon="6.49411">
        <ele>1541</ele>
        <time>2017-08-29T07:13:44Z</time>
      </trkpt>
      <trkpt lat="45.92231" lon="6.49412">
        <ele>1541</ele>
        <time>2017-08-29T07:13:45Z</time>
      </trkpt>
      <trkpt lat="45.92231" lon="6.49414">
        <ele>1541</ele>
        <time>2017-08-29T07:13:46Z</time>
      </trkpt>
      <trkpt lat="45.92232" lon="6.49415">
        <ele>1541</ele>
        <time>2017-08-29T07:13:47Z</time>
      </trkpt>
      <trkpt lat="45.92233" lon="6.49416">
        <ele>1542</ele>
        <time>2017-08-29T07:13:48Z</time>
      </trkpt>
      <trkpt lat="45.92233" lon="6.49416">
        <ele>1542</ele>
        <time>2017-08-29T07:13:49Z</time>
      </trkpt>
      <trkpt lat="45.92234" lon="6.49419">
        <ele>1542</ele>
        <time>2017-08-29T07:13:50Z</time>
      </trkpt>
      <trkpt lat="45.92234" lon="6.49419">
        <ele>1542</ele>
        <time>2017-08-29T07:13:51Z</time>
      </trkpt>
      <trkpt lat="45.92234" lon="6.49419">
        <ele>1542</ele>
        <time>2017-08-29T07:13:52Z</time>
      </trkpt>
      <trkpt lat="45.92234" lon="6.49421">
        <ele>1542</ele>
        <time>2017-08-29T07:13:53Z</time>
      </trkpt>
      <trkpt lat="45.92234" lon="6.49421">
        <ele>1543</ele>
        <time>2017-08-29T07:13:54Z</time>
      </trkpt>
      <trkpt lat="45.92234" lon="6.49421">
        <ele>1544</ele>
        <time>2017-08-29T07:13:55Z</time>
      </trkpt>
      <trkpt lat="45.92234" lon="6.49421">
        <ele>1544</ele>
        <time>2017-08-29T07:13:56Z</time>
      </trkpt>
      <trkpt lat="45.92235" lon="6.49425">
        <ele>1544</ele>
        <time>2017-08-29T07:13:57Z</time>
      </trkpt>
      <trkpt lat="45.92235" lon="6.49425">
        <ele>1544</ele>
        <time>2017-08-29T07:13:58Z</time>
      </trkpt>
      <trkpt lat="45.92236" lon="6.49427">
        <ele>1544</ele>
        <time>2017-08-29T07:13:59Z</time>
      </trkpt>
      <trkpt lat="45.92236" lon="6.49427">
        <ele>1544</ele>
        <time>2017-08-29T07:14:00Z</time>
      </trkpt>
      <trkpt lat="45.92236" lon="6.49427">
        <ele>1545</ele>
        <time>2017-08-29T07:14:01Z</time>
      </trkpt>
      <trkpt lat="45.92237" lon="6.4943">
        <ele>1546</ele>
        <time>2017-08-29T07:14:02Z</time>
      </trkpt>
      <trkpt lat="45.92237" lon="6.4943">
        <ele>1546</ele>
        <time>2017-08-29T07:14:03Z</time>
      </trkpt>
      <trkpt lat="45.92237" lon="6.4943">
        <ele>1546</ele>
        <time>2017-08-29T07:14:04Z</time>
      </trkpt>
      <trkpt lat="45.92239" lon="6.49432">
        <ele>1546</ele>
        <time>2017-08-29T07:14:05Z</time>
      </trkpt>
      <trkpt lat="45.92239" lon="6.49432">
        <ele>1546</ele>
        <time>2017-08-29T07:14:06Z</time>
      </trkpt>
      <trkpt lat="45.92239" lon="6.49432">
        <ele>1547</ele>
        <time>2017-08-29T07:14:07Z</time>
      </trkpt>
      <trkpt lat="45.92238" lon="6.49435">
        <ele>1548</ele>
        <time>2017-08-29T07:14:08Z</time>
      </trkpt>
      <trkpt lat="45.92238" lon="6.49435">
        <ele>1548</ele>
        <time>2017-08-29T07:14:09Z</time>
      </trkpt>
      <trkpt lat="45.92238" lon="6.49435">
        <ele>1548</ele>
        <time>2017-08-29T07:14:10Z</time>
      </trkpt>
      <trkpt lat="45.92239" lon="6.49438">
        <ele>1548</ele>
        <time>2017-08-29T07:14:11Z</time>
      </trkpt>
      <trkpt lat="45.92239" lon="6.49438">
        <ele>1548</ele>
        <time>2017-08-29T07:14:12Z</time>
      </trkpt>
      <trkpt lat="45.92239" lon="6.4944">
        <ele>1548</ele>
        <time>2017-08-29T07:14:13Z</time>
      </trkpt>
      <trkpt lat="45.92239" lon="6.4944">
        <ele>1549</ele>
        <time>2017-08-29T07:14:14Z</time>
      </trkpt>
      <trkpt lat="45.9224" lon="6.49443">
        <ele>1549</ele>
        <time>2017-08-29T07:14:15Z</time>
      </trkpt>
      <trkpt lat="45.9224" lon="6.49443">
        <ele>1549</ele>
        <time>2017-08-29T07:14:16Z</time>
      </trkpt>
      <trkpt lat="45.9224" lon="6.49443">
        <ele>1549</ele>
        <time>2017-08-29T07:14:17Z</time>
      </trkpt>
      <trkpt lat="45.92239" lon="6.49446">
        <ele>1550</ele>
        <time>2017-08-29T07:14:18Z</time>
      </trkpt>
      <trkpt lat="45.92239" lon="6.49446">
        <ele>1550</ele>
        <time>2017-08-29T07:14:19Z</time>
      </trkpt>
      <trkpt lat="45.92239" lon="6.49446">
        <ele>1550</ele>
        <time>2017-08-29T07:14:20Z</time>
      </trkpt>
      <trkpt lat="45.9224" lon="6.49449">
        <ele>1551</ele>
        <time>2017-08-29T07:14:21Z</time>
      </trkpt>
      <trkpt lat="45.9224" lon="6.49449">
        <ele>1551</ele>
        <time>2017-08-29T07:14:22Z</time>
      </trkpt>
      <trkpt lat="45.92242" lon="6.49451">
        <ele>1551</ele>
        <time>2017-08-29T07:14:23Z</time>
      </trkpt>
      <trkpt lat="45.92242" lon="6.49451">
        <ele>1551</ele>
        <time>2017-08-29T07:14:24Z</time>
      </trkpt>
      <trkpt lat="45.92242" lon="6.49451">
        <ele>1551</ele>
        <time>2017-08-29T07:14:25Z</time>
      </trkpt>
      <trkpt lat="45.92243" lon="6.49454">
        <ele>1551</ele>
        <time>2017-08-29T07:14:26Z</time>
      </trkpt>
      <trkpt lat="45.92243" lon="6.49454">
        <ele>1552</ele>
        <time>2017-08-29T07:14:27Z</time>
      </trkpt>
      <trkpt lat="45.92243" lon="6.49454">
        <ele>1553</ele>
        <time>2017-08-29T07:14:28Z</time>
      </trkpt>
      <trkpt lat="45.92243" lon="6.49454">
        <ele>1553</ele>
        <time>2017-08-29T07:14:29Z</time>
      </trkpt>
      <trkpt lat="45.92243" lon="6.49454">
        <ele>1553</ele>
        <time>2017-08-29T07:14:30Z</time>
      </trkpt>
      <trkpt lat="45.92243" lon="6.49459">
        <ele>1553</ele>
        <time>2017-08-29T07:14:31Z</time>
      </trkpt>
      <trkpt lat="45.92243" lon="6.49459">
        <ele>1553</ele>
        <time>2017-08-29T07:14:32Z</time>
      </trkpt>
      <trkpt lat="45.92243" lon="6.49459">
        <ele>1554</ele>
        <time>2017-08-29T07:14:33Z</time>
      </trkpt>
      <trkpt lat="45.92244" lon="6.49462">
        <ele>1554</ele>
        <time>2017-08-29T07:14:34Z</time>
      </trkpt>
      <trkpt lat="45.92244" lon="6.49462">
        <ele>1554</ele>
        <time>2017-08-29T07:14:35Z</time>
      </trkpt>
      <trkpt lat="45.92244" lon="6.49462">
        <ele>1554</ele>
        <time>2017-08-29T07:14:36Z</time>
      </trkpt>
      <trkpt lat="45.92243" lon="6.49466">
        <ele>1555</ele>
        <time>2017-08-29T07:14:37Z</time>
      </trkpt>
      <trkpt lat="45.92243" lon="6.49466">
        <ele>1555</ele>
        <time>2017-08-29T07:14:38Z</time>
      </trkpt>
      <trkpt lat="45.92243" lon="6.49466">
        <ele>1555</ele>
        <time>2017-08-29T07:14:39Z</time>
      </trkpt>
      <trkpt lat="45.92243" lon="6.49469">
        <ele>1556</ele>
        <time>2017-08-29T07:14:40Z</time>
      </trkpt>
      <trkpt lat="45.92244" lon="6.4947">
        <ele>1556</ele>
        <time>2017-08-29T07:14:41Z</time>
      </trkpt>
      <trkpt lat="45.92244" lon="6.49471">
        <ele>1556</ele>
        <time>2017-08-29T07:14:42Z</time>
      </trkpt>
      <trkpt lat="45.92245" lon="6.49472">
        <ele>1556</ele>
        <time>2017-08-29T07:14:43Z</time>
      </trkpt>
      <trkpt lat="45.92245" lon="6.49473">
        <ele>1556</ele>
        <time>2017-08-29T07:14:44Z</time>
      </trkpt>
      <trkpt lat="45.92246" lon="6.49474">
        <ele>1557</ele>
        <time>2017-08-29T07:14:45Z</time>
      </trkpt>
      <trkpt lat="45.92246" lon="6.49475">
        <ele>1557</ele>
        <time>2017-08-29T07:14:46Z</time>
      </trkpt>
      <trkpt lat="45.92246" lon="6.49475">
        <ele>1558</ele>
        <time>2017-08-29T07:14:47Z</time>
      </trkpt>
      <trkpt lat="45.92246" lon="6.49475">
        <ele>1558</ele>
        <time>2017-08-29T07:14:48Z</time>
      </trkpt>
      <trkpt lat="45.92246" lon="6.49479">
        <ele>1558</ele>
        <time>2017-08-29T07:14:49Z</time>
      </trkpt>
      <trkpt lat="45.92246" lon="6.49479">
        <ele>1559</ele>
        <time>2017-08-29T07:14:50Z</time>
      </trkpt>
      <trkpt lat="45.92246" lon="6.49479">
        <ele>1559</ele>
        <time>2017-08-29T07:14:51Z</time>
      </trkpt>
      <trkpt lat="45.92246" lon="6.49479">
        <ele>1559</ele>
        <time>2017-08-29T07:14:52Z</time>
      </trkpt>
      <trkpt lat="45.92245" lon="6.49482">
        <ele>1559</ele>
        <time>2017-08-29T07:14:53Z</time>
      </trkpt>
      <trkpt lat="45.92245" lon="6.49482">
        <ele>1559</ele>
        <time>2017-08-29T07:14:54Z</time>
      </trkpt>
      <trkpt lat="45.92245" lon="6.49482">
        <ele>1559</ele>
        <time>2017-08-29T07:14:55Z</time>
      </trkpt>
      <trkpt lat="45.92246" lon="6.49485">
        <ele>1560</ele>
        <time>2017-08-29T07:14:56Z</time>
      </trkpt>
      <trkpt lat="45.92246" lon="6.49485">
        <ele>1560</ele>
        <time>2017-08-29T07:14:57Z</time>
      </trkpt>
      <trkpt lat="45.92246" lon="6.49485">
        <ele>1560</ele>
        <time>2017-08-29T07:14:58Z</time>
      </trkpt>
      <trkpt lat="45.92246" lon="6.49485">
        <ele>1561</ele>
        <time>2017-08-29T07:14:59Z</time>
      </trkpt>
      <trkpt lat="45.92245" lon="6.49488">
        <ele>1561</ele>
        <time>2017-08-29T07:15:00Z</time>
      </trkpt>
      <trkpt lat="45.92245" lon="6.49488">
        <ele>1561</ele>
        <time>2017-08-29T07:15:01Z</time>
      </trkpt>
      <trkpt lat="45.92245" lon="6.49488">
        <ele>1561</ele>
        <time>2017-08-29T07:15:02Z</time>
      </trkpt>
      <trkpt lat="45.92244" lon="6.4949">
        <ele>1561</ele>
        <time>2017-08-29T07:15:03Z</time>
      </trkpt>
      <trkpt lat="45.92244" lon="6.4949">
        <ele>1561</ele>
        <time>2017-08-29T07:15:04Z</time>
      </trkpt>
      <trkpt lat="45.92244" lon="6.4949">
        <ele>1562</ele>
        <time>2017-08-29T07:15:05Z</time>
      </trkpt>
      <trkpt lat="45.92244" lon="6.4949">
        <ele>1563</ele>
        <time>2017-08-29T07:15:06Z</time>
      </trkpt>
      <trkpt lat="45.92242" lon="6.49492">
        <ele>1563</ele>
        <time>2017-08-29T07:15:07Z</time>
      </trkpt>
      <trkpt lat="45.92242" lon="6.49492">
        <ele>1563</ele>
        <time>2017-08-29T07:15:08Z</time>
      </trkpt>
      <trkpt lat="45.92242" lon="6.49492">
        <ele>1563</ele>
        <time>2017-08-29T07:15:09Z</time>
      </trkpt>
      <trkpt lat="45.92241" lon="6.49496">
        <ele>1564</ele>
        <time>2017-08-29T07:15:10Z</time>
      </trkpt>
      <trkpt lat="45.92241" lon="6.49496">
        <ele>1564</ele>
        <time>2017-08-29T07:15:11Z</time>
      </trkpt>
      <trkpt lat="45.92241" lon="6.49496">
        <ele>1564</ele>
        <time>2017-08-29T07:15:12Z</time>
      </trkpt>
      <trkpt lat="45.92241" lon="6.49499">
        <ele>1565</ele>
        <time>2017-08-29T07:15:13Z</time>
      </trkpt>
      <trkpt lat="45.92241" lon="6.49499">
        <ele>1565</ele>
        <time>2017-08-29T07:15:14Z</time>
      </trkpt>
      <trkpt lat="45.92241" lon="6.49499">
        <ele>1565</ele>
        <time>2017-08-29T07:15:15Z</time>
      </trkpt>
      <trkpt lat="45.92242" lon="6.495">
        <ele>1565</ele>
        <time>2017-08-29T07:15:16Z</time>
      </trkpt>
      <trkpt lat="45.92242" lon="6.495">
        <ele>1565</ele>
        <time>2017-08-29T07:15:17Z</time>
      </trkpt>
      <trkpt lat="45.92244" lon="6.49502">
        <ele>1566</ele>
        <time>2017-08-29T07:15:18Z</time>
      </trkpt>
      <trkpt lat="45.92244" lon="6.49502">
        <ele>1566</ele>
        <time>2017-08-29T07:15:19Z</time>
      </trkpt>
      <trkpt lat="45.92244" lon="6.49502">
        <ele>1566</ele>
        <time>2017-08-29T07:15:20Z</time>
      </trkpt>
      <trkpt lat="45.92243" lon="6.49505">
        <ele>1566</ele>
        <time>2017-08-29T07:15:21Z</time>
      </trkpt>
      <trkpt lat="45.92243" lon="6.49505">
        <ele>1566</ele>
        <time>2017-08-29T07:15:22Z</time>
      </trkpt>
      <trkpt lat="45.92243" lon="6.49505">
        <ele>1567</ele>
        <time>2017-08-29T07:15:23Z</time>
      </trkpt>
      <trkpt lat="45.92243" lon="6.49505">
        <ele>1567</ele>
        <time>2017-08-29T07:15:24Z</time>
      </trkpt>
      <trkpt lat="45.92244" lon="6.49507">
        <ele>1568</ele>
        <time>2017-08-29T07:15:25Z</time>
      </trkpt>
      <trkpt lat="45.92244" lon="6.49507">
        <ele>1568</ele>
        <time>2017-08-29T07:15:26Z</time>
      </trkpt>
      <trkpt lat="45.92244" lon="6.49507">
        <ele>1568</ele>
        <time>2017-08-29T07:15:27Z</time>
      </trkpt>
      <trkpt lat="45.92246" lon="6.49509">
        <ele>1569</ele>
        <time>2017-08-29T07:15:28Z</time>
      </trkpt>
      <trkpt lat="45.92246" lon="6.49509">
        <ele>1569</ele>
        <time>2017-08-29T07:15:29Z</time>
      </trkpt>
      <trkpt lat="45.92248" lon="6.49509">
        <ele>1569</ele>
        <time>2017-08-29T07:15:30Z</time>
      </trkpt>
      <trkpt lat="45.92248" lon="6.49509">
        <ele>1569</ele>
        <time>2017-08-29T07:15:31Z</time>
      </trkpt>
      <trkpt lat="45.92248" lon="6.49509">
        <ele>1569</ele>
        <time>2017-08-29T07:15:32Z</time>
      </trkpt>
      <trkpt lat="45.92248" lon="6.49509">
        <ele>1569</ele>
        <time>2017-08-29T07:15:33Z</time>
      </trkpt>
      <trkpt lat="45.92249" lon="6.49512">
        <ele>1569</ele>
        <time>2017-08-29T07:15:34Z</time>
      </trkpt>
      <trkpt lat="45.92249" lon="6.49512">
        <ele>1571</ele>
        <time>2017-08-29T07:15:35Z</time>
      </trkpt>
      <trkpt lat="45.92249" lon="6.49512">
        <ele>1571</ele>
        <time>2017-08-29T07:15:36Z</time>
      </trkpt>
      <trkpt lat="45.92249" lon="6.49515">
        <ele>1571</ele>
        <time>2017-08-29T07:15:37Z</time>
      </trkpt>
      <trkpt lat="45.92249" lon="6.49515">
        <ele>1571</ele>
        <time>2017-08-29T07:15:38Z</time>
      </trkpt>
      <trkpt lat="45.92249" lon="6.49515">
        <ele>1571</ele>
        <time>2017-08-29T07:15:39Z</time>
      </trkpt>
      <trkpt lat="45.92248" lon="6.49518">
        <ele>1571</ele>
        <time>2017-08-29T07:15:40Z</time>
      </trkpt>
      <trkpt lat="45.92248" lon="6.49518">
        <ele>1571</ele>
        <time>2017-08-29T07:15:41Z</time>
      </trkpt>
      <trkpt lat="45.92248" lon="6.49518">
        <ele>1572</ele>
        <time>2017-08-29T07:15:42Z</time>
      </trkpt>
      <trkpt lat="45.92247" lon="6.4952">
        <ele>1573</ele>
        <time>2017-08-29T07:15:43Z</time>
      </trkpt>
      <trkpt lat="45.92247" lon="6.4952">
        <ele>1573</ele>
        <time>2017-08-29T07:15:44Z</time>
      </trkpt>
      <trkpt lat="45.92247" lon="6.4952">
        <ele>1573</ele>
        <time>2017-08-29T07:15:45Z</time>
      </trkpt>
      <trkpt lat="45.92247" lon="6.4952">
        <ele>1574</ele>
        <time>2017-08-29T07:15:46Z</time>
      </trkpt>
      <trkpt lat="45.92247" lon="6.4952">
        <ele>1574</ele>
        <time>2017-08-29T07:15:47Z</time>
      </trkpt>
      <trkpt lat="45.92247" lon="6.49523">
        <ele>1574</ele>
        <time>2017-08-29T07:15:48Z</time>
      </trkpt>
      <trkpt lat="45.92247" lon="6.49523">
        <ele>1574</ele>
        <time>2017-08-29T07:15:49Z</time>
      </trkpt>
      <trkpt lat="45.92247" lon="6.49523">
        <ele>1574</ele>
        <time>2017-08-29T07:15:50Z</time>
      </trkpt>
      <trkpt lat="45.92247" lon="6.49523">
        <ele>1575</ele>
        <time>2017-08-29T07:15:51Z</time>
      </trkpt>
      <trkpt lat="45.92247" lon="6.49526">
        <ele>1575</ele>
        <time>2017-08-29T07:15:52Z</time>
      </trkpt>
      <trkpt lat="45.92247" lon="6.49526">
        <ele>1575</ele>
        <time>2017-08-29T07:15:53Z</time>
      </trkpt>
      <trkpt lat="45.92247" lon="6.49526">
        <ele>1575</ele>
        <time>2017-08-29T07:15:54Z</time>
      </trkpt>
      <trkpt lat="45.92247" lon="6.49528">
        <ele>1575</ele>
        <time>2017-08-29T07:15:55Z</time>
      </trkpt>
      <trkpt lat="45.92247" lon="6.49528">
        <ele>1575</ele>
        <time>2017-08-29T07:15:56Z</time>
      </trkpt>
      <trkpt lat="45.92247" lon="6.49528">
        <ele>1575</ele>
        <time>2017-08-29T07:15:57Z</time>
      </trkpt>
      <trkpt lat="45.92248" lon="6.49532">
        <ele>1575</ele>
        <time>2017-08-29T07:15:58Z</time>
      </trkpt>
      <trkpt lat="45.92248" lon="6.49533">
        <ele>1575</ele>
        <time>2017-08-29T07:15:59Z</time>
      </trkpt>
      <trkpt lat="45.92249" lon="6.49533">
        <ele>1576</ele>
        <time>2017-08-29T07:16:00Z</time>
      </trkpt>
      <trkpt lat="45.9225" lon="6.49534">
        <ele>1576</ele>
        <time>2017-08-29T07:16:01Z</time>
      </trkpt>
      <trkpt lat="45.9225" lon="6.49535">
        <ele>1576</ele>
        <time>2017-08-29T07:16:02Z</time>
      </trkpt>
      <trkpt lat="45.92251" lon="6.49536">
        <ele>1577</ele>
        <time>2017-08-29T07:16:03Z</time>
      </trkpt>
      <trkpt lat="45.92252" lon="6.49537">
        <ele>1577</ele>
        <time>2017-08-29T07:16:04Z</time>
      </trkpt>
      <trkpt lat="45.92253" lon="6.49538">
        <ele>1577</ele>
        <time>2017-08-29T07:16:05Z</time>
      </trkpt>
      <trkpt lat="45.92253" lon="6.49539">
        <ele>1577</ele>
        <time>2017-08-29T07:16:06Z</time>
      </trkpt>
      <trkpt lat="45.92254" lon="6.49539">
        <ele>1577</ele>
        <time>2017-08-29T07:16:07Z</time>
      </trkpt>
      <trkpt lat="45.92254" lon="6.49539">
        <ele>1579</ele>
        <time>2017-08-29T07:16:08Z</time>
      </trkpt>
      <trkpt lat="45.92254" lon="6.49539">
        <ele>1579</ele>
        <time>2017-08-29T07:16:09Z</time>
      </trkpt>
      <trkpt lat="45.92252" lon="6.49542">
        <ele>1579</ele>
        <time>2017-08-29T07:16:10Z</time>
      </trkpt>
      <trkpt lat="45.92252" lon="6.49542">
        <ele>1579</ele>
        <time>2017-08-29T07:16:11Z</time>
      </trkpt>
      <trkpt lat="45.92252" lon="6.49542">
        <ele>1579</ele>
        <time>2017-08-29T07:16:12Z</time>
      </trkpt>
      <trkpt lat="45.92251" lon="6.49544">
        <ele>1579</ele>
        <time>2017-08-29T07:16:13Z</time>
      </trkpt>
      <trkpt lat="45.92251" lon="6.49544">
        <ele>1579</ele>
        <time>2017-08-29T07:16:14Z</time>
      </trkpt>
      <trkpt lat="45.92251" lon="6.49544">
        <ele>1580</ele>
        <time>2017-08-29T07:16:15Z</time>
      </trkpt>
      <trkpt lat="45.92251" lon="6.49544">
        <ele>1580</ele>
        <time>2017-08-29T07:16:16Z</time>
      </trkpt>
      <trkpt lat="45.92251" lon="6.49547">
        <ele>1580</ele>
        <time>2017-08-29T07:16:17Z</time>
      </trkpt>
      <trkpt lat="45.92251" lon="6.49547">
        <ele>1580</ele>
        <time>2017-08-29T07:16:18Z</time>
      </trkpt>
      <trkpt lat="45.92252" lon="6.49548">
        <ele>1580</ele>
        <time>2017-08-29T07:16:19Z</time>
      </trkpt>
      <trkpt lat="45.92252" lon="6.49548">
        <ele>1581</ele>
        <time>2017-08-29T07:16:20Z</time>
      </trkpt>
      <trkpt lat="45.92253" lon="6.49548">
        <ele>1582</ele>
        <time>2017-08-29T07:16:21Z</time>
      </trkpt>
      <trkpt lat="45.92253" lon="6.49549">
        <ele>1582</ele>
        <time>2017-08-29T07:16:22Z</time>
      </trkpt>
      <trkpt lat="45.92254" lon="6.49549">
        <ele>1582</ele>
        <time>2017-08-29T07:16:23Z</time>
      </trkpt>
      <trkpt lat="45.92254" lon="6.49549">
        <ele>1583</ele>
        <time>2017-08-29T07:16:24Z</time>
      </trkpt>
      <trkpt lat="45.92255" lon="6.4955">
        <ele>1583</ele>
        <time>2017-08-29T07:16:25Z</time>
      </trkpt>
      <trkpt lat="45.92256" lon="6.4955">
        <ele>1583</ele>
        <time>2017-08-29T07:16:26Z</time>
      </trkpt>
      <trkpt lat="45.92256" lon="6.49551">
        <ele>1583</ele>
        <time>2017-08-29T07:16:27Z</time>
      </trkpt>
      <trkpt lat="45.92256" lon="6.49551">
        <ele>1583</ele>
        <time>2017-08-29T07:16:28Z</time>
      </trkpt>
      <trkpt lat="45.92256" lon="6.49551">
        <ele>1583</ele>
        <time>2017-08-29T07:16:29Z</time>
      </trkpt>
      <trkpt lat="45.92258" lon="6.49552">
        <ele>1583</ele>
        <time>2017-08-29T07:16:30Z</time>
      </trkpt>
      <trkpt lat="45.92258" lon="6.49552">
        <ele>1583</ele>
        <time>2017-08-29T07:16:31Z</time>
      </trkpt>
      <trkpt lat="45.9226" lon="6.49553">
        <ele>1584</ele>
        <time>2017-08-29T07:16:32Z</time>
      </trkpt>
      <trkpt lat="45.9226" lon="6.49553">
        <ele>1584</ele>
        <time>2017-08-29T07:16:33Z</time>
      </trkpt>
      <trkpt lat="45.92261" lon="6.49554">
        <ele>1585</ele>
        <time>2017-08-29T07:16:34Z</time>
      </trkpt>
      <trkpt lat="45.92262" lon="6.49555">
        <ele>1585</ele>
        <time>2017-08-29T07:16:35Z</time>
      </trkpt>
      <trkpt lat="45.92262" lon="6.49556">
        <ele>1585</ele>
        <time>2017-08-29T07:16:36Z</time>
      </trkpt>
      <trkpt lat="45.92263" lon="6.49557">
        <ele>1585</ele>
        <time>2017-08-29T07:16:37Z</time>
      </trkpt>
      <trkpt lat="45.92264" lon="6.49558">
        <ele>1585</ele>
        <time>2017-08-29T07:16:38Z</time>
      </trkpt>
      <trkpt lat="45.92264" lon="6.49559">
        <ele>1585</ele>
        <time>2017-08-29T07:16:39Z</time>
      </trkpt>
      <trkpt lat="45.92264" lon="6.49559">
        <ele>1585</ele>
        <time>2017-08-29T07:16:40Z</time>
      </trkpt>
      <trkpt lat="45.92264" lon="6.49559">
        <ele>1585</ele>
        <time>2017-08-29T07:16:41Z</time>
      </trkpt>
      <trkpt lat="45.92264" lon="6.49559">
        <ele>1586</ele>
        <time>2017-08-29T07:16:42Z</time>
      </trkpt>
      <trkpt lat="45.92264" lon="6.49559">
        <ele>1586</ele>
        <time>2017-08-29T07:16:43Z</time>
      </trkpt>
      <trkpt lat="45.92264" lon="6.49561">
        <ele>1586</ele>
        <time>2017-08-29T07:16:44Z</time>
      </trkpt>
      <trkpt lat="45.92264" lon="6.49561">
        <ele>1586</ele>
        <time>2017-08-29T07:16:45Z</time>
      </trkpt>
      <trkpt lat="45.92264" lon="6.49561">
        <ele>1586</ele>
        <time>2017-08-29T07:16:46Z</time>
      </trkpt>
      <trkpt lat="45.92264" lon="6.49561">
        <ele>1587</ele>
        <time>2017-08-29T07:16:47Z</time>
      </trkpt>
      <trkpt lat="45.92262" lon="6.49564">
        <ele>1587</ele>
        <time>2017-08-29T07:16:48Z</time>
      </trkpt>
      <trkpt lat="45.92262" lon="6.49564">
        <ele>1587</ele>
        <time>2017-08-29T07:16:49Z</time>
      </trkpt>
      <trkpt lat="45.92262" lon="6.49564">
        <ele>1587</ele>
        <time>2017-08-29T07:16:50Z</time>
      </trkpt>
      <trkpt lat="45.92261" lon="6.49566">
        <ele>1588</ele>
        <time>2017-08-29T07:16:51Z</time>
      </trkpt>
      <trkpt lat="45.92261" lon="6.49566">
        <ele>1588</ele>
        <time>2017-08-29T07:16:52Z</time>
      </trkpt>
      <trkpt lat="45.92261" lon="6.49566">
        <ele>1588</ele>
        <time>2017-08-29T07:16:53Z</time>
      </trkpt>
      <trkpt lat="45.92261" lon="6.49566">
        <ele>1588</ele>
        <time>2017-08-29T07:16:54Z</time>
      </trkpt>
      <trkpt lat="45.92262" lon="6.49569">
        <ele>1588</ele>
        <time>2017-08-29T07:16:55Z</time>
      </trkpt>
      <trkpt lat="45.92262" lon="6.49569">
        <ele>1588</ele>
        <time>2017-08-29T07:16:56Z</time>
      </trkpt>
      <trkpt lat="45.92262" lon="6.49569">
        <ele>1589</ele>
        <time>2017-08-29T07:16:57Z</time>
      </trkpt>
      <trkpt lat="45.92262" lon="6.49569">
        <ele>1589</ele>
        <time>2017-08-29T07:16:58Z</time>
      </trkpt>
      <trkpt lat="45.92263" lon="6.49571">
        <ele>1590</ele>
        <time>2017-08-29T07:16:59Z</time>
      </trkpt>
      <trkpt lat="45.92263" lon="6.49571">
        <ele>1590</ele>
        <time>2017-08-29T07:17:00Z</time>
      </trkpt>
      <trkpt lat="45.92263" lon="6.49571">
        <ele>1590</ele>
        <time>2017-08-29T07:17:01Z</time>
      </trkpt>
      <trkpt lat="45.92263" lon="6.49574">
        <ele>1590</ele>
        <time>2017-08-29T07:17:02Z</time>
      </trkpt>
      <trkpt lat="45.92263" lon="6.49574">
        <ele>1591</ele>
        <time>2017-08-29T07:17:03Z</time>
      </trkpt>
      <trkpt lat="45.92263" lon="6.49574">
        <ele>1591</ele>
        <time>2017-08-29T07:17:04Z</time>
      </trkpt>
      <trkpt lat="45.92263" lon="6.49574">
        <ele>1591</ele>
        <time>2017-08-29T07:17:05Z</time>
      </trkpt>
      <trkpt lat="45.92262" lon="6.49577">
        <ele>1592</ele>
        <time>2017-08-29T07:17:06Z</time>
      </trkpt>
      <trkpt lat="45.92262" lon="6.49577">
        <ele>1592</ele>
        <time>2017-08-29T07:17:07Z</time>
      </trkpt>
      <trkpt lat="45.92262" lon="6.49577">
        <ele>1592</ele>
        <time>2017-08-29T07:17:08Z</time>
      </trkpt>
      <trkpt lat="45.92262" lon="6.4958">
        <ele>1593</ele>
        <time>2017-08-29T07:17:09Z</time>
      </trkpt>
      <trkpt lat="45.92262" lon="6.4958">
        <ele>1593</ele>
        <time>2017-08-29T07:17:10Z</time>
      </trkpt>
      <trkpt lat="45.92262" lon="6.4958">
        <ele>1593</ele>
        <time>2017-08-29T07:17:11Z</time>
      </trkpt>
      <trkpt lat="45.92262" lon="6.49583">
        <ele>1593</ele>
        <time>2017-08-29T07:17:12Z</time>
      </trkpt>
      <trkpt lat="45.92262" lon="6.49583">
        <ele>1594</ele>
        <time>2017-08-29T07:17:13Z</time>
      </trkpt>
      <trkpt lat="45.92263" lon="6.49586">
        <ele>1594</ele>
        <time>2017-08-29T07:17:14Z</time>
      </trkpt>
      <trkpt lat="45.92263" lon="6.49586">
        <ele>1594</ele>
        <time>2017-08-29T07:17:15Z</time>
      </trkpt>
      <trkpt lat="45.92263" lon="6.49586">
        <ele>1594</ele>
        <time>2017-08-29T07:17:16Z</time>
      </trkpt>
      <trkpt lat="45.92264" lon="6.49588">
        <ele>1594</ele>
        <time>2017-08-29T07:17:17Z</time>
      </trkpt>
      <trkpt lat="45.92264" lon="6.49588">
        <ele>1595</ele>
        <time>2017-08-29T07:17:18Z</time>
      </trkpt>
      <trkpt lat="45.92264" lon="6.49588">
        <ele>1595</ele>
        <time>2017-08-29T07:17:19Z</time>
      </trkpt>
      <trkpt lat="45.92265" lon="6.49591">
        <ele>1595</ele>
        <time>2017-08-29T07:17:20Z</time>
      </trkpt>
      <trkpt lat="45.92265" lon="6.49591">
        <ele>1595</ele>
        <time>2017-08-29T07:17:21Z</time>
      </trkpt>
      <trkpt lat="45.92265" lon="6.49591">
        <ele>1595</ele>
        <time>2017-08-29T07:17:22Z</time>
      </trkpt>
      <trkpt lat="45.92265" lon="6.49591">
        <ele>1595</ele>
        <time>2017-08-29T07:17:23Z</time>
      </trkpt>
      <trkpt lat="45.92266" lon="6.49594">
        <ele>1596</ele>
        <time>2017-08-29T07:17:24Z</time>
      </trkpt>
      <trkpt lat="45.92266" lon="6.49594">
        <ele>1596</ele>
        <time>2017-08-29T07:17:25Z</time>
      </trkpt>
      <trkpt lat="45.92266" lon="6.49594">
        <ele>1597</ele>
        <time>2017-08-29T07:17:26Z</time>
      </trkpt>
      <trkpt lat="45.92266" lon="6.49597">
        <ele>1597</ele>
        <time>2017-08-29T07:17:27Z</time>
      </trkpt>
      <trkpt lat="45.92266" lon="6.49597">
        <ele>1598</ele>
        <time>2017-08-29T07:17:28Z</time>
      </trkpt>
      <trkpt lat="45.92266" lon="6.49597">
        <ele>1598</ele>
        <time>2017-08-29T07:17:29Z</time>
      </trkpt>
      <trkpt lat="45.92266" lon="6.49597">
        <ele>1598</ele>
        <time>2017-08-29T07:17:30Z</time>
      </trkpt>
      <trkpt lat="45.92266" lon="6.496">
        <ele>1598</ele>
        <time>2017-08-29T07:17:31Z</time>
      </trkpt>
      <trkpt lat="45.92266" lon="6.496">
        <ele>1599</ele>
        <time>2017-08-29T07:17:32Z</time>
      </trkpt>
      <trkpt lat="45.92266" lon="6.496">
        <ele>1599</ele>
        <time>2017-08-29T07:17:33Z</time>
      </trkpt>
      <trkpt lat="45.92266" lon="6.496">
        <ele>1599</ele>
        <time>2017-08-29T07:17:34Z</time>
      </trkpt>
      <trkpt lat="45.92266" lon="6.49602">
        <ele>1600</ele>
        <time>2017-08-29T07:17:35Z</time>
      </trkpt>
      <trkpt lat="45.92265" lon="6.49603">
        <ele>1600</ele>
        <time>2017-08-29T07:17:36Z</time>
      </trkpt>
      <trkpt lat="45.92265" lon="6.49604">
        <ele>1600</ele>
        <time>2017-08-29T07:17:37Z</time>
      </trkpt>
      <trkpt lat="45.92264" lon="6.49605">
        <ele>1600</ele>
        <time>2017-08-29T07:17:38Z</time>
      </trkpt>
      <trkpt lat="45.92264" lon="6.49605">
        <ele>1600</ele>
        <time>2017-08-29T07:17:39Z</time>
      </trkpt>
      <trkpt lat="45.92263" lon="6.49606">
        <ele>1601</ele>
        <time>2017-08-29T07:17:40Z</time>
      </trkpt>
      <trkpt lat="45.92263" lon="6.49606">
        <ele>1601</ele>
        <time>2017-08-29T07:17:41Z</time>
      </trkpt>
      <trkpt lat="45.92263" lon="6.49606">
        <ele>1601</ele>
        <time>2017-08-29T07:17:42Z</time>
      </trkpt>
      <trkpt lat="45.92262" lon="6.49608">
        <ele>1601</ele>
        <time>2017-08-29T07:17:43Z</time>
      </trkpt>
      <trkpt lat="45.92262" lon="6.49608">
        <ele>1601</ele>
        <time>2017-08-29T07:17:44Z</time>
      </trkpt>
      <trkpt lat="45.92262" lon="6.49608">
        <ele>1602</ele>
        <time>2017-08-29T07:17:45Z</time>
      </trkpt>
      <trkpt lat="45.92262" lon="6.49608">
        <ele>1602</ele>
        <time>2017-08-29T07:17:46Z</time>
      </trkpt>
      <trkpt lat="45.92262" lon="6.49608">
        <ele>1602</ele>
        <time>2017-08-29T07:17:47Z</time>
      </trkpt>
      <trkpt lat="45.9226" lon="6.4961">
        <ele>1602</ele>
        <time>2017-08-29T07:17:48Z</time>
      </trkpt>
      <trkpt lat="45.9226" lon="6.4961">
        <ele>1602</ele>
        <time>2017-08-29T07:17:49Z</time>
      </trkpt>
      <trkpt lat="45.9226" lon="6.4961">
        <ele>1603</ele>
        <time>2017-08-29T07:17:50Z</time>
      </trkpt>
      <trkpt lat="45.9226" lon="6.4961">
        <ele>1603</ele>
        <time>2017-08-29T07:17:51Z</time>
      </trkpt>
      <trkpt lat="45.9226" lon="6.4961">
        <ele>1604</ele>
        <time>2017-08-29T07:17:52Z</time>
      </trkpt>
      <trkpt lat="45.92258" lon="6.49612">
        <ele>1604</ele>
        <time>2017-08-29T07:17:53Z</time>
      </trkpt>
      <trkpt lat="45.92258" lon="6.49612">
        <ele>1604</ele>
        <time>2017-08-29T07:17:54Z</time>
      </trkpt>
      <trkpt lat="45.92258" lon="6.49612">
        <ele>1604</ele>
        <time>2017-08-29T07:17:55Z</time>
      </trkpt>
      <trkpt lat="45.92255" lon="6.49614">
        <ele>1604</ele>
        <time>2017-08-29T07:17:56Z</time>
      </trkpt>
      <trkpt lat="45.92255" lon="6.49614">
        <ele>1604</ele>
        <time>2017-08-29T07:17:57Z</time>
      </trkpt>
      <trkpt lat="45.92255" lon="6.49614">
        <ele>1605</ele>
        <time>2017-08-29T07:17:58Z</time>
      </trkpt>
      <trkpt lat="45.92253" lon="6.49614">
        <ele>1605</ele>
        <time>2017-08-29T07:17:59Z</time>
      </trkpt>
      <trkpt lat="45.92253" lon="6.49614">
        <ele>1605</ele>
        <time>2017-08-29T07:18:00Z</time>
      </trkpt>
      <trkpt lat="45.92251" lon="6.49615">
        <ele>1605</ele>
        <time>2017-08-29T07:18:01Z</time>
      </trkpt>
      <trkpt lat="45.92251" lon="6.49615">
        <ele>1606</ele>
        <time>2017-08-29T07:18:02Z</time>
      </trkpt>
      <trkpt lat="45.92251" lon="6.49615">
        <ele>1606</ele>
        <time>2017-08-29T07:18:03Z</time>
      </trkpt>
      <trkpt lat="45.92249" lon="6.49615">
        <ele>1606</ele>
        <time>2017-08-29T07:18:04Z</time>
      </trkpt>
      <trkpt lat="45.92249" lon="6.49615">
        <ele>1606</ele>
        <time>2017-08-29T07:18:05Z</time>
      </trkpt>
      <trkpt lat="45.92249" lon="6.49615">
        <ele>1607</ele>
        <time>2017-08-29T07:18:06Z</time>
      </trkpt>
      <trkpt lat="45.92249" lon="6.49615">
        <ele>1608</ele>
        <time>2017-08-29T07:18:07Z</time>
      </trkpt>
      <trkpt lat="45.92249" lon="6.49615">
        <ele>1608</ele>
        <time>2017-08-29T07:18:08Z</time>
      </trkpt>
      <trkpt lat="45.92249" lon="6.49615">
        <ele>1608</ele>
        <time>2017-08-29T07:18:09Z</time>
      </trkpt>
      <trkpt lat="45.92249" lon="6.49615">
        <ele>1608</ele>
        <time>2017-08-29T07:18:10Z</time>
      </trkpt>
      <trkpt lat="45.92246" lon="6.49616">
        <ele>1608</ele>
        <time>2017-08-29T07:18:11Z</time>
      </trkpt>
      <trkpt lat="45.92246" lon="6.49616">
        <ele>1608</ele>
        <time>2017-08-29T07:18:12Z</time>
      </trkpt>
      <trkpt lat="45.92245" lon="6.49616">
        <ele>1608</ele>
        <time>2017-08-29T07:18:13Z</time>
      </trkpt>
      <trkpt lat="45.92245" lon="6.49616">
        <ele>1608</ele>
        <time>2017-08-29T07:18:14Z</time>
      </trkpt>
      <trkpt lat="45.92245" lon="6.49616">
        <ele>1608</ele>
        <time>2017-08-29T07:18:15Z</time>
      </trkpt>
      <trkpt lat="45.92243" lon="6.49617">
        <ele>1608</ele>
        <time>2017-08-29T07:18:16Z</time>
      </trkpt>
      <trkpt lat="45.92243" lon="6.49617">
        <ele>1608</ele>
        <time>2017-08-29T07:18:17Z</time>
      </trkpt>
      <trkpt lat="45.92243" lon="6.49617">
        <ele>1608</ele>
        <time>2017-08-29T07:18:18Z</time>
      </trkpt>
      <trkpt lat="45.92243" lon="6.49617">
        <ele>1609</ele>
        <time>2017-08-29T07:18:19Z</time>
      </trkpt>
      <trkpt lat="45.92241" lon="6.49619">
        <ele>1609</ele>
        <time>2017-08-29T07:18:20Z</time>
      </trkpt>
      <trkpt lat="45.92241" lon="6.49619">
        <ele>1610</ele>
        <time>2017-08-29T07:18:21Z</time>
      </trkpt>
      <trkpt lat="45.92241" lon="6.49619">
        <ele>1610</ele>
        <time>2017-08-29T07:18:22Z</time>
      </trkpt>
      <trkpt lat="45.92241" lon="6.49619">
        <ele>1610</ele>
        <time>2017-08-29T07:18:23Z</time>
      </trkpt>
      <trkpt lat="45.92241" lon="6.49619">
        <ele>1610</ele>
        <time>2017-08-29T07:18:24Z</time>
      </trkpt>
      <trkpt lat="45.92241" lon="6.49619">
        <ele>1610</ele>
        <time>2017-08-29T07:18:25Z</time>
      </trkpt>
      <trkpt lat="45.92241" lon="6.49619">
        <ele>1610</ele>
        <time>2017-08-29T07:18:26Z</time>
      </trkpt>
      <trkpt lat="45.92241" lon="6.49619">
        <ele>1610</ele>
        <time>2017-08-29T07:18:27Z</time>
      </trkpt>
      <trkpt lat="45.92241" lon="6.49619">
        <ele>1610</ele>
        <time>2017-08-29T07:18:28Z</time>
      </trkpt>
      <trkpt lat="45.92241" lon="6.49619">
        <ele>1610</ele>
        <time>2017-08-29T07:18:29Z</time>
      </trkpt>
      <trkpt lat="45.92241" lon="6.49619">
        <ele>1610</ele>
        <time>2017-08-29T07:18:30Z</time>
      </trkpt>
      <trkpt lat="45.92241" lon="6.49619">
        <ele>1610</ele>
        <time>2017-08-29T07:18:31Z</time>
      </trkpt>
      <trkpt lat="45.92242" lon="6.49621">
        <ele>1610</ele>
        <time>2017-08-29T07:18:32Z</time>
      </trkpt>
      <trkpt lat="45.92242" lon="6.49621">
        <ele>1610</ele>
        <time>2017-08-29T07:18:33Z</time>
      </trkpt>
      <trkpt lat="45.92244" lon="6.49624">
        <ele>1610</ele>
        <time>2017-08-29T07:18:34Z</time>
      </trkpt>
      <trkpt lat="45.92244" lon="6.49624">
        <ele>1610</ele>
        <time>2017-08-29T07:18:35Z</time>
      </trkpt>
      <trkpt lat="45.92245" lon="6.49626">
        <ele>1611</ele>
        <time>2017-08-29T07:18:36Z</time>
      </trkpt>
      <trkpt lat="45.92245" lon="6.49626">
        <ele>1611</ele>
        <time>2017-08-29T07:18:37Z</time>
      </trkpt>
      <trkpt lat="45.92245" lon="6.49626">
        <ele>1611</ele>
        <time>2017-08-29T07:18:38Z</time>
      </trkpt>
      <trkpt lat="45.92247" lon="6.49629">
        <ele>1612</ele>
        <time>2017-08-29T07:18:39Z</time>
      </trkpt>
      <trkpt lat="45.92247" lon="6.49629">
        <ele>1613</ele>
        <time>2017-08-29T07:18:40Z</time>
      </trkpt>
      <trkpt lat="45.92247" lon="6.49629">
        <ele>1613</ele>
        <time>2017-08-29T07:18:41Z</time>
      </trkpt>
      <trkpt lat="45.92246" lon="6.49631">
        <ele>1613</ele>
        <time>2017-08-29T07:18:42Z</time>
      </trkpt>
      <trkpt lat="45.92246" lon="6.49631">
        <ele>1613</ele>
        <time>2017-08-29T07:18:43Z</time>
      </trkpt>
      <trkpt lat="45.92246" lon="6.49631">
        <ele>1614</ele>
        <time>2017-08-29T07:18:44Z</time>
      </trkpt>
      <trkpt lat="45.92244" lon="6.49633">
        <ele>1614</ele>
        <time>2017-08-29T07:18:45Z</time>
      </trkpt>
      <trkpt lat="45.92244" lon="6.49633">
        <ele>1614</ele>
        <time>2017-08-29T07:18:46Z</time>
      </trkpt>
      <trkpt lat="45.92244" lon="6.49633">
        <ele>1614</ele>
        <time>2017-08-29T07:18:47Z</time>
      </trkpt>
      <trkpt lat="45.92244" lon="6.49633">
        <ele>1615</ele>
        <time>2017-08-29T07:18:48Z</time>
      </trkpt>
      <trkpt lat="45.92244" lon="6.49636">
        <ele>1615</ele>
        <time>2017-08-29T07:18:49Z</time>
      </trkpt>
      <trkpt lat="45.92244" lon="6.49636">
        <ele>1615</ele>
        <time>2017-08-29T07:18:50Z</time>
      </trkpt>
      <trkpt lat="45.92244" lon="6.49636">
        <ele>1615</ele>
        <time>2017-08-29T07:18:51Z</time>
      </trkpt>
      <trkpt lat="45.92245" lon="6.49639">
        <ele>1615</ele>
        <time>2017-08-29T07:18:52Z</time>
      </trkpt>
      <trkpt lat="45.92245" lon="6.49639">
        <ele>1616</ele>
        <time>2017-08-29T07:18:53Z</time>
      </trkpt>
      <trkpt lat="45.92245" lon="6.49639">
        <ele>1616</ele>
        <time>2017-08-29T07:18:54Z</time>
      </trkpt>
      <trkpt lat="45.92243" lon="6.4964">
        <ele>1616</ele>
        <time>2017-08-29T07:18:55Z</time>
      </trkpt>
      <trkpt lat="45.92243" lon="6.4964">
        <ele>1616</ele>
        <time>2017-08-29T07:18:56Z</time>
      </trkpt>
      <trkpt lat="45.92243" lon="6.4964">
        <ele>1616</ele>
        <time>2017-08-29T07:18:57Z</time>
      </trkpt>
      <trkpt lat="45.92243" lon="6.4964">
        <ele>1616</ele>
        <time>2017-08-29T07:18:58Z</time>
      </trkpt>
      <trkpt lat="45.92241" lon="6.49641">
        <ele>1616</ele>
        <time>2017-08-29T07:18:59Z</time>
      </trkpt>
      <trkpt lat="45.92241" lon="6.49641">
        <ele>1617</ele>
        <time>2017-08-29T07:19:00Z</time>
      </trkpt>
      <trkpt lat="45.92241" lon="6.49641">
        <ele>1618</ele>
        <time>2017-08-29T07:19:01Z</time>
      </trkpt>
      <trkpt lat="45.92241" lon="6.49641">
        <ele>1618</ele>
        <time>2017-08-29T07:19:02Z</time>
      </trkpt>
      <trkpt lat="45.92241" lon="6.49641">
        <ele>1618</ele>
        <time>2017-08-29T07:19:03Z</time>
      </trkpt>
      <trkpt lat="45.9224" lon="6.49644">
        <ele>1619</ele>
        <time>2017-08-29T07:19:04Z</time>
      </trkpt>
      <trkpt lat="45.9224" lon="6.49644">
        <ele>1620</ele>
        <time>2017-08-29T07:19:05Z</time>
      </trkpt>
      <trkpt lat="45.9224" lon="6.49644">
        <ele>1620</ele>
        <time>2017-08-29T07:19:06Z</time>
      </trkpt>
      <trkpt lat="45.92239" lon="6.49647">
        <ele>1620</ele>
        <time>2017-08-29T07:19:07Z</time>
      </trkpt>
      <trkpt lat="45.92239" lon="6.49647">
        <ele>1620</ele>
        <time>2017-08-29T07:19:08Z</time>
      </trkpt>
      <trkpt lat="45.92239" lon="6.49647">
        <ele>1621</ele>
        <time>2017-08-29T07:19:09Z</time>
      </trkpt>
      <trkpt lat="45.9224" lon="6.4965">
        <ele>1621</ele>
        <time>2017-08-29T07:19:10Z</time>
      </trkpt>
      <trkpt lat="45.9224" lon="6.4965">
        <ele>1621</ele>
        <time>2017-08-29T07:19:11Z</time>
      </trkpt>
      <trkpt lat="45.9224" lon="6.4965">
        <ele>1621</ele>
        <time>2017-08-29T07:19:12Z</time>
      </trkpt>
      <trkpt lat="45.92239" lon="6.49651">
        <ele>1621</ele>
        <time>2017-08-29T07:19:13Z</time>
      </trkpt>
      <trkpt lat="45.92239" lon="6.49651">
        <ele>1622</ele>
        <time>2017-08-29T07:19:14Z</time>
      </trkpt>
      <trkpt lat="45.92239" lon="6.49651">
        <ele>1622</ele>
        <time>2017-08-29T07:19:15Z</time>
      </trkpt>
      <trkpt lat="45.92236" lon="6.49651">
        <ele>1622</ele>
        <time>2017-08-29T07:19:16Z</time>
      </trkpt>
      <trkpt lat="45.92236" lon="6.49651">
        <ele>1622</ele>
        <time>2017-08-29T07:19:17Z</time>
      </trkpt>
      <trkpt lat="45.92236" lon="6.49651">
        <ele>1623</ele>
        <time>2017-08-29T07:19:18Z</time>
      </trkpt>
      <trkpt lat="45.92234" lon="6.4965">
        <ele>1623</ele>
        <time>2017-08-29T07:19:19Z</time>
      </trkpt>
      <trkpt lat="45.92234" lon="6.4965">
        <ele>1623</ele>
        <time>2017-08-29T07:19:20Z</time>
      </trkpt>
      <trkpt lat="45.92234" lon="6.4965">
        <ele>1623</ele>
        <time>2017-08-29T07:19:21Z</time>
      </trkpt>
      <trkpt lat="45.92231" lon="6.49651">
        <ele>1623</ele>
        <time>2017-08-29T07:19:22Z</time>
      </trkpt>
      <trkpt lat="45.92231" lon="6.49651">
        <ele>1624</ele>
        <time>2017-08-29T07:19:23Z</time>
      </trkpt>
      <trkpt lat="45.92231" lon="6.49651">
        <ele>1624</ele>
        <time>2017-08-29T07:19:24Z</time>
      </trkpt>
      <trkpt lat="45.92231" lon="6.49651">
        <ele>1624</ele>
        <time>2017-08-29T07:19:25Z</time>
      </trkpt>
      <trkpt lat="45.9223" lon="6.49653">
        <ele>1624</ele>
        <time>2017-08-29T07:19:26Z</time>
      </trkpt>
      <trkpt lat="45.9223" lon="6.49653">
        <ele>1624</ele>
        <time>2017-08-29T07:19:27Z</time>
      </trkpt>
      <trkpt lat="45.9223" lon="6.49653">
        <ele>1624</ele>
        <time>2017-08-29T07:19:28Z</time>
      </trkpt>
      <trkpt lat="45.9223" lon="6.49653">
        <ele>1624</ele>
        <time>2017-08-29T07:19:29Z</time>
      </trkpt>
      <trkpt lat="45.92228" lon="6.49654">
        <ele>1625</ele>
        <time>2017-08-29T07:19:30Z</time>
      </trkpt>
      <trkpt lat="45.92228" lon="6.49654">
        <ele>1625</ele>
        <time>2017-08-29T07:19:31Z</time>
      </trkpt>
      <trkpt lat="45.92228" lon="6.49654">
        <ele>1625</ele>
        <time>2017-08-29T07:19:32Z</time>
      </trkpt>
      <trkpt lat="45.92228" lon="6.49657">
        <ele>1625</ele>
        <time>2017-08-29T07:19:33Z</time>
      </trkpt>
      <trkpt lat="45.92228" lon="6.49658">
        <ele>1625</ele>
        <time>2017-08-29T07:19:34Z</time>
      </trkpt>
      <trkpt lat="45.92229" lon="6.49659">
        <ele>1625</ele>
        <time>2017-08-29T07:19:35Z</time>
      </trkpt>
      <trkpt lat="45.92229" lon="6.4966">
        <ele>1626</ele>
        <time>2017-08-29T07:19:36Z</time>
      </trkpt>
      <trkpt lat="45.92229" lon="6.49661">
        <ele>1626</ele>
        <time>2017-08-29T07:19:37Z</time>
      </trkpt>
      <trkpt lat="45.92229" lon="6.49662">
        <ele>1627</ele>
        <time>2017-08-29T07:19:38Z</time>
      </trkpt>
      <trkpt lat="45.92229" lon="6.49664">
        <ele>1627</ele>
        <time>2017-08-29T07:19:39Z</time>
      </trkpt>
      <trkpt lat="45.92229" lon="6.49665">
        <ele>1627</ele>
        <time>2017-08-29T07:19:40Z</time>
      </trkpt>
      <trkpt lat="45.92229" lon="6.49665">
        <ele>1627</ele>
        <time>2017-08-29T07:19:41Z</time>
      </trkpt>
      <trkpt lat="45.92229" lon="6.49665">
        <ele>1628</ele>
        <time>2017-08-29T07:19:42Z</time>
      </trkpt>
      <trkpt lat="45.92229" lon="6.49665">
        <ele>1629</ele>
        <time>2017-08-29T07:19:43Z</time>
      </trkpt>
      <trkpt lat="45.92229" lon="6.49665">
        <ele>1629</ele>
        <time>2017-08-29T07:19:44Z</time>
      </trkpt>
      <trkpt lat="45.92229" lon="6.49665">
        <ele>1629</ele>
        <time>2017-08-29T07:19:45Z</time>
      </trkpt>
      <trkpt lat="45.9223" lon="6.49667">
        <ele>1629</ele>
        <time>2017-08-29T07:19:46Z</time>
      </trkpt>
      <trkpt lat="45.9223" lon="6.49667">
        <ele>1629</ele>
        <time>2017-08-29T07:19:47Z</time>
      </trkpt>
      <trkpt lat="45.9223" lon="6.49667">
        <ele>1629</ele>
        <time>2017-08-29T07:19:48Z</time>
      </trkpt>
      <trkpt lat="45.9223" lon="6.4967">
        <ele>1629</ele>
        <time>2017-08-29T07:19:49Z</time>
      </trkpt>
      <trkpt lat="45.9223" lon="6.4967">
        <ele>1629</ele>
        <time>2017-08-29T07:19:50Z</time>
      </trkpt>
      <trkpt lat="45.9223" lon="6.4967">
        <ele>1630</ele>
        <time>2017-08-29T07:19:51Z</time>
      </trkpt>
      <trkpt lat="45.92228" lon="6.49673">
        <ele>1630</ele>
        <time>2017-08-29T07:19:52Z</time>
      </trkpt>
      <trkpt lat="45.92228" lon="6.49673">
        <ele>1631</ele>
        <time>2017-08-29T07:19:53Z</time>
      </trkpt>
      <trkpt lat="45.92228" lon="6.49673">
        <ele>1631</ele>
        <time>2017-08-29T07:19:54Z</time>
      </trkpt>
      <trkpt lat="45.92229" lon="6.49676">
        <ele>1632</ele>
        <time>2017-08-29T07:19:55Z</time>
      </trkpt>
      <trkpt lat="45.92229" lon="6.49676">
        <ele>1632</ele>
        <time>2017-08-29T07:19:56Z</time>
      </trkpt>
      <trkpt lat="45.9223" lon="6.49679">
        <ele>1632</ele>
        <time>2017-08-29T07:19:57Z</time>
      </trkpt>
      <trkpt lat="45.9223" lon="6.49679">
        <ele>1632</ele>
        <time>2017-08-29T07:19:58Z</time>
      </trkpt>
      <trkpt lat="45.9223" lon="6.49681">
        <ele>1632</ele>
        <time>2017-08-29T07:19:59Z</time>
      </trkpt>
      <trkpt lat="45.92231" lon="6.49683">
        <ele>1632</ele>
        <time>2017-08-29T07:20:00Z</time>
      </trkpt>
      <trkpt lat="45.92232" lon="6.49684">
        <ele>1632</ele>
        <time>2017-08-29T07:20:01Z</time>
      </trkpt>
      <trkpt lat="45.92232" lon="6.49685">
        <ele>1633</ele>
        <time>2017-08-29T07:20:02Z</time>
      </trkpt>
      <trkpt lat="45.92233" lon="6.49686">
        <ele>1634</ele>
        <time>2017-08-29T07:20:03Z</time>
      </trkpt>
      <trkpt lat="45.92234" lon="6.49687">
        <ele>1634</ele>
        <time>2017-08-29T07:20:04Z</time>
      </trkpt>
      <trkpt lat="45.92234" lon="6.49687">
        <ele>1634</ele>
        <time>2017-08-29T07:20:05Z</time>
      </trkpt>
      <trkpt lat="45.92234" lon="6.49687">
        <ele>1634</ele>
        <time>2017-08-29T07:20:06Z</time>
      </trkpt>
      <trkpt lat="45.92234" lon="6.49687">
        <ele>1634</ele>
        <time>2017-08-29T07:20:07Z</time>
      </trkpt>
      <trkpt lat="45.92234" lon="6.49687">
        <ele>1634</ele>
        <time>2017-08-29T07:20:08Z</time>
      </trkpt>
      <trkpt lat="45.92235" lon="6.4969">
        <ele>1634</ele>
        <time>2017-08-29T07:20:09Z</time>
      </trkpt>
      <trkpt lat="45.92235" lon="6.4969">
        <ele>1635</ele>
        <time>2017-08-29T07:20:10Z</time>
      </trkpt>
      <trkpt lat="45.92235" lon="6.4969">
        <ele>1635</ele>
        <time>2017-08-29T07:20:11Z</time>
      </trkpt>
      <trkpt lat="45.92235" lon="6.4969">
        <ele>1635</ele>
        <time>2017-08-29T07:20:12Z</time>
      </trkpt>
      <trkpt lat="45.92235" lon="6.4969">
        <ele>1635</ele>
        <time>2017-08-29T07:20:13Z</time>
      </trkpt>
      <trkpt lat="45.92235" lon="6.4969">
        <ele>1636</ele>
        <time>2017-08-29T07:20:14Z</time>
      </trkpt>
      <trkpt lat="45.92236" lon="6.49694">
        <ele>1636</ele>
        <time>2017-08-29T07:20:15Z</time>
      </trkpt>
      <trkpt lat="45.92236" lon="6.49694">
        <ele>1636</ele>
        <time>2017-08-29T07:20:16Z</time>
      </trkpt>
      <trkpt lat="45.92236" lon="6.49694">
        <ele>1636</ele>
        <time>2017-08-29T07:20:17Z</time>
      </trkpt>
      <trkpt lat="45.92236" lon="6.49694">
        <ele>1636</ele>
        <time>2017-08-29T07:20:18Z</time>
      </trkpt>
      <trkpt lat="45.92237" lon="6.49696">
        <ele>1637</ele>
        <time>2017-08-29T07:20:19Z</time>
      </trkpt>
      <trkpt lat="45.92237" lon="6.49696">
        <ele>1638</ele>
        <time>2017-08-29T07:20:20Z</time>
      </trkpt>
      <trkpt lat="45.92237" lon="6.49696">
        <ele>1638</ele>
        <time>2017-08-29T07:20:21Z</time>
      </trkpt>
      <trkpt lat="45.92237" lon="6.49696">
        <ele>1638</ele>
        <time>2017-08-29T07:20:22Z</time>
      </trkpt>
      <trkpt lat="45.92237" lon="6.49699">
        <ele>1639</ele>
        <time>2017-08-29T07:20:23Z</time>
      </trkpt>
      <trkpt lat="45.92237" lon="6.49699">
        <ele>1639</ele>
        <time>2017-08-29T07:20:24Z</time>
      </trkpt>
      <trkpt lat="45.92237" lon="6.49699">
        <ele>1639</ele>
        <time>2017-08-29T07:20:25Z</time>
      </trkpt>
      <trkpt lat="45.92237" lon="6.49699">
        <ele>1639</ele>
        <time>2017-08-29T07:20:26Z</time>
      </trkpt>
      <trkpt lat="45.92237" lon="6.49699">
        <ele>1639</ele>
        <time>2017-08-29T07:20:27Z</time>
      </trkpt>
      <trkpt lat="45.92235" lon="6.497">
        <ele>1639</ele>
        <time>2017-08-29T07:20:28Z</time>
      </trkpt>
      <trkpt lat="45.92235" lon="6.497">
        <ele>1639</ele>
        <time>2017-08-29T07:20:29Z</time>
      </trkpt>
      <trkpt lat="45.92235" lon="6.497">
        <ele>1640</ele>
        <time>2017-08-29T07:20:30Z</time>
      </trkpt>
      <trkpt lat="45.92235" lon="6.497">
        <ele>1641</ele>
        <time>2017-08-29T07:20:31Z</time>
      </trkpt>
      <trkpt lat="45.92236" lon="6.49702">
        <ele>1641</ele>
        <time>2017-08-29T07:20:32Z</time>
      </trkpt>
      <trkpt lat="45.92236" lon="6.49702">
        <ele>1641</ele>
        <time>2017-08-29T07:20:33Z</time>
      </trkpt>
      <trkpt lat="45.92236" lon="6.49702">
        <ele>1641</ele>
        <time>2017-08-29T07:20:34Z</time>
      </trkpt>
      <trkpt lat="45.92238" lon="6.49705">
        <ele>1641</ele>
        <time>2017-08-29T07:20:35Z</time>
      </trkpt>
      <trkpt lat="45.92238" lon="6.49705">
        <ele>1641</ele>
        <time>2017-08-29T07:20:36Z</time>
      </trkpt>
      <trkpt lat="45.92238" lon="6.49705">
        <ele>1641</ele>
        <time>2017-08-29T07:20:37Z</time>
      </trkpt>
      <trkpt lat="45.92238" lon="6.49705">
        <ele>1642</ele>
        <time>2017-08-29T07:20:38Z</time>
      </trkpt>
      <trkpt lat="45.92237" lon="6.49708">
        <ele>1642</ele>
        <time>2017-08-29T07:20:39Z</time>
      </trkpt>
      <trkpt lat="45.92237" lon="6.49708">
        <ele>1642</ele>
        <time>2017-08-29T07:20:40Z</time>
      </trkpt>
      <trkpt lat="45.92237" lon="6.49708">
        <ele>1643</ele>
        <time>2017-08-29T07:20:41Z</time>
      </trkpt>
      <trkpt lat="45.92237" lon="6.49708">
        <ele>1644</ele>
        <time>2017-08-29T07:20:42Z</time>
      </trkpt>
      <trkpt lat="45.92237" lon="6.49708">
        <ele>1644</ele>
        <time>2017-08-29T07:20:43Z</time>
      </trkpt>
      <trkpt lat="45.92236" lon="6.4971">
        <ele>1644</ele>
        <time>2017-08-29T07:20:44Z</time>
      </trkpt>
      <trkpt lat="45.92236" lon="6.4971">
        <ele>1644</ele>
        <time>2017-08-29T07:20:45Z</time>
      </trkpt>
      <trkpt lat="45.92236" lon="6.4971">
        <ele>1644</ele>
        <time>2017-08-29T07:20:46Z</time>
      </trkpt>
      <trkpt lat="45.92236" lon="6.4971">
        <ele>1644</ele>
        <time>2017-08-29T07:20:47Z</time>
      </trkpt>
      <trkpt lat="45.92236" lon="6.4971">
        <ele>1644</ele>
        <time>2017-08-29T07:20:48Z</time>
      </trkpt>
      <trkpt lat="45.92236" lon="6.4971">
        <ele>1645</ele>
        <time>2017-08-29T07:20:49Z</time>
      </trkpt>
      <trkpt lat="45.92234" lon="6.49711">
        <ele>1645</ele>
        <time>2017-08-29T07:20:50Z</time>
      </trkpt>
      <trkpt lat="45.92234" lon="6.49711">
        <ele>1645</ele>
        <time>2017-08-29T07:20:51Z</time>
      </trkpt>
      <trkpt lat="45.92234" lon="6.49711">
        <ele>1645</ele>
        <time>2017-08-29T07:20:52Z</time>
      </trkpt>
      <trkpt lat="45.92232" lon="6.49713">
        <ele>1645</ele>
        <time>2017-08-29T07:20:53Z</time>
      </trkpt>
      <trkpt lat="45.92232" lon="6.49713">
        <ele>1646</ele>
        <time>2017-08-29T07:20:54Z</time>
      </trkpt>
      <trkpt lat="45.92232" lon="6.49713">
        <ele>1646</ele>
        <time>2017-08-29T07:20:55Z</time>
      </trkpt>
      <trkpt lat="45.92232" lon="6.49713">
        <ele>1646</ele>
        <time>2017-08-29T07:20:56Z</time>
      </trkpt>
      <trkpt lat="45.92232" lon="6.49713">
        <ele>1646</ele>
        <time>2017-08-29T07:20:57Z</time>
      </trkpt>
      <trkpt lat="45.9223" lon="6.49716">
        <ele>1647</ele>
        <time>2017-08-29T07:20:58Z</time>
      </trkpt>
      <trkpt lat="45.9223" lon="6.49716">
        <ele>1647</ele>
        <time>2017-08-29T07:20:59Z</time>
      </trkpt>
      <trkpt lat="45.9223" lon="6.49716">
        <ele>1647</ele>
        <time>2017-08-29T07:21:00Z</time>
      </trkpt>
      <trkpt lat="45.92228" lon="6.49717">
        <ele>1647</ele>
        <time>2017-08-29T07:21:01Z</time>
      </trkpt>
      <trkpt lat="45.92227" lon="6.49717">
        <ele>1647</ele>
        <time>2017-08-29T07:21:02Z</time>
      </trkpt>
      <trkpt lat="45.92226" lon="6.49718">
        <ele>1648</ele>
        <time>2017-08-29T07:21:03Z</time>
      </trkpt>
      <trkpt lat="45.92225" lon="6.49718">
        <ele>1648</ele>
        <time>2017-08-29T07:21:04Z</time>
      </trkpt>
      <trkpt lat="45.92225" lon="6.49719">
        <ele>1649</ele>
        <time>2017-08-29T07:21:05Z</time>
      </trkpt>
      <trkpt lat="45.92224" lon="6.49719">
        <ele>1649</ele>
        <time>2017-08-29T07:21:06Z</time>
      </trkpt>
      <trkpt lat="45.92224" lon="6.49719">
        <ele>1649</ele>
        <time>2017-08-29T07:21:07Z</time>
      </trkpt>
      <trkpt lat="45.92224" lon="6.49719">
        <ele>1649</ele>
        <time>2017-08-29T07:21:08Z</time>
      </trkpt>
      <trkpt lat="45.92222" lon="6.4972">
        <ele>1649</ele>
        <time>2017-08-29T07:21:09Z</time>
      </trkpt>
      <trkpt lat="45.92222" lon="6.4972">
        <ele>1649</ele>
        <time>2017-08-29T07:21:10Z</time>
      </trkpt>
      <trkpt lat="45.92222" lon="6.4972">
        <ele>1650</ele>
        <time>2017-08-29T07:21:11Z</time>
      </trkpt>
      <trkpt lat="45.92222" lon="6.4972">
        <ele>1650</ele>
        <time>2017-08-29T07:21:12Z</time>
      </trkpt>
      <trkpt lat="45.9222" lon="6.49723">
        <ele>1650</ele>
        <time>2017-08-29T07:21:13Z</time>
      </trkpt>
      <trkpt lat="45.9222" lon="6.49723">
        <ele>1650</ele>
        <time>2017-08-29T07:21:14Z</time>
      </trkpt>
      <trkpt lat="45.9222" lon="6.49723">
        <ele>1650</ele>
        <time>2017-08-29T07:21:15Z</time>
      </trkpt>
      <trkpt lat="45.92218" lon="6.49723">
        <ele>1651</ele>
        <time>2017-08-29T07:21:16Z</time>
      </trkpt>
      <trkpt lat="45.92218" lon="6.49723">
        <ele>1651</ele>
        <time>2017-08-29T07:21:17Z</time>
      </trkpt>
      <trkpt lat="45.92218" lon="6.49723">
        <ele>1651</ele>
        <time>2017-08-29T07:21:18Z</time>
      </trkpt>
      <trkpt lat="45.92218" lon="6.49723">
        <ele>1652</ele>
        <time>2017-08-29T07:21:19Z</time>
      </trkpt>
      <trkpt lat="45.92217" lon="6.49726">
        <ele>1652</ele>
        <time>2017-08-29T07:21:20Z</time>
      </trkpt>
      <trkpt lat="45.92217" lon="6.49726">
        <ele>1652</ele>
        <time>2017-08-29T07:21:21Z</time>
      </trkpt>
      <trkpt lat="45.92217" lon="6.49726">
        <ele>1653</ele>
        <time>2017-08-29T07:21:22Z</time>
      </trkpt>
      <trkpt lat="45.92216" lon="6.49729">
        <ele>1653</ele>
        <time>2017-08-29T07:21:23Z</time>
      </trkpt>
      <trkpt lat="45.92216" lon="6.49729">
        <ele>1653</ele>
        <time>2017-08-29T07:21:24Z</time>
      </trkpt>
      <trkpt lat="45.92215" lon="6.49731">
        <ele>1653</ele>
        <time>2017-08-29T07:21:25Z</time>
      </trkpt>
      <trkpt lat="45.92215" lon="6.49731">
        <ele>1653</ele>
        <time>2017-08-29T07:21:26Z</time>
      </trkpt>
      <trkpt lat="45.92215" lon="6.49731">
        <ele>1654</ele>
        <time>2017-08-29T07:21:27Z</time>
      </trkpt>
      <trkpt lat="45.92213" lon="6.49733">
        <ele>1654</ele>
        <time>2017-08-29T07:21:28Z</time>
      </trkpt>
      <trkpt lat="45.92213" lon="6.49733">
        <ele>1654</ele>
        <time>2017-08-29T07:21:29Z</time>
      </trkpt>
      <trkpt lat="45.92213" lon="6.49733">
        <ele>1655</ele>
        <time>2017-08-29T07:21:30Z</time>
      </trkpt>
      <trkpt lat="45.92212" lon="6.49735">
        <ele>1655</ele>
        <time>2017-08-29T07:21:31Z</time>
      </trkpt>
      <trkpt lat="45.92212" lon="6.49735">
        <ele>1655</ele>
        <time>2017-08-29T07:21:32Z</time>
      </trkpt>
      <trkpt lat="45.9221" lon="6.49738">
        <ele>1655</ele>
        <time>2017-08-29T07:21:33Z</time>
      </trkpt>
      <trkpt lat="45.9221" lon="6.49738">
        <ele>1655</ele>
        <time>2017-08-29T07:21:34Z</time>
      </trkpt>
      <trkpt lat="45.9221" lon="6.49738">
        <ele>1655</ele>
        <time>2017-08-29T07:21:35Z</time>
      </trkpt>
      <trkpt lat="45.92209" lon="6.49741">
        <ele>1656</ele>
        <time>2017-08-29T07:21:36Z</time>
      </trkpt>
      <trkpt lat="45.92209" lon="6.49741">
        <ele>1656</ele>
        <time>2017-08-29T07:21:37Z</time>
      </trkpt>
      <trkpt lat="45.92209" lon="6.49741">
        <ele>1657</ele>
        <time>2017-08-29T07:21:38Z</time>
      </trkpt>
      <trkpt lat="45.92207" lon="6.49743">
        <ele>1657</ele>
        <time>2017-08-29T07:21:39Z</time>
      </trkpt>
      <trkpt lat="45.92207" lon="6.49743">
        <ele>1657</ele>
        <time>2017-08-29T07:21:40Z</time>
      </trkpt>
      <trkpt lat="45.92207" lon="6.49743">
        <ele>1657</ele>
        <time>2017-08-29T07:21:41Z</time>
      </trkpt>
      <trkpt lat="45.92207" lon="6.49746">
        <ele>1657</ele>
        <time>2017-08-29T07:21:42Z</time>
      </trkpt>
      <trkpt lat="45.92207" lon="6.49746">
        <ele>1657</ele>
        <time>2017-08-29T07:21:43Z</time>
      </trkpt>
      <trkpt lat="45.92207" lon="6.49746">
        <ele>1657</ele>
        <time>2017-08-29T07:21:44Z</time>
      </trkpt>
      <trkpt lat="45.92205" lon="6.49747">
        <ele>1658</ele>
        <time>2017-08-29T07:21:45Z</time>
      </trkpt>
      <trkpt lat="45.92205" lon="6.49747">
        <ele>1658</ele>
        <time>2017-08-29T07:21:46Z</time>
      </trkpt>
      <trkpt lat="45.92205" lon="6.49747">
        <ele>1659</ele>
        <time>2017-08-29T07:21:47Z</time>
      </trkpt>
      <trkpt lat="45.92203" lon="6.49748">
        <ele>1659</ele>
        <time>2017-08-29T07:21:48Z</time>
      </trkpt>
      <trkpt lat="45.92202" lon="6.49749">
        <ele>1659</ele>
        <time>2017-08-29T07:21:49Z</time>
      </trkpt>
      <trkpt lat="45.92202" lon="6.49749">
        <ele>1660</ele>
        <time>2017-08-29T07:21:50Z</time>
      </trkpt>
      <trkpt lat="45.92201" lon="6.4975">
        <ele>1660</ele>
        <time>2017-08-29T07:21:51Z</time>
      </trkpt>
      <trkpt lat="45.92201" lon="6.4975">
        <ele>1660</ele>
        <time>2017-08-29T07:21:52Z</time>
      </trkpt>
      <trkpt lat="45.92201" lon="6.49751">
        <ele>1660</ele>
        <time>2017-08-29T07:21:53Z</time>
      </trkpt>
      <trkpt lat="45.922" lon="6.49751">
        <ele>1661</ele>
        <time>2017-08-29T07:21:54Z</time>
      </trkpt>
      <trkpt lat="45.922" lon="6.49752">
        <ele>1661</ele>
        <time>2017-08-29T07:21:55Z</time>
      </trkpt>
      <trkpt lat="45.92199" lon="6.49752">
        <ele>1661</ele>
        <time>2017-08-29T07:21:56Z</time>
      </trkpt>
      <trkpt lat="45.92199" lon="6.49753">
        <ele>1661</ele>
        <time>2017-08-29T07:21:57Z</time>
      </trkpt>
      <trkpt lat="45.92199" lon="6.49754">
        <ele>1661</ele>
        <time>2017-08-29T07:21:58Z</time>
      </trkpt>
      <trkpt lat="45.92199" lon="6.49754">
        <ele>1662</ele>
        <time>2017-08-29T07:21:59Z</time>
      </trkpt>
      <trkpt lat="45.92199" lon="6.49755">
        <ele>1662</ele>
        <time>2017-08-29T07:22:00Z</time>
      </trkpt>
      <trkpt lat="45.92199" lon="6.49756">
        <ele>1662</ele>
        <time>2017-08-29T07:22:01Z</time>
      </trkpt>
      <trkpt lat="45.92198" lon="6.49756">
        <ele>1662</ele>
        <time>2017-08-29T07:22:02Z</time>
      </trkpt>
      <trkpt lat="45.92198" lon="6.49757">
        <ele>1663</ele>
        <time>2017-08-29T07:22:03Z</time>
      </trkpt>
      <trkpt lat="45.92198" lon="6.49757">
        <ele>1663</ele>
        <time>2017-08-29T07:22:04Z</time>
      </trkpt>
      <trkpt lat="45.92197" lon="6.49758">
        <ele>1663</ele>
        <time>2017-08-29T07:22:05Z</time>
      </trkpt>
      <trkpt lat="45.92196" lon="6.49758">
        <ele>1663</ele>
        <time>2017-08-29T07:22:06Z</time>
      </trkpt>
      <trkpt lat="45.92195" lon="6.49758">
        <ele>1664</ele>
        <time>2017-08-29T07:22:07Z</time>
      </trkpt>
      <trkpt lat="45.92194" lon="6.49758">
        <ele>1664</ele>
        <time>2017-08-29T07:22:08Z</time>
      </trkpt>
      <trkpt lat="45.92193" lon="6.49757">
        <ele>1664</ele>
        <time>2017-08-29T07:22:09Z</time>
      </trkpt>
      <trkpt lat="45.92192" lon="6.49757">
        <ele>1664</ele>
        <time>2017-08-29T07:22:10Z</time>
      </trkpt>
      <trkpt lat="45.92191" lon="6.49756">
        <ele>1665</ele>
        <time>2017-08-29T07:22:11Z</time>
      </trkpt>
      <trkpt lat="45.9219" lon="6.49756">
        <ele>1665</ele>
        <time>2017-08-29T07:22:12Z</time>
      </trkpt>
      <trkpt lat="45.92189" lon="6.49756">
        <ele>1665</ele>
        <time>2017-08-29T07:22:13Z</time>
      </trkpt>
      <trkpt lat="45.92189" lon="6.49756">
        <ele>1664</ele>
        <time>2017-08-29T07:22:14Z</time>
      </trkpt>
      <trkpt lat="45.92187" lon="6.49755">
        <ele>1665</ele>
        <time>2017-08-29T07:22:15Z</time>
      </trkpt>
      <trkpt lat="45.92187" lon="6.49755">
        <ele>1666</ele>
        <time>2017-08-29T07:22:16Z</time>
      </trkpt>
      <trkpt lat="45.92187" lon="6.49755">
        <ele>1666</ele>
        <time>2017-08-29T07:22:17Z</time>
      </trkpt>
      <trkpt lat="45.92185" lon="6.49755">
        <ele>1666</ele>
        <time>2017-08-29T07:22:18Z</time>
      </trkpt>
      <trkpt lat="45.92185" lon="6.49755">
        <ele>1666</ele>
        <time>2017-08-29T07:22:19Z</time>
      </trkpt>
      <trkpt lat="45.92185" lon="6.49755">
        <ele>1666</ele>
        <time>2017-08-29T07:22:20Z</time>
      </trkpt>
      <trkpt lat="45.92184" lon="6.49757">
        <ele>1666</ele>
        <time>2017-08-29T07:22:21Z</time>
      </trkpt>
      <trkpt lat="45.92184" lon="6.49757">
        <ele>1666</ele>
        <time>2017-08-29T07:22:22Z</time>
      </trkpt>
      <trkpt lat="45.92184" lon="6.49757">
        <ele>1667</ele>
        <time>2017-08-29T07:22:23Z</time>
      </trkpt>
      <trkpt lat="45.92182" lon="6.49758">
        <ele>1667</ele>
        <time>2017-08-29T07:22:24Z</time>
      </trkpt>
      <trkpt lat="45.92181" lon="6.49759">
        <ele>1668</ele>
        <time>2017-08-29T07:22:25Z</time>
      </trkpt>
      <trkpt lat="45.9218" lon="6.4976">
        <ele>1668</ele>
        <time>2017-08-29T07:22:26Z</time>
      </trkpt>
      <trkpt lat="45.9218" lon="6.4976">
        <ele>1668</ele>
        <time>2017-08-29T07:22:27Z</time>
      </trkpt>
      <trkpt lat="45.92179" lon="6.49761">
        <ele>1669</ele>
        <time>2017-08-29T07:22:28Z</time>
      </trkpt>
      <trkpt lat="45.92178" lon="6.49761">
        <ele>1669</ele>
        <time>2017-08-29T07:22:29Z</time>
      </trkpt>
      <trkpt lat="45.92178" lon="6.49761">
        <ele>1670</ele>
        <time>2017-08-29T07:22:30Z</time>
      </trkpt>
      <trkpt lat="45.92178" lon="6.49761">
        <ele>1670</ele>
        <time>2017-08-29T07:22:31Z</time>
      </trkpt>
      <trkpt lat="45.92178" lon="6.49761">
        <ele>1670</ele>
        <time>2017-08-29T07:22:32Z</time>
      </trkpt>
      <trkpt lat="45.92178" lon="6.49764">
        <ele>1670</ele>
        <time>2017-08-29T07:22:33Z</time>
      </trkpt>
      <trkpt lat="45.92178" lon="6.49764">
        <ele>1670</ele>
        <time>2017-08-29T07:22:34Z</time>
      </trkpt>
      <trkpt lat="45.92178" lon="6.49764">
        <ele>1670</ele>
        <time>2017-08-29T07:22:35Z</time>
      </trkpt>
      <trkpt lat="45.92175" lon="6.49766">
        <ele>1670</ele>
        <time>2017-08-29T07:22:36Z</time>
      </trkpt>
      <trkpt lat="45.92175" lon="6.49766">
        <ele>1670</ele>
        <time>2017-08-29T07:22:37Z</time>
      </trkpt>
      <trkpt lat="45.92175" lon="6.49766">
        <ele>1671</ele>
        <time>2017-08-29T07:22:38Z</time>
      </trkpt>
      <trkpt lat="45.92173" lon="6.49766">
        <ele>1672</ele>
        <time>2017-08-29T07:22:39Z</time>
      </trkpt>
      <trkpt lat="45.92172" lon="6.49766">
        <ele>1672</ele>
        <time>2017-08-29T07:22:40Z</time>
      </trkpt>
      <trkpt lat="45.92171" lon="6.49767">
        <ele>1672</ele>
        <time>2017-08-29T07:22:41Z</time>
      </trkpt>
      <trkpt lat="45.9217" lon="6.49767">
        <ele>1672</ele>
        <time>2017-08-29T07:22:42Z</time>
      </trkpt>
      <trkpt lat="45.9217" lon="6.49768">
        <ele>1672</ele>
        <time>2017-08-29T07:22:43Z</time>
      </trkpt>
      <trkpt lat="45.92169" lon="6.49768">
        <ele>1672</ele>
        <time>2017-08-29T07:22:44Z</time>
      </trkpt>
      <trkpt lat="45.92169" lon="6.49768">
        <ele>1672</ele>
        <time>2017-08-29T07:22:45Z</time>
      </trkpt>
      <trkpt lat="45.92169" lon="6.49768">
        <ele>1673</ele>
        <time>2017-08-29T07:22:46Z</time>
      </trkpt>
      <trkpt lat="45.92169" lon="6.49768">
        <ele>1673</ele>
        <time>2017-08-29T07:22:47Z</time>
      </trkpt>
      <trkpt lat="45.92167" lon="6.49771">
        <ele>1673</ele>
        <time>2017-08-29T07:22:48Z</time>
      </trkpt>
      <trkpt lat="45.92167" lon="6.49771">
        <ele>1673</ele>
        <time>2017-08-29T07:22:49Z</time>
      </trkpt>
      <trkpt lat="45.92167" lon="6.49771">
        <ele>1673</ele>
        <time>2017-08-29T07:22:50Z</time>
      </trkpt>
      <trkpt lat="45.92164" lon="6.49771">
        <ele>1673</ele>
        <time>2017-08-29T07:22:51Z</time>
      </trkpt>
      <trkpt lat="45.92164" lon="6.49771">
        <ele>1673</ele>
        <time>2017-08-29T07:22:52Z</time>
      </trkpt>
      <trkpt lat="45.92162" lon="6.49771">
        <ele>1673</ele>
        <time>2017-08-29T07:22:53Z</time>
      </trkpt>
      <trkpt lat="45.92162" lon="6.49771">
        <ele>1673</ele>
        <time>2017-08-29T07:22:54Z</time>
      </trkpt>
      <trkpt lat="45.92162" lon="6.49771">
        <ele>1673</ele>
        <time>2017-08-29T07:22:55Z</time>
      </trkpt>
      <trkpt lat="45.9216" lon="6.49771">
        <ele>1673</ele>
        <time>2017-08-29T07:22:56Z</time>
      </trkpt>
      <trkpt lat="45.9216" lon="6.49771">
        <ele>1674</ele>
        <time>2017-08-29T07:22:57Z</time>
      </trkpt>
      <trkpt lat="45.9216" lon="6.49771">
        <ele>1674</ele>
        <time>2017-08-29T07:22:58Z</time>
      </trkpt>
      <trkpt lat="45.9216" lon="6.49771">
        <ele>1674</ele>
        <time>2017-08-29T07:22:59Z</time>
      </trkpt>
      <trkpt lat="45.92158" lon="6.49772">
        <ele>1675</ele>
        <time>2017-08-29T07:23:00Z</time>
      </trkpt>
      <trkpt lat="45.92158" lon="6.49772">
        <ele>1675</ele>
        <time>2017-08-29T07:23:01Z</time>
      </trkpt>
      <trkpt lat="45.92158" lon="6.49772">
        <ele>1675</ele>
        <time>2017-08-29T07:23:02Z</time>
      </trkpt>
      <trkpt lat="45.92157" lon="6.49774">
        <ele>1675</ele>
        <time>2017-08-29T07:23:03Z</time>
      </trkpt>
      <trkpt lat="45.92157" lon="6.49774">
        <ele>1675</ele>
        <time>2017-08-29T07:23:04Z</time>
      </trkpt>
      <trkpt lat="45.92157" lon="6.49774">
        <ele>1676</ele>
        <time>2017-08-29T07:23:05Z</time>
      </trkpt>
      <trkpt lat="45.92154" lon="6.49776">
        <ele>1676</ele>
        <time>2017-08-29T07:23:06Z</time>
      </trkpt>
      <trkpt lat="45.92154" lon="6.49776">
        <ele>1676</ele>
        <time>2017-08-29T07:23:07Z</time>
      </trkpt>
      <trkpt lat="45.92154" lon="6.49776">
        <ele>1676</ele>
        <time>2017-08-29T07:23:08Z</time>
      </trkpt>
      <trkpt lat="45.92154" lon="6.49776">
        <ele>1676</ele>
        <time>2017-08-29T07:23:09Z</time>
      </trkpt>
      <trkpt lat="45.92154" lon="6.49779">
        <ele>1676</ele>
        <time>2017-08-29T07:23:10Z</time>
      </trkpt>
      <trkpt lat="45.92154" lon="6.49779">
        <ele>1677</ele>
        <time>2017-08-29T07:23:11Z</time>
      </trkpt>
      <trkpt lat="45.92154" lon="6.49779">
        <ele>1677</ele>
        <time>2017-08-29T07:23:12Z</time>
      </trkpt>
      <trkpt lat="45.92154" lon="6.49779">
        <ele>1678</ele>
        <time>2017-08-29T07:23:13Z</time>
      </trkpt>
      <trkpt lat="45.92154" lon="6.49779">
        <ele>1678</ele>
        <time>2017-08-29T07:23:14Z</time>
      </trkpt>
      <trkpt lat="45.92152" lon="6.49781">
        <ele>1678</ele>
        <time>2017-08-29T07:23:15Z</time>
      </trkpt>
      <trkpt lat="45.92152" lon="6.49781">
        <ele>1678</ele>
        <time>2017-08-29T07:23:16Z</time>
      </trkpt>
      <trkpt lat="45.92152" lon="6.49781">
        <ele>1678</ele>
        <time>2017-08-29T07:23:17Z</time>
      </trkpt>
      <trkpt lat="45.92152" lon="6.49781">
        <ele>1678</ele>
        <time>2017-08-29T07:23:18Z</time>
      </trkpt>
      <trkpt lat="45.92152" lon="6.49781">
        <ele>1678</ele>
        <time>2017-08-29T07:23:19Z</time>
      </trkpt>
      <trkpt lat="45.92154" lon="6.49782">
        <ele>1678</ele>
        <time>2017-08-29T07:23:20Z</time>
      </trkpt>
      <trkpt lat="45.92154" lon="6.49782">
        <ele>1678</ele>
        <time>2017-08-29T07:23:21Z</time>
      </trkpt>
      <trkpt lat="45.92154" lon="6.49782">
        <ele>1678</ele>
        <time>2017-08-29T07:23:22Z</time>
      </trkpt>
      <trkpt lat="45.92154" lon="6.49782">
        <ele>1678</ele>
        <time>2017-08-29T07:23:23Z</time>
      </trkpt>
      <trkpt lat="45.92154" lon="6.49782">
        <ele>1677</ele>
        <time>2017-08-29T07:23:24Z</time>
      </trkpt>
      <trkpt lat="45.92154" lon="6.49782">
        <ele>1677</ele>
        <time>2017-08-29T07:23:25Z</time>
      </trkpt>
      <trkpt lat="45.92154" lon="6.49782">
        <ele>1677</ele>
        <time>2017-08-29T07:23:26Z</time>
      </trkpt>
      <trkpt lat="45.92154" lon="6.49782">
        <ele>1677</ele>
        <time>2017-08-29T07:23:27Z</time>
      </trkpt>
      <trkpt lat="45.92154" lon="6.49782">
        <ele>1677</ele>
        <time>2017-08-29T07:23:28Z</time>
      </trkpt>
      <trkpt lat="45.92154" lon="6.49782">
        <ele>1678</ele>
        <time>2017-08-29T07:23:29Z</time>
      </trkpt>
      <trkpt lat="45.92154" lon="6.49782">
        <ele>1678</ele>
        <time>2017-08-29T07:23:30Z</time>
      </trkpt>
      <trkpt lat="45.92154" lon="6.49782">
        <ele>1678</ele>
        <time>2017-08-29T07:23:31Z</time>
      </trkpt>
      <trkpt lat="45.92151" lon="6.49781">
        <ele>1678</ele>
        <time>2017-08-29T07:23:32Z</time>
      </trkpt>
      <trkpt lat="45.92151" lon="6.49781">
        <ele>1678</ele>
        <time>2017-08-29T07:23:33Z</time>
      </trkpt>
      <trkpt lat="45.92151" lon="6.49781">
        <ele>1678</ele>
        <time>2017-08-29T07:23:34Z</time>
      </trkpt>
      <trkpt lat="45.92148" lon="6.4978">
        <ele>1679</ele>
        <time>2017-08-29T07:23:35Z</time>
      </trkpt>
      <trkpt lat="45.92148" lon="6.4978">
        <ele>1679</ele>
        <time>2017-08-29T07:23:36Z</time>
      </trkpt>
      <trkpt lat="45.92148" lon="6.4978">
        <ele>1679</ele>
        <time>2017-08-29T07:23:37Z</time>
      </trkpt>
      <trkpt lat="45.92148" lon="6.4978">
        <ele>1679</ele>
        <time>2017-08-29T07:23:38Z</time>
      </trkpt>
      <trkpt lat="45.92146" lon="6.4978">
        <ele>1679</ele>
        <time>2017-08-29T07:23:39Z</time>
      </trkpt>
      <trkpt lat="45.92145" lon="6.49779">
        <ele>1679</ele>
        <time>2017-08-29T07:23:40Z</time>
      </trkpt>
      <trkpt lat="45.92144" lon="6.49778">
        <ele>1680</ele>
        <time>2017-08-29T07:23:41Z</time>
      </trkpt>
      <trkpt lat="45.92143" lon="6.49777">
        <ele>1680</ele>
        <time>2017-08-29T07:23:42Z</time>
      </trkpt>
      <trkpt lat="45.92143" lon="6.49776">
        <ele>1680</ele>
        <time>2017-08-29T07:23:43Z</time>
      </trkpt>
      <trkpt lat="45.92143" lon="6.49776">
        <ele>1680</ele>
        <time>2017-08-29T07:23:44Z</time>
      </trkpt>
      <trkpt lat="45.92143" lon="6.49776">
        <ele>1680</ele>
        <time>2017-08-29T07:23:45Z</time>
      </trkpt>
      <trkpt lat="45.9214" lon="6.49774">
        <ele>1681</ele>
        <time>2017-08-29T07:23:46Z</time>
      </trkpt>
      <trkpt lat="45.9214" lon="6.49774">
        <ele>1681</ele>
        <time>2017-08-29T07:23:47Z</time>
      </trkpt>
      <trkpt lat="45.92138" lon="6.49773">
        <ele>1681</ele>
        <time>2017-08-29T07:23:48Z</time>
      </trkpt>
      <trkpt lat="45.92138" lon="6.49773">
        <ele>1682</ele>
        <time>2017-08-29T07:23:49Z</time>
      </trkpt>
      <trkpt lat="45.92136" lon="6.49771">
        <ele>1682</ele>
        <time>2017-08-29T07:23:50Z</time>
      </trkpt>
      <trkpt lat="45.92136" lon="6.49771">
        <ele>1682</ele>
        <time>2017-08-29T07:23:51Z</time>
      </trkpt>
      <trkpt lat="45.92134" lon="6.4977">
        <ele>1683</ele>
        <time>2017-08-29T07:23:52Z</time>
      </trkpt>
      <trkpt lat="45.92134" lon="6.4977">
        <ele>1683</ele>
        <time>2017-08-29T07:23:53Z</time>
      </trkpt>
      <trkpt lat="45.92132" lon="6.49769">
        <ele>1683</ele>
        <time>2017-08-29T07:23:54Z</time>
      </trkpt>
      <trkpt lat="45.92132" lon="6.49769">
        <ele>1683</ele>
        <time>2017-08-29T07:23:55Z</time>
      </trkpt>
      <trkpt lat="45.9213" lon="6.49768">
        <ele>1683</ele>
        <time>2017-08-29T07:23:56Z</time>
      </trkpt>
      <trkpt lat="45.9213" lon="6.49768">
        <ele>1683</ele>
        <time>2017-08-29T07:23:57Z</time>
      </trkpt>
      <trkpt lat="45.92128" lon="6.49767">
        <ele>1683</ele>
        <time>2017-08-29T07:23:58Z</time>
      </trkpt>
      <trkpt lat="45.92128" lon="6.49767">
        <ele>1684</ele>
        <time>2017-08-29T07:23:59Z</time>
      </trkpt>
      <trkpt lat="45.92128" lon="6.49767">
        <ele>1684</ele>
        <time>2017-08-29T07:24:00Z</time>
      </trkpt>
      <trkpt lat="45.92125" lon="6.49765">
        <ele>1684</ele>
        <time>2017-08-29T07:24:01Z</time>
      </trkpt>
      <trkpt lat="45.92125" lon="6.49765">
        <ele>1684</ele>
        <time>2017-08-29T07:24:02Z</time>
      </trkpt>
      <trkpt lat="45.92123" lon="6.49764">
        <ele>1684</ele>
        <time>2017-08-29T07:24:03Z</time>
      </trkpt>
      <trkpt lat="45.92123" lon="6.49764">
        <ele>1684</ele>
        <time>2017-08-29T07:24:04Z</time>
      </trkpt>
      <trkpt lat="45.92123" lon="6.49764">
        <ele>1685</ele>
        <time>2017-08-29T07:24:05Z</time>
      </trkpt>
      <trkpt lat="45.92121" lon="6.49763">
        <ele>1685</ele>
        <time>2017-08-29T07:24:06Z</time>
      </trkpt>
      <trkpt lat="45.92121" lon="6.49763">
        <ele>1685</ele>
        <time>2017-08-29T07:24:07Z</time>
      </trkpt>
      <trkpt lat="45.92119" lon="6.49762">
        <ele>1685</ele>
        <time>2017-08-29T07:24:08Z</time>
      </trkpt>
      <trkpt lat="45.92119" lon="6.49762">
        <ele>1685</ele>
        <time>2017-08-29T07:24:09Z</time>
      </trkpt>
      <trkpt lat="45.92119" lon="6.49762">
        <ele>1685</ele>
        <time>2017-08-29T07:24:10Z</time>
      </trkpt>
      <trkpt lat="45.92116" lon="6.49759">
        <ele>1685</ele>
        <time>2017-08-29T07:24:11Z</time>
      </trkpt>
      <trkpt lat="45.92116" lon="6.49759">
        <ele>1685</ele>
        <time>2017-08-29T07:24:12Z</time>
      </trkpt>
      <trkpt lat="45.92114" lon="6.49758">
        <ele>1685</ele>
        <time>2017-08-29T07:24:13Z</time>
      </trkpt>
      <trkpt lat="45.92114" lon="6.49758">
        <ele>1686</ele>
        <time>2017-08-29T07:24:14Z</time>
      </trkpt>
      <trkpt lat="45.92114" lon="6.49758">
        <ele>1687</ele>
        <time>2017-08-29T07:24:15Z</time>
      </trkpt>
      <trkpt lat="45.92112" lon="6.49757">
        <ele>1687</ele>
        <time>2017-08-29T07:24:16Z</time>
      </trkpt>
      <trkpt lat="45.92112" lon="6.49757">
        <ele>1687</ele>
        <time>2017-08-29T07:24:17Z</time>
      </trkpt>
      <trkpt lat="45.92112" lon="6.49757">
        <ele>1687</ele>
        <time>2017-08-29T07:24:18Z</time>
      </trkpt>
      <trkpt lat="45.92109" lon="6.49756">
        <ele>1687</ele>
        <time>2017-08-29T07:24:19Z</time>
      </trkpt>
      <trkpt lat="45.92109" lon="6.49756">
        <ele>1688</ele>
        <time>2017-08-29T07:24:20Z</time>
      </trkpt>
      <trkpt lat="45.92109" lon="6.49756">
        <ele>1689</ele>
        <time>2017-08-29T07:24:21Z</time>
      </trkpt>
      <trkpt lat="45.92107" lon="6.49754">
        <ele>1689</ele>
        <time>2017-08-29T07:24:22Z</time>
      </trkpt>
      <trkpt lat="45.92107" lon="6.49754">
        <ele>1689</ele>
        <time>2017-08-29T07:24:23Z</time>
      </trkpt>
      <trkpt lat="45.92107" lon="6.49754">
        <ele>1689</ele>
        <time>2017-08-29T07:24:24Z</time>
      </trkpt>
      <trkpt lat="45.92107" lon="6.49754">
        <ele>1689</ele>
        <time>2017-08-29T07:24:25Z</time>
      </trkpt>
      <trkpt lat="45.92106" lon="6.49751">
        <ele>1689</ele>
        <time>2017-08-29T07:24:26Z</time>
      </trkpt>
      <trkpt lat="45.92106" lon="6.49751">
        <ele>1689</ele>
        <time>2017-08-29T07:24:27Z</time>
      </trkpt>
      <trkpt lat="45.92104" lon="6.49749">
        <ele>1689</ele>
        <time>2017-08-29T07:24:28Z</time>
      </trkpt>
      <trkpt lat="45.92104" lon="6.49749">
        <ele>1690</ele>
        <time>2017-08-29T07:24:29Z</time>
      </trkpt>
      <trkpt lat="45.92102" lon="6.49747">
        <ele>1690</ele>
        <time>2017-08-29T07:24:30Z</time>
      </trkpt>
      <trkpt lat="45.92102" lon="6.49747">
        <ele>1690</ele>
        <time>2017-08-29T07:24:31Z</time>
      </trkpt>
      <trkpt lat="45.921" lon="6.49745">
        <ele>1691</ele>
        <time>2017-08-29T07:24:32Z</time>
      </trkpt>
      <trkpt lat="45.921" lon="6.49745">
        <ele>1691</ele>
        <time>2017-08-29T07:24:33Z</time>
      </trkpt>
      <trkpt lat="45.92098" lon="6.49744">
        <ele>1692</ele>
        <time>2017-08-29T07:24:34Z</time>
      </trkpt>
      <trkpt lat="45.92098" lon="6.49744">
        <ele>1692</ele>
        <time>2017-08-29T07:24:35Z</time>
      </trkpt>
      <trkpt lat="45.92098" lon="6.49744">
        <ele>1692</ele>
        <time>2017-08-29T07:24:36Z</time>
      </trkpt>
      <trkpt lat="45.92095" lon="6.49745">
        <ele>1692</ele>
        <time>2017-08-29T07:24:37Z</time>
      </trkpt>
      <trkpt lat="45.92095" lon="6.49745">
        <ele>1692</ele>
        <time>2017-08-29T07:24:38Z</time>
      </trkpt>
      <trkpt lat="45.92095" lon="6.49745">
        <ele>1693</ele>
        <time>2017-08-29T07:24:39Z</time>
      </trkpt>
      <trkpt lat="45.92095" lon="6.49745">
        <ele>1693</ele>
        <time>2017-08-29T07:24:40Z</time>
      </trkpt>
      <trkpt lat="45.92095" lon="6.49745">
        <ele>1693</ele>
        <time>2017-08-29T07:24:41Z</time>
      </trkpt>
      <trkpt lat="45.92094" lon="6.49745">
        <ele>1693</ele>
        <time>2017-08-29T07:24:42Z</time>
      </trkpt>
      <trkpt lat="45.92094" lon="6.49745">
        <ele>1693</ele>
        <time>2017-08-29T07:24:43Z</time>
      </trkpt>
      <trkpt lat="45.92094" lon="6.49745">
        <ele>1693</ele>
        <time>2017-08-29T07:24:44Z</time>
      </trkpt>
      <trkpt lat="45.92094" lon="6.49745">
        <ele>1693</ele>
        <time>2017-08-29T07:24:45Z</time>
      </trkpt>
      <trkpt lat="45.92091" lon="6.49745">
        <ele>1693</ele>
        <time>2017-08-29T07:24:46Z</time>
      </trkpt>
      <trkpt lat="45.92091" lon="6.49745">
        <ele>1693</ele>
        <time>2017-08-29T07:24:47Z</time>
      </trkpt>
      <trkpt lat="45.92089" lon="6.49743">
        <ele>1693</ele>
        <time>2017-08-29T07:24:48Z</time>
      </trkpt>
      <trkpt lat="45.92089" lon="6.49743">
        <ele>1693</ele>
        <time>2017-08-29T07:24:49Z</time>
      </trkpt>
      <trkpt lat="45.92087" lon="6.49742">
        <ele>1694</ele>
        <time>2017-08-29T07:24:50Z</time>
      </trkpt>
      <trkpt lat="45.92087" lon="6.49742">
        <ele>1694</ele>
        <time>2017-08-29T07:24:51Z</time>
      </trkpt>
      <trkpt lat="45.92085" lon="6.49741">
        <ele>1694</ele>
        <time>2017-08-29T07:24:52Z</time>
      </trkpt>
      <trkpt lat="45.92085" lon="6.49741">
        <ele>1694</ele>
        <time>2017-08-29T07:24:53Z</time>
      </trkpt>
      <trkpt lat="45.92083" lon="6.49742">
        <ele>1695</ele>
        <time>2017-08-29T07:24:54Z</time>
      </trkpt>
      <trkpt lat="45.92083" lon="6.49742">
        <ele>1695</ele>
        <time>2017-08-29T07:24:55Z</time>
      </trkpt>
      <trkpt lat="45.92081" lon="6.49742">
        <ele>1695</ele>
        <time>2017-08-29T07:24:56Z</time>
      </trkpt>
      <trkpt lat="45.92081" lon="6.49742">
        <ele>1695</ele>
        <time>2017-08-29T07:24:57Z</time>
      </trkpt>
      <trkpt lat="45.92081" lon="6.49742">
        <ele>1695</ele>
        <time>2017-08-29T07:24:58Z</time>
      </trkpt>
      <trkpt lat="45.92078" lon="6.49742">
        <ele>1696</ele>
        <time>2017-08-29T07:24:59Z</time>
      </trkpt>
      <trkpt lat="45.92078" lon="6.49742">
        <ele>1696</ele>
        <time>2017-08-29T07:25:00Z</time>
      </trkpt>
      <trkpt lat="45.92076" lon="6.49743">
        <ele>1696</ele>
        <time>2017-08-29T07:25:01Z</time>
      </trkpt>
      <trkpt lat="45.92076" lon="6.49743">
        <ele>1696</ele>
        <time>2017-08-29T07:25:02Z</time>
      </trkpt>
      <trkpt lat="45.92076" lon="6.49743">
        <ele>1696</ele>
        <time>2017-08-29T07:25:03Z</time>
      </trkpt>
      <trkpt lat="45.92073" lon="6.49742">
        <ele>1697</ele>
        <time>2017-08-29T07:25:04Z</time>
      </trkpt>
      <trkpt lat="45.92073" lon="6.49742">
        <ele>1698</ele>
        <time>2017-08-29T07:25:05Z</time>
      </trkpt>
      <trkpt lat="45.92071" lon="6.49742">
        <ele>1698</ele>
        <time>2017-08-29T07:25:06Z</time>
      </trkpt>
      <trkpt lat="45.92071" lon="6.49742">
        <ele>1698</ele>
        <time>2017-08-29T07:25:07Z</time>
      </trkpt>
      <trkpt lat="45.92068" lon="6.49741">
        <ele>1698</ele>
        <time>2017-08-29T07:25:08Z</time>
      </trkpt>
      <trkpt lat="45.92068" lon="6.49741">
        <ele>1698</ele>
        <time>2017-08-29T07:25:09Z</time>
      </trkpt>
      <trkpt lat="45.92068" lon="6.49741">
        <ele>1698</ele>
        <time>2017-08-29T07:25:10Z</time>
      </trkpt>
      <trkpt lat="45.92066" lon="6.49742">
        <ele>1698</ele>
        <time>2017-08-29T07:25:11Z</time>
      </trkpt>
      <trkpt lat="45.92066" lon="6.49742">
        <ele>1699</ele>
        <time>2017-08-29T07:25:12Z</time>
      </trkpt>
      <trkpt lat="45.92066" lon="6.49742">
        <ele>1699</ele>
        <time>2017-08-29T07:25:13Z</time>
      </trkpt>
      <trkpt lat="45.92064" lon="6.49743">
        <ele>1699</ele>
        <time>2017-08-29T07:25:14Z</time>
      </trkpt>
      <trkpt lat="45.92064" lon="6.49743">
        <ele>1699</ele>
        <time>2017-08-29T07:25:15Z</time>
      </trkpt>
      <trkpt lat="45.92064" lon="6.49743">
        <ele>1700</ele>
        <time>2017-08-29T07:25:16Z</time>
      </trkpt>
      <trkpt lat="45.92062" lon="6.49742">
        <ele>1700</ele>
        <time>2017-08-29T07:25:17Z</time>
      </trkpt>
      <trkpt lat="45.92062" lon="6.49742">
        <ele>1700</ele>
        <time>2017-08-29T07:25:18Z</time>
      </trkpt>
      <trkpt lat="45.92062" lon="6.49742">
        <ele>1701</ele>
        <time>2017-08-29T07:25:19Z</time>
      </trkpt>
      <trkpt lat="45.9206" lon="6.4974">
        <ele>1701</ele>
        <time>2017-08-29T07:25:20Z</time>
      </trkpt>
      <trkpt lat="45.9206" lon="6.4974">
        <ele>1701</ele>
        <time>2017-08-29T07:25:21Z</time>
      </trkpt>
      <trkpt lat="45.92058" lon="6.49739">
        <ele>1701</ele>
        <time>2017-08-29T07:25:22Z</time>
      </trkpt>
      <trkpt lat="45.92058" lon="6.49739">
        <ele>1701</ele>
        <time>2017-08-29T07:25:23Z</time>
      </trkpt>
      <trkpt lat="45.92055" lon="6.49738">
        <ele>1702</ele>
        <time>2017-08-29T07:25:24Z</time>
      </trkpt>
      <trkpt lat="45.92055" lon="6.49738">
        <ele>1702</ele>
        <time>2017-08-29T07:25:25Z</time>
      </trkpt>
      <trkpt lat="45.92053" lon="6.49737">
        <ele>1702</ele>
        <time>2017-08-29T07:25:26Z</time>
      </trkpt>
      <trkpt lat="45.92053" lon="6.49737">
        <ele>1703</ele>
        <time>2017-08-29T07:25:27Z</time>
      </trkpt>
      <trkpt lat="45.92053" lon="6.49737">
        <ele>1703</ele>
        <time>2017-08-29T07:25:28Z</time>
      </trkpt>
      <trkpt lat="45.92051" lon="6.49737">
        <ele>1703</ele>
        <time>2017-08-29T07:25:29Z</time>
      </trkpt>
      <trkpt lat="45.92051" lon="6.49737">
        <ele>1703</ele>
        <time>2017-08-29T07:25:30Z</time>
      </trkpt>
      <trkpt lat="45.92051" lon="6.49737">
        <ele>1703</ele>
        <time>2017-08-29T07:25:31Z</time>
      </trkpt>
      <trkpt lat="45.92049" lon="6.49737">
        <ele>1703</ele>
        <time>2017-08-29T07:25:32Z</time>
      </trkpt>
      <trkpt lat="45.92049" lon="6.49737">
        <ele>1703</ele>
        <time>2017-08-29T07:25:33Z</time>
      </trkpt>
      <trkpt lat="45.92049" lon="6.49737">
        <ele>1703</ele>
        <time>2017-08-29T07:25:34Z</time>
      </trkpt>
      <trkpt lat="45.92047" lon="6.49737">
        <ele>1704</ele>
        <time>2017-08-29T07:25:35Z</time>
      </trkpt>
      <trkpt lat="45.92047" lon="6.49737">
        <ele>1705</ele>
        <time>2017-08-29T07:25:36Z</time>
      </trkpt>
      <trkpt lat="45.92047" lon="6.49737">
        <ele>1706</ele>
        <time>2017-08-29T07:25:37Z</time>
      </trkpt>
      <trkpt lat="45.92045" lon="6.49737">
        <ele>1706</ele>
        <time>2017-08-29T07:25:38Z</time>
      </trkpt>
      <trkpt lat="45.92045" lon="6.49737">
        <ele>1706</ele>
        <time>2017-08-29T07:25:39Z</time>
      </trkpt>
      <trkpt lat="45.92045" lon="6.49737">
        <ele>1706</ele>
        <time>2017-08-29T07:25:40Z</time>
      </trkpt>
      <trkpt lat="45.92043" lon="6.49738">
        <ele>1706</ele>
        <time>2017-08-29T07:25:41Z</time>
      </trkpt>
      <trkpt lat="45.92042" lon="6.4974">
        <ele>1706</ele>
        <time>2017-08-29T07:25:42Z</time>
      </trkpt>
      <trkpt lat="45.92042" lon="6.49741">
        <ele>1706</ele>
        <time>2017-08-29T07:25:43Z</time>
      </trkpt>
      <trkpt lat="45.92041" lon="6.49743">
        <ele>1706</ele>
        <time>2017-08-29T07:25:44Z</time>
      </trkpt>
      <trkpt lat="45.92041" lon="6.49744">
        <ele>1706</ele>
        <time>2017-08-29T07:25:45Z</time>
      </trkpt>
      <trkpt lat="45.9204" lon="6.49746">
        <ele>1707</ele>
        <time>2017-08-29T07:25:46Z</time>
      </trkpt>
      <trkpt lat="45.9204" lon="6.49747">
        <ele>1707</ele>
        <time>2017-08-29T07:25:47Z</time>
      </trkpt>
      <trkpt lat="45.92039" lon="6.49749">
        <ele>1708</ele>
        <time>2017-08-29T07:25:48Z</time>
      </trkpt>
      <trkpt lat="45.92039" lon="6.4975">
        <ele>1708</ele>
        <time>2017-08-29T07:25:49Z</time>
      </trkpt>
      <trkpt lat="45.92039" lon="6.49752">
        <ele>1708</ele>
        <time>2017-08-29T07:25:50Z</time>
      </trkpt>
      <trkpt lat="45.92039" lon="6.49753">
        <ele>1708</ele>
        <time>2017-08-29T07:25:51Z</time>
      </trkpt>
      <trkpt lat="45.92039" lon="6.49755">
        <ele>1708</ele>
        <time>2017-08-29T07:25:52Z</time>
      </trkpt>
      <trkpt lat="45.92039" lon="6.49756">
        <ele>1708</ele>
        <time>2017-08-29T07:25:53Z</time>
      </trkpt>
      <trkpt lat="45.92039" lon="6.49758">
        <ele>1708</ele>
        <time>2017-08-29T07:25:54Z</time>
      </trkpt>
      <trkpt lat="45.92039" lon="6.49759">
        <ele>1708</ele>
        <time>2017-08-29T07:25:55Z</time>
      </trkpt>
      <trkpt lat="45.92039" lon="6.4976">
        <ele>1708</ele>
        <time>2017-08-29T07:25:56Z</time>
      </trkpt>
      <trkpt lat="45.92039" lon="6.49762">
        <ele>1709</ele>
        <time>2017-08-29T07:25:57Z</time>
      </trkpt>
      <trkpt lat="45.92039" lon="6.49763">
        <ele>1709</ele>
        <time>2017-08-29T07:25:58Z</time>
      </trkpt>
      <trkpt lat="45.92039" lon="6.49764">
        <ele>1709</ele>
        <time>2017-08-29T07:25:59Z</time>
      </trkpt>
      <trkpt lat="45.92039" lon="6.49764">
        <ele>1709</ele>
        <time>2017-08-29T07:26:00Z</time>
      </trkpt>
      <trkpt lat="45.92039" lon="6.49764">
        <ele>1709</ele>
        <time>2017-08-29T07:26:01Z</time>
      </trkpt>
      <trkpt lat="45.92039" lon="6.49764">
        <ele>1710</ele>
        <time>2017-08-29T07:26:02Z</time>
      </trkpt>
      <trkpt lat="45.92039" lon="6.49764">
        <ele>1710</ele>
        <time>2017-08-29T07:26:03Z</time>
      </trkpt>
      <trkpt lat="45.92039" lon="6.49764">
        <ele>1710</ele>
        <time>2017-08-29T07:26:04Z</time>
      </trkpt>
      <trkpt lat="45.92039" lon="6.49765">
        <ele>1710</ele>
        <time>2017-08-29T07:26:05Z</time>
      </trkpt>
      <trkpt lat="45.92039" lon="6.49765">
        <ele>1710</ele>
        <time>2017-08-29T07:26:06Z</time>
      </trkpt>
      <trkpt lat="45.92039" lon="6.49765">
        <ele>1711</ele>
        <time>2017-08-29T07:26:07Z</time>
      </trkpt>
      <trkpt lat="45.92039" lon="6.49765">
        <ele>1711</ele>
        <time>2017-08-29T07:26:08Z</time>
      </trkpt>
      <trkpt lat="45.92039" lon="6.49765">
        <ele>1711</ele>
        <time>2017-08-29T07:26:09Z</time>
      </trkpt>
      <trkpt lat="45.92039" lon="6.49766">
        <ele>1711</ele>
        <time>2017-08-29T07:26:10Z</time>
      </trkpt>
      <trkpt lat="45.92039" lon="6.49766">
        <ele>1711</ele>
        <time>2017-08-29T07:26:11Z</time>
      </trkpt>
      <trkpt lat="45.92039" lon="6.49766">
        <ele>1711</ele>
        <time>2017-08-29T07:26:12Z</time>
      </trkpt>
      <trkpt lat="45.92039" lon="6.49766">
        <ele>1710</ele>
        <time>2017-08-29T07:26:13Z</time>
      </trkpt>
      <trkpt lat="45.92039" lon="6.49766">
        <ele>1711</ele>
        <time>2017-08-29T07:26:14Z</time>
      </trkpt>
      <trkpt lat="45.92039" lon="6.49767">
        <ele>1711</ele>
        <time>2017-08-29T07:26:15Z</time>
      </trkpt>
      <trkpt lat="45.92038" lon="6.49767">
        <ele>1711</ele>
        <time>2017-08-29T07:26:16Z</time>
      </trkpt>
      <trkpt lat="45.92038" lon="6.49767">
        <ele>1711</ele>
        <time>2017-08-29T07:26:17Z</time>
      </trkpt>
      <trkpt lat="45.92038" lon="6.49767">
        <ele>1711</ele>
        <time>2017-08-29T07:26:18Z</time>
      </trkpt>
      <trkpt lat="45.92038" lon="6.49767">
        <ele>1711</ele>
        <time>2017-08-29T07:26:19Z</time>
      </trkpt>
      <trkpt lat="45.92038" lon="6.49767">
        <ele>1711</ele>
        <time>2017-08-29T07:26:20Z</time>
      </trkpt>
      <trkpt lat="45.92038" lon="6.49768">
        <ele>1711</ele>
        <time>2017-08-29T07:26:21Z</time>
      </trkpt>
      <trkpt lat="45.92038" lon="6.49768">
        <ele>1711</ele>
        <time>2017-08-29T07:26:22Z</time>
      </trkpt>
      <trkpt lat="45.92038" lon="6.49768">
        <ele>1711</ele>
        <time>2017-08-29T07:26:23Z</time>
      </trkpt>
      <trkpt lat="45.92038" lon="6.49768">
        <ele>1711</ele>
        <time>2017-08-29T07:26:24Z</time>
      </trkpt>
      <trkpt lat="45.92038" lon="6.49768">
        <ele>1711</ele>
        <time>2017-08-29T07:26:25Z</time>
      </trkpt>
      <trkpt lat="45.92038" lon="6.49769">
        <ele>1711</ele>
        <time>2017-08-29T07:26:26Z</time>
      </trkpt>
      <trkpt lat="45.92038" lon="6.49769">
        <ele>1711</ele>
        <time>2017-08-29T07:26:27Z</time>
      </trkpt>
      <trkpt lat="45.92038" lon="6.49769">
        <ele>1711</ele>
        <time>2017-08-29T07:26:28Z</time>
      </trkpt>
      <trkpt lat="45.92038" lon="6.49769">
        <ele>1711</ele>
        <time>2017-08-29T07:26:29Z</time>
      </trkpt>
      <trkpt lat="45.92038" lon="6.49769">
        <ele>1711</ele>
        <time>2017-08-29T07:26:30Z</time>
      </trkpt>
      <trkpt lat="45.92038" lon="6.4977">
        <ele>1710</ele>
        <time>2017-08-29T07:26:31Z</time>
      </trkpt>
      <trkpt lat="45.92038" lon="6.4977">
        <ele>1710</ele>
        <time>2017-08-29T07:26:32Z</time>
      </trkpt>
      <trkpt lat="45.92038" lon="6.4977">
        <ele>1710</ele>
        <time>2017-08-29T07:26:33Z</time>
      </trkpt>
      <trkpt lat="45.92038" lon="6.4977">
        <ele>1710</ele>
        <time>2017-08-29T07:26:34Z</time>
      </trkpt>
      <trkpt lat="45.92038" lon="6.4977">
        <ele>1711</ele>
        <time>2017-08-29T07:26:35Z</time>
      </trkpt>
      <trkpt lat="45.92036" lon="6.49777">
        <ele>1711</ele>
        <time>2017-08-29T07:26:36Z</time>
      </trkpt>
      <trkpt lat="45.92036" lon="6.49778">
        <ele>1711</ele>
        <time>2017-08-29T07:26:37Z</time>
      </trkpt>
      <trkpt lat="45.92036" lon="6.4978">
        <ele>1711</ele>
        <time>2017-08-29T07:26:38Z</time>
      </trkpt>
      <trkpt lat="45.92037" lon="6.49781">
        <ele>1711</ele>
        <time>2017-08-29T07:26:39Z</time>
      </trkpt>
      <trkpt lat="45.92037" lon="6.49783">
        <ele>1711</ele>
        <time>2017-08-29T07:26:40Z</time>
      </trkpt>
      <trkpt lat="45.92037" lon="6.49784">
        <ele>1711</ele>
        <time>2017-08-29T07:26:41Z</time>
      </trkpt>
      <trkpt lat="45.92038" lon="6.49786">
        <ele>1711</ele>
        <time>2017-08-29T07:26:42Z</time>
      </trkpt>
      <trkpt lat="45.92038" lon="6.49787">
        <ele>1712</ele>
        <time>2017-08-29T07:26:43Z</time>
      </trkpt>
      <trkpt lat="45.92039" lon="6.49788">
        <ele>1712</ele>
        <time>2017-08-29T07:26:44Z</time>
      </trkpt>
      <trkpt lat="45.92039" lon="6.4979">
        <ele>1713</ele>
        <time>2017-08-29T07:26:45Z</time>
      </trkpt>
      <trkpt lat="45.92039" lon="6.4979">
        <ele>1713</ele>
        <time>2017-08-29T07:26:46Z</time>
      </trkpt>
      <trkpt lat="45.92039" lon="6.4979">
        <ele>1713</ele>
        <time>2017-08-29T07:26:47Z</time>
      </trkpt>
      <trkpt lat="45.92039" lon="6.4979">
        <ele>1713</ele>
        <time>2017-08-29T07:26:48Z</time>
      </trkpt>
      <trkpt lat="45.92039" lon="6.4979">
        <ele>1714</ele>
        <time>2017-08-29T07:26:49Z</time>
      </trkpt>
      <trkpt lat="45.92039" lon="6.4979">
        <ele>1714</ele>
        <time>2017-08-29T07:26:50Z</time>
      </trkpt>
      <trkpt lat="45.92039" lon="6.4979">
        <ele>1714</ele>
        <time>2017-08-29T07:26:51Z</time>
      </trkpt>
      <trkpt lat="45.92039" lon="6.4979">
        <ele>1714</ele>
        <time>2017-08-29T07:26:52Z</time>
      </trkpt>
      <trkpt lat="45.92039" lon="6.4979">
        <ele>1714</ele>
        <time>2017-08-29T07:26:53Z</time>
      </trkpt>
      <trkpt lat="45.92039" lon="6.4979">
        <ele>1715</ele>
        <time>2017-08-29T07:26:54Z</time>
      </trkpt>
      <trkpt lat="45.92041" lon="6.49802">
        <ele>1715.6</ele>
        <time>2017-08-29T07:26:56Z</time>
      </trkpt>
      <trkpt lat="45.92041" lon="6.49804">
        <ele>1716</ele>
        <time>2017-08-29T07:26:57Z</time>
      </trkpt>
      <trkpt lat="45.92041" lon="6.49805">
        <ele>1716</ele>
        <time>2017-08-29T07:26:58Z</time>
      </trkpt>
      <trkpt lat="45.92041" lon="6.49806">
        <ele>1716</ele>
        <time>2017-08-29T07:26:59Z</time>
      </trkpt>
      <trkpt lat="45.92042" lon="6.49807">
        <ele>1717</ele>
        <time>2017-08-29T07:27:00Z</time>
      </trkpt>
      <trkpt lat="45.92042" lon="6.49808">
        <ele>1717</ele>
        <time>2017-08-29T07:27:01Z</time>
      </trkpt>
      <trkpt lat="45.92042" lon="6.4981">
        <ele>1717</ele>
        <time>2017-08-29T07:27:02Z</time>
      </trkpt>
      <trkpt lat="45.92042" lon="6.49811">
        <ele>1717</ele>
        <time>2017-08-29T07:27:03Z</time>
      </trkpt>
      <trkpt lat="45.92043" lon="6.49812">
        <ele>1718</ele>
        <time>2017-08-29T07:27:04Z</time>
      </trkpt>
      <trkpt lat="45.92043" lon="6.49813">
        <ele>1718</ele>
        <time>2017-08-29T07:27:05Z</time>
      </trkpt>
      <trkpt lat="45.92043" lon="6.49814">
        <ele>1718</ele>
        <time>2017-08-29T07:27:06Z</time>
      </trkpt>
      <trkpt lat="45.92043" lon="6.49815">
        <ele>1718</ele>
        <time>2017-08-29T07:27:07Z</time>
      </trkpt>
      <trkpt lat="45.92044" lon="6.49817">
        <ele>1718</ele>
        <time>2017-08-29T07:27:08Z</time>
      </trkpt>
      <trkpt lat="45.92044" lon="6.49818">
        <ele>1719</ele>
        <time>2017-08-29T07:27:09Z</time>
      </trkpt>
      <trkpt lat="45.92044" lon="6.49819">
        <ele>1719</ele>
        <time>2017-08-29T07:27:10Z</time>
      </trkpt>
      <trkpt lat="45.92044" lon="6.4982">
        <ele>1719</ele>
        <time>2017-08-29T07:27:11Z</time>
      </trkpt>
      <trkpt lat="45.92045" lon="6.49821">
        <ele>1719</ele>
        <time>2017-08-29T07:27:12Z</time>
      </trkpt>
      <trkpt lat="45.92045" lon="6.49822">
        <ele>1719</ele>
        <time>2017-08-29T07:27:13Z</time>
      </trkpt>
      <trkpt lat="45.92045" lon="6.49823">
        <ele>1720</ele>
        <time>2017-08-29T07:27:14Z</time>
      </trkpt>
      <trkpt lat="45.92045" lon="6.49825">
        <ele>1720</ele>
        <time>2017-08-29T07:27:15Z</time>
      </trkpt>
      <trkpt lat="45.92046" lon="6.49826">
        <ele>1720</ele>
        <time>2017-08-29T07:27:16Z</time>
      </trkpt>
      <trkpt lat="45.92046" lon="6.49827">
        <ele>1721</ele>
        <time>2017-08-29T07:27:17Z</time>
      </trkpt>
      <trkpt lat="45.92046" lon="6.49828">
        <ele>1721</ele>
        <time>2017-08-29T07:27:18Z</time>
      </trkpt>
      <trkpt lat="45.92046" lon="6.49829">
        <ele>1722</ele>
        <time>2017-08-29T07:27:19Z</time>
      </trkpt>
      <trkpt lat="45.92046" lon="6.4983">
        <ele>1722</ele>
        <time>2017-08-29T07:27:20Z</time>
      </trkpt>
      <trkpt lat="45.92046" lon="6.49831">
        <ele>1722</ele>
        <time>2017-08-29T07:27:21Z</time>
      </trkpt>
      <trkpt lat="45.92045" lon="6.49832">
        <ele>1722</ele>
        <time>2017-08-29T07:27:22Z</time>
      </trkpt>
      <trkpt lat="45.92045" lon="6.49833">
        <ele>1722</ele>
        <time>2017-08-29T07:27:23Z</time>
      </trkpt>
      <trkpt lat="45.92045" lon="6.49834">
        <ele>1722</ele>
        <time>2017-08-29T07:27:24Z</time>
      </trkpt>
      <trkpt lat="45.92044" lon="6.49835">
        <ele>1722</ele>
        <time>2017-08-29T07:27:25Z</time>
      </trkpt>
      <trkpt lat="45.92044" lon="6.49836">
        <ele>1722</ele>
        <time>2017-08-29T07:27:26Z</time>
      </trkpt>
      <trkpt lat="45.92044" lon="6.49837">
        <ele>1722</ele>
        <time>2017-08-29T07:27:27Z</time>
      </trkpt>
      <trkpt lat="45.92041" lon="6.49844">
        <ele>1722</ele>
        <time>2017-08-29T07:27:28Z</time>
      </trkpt>
      <trkpt lat="45.92041" lon="6.49845">
        <ele>1722</ele>
        <time>2017-08-29T07:27:29Z</time>
      </trkpt>
      <trkpt lat="45.92041" lon="6.49846">
        <ele>1722</ele>
        <time>2017-08-29T07:27:30Z</time>
      </trkpt>
      <trkpt lat="45.92041" lon="6.49846">
        <ele>1723</ele>
        <time>2017-08-29T07:27:31Z</time>
      </trkpt>
      <trkpt lat="45.92041" lon="6.49847">
        <ele>1723</ele>
        <time>2017-08-29T07:27:32Z</time>
      </trkpt>
      <trkpt lat="45.92042" lon="6.49848">
        <ele>1723</ele>
        <time>2017-08-29T07:27:33Z</time>
      </trkpt>
      <trkpt lat="45.92042" lon="6.49848">
        <ele>1724</ele>
        <time>2017-08-29T07:27:34Z</time>
      </trkpt>
      <trkpt lat="45.92042" lon="6.49849">
        <ele>1724</ele>
        <time>2017-08-29T07:27:35Z</time>
      </trkpt>
      <trkpt lat="45.92042" lon="6.4985">
        <ele>1724</ele>
        <time>2017-08-29T07:27:36Z</time>
      </trkpt>
      <trkpt lat="45.92042" lon="6.49851">
        <ele>1724</ele>
        <time>2017-08-29T07:27:37Z</time>
      </trkpt>
      <trkpt lat="45.92042" lon="6.49851">
        <ele>1725</ele>
        <time>2017-08-29T07:27:38Z</time>
      </trkpt>
      <trkpt lat="45.92042" lon="6.49852">
        <ele>1725</ele>
        <time>2017-08-29T07:27:39Z</time>
      </trkpt>
      <trkpt lat="45.92042" lon="6.49853">
        <ele>1726</ele>
        <time>2017-08-29T07:27:40Z</time>
      </trkpt>
      <trkpt lat="45.92043" lon="6.49853">
        <ele>1726</ele>
        <time>2017-08-29T07:27:41Z</time>
      </trkpt>
      <trkpt lat="45.92043" lon="6.49854">
        <ele>1726</ele>
        <time>2017-08-29T07:27:42Z</time>
      </trkpt>
      <trkpt lat="45.92043" lon="6.49855">
        <ele>1726</ele>
        <time>2017-08-29T07:27:43Z</time>
      </trkpt>
      <trkpt lat="45.92043" lon="6.49856">
        <ele>1726</ele>
        <time>2017-08-29T07:27:44Z</time>
      </trkpt>
      <trkpt lat="45.92043" lon="6.49856">
        <ele>1726</ele>
        <time>2017-08-29T07:27:45Z</time>
      </trkpt>
      <trkpt lat="45.92043" lon="6.49857">
        <ele>1726</ele>
        <time>2017-08-29T07:27:46Z</time>
      </trkpt>
      <trkpt lat="45.92043" lon="6.49858">
        <ele>1726</ele>
        <time>2017-08-29T07:27:47Z</time>
      </trkpt>
      <trkpt lat="45.92043" lon="6.49859">
        <ele>1727</ele>
        <time>2017-08-29T07:27:48Z</time>
      </trkpt>
      <trkpt lat="45.92043" lon="6.49861">
        <ele>1727</ele>
        <time>2017-08-29T07:27:49Z</time>
      </trkpt>
      <trkpt lat="45.92043" lon="6.49862">
        <ele>1727</ele>
        <time>2017-08-29T07:27:50Z</time>
      </trkpt>
      <trkpt lat="45.92043" lon="6.49864">
        <ele>1727</ele>
        <time>2017-08-29T07:27:51Z</time>
      </trkpt>
      <trkpt lat="45.92043" lon="6.49865">
        <ele>1727</ele>
        <time>2017-08-29T07:27:52Z</time>
      </trkpt>
      <trkpt lat="45.92043" lon="6.49867">
        <ele>1728</ele>
        <time>2017-08-29T07:27:53Z</time>
      </trkpt>
      <trkpt lat="45.92043" lon="6.49868">
        <ele>1728</ele>
        <time>2017-08-29T07:27:54Z</time>
      </trkpt>
      <trkpt lat="45.92043" lon="6.4987">
        <ele>1729</ele>
        <time>2017-08-29T07:27:55Z</time>
      </trkpt>
      <trkpt lat="45.92043" lon="6.49871">
        <ele>1729</ele>
        <time>2017-08-29T07:27:56Z</time>
      </trkpt>
      <trkpt lat="45.92043" lon="6.49872">
        <ele>1729</ele>
        <time>2017-08-29T07:27:57Z</time>
      </trkpt>
      <trkpt lat="45.92043" lon="6.49872">
        <ele>1729</ele>
        <time>2017-08-29T07:27:58Z</time>
      </trkpt>
      <trkpt lat="45.92043" lon="6.49872">
        <ele>1730</ele>
        <time>2017-08-29T07:27:59Z</time>
      </trkpt>
      <trkpt lat="45.92043" lon="6.49873">
        <ele>1730</ele>
        <time>2017-08-29T07:28:00Z</time>
      </trkpt>
      <trkpt lat="45.92043" lon="6.49873">
        <ele>1730</ele>
        <time>2017-08-29T07:28:01Z</time>
      </trkpt>
      <trkpt lat="45.92044" lon="6.49873">
        <ele>1730</ele>
        <time>2017-08-29T07:28:02Z</time>
      </trkpt>
      <trkpt lat="45.92044" lon="6.49874">
        <ele>1730</ele>
        <time>2017-08-29T07:28:03Z</time>
      </trkpt>
      <trkpt lat="45.92044" lon="6.49874">
        <ele>1731</ele>
        <time>2017-08-29T07:28:04Z</time>
      </trkpt>
      <trkpt lat="45.92044" lon="6.49874">
        <ele>1731</ele>
        <time>2017-08-29T07:28:05Z</time>
      </trkpt>
      <trkpt lat="45.92044" lon="6.49875">
        <ele>1732</ele>
        <time>2017-08-29T07:28:06Z</time>
      </trkpt>
      <trkpt lat="45.92044" lon="6.49875">
        <ele>1732</ele>
        <time>2017-08-29T07:28:07Z</time>
      </trkpt>
      <trkpt lat="45.92044" lon="6.49875">
        <ele>1732</ele>
        <time>2017-08-29T07:28:08Z</time>
      </trkpt>
      <trkpt lat="45.92045" lon="6.49876">
        <ele>1732</ele>
        <time>2017-08-29T07:28:09Z</time>
      </trkpt>
      <trkpt lat="45.92045" lon="6.49876">
        <ele>1732</ele>
        <time>2017-08-29T07:28:10Z</time>
      </trkpt>
      <trkpt lat="45.92045" lon="6.49876">
        <ele>1732</ele>
        <time>2017-08-29T07:28:11Z</time>
      </trkpt>
      <trkpt lat="45.92045" lon="6.49876">
        <ele>1732</ele>
        <time>2017-08-29T07:28:12Z</time>
      </trkpt>
      <trkpt lat="45.92045" lon="6.49877">
        <ele>1732</ele>
        <time>2017-08-29T07:28:13Z</time>
      </trkpt>
      <trkpt lat="45.92045" lon="6.49877">
        <ele>1732</ele>
        <time>2017-08-29T07:28:14Z</time>
      </trkpt>
      <trkpt lat="45.92045" lon="6.49877">
        <ele>1733</ele>
        <time>2017-08-29T07:28:15Z</time>
      </trkpt>
      <trkpt lat="45.92046" lon="6.49878">
        <ele>1733</ele>
        <time>2017-08-29T07:28:16Z</time>
      </trkpt>
      <trkpt lat="45.92048" lon="6.49884">
        <ele>1733</ele>
        <time>2017-08-29T07:28:17Z</time>
      </trkpt>
      <trkpt lat="45.92047" lon="6.49885">
        <ele>1733</ele>
        <time>2017-08-29T07:28:18Z</time>
      </trkpt>
      <trkpt lat="45.92046" lon="6.49886">
        <ele>1734</ele>
        <time>2017-08-29T07:28:19Z</time>
      </trkpt>
      <trkpt lat="45.92046" lon="6.49886">
        <ele>1734</ele>
        <time>2017-08-29T07:28:20Z</time>
      </trkpt>
      <trkpt lat="45.92045" lon="6.49887">
        <ele>1734</ele>
        <time>2017-08-29T07:28:21Z</time>
      </trkpt>
      <trkpt lat="45.92044" lon="6.49888">
        <ele>1734</ele>
        <time>2017-08-29T07:28:22Z</time>
      </trkpt>
      <trkpt lat="45.92043" lon="6.49889">
        <ele>1735</ele>
        <time>2017-08-29T07:28:23Z</time>
      </trkpt>
      <trkpt lat="45.92042" lon="6.49889">
        <ele>1735</ele>
        <time>2017-08-29T07:28:24Z</time>
      </trkpt>
      <trkpt lat="45.92041" lon="6.4989">
        <ele>1736</ele>
        <time>2017-08-29T07:28:25Z</time>
      </trkpt>
      <trkpt lat="45.9204" lon="6.49891">
        <ele>1736</ele>
        <time>2017-08-29T07:28:26Z</time>
      </trkpt>
      <trkpt lat="45.92039" lon="6.4989">
        <ele>1736</ele>
        <time>2017-08-29T07:28:27Z</time>
      </trkpt>
      <trkpt lat="45.92037" lon="6.49889">
        <ele>1736</ele>
        <time>2017-08-29T07:28:28Z</time>
      </trkpt>
      <trkpt lat="45.92036" lon="6.49888">
        <ele>1736</ele>
        <time>2017-08-29T07:28:29Z</time>
      </trkpt>
      <trkpt lat="45.92035" lon="6.49887">
        <ele>1737</ele>
        <time>2017-08-29T07:28:30Z</time>
      </trkpt>
      <trkpt lat="45.92034" lon="6.49886">
        <ele>1737</ele>
        <time>2017-08-29T07:28:31Z</time>
      </trkpt>
      <trkpt lat="45.92033" lon="6.49885">
        <ele>1737</ele>
        <time>2017-08-29T07:28:32Z</time>
      </trkpt>
      <trkpt lat="45.92032" lon="6.49884">
        <ele>1737</ele>
        <time>2017-08-29T07:28:33Z</time>
      </trkpt>
      <trkpt lat="45.92031" lon="6.49883">
        <ele>1737</ele>
        <time>2017-08-29T07:28:34Z</time>
      </trkpt>
      <trkpt lat="45.92031" lon="6.49883">
        <ele>1738</ele>
        <time>2017-08-29T07:28:35Z</time>
      </trkpt>
      <trkpt lat="45.9203" lon="6.49883">
        <ele>1738</ele>
        <time>2017-08-29T07:28:36Z</time>
      </trkpt>
      <trkpt lat="45.9203" lon="6.49882">
        <ele>1738</ele>
        <time>2017-08-29T07:28:37Z</time>
      </trkpt>
      <trkpt lat="45.92029" lon="6.49882">
        <ele>1739</ele>
        <time>2017-08-29T07:28:38Z</time>
      </trkpt>
      <trkpt lat="45.92029" lon="6.49882">
        <ele>1739</ele>
        <time>2017-08-29T07:28:39Z</time>
      </trkpt>
      <trkpt lat="45.92028" lon="6.49881">
        <ele>1739</ele>
        <time>2017-08-29T07:28:40Z</time>
      </trkpt>
      <trkpt lat="45.92028" lon="6.49881">
        <ele>1739</ele>
        <time>2017-08-29T07:28:41Z</time>
      </trkpt>
      <trkpt lat="45.92027" lon="6.49881">
        <ele>1740</ele>
        <time>2017-08-29T07:28:42Z</time>
      </trkpt>
      <trkpt lat="45.92026" lon="6.4988">
        <ele>1740</ele>
        <time>2017-08-29T07:28:43Z</time>
      </trkpt>
      <trkpt lat="45.92026" lon="6.4988">
        <ele>1740</ele>
        <time>2017-08-29T07:28:44Z</time>
      </trkpt>
      <trkpt lat="45.92025" lon="6.4988">
        <ele>1741</ele>
        <time>2017-08-29T07:28:45Z</time>
      </trkpt>
      <trkpt lat="45.92025" lon="6.49879">
        <ele>1741</ele>
        <time>2017-08-29T07:28:46Z</time>
      </trkpt>
      <trkpt lat="45.92024" lon="6.49879">
        <ele>1741</ele>
        <time>2017-08-29T07:28:47Z</time>
      </trkpt>
      <trkpt lat="45.92024" lon="6.49878">
        <ele>1741</ele>
        <time>2017-08-29T07:28:48Z</time>
      </trkpt>
      <trkpt lat="45.92024" lon="6.4988">
        <ele>1742</ele>
        <time>2017-08-29T07:28:49Z</time>
      </trkpt>
      <trkpt lat="45.92024" lon="6.49882">
        <ele>1742</ele>
        <time>2017-08-29T07:28:50Z</time>
      </trkpt>
      <trkpt lat="45.92024" lon="6.49883">
        <ele>1742</ele>
        <time>2017-08-29T07:28:51Z</time>
      </trkpt>
      <trkpt lat="45.92025" lon="6.49885">
        <ele>1742</ele>
        <time>2017-08-29T07:28:52Z</time>
      </trkpt>
      <trkpt lat="45.92025" lon="6.49886">
        <ele>1742</ele>
        <time>2017-08-29T07:28:53Z</time>
      </trkpt>
      <trkpt lat="45.92025" lon="6.49888">
        <ele>1742</ele>
        <time>2017-08-29T07:28:54Z</time>
      </trkpt>
      <trkpt lat="45.92025" lon="6.4989">
        <ele>1742</ele>
        <time>2017-08-29T07:28:55Z</time>
      </trkpt>
      <trkpt lat="45.92025" lon="6.49891">
        <ele>1743</ele>
        <time>2017-08-29T07:28:56Z</time>
      </trkpt>
      <trkpt lat="45.92024" lon="6.49891">
        <ele>1743</ele>
        <time>2017-08-29T07:28:57Z</time>
      </trkpt>
      <trkpt lat="45.92023" lon="6.49891">
        <ele>1743</ele>
        <time>2017-08-29T07:28:58Z</time>
      </trkpt>
      <trkpt lat="45.92022" lon="6.4989">
        <ele>1743</ele>
        <time>2017-08-29T07:28:59Z</time>
      </trkpt>
      <trkpt lat="45.92021" lon="6.4989">
        <ele>1744</ele>
        <time>2017-08-29T07:29:00Z</time>
      </trkpt>
      <trkpt lat="45.9202" lon="6.4989">
        <ele>1744</ele>
        <time>2017-08-29T07:29:01Z</time>
      </trkpt>
      <trkpt lat="45.92019" lon="6.4989">
        <ele>1744</ele>
        <time>2017-08-29T07:29:02Z</time>
      </trkpt>
      <trkpt lat="45.92018" lon="6.49889">
        <ele>1744</ele>
        <time>2017-08-29T07:29:03Z</time>
      </trkpt>
      <trkpt lat="45.92017" lon="6.49889">
        <ele>1744</ele>
        <time>2017-08-29T07:29:04Z</time>
      </trkpt>
      <trkpt lat="45.92016" lon="6.49889">
        <ele>1744</ele>
        <time>2017-08-29T07:29:05Z</time>
      </trkpt>
      <trkpt lat="45.92016" lon="6.4989">
        <ele>1745</ele>
        <time>2017-08-29T07:29:06Z</time>
      </trkpt>
      <trkpt lat="45.92016" lon="6.4989">
        <ele>1745</ele>
        <time>2017-08-29T07:29:07Z</time>
      </trkpt>
      <trkpt lat="45.92016" lon="6.4989">
        <ele>1745</ele>
        <time>2017-08-29T07:29:08Z</time>
      </trkpt>
      <trkpt lat="45.92016" lon="6.49891">
        <ele>1746</ele>
        <time>2017-08-29T07:29:09Z</time>
      </trkpt>
      <trkpt lat="45.92015" lon="6.49891">
        <ele>1746</ele>
        <time>2017-08-29T07:29:10Z</time>
      </trkpt>
      <trkpt lat="45.92015" lon="6.49891">
        <ele>1746</ele>
        <time>2017-08-29T07:29:11Z</time>
      </trkpt>
      <trkpt lat="45.92015" lon="6.49892">
        <ele>1746</ele>
        <time>2017-08-29T07:29:12Z</time>
      </trkpt>
      <trkpt lat="45.92015" lon="6.49892">
        <ele>1747</ele>
        <time>2017-08-29T07:29:13Z</time>
      </trkpt>
      <trkpt lat="45.92015" lon="6.49892">
        <ele>1747</ele>
        <time>2017-08-29T07:29:14Z</time>
      </trkpt>
      <trkpt lat="45.92015" lon="6.49892">
        <ele>1748</ele>
        <time>2017-08-29T07:29:15Z</time>
      </trkpt>
      <trkpt lat="45.92014" lon="6.49893">
        <ele>1748</ele>
        <time>2017-08-29T07:29:16Z</time>
      </trkpt>
      <trkpt lat="45.92014" lon="6.49893">
        <ele>1748</ele>
        <time>2017-08-29T07:29:17Z</time>
      </trkpt>
      <trkpt lat="45.92014" lon="6.49893">
        <ele>1748</ele>
        <time>2017-08-29T07:29:18Z</time>
      </trkpt>
      <trkpt lat="45.92014" lon="6.49894">
        <ele>1748</ele>
        <time>2017-08-29T07:29:19Z</time>
      </trkpt>
      <trkpt lat="45.92014" lon="6.49894">
        <ele>1749</ele>
        <time>2017-08-29T07:29:20Z</time>
      </trkpt>
      <trkpt lat="45.92014" lon="6.49894">
        <ele>1749</ele>
        <time>2017-08-29T07:29:21Z</time>
      </trkpt>
      <trkpt lat="45.92013" lon="6.49895">
        <ele>1749</ele>
        <time>2017-08-29T07:29:22Z</time>
      </trkpt>
      <trkpt lat="45.92013" lon="6.49895">
        <ele>1749</ele>
        <time>2017-08-29T07:29:23Z</time>
      </trkpt>
      <trkpt lat="45.92013" lon="6.49895">
        <ele>1749</ele>
        <time>2017-08-29T07:29:24Z</time>
      </trkpt>
      <trkpt lat="45.92013" lon="6.49895">
        <ele>1749</ele>
        <time>2017-08-29T07:29:25Z</time>
      </trkpt>
      <trkpt lat="45.92013" lon="6.49896">
        <ele>1749</ele>
        <time>2017-08-29T07:29:26Z</time>
      </trkpt>
      <trkpt lat="45.92012" lon="6.49896">
        <ele>1750</ele>
        <time>2017-08-29T07:29:27Z</time>
      </trkpt>
      <trkpt lat="45.92012" lon="6.49896">
        <ele>1750</ele>
        <time>2017-08-29T07:29:28Z</time>
      </trkpt>
      <trkpt lat="45.92012" lon="6.49897">
        <ele>1750</ele>
        <time>2017-08-29T07:29:29Z</time>
      </trkpt>
      <trkpt lat="45.92012" lon="6.49897">
        <ele>1750</ele>
        <time>2017-08-29T07:29:30Z</time>
      </trkpt>
      <trkpt lat="45.92012" lon="6.49897">
        <ele>1751</ele>
        <time>2017-08-29T07:29:31Z</time>
      </trkpt>
      <trkpt lat="45.92012" lon="6.49897">
        <ele>1751</ele>
        <time>2017-08-29T07:29:32Z</time>
      </trkpt>
      <trkpt lat="45.92011" lon="6.49898">
        <ele>1751</ele>
        <time>2017-08-29T07:29:33Z</time>
      </trkpt>
      <trkpt lat="45.92011" lon="6.49898">
        <ele>1752</ele>
        <time>2017-08-29T07:29:34Z</time>
      </trkpt>
      <trkpt lat="45.92011" lon="6.49898">
        <ele>1752</ele>
        <time>2017-08-29T07:29:35Z</time>
      </trkpt>
      <trkpt lat="45.92011" lon="6.49899">
        <ele>1752</ele>
        <time>2017-08-29T07:29:36Z</time>
      </trkpt>
      <trkpt lat="45.92011" lon="6.49899">
        <ele>1752</ele>
        <time>2017-08-29T07:29:37Z</time>
      </trkpt>
      <trkpt lat="45.92011" lon="6.49899">
        <ele>1752</ele>
        <time>2017-08-29T07:29:38Z</time>
      </trkpt>
      <trkpt lat="45.9201" lon="6.499">
        <ele>1752</ele>
        <time>2017-08-29T07:29:39Z</time>
      </trkpt>
      <trkpt lat="45.9201" lon="6.499">
        <ele>1752</ele>
        <time>2017-08-29T07:29:40Z</time>
      </trkpt>
      <trkpt lat="45.92009" lon="6.499">
        <ele>1752</ele>
        <time>2017-08-29T07:29:41Z</time>
      </trkpt>
      <trkpt lat="45.92008" lon="6.49901">
        <ele>1753</ele>
        <time>2017-08-29T07:29:42Z</time>
      </trkpt>
      <trkpt lat="45.92007" lon="6.49901">
        <ele>1753</ele>
        <time>2017-08-29T07:29:43Z</time>
      </trkpt>
      <trkpt lat="45.92006" lon="6.49902">
        <ele>1753</ele>
        <time>2017-08-29T07:29:44Z</time>
      </trkpt>
      <trkpt lat="45.92005" lon="6.49902">
        <ele>1754</ele>
        <time>2017-08-29T07:29:45Z</time>
      </trkpt>
      <trkpt lat="45.92004" lon="6.49903">
        <ele>1754</ele>
        <time>2017-08-29T07:29:46Z</time>
      </trkpt>
      <trkpt lat="45.92003" lon="6.49903">
        <ele>1754</ele>
        <time>2017-08-29T07:29:47Z</time>
      </trkpt>
      <trkpt lat="45.92002" lon="6.49904">
        <ele>1754</ele>
        <time>2017-08-29T07:29:48Z</time>
      </trkpt>
      <trkpt lat="45.92001" lon="6.49904">
        <ele>1754</ele>
        <time>2017-08-29T07:29:49Z</time>
      </trkpt>
      <trkpt lat="45.92001" lon="6.49905">
        <ele>1755</ele>
        <time>2017-08-29T07:29:50Z</time>
      </trkpt>
      <trkpt lat="45.92" lon="6.49905">
        <ele>1755</ele>
        <time>2017-08-29T07:29:51Z</time>
      </trkpt>
      <trkpt lat="45.92" lon="6.49906">
        <ele>1756</ele>
        <time>2017-08-29T07:29:52Z</time>
      </trkpt>
      <trkpt lat="45.92" lon="6.49906">
        <ele>1756</ele>
        <time>2017-08-29T07:29:53Z</time>
      </trkpt>
      <trkpt lat="45.91999" lon="6.49907">
        <ele>1756</ele>
        <time>2017-08-29T07:29:54Z</time>
      </trkpt>
      <trkpt lat="45.91999" lon="6.49907">
        <ele>1756</ele>
        <time>2017-08-29T07:29:55Z</time>
      </trkpt>
      <trkpt lat="45.91998" lon="6.49908">
        <ele>1757</ele>
        <time>2017-08-29T07:29:56Z</time>
      </trkpt>
      <trkpt lat="45.91998" lon="6.49908">
        <ele>1757</ele>
        <time>2017-08-29T07:29:57Z</time>
      </trkpt>
      <trkpt lat="45.91998" lon="6.49909">
        <ele>1757</ele>
        <time>2017-08-29T07:29:58Z</time>
      </trkpt>
      <trkpt lat="45.91997" lon="6.49909">
        <ele>1757</ele>
        <time>2017-08-29T07:29:59Z</time>
      </trkpt>
      <trkpt lat="45.91997" lon="6.4991">
        <ele>1757</ele>
        <time>2017-08-29T07:30:00Z</time>
      </trkpt>
      <trkpt lat="45.91996" lon="6.4991">
        <ele>1757</ele>
        <time>2017-08-29T07:30:01Z</time>
      </trkpt>
      <trkpt lat="45.91996" lon="6.49911">
        <ele>1757</ele>
        <time>2017-08-29T07:30:02Z</time>
      </trkpt>
      <trkpt lat="45.91996" lon="6.49911">
        <ele>1758</ele>
        <time>2017-08-29T07:30:03Z</time>
      </trkpt>
      <trkpt lat="45.91995" lon="6.49912">
        <ele>1759</ele>
        <time>2017-08-29T07:30:04Z</time>
      </trkpt>
      <trkpt lat="45.91995" lon="6.49912">
        <ele>1759</ele>
        <time>2017-08-29T07:30:05Z</time>
      </trkpt>
      <trkpt lat="45.91994" lon="6.49913">
        <ele>1759</ele>
        <time>2017-08-29T07:30:06Z</time>
      </trkpt>
      <trkpt lat="45.91994" lon="6.49913">
        <ele>1759</ele>
        <time>2017-08-29T07:30:07Z</time>
      </trkpt>
      <trkpt lat="45.91994" lon="6.49913">
        <ele>1760</ele>
        <time>2017-08-29T07:30:08Z</time>
      </trkpt>
      <trkpt lat="45.91994" lon="6.49913">
        <ele>1760</ele>
        <time>2017-08-29T07:30:09Z</time>
      </trkpt>
      <trkpt lat="45.91993" lon="6.49913">
        <ele>1760</ele>
        <time>2017-08-29T07:30:10Z</time>
      </trkpt>
      <trkpt lat="45.91993" lon="6.49913">
        <ele>1761</ele>
        <time>2017-08-29T07:30:11Z</time>
      </trkpt>
      <trkpt lat="45.91993" lon="6.49914">
        <ele>1761</ele>
        <time>2017-08-29T07:30:12Z</time>
      </trkpt>
      <trkpt lat="45.91992" lon="6.49914">
        <ele>1761</ele>
        <time>2017-08-29T07:30:13Z</time>
      </trkpt>
      <trkpt lat="45.91992" lon="6.49914">
        <ele>1761</ele>
        <time>2017-08-29T07:30:14Z</time>
      </trkpt>
      <trkpt lat="45.91992" lon="6.49914">
        <ele>1761</ele>
        <time>2017-08-29T07:30:15Z</time>
      </trkpt>
      <trkpt lat="45.91992" lon="6.49914">
        <ele>1761</ele>
        <time>2017-08-29T07:30:16Z</time>
      </trkpt>
      <trkpt lat="45.91991" lon="6.49914">
        <ele>1762</ele>
        <time>2017-08-29T07:30:17Z</time>
      </trkpt>
      <trkpt lat="45.91991" lon="6.49915">
        <ele>1762</ele>
        <time>2017-08-29T07:30:18Z</time>
      </trkpt>
      <trkpt lat="45.91991" lon="6.49915">
        <ele>1762</ele>
        <time>2017-08-29T07:30:19Z</time>
      </trkpt>
      <trkpt lat="45.91991" lon="6.49915">
        <ele>1762</ele>
        <time>2017-08-29T07:30:20Z</time>
      </trkpt>
      <trkpt lat="45.91991" lon="6.49918">
        <ele>1762</ele>
        <time>2017-08-29T07:30:21Z</time>
      </trkpt>
      <trkpt lat="45.91991" lon="6.49918">
        <ele>1762</ele>
        <time>2017-08-29T07:30:22Z</time>
      </trkpt>
      <trkpt lat="45.91991" lon="6.49918">
        <ele>1762</ele>
        <time>2017-08-29T07:30:23Z</time>
      </trkpt>
      <trkpt lat="45.9199" lon="6.4992">
        <ele>1763</ele>
        <time>2017-08-29T07:30:24Z</time>
      </trkpt>
      <trkpt lat="45.9199" lon="6.4992">
        <ele>1763</ele>
        <time>2017-08-29T07:30:25Z</time>
      </trkpt>
      <trkpt lat="45.9199" lon="6.4992">
        <ele>1763</ele>
        <time>2017-08-29T07:30:26Z</time>
      </trkpt>
      <trkpt lat="45.91987" lon="6.49922">
        <ele>1764</ele>
        <time>2017-08-29T07:30:27Z</time>
      </trkpt>
      <trkpt lat="45.91987" lon="6.49922">
        <ele>1764</ele>
        <time>2017-08-29T07:30:28Z</time>
      </trkpt>
      <trkpt lat="45.91987" lon="6.49922">
        <ele>1764</ele>
        <time>2017-08-29T07:30:29Z</time>
      </trkpt>
      <trkpt lat="45.91985" lon="6.49921">
        <ele>1764</ele>
        <time>2017-08-29T07:30:30Z</time>
      </trkpt>
      <trkpt lat="45.91985" lon="6.49922">
        <ele>1764</ele>
        <time>2017-08-29T07:30:31Z</time>
      </trkpt>
      <trkpt lat="45.91984" lon="6.49923">
        <ele>1765</ele>
        <time>2017-08-29T07:30:32Z</time>
      </trkpt>
      <trkpt lat="45.91984" lon="6.49923">
        <ele>1765</ele>
        <time>2017-08-29T07:30:33Z</time>
      </trkpt>
      <trkpt lat="45.91984" lon="6.49924">
        <ele>1765</ele>
        <time>2017-08-29T07:30:34Z</time>
      </trkpt>
      <trkpt lat="45.91984" lon="6.49924">
        <ele>1766</ele>
        <time>2017-08-29T07:30:35Z</time>
      </trkpt>
      <trkpt lat="45.91983" lon="6.49925">
        <ele>1766</ele>
        <time>2017-08-29T07:30:36Z</time>
      </trkpt>
      <trkpt lat="45.91983" lon="6.49925">
        <ele>1767</ele>
        <time>2017-08-29T07:30:37Z</time>
      </trkpt>
      <trkpt lat="45.91983" lon="6.49926">
        <ele>1767</ele>
        <time>2017-08-29T07:30:38Z</time>
      </trkpt>
      <trkpt lat="45.91983" lon="6.49926">
        <ele>1767</ele>
        <time>2017-08-29T07:30:39Z</time>
      </trkpt>
      <trkpt lat="45.91982" lon="6.49927">
        <ele>1767</ele>
        <time>2017-08-29T07:30:40Z</time>
      </trkpt>
      <trkpt lat="45.91982" lon="6.49927">
        <ele>1767</ele>
        <time>2017-08-29T07:30:41Z</time>
      </trkpt>
      <trkpt lat="45.91982" lon="6.49928">
        <ele>1767</ele>
        <time>2017-08-29T07:30:42Z</time>
      </trkpt>
      <trkpt lat="45.91982" lon="6.49928">
        <ele>1767</ele>
        <time>2017-08-29T07:30:43Z</time>
      </trkpt>
      <trkpt lat="45.91981" lon="6.49929">
        <ele>1767</ele>
        <time>2017-08-29T07:30:44Z</time>
      </trkpt>
      <trkpt lat="45.91981" lon="6.4993">
        <ele>1767</ele>
        <time>2017-08-29T07:30:45Z</time>
      </trkpt>
      <trkpt lat="45.91981" lon="6.4993">
        <ele>1768</ele>
        <time>2017-08-29T07:30:46Z</time>
      </trkpt>
      <trkpt lat="45.91981" lon="6.4993">
        <ele>1768</ele>
        <time>2017-08-29T07:30:47Z</time>
      </trkpt>
      <trkpt lat="45.91981" lon="6.4993">
        <ele>1769</ele>
        <time>2017-08-29T07:30:48Z</time>
      </trkpt>
      <trkpt lat="45.91981" lon="6.4993">
        <ele>1769</ele>
        <time>2017-08-29T07:30:49Z</time>
      </trkpt>
      <trkpt lat="45.91978" lon="6.49928">
        <ele>1769</ele>
        <time>2017-08-29T07:30:50Z</time>
      </trkpt>
      <trkpt lat="45.91978" lon="6.49928">
        <ele>1769</ele>
        <time>2017-08-29T07:30:51Z</time>
      </trkpt>
      <trkpt lat="45.91978" lon="6.49928">
        <ele>1769</ele>
        <time>2017-08-29T07:30:52Z</time>
      </trkpt>
      <trkpt lat="45.91978" lon="6.49928">
        <ele>1770</ele>
        <time>2017-08-29T07:30:53Z</time>
      </trkpt>
      <trkpt lat="45.91978" lon="6.49928">
        <ele>1770</ele>
        <time>2017-08-29T07:30:54Z</time>
      </trkpt>
      <trkpt lat="45.91978" lon="6.49931">
        <ele>1770</ele>
        <time>2017-08-29T07:30:55Z</time>
      </trkpt>
      <trkpt lat="45.91978" lon="6.49931">
        <ele>1771</ele>
        <time>2017-08-29T07:30:56Z</time>
      </trkpt>
      <trkpt lat="45.91978" lon="6.49934">
        <ele>1771</ele>
        <time>2017-08-29T07:30:57Z</time>
      </trkpt>
      <trkpt lat="45.91978" lon="6.49934">
        <ele>1771</ele>
        <time>2017-08-29T07:30:58Z</time>
      </trkpt>
      <trkpt lat="45.91976" lon="6.49934">
        <ele>1771</ele>
        <time>2017-08-29T07:30:59Z</time>
      </trkpt>
      <trkpt lat="45.91975" lon="6.49935">
        <ele>1771</ele>
        <time>2017-08-29T07:31:00Z</time>
      </trkpt>
      <trkpt lat="45.91974" lon="6.49936">
        <ele>1771</ele>
        <time>2017-08-29T07:31:01Z</time>
      </trkpt>
      <trkpt lat="45.91973" lon="6.49937">
        <ele>1771</ele>
        <time>2017-08-29T07:31:02Z</time>
      </trkpt>
      <trkpt lat="45.91972" lon="6.49938">
        <ele>1772</ele>
        <time>2017-08-29T07:31:03Z</time>
      </trkpt>
      <trkpt lat="45.91972" lon="6.49938">
        <ele>1772</ele>
        <time>2017-08-29T07:31:04Z</time>
      </trkpt>
      <trkpt lat="45.91972" lon="6.49938">
        <ele>1773</ele>
        <time>2017-08-29T07:31:05Z</time>
      </trkpt>
      <trkpt lat="45.91972" lon="6.49938">
        <ele>1773</ele>
        <time>2017-08-29T07:31:06Z</time>
      </trkpt>
      <trkpt lat="45.91972" lon="6.49942">
        <ele>1773</ele>
        <time>2017-08-29T07:31:07Z</time>
      </trkpt>
      <trkpt lat="45.91972" lon="6.49942">
        <ele>1773</ele>
        <time>2017-08-29T07:31:08Z</time>
      </trkpt>
      <trkpt lat="45.91972" lon="6.49942">
        <ele>1773</ele>
        <time>2017-08-29T07:31:09Z</time>
      </trkpt>
      <trkpt lat="45.91971" lon="6.49945">
        <ele>1773</ele>
        <time>2017-08-29T07:31:10Z</time>
      </trkpt>
      <trkpt lat="45.91971" lon="6.49945">
        <ele>1774</ele>
        <time>2017-08-29T07:31:11Z</time>
      </trkpt>
      <trkpt lat="45.91971" lon="6.49945">
        <ele>1774</ele>
        <time>2017-08-29T07:31:12Z</time>
      </trkpt>
      <trkpt lat="45.91971" lon="6.49945">
        <ele>1775</ele>
        <time>2017-08-29T07:31:13Z</time>
      </trkpt>
      <trkpt lat="45.91971" lon="6.49945">
        <ele>1775</ele>
        <time>2017-08-29T07:31:14Z</time>
      </trkpt>
      <trkpt lat="45.9197" lon="6.49949">
        <ele>1775</ele>
        <time>2017-08-29T07:31:15Z</time>
      </trkpt>
      <trkpt lat="45.9197" lon="6.49949">
        <ele>1775</ele>
        <time>2017-08-29T07:31:16Z</time>
      </trkpt>
      <trkpt lat="45.9197" lon="6.49949">
        <ele>1775</ele>
        <time>2017-08-29T07:31:17Z</time>
      </trkpt>
      <trkpt lat="45.9197" lon="6.49949">
        <ele>1776</ele>
        <time>2017-08-29T07:31:18Z</time>
      </trkpt>
      <trkpt lat="45.91969" lon="6.49951">
        <ele>1776</ele>
        <time>2017-08-29T07:31:19Z</time>
      </trkpt>
      <trkpt lat="45.91969" lon="6.49951">
        <ele>1776</ele>
        <time>2017-08-29T07:31:20Z</time>
      </trkpt>
      <trkpt lat="45.91969" lon="6.49951">
        <ele>1776</ele>
        <time>2017-08-29T07:31:21Z</time>
      </trkpt>
      <trkpt lat="45.91969" lon="6.49951">
        <ele>1777</ele>
        <time>2017-08-29T07:31:22Z</time>
      </trkpt>
      <trkpt lat="45.91969" lon="6.49951">
        <ele>1777</ele>
        <time>2017-08-29T07:31:23Z</time>
      </trkpt>
      <trkpt lat="45.91969" lon="6.49951">
        <ele>1777</ele>
        <time>2017-08-29T07:31:24Z</time>
      </trkpt>
      <trkpt lat="45.91968" lon="6.49952">
        <ele>1777</ele>
        <time>2017-08-29T07:31:25Z</time>
      </trkpt>
      <trkpt lat="45.91968" lon="6.49952">
        <ele>1777</ele>
        <time>2017-08-29T07:31:26Z</time>
      </trkpt>
      <trkpt lat="45.91968" lon="6.49952">
        <ele>1778</ele>
        <time>2017-08-29T07:31:27Z</time>
      </trkpt>
      <trkpt lat="45.91967" lon="6.49956">
        <ele>1778</ele>
        <time>2017-08-29T07:31:28Z</time>
      </trkpt>
      <trkpt lat="45.91967" lon="6.49956">
        <ele>1778</ele>
        <time>2017-08-29T07:31:29Z</time>
      </trkpt>
      <trkpt lat="45.91967" lon="6.49956">
        <ele>1779</ele>
        <time>2017-08-29T07:31:30Z</time>
      </trkpt>
      <trkpt lat="45.91967" lon="6.49956">
        <ele>1779</ele>
        <time>2017-08-29T07:31:31Z</time>
      </trkpt>
      <trkpt lat="45.91966" lon="6.49958">
        <ele>1780</ele>
        <time>2017-08-29T07:31:32Z</time>
      </trkpt>
      <trkpt lat="45.91966" lon="6.49958">
        <ele>1780</ele>
        <time>2017-08-29T07:31:33Z</time>
      </trkpt>
      <trkpt lat="45.91966" lon="6.49958">
        <ele>1780</ele>
        <time>2017-08-29T07:31:34Z</time>
      </trkpt>
      <trkpt lat="45.91966" lon="6.49958">
        <ele>1780</ele>
        <time>2017-08-29T07:31:35Z</time>
      </trkpt>
      <trkpt lat="45.91966" lon="6.49958">
        <ele>1780</ele>
        <time>2017-08-29T07:31:36Z</time>
      </trkpt>
      <trkpt lat="45.91964" lon="6.4996">
        <ele>1781</ele>
        <time>2017-08-29T07:31:37Z</time>
      </trkpt>
      <trkpt lat="45.91964" lon="6.4996">
        <ele>1781</ele>
        <time>2017-08-29T07:31:38Z</time>
      </trkpt>
      <trkpt lat="45.91964" lon="6.4996">
        <ele>1781</ele>
        <time>2017-08-29T07:31:39Z</time>
      </trkpt>
      <trkpt lat="45.91964" lon="6.4996">
        <ele>1781</ele>
        <time>2017-08-29T07:31:40Z</time>
      </trkpt>
      <trkpt lat="45.91964" lon="6.4996">
        <ele>1782</ele>
        <time>2017-08-29T07:31:41Z</time>
      </trkpt>
      <trkpt lat="45.91964" lon="6.4996">
        <ele>1782</ele>
        <time>2017-08-29T07:31:42Z</time>
      </trkpt>
      <trkpt lat="45.91962" lon="6.4996">
        <ele>1782</ele>
        <time>2017-08-29T07:31:43Z</time>
      </trkpt>
      <trkpt lat="45.91962" lon="6.4996">
        <ele>1782</ele>
        <time>2017-08-29T07:31:44Z</time>
      </trkpt>
      <trkpt lat="45.91962" lon="6.4996">
        <ele>1782</ele>
        <time>2017-08-29T07:31:45Z</time>
      </trkpt>
      <trkpt lat="45.91962" lon="6.4996">
        <ele>1782</ele>
        <time>2017-08-29T07:31:46Z</time>
      </trkpt>
      <trkpt lat="45.91962" lon="6.4996">
        <ele>1783</ele>
        <time>2017-08-29T07:31:47Z</time>
      </trkpt>
      <trkpt lat="45.91962" lon="6.49964">
        <ele>1783</ele>
        <time>2017-08-29T07:31:48Z</time>
      </trkpt>
      <trkpt lat="45.91962" lon="6.49964">
        <ele>1783</ele>
        <time>2017-08-29T07:31:49Z</time>
      </trkpt>
      <trkpt lat="45.91962" lon="6.49964">
        <ele>1784</ele>
        <time>2017-08-29T07:31:50Z</time>
      </trkpt>
      <trkpt lat="45.91962" lon="6.49966">
        <ele>1784</ele>
        <time>2017-08-29T07:31:51Z</time>
      </trkpt>
      <trkpt lat="45.91962" lon="6.49966">
        <ele>1784</ele>
        <time>2017-08-29T07:31:52Z</time>
      </trkpt>
      <trkpt lat="45.91962" lon="6.49966">
        <ele>1784</ele>
        <time>2017-08-29T07:31:53Z</time>
      </trkpt>
      <trkpt lat="45.9196" lon="6.49967">
        <ele>1784</ele>
        <time>2017-08-29T07:31:54Z</time>
      </trkpt>
      <trkpt lat="45.9196" lon="6.49967">
        <ele>1784</ele>
        <time>2017-08-29T07:31:55Z</time>
      </trkpt>
      <trkpt lat="45.9196" lon="6.49967">
        <ele>1785</ele>
        <time>2017-08-29T07:31:56Z</time>
      </trkpt>
      <trkpt lat="45.91958" lon="6.49966">
        <ele>1786</ele>
        <time>2017-08-29T07:31:57Z</time>
      </trkpt>
      <trkpt lat="45.91958" lon="6.49966">
        <ele>1786</ele>
        <time>2017-08-29T07:31:58Z</time>
      </trkpt>
      <trkpt lat="45.91956" lon="6.49965">
        <ele>1786</ele>
        <time>2017-08-29T07:32:00Z</time>
      </trkpt>
      <trkpt lat="45.91956" lon="6.49965">
        <ele>1786</ele>
        <time>2017-08-29T07:32:01Z</time>
      </trkpt>
      <trkpt lat="45.91956" lon="6.49965">
        <ele>1786</ele>
        <time>2017-08-29T07:32:02Z</time>
      </trkpt>
      <trkpt lat="45.91956" lon="6.49965">
        <ele>1786</ele>
        <time>2017-08-29T07:32:03Z</time>
      </trkpt>
      <trkpt lat="45.91956" lon="6.49965">
        <ele>1787</ele>
        <time>2017-08-29T07:32:04Z</time>
      </trkpt>
      <trkpt lat="45.91956" lon="6.49965">
        <ele>1787</ele>
        <time>2017-08-29T07:32:05Z</time>
      </trkpt>
      <trkpt lat="45.91955" lon="6.4997">
        <ele>1787</ele>
        <time>2017-08-29T07:32:06Z</time>
      </trkpt>
      <trkpt lat="45.91955" lon="6.4997">
        <ele>1787</ele>
        <time>2017-08-29T07:32:07Z</time>
      </trkpt>
      <trkpt lat="45.91954" lon="6.49972">
        <ele>1787</ele>
        <time>2017-08-29T07:32:08Z</time>
      </trkpt>
      <trkpt lat="45.91954" lon="6.49972">
        <ele>1788</ele>
        <time>2017-08-29T07:32:09Z</time>
      </trkpt>
      <trkpt lat="45.91954" lon="6.49972">
        <ele>1788</ele>
        <time>2017-08-29T07:32:10Z</time>
      </trkpt>
      <trkpt lat="45.91952" lon="6.49971">
        <ele>1788</ele>
        <time>2017-08-29T07:32:11Z</time>
      </trkpt>
      <trkpt lat="45.91952" lon="6.49971">
        <ele>1789</ele>
        <time>2017-08-29T07:32:12Z</time>
      </trkpt>
      <trkpt lat="45.91952" lon="6.49971">
        <ele>1789</ele>
        <time>2017-08-29T07:32:13Z</time>
      </trkpt>
      <trkpt lat="45.91952" lon="6.49971">
        <ele>1790</ele>
        <time>2017-08-29T07:32:14Z</time>
      </trkpt>
      <trkpt lat="45.91951" lon="6.49973">
        <ele>1790</ele>
        <time>2017-08-29T07:32:15Z</time>
      </trkpt>
      <trkpt lat="45.91951" lon="6.49973">
        <ele>1790</ele>
        <time>2017-08-29T07:32:16Z</time>
      </trkpt>
      <trkpt lat="45.91951" lon="6.49973">
        <ele>1790</ele>
        <time>2017-08-29T07:32:17Z</time>
      </trkpt>
      <trkpt lat="45.91948" lon="6.49971">
        <ele>1790</ele>
        <time>2017-08-29T07:32:18Z</time>
      </trkpt>
      <trkpt lat="45.91948" lon="6.49971">
        <ele>1790</ele>
        <time>2017-08-29T07:32:19Z</time>
      </trkpt>
      <trkpt lat="45.91947" lon="6.49969">
        <ele>1790</ele>
        <time>2017-08-29T07:32:20Z</time>
      </trkpt>
      <trkpt lat="45.91947" lon="6.49969">
        <ele>1791</ele>
        <time>2017-08-29T07:32:21Z</time>
      </trkpt>
      <trkpt lat="45.91947" lon="6.49969">
        <ele>1791</ele>
        <time>2017-08-29T07:32:22Z</time>
      </trkpt>
      <trkpt lat="45.91947" lon="6.49969">
        <ele>1791</ele>
        <time>2017-08-29T07:32:23Z</time>
      </trkpt>
      <trkpt lat="45.91945" lon="6.49971">
        <ele>1791</ele>
        <time>2017-08-29T07:32:24Z</time>
      </trkpt>
      <trkpt lat="45.91945" lon="6.49971">
        <ele>1792</ele>
        <time>2017-08-29T07:32:25Z</time>
      </trkpt>
      <trkpt lat="45.91945" lon="6.49971">
        <ele>1792</ele>
        <time>2017-08-29T07:32:26Z</time>
      </trkpt>
      <trkpt lat="45.91944" lon="6.49974">
        <ele>1792</ele>
        <time>2017-08-29T07:32:27Z</time>
      </trkpt>
      <trkpt lat="45.91944" lon="6.49974">
        <ele>1792</ele>
        <time>2017-08-29T07:32:28Z</time>
      </trkpt>
      <trkpt lat="45.91944" lon="6.49974">
        <ele>1792</ele>
        <time>2017-08-29T07:32:29Z</time>
      </trkpt>
      <trkpt lat="45.91944" lon="6.49977">
        <ele>1793</ele>
        <time>2017-08-29T07:32:30Z</time>
      </trkpt>
      <trkpt lat="45.91944" lon="6.49977">
        <ele>1793</ele>
        <time>2017-08-29T07:32:31Z</time>
      </trkpt>
      <trkpt lat="45.91944" lon="6.49977">
        <ele>1793</ele>
        <time>2017-08-29T07:32:32Z</time>
      </trkpt>
      <trkpt lat="45.91944" lon="6.49977">
        <ele>1794</ele>
        <time>2017-08-29T07:32:33Z</time>
      </trkpt>
      <trkpt lat="45.91942" lon="6.49976">
        <ele>1794</ele>
        <time>2017-08-29T07:32:34Z</time>
      </trkpt>
      <trkpt lat="45.91942" lon="6.49976">
        <ele>1795</ele>
        <time>2017-08-29T07:32:35Z</time>
      </trkpt>
      <trkpt lat="45.91942" lon="6.49976">
        <ele>1795</ele>
        <time>2017-08-29T07:32:36Z</time>
      </trkpt>
      <trkpt lat="45.9194" lon="6.49973">
        <ele>1795</ele>
        <time>2017-08-29T07:32:37Z</time>
      </trkpt>
      <trkpt lat="45.9194" lon="6.49973">
        <ele>1795</ele>
        <time>2017-08-29T07:32:38Z</time>
      </trkpt>
      <trkpt lat="45.91939" lon="6.49972">
        <ele>1795</ele>
        <time>2017-08-29T07:32:39Z</time>
      </trkpt>
      <trkpt lat="45.91939" lon="6.49972">
        <ele>1795</ele>
        <time>2017-08-29T07:32:40Z</time>
      </trkpt>
      <trkpt lat="45.91939" lon="6.49972">
        <ele>1796</ele>
        <time>2017-08-29T07:32:41Z</time>
      </trkpt>
      <trkpt lat="45.91937" lon="6.4997">
        <ele>1796</ele>
        <time>2017-08-29T07:32:42Z</time>
      </trkpt>
      <trkpt lat="45.91937" lon="6.4997">
        <ele>1796</ele>
        <time>2017-08-29T07:32:43Z</time>
      </trkpt>
      <trkpt lat="45.91937" lon="6.4997">
        <ele>1796</ele>
        <time>2017-08-29T07:32:44Z</time>
      </trkpt>
      <trkpt lat="45.91935" lon="6.49969">
        <ele>1796</ele>
        <time>2017-08-29T07:32:45Z</time>
      </trkpt>
      <trkpt lat="45.91935" lon="6.49969">
        <ele>1797</ele>
        <time>2017-08-29T07:32:46Z</time>
      </trkpt>
      <trkpt lat="45.91935" lon="6.49969">
        <ele>1797</ele>
        <time>2017-08-29T07:32:47Z</time>
      </trkpt>
      <trkpt lat="45.91933" lon="6.49968">
        <ele>1797</ele>
        <time>2017-08-29T07:32:48Z</time>
      </trkpt>
      <trkpt lat="45.91933" lon="6.49968">
        <ele>1797</ele>
        <time>2017-08-29T07:32:49Z</time>
      </trkpt>
      <trkpt lat="45.91931" lon="6.49967">
        <ele>1798</ele>
        <time>2017-08-29T07:32:50Z</time>
      </trkpt>
      <trkpt lat="45.91931" lon="6.49967">
        <ele>1798</ele>
        <time>2017-08-29T07:32:51Z</time>
      </trkpt>
      <trkpt lat="45.9193" lon="6.49964">
        <ele>1798</ele>
        <time>2017-08-29T07:32:52Z</time>
      </trkpt>
      <trkpt lat="45.9193" lon="6.49964">
        <ele>1798</ele>
        <time>2017-08-29T07:32:53Z</time>
      </trkpt>
      <trkpt lat="45.9193" lon="6.49961">
        <ele>1798</ele>
        <time>2017-08-29T07:32:54Z</time>
      </trkpt>
      <trkpt lat="45.9193" lon="6.49961">
        <ele>1798</ele>
        <time>2017-08-29T07:32:55Z</time>
      </trkpt>
      <trkpt lat="45.91931" lon="6.49958">
        <ele>1798</ele>
        <time>2017-08-29T07:32:56Z</time>
      </trkpt>
      <trkpt lat="45.91931" lon="6.49958">
        <ele>1798</ele>
        <time>2017-08-29T07:32:57Z</time>
      </trkpt>
      <trkpt lat="45.91931" lon="6.49958">
        <ele>1798</ele>
        <time>2017-08-29T07:32:58Z</time>
      </trkpt>
      <trkpt lat="45.91931" lon="6.49958">
        <ele>1799</ele>
        <time>2017-08-29T07:32:59Z</time>
      </trkpt>
      <trkpt lat="45.91929" lon="6.49958">
        <ele>1800</ele>
        <time>2017-08-29T07:33:00Z</time>
      </trkpt>
      <trkpt lat="45.91929" lon="6.49958">
        <ele>1800</ele>
        <time>2017-08-29T07:33:01Z</time>
      </trkpt>
      <trkpt lat="45.91929" lon="6.49958">
        <ele>1800</ele>
        <time>2017-08-29T07:33:02Z</time>
      </trkpt>
      <trkpt lat="45.91928" lon="6.49955">
        <ele>1800</ele>
        <time>2017-08-29T07:33:03Z</time>
      </trkpt>
      <trkpt lat="45.91928" lon="6.49955">
        <ele>1800</ele>
        <time>2017-08-29T07:33:04Z</time>
      </trkpt>
      <trkpt lat="45.91928" lon="6.49955">
        <ele>1800</ele>
        <time>2017-08-29T07:33:05Z</time>
      </trkpt>
      <trkpt lat="45.91927" lon="6.49953">
        <ele>1801</ele>
        <time>2017-08-29T07:33:06Z</time>
      </trkpt>
      <trkpt lat="45.91927" lon="6.49953">
        <ele>1801</ele>
        <time>2017-08-29T07:33:07Z</time>
      </trkpt>
      <trkpt lat="45.91927" lon="6.49953">
        <ele>1802</ele>
        <time>2017-08-29T07:33:08Z</time>
      </trkpt>
      <trkpt lat="45.91927" lon="6.49953">
        <ele>1802</ele>
        <time>2017-08-29T07:33:09Z</time>
      </trkpt>
      <trkpt lat="45.91926" lon="6.4995">
        <ele>1803</ele>
        <time>2017-08-29T07:33:10Z</time>
      </trkpt>
      <trkpt lat="45.91926" lon="6.4995">
        <ele>1803</ele>
        <time>2017-08-29T07:33:11Z</time>
      </trkpt>
      <trkpt lat="45.91926" lon="6.49947">
        <ele>1803</ele>
        <time>2017-08-29T07:33:12Z</time>
      </trkpt>
      <trkpt lat="45.91926" lon="6.49947">
        <ele>1803</ele>
        <time>2017-08-29T07:33:13Z</time>
      </trkpt>
      <trkpt lat="45.91925" lon="6.49944">
        <ele>1803</ele>
        <time>2017-08-29T07:33:14Z</time>
      </trkpt>
      <trkpt lat="45.91925" lon="6.49944">
        <ele>1803</ele>
        <time>2017-08-29T07:33:15Z</time>
      </trkpt>
      <trkpt lat="45.91925" lon="6.49944">
        <ele>1803</ele>
        <time>2017-08-29T07:33:16Z</time>
      </trkpt>
      <trkpt lat="45.91924" lon="6.49941">
        <ele>1803</ele>
        <time>2017-08-29T07:33:17Z</time>
      </trkpt>
      <trkpt lat="45.91924" lon="6.49941">
        <ele>1804</ele>
        <time>2017-08-29T07:33:18Z</time>
      </trkpt>
      <trkpt lat="45.91924" lon="6.49941">
        <ele>1804</ele>
        <time>2017-08-29T07:33:19Z</time>
      </trkpt>
      <trkpt lat="45.91922" lon="6.4994">
        <ele>1804</ele>
        <time>2017-08-29T07:33:20Z</time>
      </trkpt>
      <trkpt lat="45.91922" lon="6.4994">
        <ele>1805</ele>
        <time>2017-08-29T07:33:21Z</time>
      </trkpt>
      <trkpt lat="45.91922" lon="6.4994">
        <ele>1805</ele>
        <time>2017-08-29T07:33:22Z</time>
      </trkpt>
      <trkpt lat="45.9192" lon="6.49938">
        <ele>1805</ele>
        <time>2017-08-29T07:33:23Z</time>
      </trkpt>
      <trkpt lat="45.9192" lon="6.49938">
        <ele>1805</ele>
        <time>2017-08-29T07:33:24Z</time>
      </trkpt>
      <trkpt lat="45.9192" lon="6.49938">
        <ele>1806</ele>
        <time>2017-08-29T07:33:25Z</time>
      </trkpt>
      <trkpt lat="45.9192" lon="6.49938">
        <ele>1806</ele>
        <time>2017-08-29T07:33:26Z</time>
      </trkpt>
      <trkpt lat="45.91918" lon="6.49937">
        <ele>1807</ele>
        <time>2017-08-29T07:33:27Z</time>
      </trkpt>
      <trkpt lat="45.91918" lon="6.49937">
        <ele>1807</ele>
        <time>2017-08-29T07:33:28Z</time>
      </trkpt>
      <trkpt lat="45.91918" lon="6.49937">
        <ele>1807</ele>
        <time>2017-08-29T07:33:29Z</time>
      </trkpt>
      <trkpt lat="45.91916" lon="6.49938">
        <ele>1808</ele>
        <time>2017-08-29T07:33:30Z</time>
      </trkpt>
      <trkpt lat="45.91916" lon="6.49938">
        <ele>1808</ele>
        <time>2017-08-29T07:33:31Z</time>
      </trkpt>
      <trkpt lat="45.91916" lon="6.49938">
        <ele>1808</ele>
        <time>2017-08-29T07:33:32Z</time>
      </trkpt>
      <trkpt lat="45.91914" lon="6.49938">
        <ele>1808</ele>
        <time>2017-08-29T07:33:33Z</time>
      </trkpt>
      <trkpt lat="45.91914" lon="6.49938">
        <ele>1809</ele>
        <time>2017-08-29T07:33:34Z</time>
      </trkpt>
      <trkpt lat="45.91912" lon="6.4994">
        <ele>1809</ele>
        <time>2017-08-29T07:33:35Z</time>
      </trkpt>
      <trkpt lat="45.91912" lon="6.4994">
        <ele>1809</ele>
        <time>2017-08-29T07:33:36Z</time>
      </trkpt>
      <trkpt lat="45.91912" lon="6.4994">
        <ele>1809</ele>
        <time>2017-08-29T07:33:37Z</time>
      </trkpt>
      <trkpt lat="45.9191" lon="6.4994">
        <ele>1810</ele>
        <time>2017-08-29T07:33:38Z</time>
      </trkpt>
      <trkpt lat="45.9191" lon="6.4994">
        <ele>1810</ele>
        <time>2017-08-29T07:33:39Z</time>
      </trkpt>
      <trkpt lat="45.9191" lon="6.4994">
        <ele>1811</ele>
        <time>2017-08-29T07:33:40Z</time>
      </trkpt>
      <trkpt lat="45.91908" lon="6.49941">
        <ele>1811</ele>
        <time>2017-08-29T07:33:41Z</time>
      </trkpt>
      <trkpt lat="45.91908" lon="6.49941">
        <ele>1811</ele>
        <time>2017-08-29T07:33:42Z</time>
      </trkpt>
      <trkpt lat="45.91907" lon="6.49944">
        <ele>1811</ele>
        <time>2017-08-29T07:33:43Z</time>
      </trkpt>
      <trkpt lat="45.91907" lon="6.49944">
        <ele>1811</ele>
        <time>2017-08-29T07:33:44Z</time>
      </trkpt>
      <trkpt lat="45.91907" lon="6.49944">
        <ele>1812</ele>
        <time>2017-08-29T07:33:45Z</time>
      </trkpt>
      <trkpt lat="45.91905" lon="6.49944">
        <ele>1812</ele>
        <time>2017-08-29T07:33:46Z</time>
      </trkpt>
      <trkpt lat="45.91905" lon="6.49944">
        <ele>1812</ele>
        <time>2017-08-29T07:33:47Z</time>
      </trkpt>
      <trkpt lat="45.91905" lon="6.49944">
        <ele>1812</ele>
        <time>2017-08-29T07:33:48Z</time>
      </trkpt>
      <trkpt lat="45.91903" lon="6.49943">
        <ele>1812</ele>
        <time>2017-08-29T07:33:49Z</time>
      </trkpt>
      <trkpt lat="45.91903" lon="6.49943">
        <ele>1813</ele>
        <time>2017-08-29T07:33:50Z</time>
      </trkpt>
      <trkpt lat="45.91903" lon="6.49943">
        <ele>1813</ele>
        <time>2017-08-29T07:33:51Z</time>
      </trkpt>
      <trkpt lat="45.91901" lon="6.49941">
        <ele>1813</ele>
        <time>2017-08-29T07:33:52Z</time>
      </trkpt>
      <trkpt lat="45.91901" lon="6.49941">
        <ele>1814</ele>
        <time>2017-08-29T07:33:53Z</time>
      </trkpt>
      <trkpt lat="45.91899" lon="6.49938">
        <ele>1814</ele>
        <time>2017-08-29T07:33:54Z</time>
      </trkpt>
      <trkpt lat="45.91899" lon="6.49938">
        <ele>1814</ele>
        <time>2017-08-29T07:33:55Z</time>
      </trkpt>
      <trkpt lat="45.91897" lon="6.49937">
        <ele>1814</ele>
        <time>2017-08-29T07:33:56Z</time>
      </trkpt>
      <trkpt lat="45.91897" lon="6.49937">
        <ele>1815</ele>
        <time>2017-08-29T07:33:57Z</time>
      </trkpt>
      <trkpt lat="45.91895" lon="6.49935">
        <ele>1815</ele>
        <time>2017-08-29T07:33:58Z</time>
      </trkpt>
      <trkpt lat="45.91895" lon="6.49935">
        <ele>1815</ele>
        <time>2017-08-29T07:33:59Z</time>
      </trkpt>
      <trkpt lat="45.91893" lon="6.49933">
        <ele>1815</ele>
        <time>2017-08-29T07:34:00Z</time>
      </trkpt>
      <trkpt lat="45.91893" lon="6.49933">
        <ele>1816</ele>
        <time>2017-08-29T07:34:01Z</time>
      </trkpt>
      <trkpt lat="45.91891" lon="6.49931">
        <ele>1816</ele>
        <time>2017-08-29T07:34:02Z</time>
      </trkpt>
      <trkpt lat="45.91891" lon="6.49931">
        <ele>1816</ele>
        <time>2017-08-29T07:34:03Z</time>
      </trkpt>
      <trkpt lat="45.91891" lon="6.49931">
        <ele>1816</ele>
        <time>2017-08-29T07:34:04Z</time>
      </trkpt>
      <trkpt lat="45.91888" lon="6.49928">
        <ele>1817</ele>
        <time>2017-08-29T07:34:05Z</time>
      </trkpt>
      <trkpt lat="45.91888" lon="6.49928">
        <ele>1818</ele>
        <time>2017-08-29T07:34:06Z</time>
      </trkpt>
      <trkpt lat="45.91886" lon="6.49926">
        <ele>1819</ele>
        <time>2017-08-29T07:34:07Z</time>
      </trkpt>
      <trkpt lat="45.91886" lon="6.49926">
        <ele>1819</ele>
        <time>2017-08-29T07:34:08Z</time>
      </trkpt>
      <trkpt lat="45.91884" lon="6.49926">
        <ele>1819</ele>
        <time>2017-08-29T07:34:09Z</time>
      </trkpt>
      <trkpt lat="45.91884" lon="6.49926">
        <ele>1819</ele>
        <time>2017-08-29T07:34:10Z</time>
      </trkpt>
      <trkpt lat="45.91884" lon="6.49926">
        <ele>1819</ele>
        <time>2017-08-29T07:34:11Z</time>
      </trkpt>
      <trkpt lat="45.91884" lon="6.49926">
        <ele>1820</ele>
        <time>2017-08-29T07:34:12Z</time>
      </trkpt>
      <trkpt lat="45.91882" lon="6.49924">
        <ele>1820</ele>
        <time>2017-08-29T07:34:13Z</time>
      </trkpt>
      <trkpt lat="45.91882" lon="6.49924">
        <ele>1820</ele>
        <time>2017-08-29T07:34:14Z</time>
      </trkpt>
      <trkpt lat="45.91881" lon="6.49922">
        <ele>1820</ele>
        <time>2017-08-29T07:34:15Z</time>
      </trkpt>
      <trkpt lat="45.91881" lon="6.49922">
        <ele>1821</ele>
        <time>2017-08-29T07:34:16Z</time>
      </trkpt>
      <trkpt lat="45.9188" lon="6.49919">
        <ele>1821</ele>
        <time>2017-08-29T07:34:17Z</time>
      </trkpt>
      <trkpt lat="45.9188" lon="6.49919">
        <ele>1821</ele>
        <time>2017-08-29T07:34:18Z</time>
      </trkpt>
      <trkpt lat="45.91877" lon="6.49917">
        <ele>1821</ele>
        <time>2017-08-29T07:34:19Z</time>
      </trkpt>
      <trkpt lat="45.91877" lon="6.49917">
        <ele>1821</ele>
        <time>2017-08-29T07:34:20Z</time>
      </trkpt>
      <trkpt lat="45.91875" lon="6.49915">
        <ele>1822</ele>
        <time>2017-08-29T07:34:21Z</time>
      </trkpt>
      <trkpt lat="45.91875" lon="6.49915">
        <ele>1822</ele>
        <time>2017-08-29T07:34:22Z</time>
      </trkpt>
      <trkpt lat="45.91875" lon="6.49915">
        <ele>1822</ele>
        <time>2017-08-29T07:34:23Z</time>
      </trkpt>
      <trkpt lat="45.91873" lon="6.49915">
        <ele>1822</ele>
        <time>2017-08-29T07:34:24Z</time>
      </trkpt>
      <trkpt lat="45.91873" lon="6.49915">
        <ele>1823</ele>
        <time>2017-08-29T07:34:25Z</time>
      </trkpt>
      <trkpt lat="45.91873" lon="6.49915">
        <ele>1823</ele>
        <time>2017-08-29T07:34:26Z</time>
      </trkpt>
      <trkpt lat="45.91873" lon="6.49918">
        <ele>1823</ele>
        <time>2017-08-29T07:34:27Z</time>
      </trkpt>
      <trkpt lat="45.91873" lon="6.49918">
        <ele>1823</ele>
        <time>2017-08-29T07:34:28Z</time>
      </trkpt>
      <trkpt lat="45.91873" lon="6.49922">
        <ele>1824</ele>
        <time>2017-08-29T07:34:29Z</time>
      </trkpt>
      <trkpt lat="45.91873" lon="6.49922">
        <ele>1824</ele>
        <time>2017-08-29T07:34:30Z</time>
      </trkpt>
      <trkpt lat="45.91874" lon="6.49926">
        <ele>1824</ele>
        <time>2017-08-29T07:34:31Z</time>
      </trkpt>
      <trkpt lat="45.91873" lon="6.49927">
        <ele>1824</ele>
        <time>2017-08-29T07:34:32Z</time>
      </trkpt>
      <trkpt lat="45.91873" lon="6.49929">
        <ele>1824</ele>
        <time>2017-08-29T07:34:33Z</time>
      </trkpt>
      <trkpt lat="45.91873" lon="6.49931">
        <ele>1824</ele>
        <time>2017-08-29T07:34:34Z</time>
      </trkpt>
      <trkpt lat="45.91873" lon="6.49932">
        <ele>1825</ele>
        <time>2017-08-29T07:34:35Z</time>
      </trkpt>
      <trkpt lat="45.91873" lon="6.49932">
        <ele>1825</ele>
        <time>2017-08-29T07:34:36Z</time>
      </trkpt>
      <trkpt lat="45.91873" lon="6.49936">
        <ele>1825</ele>
        <time>2017-08-29T07:34:37Z</time>
      </trkpt>
      <trkpt lat="45.91873" lon="6.49936">
        <ele>1825</ele>
        <time>2017-08-29T07:34:38Z</time>
      </trkpt>
      <trkpt lat="45.91874" lon="6.49938">
        <ele>1826</ele>
        <time>2017-08-29T07:34:39Z</time>
      </trkpt>
      <trkpt lat="45.91874" lon="6.49938">
        <ele>1826</ele>
        <time>2017-08-29T07:34:40Z</time>
      </trkpt>
      <trkpt lat="45.91874" lon="6.49941">
        <ele>1826</ele>
        <time>2017-08-29T07:34:41Z</time>
      </trkpt>
      <trkpt lat="45.91874" lon="6.49941">
        <ele>1826</ele>
        <time>2017-08-29T07:34:42Z</time>
      </trkpt>
      <trkpt lat="45.91874" lon="6.49941">
        <ele>1826</ele>
        <time>2017-08-29T07:34:43Z</time>
      </trkpt>
      <trkpt lat="45.91873" lon="6.49944">
        <ele>1826</ele>
        <time>2017-08-29T07:34:44Z</time>
      </trkpt>
      <trkpt lat="45.91873" lon="6.49944">
        <ele>1826</ele>
        <time>2017-08-29T07:34:45Z</time>
      </trkpt>
      <trkpt lat="45.91873" lon="6.49944">
        <ele>1827</ele>
        <time>2017-08-29T07:34:46Z</time>
      </trkpt>
      <trkpt lat="45.91872" lon="6.49948">
        <ele>1827</ele>
        <time>2017-08-29T07:34:47Z</time>
      </trkpt>
      <trkpt lat="45.91872" lon="6.49948">
        <ele>1828</ele>
        <time>2017-08-29T07:34:48Z</time>
      </trkpt>
      <trkpt lat="45.91872" lon="6.49948">
        <ele>1828</ele>
        <time>2017-08-29T07:34:49Z</time>
      </trkpt>
      <trkpt lat="45.9187" lon="6.49951">
        <ele>1828</ele>
        <time>2017-08-29T07:34:50Z</time>
      </trkpt>
      <trkpt lat="45.91869" lon="6.4995">
        <ele>1829</ele>
        <time>2017-08-29T07:34:51Z</time>
      </trkpt>
      <trkpt lat="45.91868" lon="6.49949">
        <ele>1829</ele>
        <time>2017-08-29T07:34:52Z</time>
      </trkpt>
      <trkpt lat="45.91867" lon="6.49948">
        <ele>1829</ele>
        <time>2017-08-29T07:34:53Z</time>
      </trkpt>
      <trkpt lat="45.91866" lon="6.49947">
        <ele>1830</ele>
        <time>2017-08-29T07:34:54Z</time>
      </trkpt>
      <trkpt lat="45.91865" lon="6.49947">
        <ele>1830</ele>
        <time>2017-08-29T07:34:55Z</time>
      </trkpt>
      <trkpt lat="45.91865" lon="6.49947">
        <ele>1830</ele>
        <time>2017-08-29T07:34:56Z</time>
      </trkpt>
      <trkpt lat="45.91865" lon="6.49947">
        <ele>1830</ele>
        <time>2017-08-29T07:34:57Z</time>
      </trkpt>
      <trkpt lat="45.91863" lon="6.49945">
        <ele>1831</ele>
        <time>2017-08-29T07:34:58Z</time>
      </trkpt>
      <trkpt lat="45.91863" lon="6.49945">
        <ele>1831</ele>
        <time>2017-08-29T07:34:59Z</time>
      </trkpt>
      <trkpt lat="45.91863" lon="6.49945">
        <ele>1831</ele>
        <time>2017-08-29T07:35:00Z</time>
      </trkpt>
      <trkpt lat="45.91861" lon="6.49944">
        <ele>1831</ele>
        <time>2017-08-29T07:35:01Z</time>
      </trkpt>
      <trkpt lat="45.91861" lon="6.49944">
        <ele>1831</ele>
        <time>2017-08-29T07:35:02Z</time>
      </trkpt>
      <trkpt lat="45.91861" lon="6.49944">
        <ele>1831</ele>
        <time>2017-08-29T07:35:03Z</time>
      </trkpt>
      <trkpt lat="45.91859" lon="6.49943">
        <ele>1831</ele>
        <time>2017-08-29T07:35:04Z</time>
      </trkpt>
      <trkpt lat="45.91859" lon="6.49943">
        <ele>1832</ele>
        <time>2017-08-29T07:35:05Z</time>
      </trkpt>
      <trkpt lat="45.91859" lon="6.49943">
        <ele>1832</ele>
        <time>2017-08-29T07:35:06Z</time>
      </trkpt>
      <trkpt lat="45.91859" lon="6.49943">
        <ele>1832</ele>
        <time>2017-08-29T07:35:07Z</time>
      </trkpt>
      <trkpt lat="45.91857" lon="6.49944">
        <ele>1833</ele>
        <time>2017-08-29T07:35:08Z</time>
      </trkpt>
      <trkpt lat="45.91857" lon="6.49944">
        <ele>1833</ele>
        <time>2017-08-29T07:35:09Z</time>
      </trkpt>
      <trkpt lat="45.91857" lon="6.49944">
        <ele>1833</ele>
        <time>2017-08-29T07:35:10Z</time>
      </trkpt>
      <trkpt lat="45.91855" lon="6.49944">
        <ele>1833</ele>
        <time>2017-08-29T07:35:11Z</time>
      </trkpt>
      <trkpt lat="45.91855" lon="6.49944">
        <ele>1834</ele>
        <time>2017-08-29T07:35:12Z</time>
      </trkpt>
      <trkpt lat="45.91855" lon="6.49944">
        <ele>1834</ele>
        <time>2017-08-29T07:35:13Z</time>
      </trkpt>
      <trkpt lat="45.91853" lon="6.49946">
        <ele>1834</ele>
        <time>2017-08-29T07:35:14Z</time>
      </trkpt>
      <trkpt lat="45.91853" lon="6.49946">
        <ele>1834</ele>
        <time>2017-08-29T07:35:15Z</time>
      </trkpt>
      <trkpt lat="45.91853" lon="6.49946">
        <ele>1834</ele>
        <time>2017-08-29T07:35:16Z</time>
      </trkpt>
      <trkpt lat="45.91853" lon="6.49946">
        <ele>1835</ele>
        <time>2017-08-29T07:35:17Z</time>
      </trkpt>
      <trkpt lat="45.91851" lon="6.49946">
        <ele>1835</ele>
        <time>2017-08-29T07:35:18Z</time>
      </trkpt>
      <trkpt lat="45.91851" lon="6.49946">
        <ele>1835</ele>
        <time>2017-08-29T07:35:19Z</time>
      </trkpt>
      <trkpt lat="45.91851" lon="6.49946">
        <ele>1836</ele>
        <time>2017-08-29T07:35:20Z</time>
      </trkpt>
      <trkpt lat="45.91849" lon="6.49944">
        <ele>1836</ele>
        <time>2017-08-29T07:35:21Z</time>
      </trkpt>
      <trkpt lat="45.91849" lon="6.49944">
        <ele>1836</ele>
        <time>2017-08-29T07:35:22Z</time>
      </trkpt>
      <trkpt lat="45.91849" lon="6.49944">
        <ele>1836</ele>
        <time>2017-08-29T07:35:23Z</time>
      </trkpt>
      <trkpt lat="45.91846" lon="6.49943">
        <ele>1836</ele>
        <time>2017-08-29T07:35:24Z</time>
      </trkpt>
      <trkpt lat="45.91846" lon="6.49943">
        <ele>1836</ele>
        <time>2017-08-29T07:35:25Z</time>
      </trkpt>
      <trkpt lat="45.91846" lon="6.49943">
        <ele>1836</ele>
        <time>2017-08-29T07:35:26Z</time>
      </trkpt>
      <trkpt lat="45.91845" lon="6.49941">
        <ele>1836</ele>
        <time>2017-08-29T07:35:27Z</time>
      </trkpt>
      <trkpt lat="45.91845" lon="6.49941">
        <ele>1837</ele>
        <time>2017-08-29T07:35:28Z</time>
      </trkpt>
      <trkpt lat="45.91845" lon="6.49941">
        <ele>1837</ele>
        <time>2017-08-29T07:35:29Z</time>
      </trkpt>
      <trkpt lat="45.91843" lon="6.49941">
        <ele>1837</ele>
        <time>2017-08-29T07:35:30Z</time>
      </trkpt>
      <trkpt lat="45.91843" lon="6.49941">
        <ele>1838</ele>
        <time>2017-08-29T07:35:31Z</time>
      </trkpt>
      <trkpt lat="45.91843" lon="6.49941">
        <ele>1838</ele>
        <time>2017-08-29T07:35:32Z</time>
      </trkpt>
      <trkpt lat="45.91841" lon="6.49938">
        <ele>1839</ele>
        <time>2017-08-29T07:35:33Z</time>
      </trkpt>
      <trkpt lat="45.91841" lon="6.49938">
        <ele>1839</ele>
        <time>2017-08-29T07:35:34Z</time>
      </trkpt>
      <trkpt lat="45.91841" lon="6.49938">
        <ele>1839</ele>
        <time>2017-08-29T07:35:35Z</time>
      </trkpt>
      <trkpt lat="45.9184" lon="6.49935">
        <ele>1840</ele>
        <time>2017-08-29T07:35:36Z</time>
      </trkpt>
      <trkpt lat="45.9184" lon="6.49935">
        <ele>1840</ele>
        <time>2017-08-29T07:35:37Z</time>
      </trkpt>
      <trkpt lat="45.9184" lon="6.49933">
        <ele>1840</ele>
        <time>2017-08-29T07:35:38Z</time>
      </trkpt>
      <trkpt lat="45.9184" lon="6.49933">
        <ele>1840</ele>
        <time>2017-08-29T07:35:39Z</time>
      </trkpt>
      <trkpt lat="45.9184" lon="6.49933">
        <ele>1840</ele>
        <time>2017-08-29T07:35:40Z</time>
      </trkpt>
      <trkpt lat="45.91839" lon="6.49929">
        <ele>1840</ele>
        <time>2017-08-29T07:35:41Z</time>
      </trkpt>
      <trkpt lat="45.91839" lon="6.49929">
        <ele>1840</ele>
        <time>2017-08-29T07:35:42Z</time>
      </trkpt>
      <trkpt lat="45.91839" lon="6.49929">
        <ele>1840</ele>
        <time>2017-08-29T07:35:43Z</time>
      </trkpt>
      <trkpt lat="45.91839" lon="6.49926">
        <ele>1841</ele>
        <time>2017-08-29T07:35:44Z</time>
      </trkpt>
      <trkpt lat="45.91839" lon="6.49926">
        <ele>1842</ele>
        <time>2017-08-29T07:35:45Z</time>
      </trkpt>
      <trkpt lat="45.91838" lon="6.49923">
        <ele>1842</ele>
        <time>2017-08-29T07:35:46Z</time>
      </trkpt>
      <trkpt lat="45.91838" lon="6.49923">
        <ele>1842</ele>
        <time>2017-08-29T07:35:47Z</time>
      </trkpt>
      <trkpt lat="45.91837" lon="6.4992">
        <ele>1842</ele>
        <time>2017-08-29T07:35:48Z</time>
      </trkpt>
      <trkpt lat="45.91837" lon="6.4992">
        <ele>1842</ele>
        <time>2017-08-29T07:35:49Z</time>
      </trkpt>
      <trkpt lat="45.91837" lon="6.49918">
        <ele>1842</ele>
        <time>2017-08-29T07:35:50Z</time>
      </trkpt>
      <trkpt lat="45.91837" lon="6.49918">
        <ele>1843</ele>
        <time>2017-08-29T07:35:51Z</time>
      </trkpt>
      <trkpt lat="45.91835" lon="6.49915">
        <ele>1844</ele>
        <time>2017-08-29T07:35:52Z</time>
      </trkpt>
      <trkpt lat="45.91835" lon="6.49915">
        <ele>1844</ele>
        <time>2017-08-29T07:35:53Z</time>
      </trkpt>
      <trkpt lat="45.91833" lon="6.49913">
        <ele>1845</ele>
        <time>2017-08-29T07:35:54Z</time>
      </trkpt>
      <trkpt lat="45.91833" lon="6.49913">
        <ele>1845</ele>
        <time>2017-08-29T07:35:55Z</time>
      </trkpt>
      <trkpt lat="45.9183" lon="6.49912">
        <ele>1845</ele>
        <time>2017-08-29T07:35:56Z</time>
      </trkpt>
      <trkpt lat="45.9183" lon="6.49912">
        <ele>1845</ele>
        <time>2017-08-29T07:35:57Z</time>
      </trkpt>
      <trkpt lat="45.91827" lon="6.49911">
        <ele>1845</ele>
        <time>2017-08-29T07:35:58Z</time>
      </trkpt>
      <trkpt lat="45.91827" lon="6.49911">
        <ele>1845</ele>
        <time>2017-08-29T07:35:59Z</time>
      </trkpt>
      <trkpt lat="45.91825" lon="6.49912">
        <ele>1846</ele>
        <time>2017-08-29T07:36:00Z</time>
      </trkpt>
      <trkpt lat="45.91825" lon="6.49912">
        <ele>1846</ele>
        <time>2017-08-29T07:36:01Z</time>
      </trkpt>
      <trkpt lat="45.91822" lon="6.49913">
        <ele>1846</ele>
        <time>2017-08-29T07:36:02Z</time>
      </trkpt>
      <trkpt lat="45.91822" lon="6.49913">
        <ele>1846</ele>
        <time>2017-08-29T07:36:03Z</time>
      </trkpt>
      <trkpt lat="45.9182" lon="6.49915">
        <ele>1846</ele>
        <time>2017-08-29T07:36:04Z</time>
      </trkpt>
      <trkpt lat="45.9182" lon="6.49915">
        <ele>1846</ele>
        <time>2017-08-29T07:36:05Z</time>
      </trkpt>
      <trkpt lat="45.91817" lon="6.49917">
        <ele>1847</ele>
        <time>2017-08-29T07:36:06Z</time>
      </trkpt>
      <trkpt lat="45.91817" lon="6.49917">
        <ele>1848</ele>
        <time>2017-08-29T07:36:07Z</time>
      </trkpt>
      <trkpt lat="45.91816" lon="6.49918">
        <ele>1848</ele>
        <time>2017-08-29T07:36:08Z</time>
      </trkpt>
      <trkpt lat="45.91816" lon="6.49918">
        <ele>1848</ele>
        <time>2017-08-29T07:36:09Z</time>
      </trkpt>
      <trkpt lat="45.91814" lon="6.4992">
        <ele>1848</ele>
        <time>2017-08-29T07:36:10Z</time>
      </trkpt>
      <trkpt lat="45.91814" lon="6.4992">
        <ele>1848</ele>
        <time>2017-08-29T07:36:11Z</time>
      </trkpt>
      <trkpt lat="45.91812" lon="6.49922">
        <ele>1848</ele>
        <time>2017-08-29T07:36:12Z</time>
      </trkpt>
      <trkpt lat="45.91812" lon="6.49922">
        <ele>1848</ele>
        <time>2017-08-29T07:36:13Z</time>
      </trkpt>
      <trkpt lat="45.91809" lon="6.49923">
        <ele>1848</ele>
        <time>2017-08-29T07:36:14Z</time>
      </trkpt>
      <trkpt lat="45.91809" lon="6.49923">
        <ele>1849</ele>
        <time>2017-08-29T07:36:15Z</time>
      </trkpt>
      <trkpt lat="45.91806" lon="6.49923">
        <ele>1849</ele>
        <time>2017-08-29T07:36:16Z</time>
      </trkpt>
      <trkpt lat="45.91806" lon="6.49923">
        <ele>1850</ele>
        <time>2017-08-29T07:36:17Z</time>
      </trkpt>
      <trkpt lat="45.91804" lon="6.49924">
        <ele>1850</ele>
        <time>2017-08-29T07:36:18Z</time>
      </trkpt>
      <trkpt lat="45.91804" lon="6.49924">
        <ele>1850</ele>
        <time>2017-08-29T07:36:19Z</time>
      </trkpt>
      <trkpt lat="45.91802" lon="6.49924">
        <ele>1850</ele>
        <time>2017-08-29T07:36:20Z</time>
      </trkpt>
      <trkpt lat="45.91802" lon="6.49924">
        <ele>1850</ele>
        <time>2017-08-29T07:36:21Z</time>
      </trkpt>
      <trkpt lat="45.918" lon="6.49925">
        <ele>1850</ele>
        <time>2017-08-29T07:36:22Z</time>
      </trkpt>
      <trkpt lat="45.918" lon="6.49925">
        <ele>1851</ele>
        <time>2017-08-29T07:36:23Z</time>
      </trkpt>
      <trkpt lat="45.918" lon="6.49925">
        <ele>1851</ele>
        <time>2017-08-29T07:36:24Z</time>
      </trkpt>
      <trkpt lat="45.91797" lon="6.49925">
        <ele>1851</ele>
        <time>2017-08-29T07:36:25Z</time>
      </trkpt>
      <trkpt lat="45.91797" lon="6.49925">
        <ele>1851</ele>
        <time>2017-08-29T07:36:26Z</time>
      </trkpt>
      <trkpt lat="45.91797" lon="6.49925">
        <ele>1851</ele>
        <time>2017-08-29T07:36:27Z</time>
      </trkpt>
      <trkpt lat="45.91797" lon="6.49925">
        <ele>1852</ele>
        <time>2017-08-29T07:36:28Z</time>
      </trkpt>
      <trkpt lat="45.91795" lon="6.49927">
        <ele>1852</ele>
        <time>2017-08-29T07:36:29Z</time>
      </trkpt>
      <trkpt lat="45.91795" lon="6.49927">
        <ele>1852</ele>
        <time>2017-08-29T07:36:30Z</time>
      </trkpt>
      <trkpt lat="45.91795" lon="6.49927">
        <ele>1853</ele>
        <time>2017-08-29T07:36:31Z</time>
      </trkpt>
      <trkpt lat="45.91793" lon="6.49927">
        <ele>1853</ele>
        <time>2017-08-29T07:36:32Z</time>
      </trkpt>
      <trkpt lat="45.91793" lon="6.49927">
        <ele>1854</ele>
        <time>2017-08-29T07:36:33Z</time>
      </trkpt>
      <trkpt lat="45.91793" lon="6.49927">
        <ele>1854</ele>
        <time>2017-08-29T07:36:34Z</time>
      </trkpt>
      <trkpt lat="45.91791" lon="6.49928">
        <ele>1854</ele>
        <time>2017-08-29T07:36:35Z</time>
      </trkpt>
      <trkpt lat="45.91791" lon="6.49928">
        <ele>1854</ele>
        <time>2017-08-29T07:36:36Z</time>
      </trkpt>
      <trkpt lat="45.91791" lon="6.49928">
        <ele>1854</ele>
        <time>2017-08-29T07:36:37Z</time>
      </trkpt>
      <trkpt lat="45.91789" lon="6.49929">
        <ele>1854</ele>
        <time>2017-08-29T07:36:38Z</time>
      </trkpt>
      <trkpt lat="45.91789" lon="6.49929">
        <ele>1855</ele>
        <time>2017-08-29T07:36:39Z</time>
      </trkpt>
      <trkpt lat="45.91789" lon="6.49929">
        <ele>1855</ele>
        <time>2017-08-29T07:36:40Z</time>
      </trkpt>
      <trkpt lat="45.91789" lon="6.49929">
        <ele>1855</ele>
        <time>2017-08-29T07:36:41Z</time>
      </trkpt>
      <trkpt lat="45.91787" lon="6.49931">
        <ele>1856</ele>
        <time>2017-08-29T07:36:42Z</time>
      </trkpt>
      <trkpt lat="45.91787" lon="6.49931">
        <ele>1857</ele>
        <time>2017-08-29T07:36:43Z</time>
      </trkpt>
      <trkpt lat="45.91787" lon="6.49931">
        <ele>1857</ele>
        <time>2017-08-29T07:36:44Z</time>
      </trkpt>
      <trkpt lat="45.91786" lon="6.49933">
        <ele>1857</ele>
        <time>2017-08-29T07:36:45Z</time>
      </trkpt>
      <trkpt lat="45.91786" lon="6.49933">
        <ele>1857</ele>
        <time>2017-08-29T07:36:46Z</time>
      </trkpt>
      <trkpt lat="45.91786" lon="6.49933">
        <ele>1858</ele>
        <time>2017-08-29T07:36:47Z</time>
      </trkpt>
      <trkpt lat="45.91783" lon="6.49934">
        <ele>1858</ele>
        <time>2017-08-29T07:36:48Z</time>
      </trkpt>
      <trkpt lat="45.91783" lon="6.49934">
        <ele>1858</ele>
        <time>2017-08-29T07:36:49Z</time>
      </trkpt>
      <trkpt lat="45.91781" lon="6.49934">
        <ele>1858</ele>
        <time>2017-08-29T07:36:50Z</time>
      </trkpt>
      <trkpt lat="45.91781" lon="6.49934">
        <ele>1858</ele>
        <time>2017-08-29T07:36:51Z</time>
      </trkpt>
      <trkpt lat="45.91779" lon="6.49936">
        <ele>1859</ele>
        <time>2017-08-29T07:36:52Z</time>
      </trkpt>
      <trkpt lat="45.91779" lon="6.49936">
        <ele>1859</ele>
        <time>2017-08-29T07:36:53Z</time>
      </trkpt>
      <trkpt lat="45.91777" lon="6.49938">
        <ele>1859</ele>
        <time>2017-08-29T07:36:54Z</time>
      </trkpt>
      <trkpt lat="45.91776" lon="6.49938">
        <ele>1859</ele>
        <time>2017-08-29T07:36:55Z</time>
      </trkpt>
      <trkpt lat="45.91775" lon="6.49939">
        <ele>1859</ele>
        <time>2017-08-29T07:36:56Z</time>
      </trkpt>
      <trkpt lat="45.91774" lon="6.49939">
        <ele>1859</ele>
        <time>2017-08-29T07:36:57Z</time>
      </trkpt>
      <trkpt lat="45.91773" lon="6.4994">
        <ele>1859</ele>
        <time>2017-08-29T07:36:58Z</time>
      </trkpt>
      <trkpt lat="45.91772" lon="6.49941">
        <ele>1860</ele>
        <time>2017-08-29T07:36:59Z</time>
      </trkpt>
      <trkpt lat="45.91772" lon="6.49941">
        <ele>1860</ele>
        <time>2017-08-29T07:37:00Z</time>
      </trkpt>
      <trkpt lat="45.91772" lon="6.49941">
        <ele>1860</ele>
        <time>2017-08-29T07:37:01Z</time>
      </trkpt>
      <trkpt lat="45.91772" lon="6.49941">
        <ele>1860</ele>
        <time>2017-08-29T07:37:02Z</time>
      </trkpt>
      <trkpt lat="45.9177" lon="6.49941">
        <ele>1861</ele>
        <time>2017-08-29T07:37:03Z</time>
      </trkpt>
      <trkpt lat="45.9177" lon="6.49941">
        <ele>1861</ele>
        <time>2017-08-29T07:37:04Z</time>
      </trkpt>
      <trkpt lat="45.9177" lon="6.49941">
        <ele>1861</ele>
        <time>2017-08-29T07:37:05Z</time>
      </trkpt>
      <trkpt lat="45.9177" lon="6.49941">
        <ele>1862</ele>
        <time>2017-08-29T07:37:06Z</time>
      </trkpt>
      <trkpt lat="45.91768" lon="6.49941">
        <ele>1863</ele>
        <time>2017-08-29T07:37:07Z</time>
      </trkpt>
      <trkpt lat="45.91768" lon="6.49941">
        <ele>1863</ele>
        <time>2017-08-29T07:37:08Z</time>
      </trkpt>
      <trkpt lat="45.91768" lon="6.49941">
        <ele>1863</ele>
        <time>2017-08-29T07:37:09Z</time>
      </trkpt>
      <trkpt lat="45.91768" lon="6.49941">
        <ele>1863</ele>
        <time>2017-08-29T07:37:10Z</time>
      </trkpt>
      <trkpt lat="45.91766" lon="6.49941">
        <ele>1863</ele>
        <time>2017-08-29T07:37:11Z</time>
      </trkpt>
      <trkpt lat="45.91766" lon="6.49941">
        <ele>1864</ele>
        <time>2017-08-29T07:37:12Z</time>
      </trkpt>
      <trkpt lat="45.91766" lon="6.49941">
        <ele>1864</ele>
        <time>2017-08-29T07:37:13Z</time>
      </trkpt>
      <trkpt lat="45.91765" lon="6.49942">
        <ele>1864</ele>
        <time>2017-08-29T07:37:14Z</time>
      </trkpt>
      <trkpt lat="45.91765" lon="6.49942">
        <ele>1864</ele>
        <time>2017-08-29T07:37:15Z</time>
      </trkpt>
      <trkpt lat="45.91765" lon="6.49942">
        <ele>1865</ele>
        <time>2017-08-29T07:37:16Z</time>
      </trkpt>
      <trkpt lat="45.91763" lon="6.49943">
        <ele>1865</ele>
        <time>2017-08-29T07:37:17Z</time>
      </trkpt>
      <trkpt lat="45.91763" lon="6.49943">
        <ele>1865</ele>
        <time>2017-08-29T07:37:18Z</time>
      </trkpt>
      <trkpt lat="45.91763" lon="6.49943">
        <ele>1865</ele>
        <time>2017-08-29T07:37:19Z</time>
      </trkpt>
      <trkpt lat="45.9176" lon="6.49944">
        <ele>1865</ele>
        <time>2017-08-29T07:37:20Z</time>
      </trkpt>
      <trkpt lat="45.9176" lon="6.49944">
        <ele>1865</ele>
        <time>2017-08-29T07:37:21Z</time>
      </trkpt>
      <trkpt lat="45.9176" lon="6.49944">
        <ele>1865</ele>
        <time>2017-08-29T07:37:22Z</time>
      </trkpt>
      <trkpt lat="45.91758" lon="6.49943">
        <ele>1866</ele>
        <time>2017-08-29T07:37:23Z</time>
      </trkpt>
      <trkpt lat="45.91757" lon="6.49943">
        <ele>1866</ele>
        <time>2017-08-29T07:37:24Z</time>
      </trkpt>
      <trkpt lat="45.91756" lon="6.49943">
        <ele>1866</ele>
        <time>2017-08-29T07:37:25Z</time>
      </trkpt>
      <trkpt lat="45.91755" lon="6.49942">
        <ele>1866</ele>
        <time>2017-08-29T07:37:26Z</time>
      </trkpt>
      <trkpt lat="45.91754" lon="6.49942">
        <ele>1866</ele>
        <time>2017-08-29T07:37:27Z</time>
      </trkpt>
      <trkpt lat="45.91754" lon="6.49942">
        <ele>1867</ele>
        <time>2017-08-29T07:37:28Z</time>
      </trkpt>
      <trkpt lat="45.91753" lon="6.49941">
        <ele>1867</ele>
        <time>2017-08-29T07:37:29Z</time>
      </trkpt>
      <trkpt lat="45.91753" lon="6.49941">
        <ele>1867</ele>
        <time>2017-08-29T07:37:30Z</time>
      </trkpt>
      <trkpt lat="45.91753" lon="6.49941">
        <ele>1868</ele>
        <time>2017-08-29T07:37:31Z</time>
      </trkpt>
      <trkpt lat="45.91751" lon="6.49941">
        <ele>1868</ele>
        <time>2017-08-29T07:37:32Z</time>
      </trkpt>
      <trkpt lat="45.91751" lon="6.49941">
        <ele>1869</ele>
        <time>2017-08-29T07:37:33Z</time>
      </trkpt>
      <trkpt lat="45.91749" lon="6.49941">
        <ele>1869</ele>
        <time>2017-08-29T07:37:34Z</time>
      </trkpt>
      <trkpt lat="45.91749" lon="6.49941">
        <ele>1869</ele>
        <time>2017-08-29T07:37:35Z</time>
      </trkpt>
      <trkpt lat="45.91746" lon="6.4994">
        <ele>1869</ele>
        <time>2017-08-29T07:37:36Z</time>
      </trkpt>
      <trkpt lat="45.91746" lon="6.4994">
        <ele>1869</ele>
        <time>2017-08-29T07:37:37Z</time>
      </trkpt>
      <trkpt lat="45.91744" lon="6.4994">
        <ele>1870</ele>
        <time>2017-08-29T07:37:38Z</time>
      </trkpt>
      <trkpt lat="45.91744" lon="6.4994">
        <ele>1870</ele>
        <time>2017-08-29T07:37:39Z</time>
      </trkpt>
      <trkpt lat="45.91744" lon="6.4994">
        <ele>1870</ele>
        <time>2017-08-29T07:37:40Z</time>
      </trkpt>
      <trkpt lat="45.91742" lon="6.49939">
        <ele>1870</ele>
        <time>2017-08-29T07:37:41Z</time>
      </trkpt>
      <trkpt lat="45.91742" lon="6.49939">
        <ele>1870</ele>
        <time>2017-08-29T07:37:42Z</time>
      </trkpt>
      <trkpt lat="45.91742" lon="6.49939">
        <ele>1870</ele>
        <time>2017-08-29T07:37:43Z</time>
      </trkpt>
      <trkpt lat="45.9174" lon="6.49937">
        <ele>1871</ele>
        <time>2017-08-29T07:37:44Z</time>
      </trkpt>
      <trkpt lat="45.91739" lon="6.49936">
        <ele>1871</ele>
        <time>2017-08-29T07:37:45Z</time>
      </trkpt>
      <trkpt lat="45.91738" lon="6.49936">
        <ele>1871</ele>
        <time>2017-08-29T07:37:46Z</time>
      </trkpt>
      <trkpt lat="45.91737" lon="6.49935">
        <ele>1872</ele>
        <time>2017-08-29T07:37:47Z</time>
      </trkpt>
      <trkpt lat="45.91736" lon="6.49934">
        <ele>1872</ele>
        <time>2017-08-29T07:37:48Z</time>
      </trkpt>
      <trkpt lat="45.91736" lon="6.49934">
        <ele>1872</ele>
        <time>2017-08-29T07:37:49Z</time>
      </trkpt>
      <trkpt lat="45.91734" lon="6.49933">
        <ele>1872</ele>
        <time>2017-08-29T07:37:50Z</time>
      </trkpt>
      <trkpt lat="45.91734" lon="6.49933">
        <ele>1873</ele>
        <time>2017-08-29T07:37:51Z</time>
      </trkpt>
      <trkpt lat="45.91732" lon="6.49931">
        <ele>1873</ele>
        <time>2017-08-29T07:37:52Z</time>
      </trkpt>
      <trkpt lat="45.91732" lon="6.49931">
        <ele>1873</ele>
        <time>2017-08-29T07:37:53Z</time>
      </trkpt>
      <trkpt lat="45.91729" lon="6.4993">
        <ele>1873</ele>
        <time>2017-08-29T07:37:54Z</time>
      </trkpt>
      <trkpt lat="45.91729" lon="6.4993">
        <ele>1874</ele>
        <time>2017-08-29T07:37:55Z</time>
      </trkpt>
      <trkpt lat="45.91727" lon="6.49929">
        <ele>1874</ele>
        <time>2017-08-29T07:37:56Z</time>
      </trkpt>
      <trkpt lat="45.91727" lon="6.49929">
        <ele>1875</ele>
        <time>2017-08-29T07:37:57Z</time>
      </trkpt>
      <trkpt lat="45.91727" lon="6.49929">
        <ele>1875</ele>
        <time>2017-08-29T07:37:58Z</time>
      </trkpt>
      <trkpt lat="45.91724" lon="6.4993">
        <ele>1875</ele>
        <time>2017-08-29T07:37:59Z</time>
      </trkpt>
      <trkpt lat="45.91724" lon="6.4993">
        <ele>1875</ele>
        <time>2017-08-29T07:38:00Z</time>
      </trkpt>
      <trkpt lat="45.91722" lon="6.49929">
        <ele>1875</ele>
        <time>2017-08-29T07:38:01Z</time>
      </trkpt>
      <trkpt lat="45.91721" lon="6.49929">
        <ele>1875</ele>
        <time>2017-08-29T07:38:02Z</time>
      </trkpt>
      <trkpt lat="45.9172" lon="6.49928">
        <ele>1875</ele>
        <time>2017-08-29T07:38:03Z</time>
      </trkpt>
      <trkpt lat="45.91719" lon="6.49928">
        <ele>1876</ele>
        <time>2017-08-29T07:38:04Z</time>
      </trkpt>
      <trkpt lat="45.91719" lon="6.49928">
        <ele>1876</ele>
        <time>2017-08-29T07:38:05Z</time>
      </trkpt>
      <trkpt lat="45.91719" lon="6.49928">
        <ele>1876</ele>
        <time>2017-08-29T07:38:06Z</time>
      </trkpt>
      <trkpt lat="45.91716" lon="6.49927">
        <ele>1876</ele>
        <time>2017-08-29T07:38:07Z</time>
      </trkpt>
      <trkpt lat="45.91716" lon="6.49927">
        <ele>1876</ele>
        <time>2017-08-29T07:38:08Z</time>
      </trkpt>
      <trkpt lat="45.91714" lon="6.49925">
        <ele>1877</ele>
        <time>2017-08-29T07:38:09Z</time>
      </trkpt>
      <trkpt lat="45.91714" lon="6.49925">
        <ele>1878</ele>
        <time>2017-08-29T07:38:10Z</time>
      </trkpt>
      <trkpt lat="45.91712" lon="6.49924">
        <ele>1878</ele>
        <time>2017-08-29T07:38:11Z</time>
      </trkpt>
      <trkpt lat="45.91712" lon="6.49924">
        <ele>1878</ele>
        <time>2017-08-29T07:38:12Z</time>
      </trkpt>
      <trkpt lat="45.91712" lon="6.49924">
        <ele>1878</ele>
        <time>2017-08-29T07:38:13Z</time>
      </trkpt>
      <trkpt lat="45.9171" lon="6.49923">
        <ele>1878</ele>
        <time>2017-08-29T07:38:14Z</time>
      </trkpt>
      <trkpt lat="45.9171" lon="6.49923">
        <ele>1879</ele>
        <time>2017-08-29T07:38:15Z</time>
      </trkpt>
      <trkpt lat="45.91708" lon="6.49921">
        <ele>1879</ele>
        <time>2017-08-29T07:38:16Z</time>
      </trkpt>
      <trkpt lat="45.91708" lon="6.49921">
        <ele>1879</ele>
        <time>2017-08-29T07:38:17Z</time>
      </trkpt>
      <trkpt lat="45.91708" lon="6.49921">
        <ele>1879</ele>
        <time>2017-08-29T07:38:18Z</time>
      </trkpt>
      <trkpt lat="45.91706" lon="6.49919">
        <ele>1879</ele>
        <time>2017-08-29T07:38:19Z</time>
      </trkpt>
      <trkpt lat="45.91706" lon="6.49919">
        <ele>1879</ele>
        <time>2017-08-29T07:38:20Z</time>
      </trkpt>
      <trkpt lat="45.91705" lon="6.49917">
        <ele>1879</ele>
        <time>2017-08-29T07:38:21Z</time>
      </trkpt>
      <trkpt lat="45.91705" lon="6.49917">
        <ele>1880</ele>
        <time>2017-08-29T07:38:22Z</time>
      </trkpt>
      <trkpt lat="45.91703" lon="6.49914">
        <ele>1880</ele>
        <time>2017-08-29T07:38:23Z</time>
      </trkpt>
      <trkpt lat="45.91703" lon="6.49914">
        <ele>1880</ele>
        <time>2017-08-29T07:38:24Z</time>
      </trkpt>
      <trkpt lat="45.91703" lon="6.49914">
        <ele>1880</ele>
        <time>2017-08-29T07:38:25Z</time>
      </trkpt>
      <trkpt lat="45.91701" lon="6.49912">
        <ele>1880</ele>
        <time>2017-08-29T07:38:26Z</time>
      </trkpt>
      <trkpt lat="45.91701" lon="6.49912">
        <ele>1880</ele>
        <time>2017-08-29T07:38:27Z</time>
      </trkpt>
      <trkpt lat="45.91701" lon="6.49912">
        <ele>1881</ele>
        <time>2017-08-29T07:38:28Z</time>
      </trkpt>
      <trkpt lat="45.91701" lon="6.49912">
        <ele>1881</ele>
        <time>2017-08-29T07:38:29Z</time>
      </trkpt>
      <trkpt lat="45.91701" lon="6.49912">
        <ele>1881</ele>
        <time>2017-08-29T07:38:30Z</time>
      </trkpt>
      <trkpt lat="45.91701" lon="6.49912">
        <ele>1882</ele>
        <time>2017-08-29T07:38:31Z</time>
      </trkpt>
      <trkpt lat="45.91699" lon="6.4991">
        <ele>1882</ele>
        <time>2017-08-29T07:38:32Z</time>
      </trkpt>
      <trkpt lat="45.91699" lon="6.4991">
        <ele>1882</ele>
        <time>2017-08-29T07:38:33Z</time>
      </trkpt>
      <trkpt lat="45.91697" lon="6.49908">
        <ele>1882</ele>
        <time>2017-08-29T07:38:34Z</time>
      </trkpt>
      <trkpt lat="45.91697" lon="6.49908">
        <ele>1883</ele>
        <time>2017-08-29T07:38:35Z</time>
      </trkpt>
      <trkpt lat="45.91696" lon="6.49906">
        <ele>1883</ele>
        <time>2017-08-29T07:38:36Z</time>
      </trkpt>
      <trkpt lat="45.91696" lon="6.49906">
        <ele>1883</ele>
        <time>2017-08-29T07:38:37Z</time>
      </trkpt>
      <trkpt lat="45.91694" lon="6.49905">
        <ele>1884</ele>
        <time>2017-08-29T07:38:38Z</time>
      </trkpt>
      <trkpt lat="45.91694" lon="6.49905">
        <ele>1885</ele>
        <time>2017-08-29T07:38:39Z</time>
      </trkpt>
      <trkpt lat="45.91694" lon="6.49905">
        <ele>1885</ele>
        <time>2017-08-29T07:38:40Z</time>
      </trkpt>
      <trkpt lat="45.91691" lon="6.49903">
        <ele>1885</ele>
        <time>2017-08-29T07:38:41Z</time>
      </trkpt>
      <trkpt lat="45.91691" lon="6.49903">
        <ele>1885</ele>
        <time>2017-08-29T07:38:42Z</time>
      </trkpt>
      <trkpt lat="45.9169" lon="6.49901">
        <ele>1885</ele>
        <time>2017-08-29T07:38:43Z</time>
      </trkpt>
      <trkpt lat="45.9169" lon="6.49901">
        <ele>1885</ele>
        <time>2017-08-29T07:38:44Z</time>
      </trkpt>
      <trkpt lat="45.91688" lon="6.49899">
        <ele>1885</ele>
        <time>2017-08-29T07:38:45Z</time>
      </trkpt>
      <trkpt lat="45.91688" lon="6.49899">
        <ele>1885</ele>
        <time>2017-08-29T07:38:46Z</time>
      </trkpt>
      <trkpt lat="45.91688" lon="6.49899">
        <ele>1885</ele>
        <time>2017-08-29T07:38:47Z</time>
      </trkpt>
      <trkpt lat="45.91686" lon="6.499">
        <ele>1885</ele>
        <time>2017-08-29T07:38:48Z</time>
      </trkpt>
      <trkpt lat="45.91686" lon="6.499">
        <ele>1886</ele>
        <time>2017-08-29T07:38:49Z</time>
      </trkpt>
      <trkpt lat="45.91686" lon="6.499">
        <ele>1886</ele>
        <time>2017-08-29T07:38:50Z</time>
      </trkpt>
      <trkpt lat="45.91685" lon="6.49903">
        <ele>1886</ele>
        <time>2017-08-29T07:38:51Z</time>
      </trkpt>
      <trkpt lat="45.91685" lon="6.49904">
        <ele>1886</ele>
        <time>2017-08-29T07:38:52Z</time>
      </trkpt>
      <trkpt lat="45.91686" lon="6.49906">
        <ele>1887</ele>
        <time>2017-08-29T07:38:53Z</time>
      </trkpt>
      <trkpt lat="45.91686" lon="6.49907">
        <ele>1887</ele>
        <time>2017-08-29T07:38:54Z</time>
      </trkpt>
      <trkpt lat="45.91686" lon="6.49909">
        <ele>1887</ele>
        <time>2017-08-29T07:38:55Z</time>
      </trkpt>
      <trkpt lat="45.91686" lon="6.49909">
        <ele>1887</ele>
        <time>2017-08-29T07:38:56Z</time>
      </trkpt>
      <trkpt lat="45.91686" lon="6.49909">
        <ele>1888</ele>
        <time>2017-08-29T07:38:57Z</time>
      </trkpt>
      <trkpt lat="45.91685" lon="6.49912">
        <ele>1888</ele>
        <time>2017-08-29T07:38:58Z</time>
      </trkpt>
      <trkpt lat="45.91685" lon="6.49912">
        <ele>1888</ele>
        <time>2017-08-29T07:38:59Z</time>
      </trkpt>
      <trkpt lat="45.91684" lon="6.49913">
        <ele>1888</ele>
        <time>2017-08-29T07:39:00Z</time>
      </trkpt>
      <trkpt lat="45.91684" lon="6.49913">
        <ele>1889</ele>
        <time>2017-08-29T07:39:01Z</time>
      </trkpt>
      <trkpt lat="45.91684" lon="6.49913">
        <ele>1889</ele>
        <time>2017-08-29T07:39:02Z</time>
      </trkpt>
      <trkpt lat="45.91683" lon="6.49916">
        <ele>1889</ele>
        <time>2017-08-29T07:39:03Z</time>
      </trkpt>
      <trkpt lat="45.91683" lon="6.49916">
        <ele>1889</ele>
        <time>2017-08-29T07:39:04Z</time>
      </trkpt>
      <trkpt lat="45.91683" lon="6.49916">
        <ele>1889</ele>
        <time>2017-08-29T07:39:05Z</time>
      </trkpt>
      <trkpt lat="45.91683" lon="6.49919">
        <ele>1890</ele>
        <time>2017-08-29T07:39:06Z</time>
      </trkpt>
      <trkpt lat="45.91683" lon="6.49919">
        <ele>1890</ele>
        <time>2017-08-29T07:39:07Z</time>
      </trkpt>
      <trkpt lat="45.91683" lon="6.49919">
        <ele>1891</ele>
        <time>2017-08-29T07:39:08Z</time>
      </trkpt>
      <trkpt lat="45.91684" lon="6.49923">
        <ele>1891</ele>
        <time>2017-08-29T07:39:09Z</time>
      </trkpt>
      <trkpt lat="45.91684" lon="6.49923">
        <ele>1891</ele>
        <time>2017-08-29T07:39:10Z</time>
      </trkpt>
      <trkpt lat="45.91684" lon="6.49923">
        <ele>1891</ele>
        <time>2017-08-29T07:39:11Z</time>
      </trkpt>
      <trkpt lat="45.91686" lon="6.49926">
        <ele>1892</ele>
        <time>2017-08-29T07:39:12Z</time>
      </trkpt>
      <trkpt lat="45.91686" lon="6.49926">
        <ele>1892</ele>
        <time>2017-08-29T07:39:13Z</time>
      </trkpt>
      <trkpt lat="45.91686" lon="6.49926">
        <ele>1892</ele>
        <time>2017-08-29T07:39:14Z</time>
      </trkpt>
      <trkpt lat="45.91685" lon="6.4993">
        <ele>1893</ele>
        <time>2017-08-29T07:39:15Z</time>
      </trkpt>
      <trkpt lat="45.91685" lon="6.4993">
        <ele>1893</ele>
        <time>2017-08-29T07:39:16Z</time>
      </trkpt>
      <trkpt lat="45.91685" lon="6.4993">
        <ele>1893</ele>
        <time>2017-08-29T07:39:17Z</time>
      </trkpt>
      <trkpt lat="45.91685" lon="6.4993">
        <ele>1893</ele>
        <time>2017-08-29T07:39:18Z</time>
      </trkpt>
      <trkpt lat="45.91685" lon="6.4993">
        <ele>1893</ele>
        <time>2017-08-29T07:39:19Z</time>
      </trkpt>
      <trkpt lat="45.91685" lon="6.49935">
        <ele>1894</ele>
        <time>2017-08-29T07:39:20Z</time>
      </trkpt>
      <trkpt lat="45.91684" lon="6.49935">
        <ele>1894</ele>
        <time>2017-08-29T07:39:21Z</time>
      </trkpt>
      <trkpt lat="45.91684" lon="6.49936">
        <ele>1894</ele>
        <time>2017-08-29T07:39:22Z</time>
      </trkpt>
      <trkpt lat="45.91684" lon="6.49937">
        <ele>1895</ele>
        <time>2017-08-29T07:39:23Z</time>
      </trkpt>
      <trkpt lat="45.91684" lon="6.49938">
        <ele>1895</ele>
        <time>2017-08-29T07:39:24Z</time>
      </trkpt>
      <trkpt lat="45.91683" lon="6.49939">
        <ele>1895</ele>
        <time>2017-08-29T07:39:25Z</time>
      </trkpt>
      <trkpt lat="45.91683" lon="6.49939">
        <ele>1895</ele>
        <time>2017-08-29T07:39:26Z</time>
      </trkpt>
      <trkpt lat="45.91683" lon="6.4994">
        <ele>1896</ele>
        <time>2017-08-29T07:39:27Z</time>
      </trkpt>
      <trkpt lat="45.91683" lon="6.49941">
        <ele>1896</ele>
        <time>2017-08-29T07:39:28Z</time>
      </trkpt>
      <trkpt lat="45.91682" lon="6.49942">
        <ele>1897</ele>
        <time>2017-08-29T07:39:29Z</time>
      </trkpt>
      <trkpt lat="45.91682" lon="6.49942">
        <ele>1897</ele>
        <time>2017-08-29T07:39:30Z</time>
      </trkpt>
      <trkpt lat="45.91682" lon="6.49942">
        <ele>1897</ele>
        <time>2017-08-29T07:39:31Z</time>
      </trkpt>
      <trkpt lat="45.91681" lon="6.49945">
        <ele>1897</ele>
        <time>2017-08-29T07:39:32Z</time>
      </trkpt>
      <trkpt lat="45.91681" lon="6.49945">
        <ele>1897</ele>
        <time>2017-08-29T07:39:33Z</time>
      </trkpt>
      <trkpt lat="45.91681" lon="6.49945">
        <ele>1897</ele>
        <time>2017-08-29T07:39:34Z</time>
      </trkpt>
      <trkpt lat="45.91679" lon="6.49946">
        <ele>1898</ele>
        <time>2017-08-29T07:39:35Z</time>
      </trkpt>
      <trkpt lat="45.91679" lon="6.49946">
        <ele>1898</ele>
        <time>2017-08-29T07:39:36Z</time>
      </trkpt>
      <trkpt lat="45.91679" lon="6.49946">
        <ele>1898</ele>
        <time>2017-08-29T07:39:37Z</time>
      </trkpt>
      <trkpt lat="45.91679" lon="6.49946">
        <ele>1899</ele>
        <time>2017-08-29T07:39:38Z</time>
      </trkpt>
      <trkpt lat="45.91678" lon="6.49949">
        <ele>1899</ele>
        <time>2017-08-29T07:39:39Z</time>
      </trkpt>
      <trkpt lat="45.91678" lon="6.49949">
        <ele>1899</ele>
        <time>2017-08-29T07:39:40Z</time>
      </trkpt>
      <trkpt lat="45.91678" lon="6.49949">
        <ele>1899</ele>
        <time>2017-08-29T07:39:41Z</time>
      </trkpt>
      <trkpt lat="45.91678" lon="6.49949">
        <ele>1899</ele>
        <time>2017-08-29T07:39:42Z</time>
      </trkpt>
      <trkpt lat="45.91676" lon="6.49951">
        <ele>1900</ele>
        <time>2017-08-29T07:39:43Z</time>
      </trkpt>
      <trkpt lat="45.91676" lon="6.49951">
        <ele>1901</ele>
        <time>2017-08-29T07:39:44Z</time>
      </trkpt>
      <trkpt lat="45.91676" lon="6.49951">
        <ele>1901</ele>
        <time>2017-08-29T07:39:45Z</time>
      </trkpt>
      <trkpt lat="45.91676" lon="6.49951">
        <ele>1901</ele>
        <time>2017-08-29T07:39:46Z</time>
      </trkpt>
      <trkpt lat="45.91675" lon="6.49956">
        <ele>1901</ele>
        <time>2017-08-29T07:39:47Z</time>
      </trkpt>
      <trkpt lat="45.91675" lon="6.49956">
        <ele>1901</ele>
        <time>2017-08-29T07:39:48Z</time>
      </trkpt>
      <trkpt lat="45.91675" lon="6.49956">
        <ele>1901</ele>
        <time>2017-08-29T07:39:49Z</time>
      </trkpt>
      <trkpt lat="45.91674" lon="6.49958">
        <ele>1901</ele>
        <time>2017-08-29T07:39:50Z</time>
      </trkpt>
      <trkpt lat="45.91674" lon="6.49958">
        <ele>1901</ele>
        <time>2017-08-29T07:39:51Z</time>
      </trkpt>
      <trkpt lat="45.91674" lon="6.49958">
        <ele>1902</ele>
        <time>2017-08-29T07:39:52Z</time>
      </trkpt>
      <trkpt lat="45.91674" lon="6.49958">
        <ele>1902</ele>
        <time>2017-08-29T07:39:53Z</time>
      </trkpt>
      <trkpt lat="45.91672" lon="6.4996">
        <ele>1902</ele>
        <time>2017-08-29T07:39:54Z</time>
      </trkpt>
      <trkpt lat="45.91672" lon="6.4996">
        <ele>1903</ele>
        <time>2017-08-29T07:39:55Z</time>
      </trkpt>
      <trkpt lat="45.91672" lon="6.4996">
        <ele>1903</ele>
        <time>2017-08-29T07:39:56Z</time>
      </trkpt>
      <trkpt lat="45.91672" lon="6.49963">
        <ele>1904</ele>
        <time>2017-08-29T07:39:57Z</time>
      </trkpt>
      <trkpt lat="45.91672" lon="6.49963">
        <ele>1904</ele>
        <time>2017-08-29T07:39:58Z</time>
      </trkpt>
      <trkpt lat="45.91671" lon="6.49965">
        <ele>1904</ele>
        <time>2017-08-29T07:39:59Z</time>
      </trkpt>
      <trkpt lat="45.91671" lon="6.49965">
        <ele>1904</ele>
        <time>2017-08-29T07:40:00Z</time>
      </trkpt>
      <trkpt lat="45.9167" lon="6.49968">
        <ele>1904</ele>
        <time>2017-08-29T07:40:01Z</time>
      </trkpt>
      <trkpt lat="45.9167" lon="6.49968">
        <ele>1904</ele>
        <time>2017-08-29T07:40:02Z</time>
      </trkpt>
      <trkpt lat="45.9167" lon="6.49968">
        <ele>1904</ele>
        <time>2017-08-29T07:40:03Z</time>
      </trkpt>
      <trkpt lat="45.9167" lon="6.49971">
        <ele>1904</ele>
        <time>2017-08-29T07:40:04Z</time>
      </trkpt>
      <trkpt lat="45.9167" lon="6.49971">
        <ele>1904</ele>
        <time>2017-08-29T07:40:05Z</time>
      </trkpt>
      <trkpt lat="45.91671" lon="6.49974">
        <ele>1904</ele>
        <time>2017-08-29T07:40:06Z</time>
      </trkpt>
      <trkpt lat="45.91671" lon="6.49974">
        <ele>1905</ele>
        <time>2017-08-29T07:40:07Z</time>
      </trkpt>
      <trkpt lat="45.91671" lon="6.49974">
        <ele>1906</ele>
        <time>2017-08-29T07:40:08Z</time>
      </trkpt>
      <trkpt lat="45.91672" lon="6.49978">
        <ele>1906</ele>
        <time>2017-08-29T07:40:09Z</time>
      </trkpt>
      <trkpt lat="45.91672" lon="6.49978">
        <ele>1906</ele>
        <time>2017-08-29T07:40:10Z</time>
      </trkpt>
      <trkpt lat="45.91672" lon="6.49982">
        <ele>1906</ele>
        <time>2017-08-29T07:40:11Z</time>
      </trkpt>
      <trkpt lat="45.91672" lon="6.49985">
        <ele>1906</ele>
        <time>2017-08-29T07:40:12Z</time>
      </trkpt>
      <trkpt lat="45.91672" lon="6.49987">
        <ele>1906</ele>
        <time>2017-08-29T07:40:13Z</time>
      </trkpt>
      <trkpt lat="45.91673" lon="6.49989">
        <ele>1907</ele>
        <time>2017-08-29T07:40:14Z</time>
      </trkpt>
      <trkpt lat="45.91673" lon="6.49991">
        <ele>1907</ele>
        <time>2017-08-29T07:40:15Z</time>
      </trkpt>
      <trkpt lat="45.91673" lon="6.49993">
        <ele>1908</ele>
        <time>2017-08-29T07:40:16Z</time>
      </trkpt>
      <trkpt lat="45.91673" lon="6.49993">
        <ele>1908</ele>
        <time>2017-08-29T07:40:17Z</time>
      </trkpt>
      <trkpt lat="45.91674" lon="6.49996">
        <ele>1909</ele>
        <time>2017-08-29T07:40:18Z</time>
      </trkpt>
      <trkpt lat="45.91675" lon="6.49998">
        <ele>1909</ele>
        <time>2017-08-29T07:40:19Z</time>
      </trkpt>
      <trkpt lat="45.91675" lon="6.49999">
        <ele>1909</ele>
        <time>2017-08-29T07:40:20Z</time>
      </trkpt>
      <trkpt lat="45.91675" lon="6.5">
        <ele>1909</ele>
        <time>2017-08-29T07:40:21Z</time>
      </trkpt>
      <trkpt lat="45.91675" lon="6.50002">
        <ele>1909</ele>
        <time>2017-08-29T07:40:22Z</time>
      </trkpt>
      <trkpt lat="45.91675" lon="6.50003">
        <ele>1909</ele>
        <time>2017-08-29T07:40:23Z</time>
      </trkpt>
      <trkpt lat="45.91675" lon="6.50003">
        <ele>1910</ele>
        <time>2017-08-29T07:40:24Z</time>
      </trkpt>
      <trkpt lat="45.91675" lon="6.50006">
        <ele>1910</ele>
        <time>2017-08-29T07:40:25Z</time>
      </trkpt>
      <trkpt lat="45.91675" lon="6.50006">
        <ele>1911</ele>
        <time>2017-08-29T07:40:26Z</time>
      </trkpt>
      <trkpt lat="45.91675" lon="6.50006">
        <ele>1911</ele>
        <time>2017-08-29T07:40:27Z</time>
      </trkpt>
      <trkpt lat="45.91675" lon="6.50009">
        <ele>1911</ele>
        <time>2017-08-29T07:40:28Z</time>
      </trkpt>
      <trkpt lat="45.91675" lon="6.50009">
        <ele>1911</ele>
        <time>2017-08-29T07:40:29Z</time>
      </trkpt>
      <trkpt lat="45.91675" lon="6.50009">
        <ele>1911</ele>
        <time>2017-08-29T07:40:30Z</time>
      </trkpt>
      <trkpt lat="45.91675" lon="6.50013">
        <ele>1911</ele>
        <time>2017-08-29T07:40:31Z</time>
      </trkpt>
      <trkpt lat="45.91675" lon="6.50013">
        <ele>1912</ele>
        <time>2017-08-29T07:40:32Z</time>
      </trkpt>
      <trkpt lat="45.91675" lon="6.50013">
        <ele>1912</ele>
        <time>2017-08-29T07:40:33Z</time>
      </trkpt>
      <trkpt lat="45.91676" lon="6.50016">
        <ele>1912</ele>
        <time>2017-08-29T07:40:34Z</time>
      </trkpt>
      <trkpt lat="45.91676" lon="6.50016">
        <ele>1913</ele>
        <time>2017-08-29T07:40:35Z</time>
      </trkpt>
      <trkpt lat="45.91676" lon="6.50016">
        <ele>1913</ele>
        <time>2017-08-29T07:40:36Z</time>
      </trkpt>
      <trkpt lat="45.91677" lon="6.50018">
        <ele>1913</ele>
        <time>2017-08-29T07:40:37Z</time>
      </trkpt>
      <trkpt lat="45.91677" lon="6.50018">
        <ele>1913</ele>
        <time>2017-08-29T07:40:38Z</time>
      </trkpt>
      <trkpt lat="45.91677" lon="6.50018">
        <ele>1913</ele>
        <time>2017-08-29T07:40:39Z</time>
      </trkpt>
      <trkpt lat="45.91678" lon="6.50022">
        <ele>1914</ele>
        <time>2017-08-29T07:40:40Z</time>
      </trkpt>
      <trkpt lat="45.91678" lon="6.50022">
        <ele>1914</ele>
        <time>2017-08-29T07:40:41Z</time>
      </trkpt>
      <trkpt lat="45.91678" lon="6.50022">
        <ele>1914</ele>
        <time>2017-08-29T07:40:42Z</time>
      </trkpt>
      <trkpt lat="45.9168" lon="6.50025">
        <ele>1915</ele>
        <time>2017-08-29T07:40:43Z</time>
      </trkpt>
      <trkpt lat="45.9168" lon="6.50025">
        <ele>1915</ele>
        <time>2017-08-29T07:40:44Z</time>
      </trkpt>
      <trkpt lat="45.91681" lon="6.50027">
        <ele>1915</ele>
        <time>2017-08-29T07:40:45Z</time>
      </trkpt>
      <trkpt lat="45.91681" lon="6.50027">
        <ele>1915</ele>
        <time>2017-08-29T07:40:46Z</time>
      </trkpt>
      <trkpt lat="45.91681" lon="6.5003">
        <ele>1915</ele>
        <time>2017-08-29T07:40:47Z</time>
      </trkpt>
      <trkpt lat="45.91681" lon="6.5003">
        <ele>1916</ele>
        <time>2017-08-29T07:40:48Z</time>
      </trkpt>
      <trkpt lat="45.91682" lon="6.50032">
        <ele>1916</ele>
        <time>2017-08-29T07:40:49Z</time>
      </trkpt>
      <trkpt lat="45.91682" lon="6.50032">
        <ele>1917</ele>
        <time>2017-08-29T07:40:50Z</time>
      </trkpt>
      <trkpt lat="45.91682" lon="6.50032">
        <ele>1917</ele>
        <time>2017-08-29T07:40:51Z</time>
      </trkpt>
      <trkpt lat="45.91683" lon="6.50037">
        <ele>1917</ele>
        <time>2017-08-29T07:40:52Z</time>
      </trkpt>
      <trkpt lat="45.91683" lon="6.50037">
        <ele>1917</ele>
        <time>2017-08-29T07:40:53Z</time>
      </trkpt>
      <trkpt lat="45.91683" lon="6.5004">
        <ele>1918</ele>
        <time>2017-08-29T07:40:54Z</time>
      </trkpt>
      <trkpt lat="45.91683" lon="6.5004">
        <ele>1918</ele>
        <time>2017-08-29T07:40:55Z</time>
      </trkpt>
      <trkpt lat="45.91684" lon="6.50043">
        <ele>1918</ele>
        <time>2017-08-29T07:40:56Z</time>
      </trkpt>
      <trkpt lat="45.91684" lon="6.50043">
        <ele>1919</ele>
        <time>2017-08-29T07:40:57Z</time>
      </trkpt>
      <trkpt lat="45.91685" lon="6.50046">
        <ele>1919</ele>
        <time>2017-08-29T07:40:58Z</time>
      </trkpt>
      <trkpt lat="45.91685" lon="6.50046">
        <ele>1919</ele>
        <time>2017-08-29T07:40:59Z</time>
      </trkpt>
      <trkpt lat="45.91686" lon="6.50048">
        <ele>1919</ele>
        <time>2017-08-29T07:41:00Z</time>
      </trkpt>
      <trkpt lat="45.91686" lon="6.50048">
        <ele>1919</ele>
        <time>2017-08-29T07:41:01Z</time>
      </trkpt>
      <trkpt lat="45.91687" lon="6.50051">
        <ele>1919</ele>
        <time>2017-08-29T07:41:02Z</time>
      </trkpt>
      <trkpt lat="45.91687" lon="6.50051">
        <ele>1919</ele>
        <time>2017-08-29T07:41:03Z</time>
      </trkpt>
      <trkpt lat="45.91687" lon="6.50051">
        <ele>1919</ele>
        <time>2017-08-29T07:41:04Z</time>
      </trkpt>
      <trkpt lat="45.91688" lon="6.50054">
        <ele>1920</ele>
        <time>2017-08-29T07:41:05Z</time>
      </trkpt>
      <trkpt lat="45.91688" lon="6.50054">
        <ele>1920</ele>
        <time>2017-08-29T07:41:06Z</time>
      </trkpt>
      <trkpt lat="45.91688" lon="6.50054">
        <ele>1920</ele>
        <time>2017-08-29T07:41:07Z</time>
      </trkpt>
      <trkpt lat="45.91688" lon="6.50056">
        <ele>1921</ele>
        <time>2017-08-29T07:41:08Z</time>
      </trkpt>
      <trkpt lat="45.91688" lon="6.50056">
        <ele>1921</ele>
        <time>2017-08-29T07:41:09Z</time>
      </trkpt>
      <trkpt lat="45.91688" lon="6.50056">
        <ele>1921</ele>
        <time>2017-08-29T07:41:10Z</time>
      </trkpt>
      <trkpt lat="45.91688" lon="6.50056">
        <ele>1922</ele>
        <time>2017-08-29T07:41:11Z</time>
      </trkpt>
      <trkpt lat="45.9169" lon="6.50059">
        <ele>1922</ele>
        <time>2017-08-29T07:41:12Z</time>
      </trkpt>
      <trkpt lat="45.9169" lon="6.50059">
        <ele>1922</ele>
        <time>2017-08-29T07:41:13Z</time>
      </trkpt>
      <trkpt lat="45.9169" lon="6.50059">
        <ele>1922</ele>
        <time>2017-08-29T07:41:14Z</time>
      </trkpt>
      <trkpt lat="45.9169" lon="6.50059">
        <ele>1923</ele>
        <time>2017-08-29T07:41:15Z</time>
      </trkpt>
      <trkpt lat="45.91692" lon="6.50061">
        <ele>1923</ele>
        <time>2017-08-29T07:41:16Z</time>
      </trkpt>
      <trkpt lat="45.91692" lon="6.50061">
        <ele>1923</ele>
        <time>2017-08-29T07:41:17Z</time>
      </trkpt>
      <trkpt lat="45.91692" lon="6.50061">
        <ele>1924</ele>
        <time>2017-08-29T07:41:18Z</time>
      </trkpt>
      <trkpt lat="45.91693" lon="6.50063">
        <ele>1924</ele>
        <time>2017-08-29T07:41:19Z</time>
      </trkpt>
      <trkpt lat="45.91693" lon="6.50063">
        <ele>1924</ele>
        <time>2017-08-29T07:41:20Z</time>
      </trkpt>
      <trkpt lat="45.91693" lon="6.50063">
        <ele>1924</ele>
        <time>2017-08-29T07:41:21Z</time>
      </trkpt>
      <trkpt lat="45.91693" lon="6.50063">
        <ele>1925</ele>
        <time>2017-08-29T07:41:22Z</time>
      </trkpt>
      <trkpt lat="45.91694" lon="6.50066">
        <ele>1925</ele>
        <time>2017-08-29T07:41:23Z</time>
      </trkpt>
      <trkpt lat="45.91694" lon="6.50066">
        <ele>1925</ele>
        <time>2017-08-29T07:41:24Z</time>
      </trkpt>
      <trkpt lat="45.91694" lon="6.50066">
        <ele>1925</ele>
        <time>2017-08-29T07:41:25Z</time>
      </trkpt>
      <trkpt lat="45.91696" lon="6.50066">
        <ele>1925</ele>
        <time>2017-08-29T07:41:26Z</time>
      </trkpt>
      <trkpt lat="45.91696" lon="6.50066">
        <ele>1925</ele>
        <time>2017-08-29T07:41:27Z</time>
      </trkpt>
      <trkpt lat="45.91696" lon="6.50066">
        <ele>1926</ele>
        <time>2017-08-29T07:41:28Z</time>
      </trkpt>
      <trkpt lat="45.91698" lon="6.50066">
        <ele>1926</ele>
        <time>2017-08-29T07:41:29Z</time>
      </trkpt>
      <trkpt lat="45.91698" lon="6.50066">
        <ele>1926</ele>
        <time>2017-08-29T07:41:30Z</time>
      </trkpt>
      <trkpt lat="45.917" lon="6.50067">
        <ele>1926</ele>
        <time>2017-08-29T07:41:31Z</time>
      </trkpt>
      <trkpt lat="45.917" lon="6.50067">
        <ele>1926</ele>
        <time>2017-08-29T07:41:32Z</time>
      </trkpt>
      <trkpt lat="45.917" lon="6.50067">
        <ele>1926</ele>
        <time>2017-08-29T07:41:33Z</time>
      </trkpt>
      <trkpt lat="45.91702" lon="6.5007">
        <ele>1927</ele>
        <time>2017-08-29T07:41:34Z</time>
      </trkpt>
      <trkpt lat="45.91702" lon="6.5007">
        <ele>1927</ele>
        <time>2017-08-29T07:41:35Z</time>
      </trkpt>
      <trkpt lat="45.91704" lon="6.50072">
        <ele>1927</ele>
        <time>2017-08-29T07:41:36Z</time>
      </trkpt>
      <trkpt lat="45.91704" lon="6.50072">
        <ele>1927</ele>
        <time>2017-08-29T07:41:37Z</time>
      </trkpt>
      <trkpt lat="45.91704" lon="6.50072">
        <ele>1928</ele>
        <time>2017-08-29T07:41:38Z</time>
      </trkpt>
      <trkpt lat="45.91704" lon="6.50072">
        <ele>1928</ele>
        <time>2017-08-29T07:41:39Z</time>
      </trkpt>
      <trkpt lat="45.91704" lon="6.50072">
        <ele>1928</ele>
        <time>2017-08-29T07:41:40Z</time>
      </trkpt>
      <trkpt lat="45.91705" lon="6.50073">
        <ele>1928</ele>
        <time>2017-08-29T07:41:41Z</time>
      </trkpt>
      <trkpt lat="45.91705" lon="6.50073">
        <ele>1928</ele>
        <time>2017-08-29T07:41:42Z</time>
      </trkpt>
      <trkpt lat="45.91705" lon="6.50073">
        <ele>1929</ele>
        <time>2017-08-29T07:41:43Z</time>
      </trkpt>
      <trkpt lat="45.91708" lon="6.50075">
        <ele>1929</ele>
        <time>2017-08-29T07:41:44Z</time>
      </trkpt>
      <trkpt lat="45.91708" lon="6.50075">
        <ele>1930</ele>
        <time>2017-08-29T07:41:45Z</time>
      </trkpt>
      <trkpt lat="45.91708" lon="6.50075">
        <ele>1930</ele>
        <time>2017-08-29T07:41:46Z</time>
      </trkpt>
      <trkpt lat="45.9171" lon="6.50077">
        <ele>1930</ele>
        <time>2017-08-29T07:41:47Z</time>
      </trkpt>
      <trkpt lat="45.9171" lon="6.50077">
        <ele>1930</ele>
        <time>2017-08-29T07:41:48Z</time>
      </trkpt>
      <trkpt lat="45.9171" lon="6.50077">
        <ele>1930</ele>
        <time>2017-08-29T07:41:49Z</time>
      </trkpt>
      <trkpt lat="45.9171" lon="6.50077">
        <ele>1930</ele>
        <time>2017-08-29T07:41:50Z</time>
      </trkpt>
      <trkpt lat="45.91711" lon="6.50079">
        <ele>1930</ele>
        <time>2017-08-29T07:41:51Z</time>
      </trkpt>
      <trkpt lat="45.91711" lon="6.50079">
        <ele>1931</ele>
        <time>2017-08-29T07:41:52Z</time>
      </trkpt>
      <trkpt lat="45.91711" lon="6.50079">
        <ele>1931</ele>
        <time>2017-08-29T07:41:53Z</time>
      </trkpt>
      <trkpt lat="45.91713" lon="6.5008">
        <ele>1931</ele>
        <time>2017-08-29T07:41:54Z</time>
      </trkpt>
      <trkpt lat="45.91713" lon="6.5008">
        <ele>1931</ele>
        <time>2017-08-29T07:41:55Z</time>
      </trkpt>
      <trkpt lat="45.91715" lon="6.50082">
        <ele>1931</ele>
        <time>2017-08-29T07:41:56Z</time>
      </trkpt>
      <trkpt lat="45.91715" lon="6.50082">
        <ele>1932</ele>
        <time>2017-08-29T07:41:57Z</time>
      </trkpt>
      <trkpt lat="45.91716" lon="6.50084">
        <ele>1932</ele>
        <time>2017-08-29T07:41:58Z</time>
      </trkpt>
      <trkpt lat="45.91716" lon="6.50084">
        <ele>1932</ele>
        <time>2017-08-29T07:41:59Z</time>
      </trkpt>
      <trkpt lat="45.91717" lon="6.50087">
        <ele>1933</ele>
        <time>2017-08-29T07:42:00Z</time>
      </trkpt>
      <trkpt lat="45.91717" lon="6.50087">
        <ele>1933</ele>
        <time>2017-08-29T07:42:01Z</time>
      </trkpt>
      <trkpt lat="45.91717" lon="6.50087">
        <ele>1933</ele>
        <time>2017-08-29T07:42:02Z</time>
      </trkpt>
      <trkpt lat="45.91717" lon="6.50087">
        <ele>1933</ele>
        <time>2017-08-29T07:42:03Z</time>
      </trkpt>
      <trkpt lat="45.91717" lon="6.50087">
        <ele>1933</ele>
        <time>2017-08-29T07:42:04Z</time>
      </trkpt>
      <trkpt lat="45.91715" lon="6.50088">
        <ele>1933</ele>
        <time>2017-08-29T07:42:05Z</time>
      </trkpt>
      <trkpt lat="45.91715" lon="6.50088">
        <ele>1934</ele>
        <time>2017-08-29T07:42:06Z</time>
      </trkpt>
      <trkpt lat="45.91715" lon="6.50088">
        <ele>1934</ele>
        <time>2017-08-29T07:42:07Z</time>
      </trkpt>
      <trkpt lat="45.91715" lon="6.50088">
        <ele>1935</ele>
        <time>2017-08-29T07:42:08Z</time>
      </trkpt>
      <trkpt lat="45.91713" lon="6.50089">
        <ele>1935</ele>
        <time>2017-08-29T07:42:09Z</time>
      </trkpt>
      <trkpt lat="45.91713" lon="6.50089">
        <ele>1935</ele>
        <time>2017-08-29T07:42:10Z</time>
      </trkpt>
      <trkpt lat="45.91713" lon="6.50089">
        <ele>1935</ele>
        <time>2017-08-29T07:42:11Z</time>
      </trkpt>
      <trkpt lat="45.9171" lon="6.50088">
        <ele>1936</ele>
        <time>2017-08-29T07:42:12Z</time>
      </trkpt>
      <trkpt lat="45.9171" lon="6.50088">
        <ele>1936</ele>
        <time>2017-08-29T07:42:13Z</time>
      </trkpt>
      <trkpt lat="45.9171" lon="6.50088">
        <ele>1936</ele>
        <time>2017-08-29T07:42:14Z</time>
      </trkpt>
      <trkpt lat="45.9171" lon="6.50088">
        <ele>1937</ele>
        <time>2017-08-29T07:42:15Z</time>
      </trkpt>
      <trkpt lat="45.9171" lon="6.50088">
        <ele>1937</ele>
        <time>2017-08-29T07:42:16Z</time>
      </trkpt>
      <trkpt lat="45.91708" lon="6.50089">
        <ele>1937</ele>
        <time>2017-08-29T07:42:17Z</time>
      </trkpt>
      <trkpt lat="45.91708" lon="6.50089">
        <ele>1937</ele>
        <time>2017-08-29T07:42:18Z</time>
      </trkpt>
      <trkpt lat="45.91709" lon="6.50092">
        <ele>1937</ele>
        <time>2017-08-29T07:42:19Z</time>
      </trkpt>
      <trkpt lat="45.91709" lon="6.50092">
        <ele>1937</ele>
        <time>2017-08-29T07:42:20Z</time>
      </trkpt>
      <trkpt lat="45.9171" lon="6.50095">
        <ele>1938</ele>
        <time>2017-08-29T07:42:21Z</time>
      </trkpt>
      <trkpt lat="45.9171" lon="6.50095">
        <ele>1938</ele>
        <time>2017-08-29T07:42:22Z</time>
      </trkpt>
      <trkpt lat="45.91712" lon="6.50097">
        <ele>1938</ele>
        <time>2017-08-29T07:42:23Z</time>
      </trkpt>
      <trkpt lat="45.91712" lon="6.50097">
        <ele>1939</ele>
        <time>2017-08-29T07:42:24Z</time>
      </trkpt>
      <trkpt lat="45.91713" lon="6.501">
        <ele>1939</ele>
        <time>2017-08-29T07:42:25Z</time>
      </trkpt>
      <trkpt lat="45.91713" lon="6.501">
        <ele>1939</ele>
        <time>2017-08-29T07:42:26Z</time>
      </trkpt>
      <trkpt lat="45.91713" lon="6.50103">
        <ele>1939</ele>
        <time>2017-08-29T07:42:27Z</time>
      </trkpt>
      <trkpt lat="45.91713" lon="6.50103">
        <ele>1939</ele>
        <time>2017-08-29T07:42:28Z</time>
      </trkpt>
      <trkpt lat="45.91713" lon="6.50103">
        <ele>1939</ele>
        <time>2017-08-29T07:42:29Z</time>
      </trkpt>
      <trkpt lat="45.9171" lon="6.50103">
        <ele>1939</ele>
        <time>2017-08-29T07:42:30Z</time>
      </trkpt>
      <trkpt lat="45.9171" lon="6.50103">
        <ele>1940</ele>
        <time>2017-08-29T07:42:31Z</time>
      </trkpt>
      <trkpt lat="45.91709" lon="6.50103">
        <ele>1940</ele>
        <time>2017-08-29T07:42:32Z</time>
      </trkpt>
      <trkpt lat="45.91709" lon="6.50103">
        <ele>1941</ele>
        <time>2017-08-29T07:42:33Z</time>
      </trkpt>
      <trkpt lat="45.91709" lon="6.50103">
        <ele>1941</ele>
        <time>2017-08-29T07:42:34Z</time>
      </trkpt>
      <trkpt lat="45.91706" lon="6.50104">
        <ele>1942</ele>
        <time>2017-08-29T07:42:35Z</time>
      </trkpt>
      <trkpt lat="45.91706" lon="6.50104">
        <ele>1943</ele>
        <time>2017-08-29T07:42:36Z</time>
      </trkpt>
      <trkpt lat="45.91706" lon="6.50104">
        <ele>1943</ele>
        <time>2017-08-29T07:42:37Z</time>
      </trkpt>
      <trkpt lat="45.91704" lon="6.50103">
        <ele>1943</ele>
        <time>2017-08-29T07:42:38Z</time>
      </trkpt>
      <trkpt lat="45.91704" lon="6.50103">
        <ele>1943</ele>
        <time>2017-08-29T07:42:39Z</time>
      </trkpt>
      <trkpt lat="45.91702" lon="6.50103">
        <ele>1943</ele>
        <time>2017-08-29T07:42:40Z</time>
      </trkpt>
      <trkpt lat="45.91702" lon="6.50103">
        <ele>1943</ele>
        <time>2017-08-29T07:42:41Z</time>
      </trkpt>
      <trkpt lat="45.91702" lon="6.50103">
        <ele>1943</ele>
        <time>2017-08-29T07:42:42Z</time>
      </trkpt>
      <trkpt lat="45.91701" lon="6.50106">
        <ele>1943</ele>
        <time>2017-08-29T07:42:43Z</time>
      </trkpt>
      <trkpt lat="45.91701" lon="6.50106">
        <ele>1943</ele>
        <time>2017-08-29T07:42:44Z</time>
      </trkpt>
      <trkpt lat="45.91702" lon="6.50109">
        <ele>1944</ele>
        <time>2017-08-29T07:42:45Z</time>
      </trkpt>
      <trkpt lat="45.91702" lon="6.50109">
        <ele>1944</ele>
        <time>2017-08-29T07:42:46Z</time>
      </trkpt>
      <trkpt lat="45.91703" lon="6.50112">
        <ele>1944</ele>
        <time>2017-08-29T07:42:47Z</time>
      </trkpt>
      <trkpt lat="45.91703" lon="6.50112">
        <ele>1945</ele>
        <time>2017-08-29T07:42:48Z</time>
      </trkpt>
      <trkpt lat="45.91703" lon="6.50115">
        <ele>1946</ele>
        <time>2017-08-29T07:42:49Z</time>
      </trkpt>
      <trkpt lat="45.91703" lon="6.50115">
        <ele>1946</ele>
        <time>2017-08-29T07:42:50Z</time>
      </trkpt>
      <trkpt lat="45.91704" lon="6.50118">
        <ele>1946</ele>
        <time>2017-08-29T07:42:51Z</time>
      </trkpt>
      <trkpt lat="45.91704" lon="6.50118">
        <ele>1947</ele>
        <time>2017-08-29T07:42:52Z</time>
      </trkpt>
      <trkpt lat="45.91706" lon="6.5012">
        <ele>1947</ele>
        <time>2017-08-29T07:42:53Z</time>
      </trkpt>
      <trkpt lat="45.91706" lon="6.5012">
        <ele>1947</ele>
        <time>2017-08-29T07:42:54Z</time>
      </trkpt>
      <trkpt lat="45.91707" lon="6.50124">
        <ele>1948</ele>
        <time>2017-08-29T07:42:55Z</time>
      </trkpt>
      <trkpt lat="45.91707" lon="6.50124">
        <ele>1948</ele>
        <time>2017-08-29T07:42:56Z</time>
      </trkpt>
      <trkpt lat="45.91706" lon="6.50127">
        <ele>1948</ele>
        <time>2017-08-29T07:42:57Z</time>
      </trkpt>
      <trkpt lat="45.91706" lon="6.50127">
        <ele>1948</ele>
        <time>2017-08-29T07:42:58Z</time>
      </trkpt>
      <trkpt lat="45.91705" lon="6.50129">
        <ele>1948</ele>
        <time>2017-08-29T07:42:59Z</time>
      </trkpt>
      <trkpt lat="45.91705" lon="6.50129">
        <ele>1949</ele>
        <time>2017-08-29T07:43:00Z</time>
      </trkpt>
      <trkpt lat="45.91703" lon="6.50128">
        <ele>1949</ele>
        <time>2017-08-29T07:43:01Z</time>
      </trkpt>
      <trkpt lat="45.91703" lon="6.50128">
        <ele>1949</ele>
        <time>2017-08-29T07:43:02Z</time>
      </trkpt>
      <trkpt lat="45.91701" lon="6.50126">
        <ele>1949</ele>
        <time>2017-08-29T07:43:03Z</time>
      </trkpt>
      <trkpt lat="45.91701" lon="6.50126">
        <ele>1949</ele>
        <time>2017-08-29T07:43:04Z</time>
      </trkpt>
      <trkpt lat="45.91698" lon="6.50124">
        <ele>1949</ele>
        <time>2017-08-29T07:43:05Z</time>
      </trkpt>
      <trkpt lat="45.91698" lon="6.50124">
        <ele>1949</ele>
        <time>2017-08-29T07:43:06Z</time>
      </trkpt>
      <trkpt lat="45.91696" lon="6.50122">
        <ele>1949</ele>
        <time>2017-08-29T07:43:07Z</time>
      </trkpt>
      <trkpt lat="45.91696" lon="6.50122">
        <ele>1951</ele>
        <time>2017-08-29T07:43:08Z</time>
      </trkpt>
      <trkpt lat="45.91694" lon="6.50122">
        <ele>1951</ele>
        <time>2017-08-29T07:43:09Z</time>
      </trkpt>
      <trkpt lat="45.91694" lon="6.50122">
        <ele>1951</ele>
        <time>2017-08-29T07:43:10Z</time>
      </trkpt>
      <trkpt lat="45.91692" lon="6.50121">
        <ele>1952</ele>
        <time>2017-08-29T07:43:11Z</time>
      </trkpt>
      <trkpt lat="45.91692" lon="6.50121">
        <ele>1952</ele>
        <time>2017-08-29T07:43:12Z</time>
      </trkpt>
      <trkpt lat="45.91692" lon="6.50121">
        <ele>1952</ele>
        <time>2017-08-29T07:43:13Z</time>
      </trkpt>
      <trkpt lat="45.9169" lon="6.50119">
        <ele>1952</ele>
        <time>2017-08-29T07:43:14Z</time>
      </trkpt>
      <trkpt lat="45.9169" lon="6.50119">
        <ele>1953</ele>
        <time>2017-08-29T07:43:15Z</time>
      </trkpt>
      <trkpt lat="45.9169" lon="6.50119">
        <ele>1953</ele>
        <time>2017-08-29T07:43:16Z</time>
      </trkpt>
      <trkpt lat="45.9169" lon="6.50119">
        <ele>1954</ele>
        <time>2017-08-29T07:43:17Z</time>
      </trkpt>
      <trkpt lat="45.91688" lon="6.5012">
        <ele>1954</ele>
        <time>2017-08-29T07:43:18Z</time>
      </trkpt>
      <trkpt lat="45.91688" lon="6.5012">
        <ele>1954</ele>
        <time>2017-08-29T07:43:19Z</time>
      </trkpt>
      <trkpt lat="45.91688" lon="6.5012">
        <ele>1954</ele>
        <time>2017-08-29T07:43:20Z</time>
      </trkpt>
      <trkpt lat="45.91688" lon="6.50123">
        <ele>1954</ele>
        <time>2017-08-29T07:43:21Z</time>
      </trkpt>
      <trkpt lat="45.91688" lon="6.50123">
        <ele>1954</ele>
        <time>2017-08-29T07:43:22Z</time>
      </trkpt>
      <trkpt lat="45.91689" lon="6.50125">
        <ele>1955</ele>
        <time>2017-08-29T07:43:23Z</time>
      </trkpt>
      <trkpt lat="45.91689" lon="6.50125">
        <ele>1955</ele>
        <time>2017-08-29T07:43:24Z</time>
      </trkpt>
      <trkpt lat="45.91689" lon="6.50125">
        <ele>1955</ele>
        <time>2017-08-29T07:43:25Z</time>
      </trkpt>
      <trkpt lat="45.91691" lon="6.50129">
        <ele>1955</ele>
        <time>2017-08-29T07:43:26Z</time>
      </trkpt>
      <trkpt lat="45.91691" lon="6.50129">
        <ele>1955</ele>
        <time>2017-08-29T07:43:27Z</time>
      </trkpt>
      <trkpt lat="45.91692" lon="6.50133">
        <ele>1956</ele>
        <time>2017-08-29T07:43:28Z</time>
      </trkpt>
      <trkpt lat="45.91692" lon="6.50133">
        <ele>1956</ele>
        <time>2017-08-29T07:43:29Z</time>
      </trkpt>
      <trkpt lat="45.91692" lon="6.50135">
        <ele>1957</ele>
        <time>2017-08-29T07:43:30Z</time>
      </trkpt>
      <trkpt lat="45.91692" lon="6.50135">
        <ele>1957</ele>
        <time>2017-08-29T07:43:31Z</time>
      </trkpt>
      <trkpt lat="45.91692" lon="6.50138">
        <ele>1957</ele>
        <time>2017-08-29T07:43:32Z</time>
      </trkpt>
      <trkpt lat="45.91692" lon="6.50138">
        <ele>1958</ele>
        <time>2017-08-29T07:43:33Z</time>
      </trkpt>
      <trkpt lat="45.91692" lon="6.50141">
        <ele>1958</ele>
        <time>2017-08-29T07:43:34Z</time>
      </trkpt>
      <trkpt lat="45.91692" lon="6.50141">
        <ele>1958</ele>
        <time>2017-08-29T07:43:35Z</time>
      </trkpt>
      <trkpt lat="45.91692" lon="6.50144">
        <ele>1959</ele>
        <time>2017-08-29T07:43:36Z</time>
      </trkpt>
      <trkpt lat="45.91692" lon="6.50144">
        <ele>1959</ele>
        <time>2017-08-29T07:43:37Z</time>
      </trkpt>
      <trkpt lat="45.91692" lon="6.50144">
        <ele>1960</ele>
        <time>2017-08-29T07:43:38Z</time>
      </trkpt>
      <trkpt lat="45.91692" lon="6.50148">
        <ele>1960</ele>
        <time>2017-08-29T07:43:39Z</time>
      </trkpt>
      <trkpt lat="45.91692" lon="6.50148">
        <ele>1960</ele>
        <time>2017-08-29T07:43:40Z</time>
      </trkpt>
      <trkpt lat="45.91692" lon="6.50148">
        <ele>1960</ele>
        <time>2017-08-29T07:43:41Z</time>
      </trkpt>
      <trkpt lat="45.91692" lon="6.50148">
        <ele>1960</ele>
        <time>2017-08-29T07:43:42Z</time>
      </trkpt>
      <trkpt lat="45.91692" lon="6.50148">
        <ele>1960</ele>
        <time>2017-08-29T07:43:43Z</time>
      </trkpt>
      <trkpt lat="45.91692" lon="6.50148">
        <ele>1960</ele>
        <time>2017-08-29T07:43:44Z</time>
      </trkpt>
      <trkpt lat="45.9169" lon="6.50149">
        <ele>1960</ele>
        <time>2017-08-29T07:43:45Z</time>
      </trkpt>
      <trkpt lat="45.9169" lon="6.50149">
        <ele>1960</ele>
        <time>2017-08-29T07:43:46Z</time>
      </trkpt>
      <trkpt lat="45.9169" lon="6.50149">
        <ele>1960</ele>
        <time>2017-08-29T07:43:47Z</time>
      </trkpt>
      <trkpt lat="45.91688" lon="6.50146">
        <ele>1960</ele>
        <time>2017-08-29T07:43:48Z</time>
      </trkpt>
      <trkpt lat="45.91688" lon="6.50146">
        <ele>1961</ele>
        <time>2017-08-29T07:43:49Z</time>
      </trkpt>
      <trkpt lat="45.91688" lon="6.50146">
        <ele>1962</ele>
        <time>2017-08-29T07:43:50Z</time>
      </trkpt>
      <trkpt lat="45.91687" lon="6.50143">
        <ele>1962</ele>
        <time>2017-08-29T07:43:51Z</time>
      </trkpt>
      <trkpt lat="45.91687" lon="6.50143">
        <ele>1962</ele>
        <time>2017-08-29T07:43:52Z</time>
      </trkpt>
      <trkpt lat="45.91687" lon="6.50143">
        <ele>1962</ele>
        <time>2017-08-29T07:43:53Z</time>
      </trkpt>
      <trkpt lat="45.91685" lon="6.50142">
        <ele>1962</ele>
        <time>2017-08-29T07:43:54Z</time>
      </trkpt>
      <trkpt lat="45.91685" lon="6.50142">
        <ele>1962</ele>
        <time>2017-08-29T07:43:55Z</time>
      </trkpt>
      <trkpt lat="45.91685" lon="6.50142">
        <ele>1963</ele>
        <time>2017-08-29T07:43:56Z</time>
      </trkpt>
      <trkpt lat="45.91683" lon="6.50141">
        <ele>1963</ele>
        <time>2017-08-29T07:43:57Z</time>
      </trkpt>
      <trkpt lat="45.91683" lon="6.50141">
        <ele>1963</ele>
        <time>2017-08-29T07:43:58Z</time>
      </trkpt>
      <trkpt lat="45.91683" lon="6.50141">
        <ele>1964</ele>
        <time>2017-08-29T07:43:59Z</time>
      </trkpt>
      <trkpt lat="45.91681" lon="6.50142">
        <ele>1964</ele>
        <time>2017-08-29T07:44:00Z</time>
      </trkpt>
      <trkpt lat="45.91681" lon="6.50142">
        <ele>1964</ele>
        <time>2017-08-29T07:44:01Z</time>
      </trkpt>
      <trkpt lat="45.91681" lon="6.50142">
        <ele>1964</ele>
        <time>2017-08-29T07:44:02Z</time>
      </trkpt>
      <trkpt lat="45.91679" lon="6.50142">
        <ele>1964</ele>
        <time>2017-08-29T07:44:03Z</time>
      </trkpt>
      <trkpt lat="45.91679" lon="6.50142">
        <ele>1965</ele>
        <time>2017-08-29T07:44:04Z</time>
      </trkpt>
      <trkpt lat="45.91679" lon="6.50142">
        <ele>1965</ele>
        <time>2017-08-29T07:44:05Z</time>
      </trkpt>
      <trkpt lat="45.91679" lon="6.50142">
        <ele>1965</ele>
        <time>2017-08-29T07:44:06Z</time>
      </trkpt>
      <trkpt lat="45.91679" lon="6.50142">
        <ele>1965</ele>
        <time>2017-08-29T07:44:07Z</time>
      </trkpt>
      <trkpt lat="45.91677" lon="6.50144">
        <ele>1965</ele>
        <time>2017-08-29T07:44:08Z</time>
      </trkpt>
      <trkpt lat="45.91677" lon="6.50144">
        <ele>1965</ele>
        <time>2017-08-29T07:44:09Z</time>
      </trkpt>
      <trkpt lat="45.91675" lon="6.50145">
        <ele>1966</ele>
        <time>2017-08-29T07:44:10Z</time>
      </trkpt>
      <trkpt lat="45.91675" lon="6.50145">
        <ele>1966</ele>
        <time>2017-08-29T07:44:11Z</time>
      </trkpt>
      <trkpt lat="45.91675" lon="6.50145">
        <ele>1966</ele>
        <time>2017-08-29T07:44:12Z</time>
      </trkpt>
      <trkpt lat="45.91673" lon="6.50146">
        <ele>1966</ele>
        <time>2017-08-29T07:44:13Z</time>
      </trkpt>
      <trkpt lat="45.91673" lon="6.50146">
        <ele>1966</ele>
        <time>2017-08-29T07:44:14Z</time>
      </trkpt>
      <trkpt lat="45.91673" lon="6.50146">
        <ele>1966</ele>
        <time>2017-08-29T07:44:15Z</time>
      </trkpt>
      <trkpt lat="45.9167" lon="6.50145">
        <ele>1967</ele>
        <time>2017-08-29T07:44:16Z</time>
      </trkpt>
      <trkpt lat="45.9167" lon="6.50145">
        <ele>1967</ele>
        <time>2017-08-29T07:44:17Z</time>
      </trkpt>
      <trkpt lat="45.91668" lon="6.50144">
        <ele>1968</ele>
        <time>2017-08-29T07:44:18Z</time>
      </trkpt>
      <trkpt lat="45.91668" lon="6.50144">
        <ele>1968</ele>
        <time>2017-08-29T07:44:19Z</time>
      </trkpt>
      <trkpt lat="45.91666" lon="6.50144">
        <ele>1968</ele>
        <time>2017-08-29T07:44:20Z</time>
      </trkpt>
      <trkpt lat="45.91666" lon="6.50144">
        <ele>1968</ele>
        <time>2017-08-29T07:44:21Z</time>
      </trkpt>
      <trkpt lat="45.91666" lon="6.50144">
        <ele>1968</ele>
        <time>2017-08-29T07:44:22Z</time>
      </trkpt>
      <trkpt lat="45.91664" lon="6.50145">
        <ele>1969</ele>
        <time>2017-08-29T07:44:23Z</time>
      </trkpt>
      <trkpt lat="45.91664" lon="6.50145">
        <ele>1969</ele>
        <time>2017-08-29T07:44:24Z</time>
      </trkpt>
      <trkpt lat="45.91664" lon="6.50145">
        <ele>1969</ele>
        <time>2017-08-29T07:44:25Z</time>
      </trkpt>
      <trkpt lat="45.91664" lon="6.50145">
        <ele>1969</ele>
        <time>2017-08-29T07:44:26Z</time>
      </trkpt>
      <trkpt lat="45.91664" lon="6.50148">
        <ele>1970</ele>
        <time>2017-08-29T07:44:27Z</time>
      </trkpt>
      <trkpt lat="45.91664" lon="6.50148">
        <ele>1970</ele>
        <time>2017-08-29T07:44:28Z</time>
      </trkpt>
      <trkpt lat="45.91664" lon="6.5015">
        <ele>1970</ele>
        <time>2017-08-29T07:44:29Z</time>
      </trkpt>
      <trkpt lat="45.91664" lon="6.5015">
        <ele>1970</ele>
        <time>2017-08-29T07:44:30Z</time>
      </trkpt>
      <trkpt lat="45.91664" lon="6.5015">
        <ele>1970</ele>
        <time>2017-08-29T07:44:31Z</time>
      </trkpt>
      <trkpt lat="45.91665" lon="6.50153">
        <ele>1971</ele>
        <time>2017-08-29T07:44:32Z</time>
      </trkpt>
      <trkpt lat="45.91665" lon="6.50153">
        <ele>1971</ele>
        <time>2017-08-29T07:44:33Z</time>
      </trkpt>
      <trkpt lat="45.91665" lon="6.50153">
        <ele>1971</ele>
        <time>2017-08-29T07:44:34Z</time>
      </trkpt>
      <trkpt lat="45.91667" lon="6.50156">
        <ele>1971</ele>
        <time>2017-08-29T07:44:35Z</time>
      </trkpt>
      <trkpt lat="45.91667" lon="6.50156">
        <ele>1971</ele>
        <time>2017-08-29T07:44:36Z</time>
      </trkpt>
      <trkpt lat="45.91668" lon="6.50159">
        <ele>1971</ele>
        <time>2017-08-29T07:44:37Z</time>
      </trkpt>
      <trkpt lat="45.91668" lon="6.50159">
        <ele>1972</ele>
        <time>2017-08-29T07:44:38Z</time>
      </trkpt>
      <trkpt lat="45.91668" lon="6.50159">
        <ele>1972</ele>
        <time>2017-08-29T07:44:39Z</time>
      </trkpt>
      <trkpt lat="45.91669" lon="6.50162">
        <ele>1973</ele>
        <time>2017-08-29T07:44:40Z</time>
      </trkpt>
      <trkpt lat="45.91669" lon="6.50162">
        <ele>1973</ele>
        <time>2017-08-29T07:44:41Z</time>
      </trkpt>
      <trkpt lat="45.9167" lon="6.50165">
        <ele>1974</ele>
        <time>2017-08-29T07:44:42Z</time>
      </trkpt>
      <trkpt lat="45.9167" lon="6.50165">
        <ele>1974</ele>
        <time>2017-08-29T07:44:43Z</time>
      </trkpt>
      <trkpt lat="45.91672" lon="6.50168">
        <ele>1974</ele>
        <time>2017-08-29T07:44:44Z</time>
      </trkpt>
      <trkpt lat="45.91672" lon="6.50168">
        <ele>1974</ele>
        <time>2017-08-29T07:44:45Z</time>
      </trkpt>
      <trkpt lat="45.91673" lon="6.5017">
        <ele>1974</ele>
        <time>2017-08-29T07:44:46Z</time>
      </trkpt>
      <trkpt lat="45.91673" lon="6.5017">
        <ele>1974</ele>
        <time>2017-08-29T07:44:47Z</time>
      </trkpt>
      <trkpt lat="45.91673" lon="6.50173">
        <ele>1975</ele>
        <time>2017-08-29T07:44:48Z</time>
      </trkpt>
      <trkpt lat="45.91673" lon="6.50173">
        <ele>1975</ele>
        <time>2017-08-29T07:44:49Z</time>
      </trkpt>
      <trkpt lat="45.91673" lon="6.50173">
        <ele>1977</ele>
        <time>2017-08-29T07:44:50Z</time>
      </trkpt>
      <trkpt lat="45.91673" lon="6.50173">
        <ele>1977</ele>
        <time>2017-08-29T07:44:51Z</time>
      </trkpt>
      <trkpt lat="45.91673" lon="6.50173">
        <ele>1978</ele>
        <time>2017-08-29T07:44:52Z</time>
      </trkpt>
      <trkpt lat="45.91671" lon="6.50174">
        <ele>1978</ele>
        <time>2017-08-29T07:44:53Z</time>
      </trkpt>
      <trkpt lat="45.91671" lon="6.50174">
        <ele>1978</ele>
        <time>2017-08-29T07:44:54Z</time>
      </trkpt>
      <trkpt lat="45.91669" lon="6.50172">
        <ele>1978</ele>
        <time>2017-08-29T07:44:55Z</time>
      </trkpt>
      <trkpt lat="45.91669" lon="6.50172">
        <ele>1978</ele>
        <time>2017-08-29T07:44:56Z</time>
      </trkpt>
      <trkpt lat="45.91667" lon="6.50171">
        <ele>1978</ele>
        <time>2017-08-29T07:44:57Z</time>
      </trkpt>
      <trkpt lat="45.91667" lon="6.50171">
        <ele>1979</ele>
        <time>2017-08-29T07:44:58Z</time>
      </trkpt>
      <trkpt lat="45.91664" lon="6.50171">
        <ele>1979</ele>
        <time>2017-08-29T07:44:59Z</time>
      </trkpt>
      <trkpt lat="45.91664" lon="6.50171">
        <ele>1979</ele>
        <time>2017-08-29T07:45:00Z</time>
      </trkpt>
      <trkpt lat="45.91662" lon="6.5017">
        <ele>1979</ele>
        <time>2017-08-29T07:45:01Z</time>
      </trkpt>
      <trkpt lat="45.91662" lon="6.5017">
        <ele>1979</ele>
        <time>2017-08-29T07:45:02Z</time>
      </trkpt>
      <trkpt lat="45.9166" lon="6.50169">
        <ele>1979</ele>
        <time>2017-08-29T07:45:03Z</time>
      </trkpt>
      <trkpt lat="45.9166" lon="6.50169">
        <ele>1980</ele>
        <time>2017-08-29T07:45:04Z</time>
      </trkpt>
      <trkpt lat="45.91658" lon="6.50169">
        <ele>1981</ele>
        <time>2017-08-29T07:45:05Z</time>
      </trkpt>
      <trkpt lat="45.91658" lon="6.50169">
        <ele>1981</ele>
        <time>2017-08-29T07:45:06Z</time>
      </trkpt>
      <trkpt lat="45.91658" lon="6.50169">
        <ele>1981</ele>
        <time>2017-08-29T07:45:07Z</time>
      </trkpt>
      <trkpt lat="45.91656" lon="6.50169">
        <ele>1981</ele>
        <time>2017-08-29T07:45:08Z</time>
      </trkpt>
      <trkpt lat="45.91656" lon="6.50169">
        <ele>1982</ele>
        <time>2017-08-29T07:45:09Z</time>
      </trkpt>
      <trkpt lat="45.91656" lon="6.50169">
        <ele>1982</ele>
        <time>2017-08-29T07:45:10Z</time>
      </trkpt>
      <trkpt lat="45.91654" lon="6.5017">
        <ele>1982</ele>
        <time>2017-08-29T07:45:11Z</time>
      </trkpt>
      <trkpt lat="45.91654" lon="6.5017">
        <ele>1982</ele>
        <time>2017-08-29T07:45:12Z</time>
      </trkpt>
      <trkpt lat="45.91654" lon="6.5017">
        <ele>1982</ele>
        <time>2017-08-29T07:45:13Z</time>
      </trkpt>
      <trkpt lat="45.91654" lon="6.5017">
        <ele>1982</ele>
        <time>2017-08-29T07:45:14Z</time>
      </trkpt>
      <trkpt lat="45.91654" lon="6.50175">
        <ele>1983</ele>
        <time>2017-08-29T07:45:15Z</time>
      </trkpt>
      <trkpt lat="45.91654" lon="6.50175">
        <ele>1983</ele>
        <time>2017-08-29T07:45:16Z</time>
      </trkpt>
      <trkpt lat="45.91655" lon="6.50178">
        <ele>1984</ele>
        <time>2017-08-29T07:45:17Z</time>
      </trkpt>
      <trkpt lat="45.91655" lon="6.50178">
        <ele>1984</ele>
        <time>2017-08-29T07:45:18Z</time>
      </trkpt>
      <trkpt lat="45.91657" lon="6.50181">
        <ele>1984</ele>
        <time>2017-08-29T07:45:19Z</time>
      </trkpt>
      <trkpt lat="45.91657" lon="6.50181">
        <ele>1984</ele>
        <time>2017-08-29T07:45:20Z</time>
      </trkpt>
      <trkpt lat="45.91658" lon="6.50183">
        <ele>1984</ele>
        <time>2017-08-29T07:45:21Z</time>
      </trkpt>
      <trkpt lat="45.91658" lon="6.50183">
        <ele>1984</ele>
        <time>2017-08-29T07:45:22Z</time>
      </trkpt>
      <trkpt lat="45.91658" lon="6.50183">
        <ele>1985</ele>
        <time>2017-08-29T07:45:23Z</time>
      </trkpt>
      <trkpt lat="45.91658" lon="6.50183">
        <ele>1985</ele>
        <time>2017-08-29T07:45:24Z</time>
      </trkpt>
      <trkpt lat="45.91658" lon="6.50183">
        <ele>1986</ele>
        <time>2017-08-29T07:45:25Z</time>
      </trkpt>
      <trkpt lat="45.91658" lon="6.50183">
        <ele>1986</ele>
        <time>2017-08-29T07:45:26Z</time>
      </trkpt>
      <trkpt lat="45.91656" lon="6.50183">
        <ele>1986</ele>
        <time>2017-08-29T07:45:27Z</time>
      </trkpt>
      <trkpt lat="45.91656" lon="6.50183">
        <ele>1986</ele>
        <time>2017-08-29T07:45:28Z</time>
      </trkpt>
      <trkpt lat="45.91656" lon="6.50183">
        <ele>1986</ele>
        <time>2017-08-29T07:45:29Z</time>
      </trkpt>
      <trkpt lat="45.91653" lon="6.50182">
        <ele>1986</ele>
        <time>2017-08-29T07:45:30Z</time>
      </trkpt>
      <trkpt lat="45.91653" lon="6.50182">
        <ele>1986</ele>
        <time>2017-08-29T07:45:31Z</time>
      </trkpt>
      <trkpt lat="45.91653" lon="6.50182">
        <ele>1986</ele>
        <time>2017-08-29T07:45:32Z</time>
      </trkpt>
      <trkpt lat="45.91651" lon="6.50181">
        <ele>1986</ele>
        <time>2017-08-29T07:45:33Z</time>
      </trkpt>
      <trkpt lat="45.91651" lon="6.50181">
        <ele>1986</ele>
        <time>2017-08-29T07:45:34Z</time>
      </trkpt>
      <trkpt lat="45.91651" lon="6.50181">
        <ele>1986</ele>
        <time>2017-08-29T07:45:35Z</time>
      </trkpt>
      <trkpt lat="45.91649" lon="6.5018">
        <ele>1986</ele>
        <time>2017-08-29T07:45:36Z</time>
      </trkpt>
      <trkpt lat="45.91649" lon="6.5018">
        <ele>1988</ele>
        <time>2017-08-29T07:45:37Z</time>
      </trkpt>
      <trkpt lat="45.91649" lon="6.5018">
        <ele>1988</ele>
        <time>2017-08-29T07:45:38Z</time>
      </trkpt>
      <trkpt lat="45.91649" lon="6.5018">
        <ele>1989</ele>
        <time>2017-08-29T07:45:39Z</time>
      </trkpt>
      <trkpt lat="45.91649" lon="6.5018">
        <ele>1990</ele>
        <time>2017-08-29T07:45:40Z</time>
      </trkpt>
      <trkpt lat="45.91647" lon="6.50182">
        <ele>1990</ele>
        <time>2017-08-29T07:45:41Z</time>
      </trkpt>
      <trkpt lat="45.91647" lon="6.50182">
        <ele>1990</ele>
        <time>2017-08-29T07:45:42Z</time>
      </trkpt>
      <trkpt lat="45.91647" lon="6.50182">
        <ele>1990</ele>
        <time>2017-08-29T07:45:43Z</time>
      </trkpt>
      <trkpt lat="45.91647" lon="6.50182">
        <ele>1990</ele>
        <time>2017-08-29T07:45:44Z</time>
      </trkpt>
      <trkpt lat="45.91647" lon="6.50185">
        <ele>1990</ele>
        <time>2017-08-29T07:45:45Z</time>
      </trkpt>
      <trkpt lat="45.91647" lon="6.50185">
        <ele>1991</ele>
        <time>2017-08-29T07:45:46Z</time>
      </trkpt>
      <trkpt lat="45.91647" lon="6.50185">
        <ele>1991</ele>
        <time>2017-08-29T07:45:47Z</time>
      </trkpt>
      <trkpt lat="45.91647" lon="6.50189">
        <ele>1992</ele>
        <time>2017-08-29T07:45:48Z</time>
      </trkpt>
      <trkpt lat="45.91647" lon="6.50189">
        <ele>1992</ele>
        <time>2017-08-29T07:45:49Z</time>
      </trkpt>
      <trkpt lat="45.91647" lon="6.50189">
        <ele>1992</ele>
        <time>2017-08-29T07:45:50Z</time>
      </trkpt>
      <trkpt lat="45.91648" lon="6.50193">
        <ele>1992</ele>
        <time>2017-08-29T07:45:51Z</time>
      </trkpt>
      <trkpt lat="45.91648" lon="6.50193">
        <ele>1992</ele>
        <time>2017-08-29T07:45:52Z</time>
      </trkpt>
      <trkpt lat="45.91648" lon="6.50193">
        <ele>1992</ele>
        <time>2017-08-29T07:45:53Z</time>
      </trkpt>
      <trkpt lat="45.91648" lon="6.50197">
        <ele>1993</ele>
        <time>2017-08-29T07:45:54Z</time>
      </trkpt>
      <trkpt lat="45.91648" lon="6.50197">
        <ele>1993</ele>
        <time>2017-08-29T07:45:55Z</time>
      </trkpt>
      <trkpt lat="45.91649" lon="6.502">
        <ele>1994</ele>
        <time>2017-08-29T07:45:56Z</time>
      </trkpt>
      <trkpt lat="45.91649" lon="6.50201">
        <ele>1994</ele>
        <time>2017-08-29T07:45:57Z</time>
      </trkpt>
      <trkpt lat="45.91649" lon="6.50202">
        <ele>1994</ele>
        <time>2017-08-29T07:45:58Z</time>
      </trkpt>
      <trkpt lat="45.91649" lon="6.50203">
        <ele>1994</ele>
        <time>2017-08-29T07:45:59Z</time>
      </trkpt>
      <trkpt lat="45.91649" lon="6.50204">
        <ele>1994</ele>
        <time>2017-08-29T07:46:00Z</time>
      </trkpt>
      <trkpt lat="45.91649" lon="6.50205">
        <ele>1994</ele>
        <time>2017-08-29T07:46:01Z</time>
      </trkpt>
      <trkpt lat="45.91649" lon="6.50206">
        <ele>1994</ele>
        <time>2017-08-29T07:46:02Z</time>
      </trkpt>
      <trkpt lat="45.91649" lon="6.50207">
        <ele>1995</ele>
        <time>2017-08-29T07:46:03Z</time>
      </trkpt>
      <trkpt lat="45.91649" lon="6.50207">
        <ele>1995</ele>
        <time>2017-08-29T07:46:04Z</time>
      </trkpt>
      <trkpt lat="45.91649" lon="6.50207">
        <ele>1996</ele>
        <time>2017-08-29T07:46:05Z</time>
      </trkpt>
      <trkpt lat="45.9165" lon="6.50209">
        <ele>1996</ele>
        <time>2017-08-29T07:46:06Z</time>
      </trkpt>
      <trkpt lat="45.9165" lon="6.50209">
        <ele>1996</ele>
        <time>2017-08-29T07:46:07Z</time>
      </trkpt>
      <trkpt lat="45.9165" lon="6.50209">
        <ele>1997</ele>
        <time>2017-08-29T07:46:08Z</time>
      </trkpt>
      <trkpt lat="45.91651" lon="6.50212">
        <ele>1997</ele>
        <time>2017-08-29T07:46:09Z</time>
      </trkpt>
      <trkpt lat="45.91651" lon="6.50212">
        <ele>1997</ele>
        <time>2017-08-29T07:46:10Z</time>
      </trkpt>
      <trkpt lat="45.91651" lon="6.50212">
        <ele>1997</ele>
        <time>2017-08-29T07:46:11Z</time>
      </trkpt>
      <trkpt lat="45.91651" lon="6.50215">
        <ele>1997</ele>
        <time>2017-08-29T07:46:12Z</time>
      </trkpt>
      <trkpt lat="45.91651" lon="6.50215">
        <ele>1998</ele>
        <time>2017-08-29T07:46:13Z</time>
      </trkpt>
      <trkpt lat="45.91651" lon="6.50218">
        <ele>1998</ele>
        <time>2017-08-29T07:46:14Z</time>
      </trkpt>
      <trkpt lat="45.91651" lon="6.50218">
        <ele>1998</ele>
        <time>2017-08-29T07:46:15Z</time>
      </trkpt>
      <trkpt lat="45.91651" lon="6.50218">
        <ele>1998</ele>
        <time>2017-08-29T07:46:16Z</time>
      </trkpt>
      <trkpt lat="45.91651" lon="6.50221">
        <ele>1998</ele>
        <time>2017-08-29T07:46:17Z</time>
      </trkpt>
      <trkpt lat="45.91651" lon="6.50221">
        <ele>1999</ele>
        <time>2017-08-29T07:46:18Z</time>
      </trkpt>
      <trkpt lat="45.91652" lon="6.50223">
        <ele>1999</ele>
        <time>2017-08-29T07:46:19Z</time>
      </trkpt>
      <trkpt lat="45.91652" lon="6.50223">
        <ele>1999</ele>
        <time>2017-08-29T07:46:20Z</time>
      </trkpt>
      <trkpt lat="45.91652" lon="6.50223">
        <ele>1999</ele>
        <time>2017-08-29T07:46:21Z</time>
      </trkpt>
      <trkpt lat="45.91652" lon="6.50223">
        <ele>1999</ele>
        <time>2017-08-29T07:46:22Z</time>
      </trkpt>
      <trkpt lat="45.91652" lon="6.50227">
        <ele>1999</ele>
        <time>2017-08-29T07:46:23Z</time>
      </trkpt>
      <trkpt lat="45.91652" lon="6.50227">
        <ele>1999</ele>
        <time>2017-08-29T07:46:24Z</time>
      </trkpt>
      <trkpt lat="45.91652" lon="6.50227">
        <ele>2000</ele>
        <time>2017-08-29T07:46:25Z</time>
      </trkpt>
      <trkpt lat="45.91652" lon="6.5023">
        <ele>2000</ele>
        <time>2017-08-29T07:46:26Z</time>
      </trkpt>
      <trkpt lat="45.91652" lon="6.5023">
        <ele>2000</ele>
        <time>2017-08-29T07:46:27Z</time>
      </trkpt>
      <trkpt lat="45.91652" lon="6.5023">
        <ele>2001</ele>
        <time>2017-08-29T07:46:28Z</time>
      </trkpt>
      <trkpt lat="45.91652" lon="6.5023">
        <ele>2001</ele>
        <time>2017-08-29T07:46:29Z</time>
      </trkpt>
      <trkpt lat="45.91652" lon="6.50233">
        <ele>2002</ele>
        <time>2017-08-29T07:46:30Z</time>
      </trkpt>
      <trkpt lat="45.91652" lon="6.50233">
        <ele>2002</ele>
        <time>2017-08-29T07:46:31Z</time>
      </trkpt>
      <trkpt lat="45.91652" lon="6.50233">
        <ele>2002</ele>
        <time>2017-08-29T07:46:32Z</time>
      </trkpt>
      <trkpt lat="45.91652" lon="6.50236">
        <ele>2002</ele>
        <time>2017-08-29T07:46:33Z</time>
      </trkpt>
      <trkpt lat="45.91652" lon="6.50236">
        <ele>2002</ele>
        <time>2017-08-29T07:46:34Z</time>
      </trkpt>
      <trkpt lat="45.91652" lon="6.50236">
        <ele>2002</ele>
        <time>2017-08-29T07:46:35Z</time>
      </trkpt>
      <trkpt lat="45.91653" lon="6.50239">
        <ele>2002</ele>
        <time>2017-08-29T07:46:36Z</time>
      </trkpt>
      <trkpt lat="45.91653" lon="6.50239">
        <ele>2003</ele>
        <time>2017-08-29T07:46:37Z</time>
      </trkpt>
      <trkpt lat="45.91653" lon="6.50239">
        <ele>2003</ele>
        <time>2017-08-29T07:46:38Z</time>
      </trkpt>
      <trkpt lat="45.91653" lon="6.50239">
        <ele>2004</ele>
        <time>2017-08-29T07:46:39Z</time>
      </trkpt>
      <trkpt lat="45.91653" lon="6.50243">
        <ele>2004</ele>
        <time>2017-08-29T07:46:40Z</time>
      </trkpt>
      <trkpt lat="45.91653" lon="6.50243">
        <ele>2004</ele>
        <time>2017-08-29T07:46:41Z</time>
      </trkpt>
      <trkpt lat="45.91653" lon="6.50243">
        <ele>2004</ele>
        <time>2017-08-29T07:46:42Z</time>
      </trkpt>
      <trkpt lat="45.91653" lon="6.50243">
        <ele>2004</ele>
        <time>2017-08-29T07:46:43Z</time>
      </trkpt>
      <trkpt lat="45.91652" lon="6.50245">
        <ele>2005</ele>
        <time>2017-08-29T07:46:44Z</time>
      </trkpt>
      <trkpt lat="45.91652" lon="6.50245">
        <ele>2005</ele>
        <time>2017-08-29T07:46:45Z</time>
      </trkpt>
      <trkpt lat="45.91653" lon="6.50248">
        <ele>2005</ele>
        <time>2017-08-29T07:46:46Z</time>
      </trkpt>
      <trkpt lat="45.91653" lon="6.50248">
        <ele>2006</ele>
        <time>2017-08-29T07:46:47Z</time>
      </trkpt>
      <trkpt lat="45.91653" lon="6.50248">
        <ele>2006</ele>
        <time>2017-08-29T07:46:48Z</time>
      </trkpt>
      <trkpt lat="45.91653" lon="6.50248">
        <ele>2006</ele>
        <time>2017-08-29T07:46:49Z</time>
      </trkpt>
      <trkpt lat="45.91652" lon="6.50251">
        <ele>2006</ele>
        <time>2017-08-29T07:46:50Z</time>
      </trkpt>
      <trkpt lat="45.91652" lon="6.50251">
        <ele>2006</ele>
        <time>2017-08-29T07:46:51Z</time>
      </trkpt>
      <trkpt lat="45.91652" lon="6.50251">
        <ele>2007</ele>
        <time>2017-08-29T07:46:52Z</time>
      </trkpt>
      <trkpt lat="45.91652" lon="6.50251">
        <ele>2007</ele>
        <time>2017-08-29T07:46:53Z</time>
      </trkpt>
      <trkpt lat="45.91652" lon="6.50254">
        <ele>2007</ele>
        <time>2017-08-29T07:46:54Z</time>
      </trkpt>
      <trkpt lat="45.91652" lon="6.50254">
        <ele>2007</ele>
        <time>2017-08-29T07:46:55Z</time>
      </trkpt>
      <trkpt lat="45.91652" lon="6.50254">
        <ele>2008</ele>
        <time>2017-08-29T07:46:56Z</time>
      </trkpt>
      <trkpt lat="45.91652" lon="6.50254">
        <ele>2008</ele>
        <time>2017-08-29T07:46:57Z</time>
      </trkpt>
      <trkpt lat="45.91652" lon="6.50254">
        <ele>2009</ele>
        <time>2017-08-29T07:46:58Z</time>
      </trkpt>
      <trkpt lat="45.91653" lon="6.50256">
        <ele>2009</ele>
        <time>2017-08-29T07:46:59Z</time>
      </trkpt>
      <trkpt lat="45.91653" lon="6.50256">
        <ele>2009</ele>
        <time>2017-08-29T07:47:00Z</time>
      </trkpt>
      <trkpt lat="45.91654" lon="6.50259">
        <ele>2009</ele>
        <time>2017-08-29T07:47:01Z</time>
      </trkpt>
      <trkpt lat="45.91654" lon="6.50259">
        <ele>2009</ele>
        <time>2017-08-29T07:47:02Z</time>
      </trkpt>
      <trkpt lat="45.91654" lon="6.50259">
        <ele>2010</ele>
        <time>2017-08-29T07:47:03Z</time>
      </trkpt>
      <trkpt lat="45.91656" lon="6.50261">
        <ele>2010</ele>
        <time>2017-08-29T07:47:04Z</time>
      </trkpt>
      <trkpt lat="45.91656" lon="6.50261">
        <ele>2010</ele>
        <time>2017-08-29T07:47:05Z</time>
      </trkpt>
      <trkpt lat="45.91656" lon="6.50261">
        <ele>2012</ele>
        <time>2017-08-29T07:47:06Z</time>
      </trkpt>
      <trkpt lat="45.91656" lon="6.50261">
        <ele>2012</ele>
        <time>2017-08-29T07:47:07Z</time>
      </trkpt>
      <trkpt lat="45.91657" lon="6.50264">
        <ele>2012</ele>
        <time>2017-08-29T07:47:08Z</time>
      </trkpt>
      <trkpt lat="45.91657" lon="6.50264">
        <ele>2012</ele>
        <time>2017-08-29T07:47:09Z</time>
      </trkpt>
      <trkpt lat="45.91657" lon="6.50264">
        <ele>2012</ele>
        <time>2017-08-29T07:47:10Z</time>
      </trkpt>
      <trkpt lat="45.91658" lon="6.50267">
        <ele>2012</ele>
        <time>2017-08-29T07:47:11Z</time>
      </trkpt>
      <trkpt lat="45.91658" lon="6.50267">
        <ele>2013</ele>
        <time>2017-08-29T07:47:12Z</time>
      </trkpt>
      <trkpt lat="45.91658" lon="6.50267">
        <ele>2013</ele>
        <time>2017-08-29T07:47:13Z</time>
      </trkpt>
      <trkpt lat="45.91658" lon="6.5027">
        <ele>2014</ele>
        <time>2017-08-29T07:47:14Z</time>
      </trkpt>
      <trkpt lat="45.91658" lon="6.5027">
        <ele>2014</ele>
        <time>2017-08-29T07:47:15Z</time>
      </trkpt>
      <trkpt lat="45.91658" lon="6.5027">
        <ele>2014</ele>
        <time>2017-08-29T07:47:16Z</time>
      </trkpt>
      <trkpt lat="45.91658" lon="6.5027">
        <ele>2014</ele>
        <time>2017-08-29T07:47:17Z</time>
      </trkpt>
      <trkpt lat="45.91657" lon="6.50273">
        <ele>2015</ele>
        <time>2017-08-29T07:47:18Z</time>
      </trkpt>
      <trkpt lat="45.91657" lon="6.50273">
        <ele>2015</ele>
        <time>2017-08-29T07:47:19Z</time>
      </trkpt>
      <trkpt lat="45.91658" lon="6.50276">
        <ele>2016</ele>
        <time>2017-08-29T07:47:20Z</time>
      </trkpt>
      <trkpt lat="45.91658" lon="6.50276">
        <ele>2016</ele>
        <time>2017-08-29T07:47:21Z</time>
      </trkpt>
      <trkpt lat="45.91658" lon="6.50276">
        <ele>2016</ele>
        <time>2017-08-29T07:47:22Z</time>
      </trkpt>
      <trkpt lat="45.91658" lon="6.5028">
        <ele>2016</ele>
        <time>2017-08-29T07:47:23Z</time>
      </trkpt>
      <trkpt lat="45.91658" lon="6.5028">
        <ele>2016</ele>
        <time>2017-08-29T07:47:24Z</time>
      </trkpt>
      <trkpt lat="45.91658" lon="6.5028">
        <ele>2016</ele>
        <time>2017-08-29T07:47:25Z</time>
      </trkpt>
      <trkpt lat="45.91658" lon="6.5028">
        <ele>2016</ele>
        <time>2017-08-29T07:47:26Z</time>
      </trkpt>
      <trkpt lat="45.91659" lon="6.50284">
        <ele>2016</ele>
        <time>2017-08-29T07:47:27Z</time>
      </trkpt>
      <trkpt lat="45.91659" lon="6.50284">
        <ele>2017</ele>
        <time>2017-08-29T07:47:28Z</time>
      </trkpt>
      <trkpt lat="45.91658" lon="6.50287">
        <ele>2017</ele>
        <time>2017-08-29T07:47:29Z</time>
      </trkpt>
      <trkpt lat="45.91658" lon="6.50287">
        <ele>2017</ele>
        <time>2017-08-29T07:47:30Z</time>
      </trkpt>
      <trkpt lat="45.91658" lon="6.50287">
        <ele>2018</ele>
        <time>2017-08-29T07:47:31Z</time>
      </trkpt>
      <trkpt lat="45.91658" lon="6.50287">
        <ele>2018</ele>
        <time>2017-08-29T07:47:32Z</time>
      </trkpt>
      <trkpt lat="45.91657" lon="6.5029">
        <ele>2018</ele>
        <time>2017-08-29T07:47:33Z</time>
      </trkpt>
      <trkpt lat="45.91657" lon="6.5029">
        <ele>2018</ele>
        <time>2017-08-29T07:47:34Z</time>
      </trkpt>
      <trkpt lat="45.91657" lon="6.5029">
        <ele>2018</ele>
        <time>2017-08-29T07:47:35Z</time>
      </trkpt>
      <trkpt lat="45.91657" lon="6.5029">
        <ele>2018</ele>
        <time>2017-08-29T07:47:36Z</time>
      </trkpt>
      <trkpt lat="45.91657" lon="6.5029">
        <ele>2018</ele>
        <time>2017-08-29T07:47:37Z</time>
      </trkpt>
      <trkpt lat="45.91657" lon="6.5029">
        <ele>2018</ele>
        <time>2017-08-29T07:47:38Z</time>
      </trkpt>
      <trkpt lat="45.91657" lon="6.5029">
        <ele>2018</ele>
        <time>2017-08-29T07:47:39Z</time>
      </trkpt>
      <trkpt lat="45.91655" lon="6.50291">
        <ele>2018</ele>
        <time>2017-08-29T07:47:40Z</time>
      </trkpt>
      <trkpt lat="45.91655" lon="6.50291">
        <ele>2019</ele>
        <time>2017-08-29T07:47:41Z</time>
      </trkpt>
      <trkpt lat="45.91655" lon="6.50291">
        <ele>2019</ele>
        <time>2017-08-29T07:47:42Z</time>
      </trkpt>
      <trkpt lat="45.91653" lon="6.5029">
        <ele>2020</ele>
        <time>2017-08-29T07:47:43Z</time>
      </trkpt>
      <trkpt lat="45.91653" lon="6.5029">
        <ele>2020</ele>
        <time>2017-08-29T07:47:44Z</time>
      </trkpt>
      <trkpt lat="45.91653" lon="6.5029">
        <ele>2020</ele>
        <time>2017-08-29T07:47:45Z</time>
      </trkpt>
      <trkpt lat="45.91652" lon="6.50288">
        <ele>2020</ele>
        <time>2017-08-29T07:47:46Z</time>
      </trkpt>
      <trkpt lat="45.91652" lon="6.50288">
        <ele>2020</ele>
        <time>2017-08-29T07:47:47Z</time>
      </trkpt>
      <trkpt lat="45.91652" lon="6.50288">
        <ele>2020</ele>
        <time>2017-08-29T07:47:48Z</time>
      </trkpt>
      <trkpt lat="45.91649" lon="6.50288">
        <ele>2020</ele>
        <time>2017-08-29T07:47:49Z</time>
      </trkpt>
      <trkpt lat="45.91649" lon="6.50288">
        <ele>2020</ele>
        <time>2017-08-29T07:47:50Z</time>
      </trkpt>
      <trkpt lat="45.91649" lon="6.50288">
        <ele>2020</ele>
        <time>2017-08-29T07:47:51Z</time>
      </trkpt>
      <trkpt lat="45.91648" lon="6.50289">
        <ele>2021</ele>
        <time>2017-08-29T07:47:52Z</time>
      </trkpt>
      <trkpt lat="45.91648" lon="6.50289">
        <ele>2022</ele>
        <time>2017-08-29T07:47:53Z</time>
      </trkpt>
      <trkpt lat="45.91648" lon="6.50289">
        <ele>2022</ele>
        <time>2017-08-29T07:47:54Z</time>
      </trkpt>
      <trkpt lat="45.91646" lon="6.50291">
        <ele>2023</ele>
        <time>2017-08-29T07:47:55Z</time>
      </trkpt>
      <trkpt lat="45.91645" lon="6.50292">
        <ele>2023</ele>
        <time>2017-08-29T07:47:56Z</time>
      </trkpt>
      <trkpt lat="45.91645" lon="6.50293">
        <ele>2023</ele>
        <time>2017-08-29T07:47:57Z</time>
      </trkpt>
      <trkpt lat="45.91645" lon="6.50294">
        <ele>2023</ele>
        <time>2017-08-29T07:47:58Z</time>
      </trkpt>
      <trkpt lat="45.91645" lon="6.50295">
        <ele>2023</ele>
        <time>2017-08-29T07:47:59Z</time>
      </trkpt>
      <trkpt lat="45.91645" lon="6.50296">
        <ele>2023</ele>
        <time>2017-08-29T07:48:00Z</time>
      </trkpt>
      <trkpt lat="45.91645" lon="6.50297">
        <ele>2024</ele>
        <time>2017-08-29T07:48:01Z</time>
      </trkpt>
      <trkpt lat="45.91645" lon="6.50298">
        <ele>2025</ele>
        <time>2017-08-29T07:48:02Z</time>
      </trkpt>
      <trkpt lat="45.91645" lon="6.50299">
        <ele>2025</ele>
        <time>2017-08-29T07:48:03Z</time>
      </trkpt>
      <trkpt lat="45.91645" lon="6.503">
        <ele>2025</ele>
        <time>2017-08-29T07:48:04Z</time>
      </trkpt>
      <trkpt lat="45.91645" lon="6.50301">
        <ele>2025</ele>
        <time>2017-08-29T07:48:05Z</time>
      </trkpt>
      <trkpt lat="45.91645" lon="6.50302">
        <ele>2025</ele>
        <time>2017-08-29T07:48:06Z</time>
      </trkpt>
      <trkpt lat="45.91645" lon="6.50304">
        <ele>2026</ele>
        <time>2017-08-29T07:48:07Z</time>
      </trkpt>
      <trkpt lat="45.91645" lon="6.50306">
        <ele>2026</ele>
        <time>2017-08-29T07:48:08Z</time>
      </trkpt>
      <trkpt lat="45.91646" lon="6.50307">
        <ele>2026</ele>
        <time>2017-08-29T07:48:09Z</time>
      </trkpt>
      <trkpt lat="45.91646" lon="6.50307">
        <ele>2026</ele>
        <time>2017-08-29T07:48:10Z</time>
      </trkpt>
      <trkpt lat="45.91646" lon="6.50307">
        <ele>2026</ele>
        <time>2017-08-29T07:48:11Z</time>
      </trkpt>
      <trkpt lat="45.91646" lon="6.50307">
        <ele>2026</ele>
        <time>2017-08-29T07:48:12Z</time>
      </trkpt>
      <trkpt lat="45.91646" lon="6.50307">
        <ele>2027</ele>
        <time>2017-08-29T07:48:13Z</time>
      </trkpt>
      <trkpt lat="45.91644" lon="6.5031">
        <ele>2028</ele>
        <time>2017-08-29T07:48:14Z</time>
      </trkpt>
      <trkpt lat="45.91644" lon="6.5031">
        <ele>2028</ele>
        <time>2017-08-29T07:48:15Z</time>
      </trkpt>
      <trkpt lat="45.91644" lon="6.5031">
        <ele>2028</ele>
        <time>2017-08-29T07:48:16Z</time>
      </trkpt>
      <trkpt lat="45.91644" lon="6.5031">
        <ele>2028</ele>
        <time>2017-08-29T07:48:17Z</time>
      </trkpt>
      <trkpt lat="45.91644" lon="6.5031">
        <ele>2028</ele>
        <time>2017-08-29T07:48:18Z</time>
      </trkpt>
      <trkpt lat="45.91643" lon="6.50313">
        <ele>2029</ele>
        <time>2017-08-29T07:48:19Z</time>
      </trkpt>
      <trkpt lat="45.91643" lon="6.50313">
        <ele>2029</ele>
        <time>2017-08-29T07:48:20Z</time>
      </trkpt>
      <trkpt lat="45.91643" lon="6.50313">
        <ele>2029</ele>
        <time>2017-08-29T07:48:21Z</time>
      </trkpt>
      <trkpt lat="45.91644" lon="6.50317">
        <ele>2029</ele>
        <time>2017-08-29T07:48:22Z</time>
      </trkpt>
      <trkpt lat="45.91644" lon="6.50317">
        <ele>2030</ele>
        <time>2017-08-29T07:48:23Z</time>
      </trkpt>
      <trkpt lat="45.91644" lon="6.5032">
        <ele>2030</ele>
        <time>2017-08-29T07:48:24Z</time>
      </trkpt>
      <trkpt lat="45.91644" lon="6.5032">
        <ele>2031</ele>
        <time>2017-08-29T07:48:25Z</time>
      </trkpt>
      <trkpt lat="45.91644" lon="6.5032">
        <ele>2031</ele>
        <time>2017-08-29T07:48:26Z</time>
      </trkpt>
      <trkpt lat="45.91644" lon="6.50323">
        <ele>2031</ele>
        <time>2017-08-29T07:48:27Z</time>
      </trkpt>
      <trkpt lat="45.91644" lon="6.50323">
        <ele>2031</ele>
        <time>2017-08-29T07:48:28Z</time>
      </trkpt>
      <trkpt lat="45.91644" lon="6.50323">
        <ele>2031</ele>
        <time>2017-08-29T07:48:29Z</time>
      </trkpt>
      <trkpt lat="45.91644" lon="6.50327">
        <ele>2031</ele>
        <time>2017-08-29T07:48:30Z</time>
      </trkpt>
      <trkpt lat="45.91644" lon="6.50327">
        <ele>2032</ele>
        <time>2017-08-29T07:48:31Z</time>
      </trkpt>
      <trkpt lat="45.91643" lon="6.5033">
        <ele>2032</ele>
        <time>2017-08-29T07:48:32Z</time>
      </trkpt>
      <trkpt lat="45.91643" lon="6.5033">
        <ele>2032</ele>
        <time>2017-08-29T07:48:33Z</time>
      </trkpt>
      <trkpt lat="45.91643" lon="6.5033">
        <ele>2032</ele>
        <time>2017-08-29T07:48:34Z</time>
      </trkpt>
      <trkpt lat="45.91643" lon="6.50332">
        <ele>2032</ele>
        <time>2017-08-29T07:48:35Z</time>
      </trkpt>
      <trkpt lat="45.91643" lon="6.50332">
        <ele>2033</ele>
        <time>2017-08-29T07:48:36Z</time>
      </trkpt>
      <trkpt lat="45.91643" lon="6.50332">
        <ele>2033</ele>
        <time>2017-08-29T07:48:37Z</time>
      </trkpt>
      <trkpt lat="45.91643" lon="6.50332">
        <ele>2033</ele>
        <time>2017-08-29T07:48:38Z</time>
      </trkpt>
      <trkpt lat="45.91643" lon="6.50335">
        <ele>2033</ele>
        <time>2017-08-29T07:48:39Z</time>
      </trkpt>
      <trkpt lat="45.91643" lon="6.50335">
        <ele>2033</ele>
        <time>2017-08-29T07:48:40Z</time>
      </trkpt>
      <trkpt lat="45.91643" lon="6.50335">
        <ele>2033</ele>
        <time>2017-08-29T07:48:41Z</time>
      </trkpt>
      <trkpt lat="45.91643" lon="6.50338">
        <ele>2034</ele>
        <time>2017-08-29T07:48:42Z</time>
      </trkpt>
      <trkpt lat="45.91643" lon="6.50338">
        <ele>2034</ele>
        <time>2017-08-29T07:48:43Z</time>
      </trkpt>
      <trkpt lat="45.91643" lon="6.5034">
        <ele>2035</ele>
        <time>2017-08-29T07:48:44Z</time>
      </trkpt>
      <trkpt lat="45.91643" lon="6.50342">
        <ele>2035</ele>
        <time>2017-08-29T07:48:45Z</time>
      </trkpt>
      <trkpt lat="45.91643" lon="6.50343">
        <ele>2036</ele>
        <time>2017-08-29T07:48:46Z</time>
      </trkpt>
      <trkpt lat="45.91642" lon="6.50344">
        <ele>2036</ele>
        <time>2017-08-29T07:48:47Z</time>
      </trkpt>
      <trkpt lat="45.91642" lon="6.50345">
        <ele>2036</ele>
        <time>2017-08-29T07:48:48Z</time>
      </trkpt>
      <trkpt lat="45.91642" lon="6.50346">
        <ele>2036</ele>
        <time>2017-08-29T07:48:49Z</time>
      </trkpt>
      <trkpt lat="45.91642" lon="6.50348">
        <ele>2035</ele>
        <time>2017-08-29T07:48:50Z</time>
      </trkpt>
      <trkpt lat="45.91641" lon="6.50349">
        <ele>2036</ele>
        <time>2017-08-29T07:48:51Z</time>
      </trkpt>
      <trkpt lat="45.91641" lon="6.5035">
        <ele>2038</ele>
        <time>2017-08-29T07:48:52Z</time>
      </trkpt>
      <trkpt lat="45.91641" lon="6.50351">
        <ele>2038</ele>
        <time>2017-08-29T07:48:53Z</time>
      </trkpt>
      <trkpt lat="45.91641" lon="6.50352">
        <ele>2039</ele>
        <time>2017-08-29T07:48:54Z</time>
      </trkpt>
      <trkpt lat="45.91641" lon="6.50353">
        <ele>2039</ele>
        <time>2017-08-29T07:48:55Z</time>
      </trkpt>
      <trkpt lat="45.91641" lon="6.50353">
        <ele>2039</ele>
        <time>2017-08-29T07:48:56Z</time>
      </trkpt>
      <trkpt lat="45.91641" lon="6.50353">
        <ele>2039</ele>
        <time>2017-08-29T07:48:57Z</time>
      </trkpt>
      <trkpt lat="45.91642" lon="6.50357">
        <ele>2039</ele>
        <time>2017-08-29T07:48:58Z</time>
      </trkpt>
      <trkpt lat="45.91642" lon="6.50357">
        <ele>2039</ele>
        <time>2017-08-29T07:48:59Z</time>
      </trkpt>
      <trkpt lat="45.91641" lon="6.5036">
        <ele>2039</ele>
        <time>2017-08-29T07:49:00Z</time>
      </trkpt>
      <trkpt lat="45.91641" lon="6.5036">
        <ele>2039</ele>
        <time>2017-08-29T07:49:01Z</time>
      </trkpt>
      <trkpt lat="45.91639" lon="6.50361">
        <ele>2040</ele>
        <time>2017-08-29T07:49:02Z</time>
      </trkpt>
      <trkpt lat="45.91639" lon="6.50361">
        <ele>2040</ele>
        <time>2017-08-29T07:49:03Z</time>
      </trkpt>
      <trkpt lat="45.91636" lon="6.50361">
        <ele>2040</ele>
        <time>2017-08-29T07:49:04Z</time>
      </trkpt>
      <trkpt lat="45.91636" lon="6.50361">
        <ele>2040</ele>
        <time>2017-08-29T07:49:05Z</time>
      </trkpt>
      <trkpt lat="45.91634" lon="6.50359">
        <ele>2040</ele>
        <time>2017-08-29T07:49:06Z</time>
      </trkpt>
      <trkpt lat="45.91634" lon="6.50359">
        <ele>2040</ele>
        <time>2017-08-29T07:49:07Z</time>
      </trkpt>
      <trkpt lat="45.91632" lon="6.50358">
        <ele>2041</ele>
        <time>2017-08-29T07:49:08Z</time>
      </trkpt>
      <trkpt lat="45.91632" lon="6.50358">
        <ele>2042</ele>
        <time>2017-08-29T07:49:09Z</time>
      </trkpt>
      <trkpt lat="45.9163" lon="6.50359">
        <ele>2042</ele>
        <time>2017-08-29T07:49:10Z</time>
      </trkpt>
      <trkpt lat="45.9163" lon="6.50359">
        <ele>2042</ele>
        <time>2017-08-29T07:49:11Z</time>
      </trkpt>
      <trkpt lat="45.9163" lon="6.50362">
        <ele>2042</ele>
        <time>2017-08-29T07:49:12Z</time>
      </trkpt>
      <trkpt lat="45.9163" lon="6.50362">
        <ele>2042</ele>
        <time>2017-08-29T07:49:13Z</time>
      </trkpt>
      <trkpt lat="45.91631" lon="6.50365">
        <ele>2042</ele>
        <time>2017-08-29T07:49:14Z</time>
      </trkpt>
      <trkpt lat="45.91631" lon="6.50365">
        <ele>2043</ele>
        <time>2017-08-29T07:49:15Z</time>
      </trkpt>
      <trkpt lat="45.91631" lon="6.50369">
        <ele>2043</ele>
        <time>2017-08-29T07:49:16Z</time>
      </trkpt>
      <trkpt lat="45.91631" lon="6.50369">
        <ele>2043</ele>
        <time>2017-08-29T07:49:17Z</time>
      </trkpt>
      <trkpt lat="45.91631" lon="6.50372">
        <ele>2044</ele>
        <time>2017-08-29T07:49:18Z</time>
      </trkpt>
      <trkpt lat="45.91631" lon="6.50372">
        <ele>2044</ele>
        <time>2017-08-29T07:49:19Z</time>
      </trkpt>
      <trkpt lat="45.91631" lon="6.50376">
        <ele>2044</ele>
        <time>2017-08-29T07:49:20Z</time>
      </trkpt>
      <trkpt lat="45.91631" lon="6.50376">
        <ele>2044</ele>
        <time>2017-08-29T07:49:21Z</time>
      </trkpt>
      <trkpt lat="45.91632" lon="6.50379">
        <ele>2044</ele>
        <time>2017-08-29T07:49:22Z</time>
      </trkpt>
      <trkpt lat="45.91632" lon="6.50379">
        <ele>2045</ele>
        <time>2017-08-29T07:49:23Z</time>
      </trkpt>
      <trkpt lat="45.91632" lon="6.50379">
        <ele>2045</ele>
        <time>2017-08-29T07:49:24Z</time>
      </trkpt>
      <trkpt lat="45.91632" lon="6.50379">
        <ele>2045</ele>
        <time>2017-08-29T07:49:25Z</time>
      </trkpt>
      <trkpt lat="45.9163" lon="6.50381">
        <ele>2045</ele>
        <time>2017-08-29T07:49:26Z</time>
      </trkpt>
      <trkpt lat="45.9163" lon="6.50381">
        <ele>2045</ele>
        <time>2017-08-29T07:49:27Z</time>
      </trkpt>
      <trkpt lat="45.9163" lon="6.50381">
        <ele>2046</ele>
        <time>2017-08-29T07:49:28Z</time>
      </trkpt>
      <trkpt lat="45.91628" lon="6.50383">
        <ele>2046</ele>
        <time>2017-08-29T07:49:29Z</time>
      </trkpt>
      <trkpt lat="45.91628" lon="6.50383">
        <ele>2046</ele>
        <time>2017-08-29T07:49:30Z</time>
      </trkpt>
      <trkpt lat="45.91627" lon="6.50387">
        <ele>2046</ele>
        <time>2017-08-29T07:49:31Z</time>
      </trkpt>
      <trkpt lat="45.91627" lon="6.50387">
        <ele>2046</ele>
        <time>2017-08-29T07:49:32Z</time>
      </trkpt>
      <trkpt lat="45.91627" lon="6.50391">
        <ele>2046</ele>
        <time>2017-08-29T07:49:33Z</time>
      </trkpt>
      <trkpt lat="45.91627" lon="6.50391">
        <ele>2046</ele>
        <time>2017-08-29T07:49:34Z</time>
      </trkpt>
      <trkpt lat="45.91627" lon="6.50395">
        <ele>2047</ele>
        <time>2017-08-29T07:49:35Z</time>
      </trkpt>
      <trkpt lat="45.91627" lon="6.50395">
        <ele>2047</ele>
        <time>2017-08-29T07:49:36Z</time>
      </trkpt>
      <trkpt lat="45.91627" lon="6.50395">
        <ele>2047</ele>
        <time>2017-08-29T07:49:37Z</time>
      </trkpt>
      <trkpt lat="45.91625" lon="6.50398">
        <ele>2048</ele>
        <time>2017-08-29T07:49:38Z</time>
      </trkpt>
      <trkpt lat="45.91625" lon="6.50398">
        <ele>2048</ele>
        <time>2017-08-29T07:49:39Z</time>
      </trkpt>
      <trkpt lat="45.91626" lon="6.50401">
        <ele>2048</ele>
        <time>2017-08-29T07:49:40Z</time>
      </trkpt>
      <trkpt lat="45.91626" lon="6.50401">
        <ele>2049</ele>
        <time>2017-08-29T07:49:41Z</time>
      </trkpt>
      <trkpt lat="45.91626" lon="6.50401">
        <ele>2049</ele>
        <time>2017-08-29T07:49:42Z</time>
      </trkpt>
      <trkpt lat="45.91626" lon="6.50405">
        <ele>2049</ele>
        <time>2017-08-29T07:49:43Z</time>
      </trkpt>
      <trkpt lat="45.91626" lon="6.50405">
        <ele>2049</ele>
        <time>2017-08-29T07:49:44Z</time>
      </trkpt>
      <trkpt lat="45.91627" lon="6.50407">
        <ele>2049</ele>
        <time>2017-08-29T07:49:45Z</time>
      </trkpt>
      <trkpt lat="45.91627" lon="6.50407">
        <ele>2050</ele>
        <time>2017-08-29T07:49:46Z</time>
      </trkpt>
      <trkpt lat="45.91628" lon="6.50411">
        <ele>2050</ele>
        <time>2017-08-29T07:49:47Z</time>
      </trkpt>
      <trkpt lat="45.91628" lon="6.50411">
        <ele>2050</ele>
        <time>2017-08-29T07:49:48Z</time>
      </trkpt>
      <trkpt lat="45.91628" lon="6.50413">
        <ele>2050</ele>
        <time>2017-08-29T07:49:49Z</time>
      </trkpt>
      <trkpt lat="45.91628" lon="6.50413">
        <ele>2050</ele>
        <time>2017-08-29T07:49:50Z</time>
      </trkpt>
      <trkpt lat="45.91628" lon="6.50413">
        <ele>2050</ele>
        <time>2017-08-29T07:49:51Z</time>
      </trkpt>
      <trkpt lat="45.91628" lon="6.50417">
        <ele>2050</ele>
        <time>2017-08-29T07:49:52Z</time>
      </trkpt>
      <trkpt lat="45.91628" lon="6.50417">
        <ele>2051</ele>
        <time>2017-08-29T07:49:53Z</time>
      </trkpt>
      <trkpt lat="45.91628" lon="6.50417">
        <ele>2052</ele>
        <time>2017-08-29T07:49:54Z</time>
      </trkpt>
      <trkpt lat="45.91627" lon="6.5042">
        <ele>2052</ele>
        <time>2017-08-29T07:49:55Z</time>
      </trkpt>
      <trkpt lat="45.91627" lon="6.50421">
        <ele>2052</ele>
        <time>2017-08-29T07:49:56Z</time>
      </trkpt>
      <trkpt lat="45.91627" lon="6.50422">
        <ele>2052</ele>
        <time>2017-08-29T07:49:57Z</time>
      </trkpt>
      <trkpt lat="45.91627" lon="6.50423">
        <ele>2052</ele>
        <time>2017-08-29T07:49:58Z</time>
      </trkpt>
      <trkpt lat="45.91627" lon="6.50424">
        <ele>2053</ele>
        <time>2017-08-29T07:49:59Z</time>
      </trkpt>
      <trkpt lat="45.91627" lon="6.50425">
        <ele>2053</ele>
        <time>2017-08-29T07:50:00Z</time>
      </trkpt>
      <trkpt lat="45.91626" lon="6.50426">
        <ele>2053</ele>
        <time>2017-08-29T07:50:01Z</time>
      </trkpt>
      <trkpt lat="45.91626" lon="6.50427">
        <ele>2054</ele>
        <time>2017-08-29T07:50:02Z</time>
      </trkpt>
      <trkpt lat="45.91626" lon="6.50427">
        <ele>2054</ele>
        <time>2017-08-29T07:50:03Z</time>
      </trkpt>
      <trkpt lat="45.91625" lon="6.50429">
        <ele>2054</ele>
        <time>2017-08-29T07:50:04Z</time>
      </trkpt>
      <trkpt lat="45.91625" lon="6.50429">
        <ele>2054</ele>
        <time>2017-08-29T07:50:05Z</time>
      </trkpt>
      <trkpt lat="45.91625" lon="6.50429">
        <ele>2054</ele>
        <time>2017-08-29T07:50:06Z</time>
      </trkpt>
      <trkpt lat="45.91624" lon="6.50431">
        <ele>2054</ele>
        <time>2017-08-29T07:50:07Z</time>
      </trkpt>
      <trkpt lat="45.91624" lon="6.50431">
        <ele>2054</ele>
        <time>2017-08-29T07:50:08Z</time>
      </trkpt>
      <trkpt lat="45.91624" lon="6.50431">
        <ele>2055</ele>
        <time>2017-08-29T07:50:09Z</time>
      </trkpt>
      <trkpt lat="45.91623" lon="6.50434">
        <ele>2055</ele>
        <time>2017-08-29T07:50:10Z</time>
      </trkpt>
      <trkpt lat="45.91623" lon="6.50434">
        <ele>2056</ele>
        <time>2017-08-29T07:50:11Z</time>
      </trkpt>
      <trkpt lat="45.91623" lon="6.50434">
        <ele>2056</ele>
        <time>2017-08-29T07:50:12Z</time>
      </trkpt>
      <trkpt lat="45.91623" lon="6.50434">
        <ele>2056</ele>
        <time>2017-08-29T07:50:13Z</time>
      </trkpt>
      <trkpt lat="45.91622" lon="6.50437">
        <ele>2057</ele>
        <time>2017-08-29T07:50:14Z</time>
      </trkpt>
      <trkpt lat="45.91622" lon="6.50437">
        <ele>2057</ele>
        <time>2017-08-29T07:50:15Z</time>
      </trkpt>
      <trkpt lat="45.91622" lon="6.50437">
        <ele>2057</ele>
        <time>2017-08-29T07:50:16Z</time>
      </trkpt>
      <trkpt lat="45.91621" lon="6.50439">
        <ele>2057</ele>
        <time>2017-08-29T07:50:17Z</time>
      </trkpt>
      <trkpt lat="45.91621" lon="6.50439">
        <ele>2057</ele>
        <time>2017-08-29T07:50:18Z</time>
      </trkpt>
      <trkpt lat="45.91621" lon="6.50439">
        <ele>2057</ele>
        <time>2017-08-29T07:50:19Z</time>
      </trkpt>
      <trkpt lat="45.91618" lon="6.5044">
        <ele>2058</ele>
        <time>2017-08-29T07:50:20Z</time>
      </trkpt>
      <trkpt lat="45.91618" lon="6.5044">
        <ele>2058</ele>
        <time>2017-08-29T07:50:21Z</time>
      </trkpt>
      <trkpt lat="45.91618" lon="6.5044">
        <ele>2058</ele>
        <time>2017-08-29T07:50:22Z</time>
      </trkpt>
      <trkpt lat="45.91618" lon="6.5044">
        <ele>2058</ele>
        <time>2017-08-29T07:50:23Z</time>
      </trkpt>
      <trkpt lat="45.91618" lon="6.50443">
        <ele>2059</ele>
        <time>2017-08-29T07:50:24Z</time>
      </trkpt>
      <trkpt lat="45.91618" lon="6.50443">
        <ele>2059</ele>
        <time>2017-08-29T07:50:25Z</time>
      </trkpt>
      <trkpt lat="45.91618" lon="6.50443">
        <ele>2059</ele>
        <time>2017-08-29T07:50:26Z</time>
      </trkpt>
      <trkpt lat="45.91618" lon="6.50447">
        <ele>2059</ele>
        <time>2017-08-29T07:50:27Z</time>
      </trkpt>
      <trkpt lat="45.91618" lon="6.50447">
        <ele>2060</ele>
        <time>2017-08-29T07:50:28Z</time>
      </trkpt>
      <trkpt lat="45.91618" lon="6.50447">
        <ele>2060</ele>
        <time>2017-08-29T07:50:29Z</time>
      </trkpt>
      <trkpt lat="45.91618" lon="6.50447">
        <ele>2060</ele>
        <time>2017-08-29T07:50:30Z</time>
      </trkpt>
      <trkpt lat="45.91618" lon="6.50451">
        <ele>2060</ele>
        <time>2017-08-29T07:50:31Z</time>
      </trkpt>
      <trkpt lat="45.91618" lon="6.50451">
        <ele>2060</ele>
        <time>2017-08-29T07:50:32Z</time>
      </trkpt>
      <trkpt lat="45.91618" lon="6.50451">
        <ele>2061</ele>
        <time>2017-08-29T07:50:33Z</time>
      </trkpt>
      <trkpt lat="45.91616" lon="6.50451">
        <ele>2061</ele>
        <time>2017-08-29T07:50:34Z</time>
      </trkpt>
      <trkpt lat="45.91616" lon="6.50451">
        <ele>2062</ele>
        <time>2017-08-29T07:50:35Z</time>
      </trkpt>
      <trkpt lat="45.91616" lon="6.50451">
        <ele>2064</ele>
        <time>2017-08-29T07:50:36Z</time>
      </trkpt>
      <trkpt lat="45.91614" lon="6.50451">
        <ele>2064</ele>
        <time>2017-08-29T07:50:37Z</time>
      </trkpt>
      <trkpt lat="45.91614" lon="6.50451">
        <ele>2064</ele>
        <time>2017-08-29T07:50:38Z</time>
      </trkpt>
      <trkpt lat="45.91614" lon="6.50451">
        <ele>2064</ele>
        <time>2017-08-29T07:50:39Z</time>
      </trkpt>
      <trkpt lat="45.91614" lon="6.50451">
        <ele>2064</ele>
        <time>2017-08-29T07:50:40Z</time>
      </trkpt>
      <trkpt lat="45.91613" lon="6.50454">
        <ele>2064</ele>
        <time>2017-08-29T07:50:41Z</time>
      </trkpt>
      <trkpt lat="45.91613" lon="6.50454">
        <ele>2064</ele>
        <time>2017-08-29T07:50:42Z</time>
      </trkpt>
      <trkpt lat="45.91613" lon="6.50454">
        <ele>2065</ele>
        <time>2017-08-29T07:50:43Z</time>
      </trkpt>
      <trkpt lat="45.91612" lon="6.50457">
        <ele>2065</ele>
        <time>2017-08-29T07:50:44Z</time>
      </trkpt>
      <trkpt lat="45.91612" lon="6.50457">
        <ele>2065</ele>
        <time>2017-08-29T07:50:45Z</time>
      </trkpt>
      <trkpt lat="45.91612" lon="6.5046">
        <ele>2065</ele>
        <time>2017-08-29T07:50:46Z</time>
      </trkpt>
      <trkpt lat="45.91612" lon="6.5046">
        <ele>2066</ele>
        <time>2017-08-29T07:50:47Z</time>
      </trkpt>
      <trkpt lat="45.91612" lon="6.5046">
        <ele>2066</ele>
        <time>2017-08-29T07:50:48Z</time>
      </trkpt>
      <trkpt lat="45.91613" lon="6.50463">
        <ele>2066</ele>
        <time>2017-08-29T07:50:49Z</time>
      </trkpt>
      <trkpt lat="45.91613" lon="6.50463">
        <ele>2066</ele>
        <time>2017-08-29T07:50:50Z</time>
      </trkpt>
      <trkpt lat="45.91613" lon="6.50463">
        <ele>2066</ele>
        <time>2017-08-29T07:50:51Z</time>
      </trkpt>
      <trkpt lat="45.91614" lon="6.50466">
        <ele>2067</ele>
        <time>2017-08-29T07:50:52Z</time>
      </trkpt>
      <trkpt lat="45.91614" lon="6.50466">
        <ele>2067</ele>
        <time>2017-08-29T07:50:53Z</time>
      </trkpt>
      <trkpt lat="45.91614" lon="6.5047">
        <ele>2067</ele>
        <time>2017-08-29T07:50:54Z</time>
      </trkpt>
      <trkpt lat="45.91614" lon="6.5047">
        <ele>2066</ele>
        <time>2017-08-29T07:50:55Z</time>
      </trkpt>
      <trkpt lat="45.91612" lon="6.50472">
        <ele>2067</ele>
        <time>2017-08-29T07:50:56Z</time>
      </trkpt>
      <trkpt lat="45.91612" lon="6.50472">
        <ele>2067</ele>
        <time>2017-08-29T07:50:57Z</time>
      </trkpt>
      <trkpt lat="45.91612" lon="6.50472">
        <ele>2067</ele>
        <time>2017-08-29T07:50:58Z</time>
      </trkpt>
      <trkpt lat="45.91611" lon="6.50475">
        <ele>2067</ele>
        <time>2017-08-29T07:50:59Z</time>
      </trkpt>
      <trkpt lat="45.91611" lon="6.50475">
        <ele>2068</ele>
        <time>2017-08-29T07:51:00Z</time>
      </trkpt>
      <trkpt lat="45.91611" lon="6.50475">
        <ele>2068</ele>
        <time>2017-08-29T07:51:01Z</time>
      </trkpt>
      <trkpt lat="45.91611" lon="6.50475">
        <ele>2068</ele>
        <time>2017-08-29T07:51:02Z</time>
      </trkpt>
      <trkpt lat="45.91611" lon="6.50478">
        <ele>2068</ele>
        <time>2017-08-29T07:51:03Z</time>
      </trkpt>
      <trkpt lat="45.91611" lon="6.50478">
        <ele>2068</ele>
        <time>2017-08-29T07:51:04Z</time>
      </trkpt>
      <trkpt lat="45.91611" lon="6.50478">
        <ele>2069</ele>
        <time>2017-08-29T07:51:05Z</time>
      </trkpt>
      <trkpt lat="45.91612" lon="6.50481">
        <ele>2069</ele>
        <time>2017-08-29T07:51:06Z</time>
      </trkpt>
      <trkpt lat="45.91612" lon="6.50481">
        <ele>2070</ele>
        <time>2017-08-29T07:51:07Z</time>
      </trkpt>
      <trkpt lat="45.91612" lon="6.50481">
        <ele>2070</ele>
        <time>2017-08-29T07:51:08Z</time>
      </trkpt>
      <trkpt lat="45.91612" lon="6.50485">
        <ele>2070</ele>
        <time>2017-08-29T07:51:09Z</time>
      </trkpt>
      <trkpt lat="45.91612" lon="6.50485">
        <ele>2070</ele>
        <time>2017-08-29T07:51:10Z</time>
      </trkpt>
      <trkpt lat="45.91612" lon="6.50485">
        <ele>2070</ele>
        <time>2017-08-29T07:51:11Z</time>
      </trkpt>
      <trkpt lat="45.91611" lon="6.50488">
        <ele>2070</ele>
        <time>2017-08-29T07:51:12Z</time>
      </trkpt>
      <trkpt lat="45.91611" lon="6.50488">
        <ele>2070</ele>
        <time>2017-08-29T07:51:13Z</time>
      </trkpt>
      <trkpt lat="45.91611" lon="6.50488">
        <ele>2070</ele>
        <time>2017-08-29T07:51:14Z</time>
      </trkpt>
      <trkpt lat="45.9161" lon="6.50491">
        <ele>2070</ele>
        <time>2017-08-29T07:51:15Z</time>
      </trkpt>
      <trkpt lat="45.9161" lon="6.50491">
        <ele>2070</ele>
        <time>2017-08-29T07:51:16Z</time>
      </trkpt>
      <trkpt lat="45.9161" lon="6.50491">
        <ele>2071</ele>
        <time>2017-08-29T07:51:17Z</time>
      </trkpt>
      <trkpt lat="45.91609" lon="6.50493">
        <ele>2071</ele>
        <time>2017-08-29T07:51:18Z</time>
      </trkpt>
      <trkpt lat="45.91609" lon="6.50493">
        <ele>2072</ele>
        <time>2017-08-29T07:51:19Z</time>
      </trkpt>
      <trkpt lat="45.91609" lon="6.50493">
        <ele>2072</ele>
        <time>2017-08-29T07:51:20Z</time>
      </trkpt>
      <trkpt lat="45.91608" lon="6.50495">
        <ele>2072</ele>
        <time>2017-08-29T07:51:21Z</time>
      </trkpt>
      <trkpt lat="45.91608" lon="6.50495">
        <ele>2073</ele>
        <time>2017-08-29T07:51:22Z</time>
      </trkpt>
      <trkpt lat="45.91608" lon="6.50495">
        <ele>2073</ele>
        <time>2017-08-29T07:51:23Z</time>
      </trkpt>
      <trkpt lat="45.91608" lon="6.50497">
        <ele>2073</ele>
        <time>2017-08-29T07:51:24Z</time>
      </trkpt>
      <trkpt lat="45.91608" lon="6.50497">
        <ele>2073</ele>
        <time>2017-08-29T07:51:25Z</time>
      </trkpt>
      <trkpt lat="45.91608" lon="6.50497">
        <ele>2073</ele>
        <time>2017-08-29T07:51:26Z</time>
      </trkpt>
      <trkpt lat="45.91608" lon="6.50501">
        <ele>2073</ele>
        <time>2017-08-29T07:51:27Z</time>
      </trkpt>
      <trkpt lat="45.91608" lon="6.50501">
        <ele>2073</ele>
        <time>2017-08-29T07:51:28Z</time>
      </trkpt>
      <trkpt lat="45.91608" lon="6.50501">
        <ele>2074</ele>
        <time>2017-08-29T07:51:29Z</time>
      </trkpt>
      <trkpt lat="45.91606" lon="6.50502">
        <ele>2074</ele>
        <time>2017-08-29T07:51:30Z</time>
      </trkpt>
      <trkpt lat="45.91606" lon="6.50502">
        <ele>2074</ele>
        <time>2017-08-29T07:51:31Z</time>
      </trkpt>
      <trkpt lat="45.91606" lon="6.50502">
        <ele>2075</ele>
        <time>2017-08-29T07:51:32Z</time>
      </trkpt>
      <trkpt lat="45.91604" lon="6.50502">
        <ele>2075</ele>
        <time>2017-08-29T07:51:33Z</time>
      </trkpt>
      <trkpt lat="45.91604" lon="6.50502">
        <ele>2075</ele>
        <time>2017-08-29T07:51:34Z</time>
      </trkpt>
      <trkpt lat="45.91604" lon="6.50502">
        <ele>2075</ele>
        <time>2017-08-29T07:51:35Z</time>
      </trkpt>
      <trkpt lat="45.91604" lon="6.50502">
        <ele>2075</ele>
        <time>2017-08-29T07:51:36Z</time>
      </trkpt>
      <trkpt lat="45.91601" lon="6.50499">
        <ele>2075</ele>
        <time>2017-08-29T07:51:37Z</time>
      </trkpt>
      <trkpt lat="45.91601" lon="6.50499">
        <ele>2076</ele>
        <time>2017-08-29T07:51:38Z</time>
      </trkpt>
      <trkpt lat="45.91601" lon="6.50499">
        <ele>2076</ele>
        <time>2017-08-29T07:51:39Z</time>
      </trkpt>
      <trkpt lat="45.91599" lon="6.50498">
        <ele>2076</ele>
        <time>2017-08-29T07:51:40Z</time>
      </trkpt>
      <trkpt lat="45.91599" lon="6.50498">
        <ele>2076</ele>
        <time>2017-08-29T07:51:41Z</time>
      </trkpt>
      <trkpt lat="45.91599" lon="6.50498">
        <ele>2076</ele>
        <time>2017-08-29T07:51:42Z</time>
      </trkpt>
      <trkpt lat="45.91597" lon="6.50496">
        <ele>2076</ele>
        <time>2017-08-29T07:51:43Z</time>
      </trkpt>
      <trkpt lat="45.91597" lon="6.50496">
        <ele>2077</ele>
        <time>2017-08-29T07:51:44Z</time>
      </trkpt>
      <trkpt lat="45.91597" lon="6.50496">
        <ele>2077</ele>
        <time>2017-08-29T07:51:45Z</time>
      </trkpt>
      <trkpt lat="45.91595" lon="6.50494">
        <ele>2077</ele>
        <time>2017-08-29T07:51:46Z</time>
      </trkpt>
      <trkpt lat="45.91595" lon="6.50494">
        <ele>2078</ele>
        <time>2017-08-29T07:51:47Z</time>
      </trkpt>
      <trkpt lat="45.91595" lon="6.50494">
        <ele>2078</ele>
        <time>2017-08-29T07:51:48Z</time>
      </trkpt>
      <trkpt lat="45.91593" lon="6.50493">
        <ele>2078</ele>
        <time>2017-08-29T07:51:49Z</time>
      </trkpt>
      <trkpt lat="45.91593" lon="6.50493">
        <ele>2078</ele>
        <time>2017-08-29T07:51:50Z</time>
      </trkpt>
      <trkpt lat="45.91593" lon="6.50493">
        <ele>2078</ele>
        <time>2017-08-29T07:51:51Z</time>
      </trkpt>
      <trkpt lat="45.91593" lon="6.50493">
        <ele>2078</ele>
        <time>2017-08-29T07:51:52Z</time>
      </trkpt>
      <trkpt lat="45.91591" lon="6.50492">
        <ele>2079</ele>
        <time>2017-08-29T07:51:53Z</time>
      </trkpt>
      <trkpt lat="45.91591" lon="6.50492">
        <ele>2079</ele>
        <time>2017-08-29T07:51:54Z</time>
      </trkpt>
      <trkpt lat="45.91591" lon="6.50492">
        <ele>2080</ele>
        <time>2017-08-29T07:51:55Z</time>
      </trkpt>
      <trkpt lat="45.9159" lon="6.5049">
        <ele>2080</ele>
        <time>2017-08-29T07:51:56Z</time>
      </trkpt>
      <trkpt lat="45.9159" lon="6.5049">
        <ele>2080</ele>
        <time>2017-08-29T07:51:57Z</time>
      </trkpt>
      <trkpt lat="45.9159" lon="6.5049">
        <ele>2080</ele>
        <time>2017-08-29T07:51:58Z</time>
      </trkpt>
      <trkpt lat="45.91588" lon="6.50489">
        <ele>2080</ele>
        <time>2017-08-29T07:51:59Z</time>
      </trkpt>
      <trkpt lat="45.91588" lon="6.50489">
        <ele>2081</ele>
        <time>2017-08-29T07:52:00Z</time>
      </trkpt>
      <trkpt lat="45.91588" lon="6.50489">
        <ele>2081</ele>
        <time>2017-08-29T07:52:01Z</time>
      </trkpt>
      <trkpt lat="45.91586" lon="6.50488">
        <ele>2081</ele>
        <time>2017-08-29T07:52:02Z</time>
      </trkpt>
      <trkpt lat="45.91586" lon="6.50488">
        <ele>2081</ele>
        <time>2017-08-29T07:52:03Z</time>
      </trkpt>
      <trkpt lat="45.91586" lon="6.50488">
        <ele>2081</ele>
        <time>2017-08-29T07:52:04Z</time>
      </trkpt>
      <trkpt lat="45.91584" lon="6.50488">
        <ele>2081</ele>
        <time>2017-08-29T07:52:05Z</time>
      </trkpt>
      <trkpt lat="45.91584" lon="6.50488">
        <ele>2082</ele>
        <time>2017-08-29T07:52:06Z</time>
      </trkpt>
      <trkpt lat="45.91584" lon="6.50488">
        <ele>2082</ele>
        <time>2017-08-29T07:52:07Z</time>
      </trkpt>
      <trkpt lat="45.91582" lon="6.50487">
        <ele>2082</ele>
        <time>2017-08-29T07:52:08Z</time>
      </trkpt>
      <trkpt lat="45.91582" lon="6.50487">
        <ele>2082</ele>
        <time>2017-08-29T07:52:09Z</time>
      </trkpt>
      <trkpt lat="45.91582" lon="6.50487">
        <ele>2082</ele>
        <time>2017-08-29T07:52:10Z</time>
      </trkpt>
      <trkpt lat="45.9158" lon="6.50488">
        <ele>2083</ele>
        <time>2017-08-29T07:52:11Z</time>
      </trkpt>
      <trkpt lat="45.9158" lon="6.50488">
        <ele>2083</ele>
        <time>2017-08-29T07:52:12Z</time>
      </trkpt>
      <trkpt lat="45.9158" lon="6.50488">
        <ele>2084</ele>
        <time>2017-08-29T07:52:13Z</time>
      </trkpt>
      <trkpt lat="45.91578" lon="6.50487">
        <ele>2084</ele>
        <time>2017-08-29T07:52:14Z</time>
      </trkpt>
      <trkpt lat="45.91578" lon="6.50487">
        <ele>2084</ele>
        <time>2017-08-29T07:52:15Z</time>
      </trkpt>
      <trkpt lat="45.91578" lon="6.50487">
        <ele>2084</ele>
        <time>2017-08-29T07:52:16Z</time>
      </trkpt>
      <trkpt lat="45.91576" lon="6.50486">
        <ele>2084</ele>
        <time>2017-08-29T07:52:17Z</time>
      </trkpt>
      <trkpt lat="45.91576" lon="6.50486">
        <ele>2084</ele>
        <time>2017-08-29T07:52:18Z</time>
      </trkpt>
      <trkpt lat="45.91576" lon="6.50486">
        <ele>2085</ele>
        <time>2017-08-29T07:52:19Z</time>
      </trkpt>
      <trkpt lat="45.91574" lon="6.50484">
        <ele>2085</ele>
        <time>2017-08-29T07:52:20Z</time>
      </trkpt>
      <trkpt lat="45.91574" lon="6.50484">
        <ele>2085</ele>
        <time>2017-08-29T07:52:21Z</time>
      </trkpt>
      <trkpt lat="45.91574" lon="6.50484">
        <ele>2085</ele>
        <time>2017-08-29T07:52:22Z</time>
      </trkpt>
      <trkpt lat="45.91571" lon="6.50482">
        <ele>2086</ele>
        <time>2017-08-29T07:52:23Z</time>
      </trkpt>
      <trkpt lat="45.91571" lon="6.50482">
        <ele>2086</ele>
        <time>2017-08-29T07:52:24Z</time>
      </trkpt>
      <trkpt lat="45.91571" lon="6.50482">
        <ele>2087</ele>
        <time>2017-08-29T07:52:25Z</time>
      </trkpt>
      <trkpt lat="45.91569" lon="6.50482">
        <ele>2087</ele>
        <time>2017-08-29T07:52:26Z</time>
      </trkpt>
      <trkpt lat="45.91569" lon="6.50482">
        <ele>2087</ele>
        <time>2017-08-29T07:52:27Z</time>
      </trkpt>
      <trkpt lat="45.91569" lon="6.50482">
        <ele>2087</ele>
        <time>2017-08-29T07:52:28Z</time>
      </trkpt>
      <trkpt lat="45.91567" lon="6.50482">
        <ele>2087</ele>
        <time>2017-08-29T07:52:29Z</time>
      </trkpt>
      <trkpt lat="45.91567" lon="6.50482">
        <ele>2088</ele>
        <time>2017-08-29T07:52:30Z</time>
      </trkpt>
      <trkpt lat="45.91567" lon="6.50482">
        <ele>2088</ele>
        <time>2017-08-29T07:52:31Z</time>
      </trkpt>
      <trkpt lat="45.91565" lon="6.50483">
        <ele>2088</ele>
        <time>2017-08-29T07:52:32Z</time>
      </trkpt>
      <trkpt lat="45.91565" lon="6.50483">
        <ele>2088</ele>
        <time>2017-08-29T07:52:33Z</time>
      </trkpt>
      <trkpt lat="45.91563" lon="6.50484">
        <ele>2088</ele>
        <time>2017-08-29T07:52:34Z</time>
      </trkpt>
      <trkpt lat="45.91563" lon="6.50484">
        <ele>2088</ele>
        <time>2017-08-29T07:52:35Z</time>
      </trkpt>
      <trkpt lat="45.91563" lon="6.50484">
        <ele>2088</ele>
        <time>2017-08-29T07:52:36Z</time>
      </trkpt>
      <trkpt lat="45.91561" lon="6.50485">
        <ele>2090</ele>
        <time>2017-08-29T07:52:37Z</time>
      </trkpt>
      <trkpt lat="45.91561" lon="6.50485">
        <ele>2091</ele>
        <time>2017-08-29T07:52:38Z</time>
      </trkpt>
      <trkpt lat="45.91561" lon="6.50485">
        <ele>2091</ele>
        <time>2017-08-29T07:52:39Z</time>
      </trkpt>
      <trkpt lat="45.91559" lon="6.50485">
        <ele>2091</ele>
        <time>2017-08-29T07:52:40Z</time>
      </trkpt>
      <trkpt lat="45.91559" lon="6.50485">
        <ele>2091</ele>
        <time>2017-08-29T07:52:41Z</time>
      </trkpt>
      <trkpt lat="45.91559" lon="6.50485">
        <ele>2091</ele>
        <time>2017-08-29T07:52:42Z</time>
      </trkpt>
      <trkpt lat="45.91557" lon="6.50486">
        <ele>2091</ele>
        <time>2017-08-29T07:52:43Z</time>
      </trkpt>
      <trkpt lat="45.91557" lon="6.50486">
        <ele>2092</ele>
        <time>2017-08-29T07:52:44Z</time>
      </trkpt>
      <trkpt lat="45.91557" lon="6.50486">
        <ele>2092</ele>
        <time>2017-08-29T07:52:45Z</time>
      </trkpt>
      <trkpt lat="45.91555" lon="6.50486">
        <ele>2092</ele>
        <time>2017-08-29T07:52:46Z</time>
      </trkpt>
      <trkpt lat="45.91555" lon="6.50486">
        <ele>2092</ele>
        <time>2017-08-29T07:52:47Z</time>
      </trkpt>
      <trkpt lat="45.91555" lon="6.50486">
        <ele>2092</ele>
        <time>2017-08-29T07:52:48Z</time>
      </trkpt>
      <trkpt lat="45.91553" lon="6.50488">
        <ele>2092</ele>
        <time>2017-08-29T07:52:49Z</time>
      </trkpt>
      <trkpt lat="45.91553" lon="6.50488">
        <ele>2093</ele>
        <time>2017-08-29T07:52:50Z</time>
      </trkpt>
      <trkpt lat="45.91553" lon="6.50488">
        <ele>2093</ele>
        <time>2017-08-29T07:52:51Z</time>
      </trkpt>
      <trkpt lat="45.91551" lon="6.50488">
        <ele>2093</ele>
        <time>2017-08-29T07:52:52Z</time>
      </trkpt>
      <trkpt lat="45.91551" lon="6.50488">
        <ele>2094</ele>
        <time>2017-08-29T07:52:53Z</time>
      </trkpt>
      <trkpt lat="45.91549" lon="6.50488">
        <ele>2094</ele>
        <time>2017-08-29T07:52:54Z</time>
      </trkpt>
      <trkpt lat="45.91549" lon="6.50488">
        <ele>2094</ele>
        <time>2017-08-29T07:52:55Z</time>
      </trkpt>
      <trkpt lat="45.91547" lon="6.50487">
        <ele>2094</ele>
        <time>2017-08-29T07:52:56Z</time>
      </trkpt>
      <trkpt lat="45.91547" lon="6.50487">
        <ele>2095</ele>
        <time>2017-08-29T07:52:57Z</time>
      </trkpt>
      <trkpt lat="45.91545" lon="6.50486">
        <ele>2095</ele>
        <time>2017-08-29T07:52:58Z</time>
      </trkpt>
      <trkpt lat="45.91545" lon="6.50486">
        <ele>2095</ele>
        <time>2017-08-29T07:52:59Z</time>
      </trkpt>
      <trkpt lat="45.91545" lon="6.50486">
        <ele>2096</ele>
        <time>2017-08-29T07:53:00Z</time>
      </trkpt>
      <trkpt lat="45.91543" lon="6.50485">
        <ele>2096</ele>
        <time>2017-08-29T07:53:01Z</time>
      </trkpt>
      <trkpt lat="45.91543" lon="6.50485">
        <ele>2096</ele>
        <time>2017-08-29T07:53:02Z</time>
      </trkpt>
      <trkpt lat="45.91543" lon="6.50485">
        <ele>2096</ele>
        <time>2017-08-29T07:53:03Z</time>
      </trkpt>
      <trkpt lat="45.91541" lon="6.50487">
        <ele>2096</ele>
        <time>2017-08-29T07:53:04Z</time>
      </trkpt>
      <trkpt lat="45.91541" lon="6.50487">
        <ele>2096</ele>
        <time>2017-08-29T07:53:05Z</time>
      </trkpt>
      <trkpt lat="45.9154" lon="6.5049">
        <ele>2096</ele>
        <time>2017-08-29T07:53:06Z</time>
      </trkpt>
      <trkpt lat="45.9154" lon="6.5049">
        <ele>2096</ele>
        <time>2017-08-29T07:53:07Z</time>
      </trkpt>
      <trkpt lat="45.91539" lon="6.50493">
        <ele>2096</ele>
        <time>2017-08-29T07:53:08Z</time>
      </trkpt>
      <trkpt lat="45.91539" lon="6.50493">
        <ele>2097</ele>
        <time>2017-08-29T07:53:09Z</time>
      </trkpt>
      <trkpt lat="45.91537" lon="6.50495">
        <ele>2097</ele>
        <time>2017-08-29T07:53:10Z</time>
      </trkpt>
      <trkpt lat="45.91537" lon="6.50495">
        <ele>2097</ele>
        <time>2017-08-29T07:53:11Z</time>
      </trkpt>
      <trkpt lat="45.91535" lon="6.50497">
        <ele>2097</ele>
        <time>2017-08-29T07:53:12Z</time>
      </trkpt>
      <trkpt lat="45.91535" lon="6.50497">
        <ele>2097</ele>
        <time>2017-08-29T07:53:13Z</time>
      </trkpt>
      <trkpt lat="45.91534" lon="6.505">
        <ele>2097</ele>
        <time>2017-08-29T07:53:14Z</time>
      </trkpt>
      <trkpt lat="45.91534" lon="6.505">
        <ele>2097</ele>
        <time>2017-08-29T07:53:15Z</time>
      </trkpt>
      <trkpt lat="45.91534" lon="6.505">
        <ele>2098</ele>
        <time>2017-08-29T07:53:16Z</time>
      </trkpt>
      <trkpt lat="45.91533" lon="6.50503">
        <ele>2098</ele>
        <time>2017-08-29T07:53:17Z</time>
      </trkpt>
      <trkpt lat="45.91533" lon="6.50503">
        <ele>2098</ele>
        <time>2017-08-29T07:53:18Z</time>
      </trkpt>
      <trkpt lat="45.91533" lon="6.50503">
        <ele>2098</ele>
        <time>2017-08-29T07:53:19Z</time>
      </trkpt>
      <trkpt lat="45.91531" lon="6.50505">
        <ele>2099</ele>
        <time>2017-08-29T07:53:20Z</time>
      </trkpt>
      <trkpt lat="45.91531" lon="6.50505">
        <ele>2099</ele>
        <time>2017-08-29T07:53:21Z</time>
      </trkpt>
      <trkpt lat="45.91531" lon="6.50505">
        <ele>2099</ele>
        <time>2017-08-29T07:53:22Z</time>
      </trkpt>
      <trkpt lat="45.91529" lon="6.50503">
        <ele>2100</ele>
        <time>2017-08-29T07:53:23Z</time>
      </trkpt>
      <trkpt lat="45.91529" lon="6.50503">
        <ele>2100</ele>
        <time>2017-08-29T07:53:24Z</time>
      </trkpt>
      <trkpt lat="45.91527" lon="6.50502">
        <ele>2100</ele>
        <time>2017-08-29T07:53:25Z</time>
      </trkpt>
      <trkpt lat="45.91527" lon="6.50502">
        <ele>2100</ele>
        <time>2017-08-29T07:53:26Z</time>
      </trkpt>
      <trkpt lat="45.91527" lon="6.50502">
        <ele>2100</ele>
        <time>2017-08-29T07:53:27Z</time>
      </trkpt>
      <trkpt lat="45.91525" lon="6.50502">
        <ele>2100</ele>
        <time>2017-08-29T07:53:28Z</time>
      </trkpt>
      <trkpt lat="45.91525" lon="6.50502">
        <ele>2101</ele>
        <time>2017-08-29T07:53:29Z</time>
      </trkpt>
      <trkpt lat="45.91524" lon="6.50503">
        <ele>2101</ele>
        <time>2017-08-29T07:53:30Z</time>
      </trkpt>
      <trkpt lat="45.91524" lon="6.50504">
        <ele>2101</ele>
        <time>2017-08-29T07:53:31Z</time>
      </trkpt>
      <trkpt lat="45.91524" lon="6.50505">
        <ele>2101</ele>
        <time>2017-08-29T07:53:32Z</time>
      </trkpt>
      <trkpt lat="45.91524" lon="6.50506">
        <ele>2101</ele>
        <time>2017-08-29T07:53:33Z</time>
      </trkpt>
      <trkpt lat="45.91523" lon="6.50507">
        <ele>2102</ele>
        <time>2017-08-29T07:53:34Z</time>
      </trkpt>
      <trkpt lat="45.91523" lon="6.50508">
        <ele>2102</ele>
        <time>2017-08-29T07:53:35Z</time>
      </trkpt>
      <trkpt lat="45.91523" lon="6.50508">
        <ele>2103</ele>
        <time>2017-08-29T07:53:36Z</time>
      </trkpt>
      <trkpt lat="45.91523" lon="6.50509">
        <ele>2103</ele>
        <time>2017-08-29T07:53:37Z</time>
      </trkpt>
      <trkpt lat="45.91522" lon="6.5051">
        <ele>2103</ele>
        <time>2017-08-29T07:53:38Z</time>
      </trkpt>
      <trkpt lat="45.91522" lon="6.50511">
        <ele>2103</ele>
        <time>2017-08-29T07:53:39Z</time>
      </trkpt>
      <trkpt lat="45.91522" lon="6.50512">
        <ele>2104</ele>
        <time>2017-08-29T07:53:40Z</time>
      </trkpt>
      <trkpt lat="45.91522" lon="6.50513">
        <ele>2104</ele>
        <time>2017-08-29T07:53:41Z</time>
      </trkpt>
      <trkpt lat="45.91521" lon="6.50514">
        <ele>2104</ele>
        <time>2017-08-29T07:53:42Z</time>
      </trkpt>
      <trkpt lat="45.91521" lon="6.50515">
        <ele>2105</ele>
        <time>2017-08-29T07:53:43Z</time>
      </trkpt>
      <trkpt lat="45.91521" lon="6.50515">
        <ele>2106</ele>
        <time>2017-08-29T07:53:44Z</time>
      </trkpt>
      <trkpt lat="45.91522" lon="6.50517">
        <ele>2106</ele>
        <time>2017-08-29T07:53:45Z</time>
      </trkpt>
      <trkpt lat="45.91522" lon="6.50519">
        <ele>2106</ele>
        <time>2017-08-29T07:53:46Z</time>
      </trkpt>
      <trkpt lat="45.91522" lon="6.50521">
        <ele>2106</ele>
        <time>2017-08-29T07:53:47Z</time>
      </trkpt>
      <trkpt lat="45.91522" lon="6.50523">
        <ele>2106</ele>
        <time>2017-08-29T07:53:48Z</time>
      </trkpt>
      <trkpt lat="45.91522" lon="6.50523">
        <ele>2106</ele>
        <time>2017-08-29T07:53:49Z</time>
      </trkpt>
      <trkpt lat="45.9152" lon="6.50525">
        <ele>2106</ele>
        <time>2017-08-29T07:53:50Z</time>
      </trkpt>
      <trkpt lat="45.9152" lon="6.50525">
        <ele>2106</ele>
        <time>2017-08-29T07:53:51Z</time>
      </trkpt>
      <trkpt lat="45.91518" lon="6.50525">
        <ele>2106</ele>
        <time>2017-08-29T07:53:52Z</time>
      </trkpt>
      <trkpt lat="45.91518" lon="6.50525">
        <ele>2106</ele>
        <time>2017-08-29T07:53:53Z</time>
      </trkpt>
      <trkpt lat="45.91518" lon="6.50525">
        <ele>2106</ele>
        <time>2017-08-29T07:53:54Z</time>
      </trkpt>
      <trkpt lat="45.91516" lon="6.50523">
        <ele>2106</ele>
        <time>2017-08-29T07:53:55Z</time>
      </trkpt>
      <trkpt lat="45.91516" lon="6.50523">
        <ele>2106</ele>
        <time>2017-08-29T07:53:56Z</time>
      </trkpt>
      <trkpt lat="45.91516" lon="6.50523">
        <ele>2106</ele>
        <time>2017-08-29T07:53:57Z</time>
      </trkpt>
      <trkpt lat="45.91514" lon="6.50523">
        <ele>2106</ele>
        <time>2017-08-29T07:53:58Z</time>
      </trkpt>
      <trkpt lat="45.91514" lon="6.50523">
        <ele>2107</ele>
        <time>2017-08-29T07:53:59Z</time>
      </trkpt>
      <trkpt lat="45.91514" lon="6.50523">
        <ele>2108</ele>
        <time>2017-08-29T07:54:00Z</time>
      </trkpt>
      <trkpt lat="45.91511" lon="6.50523">
        <ele>2109</ele>
        <time>2017-08-29T07:54:01Z</time>
      </trkpt>
      <trkpt lat="45.91511" lon="6.50523">
        <ele>2109</ele>
        <time>2017-08-29T07:54:02Z</time>
      </trkpt>
      <trkpt lat="45.91511" lon="6.50523">
        <ele>2109</ele>
        <time>2017-08-29T07:54:03Z</time>
      </trkpt>
      <trkpt lat="45.91509" lon="6.50524">
        <ele>2109</ele>
        <time>2017-08-29T07:54:04Z</time>
      </trkpt>
      <trkpt lat="45.91509" lon="6.50524">
        <ele>2109</ele>
        <time>2017-08-29T07:54:05Z</time>
      </trkpt>
      <trkpt lat="45.91509" lon="6.50524">
        <ele>2109</ele>
        <time>2017-08-29T07:54:06Z</time>
      </trkpt>
      <trkpt lat="45.91508" lon="6.50527">
        <ele>2110</ele>
        <time>2017-08-29T07:54:07Z</time>
      </trkpt>
      <trkpt lat="45.91508" lon="6.50527">
        <ele>2110</ele>
        <time>2017-08-29T07:54:08Z</time>
      </trkpt>
      <trkpt lat="45.91506" lon="6.50529">
        <ele>2111</ele>
        <time>2017-08-29T07:54:09Z</time>
      </trkpt>
      <trkpt lat="45.91506" lon="6.50531">
        <ele>2111</ele>
        <time>2017-08-29T07:54:10Z</time>
      </trkpt>
      <trkpt lat="45.91506" lon="6.50532">
        <ele>2111</ele>
        <time>2017-08-29T07:54:11Z</time>
      </trkpt>
      <trkpt lat="45.91505" lon="6.50534">
        <ele>2111</ele>
        <time>2017-08-29T07:54:12Z</time>
      </trkpt>
      <trkpt lat="45.91505" lon="6.50535">
        <ele>2111</ele>
        <time>2017-08-29T07:54:13Z</time>
      </trkpt>
      <trkpt lat="45.91505" lon="6.50535">
        <ele>2112</ele>
        <time>2017-08-29T07:54:14Z</time>
      </trkpt>
      <trkpt lat="45.91505" lon="6.50538">
        <ele>2112</ele>
        <time>2017-08-29T07:54:15Z</time>
      </trkpt>
      <trkpt lat="45.91505" lon="6.50538">
        <ele>2112</ele>
        <time>2017-08-29T07:54:16Z</time>
      </trkpt>
      <trkpt lat="45.91505" lon="6.50538">
        <ele>2112</ele>
        <time>2017-08-29T07:54:17Z</time>
      </trkpt>
      <trkpt lat="45.91504" lon="6.50542">
        <ele>2112</ele>
        <time>2017-08-29T07:54:18Z</time>
      </trkpt>
      <trkpt lat="45.91504" lon="6.50542">
        <ele>2112</ele>
        <time>2017-08-29T07:54:19Z</time>
      </trkpt>
      <trkpt lat="45.91504" lon="6.50545">
        <ele>2112</ele>
        <time>2017-08-29T07:54:20Z</time>
      </trkpt>
      <trkpt lat="45.91504" lon="6.50545">
        <ele>2112</ele>
        <time>2017-08-29T07:54:21Z</time>
      </trkpt>
      <trkpt lat="45.91504" lon="6.50548">
        <ele>2112</ele>
        <time>2017-08-29T07:54:22Z</time>
      </trkpt>
      <trkpt lat="45.91504" lon="6.50548">
        <ele>2112</ele>
        <time>2017-08-29T07:54:23Z</time>
      </trkpt>
      <trkpt lat="45.91504" lon="6.50548">
        <ele>2113</ele>
        <time>2017-08-29T07:54:24Z</time>
      </trkpt>
      <trkpt lat="45.91504" lon="6.50548">
        <ele>2113</ele>
        <time>2017-08-29T07:54:25Z</time>
      </trkpt>
      <trkpt lat="45.91504" lon="6.50551">
        <ele>2114</ele>
        <time>2017-08-29T07:54:26Z</time>
      </trkpt>
      <trkpt lat="45.91504" lon="6.50551">
        <ele>2114</ele>
        <time>2017-08-29T07:54:27Z</time>
      </trkpt>
      <trkpt lat="45.91504" lon="6.50551">
        <ele>2114</ele>
        <time>2017-08-29T07:54:28Z</time>
      </trkpt>
      <trkpt lat="45.91504" lon="6.50554">
        <ele>2114</ele>
        <time>2017-08-29T07:54:29Z</time>
      </trkpt>
      <trkpt lat="45.91504" lon="6.50554">
        <ele>2114</ele>
        <time>2017-08-29T07:54:30Z</time>
      </trkpt>
      <trkpt lat="45.91504" lon="6.50554">
        <ele>2114</ele>
        <time>2017-08-29T07:54:31Z</time>
      </trkpt>
      <trkpt lat="45.91505" lon="6.50558">
        <ele>2116</ele>
        <time>2017-08-29T07:54:32Z</time>
      </trkpt>
      <trkpt lat="45.91505" lon="6.50558">
        <ele>2116</ele>
        <time>2017-08-29T07:54:33Z</time>
      </trkpt>
      <trkpt lat="45.91505" lon="6.50558">
        <ele>2116</ele>
        <time>2017-08-29T07:54:34Z</time>
      </trkpt>
      <trkpt lat="45.91503" lon="6.50561">
        <ele>2117</ele>
        <time>2017-08-29T07:54:35Z</time>
      </trkpt>
      <trkpt lat="45.91503" lon="6.50561">
        <ele>2117</ele>
        <time>2017-08-29T07:54:36Z</time>
      </trkpt>
      <trkpt lat="45.91503" lon="6.50563">
        <ele>2117</ele>
        <time>2017-08-29T07:54:37Z</time>
      </trkpt>
      <trkpt lat="45.91503" lon="6.50563">
        <ele>2117</ele>
        <time>2017-08-29T07:54:38Z</time>
      </trkpt>
      <trkpt lat="45.91502" lon="6.50566">
        <ele>2118</ele>
        <time>2017-08-29T07:54:39Z</time>
      </trkpt>
      <trkpt lat="45.91502" lon="6.50566">
        <ele>2118</ele>
        <time>2017-08-29T07:54:40Z</time>
      </trkpt>
      <trkpt lat="45.91502" lon="6.50566">
        <ele>2119</ele>
        <time>2017-08-29T07:54:41Z</time>
      </trkpt>
      <trkpt lat="45.91502" lon="6.50566">
        <ele>2119</ele>
        <time>2017-08-29T07:54:42Z</time>
      </trkpt>
      <trkpt lat="45.91502" lon="6.50569">
        <ele>2119</ele>
        <time>2017-08-29T07:54:43Z</time>
      </trkpt>
      <trkpt lat="45.91502" lon="6.50569">
        <ele>2119</ele>
        <time>2017-08-29T07:54:44Z</time>
      </trkpt>
      <trkpt lat="45.91502" lon="6.50569">
        <ele>2119</ele>
        <time>2017-08-29T07:54:45Z</time>
      </trkpt>
      <trkpt lat="45.91502" lon="6.50569">
        <ele>2119</ele>
        <time>2017-08-29T07:54:46Z</time>
      </trkpt>
      <trkpt lat="45.91502" lon="6.50573">
        <ele>2119</ele>
        <time>2017-08-29T07:54:47Z</time>
      </trkpt>
      <trkpt lat="45.91502" lon="6.50573">
        <ele>2119</ele>
        <time>2017-08-29T07:54:48Z</time>
      </trkpt>
      <trkpt lat="45.91502" lon="6.50573">
        <ele>2119</ele>
        <time>2017-08-29T07:54:49Z</time>
      </trkpt>
      <trkpt lat="45.91501" lon="6.50576">
        <ele>2120</ele>
        <time>2017-08-29T07:54:50Z</time>
      </trkpt>
      <trkpt lat="45.91501" lon="6.50576">
        <ele>2121</ele>
        <time>2017-08-29T07:54:51Z</time>
      </trkpt>
      <trkpt lat="45.91501" lon="6.50576">
        <ele>2121</ele>
        <time>2017-08-29T07:54:52Z</time>
      </trkpt>
      <trkpt lat="45.91501" lon="6.50576">
        <ele>2121</ele>
        <time>2017-08-29T07:54:53Z</time>
      </trkpt>
      <trkpt lat="45.915" lon="6.50579">
        <ele>2121</ele>
        <time>2017-08-29T07:54:54Z</time>
      </trkpt>
      <trkpt lat="45.915" lon="6.50579">
        <ele>2121</ele>
        <time>2017-08-29T07:54:55Z</time>
      </trkpt>
      <trkpt lat="45.915" lon="6.50579">
        <ele>2122</ele>
        <time>2017-08-29T07:54:56Z</time>
      </trkpt>
      <trkpt lat="45.91499" lon="6.50581">
        <ele>2122</ele>
        <time>2017-08-29T07:54:57Z</time>
      </trkpt>
      <trkpt lat="45.91499" lon="6.50581">
        <ele>2122</ele>
        <time>2017-08-29T07:54:58Z</time>
      </trkpt>
      <trkpt lat="45.91498" lon="6.50583">
        <ele>2122</ele>
        <time>2017-08-29T07:54:59Z</time>
      </trkpt>
      <trkpt lat="45.91497" lon="6.50582">
        <ele>2122</ele>
        <time>2017-08-29T07:55:00Z</time>
      </trkpt>
      <trkpt lat="45.91495" lon="6.50581">
        <ele>2122</ele>
        <time>2017-08-29T07:55:01Z</time>
      </trkpt>
      <trkpt lat="45.91494" lon="6.50579">
        <ele>2122</ele>
        <time>2017-08-29T07:55:02Z</time>
      </trkpt>
      <trkpt lat="45.91493" lon="6.50578">
        <ele>2122</ele>
        <time>2017-08-29T07:55:03Z</time>
      </trkpt>
      <trkpt lat="45.91492" lon="6.50577">
        <ele>2122</ele>
        <time>2017-08-29T07:55:04Z</time>
      </trkpt>
      <trkpt lat="45.9149" lon="6.50576">
        <ele>2122</ele>
        <time>2017-08-29T07:55:05Z</time>
      </trkpt>
      <trkpt lat="45.91489" lon="6.50575">
        <ele>2123</ele>
        <time>2017-08-29T07:55:06Z</time>
      </trkpt>
      <trkpt lat="45.91489" lon="6.50575">
        <ele>2124</ele>
        <time>2017-08-29T07:55:07Z</time>
      </trkpt>
      <trkpt lat="45.91486" lon="6.50573">
        <ele>2124</ele>
        <time>2017-08-29T07:55:08Z</time>
      </trkpt>
      <trkpt lat="45.91486" lon="6.50573">
        <ele>2124</ele>
        <time>2017-08-29T07:55:09Z</time>
      </trkpt>
      <trkpt lat="45.91486" lon="6.50573">
        <ele>2125</ele>
        <time>2017-08-29T07:55:10Z</time>
      </trkpt>
      <trkpt lat="45.91486" lon="6.50573">
        <ele>2125</ele>
        <time>2017-08-29T07:55:11Z</time>
      </trkpt>
      <trkpt lat="45.91486" lon="6.50573">
        <ele>2125</ele>
        <time>2017-08-29T07:55:12Z</time>
      </trkpt>
      <trkpt lat="45.91486" lon="6.50573">
        <ele>2125</ele>
        <time>2017-08-29T07:55:13Z</time>
      </trkpt>
      <trkpt lat="45.91485" lon="6.50571">
        <ele>2126</ele>
        <time>2017-08-29T07:55:14Z</time>
      </trkpt>
      <trkpt lat="45.91485" lon="6.50571">
        <ele>2126</ele>
        <time>2017-08-29T07:55:15Z</time>
      </trkpt>
      <trkpt lat="45.91485" lon="6.50571">
        <ele>2126</ele>
        <time>2017-08-29T07:55:16Z</time>
      </trkpt>
      <trkpt lat="45.91484" lon="6.50569">
        <ele>2126</ele>
        <time>2017-08-29T07:55:17Z</time>
      </trkpt>
      <trkpt lat="45.91484" lon="6.50569">
        <ele>2126</ele>
        <time>2017-08-29T07:55:18Z</time>
      </trkpt>
      <trkpt lat="45.91484" lon="6.50569">
        <ele>2127</ele>
        <time>2017-08-29T07:55:19Z</time>
      </trkpt>
      <trkpt lat="45.91484" lon="6.50569">
        <ele>2127</ele>
        <time>2017-08-29T07:55:20Z</time>
      </trkpt>
      <trkpt lat="45.91482" lon="6.50568">
        <ele>2127</ele>
        <time>2017-08-29T07:55:21Z</time>
      </trkpt>
      <trkpt lat="45.91482" lon="6.50568">
        <ele>2127</ele>
        <time>2017-08-29T07:55:22Z</time>
      </trkpt>
      <trkpt lat="45.91482" lon="6.50568">
        <ele>2127</ele>
        <time>2017-08-29T07:55:23Z</time>
      </trkpt>
      <trkpt lat="45.9148" lon="6.50566">
        <ele>2127</ele>
        <time>2017-08-29T07:55:24Z</time>
      </trkpt>
      <trkpt lat="45.9148" lon="6.50566">
        <ele>2128</ele>
        <time>2017-08-29T07:55:25Z</time>
      </trkpt>
      <trkpt lat="45.9148" lon="6.50566">
        <ele>2128</ele>
        <time>2017-08-29T07:55:26Z</time>
      </trkpt>
      <trkpt lat="45.91477" lon="6.50563">
        <ele>2128</ele>
        <time>2017-08-29T07:55:27Z</time>
      </trkpt>
      <trkpt lat="45.91477" lon="6.50563">
        <ele>2128</ele>
        <time>2017-08-29T07:55:28Z</time>
      </trkpt>
      <trkpt lat="45.91476" lon="6.50561">
        <ele>2128</ele>
        <time>2017-08-29T07:55:29Z</time>
      </trkpt>
      <trkpt lat="45.91476" lon="6.50561">
        <ele>2128</ele>
        <time>2017-08-29T07:55:30Z</time>
      </trkpt>
      <trkpt lat="45.91475" lon="6.50559">
        <ele>2129</ele>
        <time>2017-08-29T07:55:31Z</time>
      </trkpt>
      <trkpt lat="45.91475" lon="6.50559">
        <ele>2130</ele>
        <time>2017-08-29T07:55:32Z</time>
      </trkpt>
      <trkpt lat="45.91473" lon="6.50557">
        <ele>2130</ele>
        <time>2017-08-29T07:55:33Z</time>
      </trkpt>
      <trkpt lat="45.91473" lon="6.50557">
        <ele>2130</ele>
        <time>2017-08-29T07:55:34Z</time>
      </trkpt>
      <trkpt lat="45.91472" lon="6.50555">
        <ele>2130</ele>
        <time>2017-08-29T07:55:35Z</time>
      </trkpt>
      <trkpt lat="45.91472" lon="6.50555">
        <ele>2131</ele>
        <time>2017-08-29T07:55:36Z</time>
      </trkpt>
      <trkpt lat="45.9147" lon="6.50553">
        <ele>2131</ele>
        <time>2017-08-29T07:55:37Z</time>
      </trkpt>
      <trkpt lat="45.9147" lon="6.50553">
        <ele>2131</ele>
        <time>2017-08-29T07:55:38Z</time>
      </trkpt>
      <trkpt lat="45.9147" lon="6.50553">
        <ele>2131</ele>
        <time>2017-08-29T07:55:39Z</time>
      </trkpt>
      <trkpt lat="45.91469" lon="6.5055">
        <ele>2131</ele>
        <time>2017-08-29T07:55:40Z</time>
      </trkpt>
      <trkpt lat="45.91469" lon="6.5055">
        <ele>2131</ele>
        <time>2017-08-29T07:55:41Z</time>
      </trkpt>
      <trkpt lat="45.91468" lon="6.50547">
        <ele>2132</ele>
        <time>2017-08-29T07:55:42Z</time>
      </trkpt>
      <trkpt lat="45.91468" lon="6.50547">
        <ele>2132</ele>
        <time>2017-08-29T07:55:43Z</time>
      </trkpt>
      <trkpt lat="45.91468" lon="6.50545">
        <ele>2132</ele>
        <time>2017-08-29T07:55:44Z</time>
      </trkpt>
      <trkpt lat="45.91468" lon="6.50545">
        <ele>2132</ele>
        <time>2017-08-29T07:55:45Z</time>
      </trkpt>
      <trkpt lat="45.91468" lon="6.50545">
        <ele>2132</ele>
        <time>2017-08-29T07:55:46Z</time>
      </trkpt>
      <trkpt lat="45.91466" lon="6.50542">
        <ele>2133</ele>
        <time>2017-08-29T07:55:47Z</time>
      </trkpt>
      <trkpt lat="45.91466" lon="6.50542">
        <ele>2133</ele>
        <time>2017-08-29T07:55:48Z</time>
      </trkpt>
      <trkpt lat="45.91464" lon="6.50539">
        <ele>2133</ele>
        <time>2017-08-29T07:55:49Z</time>
      </trkpt>
      <trkpt lat="45.91464" lon="6.50539">
        <ele>2134</ele>
        <time>2017-08-29T07:55:50Z</time>
      </trkpt>
      <trkpt lat="45.91463" lon="6.50535">
        <ele>2134</ele>
        <time>2017-08-29T07:55:51Z</time>
      </trkpt>
      <trkpt lat="45.91463" lon="6.50535">
        <ele>2134</ele>
        <time>2017-08-29T07:55:52Z</time>
      </trkpt>
      <trkpt lat="45.91461" lon="6.50531">
        <ele>2134</ele>
        <time>2017-08-29T07:55:53Z</time>
      </trkpt>
      <trkpt lat="45.9146" lon="6.50529">
        <ele>2134</ele>
        <time>2017-08-29T07:55:54Z</time>
      </trkpt>
      <trkpt lat="45.9146" lon="6.50529">
        <ele>2134</ele>
        <time>2017-08-29T07:55:55Z</time>
      </trkpt>
      <trkpt lat="45.91458" lon="6.50526">
        <ele>2134</ele>
        <time>2017-08-29T07:55:56Z</time>
      </trkpt>
      <trkpt lat="45.91458" lon="6.50526">
        <ele>2134</ele>
        <time>2017-08-29T07:55:57Z</time>
      </trkpt>
      <trkpt lat="45.91458" lon="6.50526">
        <ele>2134</ele>
        <time>2017-08-29T07:55:58Z</time>
      </trkpt>
      <trkpt lat="45.91458" lon="6.50526">
        <ele>2135</ele>
        <time>2017-08-29T07:55:59Z</time>
      </trkpt>
      <trkpt lat="45.91458" lon="6.50526">
        <ele>2135</ele>
        <time>2017-08-29T07:56:00Z</time>
      </trkpt>
      <trkpt lat="45.91458" lon="6.50526">
        <ele>2135</ele>
        <time>2017-08-29T07:56:01Z</time>
      </trkpt>
      <trkpt lat="45.91458" lon="6.50526">
        <ele>2135</ele>
        <time>2017-08-29T07:56:02Z</time>
      </trkpt>
      <trkpt lat="45.91456" lon="6.50525">
        <ele>2135</ele>
        <time>2017-08-29T07:56:04Z</time>
      </trkpt>
      <trkpt lat="45.91456" lon="6.50525">
        <ele>2135</ele>
        <time>2017-08-29T07:56:05Z</time>
      </trkpt>
      <trkpt lat="45.91453" lon="6.50524">
        <ele>2135</ele>
        <time>2017-08-29T07:56:06Z</time>
      </trkpt>
      <trkpt lat="45.91453" lon="6.50524">
        <ele>2135</ele>
        <time>2017-08-29T07:56:07Z</time>
      </trkpt>
      <trkpt lat="45.91451" lon="6.50523">
        <ele>2135</ele>
        <time>2017-08-29T07:56:08Z</time>
      </trkpt>
      <trkpt lat="45.91451" lon="6.50523">
        <ele>2135</ele>
        <time>2017-08-29T07:56:09Z</time>
      </trkpt>
      <trkpt lat="45.91449" lon="6.50522">
        <ele>2136</ele>
        <time>2017-08-29T07:56:10Z</time>
      </trkpt>
      <trkpt lat="45.91449" lon="6.50522">
        <ele>2137</ele>
        <time>2017-08-29T07:56:11Z</time>
      </trkpt>
      <trkpt lat="45.91447" lon="6.5052">
        <ele>2137</ele>
        <time>2017-08-29T07:56:12Z</time>
      </trkpt>
      <trkpt lat="45.91447" lon="6.5052">
        <ele>2137</ele>
        <time>2017-08-29T07:56:13Z</time>
      </trkpt>
      <trkpt lat="45.91446" lon="6.50518">
        <ele>2137</ele>
        <time>2017-08-29T07:56:14Z</time>
      </trkpt>
      <trkpt lat="45.91446" lon="6.50518">
        <ele>2137</ele>
        <time>2017-08-29T07:56:15Z</time>
      </trkpt>
      <trkpt lat="45.91444" lon="6.50517">
        <ele>2137</ele>
        <time>2017-08-29T07:56:16Z</time>
      </trkpt>
      <trkpt lat="45.91444" lon="6.50517">
        <ele>2138</ele>
        <time>2017-08-29T07:56:17Z</time>
      </trkpt>
      <trkpt lat="45.91443" lon="6.50515">
        <ele>2138</ele>
        <time>2017-08-29T07:56:18Z</time>
      </trkpt>
      <trkpt lat="45.91443" lon="6.50515">
        <ele>2139</ele>
        <time>2017-08-29T07:56:19Z</time>
      </trkpt>
      <trkpt lat="45.91443" lon="6.50515">
        <ele>2139</ele>
        <time>2017-08-29T07:56:20Z</time>
      </trkpt>
      <trkpt lat="45.9144" lon="6.50513">
        <ele>2139</ele>
        <time>2017-08-29T07:56:21Z</time>
      </trkpt>
      <trkpt lat="45.9144" lon="6.50513">
        <ele>2140</ele>
        <time>2017-08-29T07:56:22Z</time>
      </trkpt>
      <trkpt lat="45.9144" lon="6.50513">
        <ele>2140</ele>
        <time>2017-08-29T07:56:23Z</time>
      </trkpt>
      <trkpt lat="45.91438" lon="6.50511">
        <ele>2140</ele>
        <time>2017-08-29T07:56:24Z</time>
      </trkpt>
      <trkpt lat="45.91438" lon="6.50511">
        <ele>2140</ele>
        <time>2017-08-29T07:56:25Z</time>
      </trkpt>
      <trkpt lat="45.91438" lon="6.50511">
        <ele>2140</ele>
        <time>2017-08-29T07:56:26Z</time>
      </trkpt>
      <trkpt lat="45.91436" lon="6.50511">
        <ele>2140</ele>
        <time>2017-08-29T07:56:27Z</time>
      </trkpt>
      <trkpt lat="45.91436" lon="6.50511">
        <ele>2140</ele>
        <time>2017-08-29T07:56:28Z</time>
      </trkpt>
      <trkpt lat="45.91434" lon="6.50512">
        <ele>2140</ele>
        <time>2017-08-29T07:56:29Z</time>
      </trkpt>
      <trkpt lat="45.91434" lon="6.50512">
        <ele>2142</ele>
        <time>2017-08-29T07:56:30Z</time>
      </trkpt>
      <trkpt lat="45.91432" lon="6.50512">
        <ele>2142</ele>
        <time>2017-08-29T07:56:31Z</time>
      </trkpt>
      <trkpt lat="45.91432" lon="6.50512">
        <ele>2143</ele>
        <time>2017-08-29T07:56:32Z</time>
      </trkpt>
      <trkpt lat="45.9143" lon="6.50513">
        <ele>2143</ele>
        <time>2017-08-29T07:56:33Z</time>
      </trkpt>
      <trkpt lat="45.9143" lon="6.50513">
        <ele>2143</ele>
        <time>2017-08-29T07:56:34Z</time>
      </trkpt>
      <trkpt lat="45.91427" lon="6.50513">
        <ele>2143</ele>
        <time>2017-08-29T07:56:35Z</time>
      </trkpt>
      <trkpt lat="45.91427" lon="6.50513">
        <ele>2143</ele>
        <time>2017-08-29T07:56:36Z</time>
      </trkpt>
      <trkpt lat="45.91425" lon="6.50512">
        <ele>2143</ele>
        <time>2017-08-29T07:56:37Z</time>
      </trkpt>
      <trkpt lat="45.91425" lon="6.50512">
        <ele>2143</ele>
        <time>2017-08-29T07:56:38Z</time>
      </trkpt>
      <trkpt lat="45.91423" lon="6.50512">
        <ele>2144</ele>
        <time>2017-08-29T07:56:39Z</time>
      </trkpt>
      <trkpt lat="45.91423" lon="6.50512">
        <ele>2144</ele>
        <time>2017-08-29T07:56:40Z</time>
      </trkpt>
      <trkpt lat="45.9142" lon="6.50511">
        <ele>2144</ele>
        <time>2017-08-29T07:56:41Z</time>
      </trkpt>
      <trkpt lat="45.9142" lon="6.50511">
        <ele>2144</ele>
        <time>2017-08-29T07:56:42Z</time>
      </trkpt>
      <trkpt lat="45.91418" lon="6.50511">
        <ele>2144</ele>
        <time>2017-08-29T07:56:43Z</time>
      </trkpt>
      <trkpt lat="45.91418" lon="6.50511">
        <ele>2144</ele>
        <time>2017-08-29T07:56:44Z</time>
      </trkpt>
      <trkpt lat="45.91416" lon="6.50509">
        <ele>2144</ele>
        <time>2017-08-29T07:56:45Z</time>
      </trkpt>
      <trkpt lat="45.91416" lon="6.50509">
        <ele>2145</ele>
        <time>2017-08-29T07:56:46Z</time>
      </trkpt>
      <trkpt lat="45.91414" lon="6.50508">
        <ele>2145</ele>
        <time>2017-08-29T07:56:47Z</time>
      </trkpt>
      <trkpt lat="45.91414" lon="6.50508">
        <ele>2145</ele>
        <time>2017-08-29T07:56:48Z</time>
      </trkpt>
      <trkpt lat="45.91413" lon="6.50506">
        <ele>2146</ele>
        <time>2017-08-29T07:56:49Z</time>
      </trkpt>
      <trkpt lat="45.91413" lon="6.50506">
        <ele>2146</ele>
        <time>2017-08-29T07:56:50Z</time>
      </trkpt>
      <trkpt lat="45.91413" lon="6.50506">
        <ele>2146</ele>
        <time>2017-08-29T07:56:51Z</time>
      </trkpt>
      <trkpt lat="45.91413" lon="6.50506">
        <ele>2146</ele>
        <time>2017-08-29T07:56:52Z</time>
      </trkpt>
      <trkpt lat="45.91413" lon="6.50506">
        <ele>2146</ele>
        <time>2017-08-29T07:56:53Z</time>
      </trkpt>
      <trkpt lat="45.91411" lon="6.50506">
        <ele>2147</ele>
        <time>2017-08-29T07:56:54Z</time>
      </trkpt>
      <trkpt lat="45.91411" lon="6.50506">
        <ele>2147</ele>
        <time>2017-08-29T07:56:55Z</time>
      </trkpt>
      <trkpt lat="45.91411" lon="6.50506">
        <ele>2147</ele>
        <time>2017-08-29T07:56:56Z</time>
      </trkpt>
      <trkpt lat="45.9141" lon="6.50509">
        <ele>2147</ele>
        <time>2017-08-29T07:56:57Z</time>
      </trkpt>
      <trkpt lat="45.9141" lon="6.50509">
        <ele>2147</ele>
        <time>2017-08-29T07:56:58Z</time>
      </trkpt>
      <trkpt lat="45.91408" lon="6.50507">
        <ele>2148</ele>
        <time>2017-08-29T07:56:59Z</time>
      </trkpt>
      <trkpt lat="45.91408" lon="6.50507">
        <ele>2148</ele>
        <time>2017-08-29T07:57:00Z</time>
      </trkpt>
      <trkpt lat="45.91408" lon="6.50507">
        <ele>2148</ele>
        <time>2017-08-29T07:57:01Z</time>
      </trkpt>
      <trkpt lat="45.91408" lon="6.50507">
        <ele>2148</ele>
        <time>2017-08-29T07:57:02Z</time>
      </trkpt>
      <trkpt lat="45.91408" lon="6.50507">
        <ele>2149</ele>
        <time>2017-08-29T07:57:03Z</time>
      </trkpt>
      <trkpt lat="45.91406" lon="6.50511">
        <ele>2149</ele>
        <time>2017-08-29T07:57:04Z</time>
      </trkpt>
      <trkpt lat="45.91406" lon="6.50511">
        <ele>2149</ele>
        <time>2017-08-29T07:57:05Z</time>
      </trkpt>
      <trkpt lat="45.91406" lon="6.50511">
        <ele>2149</ele>
        <time>2017-08-29T07:57:06Z</time>
      </trkpt>
      <trkpt lat="45.91406" lon="6.50513">
        <ele>2150</ele>
        <time>2017-08-29T07:57:07Z</time>
      </trkpt>
      <trkpt lat="45.91406" lon="6.50513">
        <ele>2151</ele>
        <time>2017-08-29T07:57:08Z</time>
      </trkpt>
      <trkpt lat="45.91406" lon="6.50513">
        <ele>2151</ele>
        <time>2017-08-29T07:57:09Z</time>
      </trkpt>
      <trkpt lat="45.91406" lon="6.50513">
        <ele>2151</ele>
        <time>2017-08-29T07:57:10Z</time>
      </trkpt>
      <trkpt lat="45.91406" lon="6.50518">
        <ele>2151</ele>
        <time>2017-08-29T07:57:11Z</time>
      </trkpt>
      <trkpt lat="45.91406" lon="6.50518">
        <ele>2152</ele>
        <time>2017-08-29T07:57:12Z</time>
      </trkpt>
      <trkpt lat="45.91406" lon="6.50518">
        <ele>2152</ele>
        <time>2017-08-29T07:57:13Z</time>
      </trkpt>
      <trkpt lat="45.91405" lon="6.5052">
        <ele>2152</ele>
        <time>2017-08-29T07:57:14Z</time>
      </trkpt>
      <trkpt lat="45.91405" lon="6.5052">
        <ele>2152</ele>
        <time>2017-08-29T07:57:15Z</time>
      </trkpt>
      <trkpt lat="45.91405" lon="6.5052">
        <ele>2152</ele>
        <time>2017-08-29T07:57:16Z</time>
      </trkpt>
      <trkpt lat="45.91405" lon="6.50524">
        <ele>2153</ele>
        <time>2017-08-29T07:57:17Z</time>
      </trkpt>
      <trkpt lat="45.91405" lon="6.50524">
        <ele>2153</ele>
        <time>2017-08-29T07:57:18Z</time>
      </trkpt>
      <trkpt lat="45.91404" lon="6.50527">
        <ele>2153</ele>
        <time>2017-08-29T07:57:19Z</time>
      </trkpt>
      <trkpt lat="45.91404" lon="6.50527">
        <ele>2153</ele>
        <time>2017-08-29T07:57:20Z</time>
      </trkpt>
      <trkpt lat="45.91403" lon="6.50529">
        <ele>2153</ele>
        <time>2017-08-29T07:57:21Z</time>
      </trkpt>
      <trkpt lat="45.91403" lon="6.50529">
        <ele>2154</ele>
        <time>2017-08-29T07:57:22Z</time>
      </trkpt>
      <trkpt lat="45.91402" lon="6.50533">
        <ele>2154</ele>
        <time>2017-08-29T07:57:23Z</time>
      </trkpt>
      <trkpt lat="45.91402" lon="6.50533">
        <ele>2154</ele>
        <time>2017-08-29T07:57:24Z</time>
      </trkpt>
      <trkpt lat="45.91401" lon="6.50536">
        <ele>2154</ele>
        <time>2017-08-29T07:57:25Z</time>
      </trkpt>
      <trkpt lat="45.91401" lon="6.50536">
        <ele>2155</ele>
        <time>2017-08-29T07:57:26Z</time>
      </trkpt>
      <trkpt lat="45.914" lon="6.50539">
        <ele>2155</ele>
        <time>2017-08-29T07:57:27Z</time>
      </trkpt>
      <trkpt lat="45.914" lon="6.50539">
        <ele>2155</ele>
        <time>2017-08-29T07:57:28Z</time>
      </trkpt>
      <trkpt lat="45.91399" lon="6.50542">
        <ele>2155</ele>
        <time>2017-08-29T07:57:29Z</time>
      </trkpt>
      <trkpt lat="45.91399" lon="6.50542">
        <ele>2155</ele>
        <time>2017-08-29T07:57:30Z</time>
      </trkpt>
      <trkpt lat="45.91398" lon="6.50546">
        <ele>2155</ele>
        <time>2017-08-29T07:57:31Z</time>
      </trkpt>
      <trkpt lat="45.91398" lon="6.50546">
        <ele>2156</ele>
        <time>2017-08-29T07:57:32Z</time>
      </trkpt>
      <trkpt lat="45.91397" lon="6.50549">
        <ele>2156</ele>
        <time>2017-08-29T07:57:33Z</time>
      </trkpt>
      <trkpt lat="45.91397" lon="6.50549">
        <ele>2156</ele>
        <time>2017-08-29T07:57:34Z</time>
      </trkpt>
      <trkpt lat="45.91396" lon="6.50551">
        <ele>2157</ele>
        <time>2017-08-29T07:57:35Z</time>
      </trkpt>
      <trkpt lat="45.91396" lon="6.50551">
        <ele>2157</ele>
        <time>2017-08-29T07:57:36Z</time>
      </trkpt>
      <trkpt lat="45.91396" lon="6.50554">
        <ele>2157</ele>
        <time>2017-08-29T07:57:37Z</time>
      </trkpt>
      <trkpt lat="45.91396" lon="6.50554">
        <ele>2157</ele>
        <time>2017-08-29T07:57:38Z</time>
      </trkpt>
      <trkpt lat="45.91396" lon="6.50557">
        <ele>2158</ele>
        <time>2017-08-29T07:57:39Z</time>
      </trkpt>
      <trkpt lat="45.91396" lon="6.50557">
        <ele>2158</ele>
        <time>2017-08-29T07:57:40Z</time>
      </trkpt>
      <trkpt lat="45.91396" lon="6.5056">
        <ele>2158</ele>
        <time>2017-08-29T07:57:41Z</time>
      </trkpt>
      <trkpt lat="45.91396" lon="6.5056">
        <ele>2158</ele>
        <time>2017-08-29T07:57:42Z</time>
      </trkpt>
      <trkpt lat="45.91396" lon="6.50564">
        <ele>2158</ele>
        <time>2017-08-29T07:57:43Z</time>
      </trkpt>
      <trkpt lat="45.91396" lon="6.50564">
        <ele>2158</ele>
        <time>2017-08-29T07:57:44Z</time>
      </trkpt>
      <trkpt lat="45.91397" lon="6.50568">
        <ele>2159</ele>
        <time>2017-08-29T07:57:45Z</time>
      </trkpt>
      <trkpt lat="45.91397" lon="6.50568">
        <ele>2159</ele>
        <time>2017-08-29T07:57:46Z</time>
      </trkpt>
      <trkpt lat="45.91398" lon="6.50572">
        <ele>2159</ele>
        <time>2017-08-29T07:57:47Z</time>
      </trkpt>
      <trkpt lat="45.91398" lon="6.50572">
        <ele>2159</ele>
        <time>2017-08-29T07:57:48Z</time>
      </trkpt>
      <trkpt lat="45.914" lon="6.50574">
        <ele>2159</ele>
        <time>2017-08-29T07:57:49Z</time>
      </trkpt>
      <trkpt lat="45.914" lon="6.50574">
        <ele>2159</ele>
        <time>2017-08-29T07:57:50Z</time>
      </trkpt>
      <trkpt lat="45.914" lon="6.50578">
        <ele>2159</ele>
        <time>2017-08-29T07:57:51Z</time>
      </trkpt>
      <trkpt lat="45.91401" lon="6.5058">
        <ele>2159</ele>
        <time>2017-08-29T07:57:52Z</time>
      </trkpt>
      <trkpt lat="45.91401" lon="6.50581">
        <ele>2160</ele>
        <time>2017-08-29T07:57:53Z</time>
      </trkpt>
      <trkpt lat="45.91401" lon="6.50583">
        <ele>2160</ele>
        <time>2017-08-29T07:57:54Z</time>
      </trkpt>
      <trkpt lat="45.91401" lon="6.50583">
        <ele>2161</ele>
        <time>2017-08-29T07:57:55Z</time>
      </trkpt>
      <trkpt lat="45.91402" lon="6.50586">
        <ele>2161</ele>
        <time>2017-08-29T07:57:56Z</time>
      </trkpt>
      <trkpt lat="45.91402" lon="6.50586">
        <ele>2161</ele>
        <time>2017-08-29T07:57:57Z</time>
      </trkpt>
      <trkpt lat="45.91403" lon="6.50589">
        <ele>2161</ele>
        <time>2017-08-29T07:57:58Z</time>
      </trkpt>
      <trkpt lat="45.91403" lon="6.50589">
        <ele>2161</ele>
        <time>2017-08-29T07:57:59Z</time>
      </trkpt>
      <trkpt lat="45.91405" lon="6.5059">
        <ele>2162</ele>
        <time>2017-08-29T07:58:00Z</time>
      </trkpt>
      <trkpt lat="45.91405" lon="6.5059">
        <ele>2162</ele>
        <time>2017-08-29T07:58:01Z</time>
      </trkpt>
      <trkpt lat="45.91405" lon="6.5059">
        <ele>2163</ele>
        <time>2017-08-29T07:58:02Z</time>
      </trkpt>
      <trkpt lat="45.91405" lon="6.5059">
        <ele>2163</ele>
        <time>2017-08-29T07:58:03Z</time>
      </trkpt>
      <trkpt lat="45.91407" lon="6.50591">
        <ele>2163</ele>
        <time>2017-08-29T07:58:04Z</time>
      </trkpt>
      <trkpt lat="45.91407" lon="6.50591">
        <ele>2163</ele>
        <time>2017-08-29T07:58:05Z</time>
      </trkpt>
      <trkpt lat="45.91407" lon="6.50591">
        <ele>2163</ele>
        <time>2017-08-29T07:58:06Z</time>
      </trkpt>
      <trkpt lat="45.91409" lon="6.50594">
        <ele>2163</ele>
        <time>2017-08-29T07:58:07Z</time>
      </trkpt>
      <trkpt lat="45.91409" lon="6.50594">
        <ele>2163</ele>
        <time>2017-08-29T07:58:08Z</time>
      </trkpt>
      <trkpt lat="45.91409" lon="6.50594">
        <ele>2163</ele>
        <time>2017-08-29T07:58:09Z</time>
      </trkpt>
      <trkpt lat="45.91409" lon="6.50594">
        <ele>2163</ele>
        <time>2017-08-29T07:58:10Z</time>
      </trkpt>
      <trkpt lat="45.91411" lon="6.50596">
        <ele>2163</ele>
        <time>2017-08-29T07:58:11Z</time>
      </trkpt>
      <trkpt lat="45.91411" lon="6.50596">
        <ele>2163</ele>
        <time>2017-08-29T07:58:12Z</time>
      </trkpt>
      <trkpt lat="45.91413" lon="6.506">
        <ele>2163</ele>
        <time>2017-08-29T07:58:13Z</time>
      </trkpt>
      <trkpt lat="45.91413" lon="6.506">
        <ele>2163</ele>
        <time>2017-08-29T07:58:14Z</time>
      </trkpt>
      <trkpt lat="45.91414" lon="6.50604">
        <ele>2163</ele>
        <time>2017-08-29T07:58:15Z</time>
      </trkpt>
      <trkpt lat="45.91414" lon="6.50604">
        <ele>2164</ele>
        <time>2017-08-29T07:58:16Z</time>
      </trkpt>
      <trkpt lat="45.91413" lon="6.50608">
        <ele>2164</ele>
        <time>2017-08-29T07:58:17Z</time>
      </trkpt>
      <trkpt lat="45.91413" lon="6.50608">
        <ele>2164</ele>
        <time>2017-08-29T07:58:18Z</time>
      </trkpt>
      <trkpt lat="45.91414" lon="6.50612">
        <ele>2164</ele>
        <time>2017-08-29T07:58:19Z</time>
      </trkpt>
      <trkpt lat="45.91414" lon="6.50612">
        <ele>2164</ele>
        <time>2017-08-29T07:58:20Z</time>
      </trkpt>
      <trkpt lat="45.91414" lon="6.50615">
        <ele>2165</ele>
        <time>2017-08-29T07:58:21Z</time>
      </trkpt>
      <trkpt lat="45.91414" lon="6.50615">
        <ele>2166</ele>
        <time>2017-08-29T07:58:22Z</time>
      </trkpt>
      <trkpt lat="45.91414" lon="6.50619">
        <ele>2166</ele>
        <time>2017-08-29T07:58:23Z</time>
      </trkpt>
      <trkpt lat="45.91414" lon="6.50619">
        <ele>2166</ele>
        <time>2017-08-29T07:58:24Z</time>
      </trkpt>
      <trkpt lat="45.91413" lon="6.50622">
        <ele>2166</ele>
        <time>2017-08-29T07:58:25Z</time>
      </trkpt>
      <trkpt lat="45.91413" lon="6.50622">
        <ele>2166</ele>
        <time>2017-08-29T07:58:26Z</time>
      </trkpt>
      <trkpt lat="45.91412" lon="6.50624">
        <ele>2166</ele>
        <time>2017-08-29T07:58:27Z</time>
      </trkpt>
      <trkpt lat="45.91412" lon="6.50624">
        <ele>2167</ele>
        <time>2017-08-29T07:58:28Z</time>
      </trkpt>
      <trkpt lat="45.91411" lon="6.50626">
        <ele>2167</ele>
        <time>2017-08-29T07:58:29Z</time>
      </trkpt>
      <trkpt lat="45.91411" lon="6.50626">
        <ele>2167</ele>
        <time>2017-08-29T07:58:30Z</time>
      </trkpt>
      <trkpt lat="45.91411" lon="6.50626">
        <ele>2167</ele>
        <time>2017-08-29T07:58:31Z</time>
      </trkpt>
      <trkpt lat="45.91411" lon="6.50629">
        <ele>2168</ele>
        <time>2017-08-29T07:58:32Z</time>
      </trkpt>
      <trkpt lat="45.91411" lon="6.50629">
        <ele>2168</ele>
        <time>2017-08-29T07:58:33Z</time>
      </trkpt>
      <trkpt lat="45.91413" lon="6.50631">
        <ele>2168</ele>
        <time>2017-08-29T07:58:34Z</time>
      </trkpt>
      <trkpt lat="45.91413" lon="6.50631">
        <ele>2168</ele>
        <time>2017-08-29T07:58:35Z</time>
      </trkpt>
      <trkpt lat="45.91413" lon="6.50634">
        <ele>2168</ele>
        <time>2017-08-29T07:58:36Z</time>
      </trkpt>
      <trkpt lat="45.91413" lon="6.50634">
        <ele>2168</ele>
        <time>2017-08-29T07:58:37Z</time>
      </trkpt>
      <trkpt lat="45.91413" lon="6.50634">
        <ele>2168</ele>
        <time>2017-08-29T07:58:38Z</time>
      </trkpt>
      <trkpt lat="45.91412" lon="6.50637">
        <ele>2169</ele>
        <time>2017-08-29T07:58:39Z</time>
      </trkpt>
      <trkpt lat="45.91412" lon="6.50637">
        <ele>2169</ele>
        <time>2017-08-29T07:58:40Z</time>
      </trkpt>
      <trkpt lat="45.91411" lon="6.5064">
        <ele>2170</ele>
        <time>2017-08-29T07:58:41Z</time>
      </trkpt>
      <trkpt lat="45.91411" lon="6.5064">
        <ele>2170</ele>
        <time>2017-08-29T07:58:42Z</time>
      </trkpt>
      <trkpt lat="45.9141" lon="6.50643">
        <ele>2170</ele>
        <time>2017-08-29T07:58:43Z</time>
      </trkpt>
      <trkpt lat="45.9141" lon="6.50643">
        <ele>2170</ele>
        <time>2017-08-29T07:58:44Z</time>
      </trkpt>
      <trkpt lat="45.91409" lon="6.50646">
        <ele>2170</ele>
        <time>2017-08-29T07:58:45Z</time>
      </trkpt>
      <trkpt lat="45.91409" lon="6.50646">
        <ele>2171</ele>
        <time>2017-08-29T07:58:46Z</time>
      </trkpt>
      <trkpt lat="45.91408" lon="6.5065">
        <ele>2171</ele>
        <time>2017-08-29T07:58:47Z</time>
      </trkpt>
      <trkpt lat="45.91408" lon="6.5065">
        <ele>2171</ele>
        <time>2017-08-29T07:58:48Z</time>
      </trkpt>
      <trkpt lat="45.91408" lon="6.50654">
        <ele>2171</ele>
        <time>2017-08-29T07:58:49Z</time>
      </trkpt>
      <trkpt lat="45.91408" lon="6.50654">
        <ele>2171</ele>
        <time>2017-08-29T07:58:50Z</time>
      </trkpt>
      <trkpt lat="45.91408" lon="6.50658">
        <ele>2171</ele>
        <time>2017-08-29T07:58:51Z</time>
      </trkpt>
      <trkpt lat="45.91408" lon="6.50658">
        <ele>2171</ele>
        <time>2017-08-29T07:58:52Z</time>
      </trkpt>
      <trkpt lat="45.91408" lon="6.50658">
        <ele>2172</ele>
        <time>2017-08-29T07:58:53Z</time>
      </trkpt>
      <trkpt lat="45.91409" lon="6.50661">
        <ele>2172</ele>
        <time>2017-08-29T07:58:54Z</time>
      </trkpt>
      <trkpt lat="45.91409" lon="6.50661">
        <ele>2172</ele>
        <time>2017-08-29T07:58:55Z</time>
      </trkpt>
      <trkpt lat="45.91409" lon="6.50661">
        <ele>2172</ele>
        <time>2017-08-29T07:58:56Z</time>
      </trkpt>
      <trkpt lat="45.9141" lon="6.50664">
        <ele>2173</ele>
        <time>2017-08-29T07:58:57Z</time>
      </trkpt>
      <trkpt lat="45.9141" lon="6.50664">
        <ele>2173</ele>
        <time>2017-08-29T07:58:58Z</time>
      </trkpt>
      <trkpt lat="45.9141" lon="6.50664">
        <ele>2173</ele>
        <time>2017-08-29T07:58:59Z</time>
      </trkpt>
      <trkpt lat="45.91412" lon="6.50667">
        <ele>2173</ele>
        <time>2017-08-29T07:59:00Z</time>
      </trkpt>
      <trkpt lat="45.91412" lon="6.50667">
        <ele>2173</ele>
        <time>2017-08-29T07:59:01Z</time>
      </trkpt>
      <trkpt lat="45.91412" lon="6.50667">
        <ele>2174</ele>
        <time>2017-08-29T07:59:02Z</time>
      </trkpt>
      <trkpt lat="45.91413" lon="6.50669">
        <ele>2174</ele>
        <time>2017-08-29T07:59:03Z</time>
      </trkpt>
      <trkpt lat="45.91413" lon="6.50669">
        <ele>2174</ele>
        <time>2017-08-29T07:59:04Z</time>
      </trkpt>
      <trkpt lat="45.91415" lon="6.50672">
        <ele>2174</ele>
        <time>2017-08-29T07:59:05Z</time>
      </trkpt>
      <trkpt lat="45.91415" lon="6.50672">
        <ele>2174</ele>
        <time>2017-08-29T07:59:06Z</time>
      </trkpt>
      <trkpt lat="45.91416" lon="6.50674">
        <ele>2175</ele>
        <time>2017-08-29T07:59:07Z</time>
      </trkpt>
      <trkpt lat="45.91416" lon="6.50674">
        <ele>2175</ele>
        <time>2017-08-29T07:59:08Z</time>
      </trkpt>
      <trkpt lat="45.91416" lon="6.50674">
        <ele>2175</ele>
        <time>2017-08-29T07:59:09Z</time>
      </trkpt>
      <trkpt lat="45.91418" lon="6.50677">
        <ele>2175</ele>
        <time>2017-08-29T07:59:10Z</time>
      </trkpt>
      <trkpt lat="45.91418" lon="6.50677">
        <ele>2175</ele>
        <time>2017-08-29T07:59:11Z</time>
      </trkpt>
      <trkpt lat="45.91418" lon="6.50677">
        <ele>2176</ele>
        <time>2017-08-29T07:59:12Z</time>
      </trkpt>
      <trkpt lat="45.91416" lon="6.50678">
        <ele>2176</ele>
        <time>2017-08-29T07:59:13Z</time>
      </trkpt>
      <trkpt lat="45.91416" lon="6.50678">
        <ele>2177</ele>
        <time>2017-08-29T07:59:14Z</time>
      </trkpt>
      <trkpt lat="45.91416" lon="6.50678">
        <ele>2177</ele>
        <time>2017-08-29T07:59:15Z</time>
      </trkpt>
      <trkpt lat="45.91416" lon="6.50681">
        <ele>2177</ele>
        <time>2017-08-29T07:59:16Z</time>
      </trkpt>
      <trkpt lat="45.91416" lon="6.50681">
        <ele>2178</ele>
        <time>2017-08-29T07:59:17Z</time>
      </trkpt>
      <trkpt lat="45.91415" lon="6.50684">
        <ele>2178</ele>
        <time>2017-08-29T07:59:18Z</time>
      </trkpt>
      <trkpt lat="45.91415" lon="6.50684">
        <ele>2178</ele>
        <time>2017-08-29T07:59:19Z</time>
      </trkpt>
      <trkpt lat="45.91415" lon="6.50688">
        <ele>2178</ele>
        <time>2017-08-29T07:59:20Z</time>
      </trkpt>
      <trkpt lat="45.91415" lon="6.50688">
        <ele>2178</ele>
        <time>2017-08-29T07:59:21Z</time>
      </trkpt>
      <trkpt lat="45.91415" lon="6.50693">
        <ele>2178</ele>
        <time>2017-08-29T07:59:22Z</time>
      </trkpt>
      <trkpt lat="45.91415" lon="6.50693">
        <ele>2179</ele>
        <time>2017-08-29T07:59:23Z</time>
      </trkpt>
      <trkpt lat="45.91416" lon="6.50696">
        <ele>2179</ele>
        <time>2017-08-29T07:59:24Z</time>
      </trkpt>
      <trkpt lat="45.91416" lon="6.50696">
        <ele>2179</ele>
        <time>2017-08-29T07:59:25Z</time>
      </trkpt>
      <trkpt lat="45.91416" lon="6.507">
        <ele>2179</ele>
        <time>2017-08-29T07:59:26Z</time>
      </trkpt>
      <trkpt lat="45.91416" lon="6.507">
        <ele>2179</ele>
        <time>2017-08-29T07:59:27Z</time>
      </trkpt>
      <trkpt lat="45.91415" lon="6.50703">
        <ele>2179</ele>
        <time>2017-08-29T07:59:28Z</time>
      </trkpt>
      <trkpt lat="45.91415" lon="6.50703">
        <ele>2180</ele>
        <time>2017-08-29T07:59:29Z</time>
      </trkpt>
      <trkpt lat="45.91415" lon="6.50703">
        <ele>2180</ele>
        <time>2017-08-29T07:59:30Z</time>
      </trkpt>
      <trkpt lat="45.91416" lon="6.50707">
        <ele>2180</ele>
        <time>2017-08-29T07:59:31Z</time>
      </trkpt>
      <trkpt lat="45.91416" lon="6.50707">
        <ele>2180</ele>
        <time>2017-08-29T07:59:32Z</time>
      </trkpt>
      <trkpt lat="45.91417" lon="6.50711">
        <ele>2181</ele>
        <time>2017-08-29T07:59:33Z</time>
      </trkpt>
      <trkpt lat="45.91417" lon="6.50711">
        <ele>2181</ele>
        <time>2017-08-29T07:59:34Z</time>
      </trkpt>
      <trkpt lat="45.91417" lon="6.50713">
        <ele>2181</ele>
        <time>2017-08-29T07:59:35Z</time>
      </trkpt>
      <trkpt lat="45.91417" lon="6.50713">
        <ele>2182</ele>
        <time>2017-08-29T07:59:36Z</time>
      </trkpt>
      <trkpt lat="45.91418" lon="6.50716">
        <ele>2182</ele>
        <time>2017-08-29T07:59:37Z</time>
      </trkpt>
      <trkpt lat="45.91418" lon="6.50716">
        <ele>2182</ele>
        <time>2017-08-29T07:59:38Z</time>
      </trkpt>
      <trkpt lat="45.91418" lon="6.50719">
        <ele>2183</ele>
        <time>2017-08-29T07:59:39Z</time>
      </trkpt>
      <trkpt lat="45.91418" lon="6.50719">
        <ele>2183</ele>
        <time>2017-08-29T07:59:40Z</time>
      </trkpt>
      <trkpt lat="45.91419" lon="6.50721">
        <ele>2183</ele>
        <time>2017-08-29T07:59:41Z</time>
      </trkpt>
      <trkpt lat="45.91419" lon="6.50721">
        <ele>2183</ele>
        <time>2017-08-29T07:59:42Z</time>
      </trkpt>
      <trkpt lat="45.9142" lon="6.50724">
        <ele>2183</ele>
        <time>2017-08-29T07:59:43Z</time>
      </trkpt>
      <trkpt lat="45.9142" lon="6.50724">
        <ele>2183</ele>
        <time>2017-08-29T07:59:44Z</time>
      </trkpt>
      <trkpt lat="45.9142" lon="6.50724">
        <ele>2185</ele>
        <time>2017-08-29T07:59:45Z</time>
      </trkpt>
      <trkpt lat="45.91421" lon="6.50726">
        <ele>2185</ele>
        <time>2017-08-29T07:59:46Z</time>
      </trkpt>
      <trkpt lat="45.91421" lon="6.50726">
        <ele>2185</ele>
        <time>2017-08-29T07:59:47Z</time>
      </trkpt>
      <trkpt lat="45.91421" lon="6.50726">
        <ele>2185</ele>
        <time>2017-08-29T07:59:48Z</time>
      </trkpt>
      <trkpt lat="45.91423" lon="6.50728">
        <ele>2185</ele>
        <time>2017-08-29T07:59:49Z</time>
      </trkpt>
      <trkpt lat="45.91423" lon="6.50728">
        <ele>2186</ele>
        <time>2017-08-29T07:59:50Z</time>
      </trkpt>
      <trkpt lat="45.91423" lon="6.50728">
        <ele>2186</ele>
        <time>2017-08-29T07:59:51Z</time>
      </trkpt>
      <trkpt lat="45.91423" lon="6.50728">
        <ele>2186</ele>
        <time>2017-08-29T07:59:52Z</time>
      </trkpt>
      <trkpt lat="45.91425" lon="6.50728">
        <ele>2186</ele>
        <time>2017-08-29T07:59:53Z</time>
      </trkpt>
      <trkpt lat="45.91425" lon="6.50728">
        <ele>2186</ele>
        <time>2017-08-29T07:59:54Z</time>
      </trkpt>
      <trkpt lat="45.91425" lon="6.50728">
        <ele>2187</ele>
        <time>2017-08-29T07:59:55Z</time>
      </trkpt>
      <trkpt lat="45.91426" lon="6.50731">
        <ele>2187</ele>
        <time>2017-08-29T07:59:56Z</time>
      </trkpt>
      <trkpt lat="45.91426" lon="6.50731">
        <ele>2187</ele>
        <time>2017-08-29T07:59:57Z</time>
      </trkpt>
      <trkpt lat="45.91426" lon="6.50731">
        <ele>2187</ele>
        <time>2017-08-29T07:59:58Z</time>
      </trkpt>
      <trkpt lat="45.91427" lon="6.50733">
        <ele>2187</ele>
        <time>2017-08-29T07:59:59Z</time>
      </trkpt>
      <trkpt lat="45.91427" lon="6.50733">
        <ele>2188</ele>
        <time>2017-08-29T08:00:00Z</time>
      </trkpt>
      <trkpt lat="45.91427" lon="6.50733">
        <ele>2188</ele>
        <time>2017-08-29T08:00:01Z</time>
      </trkpt>
      <trkpt lat="45.91428" lon="6.50736">
        <ele>2188</ele>
        <time>2017-08-29T08:00:02Z</time>
      </trkpt>
      <trkpt lat="45.91428" lon="6.50736">
        <ele>2188</ele>
        <time>2017-08-29T08:00:03Z</time>
      </trkpt>
      <trkpt lat="45.91428" lon="6.50736">
        <ele>2189</ele>
        <time>2017-08-29T08:00:04Z</time>
      </trkpt>
      <trkpt lat="45.91429" lon="6.50738">
        <ele>2189</ele>
        <time>2017-08-29T08:00:05Z</time>
      </trkpt>
      <trkpt lat="45.91429" lon="6.50738">
        <ele>2189</ele>
        <time>2017-08-29T08:00:06Z</time>
      </trkpt>
      <trkpt lat="45.91431" lon="6.5074">
        <ele>2190</ele>
        <time>2017-08-29T08:00:07Z</time>
      </trkpt>
      <trkpt lat="45.91431" lon="6.5074">
        <ele>2190</ele>
        <time>2017-08-29T08:00:08Z</time>
      </trkpt>
      <trkpt lat="45.91432" lon="6.50742">
        <ele>2190</ele>
        <time>2017-08-29T08:00:09Z</time>
      </trkpt>
      <trkpt lat="45.91432" lon="6.50742">
        <ele>2190</ele>
        <time>2017-08-29T08:00:10Z</time>
      </trkpt>
      <trkpt lat="45.91432" lon="6.50742">
        <ele>2190</ele>
        <time>2017-08-29T08:00:11Z</time>
      </trkpt>
      <trkpt lat="45.91433" lon="6.50746">
        <ele>2190</ele>
        <time>2017-08-29T08:00:12Z</time>
      </trkpt>
      <trkpt lat="45.91433" lon="6.50746">
        <ele>2191</ele>
        <time>2017-08-29T08:00:13Z</time>
      </trkpt>
      <trkpt lat="45.91434" lon="6.50749">
        <ele>2191</ele>
        <time>2017-08-29T08:00:14Z</time>
      </trkpt>
      <trkpt lat="45.91434" lon="6.50749">
        <ele>2191</ele>
        <time>2017-08-29T08:00:15Z</time>
      </trkpt>
      <trkpt lat="45.91434" lon="6.50749">
        <ele>2191</ele>
        <time>2017-08-29T08:00:16Z</time>
      </trkpt>
      <trkpt lat="45.91434" lon="6.50752">
        <ele>2192</ele>
        <time>2017-08-29T08:00:17Z</time>
      </trkpt>
      <trkpt lat="45.91434" lon="6.50752">
        <ele>2192</ele>
        <time>2017-08-29T08:00:18Z</time>
      </trkpt>
      <trkpt lat="45.91434" lon="6.50752">
        <ele>2192</ele>
        <time>2017-08-29T08:00:19Z</time>
      </trkpt>
      <trkpt lat="45.91432" lon="6.50752">
        <ele>2193</ele>
        <time>2017-08-29T08:00:20Z</time>
      </trkpt>
      <trkpt lat="45.91432" lon="6.50752">
        <ele>2193</ele>
        <time>2017-08-29T08:00:21Z</time>
      </trkpt>
      <trkpt lat="45.91432" lon="6.50752">
        <ele>2193</ele>
        <time>2017-08-29T08:00:22Z</time>
      </trkpt>
      <trkpt lat="45.9143" lon="6.50754">
        <ele>2194</ele>
        <time>2017-08-29T08:00:23Z</time>
      </trkpt>
      <trkpt lat="45.9143" lon="6.50754">
        <ele>2194</ele>
        <time>2017-08-29T08:00:24Z</time>
      </trkpt>
      <trkpt lat="45.9143" lon="6.50754">
        <ele>2194</ele>
        <time>2017-08-29T08:00:25Z</time>
      </trkpt>
      <trkpt lat="45.9143" lon="6.50757">
        <ele>2194</ele>
        <time>2017-08-29T08:00:26Z</time>
      </trkpt>
      <trkpt lat="45.9143" lon="6.50757">
        <ele>2194</ele>
        <time>2017-08-29T08:00:27Z</time>
      </trkpt>
      <trkpt lat="45.9143" lon="6.50757">
        <ele>2195</ele>
        <time>2017-08-29T08:00:28Z</time>
      </trkpt>
      <trkpt lat="45.9143" lon="6.50757">
        <ele>2195</ele>
        <time>2017-08-29T08:00:29Z</time>
      </trkpt>
      <trkpt lat="45.91427" lon="6.50761">
        <ele>2195</ele>
        <time>2017-08-29T08:00:30Z</time>
      </trkpt>
      <trkpt lat="45.91427" lon="6.50761">
        <ele>2195</ele>
        <time>2017-08-29T08:00:31Z</time>
      </trkpt>
      <trkpt lat="45.91427" lon="6.50761">
        <ele>2195</ele>
        <time>2017-08-29T08:00:32Z</time>
      </trkpt>
      <trkpt lat="45.91427" lon="6.50764">
        <ele>2196</ele>
        <time>2017-08-29T08:00:33Z</time>
      </trkpt>
      <trkpt lat="45.91427" lon="6.50764">
        <ele>2196</ele>
        <time>2017-08-29T08:00:34Z</time>
      </trkpt>
      <trkpt lat="45.91427" lon="6.50764">
        <ele>2196</ele>
        <time>2017-08-29T08:00:35Z</time>
      </trkpt>
      <trkpt lat="45.91427" lon="6.50767">
        <ele>2196</ele>
        <time>2017-08-29T08:00:36Z</time>
      </trkpt>
      <trkpt lat="45.91427" lon="6.50767">
        <ele>2196</ele>
        <time>2017-08-29T08:00:37Z</time>
      </trkpt>
      <trkpt lat="45.91429" lon="6.50769">
        <ele>2196</ele>
        <time>2017-08-29T08:00:38Z</time>
      </trkpt>
      <trkpt lat="45.91429" lon="6.50769">
        <ele>2196</ele>
        <time>2017-08-29T08:00:39Z</time>
      </trkpt>
      <trkpt lat="45.91429" lon="6.50771">
        <ele>2197</ele>
        <time>2017-08-29T08:00:40Z</time>
      </trkpt>
      <trkpt lat="45.91429" lon="6.50771">
        <ele>2197</ele>
        <time>2017-08-29T08:00:41Z</time>
      </trkpt>
      <trkpt lat="45.9143" lon="6.50774">
        <ele>2198</ele>
        <time>2017-08-29T08:00:42Z</time>
      </trkpt>
      <trkpt lat="45.9143" lon="6.50774">
        <ele>2198</ele>
        <time>2017-08-29T08:00:43Z</time>
      </trkpt>
      <trkpt lat="45.91431" lon="6.50776">
        <ele>2198</ele>
        <time>2017-08-29T08:00:44Z</time>
      </trkpt>
      <trkpt lat="45.91431" lon="6.50776">
        <ele>2198</ele>
        <time>2017-08-29T08:00:45Z</time>
      </trkpt>
      <trkpt lat="45.91432" lon="6.50779">
        <ele>2198</ele>
        <time>2017-08-29T08:00:46Z</time>
      </trkpt>
      <trkpt lat="45.91432" lon="6.50779">
        <ele>2198</ele>
        <time>2017-08-29T08:00:47Z</time>
      </trkpt>
      <trkpt lat="45.91433" lon="6.50781">
        <ele>2198</ele>
        <time>2017-08-29T08:00:48Z</time>
      </trkpt>
      <trkpt lat="45.91433" lon="6.50781">
        <ele>2199</ele>
        <time>2017-08-29T08:00:49Z</time>
      </trkpt>
      <trkpt lat="45.91434" lon="6.50784">
        <ele>2199</ele>
        <time>2017-08-29T08:00:50Z</time>
      </trkpt>
      <trkpt lat="45.91434" lon="6.50784">
        <ele>2199</ele>
        <time>2017-08-29T08:00:51Z</time>
      </trkpt>
      <trkpt lat="45.91434" lon="6.50784">
        <ele>2199</ele>
        <time>2017-08-29T08:00:52Z</time>
      </trkpt>
      <trkpt lat="45.91435" lon="6.50787">
        <ele>2200</ele>
        <time>2017-08-29T08:00:53Z</time>
      </trkpt>
      <trkpt lat="45.91435" lon="6.50787">
        <ele>2200</ele>
        <time>2017-08-29T08:00:54Z</time>
      </trkpt>
      <trkpt lat="45.91435" lon="6.50787">
        <ele>2200</ele>
        <time>2017-08-29T08:00:55Z</time>
      </trkpt>
      <trkpt lat="45.91435" lon="6.50787">
        <ele>2200</ele>
        <time>2017-08-29T08:00:56Z</time>
      </trkpt>
      <trkpt lat="45.91435" lon="6.50787">
        <ele>2200</ele>
        <time>2017-08-29T08:00:57Z</time>
      </trkpt>
      <trkpt lat="45.91435" lon="6.5079">
        <ele>2200</ele>
        <time>2017-08-29T08:00:58Z</time>
      </trkpt>
      <trkpt lat="45.91435" lon="6.5079">
        <ele>2201</ele>
        <time>2017-08-29T08:00:59Z</time>
      </trkpt>
      <trkpt lat="45.91436" lon="6.50792">
        <ele>2201</ele>
        <time>2017-08-29T08:01:00Z</time>
      </trkpt>
      <trkpt lat="45.91436" lon="6.50792">
        <ele>2202</ele>
        <time>2017-08-29T08:01:01Z</time>
      </trkpt>
      <trkpt lat="45.91436" lon="6.50792">
        <ele>2202</ele>
        <time>2017-08-29T08:01:02Z</time>
      </trkpt>
      <trkpt lat="45.91436" lon="6.50792">
        <ele>2202</ele>
        <time>2017-08-29T08:01:03Z</time>
      </trkpt>
      <trkpt lat="45.91435" lon="6.50795">
        <ele>2202</ele>
        <time>2017-08-29T08:01:04Z</time>
      </trkpt>
      <trkpt lat="45.91435" lon="6.50795">
        <ele>2202</ele>
        <time>2017-08-29T08:01:05Z</time>
      </trkpt>
      <trkpt lat="45.91435" lon="6.50795">
        <ele>2202</ele>
        <time>2017-08-29T08:01:06Z</time>
      </trkpt>
      <trkpt lat="45.91432" lon="6.50794">
        <ele>2203</ele>
        <time>2017-08-29T08:01:07Z</time>
      </trkpt>
      <trkpt lat="45.91432" lon="6.50794">
        <ele>2203</ele>
        <time>2017-08-29T08:01:08Z</time>
      </trkpt>
      <trkpt lat="45.91432" lon="6.50794">
        <ele>2203</ele>
        <time>2017-08-29T08:01:09Z</time>
      </trkpt>
      <trkpt lat="45.91432" lon="6.50794">
        <ele>2204</ele>
        <time>2017-08-29T08:01:10Z</time>
      </trkpt>
      <trkpt lat="45.91432" lon="6.50797">
        <ele>2204</ele>
        <time>2017-08-29T08:01:11Z</time>
      </trkpt>
      <trkpt lat="45.91432" lon="6.50797">
        <ele>2205</ele>
        <time>2017-08-29T08:01:12Z</time>
      </trkpt>
      <trkpt lat="45.91433" lon="6.50801">
        <ele>2205</ele>
        <time>2017-08-29T08:01:13Z</time>
      </trkpt>
      <trkpt lat="45.91433" lon="6.50801">
        <ele>2205</ele>
        <time>2017-08-29T08:01:14Z</time>
      </trkpt>
      <trkpt lat="45.91433" lon="6.50804">
        <ele>2205</ele>
        <time>2017-08-29T08:01:15Z</time>
      </trkpt>
      <trkpt lat="45.91433" lon="6.50804">
        <ele>2205</ele>
        <time>2017-08-29T08:01:16Z</time>
      </trkpt>
      <trkpt lat="45.91433" lon="6.50804">
        <ele>2205</ele>
        <time>2017-08-29T08:01:17Z</time>
      </trkpt>
      <trkpt lat="45.91434" lon="6.50807">
        <ele>2206</ele>
        <time>2017-08-29T08:01:18Z</time>
      </trkpt>
      <trkpt lat="45.91434" lon="6.50807">
        <ele>2206</ele>
        <time>2017-08-29T08:01:19Z</time>
      </trkpt>
      <trkpt lat="45.91434" lon="6.50807">
        <ele>2206</ele>
        <time>2017-08-29T08:01:20Z</time>
      </trkpt>
      <trkpt lat="45.91434" lon="6.50812">
        <ele>2206</ele>
        <time>2017-08-29T08:01:21Z</time>
      </trkpt>
      <trkpt lat="45.91434" lon="6.50812">
        <ele>2206</ele>
        <time>2017-08-29T08:01:22Z</time>
      </trkpt>
      <trkpt lat="45.91435" lon="6.50815">
        <ele>2207</ele>
        <time>2017-08-29T08:01:23Z</time>
      </trkpt>
      <trkpt lat="45.91435" lon="6.50815">
        <ele>2207</ele>
        <time>2017-08-29T08:01:24Z</time>
      </trkpt>
      <trkpt lat="45.91435" lon="6.50815">
        <ele>2207</ele>
        <time>2017-08-29T08:01:25Z</time>
      </trkpt>
      <trkpt lat="45.91436" lon="6.50819">
        <ele>2208</ele>
        <time>2017-08-29T08:01:26Z</time>
      </trkpt>
      <trkpt lat="45.91436" lon="6.5082">
        <ele>2208</ele>
        <time>2017-08-29T08:01:27Z</time>
      </trkpt>
      <trkpt lat="45.91436" lon="6.50821">
        <ele>2208</ele>
        <time>2017-08-29T08:01:28Z</time>
      </trkpt>
      <trkpt lat="45.91436" lon="6.50822">
        <ele>2209</ele>
        <time>2017-08-29T08:01:29Z</time>
      </trkpt>
      <trkpt lat="45.91437" lon="6.50824">
        <ele>2209</ele>
        <time>2017-08-29T08:01:30Z</time>
      </trkpt>
      <trkpt lat="45.91437" lon="6.50825">
        <ele>2209</ele>
        <time>2017-08-29T08:01:31Z</time>
      </trkpt>
      <trkpt lat="45.91437" lon="6.50826">
        <ele>2210</ele>
        <time>2017-08-29T08:01:32Z</time>
      </trkpt>
      <trkpt lat="45.91437" lon="6.50826">
        <ele>2210</ele>
        <time>2017-08-29T08:01:33Z</time>
      </trkpt>
      <trkpt lat="45.91437" lon="6.50826">
        <ele>2210</ele>
        <time>2017-08-29T08:01:34Z</time>
      </trkpt>
      <trkpt lat="45.91439" lon="6.50829">
        <ele>2210</ele>
        <time>2017-08-29T08:01:35Z</time>
      </trkpt>
      <trkpt lat="45.91439" lon="6.50829">
        <ele>2210</ele>
        <time>2017-08-29T08:01:36Z</time>
      </trkpt>
      <trkpt lat="45.91439" lon="6.50829">
        <ele>2211</ele>
        <time>2017-08-29T08:01:37Z</time>
      </trkpt>
      <trkpt lat="45.91441" lon="6.50832">
        <ele>2211</ele>
        <time>2017-08-29T08:01:38Z</time>
      </trkpt>
      <trkpt lat="45.91441" lon="6.50832">
        <ele>2211</ele>
        <time>2017-08-29T08:01:39Z</time>
      </trkpt>
      <trkpt lat="45.91441" lon="6.50832">
        <ele>2211</ele>
        <time>2017-08-29T08:01:40Z</time>
      </trkpt>
      <trkpt lat="45.91442" lon="6.50833">
        <ele>2212</ele>
        <time>2017-08-29T08:01:41Z</time>
      </trkpt>
      <trkpt lat="45.91443" lon="6.50833">
        <ele>2212</ele>
        <time>2017-08-29T08:01:42Z</time>
      </trkpt>
      <trkpt lat="45.91444" lon="6.50833">
        <ele>2212</ele>
        <time>2017-08-29T08:01:43Z</time>
      </trkpt>
      <trkpt lat="45.91445" lon="6.50833">
        <ele>2212</ele>
        <time>2017-08-29T08:01:44Z</time>
      </trkpt>
      <trkpt lat="45.91446" lon="6.50833">
        <ele>2212</ele>
        <time>2017-08-29T08:01:45Z</time>
      </trkpt>
      <trkpt lat="45.91447" lon="6.50834">
        <ele>2213</ele>
        <time>2017-08-29T08:01:46Z</time>
      </trkpt>
      <trkpt lat="45.91447" lon="6.50834">
        <ele>2213</ele>
        <time>2017-08-29T08:01:47Z</time>
      </trkpt>
      <trkpt lat="45.91448" lon="6.50835">
        <ele>2213</ele>
        <time>2017-08-29T08:01:48Z</time>
      </trkpt>
      <trkpt lat="45.91449" lon="6.50837">
        <ele>2213</ele>
        <time>2017-08-29T08:01:49Z</time>
      </trkpt>
      <trkpt lat="45.9145" lon="6.50839">
        <ele>2213</ele>
        <time>2017-08-29T08:01:50Z</time>
      </trkpt>
      <trkpt lat="45.9145" lon="6.50841">
        <ele>2214</ele>
        <time>2017-08-29T08:01:51Z</time>
      </trkpt>
      <trkpt lat="45.91451" lon="6.50843">
        <ele>2214</ele>
        <time>2017-08-29T08:01:52Z</time>
      </trkpt>
      <trkpt lat="45.91451" lon="6.50843">
        <ele>2215</ele>
        <time>2017-08-29T08:01:53Z</time>
      </trkpt>
      <trkpt lat="45.91452" lon="6.50846">
        <ele>2215</ele>
        <time>2017-08-29T08:01:54Z</time>
      </trkpt>
      <trkpt lat="45.91452" lon="6.50846">
        <ele>2215</ele>
        <time>2017-08-29T08:01:55Z</time>
      </trkpt>
      <trkpt lat="45.91453" lon="6.50849">
        <ele>2215</ele>
        <time>2017-08-29T08:01:56Z</time>
      </trkpt>
      <trkpt lat="45.91453" lon="6.50849">
        <ele>2217</ele>
        <time>2017-08-29T08:01:57Z</time>
      </trkpt>
      <trkpt lat="45.91453" lon="6.50849">
        <ele>2217</ele>
        <time>2017-08-29T08:01:58Z</time>
      </trkpt>
      <trkpt lat="45.91453" lon="6.50852">
        <ele>2217</ele>
        <time>2017-08-29T08:01:59Z</time>
      </trkpt>
      <trkpt lat="45.91453" lon="6.50852">
        <ele>2217</ele>
        <time>2017-08-29T08:02:00Z</time>
      </trkpt>
      <trkpt lat="45.91454" lon="6.50855">
        <ele>2217</ele>
        <time>2017-08-29T08:02:01Z</time>
      </trkpt>
      <trkpt lat="45.91454" lon="6.50855">
        <ele>2217</ele>
        <time>2017-08-29T08:02:02Z</time>
      </trkpt>
      <trkpt lat="45.91454" lon="6.50858">
        <ele>2217</ele>
        <time>2017-08-29T08:02:03Z</time>
      </trkpt>
      <trkpt lat="45.91454" lon="6.50858">
        <ele>2218</ele>
        <time>2017-08-29T08:02:04Z</time>
      </trkpt>
      <trkpt lat="45.91455" lon="6.5086">
        <ele>2218</ele>
        <time>2017-08-29T08:02:05Z</time>
      </trkpt>
      <trkpt lat="45.91455" lon="6.5086">
        <ele>2218</ele>
        <time>2017-08-29T08:02:06Z</time>
      </trkpt>
      <trkpt lat="45.91456" lon="6.50863">
        <ele>2218</ele>
        <time>2017-08-29T08:02:07Z</time>
      </trkpt>
      <trkpt lat="45.91456" lon="6.50863">
        <ele>2218</ele>
        <time>2017-08-29T08:02:08Z</time>
      </trkpt>
      <trkpt lat="45.91456" lon="6.50866">
        <ele>2218</ele>
        <time>2017-08-29T08:02:09Z</time>
      </trkpt>
      <trkpt lat="45.91456" lon="6.50866">
        <ele>2219</ele>
        <time>2017-08-29T08:02:10Z</time>
      </trkpt>
      <trkpt lat="45.91457" lon="6.50869">
        <ele>2219</ele>
        <time>2017-08-29T08:02:11Z</time>
      </trkpt>
      <trkpt lat="45.91457" lon="6.50869">
        <ele>2219</ele>
        <time>2017-08-29T08:02:12Z</time>
      </trkpt>
      <trkpt lat="45.91457" lon="6.50872">
        <ele>2219</ele>
        <time>2017-08-29T08:02:13Z</time>
      </trkpt>
      <trkpt lat="45.91457" lon="6.50872">
        <ele>2220</ele>
        <time>2017-08-29T08:02:14Z</time>
      </trkpt>
      <trkpt lat="45.91457" lon="6.50872">
        <ele>2220</ele>
        <time>2017-08-29T08:02:15Z</time>
      </trkpt>
      <trkpt lat="45.91455" lon="6.50874">
        <ele>2221</ele>
        <time>2017-08-29T08:02:16Z</time>
      </trkpt>
      <trkpt lat="45.91455" lon="6.50874">
        <ele>2221</ele>
        <time>2017-08-29T08:02:17Z</time>
      </trkpt>
      <trkpt lat="45.91453" lon="6.50873">
        <ele>2221</ele>
        <time>2017-08-29T08:02:18Z</time>
      </trkpt>
      <trkpt lat="45.91453" lon="6.50873">
        <ele>2221</ele>
        <time>2017-08-29T08:02:19Z</time>
      </trkpt>
      <trkpt lat="45.91453" lon="6.50873">
        <ele>2222</ele>
        <time>2017-08-29T08:02:20Z</time>
      </trkpt>
      <trkpt lat="45.91452" lon="6.50875">
        <ele>2222</ele>
        <time>2017-08-29T08:02:21Z</time>
      </trkpt>
      <trkpt lat="45.91452" lon="6.50875">
        <ele>2222</ele>
        <time>2017-08-29T08:02:22Z</time>
      </trkpt>
      <trkpt lat="45.91453" lon="6.50879">
        <ele>2222</ele>
        <time>2017-08-29T08:02:23Z</time>
      </trkpt>
      <trkpt lat="45.91453" lon="6.50879">
        <ele>2222</ele>
        <time>2017-08-29T08:02:24Z</time>
      </trkpt>
      <trkpt lat="45.91453" lon="6.50879">
        <ele>2222</ele>
        <time>2017-08-29T08:02:25Z</time>
      </trkpt>
      <trkpt lat="45.91453" lon="6.50882">
        <ele>2222</ele>
        <time>2017-08-29T08:02:26Z</time>
      </trkpt>
      <trkpt lat="45.91453" lon="6.50882">
        <ele>2223</ele>
        <time>2017-08-29T08:02:27Z</time>
      </trkpt>
      <trkpt lat="45.91453" lon="6.50882">
        <ele>2223</ele>
        <time>2017-08-29T08:02:28Z</time>
      </trkpt>
      <trkpt lat="45.91453" lon="6.50886">
        <ele>2223</ele>
        <time>2017-08-29T08:02:29Z</time>
      </trkpt>
      <trkpt lat="45.91453" lon="6.50886">
        <ele>2223</ele>
        <time>2017-08-29T08:02:30Z</time>
      </trkpt>
      <trkpt lat="45.91453" lon="6.50886">
        <ele>2223</ele>
        <time>2017-08-29T08:02:31Z</time>
      </trkpt>
      <trkpt lat="45.91452" lon="6.50889">
        <ele>2223</ele>
        <time>2017-08-29T08:02:32Z</time>
      </trkpt>
      <trkpt lat="45.91452" lon="6.50889">
        <ele>2224</ele>
        <time>2017-08-29T08:02:33Z</time>
      </trkpt>
      <trkpt lat="45.91452" lon="6.50889">
        <ele>2224</ele>
        <time>2017-08-29T08:02:34Z</time>
      </trkpt>
      <trkpt lat="45.91452" lon="6.50889">
        <ele>2224</ele>
        <time>2017-08-29T08:02:35Z</time>
      </trkpt>
      <trkpt lat="45.91452" lon="6.50892">
        <ele>2224</ele>
        <time>2017-08-29T08:02:36Z</time>
      </trkpt>
      <trkpt lat="45.91452" lon="6.50892">
        <ele>2224</ele>
        <time>2017-08-29T08:02:37Z</time>
      </trkpt>
      <trkpt lat="45.91452" lon="6.50892">
        <ele>2225</ele>
        <time>2017-08-29T08:02:38Z</time>
      </trkpt>
      <trkpt lat="45.91452" lon="6.50892">
        <ele>2226</ele>
        <time>2017-08-29T08:02:39Z</time>
      </trkpt>
      <trkpt lat="45.91452" lon="6.50892">
        <ele>2226</ele>
        <time>2017-08-29T08:02:40Z</time>
      </trkpt>
      <trkpt lat="45.91453" lon="6.50896">
        <ele>2226</ele>
        <time>2017-08-29T08:02:41Z</time>
      </trkpt>
      <trkpt lat="45.91453" lon="6.50896">
        <ele>2226</ele>
        <time>2017-08-29T08:02:42Z</time>
      </trkpt>
      <trkpt lat="45.91453" lon="6.50896">
        <ele>2227</ele>
        <time>2017-08-29T08:02:43Z</time>
      </trkpt>
      <trkpt lat="45.91452" lon="6.50898">
        <ele>2227</ele>
        <time>2017-08-29T08:02:44Z</time>
      </trkpt>
      <trkpt lat="45.91452" lon="6.50898">
        <ele>2228</ele>
        <time>2017-08-29T08:02:45Z</time>
      </trkpt>
      <trkpt lat="45.91452" lon="6.50898">
        <ele>2228</ele>
        <time>2017-08-29T08:02:46Z</time>
      </trkpt>
      <trkpt lat="45.91452" lon="6.50898">
        <ele>2228</ele>
        <time>2017-08-29T08:02:47Z</time>
      </trkpt>
      <trkpt lat="45.91452" lon="6.50898">
        <ele>2229</ele>
        <time>2017-08-29T08:02:48Z</time>
      </trkpt>
      <trkpt lat="45.91453" lon="6.50902">
        <ele>2229</ele>
        <time>2017-08-29T08:02:49Z</time>
      </trkpt>
      <trkpt lat="45.91453" lon="6.50902">
        <ele>2229</ele>
        <time>2017-08-29T08:02:50Z</time>
      </trkpt>
      <trkpt lat="45.91453" lon="6.50902">
        <ele>2229</ele>
        <time>2017-08-29T08:02:51Z</time>
      </trkpt>
      <trkpt lat="45.91453" lon="6.50902">
        <ele>2230</ele>
        <time>2017-08-29T08:02:52Z</time>
      </trkpt>
      <trkpt lat="45.91453" lon="6.50905">
        <ele>2230</ele>
        <time>2017-08-29T08:02:53Z</time>
      </trkpt>
      <trkpt lat="45.91453" lon="6.50905">
        <ele>2230</ele>
        <time>2017-08-29T08:02:54Z</time>
      </trkpt>
      <trkpt lat="45.91453" lon="6.50905">
        <ele>2230</ele>
        <time>2017-08-29T08:02:55Z</time>
      </trkpt>
      <trkpt lat="45.91454" lon="6.50908">
        <ele>2230</ele>
        <time>2017-08-29T08:02:56Z</time>
      </trkpt>
      <trkpt lat="45.91454" lon="6.50908">
        <ele>2231</ele>
        <time>2017-08-29T08:02:57Z</time>
      </trkpt>
      <trkpt lat="45.91454" lon="6.50908">
        <ele>2231</ele>
        <time>2017-08-29T08:02:58Z</time>
      </trkpt>
      <trkpt lat="45.91456" lon="6.5091">
        <ele>2231</ele>
        <time>2017-08-29T08:02:59Z</time>
      </trkpt>
      <trkpt lat="45.91456" lon="6.50912">
        <ele>2231</ele>
        <time>2017-08-29T08:03:00Z</time>
      </trkpt>
      <trkpt lat="45.91457" lon="6.50913">
        <ele>2231</ele>
        <time>2017-08-29T08:03:01Z</time>
      </trkpt>
      <trkpt lat="45.91457" lon="6.50915">
        <ele>2231</ele>
        <time>2017-08-29T08:03:02Z</time>
      </trkpt>
      <trkpt lat="45.91458" lon="6.50917">
        <ele>2231</ele>
        <time>2017-08-29T08:03:03Z</time>
      </trkpt>
      <trkpt lat="45.91458" lon="6.50918">
        <ele>2232</ele>
        <time>2017-08-29T08:03:04Z</time>
      </trkpt>
      <trkpt lat="45.91458" lon="6.50918">
        <ele>2232</ele>
        <time>2017-08-29T08:03:05Z</time>
      </trkpt>
      <trkpt lat="45.91458" lon="6.50918">
        <ele>2233</ele>
        <time>2017-08-29T08:03:06Z</time>
      </trkpt>
      <trkpt lat="45.91456" lon="6.50921">
        <ele>2233</ele>
        <time>2017-08-29T08:03:07Z</time>
      </trkpt>
      <trkpt lat="45.91456" lon="6.50921">
        <ele>2233</ele>
        <time>2017-08-29T08:03:08Z</time>
      </trkpt>
      <trkpt lat="45.91456" lon="6.50921">
        <ele>2233</ele>
        <time>2017-08-29T08:03:09Z</time>
      </trkpt>
      <trkpt lat="45.91453" lon="6.50919">
        <ele>2234</ele>
        <time>2017-08-29T08:03:10Z</time>
      </trkpt>
      <trkpt lat="45.91453" lon="6.50919">
        <ele>2234</ele>
        <time>2017-08-29T08:03:11Z</time>
      </trkpt>
      <trkpt lat="45.91453" lon="6.50919">
        <ele>2234</ele>
        <time>2017-08-29T08:03:12Z</time>
      </trkpt>
      <trkpt lat="45.91451" lon="6.5092">
        <ele>2234</ele>
        <time>2017-08-29T08:03:13Z</time>
      </trkpt>
      <trkpt lat="45.91451" lon="6.5092">
        <ele>2234</ele>
        <time>2017-08-29T08:03:14Z</time>
      </trkpt>
      <trkpt lat="45.9145" lon="6.50922">
        <ele>2235</ele>
        <time>2017-08-29T08:03:15Z</time>
      </trkpt>
      <trkpt lat="45.9145" lon="6.50922">
        <ele>2235</ele>
        <time>2017-08-29T08:03:16Z</time>
      </trkpt>
      <trkpt lat="45.9145" lon="6.50922">
        <ele>2235</ele>
        <time>2017-08-29T08:03:17Z</time>
      </trkpt>
      <trkpt lat="45.9145" lon="6.50926">
        <ele>2235</ele>
        <time>2017-08-29T08:03:18Z</time>
      </trkpt>
      <trkpt lat="45.9145" lon="6.50926">
        <ele>2235</ele>
        <time>2017-08-29T08:03:19Z</time>
      </trkpt>
      <trkpt lat="45.9145" lon="6.50926">
        <ele>2236</ele>
        <time>2017-08-29T08:03:20Z</time>
      </trkpt>
      <trkpt lat="45.91451" lon="6.50928">
        <ele>2236</ele>
        <time>2017-08-29T08:03:21Z</time>
      </trkpt>
      <trkpt lat="45.91451" lon="6.50928">
        <ele>2237</ele>
        <time>2017-08-29T08:03:22Z</time>
      </trkpt>
      <trkpt lat="45.91454" lon="6.5093">
        <ele>2238</ele>
        <time>2017-08-29T08:03:23Z</time>
      </trkpt>
      <trkpt lat="45.91454" lon="6.5093">
        <ele>2238</ele>
        <time>2017-08-29T08:03:24Z</time>
      </trkpt>
      <trkpt lat="45.91456" lon="6.50933">
        <ele>2238</ele>
        <time>2017-08-29T08:03:25Z</time>
      </trkpt>
      <trkpt lat="45.91456" lon="6.50933">
        <ele>2238</ele>
        <time>2017-08-29T08:03:26Z</time>
      </trkpt>
      <trkpt lat="45.91457" lon="6.50936">
        <ele>2239</ele>
        <time>2017-08-29T08:03:27Z</time>
      </trkpt>
      <trkpt lat="45.91457" lon="6.50936">
        <ele>2239</ele>
        <time>2017-08-29T08:03:28Z</time>
      </trkpt>
      <trkpt lat="45.91458" lon="6.50939">
        <ele>2239</ele>
        <time>2017-08-29T08:03:29Z</time>
      </trkpt>
      <trkpt lat="45.91458" lon="6.50939">
        <ele>2239</ele>
        <time>2017-08-29T08:03:30Z</time>
      </trkpt>
      <trkpt lat="45.91458" lon="6.50943">
        <ele>2240</ele>
        <time>2017-08-29T08:03:31Z</time>
      </trkpt>
      <trkpt lat="45.91458" lon="6.50943">
        <ele>2240</ele>
        <time>2017-08-29T08:03:32Z</time>
      </trkpt>
      <trkpt lat="45.91458" lon="6.50943">
        <ele>2240</ele>
        <time>2017-08-29T08:03:33Z</time>
      </trkpt>
      <trkpt lat="45.91459" lon="6.50946">
        <ele>2241</ele>
        <time>2017-08-29T08:03:34Z</time>
      </trkpt>
      <trkpt lat="45.91459" lon="6.50946">
        <ele>2241</ele>
        <time>2017-08-29T08:03:35Z</time>
      </trkpt>
      <trkpt lat="45.91459" lon="6.50946">
        <ele>2241</ele>
        <time>2017-08-29T08:03:36Z</time>
      </trkpt>
      <trkpt lat="45.91458" lon="6.50948">
        <ele>2241</ele>
        <time>2017-08-29T08:03:37Z</time>
      </trkpt>
      <trkpt lat="45.91458" lon="6.50948">
        <ele>2241</ele>
        <time>2017-08-29T08:03:38Z</time>
      </trkpt>
      <trkpt lat="45.91458" lon="6.50951">
        <ele>2242</ele>
        <time>2017-08-29T08:03:39Z</time>
      </trkpt>
      <trkpt lat="45.91458" lon="6.50951">
        <ele>2242</ele>
        <time>2017-08-29T08:03:40Z</time>
      </trkpt>
      <trkpt lat="45.91459" lon="6.50953">
        <ele>2242</ele>
        <time>2017-08-29T08:03:41Z</time>
      </trkpt>
      <trkpt lat="45.91459" lon="6.50953">
        <ele>2243</ele>
        <time>2017-08-29T08:03:42Z</time>
      </trkpt>
      <trkpt lat="45.91459" lon="6.50953">
        <ele>2243</ele>
        <time>2017-08-29T08:03:43Z</time>
      </trkpt>
      <trkpt lat="45.91461" lon="6.50956">
        <ele>2243</ele>
        <time>2017-08-29T08:03:44Z</time>
      </trkpt>
      <trkpt lat="45.91461" lon="6.50956">
        <ele>2243</ele>
        <time>2017-08-29T08:03:45Z</time>
      </trkpt>
      <trkpt lat="45.91463" lon="6.50957">
        <ele>2243</ele>
        <time>2017-08-29T08:03:46Z</time>
      </trkpt>
      <trkpt lat="45.91463" lon="6.50957">
        <ele>2243</ele>
        <time>2017-08-29T08:03:47Z</time>
      </trkpt>
      <trkpt lat="45.91465" lon="6.50958">
        <ele>2244</ele>
        <time>2017-08-29T08:03:48Z</time>
      </trkpt>
      <trkpt lat="45.91465" lon="6.50958">
        <ele>2244</ele>
        <time>2017-08-29T08:03:49Z</time>
      </trkpt>
      <trkpt lat="45.91466" lon="6.5096">
        <ele>2244</ele>
        <time>2017-08-29T08:03:50Z</time>
      </trkpt>
      <trkpt lat="45.91466" lon="6.5096">
        <ele>2244</ele>
        <time>2017-08-29T08:03:51Z</time>
      </trkpt>
      <trkpt lat="45.91468" lon="6.50962">
        <ele>2244</ele>
        <time>2017-08-29T08:03:52Z</time>
      </trkpt>
      <trkpt lat="45.91468" lon="6.50962">
        <ele>2244</ele>
        <time>2017-08-29T08:03:53Z</time>
      </trkpt>
      <trkpt lat="45.91468" lon="6.50965">
        <ele>2244</ele>
        <time>2017-08-29T08:03:54Z</time>
      </trkpt>
      <trkpt lat="45.91468" lon="6.50965">
        <ele>2244</ele>
        <time>2017-08-29T08:03:55Z</time>
      </trkpt>
      <trkpt lat="45.91468" lon="6.50965">
        <ele>2244</ele>
        <time>2017-08-29T08:03:56Z</time>
      </trkpt>
      <trkpt lat="45.91467" lon="6.50968">
        <ele>2244</ele>
        <time>2017-08-29T08:03:57Z</time>
      </trkpt>
      <trkpt lat="45.91467" lon="6.50968">
        <ele>2245</ele>
        <time>2017-08-29T08:03:58Z</time>
      </trkpt>
      <trkpt lat="45.91467" lon="6.50968">
        <ele>2245</ele>
        <time>2017-08-29T08:03:59Z</time>
      </trkpt>
      <trkpt lat="45.91467" lon="6.50968">
        <ele>2245</ele>
        <time>2017-08-29T08:04:00Z</time>
      </trkpt>
      <trkpt lat="45.91467" lon="6.50971">
        <ele>2244</ele>
        <time>2017-08-29T08:04:01Z</time>
      </trkpt>
      <trkpt lat="45.91467" lon="6.50971">
        <ele>2245</ele>
        <time>2017-08-29T08:04:02Z</time>
      </trkpt>
      <trkpt lat="45.91467" lon="6.50971">
        <ele>2245</ele>
        <time>2017-08-29T08:04:03Z</time>
      </trkpt>
      <trkpt lat="45.91467" lon="6.50971">
        <ele>2246</ele>
        <time>2017-08-29T08:04:04Z</time>
      </trkpt>
      <trkpt lat="45.91468" lon="6.50973">
        <ele>2247</ele>
        <time>2017-08-29T08:04:05Z</time>
      </trkpt>
      <trkpt lat="45.91468" lon="6.50973">
        <ele>2247</ele>
        <time>2017-08-29T08:04:06Z</time>
      </trkpt>
      <trkpt lat="45.91468" lon="6.50973">
        <ele>2247</ele>
        <time>2017-08-29T08:04:07Z</time>
      </trkpt>
      <trkpt lat="45.91467" lon="6.50976">
        <ele>2247</ele>
        <time>2017-08-29T08:04:08Z</time>
      </trkpt>
      <trkpt lat="45.91467" lon="6.50976">
        <ele>2247</ele>
        <time>2017-08-29T08:04:09Z</time>
      </trkpt>
      <trkpt lat="45.91467" lon="6.50976">
        <ele>2248</ele>
        <time>2017-08-29T08:04:10Z</time>
      </trkpt>
      <trkpt lat="45.91467" lon="6.50976">
        <ele>2248</ele>
        <time>2017-08-29T08:04:11Z</time>
      </trkpt>
      <trkpt lat="45.91467" lon="6.50976">
        <ele>2248</ele>
        <time>2017-08-29T08:04:12Z</time>
      </trkpt>
      <trkpt lat="45.91467" lon="6.50976">
        <ele>2248</ele>
        <time>2017-08-29T08:04:13Z</time>
      </trkpt>
      <trkpt lat="45.91467" lon="6.50976">
        <ele>2248</ele>
        <time>2017-08-29T08:04:14Z</time>
      </trkpt>
      <trkpt lat="45.91469" lon="6.50978">
        <ele>2248</ele>
        <time>2017-08-29T08:04:15Z</time>
      </trkpt>
      <trkpt lat="45.91469" lon="6.50978">
        <ele>2248</ele>
        <time>2017-08-29T08:04:16Z</time>
      </trkpt>
      <trkpt lat="45.91469" lon="6.50978">
        <ele>2249</ele>
        <time>2017-08-29T08:04:17Z</time>
      </trkpt>
      <trkpt lat="45.91469" lon="6.50978">
        <ele>2249</ele>
        <time>2017-08-29T08:04:18Z</time>
      </trkpt>
      <trkpt lat="45.91469" lon="6.50978">
        <ele>2249</ele>
        <time>2017-08-29T08:04:19Z</time>
      </trkpt>
      <trkpt lat="45.91471" lon="6.50978">
        <ele>2249</ele>
        <time>2017-08-29T08:04:20Z</time>
      </trkpt>
      <trkpt lat="45.91471" lon="6.50978">
        <ele>2250</ele>
        <time>2017-08-29T08:04:21Z</time>
      </trkpt>
      <trkpt lat="45.91471" lon="6.50978">
        <ele>2250</ele>
        <time>2017-08-29T08:04:22Z</time>
      </trkpt>
      <trkpt lat="45.91471" lon="6.50978">
        <ele>2250</ele>
        <time>2017-08-29T08:04:23Z</time>
      </trkpt>
      <trkpt lat="45.91472" lon="6.50979">
        <ele>2250</ele>
        <time>2017-08-29T08:04:24Z</time>
      </trkpt>
      <trkpt lat="45.91472" lon="6.50979">
        <ele>2250</ele>
        <time>2017-08-29T08:04:25Z</time>
      </trkpt>
      <trkpt lat="45.91472" lon="6.50979">
        <ele>2251</ele>
        <time>2017-08-29T08:04:26Z</time>
      </trkpt>
      <trkpt lat="45.91472" lon="6.50979">
        <ele>2251</ele>
        <time>2017-08-29T08:04:27Z</time>
      </trkpt>
      <trkpt lat="45.91475" lon="6.5098">
        <ele>2251</ele>
        <time>2017-08-29T08:04:28Z</time>
      </trkpt>
      <trkpt lat="45.91475" lon="6.5098">
        <ele>2251</ele>
        <time>2017-08-29T08:04:29Z</time>
      </trkpt>
      <trkpt lat="45.91475" lon="6.5098">
        <ele>2253</ele>
        <time>2017-08-29T08:04:30Z</time>
      </trkpt>
      <trkpt lat="45.91475" lon="6.5098">
        <ele>2253</ele>
        <time>2017-08-29T08:04:31Z</time>
      </trkpt>
      <trkpt lat="45.91477" lon="6.50982">
        <ele>2253</ele>
        <time>2017-08-29T08:04:32Z</time>
      </trkpt>
      <trkpt lat="45.91477" lon="6.50982">
        <ele>2253</ele>
        <time>2017-08-29T08:04:33Z</time>
      </trkpt>
      <trkpt lat="45.91477" lon="6.50982">
        <ele>2254</ele>
        <time>2017-08-29T08:04:34Z</time>
      </trkpt>
      <trkpt lat="45.91477" lon="6.50982">
        <ele>2254</ele>
        <time>2017-08-29T08:04:35Z</time>
      </trkpt>
      <trkpt lat="45.91479" lon="6.50983">
        <ele>2254</ele>
        <time>2017-08-29T08:04:36Z</time>
      </trkpt>
      <trkpt lat="45.91479" lon="6.50983">
        <ele>2254</ele>
        <time>2017-08-29T08:04:37Z</time>
      </trkpt>
      <trkpt lat="45.91479" lon="6.50983">
        <ele>2254</ele>
        <time>2017-08-29T08:04:38Z</time>
      </trkpt>
      <trkpt lat="45.91479" lon="6.50983">
        <ele>2255</ele>
        <time>2017-08-29T08:04:39Z</time>
      </trkpt>
      <trkpt lat="45.91481" lon="6.50983">
        <ele>2255</ele>
        <time>2017-08-29T08:04:40Z</time>
      </trkpt>
      <trkpt lat="45.91481" lon="6.50983">
        <ele>2255</ele>
        <time>2017-08-29T08:04:41Z</time>
      </trkpt>
      <trkpt lat="45.91481" lon="6.50983">
        <ele>2255</ele>
        <time>2017-08-29T08:04:42Z</time>
      </trkpt>
      <trkpt lat="45.91484" lon="6.50983">
        <ele>2256</ele>
        <time>2017-08-29T08:04:43Z</time>
      </trkpt>
      <trkpt lat="45.91485" lon="6.50984">
        <ele>2256</ele>
        <time>2017-08-29T08:04:44Z</time>
      </trkpt>
      <trkpt lat="45.91486" lon="6.50985">
        <ele>2256</ele>
        <time>2017-08-29T08:04:45Z</time>
      </trkpt>
      <trkpt lat="45.91487" lon="6.50986">
        <ele>2256</ele>
        <time>2017-08-29T08:04:46Z</time>
      </trkpt>
      <trkpt lat="45.91488" lon="6.50987">
        <ele>2256</ele>
        <time>2017-08-29T08:04:47Z</time>
      </trkpt>
      <trkpt lat="45.91488" lon="6.50987">
        <ele>2257</ele>
        <time>2017-08-29T08:04:48Z</time>
      </trkpt>
      <trkpt lat="45.91488" lon="6.50987">
        <ele>2257</ele>
        <time>2017-08-29T08:04:49Z</time>
      </trkpt>
      <trkpt lat="45.91488" lon="6.50987">
        <ele>2257</ele>
        <time>2017-08-29T08:04:50Z</time>
      </trkpt>
      <trkpt lat="45.91487" lon="6.50989">
        <ele>2258</ele>
        <time>2017-08-29T08:04:51Z</time>
      </trkpt>
      <trkpt lat="45.91487" lon="6.50989">
        <ele>2258</ele>
        <time>2017-08-29T08:04:52Z</time>
      </trkpt>
      <trkpt lat="45.91487" lon="6.50989">
        <ele>2258</ele>
        <time>2017-08-29T08:04:53Z</time>
      </trkpt>
      <trkpt lat="45.91487" lon="6.50989">
        <ele>2259</ele>
        <time>2017-08-29T08:04:54Z</time>
      </trkpt>
      <trkpt lat="45.91486" lon="6.50992">
        <ele>2259</ele>
        <time>2017-08-29T08:04:55Z</time>
      </trkpt>
      <trkpt lat="45.91486" lon="6.50992">
        <ele>2259</ele>
        <time>2017-08-29T08:04:56Z</time>
      </trkpt>
      <trkpt lat="45.91486" lon="6.50992">
        <ele>2259</ele>
        <time>2017-08-29T08:04:57Z</time>
      </trkpt>
      <trkpt lat="45.91486" lon="6.50992">
        <ele>2259</ele>
        <time>2017-08-29T08:04:58Z</time>
      </trkpt>
      <trkpt lat="45.91486" lon="6.50992">
        <ele>2259</ele>
        <time>2017-08-29T08:04:59Z</time>
      </trkpt>
      <trkpt lat="45.91484" lon="6.50993">
        <ele>2260</ele>
        <time>2017-08-29T08:05:00Z</time>
      </trkpt>
      <trkpt lat="45.91484" lon="6.50993">
        <ele>2260</ele>
        <time>2017-08-29T08:05:01Z</time>
      </trkpt>
      <trkpt lat="45.91484" lon="6.50993">
        <ele>2261</ele>
        <time>2017-08-29T08:05:02Z</time>
      </trkpt>
      <trkpt lat="45.91484" lon="6.50993">
        <ele>2261</ele>
        <time>2017-08-29T08:05:03Z</time>
      </trkpt>
      <trkpt lat="45.91484" lon="6.50993">
        <ele>2261</ele>
        <time>2017-08-29T08:05:04Z</time>
      </trkpt>
      <trkpt lat="45.91485" lon="6.50996">
        <ele>2261</ele>
        <time>2017-08-29T08:05:05Z</time>
      </trkpt>
      <trkpt lat="45.91485" lon="6.50996">
        <ele>2261</ele>
        <time>2017-08-29T08:05:06Z</time>
      </trkpt>
      <trkpt lat="45.91485" lon="6.50996">
        <ele>2261</ele>
        <time>2017-08-29T08:05:07Z</time>
      </trkpt>
      <trkpt lat="45.91485" lon="6.50996">
        <ele>2261</ele>
        <time>2017-08-29T08:05:08Z</time>
      </trkpt>
      <trkpt lat="45.91485" lon="6.50996">
        <ele>2261</ele>
        <time>2017-08-29T08:05:09Z</time>
      </trkpt>
      <trkpt lat="45.91485" lon="6.50996">
        <ele>2261</ele>
        <time>2017-08-29T08:05:10Z</time>
      </trkpt>
      <trkpt lat="45.91485" lon="6.50996">
        <ele>2261</ele>
        <time>2017-08-29T08:05:11Z</time>
      </trkpt>
      <trkpt lat="45.91486" lon="6.50998">
        <ele>2261</ele>
        <time>2017-08-29T08:05:12Z</time>
      </trkpt>
      <trkpt lat="45.91486" lon="6.50998">
        <ele>2261</ele>
        <time>2017-08-29T08:05:13Z</time>
      </trkpt>
      <trkpt lat="45.91486" lon="6.50998">
        <ele>2262</ele>
        <time>2017-08-29T08:05:14Z</time>
      </trkpt>
      <trkpt lat="45.91488" lon="6.51">
        <ele>2263</ele>
        <time>2017-08-29T08:05:15Z</time>
      </trkpt>
      <trkpt lat="45.91488" lon="6.51">
        <ele>2263</ele>
        <time>2017-08-29T08:05:16Z</time>
      </trkpt>
      <trkpt lat="45.91488" lon="6.51">
        <ele>2264</ele>
        <time>2017-08-29T08:05:17Z</time>
      </trkpt>
      <trkpt lat="45.91489" lon="6.51002">
        <ele>2264</ele>
        <time>2017-08-29T08:05:18Z</time>
      </trkpt>
      <trkpt lat="45.91489" lon="6.51002">
        <ele>2264</ele>
        <time>2017-08-29T08:05:19Z</time>
      </trkpt>
      <trkpt lat="45.91489" lon="6.51002">
        <ele>2264</ele>
        <time>2017-08-29T08:05:20Z</time>
      </trkpt>
      <trkpt lat="45.91489" lon="6.51002">
        <ele>2264</ele>
        <time>2017-08-29T08:05:21Z</time>
      </trkpt>
      <trkpt lat="45.91491" lon="6.51004">
        <ele>2265</ele>
        <time>2017-08-29T08:05:22Z</time>
      </trkpt>
      <trkpt lat="45.91491" lon="6.51004">
        <ele>2265</ele>
        <time>2017-08-29T08:05:23Z</time>
      </trkpt>
      <trkpt lat="45.91491" lon="6.51004">
        <ele>2265</ele>
        <time>2017-08-29T08:05:24Z</time>
      </trkpt>
      <trkpt lat="45.91491" lon="6.51004">
        <ele>2265</ele>
        <time>2017-08-29T08:05:25Z</time>
      </trkpt>
      <trkpt lat="45.91493" lon="6.51007">
        <ele>2266</ele>
        <time>2017-08-29T08:05:26Z</time>
      </trkpt>
      <trkpt lat="45.91493" lon="6.51007">
        <ele>2267</ele>
        <time>2017-08-29T08:05:27Z</time>
      </trkpt>
      <trkpt lat="45.91493" lon="6.51007">
        <ele>2267</ele>
        <time>2017-08-29T08:05:28Z</time>
      </trkpt>
      <trkpt lat="45.91493" lon="6.51007">
        <ele>2267</ele>
        <time>2017-08-29T08:05:29Z</time>
      </trkpt>
      <trkpt lat="45.91493" lon="6.51007">
        <ele>2266</ele>
        <time>2017-08-29T08:05:30Z</time>
      </trkpt>
      <trkpt lat="45.91493" lon="6.51007">
        <ele>2266</ele>
        <time>2017-08-29T08:05:31Z</time>
      </trkpt>
      <trkpt lat="45.91493" lon="6.51007">
        <ele>2266</ele>
        <time>2017-08-29T08:05:32Z</time>
      </trkpt>
      <trkpt lat="45.9149" lon="6.51007">
        <ele>2267</ele>
        <time>2017-08-29T08:05:33Z</time>
      </trkpt>
      <trkpt lat="45.9149" lon="6.51008">
        <ele>2267</ele>
        <time>2017-08-29T08:05:34Z</time>
      </trkpt>
      <trkpt lat="45.9149" lon="6.51009">
        <ele>2267</ele>
        <time>2017-08-29T08:05:35Z</time>
      </trkpt>
      <trkpt lat="45.9149" lon="6.5101">
        <ele>2267</ele>
        <time>2017-08-29T08:05:36Z</time>
      </trkpt>
      <trkpt lat="45.9149" lon="6.51011">
        <ele>2268</ele>
        <time>2017-08-29T08:05:37Z</time>
      </trkpt>
      <trkpt lat="45.91489" lon="6.51012">
        <ele>2268</ele>
        <time>2017-08-29T08:05:38Z</time>
      </trkpt>
      <trkpt lat="45.91489" lon="6.51013">
        <ele>2268</ele>
        <time>2017-08-29T08:05:39Z</time>
      </trkpt>
      <trkpt lat="45.91489" lon="6.51013">
        <ele>2268</ele>
        <time>2017-08-29T08:05:40Z</time>
      </trkpt>
      <trkpt lat="45.91489" lon="6.51013">
        <ele>2268</ele>
        <time>2017-08-29T08:05:41Z</time>
      </trkpt>
      <trkpt lat="45.91489" lon="6.51013">
        <ele>2269</ele>
        <time>2017-08-29T08:05:42Z</time>
      </trkpt>
      <trkpt lat="45.91489" lon="6.51013">
        <ele>2269</ele>
        <time>2017-08-29T08:05:43Z</time>
      </trkpt>
      <trkpt lat="45.91489" lon="6.51016">
        <ele>2269</ele>
        <time>2017-08-29T08:05:44Z</time>
      </trkpt>
      <trkpt lat="45.91489" lon="6.51016">
        <ele>2269</ele>
        <time>2017-08-29T08:05:45Z</time>
      </trkpt>
      <trkpt lat="45.91489" lon="6.51016">
        <ele>2270</ele>
        <time>2017-08-29T08:05:46Z</time>
      </trkpt>
      <trkpt lat="45.91489" lon="6.51016">
        <ele>2270</ele>
        <time>2017-08-29T08:05:47Z</time>
      </trkpt>
      <trkpt lat="45.91489" lon="6.51016">
        <ele>2270</ele>
        <time>2017-08-29T08:05:48Z</time>
      </trkpt>
      <trkpt lat="45.91489" lon="6.51016">
        <ele>2270</ele>
        <time>2017-08-29T08:05:49Z</time>
      </trkpt>
      <trkpt lat="45.91489" lon="6.51016">
        <ele>2270</ele>
        <time>2017-08-29T08:05:50Z</time>
      </trkpt>
      <trkpt lat="45.91489" lon="6.51016">
        <ele>2271</ele>
        <time>2017-08-29T08:05:51Z</time>
      </trkpt>
      <trkpt lat="45.91488" lon="6.51018">
        <ele>2271</ele>
        <time>2017-08-29T08:05:52Z</time>
      </trkpt>
      <trkpt lat="45.91488" lon="6.51018">
        <ele>2271</ele>
        <time>2017-08-29T08:05:53Z</time>
      </trkpt>
      <trkpt lat="45.91488" lon="6.51018">
        <ele>2272</ele>
        <time>2017-08-29T08:05:54Z</time>
      </trkpt>
      <trkpt lat="45.91488" lon="6.51018">
        <ele>2272</ele>
        <time>2017-08-29T08:05:55Z</time>
      </trkpt>
      <trkpt lat="45.91488" lon="6.51018">
        <ele>2272</ele>
        <time>2017-08-29T08:05:56Z</time>
      </trkpt>
      <trkpt lat="45.91488" lon="6.51018">
        <ele>2272</ele>
        <time>2017-08-29T08:05:57Z</time>
      </trkpt>
      <trkpt lat="45.91488" lon="6.51018">
        <ele>2273</ele>
        <time>2017-08-29T08:05:58Z</time>
      </trkpt>
      <trkpt lat="45.91487" lon="6.5102">
        <ele>2273</ele>
        <time>2017-08-29T08:05:59Z</time>
      </trkpt>
      <trkpt lat="45.91487" lon="6.5102">
        <ele>2273</ele>
        <time>2017-08-29T08:06:00Z</time>
      </trkpt>
      <trkpt lat="45.91487" lon="6.5102">
        <ele>2274</ele>
        <time>2017-08-29T08:06:01Z</time>
      </trkpt>
      <trkpt lat="45.91487" lon="6.5102">
        <ele>2274</ele>
        <time>2017-08-29T08:06:02Z</time>
      </trkpt>
      <trkpt lat="45.91485" lon="6.51022">
        <ele>2274</ele>
        <time>2017-08-29T08:06:03Z</time>
      </trkpt>
      <trkpt lat="45.91485" lon="6.51022">
        <ele>2274</ele>
        <time>2017-08-29T08:06:04Z</time>
      </trkpt>
      <trkpt lat="45.91485" lon="6.51022">
        <ele>2275</ele>
        <time>2017-08-29T08:06:05Z</time>
      </trkpt>
      <trkpt lat="45.91485" lon="6.51022">
        <ele>2275</ele>
        <time>2017-08-29T08:06:06Z</time>
      </trkpt>
      <trkpt lat="45.91485" lon="6.51022">
        <ele>2275</ele>
        <time>2017-08-29T08:06:07Z</time>
      </trkpt>
      <trkpt lat="45.91485" lon="6.51022">
        <ele>2275</ele>
        <time>2017-08-29T08:06:08Z</time>
      </trkpt>
      <trkpt lat="45.91485" lon="6.51022">
        <ele>2275</ele>
        <time>2017-08-29T08:06:09Z</time>
      </trkpt>
      <trkpt lat="45.91485" lon="6.51022">
        <ele>2275</ele>
        <time>2017-08-29T08:06:10Z</time>
      </trkpt>
      <trkpt lat="45.91485" lon="6.51022">
        <ele>2275</ele>
        <time>2017-08-29T08:06:11Z</time>
      </trkpt>
      <trkpt lat="45.91484" lon="6.51024">
        <ele>2275</ele>
        <time>2017-08-29T08:06:12Z</time>
      </trkpt>
      <trkpt lat="45.91484" lon="6.51024">
        <ele>2275</ele>
        <time>2017-08-29T08:06:13Z</time>
      </trkpt>
      <trkpt lat="45.91484" lon="6.51024">
        <ele>2275</ele>
        <time>2017-08-29T08:06:14Z</time>
      </trkpt>
      <trkpt lat="45.91481" lon="6.51025">
        <ele>2275</ele>
        <time>2017-08-29T08:06:15Z</time>
      </trkpt>
      <trkpt lat="45.91481" lon="6.51025">
        <ele>2275</ele>
        <time>2017-08-29T08:06:16Z</time>
      </trkpt>
      <trkpt lat="45.91481" lon="6.51025">
        <ele>2276</ele>
        <time>2017-08-29T08:06:17Z</time>
      </trkpt>
      <trkpt lat="45.91481" lon="6.51025">
        <ele>2276</ele>
        <time>2017-08-29T08:06:18Z</time>
      </trkpt>
      <trkpt lat="45.9148" lon="6.51027">
        <ele>2276</ele>
        <time>2017-08-29T08:06:19Z</time>
      </trkpt>
      <trkpt lat="45.9148" lon="6.51027">
        <ele>2276</ele>
        <time>2017-08-29T08:06:20Z</time>
      </trkpt>
      <trkpt lat="45.9148" lon="6.51027">
        <ele>2276</ele>
        <time>2017-08-29T08:06:21Z</time>
      </trkpt>
      <trkpt lat="45.9148" lon="6.51027">
        <ele>2276</ele>
        <time>2017-08-29T08:06:22Z</time>
      </trkpt>
      <trkpt lat="45.91481" lon="6.51029">
        <ele>2277</ele>
        <time>2017-08-29T08:06:23Z</time>
      </trkpt>
      <trkpt lat="45.91481" lon="6.51029">
        <ele>2277</ele>
        <time>2017-08-29T08:06:24Z</time>
      </trkpt>
      <trkpt lat="45.91481" lon="6.51029">
        <ele>2277</ele>
        <time>2017-08-29T08:06:25Z</time>
      </trkpt>
      <trkpt lat="45.91481" lon="6.51029">
        <ele>2277</ele>
        <time>2017-08-29T08:06:26Z</time>
      </trkpt>
      <trkpt lat="45.91481" lon="6.51029">
        <ele>2279</ele>
        <time>2017-08-29T08:06:27Z</time>
      </trkpt>
      <trkpt lat="45.91481" lon="6.51029">
        <ele>2279</ele>
        <time>2017-08-29T08:06:28Z</time>
      </trkpt>
      <trkpt lat="45.91481" lon="6.51029">
        <ele>2279</ele>
        <time>2017-08-29T08:06:29Z</time>
      </trkpt>
      <trkpt lat="45.91481" lon="6.51029">
        <ele>2279</ele>
        <time>2017-08-29T08:06:30Z</time>
      </trkpt>
      <trkpt lat="45.91481" lon="6.51029">
        <ele>2280</ele>
        <time>2017-08-29T08:06:31Z</time>
      </trkpt>
      <trkpt lat="45.91484" lon="6.51029">
        <ele>2280</ele>
        <time>2017-08-29T08:06:32Z</time>
      </trkpt>
      <trkpt lat="45.91484" lon="6.51029">
        <ele>2280</ele>
        <time>2017-08-29T08:06:33Z</time>
      </trkpt>
      <trkpt lat="45.91484" lon="6.51029">
        <ele>2281</ele>
        <time>2017-08-29T08:06:34Z</time>
      </trkpt>
      <trkpt lat="45.91486" lon="6.5103">
        <ele>2281</ele>
        <time>2017-08-29T08:06:35Z</time>
      </trkpt>
      <trkpt lat="45.91486" lon="6.5103">
        <ele>2281</ele>
        <time>2017-08-29T08:06:36Z</time>
      </trkpt>
      <trkpt lat="45.91486" lon="6.5103">
        <ele>2281</ele>
        <time>2017-08-29T08:06:37Z</time>
      </trkpt>
      <trkpt lat="45.91487" lon="6.51034">
        <ele>2281</ele>
        <time>2017-08-29T08:06:38Z</time>
      </trkpt>
      <trkpt lat="45.91487" lon="6.51034">
        <ele>2281</ele>
        <time>2017-08-29T08:06:39Z</time>
      </trkpt>
      <trkpt lat="45.91487" lon="6.51034">
        <ele>2282</ele>
        <time>2017-08-29T08:06:40Z</time>
      </trkpt>
      <trkpt lat="45.91487" lon="6.51036">
        <ele>2282</ele>
        <time>2017-08-29T08:06:41Z</time>
      </trkpt>
      <trkpt lat="45.91487" lon="6.51036">
        <ele>2282</ele>
        <time>2017-08-29T08:06:42Z</time>
      </trkpt>
      <trkpt lat="45.91487" lon="6.51036">
        <ele>2282</ele>
        <time>2017-08-29T08:06:43Z</time>
      </trkpt>
      <trkpt lat="45.91488" lon="6.51039">
        <ele>2283</ele>
        <time>2017-08-29T08:06:44Z</time>
      </trkpt>
      <trkpt lat="45.91488" lon="6.5104">
        <ele>2283</ele>
        <time>2017-08-29T08:06:45Z</time>
      </trkpt>
      <trkpt lat="45.91488" lon="6.51041">
        <ele>2283</ele>
        <time>2017-08-29T08:06:46Z</time>
      </trkpt>
      <trkpt lat="45.91489" lon="6.51041">
        <ele>2284</ele>
        <time>2017-08-29T08:06:47Z</time>
      </trkpt>
      <trkpt lat="45.91489" lon="6.51042">
        <ele>2284</ele>
        <time>2017-08-29T08:06:48Z</time>
      </trkpt>
      <trkpt lat="45.91489" lon="6.51042">
        <ele>2284</ele>
        <time>2017-08-29T08:06:49Z</time>
      </trkpt>
      <trkpt lat="45.91489" lon="6.51043">
        <ele>2284</ele>
        <time>2017-08-29T08:06:50Z</time>
      </trkpt>
      <trkpt lat="45.9149" lon="6.51044">
        <ele>2284</ele>
        <time>2017-08-29T08:06:51Z</time>
      </trkpt>
      <trkpt lat="45.9149" lon="6.51044">
        <ele>2284</ele>
        <time>2017-08-29T08:06:52Z</time>
      </trkpt>
      <trkpt lat="45.9149" lon="6.51044">
        <ele>2285</ele>
        <time>2017-08-29T08:06:53Z</time>
      </trkpt>
      <trkpt lat="45.9149" lon="6.51044">
        <ele>2285</ele>
        <time>2017-08-29T08:06:54Z</time>
      </trkpt>
      <trkpt lat="45.9149" lon="6.51044">
        <ele>2285</ele>
        <time>2017-08-29T08:06:55Z</time>
      </trkpt>
      <trkpt lat="45.9149" lon="6.51044">
        <ele>2285</ele>
        <time>2017-08-29T08:06:56Z</time>
      </trkpt>
      <trkpt lat="45.91491" lon="6.51047">
        <ele>2285</ele>
        <time>2017-08-29T08:06:57Z</time>
      </trkpt>
      <trkpt lat="45.91491" lon="6.51048">
        <ele>2285</ele>
        <time>2017-08-29T08:06:58Z</time>
      </trkpt>
      <trkpt lat="45.91492" lon="6.51049">
        <ele>2286</ele>
        <time>2017-08-29T08:06:59Z</time>
      </trkpt>
      <trkpt lat="45.91492" lon="6.5105">
        <ele>2286</ele>
        <time>2017-08-29T08:07:00Z</time>
      </trkpt>
      <trkpt lat="45.91493" lon="6.51051">
        <ele>2286</ele>
        <time>2017-08-29T08:07:01Z</time>
      </trkpt>
      <trkpt lat="45.91493" lon="6.51052">
        <ele>2287</ele>
        <time>2017-08-29T08:07:02Z</time>
      </trkpt>
      <trkpt lat="45.91493" lon="6.51053">
        <ele>2287</ele>
        <time>2017-08-29T08:07:03Z</time>
      </trkpt>
      <trkpt lat="45.91494" lon="6.51054">
        <ele>2287</ele>
        <time>2017-08-29T08:07:04Z</time>
      </trkpt>
      <trkpt lat="45.91494" lon="6.51055">
        <ele>2287</ele>
        <time>2017-08-29T08:07:05Z</time>
      </trkpt>
      <trkpt lat="45.91494" lon="6.51056">
        <ele>2287</ele>
        <time>2017-08-29T08:07:06Z</time>
      </trkpt>
      <trkpt lat="45.91495" lon="6.51057">
        <ele>2288</ele>
        <time>2017-08-29T08:07:07Z</time>
      </trkpt>
      <trkpt lat="45.91495" lon="6.51058">
        <ele>2288</ele>
        <time>2017-08-29T08:07:08Z</time>
      </trkpt>
      <trkpt lat="45.91495" lon="6.51058">
        <ele>2289</ele>
        <time>2017-08-29T08:07:09Z</time>
      </trkpt>
      <trkpt lat="45.91495" lon="6.51058">
        <ele>2289</ele>
        <time>2017-08-29T08:07:10Z</time>
      </trkpt>
      <trkpt lat="45.91495" lon="6.51058">
        <ele>2289</ele>
        <time>2017-08-29T08:07:11Z</time>
      </trkpt>
      <trkpt lat="45.91497" lon="6.5106">
        <ele>2289</ele>
        <time>2017-08-29T08:07:12Z</time>
      </trkpt>
      <trkpt lat="45.91497" lon="6.51061">
        <ele>2289</ele>
        <time>2017-08-29T08:07:13Z</time>
      </trkpt>
      <trkpt lat="45.91497" lon="6.51062">
        <ele>2290</ele>
        <time>2017-08-29T08:07:14Z</time>
      </trkpt>
      <trkpt lat="45.91497" lon="6.51062">
        <ele>2290</ele>
        <time>2017-08-29T08:07:15Z</time>
      </trkpt>
      <trkpt lat="45.91497" lon="6.51063">
        <ele>2290</ele>
        <time>2017-08-29T08:07:16Z</time>
      </trkpt>
      <trkpt lat="45.91497" lon="6.51064">
        <ele>2291</ele>
        <time>2017-08-29T08:07:17Z</time>
      </trkpt>
      <trkpt lat="45.91497" lon="6.51065">
        <ele>2291</ele>
        <time>2017-08-29T08:07:18Z</time>
      </trkpt>
      <trkpt lat="45.91497" lon="6.51065">
        <ele>2291</ele>
        <time>2017-08-29T08:07:19Z</time>
      </trkpt>
      <trkpt lat="45.91497" lon="6.51065">
        <ele>2291</ele>
        <time>2017-08-29T08:07:20Z</time>
      </trkpt>
      <trkpt lat="45.91497" lon="6.51065">
        <ele>2291</ele>
        <time>2017-08-29T08:07:21Z</time>
      </trkpt>
      <trkpt lat="45.91497" lon="6.51068">
        <ele>2291</ele>
        <time>2017-08-29T08:07:22Z</time>
      </trkpt>
      <trkpt lat="45.91497" lon="6.51068">
        <ele>2291</ele>
        <time>2017-08-29T08:07:23Z</time>
      </trkpt>
      <trkpt lat="45.91497" lon="6.51068">
        <ele>2291</ele>
        <time>2017-08-29T08:07:24Z</time>
      </trkpt>
      <trkpt lat="45.91497" lon="6.51068">
        <ele>2291</ele>
        <time>2017-08-29T08:07:25Z</time>
      </trkpt>
      <trkpt lat="45.91496" lon="6.51071">
        <ele>2291</ele>
        <time>2017-08-29T08:07:26Z</time>
      </trkpt>
      <trkpt lat="45.91496" lon="6.51071">
        <ele>2291</ele>
        <time>2017-08-29T08:07:27Z</time>
      </trkpt>
      <trkpt lat="45.91496" lon="6.51071">
        <ele>2292</ele>
        <time>2017-08-29T08:07:28Z</time>
      </trkpt>
      <trkpt lat="45.91496" lon="6.51071">
        <ele>2292</ele>
        <time>2017-08-29T08:07:29Z</time>
      </trkpt>
      <trkpt lat="45.91497" lon="6.51074">
        <ele>2292</ele>
        <time>2017-08-29T08:07:30Z</time>
      </trkpt>
      <trkpt lat="45.91497" lon="6.51074">
        <ele>2293</ele>
        <time>2017-08-29T08:07:31Z</time>
      </trkpt>
      <trkpt lat="45.91497" lon="6.51074">
        <ele>2293</ele>
        <time>2017-08-29T08:07:32Z</time>
      </trkpt>
      <trkpt lat="45.91497" lon="6.51074">
        <ele>2294</ele>
        <time>2017-08-29T08:07:33Z</time>
      </trkpt>
      <trkpt lat="45.91497" lon="6.51074">
        <ele>2294</ele>
        <time>2017-08-29T08:07:34Z</time>
      </trkpt>
      <trkpt lat="45.91497" lon="6.51074">
        <ele>2294</ele>
        <time>2017-08-29T08:07:35Z</time>
      </trkpt>
      <trkpt lat="45.91497" lon="6.51074">
        <ele>2294</ele>
        <time>2017-08-29T08:07:36Z</time>
      </trkpt>
      <trkpt lat="45.91499" lon="6.51076">
        <ele>2294</ele>
        <time>2017-08-29T08:07:37Z</time>
      </trkpt>
      <trkpt lat="45.91499" lon="6.51076">
        <ele>2294</ele>
        <time>2017-08-29T08:07:38Z</time>
      </trkpt>
      <trkpt lat="45.91499" lon="6.51076">
        <ele>2295</ele>
        <time>2017-08-29T08:07:39Z</time>
      </trkpt>
      <trkpt lat="45.91499" lon="6.51076">
        <ele>2295</ele>
        <time>2017-08-29T08:07:40Z</time>
      </trkpt>
      <trkpt lat="45.91501" lon="6.51075">
        <ele>2295</ele>
        <time>2017-08-29T08:07:41Z</time>
      </trkpt>
      <trkpt lat="45.91501" lon="6.51075">
        <ele>2295</ele>
        <time>2017-08-29T08:07:42Z</time>
      </trkpt>
      <trkpt lat="45.91501" lon="6.51075">
        <ele>2295</ele>
        <time>2017-08-29T08:07:43Z</time>
      </trkpt>
      <trkpt lat="45.91503" lon="6.51073">
        <ele>2296</ele>
        <time>2017-08-29T08:07:44Z</time>
      </trkpt>
      <trkpt lat="45.91503" lon="6.51073">
        <ele>2296</ele>
        <time>2017-08-29T08:07:45Z</time>
      </trkpt>
      <trkpt lat="45.91503" lon="6.51073">
        <ele>2296</ele>
        <time>2017-08-29T08:07:46Z</time>
      </trkpt>
      <trkpt lat="45.91504" lon="6.51075">
        <ele>2296</ele>
        <time>2017-08-29T08:07:47Z</time>
      </trkpt>
      <trkpt lat="45.91504" lon="6.51075">
        <ele>2296</ele>
        <time>2017-08-29T08:07:48Z</time>
      </trkpt>
      <trkpt lat="45.91504" lon="6.51075">
        <ele>2297</ele>
        <time>2017-08-29T08:07:49Z</time>
      </trkpt>
      <trkpt lat="45.91506" lon="6.51078">
        <ele>2297</ele>
        <time>2017-08-29T08:07:50Z</time>
      </trkpt>
      <trkpt lat="45.91506" lon="6.51078">
        <ele>2298</ele>
        <time>2017-08-29T08:07:51Z</time>
      </trkpt>
      <trkpt lat="45.91506" lon="6.51078">
        <ele>2298</ele>
        <time>2017-08-29T08:07:52Z</time>
      </trkpt>
      <trkpt lat="45.91506" lon="6.51081">
        <ele>2298</ele>
        <time>2017-08-29T08:07:53Z</time>
      </trkpt>
      <trkpt lat="45.91506" lon="6.51081">
        <ele>2298</ele>
        <time>2017-08-29T08:07:54Z</time>
      </trkpt>
      <trkpt lat="45.91506" lon="6.51081">
        <ele>2298</ele>
        <time>2017-08-29T08:07:55Z</time>
      </trkpt>
      <trkpt lat="45.91506" lon="6.51081">
        <ele>2298</ele>
        <time>2017-08-29T08:07:56Z</time>
      </trkpt>
      <trkpt lat="45.91506" lon="6.51083">
        <ele>2298</ele>
        <time>2017-08-29T08:07:57Z</time>
      </trkpt>
      <trkpt lat="45.91506" lon="6.51083">
        <ele>2298</ele>
        <time>2017-08-29T08:07:58Z</time>
      </trkpt>
      <trkpt lat="45.91506" lon="6.51083">
        <ele>2299</ele>
        <time>2017-08-29T08:07:59Z</time>
      </trkpt>
      <trkpt lat="45.91506" lon="6.51083">
        <ele>2299</ele>
        <time>2017-08-29T08:08:00Z</time>
      </trkpt>
      <trkpt lat="45.91508" lon="6.51084">
        <ele>2299</ele>
        <time>2017-08-29T08:08:01Z</time>
      </trkpt>
      <trkpt lat="45.91508" lon="6.51084">
        <ele>2299</ele>
        <time>2017-08-29T08:08:02Z</time>
      </trkpt>
      <trkpt lat="45.91508" lon="6.51084">
        <ele>2300</ele>
        <time>2017-08-29T08:08:03Z</time>
      </trkpt>
      <trkpt lat="45.91509" lon="6.51083">
        <ele>2300</ele>
        <time>2017-08-29T08:08:04Z</time>
      </trkpt>
      <trkpt lat="45.91509" lon="6.51083">
        <ele>2300</ele>
        <time>2017-08-29T08:08:05Z</time>
      </trkpt>
      <trkpt lat="45.91509" lon="6.51083">
        <ele>2301</ele>
        <time>2017-08-29T08:08:06Z</time>
      </trkpt>
      <trkpt lat="45.91509" lon="6.51083">
        <ele>2301</ele>
        <time>2017-08-29T08:08:07Z</time>
      </trkpt>
      <trkpt lat="45.91509" lon="6.51083">
        <ele>2301</ele>
        <time>2017-08-29T08:08:08Z</time>
      </trkpt>
      <trkpt lat="45.91512" lon="6.51083">
        <ele>2301</ele>
        <time>2017-08-29T08:08:09Z</time>
      </trkpt>
      <trkpt lat="45.91512" lon="6.51083">
        <ele>2301</ele>
        <time>2017-08-29T08:08:10Z</time>
      </trkpt>
      <trkpt lat="45.91512" lon="6.51083">
        <ele>2302</ele>
        <time>2017-08-29T08:08:11Z</time>
      </trkpt>
      <trkpt lat="45.91512" lon="6.51083">
        <ele>2302</ele>
        <time>2017-08-29T08:08:12Z</time>
      </trkpt>
      <trkpt lat="45.91515" lon="6.51084">
        <ele>2302</ele>
        <time>2017-08-29T08:08:13Z</time>
      </trkpt>
      <trkpt lat="45.91515" lon="6.51084">
        <ele>2302</ele>
        <time>2017-08-29T08:08:14Z</time>
      </trkpt>
      <trkpt lat="45.91515" lon="6.51084">
        <ele>2303</ele>
        <time>2017-08-29T08:08:15Z</time>
      </trkpt>
      <trkpt lat="45.91515" lon="6.51084">
        <ele>2303</ele>
        <time>2017-08-29T08:08:16Z</time>
      </trkpt>
      <trkpt lat="45.91515" lon="6.51084">
        <ele>2303</ele>
        <time>2017-08-29T08:08:17Z</time>
      </trkpt>
      <trkpt lat="45.91518" lon="6.51084">
        <ele>2303</ele>
        <time>2017-08-29T08:08:18Z</time>
      </trkpt>
      <trkpt lat="45.91518" lon="6.51084">
        <ele>2305</ele>
        <time>2017-08-29T08:08:19Z</time>
      </trkpt>
      <trkpt lat="45.9152" lon="6.51085">
        <ele>2305</ele>
        <time>2017-08-29T08:08:20Z</time>
      </trkpt>
      <trkpt lat="45.91521" lon="6.51086">
        <ele>2305</ele>
        <time>2017-08-29T08:08:21Z</time>
      </trkpt>
      <trkpt lat="45.91522" lon="6.51087">
        <ele>2305</ele>
        <time>2017-08-29T08:08:22Z</time>
      </trkpt>
      <trkpt lat="45.91523" lon="6.51087">
        <ele>2305</ele>
        <time>2017-08-29T08:08:23Z</time>
      </trkpt>
      <trkpt lat="45.91524" lon="6.51088">
        <ele>2306</ele>
        <time>2017-08-29T08:08:24Z</time>
      </trkpt>
      <trkpt lat="45.91525" lon="6.51089">
        <ele>2306</ele>
        <time>2017-08-29T08:08:25Z</time>
      </trkpt>
      <trkpt lat="45.91526" lon="6.5109">
        <ele>2306</ele>
        <time>2017-08-29T08:08:26Z</time>
      </trkpt>
      <trkpt lat="45.91526" lon="6.5109">
        <ele>2307</ele>
        <time>2017-08-29T08:08:27Z</time>
      </trkpt>
      <trkpt lat="45.91526" lon="6.5109">
        <ele>2307</ele>
        <time>2017-08-29T08:08:28Z</time>
      </trkpt>
      <trkpt lat="45.91526" lon="6.5109">
        <ele>2307</ele>
        <time>2017-08-29T08:08:29Z</time>
      </trkpt>
      <trkpt lat="45.91526" lon="6.5109">
        <ele>2307</ele>
        <time>2017-08-29T08:08:30Z</time>
      </trkpt>
      <trkpt lat="45.91526" lon="6.5109">
        <ele>2307</ele>
        <time>2017-08-29T08:08:31Z</time>
      </trkpt>
      <trkpt lat="45.91526" lon="6.5109">
        <ele>2307</ele>
        <time>2017-08-29T08:08:32Z</time>
      </trkpt>
      <trkpt lat="45.91526" lon="6.5109">
        <ele>2307</ele>
        <time>2017-08-29T08:08:33Z</time>
      </trkpt>
      <trkpt lat="45.91527" lon="6.51092">
        <ele>2308</ele>
        <time>2017-08-29T08:08:34Z</time>
      </trkpt>
      <trkpt lat="45.91527" lon="6.51092">
        <ele>2308</ele>
        <time>2017-08-29T08:08:35Z</time>
      </trkpt>
      <trkpt lat="45.91527" lon="6.51092">
        <ele>2308</ele>
        <time>2017-08-29T08:08:36Z</time>
      </trkpt>
      <trkpt lat="45.91527" lon="6.51092">
        <ele>2308</ele>
        <time>2017-08-29T08:08:37Z</time>
      </trkpt>
      <trkpt lat="45.91527" lon="6.51092">
        <ele>2308</ele>
        <time>2017-08-29T08:08:38Z</time>
      </trkpt>
      <trkpt lat="45.91527" lon="6.51095">
        <ele>2309</ele>
        <time>2017-08-29T08:08:39Z</time>
      </trkpt>
      <trkpt lat="45.91527" lon="6.51095">
        <ele>2309</ele>
        <time>2017-08-29T08:08:40Z</time>
      </trkpt>
      <trkpt lat="45.91527" lon="6.51095">
        <ele>2309</ele>
        <time>2017-08-29T08:08:41Z</time>
      </trkpt>
      <trkpt lat="45.91527" lon="6.51095">
        <ele>2309</ele>
        <time>2017-08-29T08:08:42Z</time>
      </trkpt>
      <trkpt lat="45.91525" lon="6.51097">
        <ele>2309</ele>
        <time>2017-08-29T08:08:43Z</time>
      </trkpt>
      <trkpt lat="45.91525" lon="6.51097">
        <ele>2310</ele>
        <time>2017-08-29T08:08:44Z</time>
      </trkpt>
      <trkpt lat="45.91525" lon="6.51097">
        <ele>2310</ele>
        <time>2017-08-29T08:08:45Z</time>
      </trkpt>
      <trkpt lat="45.91523" lon="6.51097">
        <ele>2310</ele>
        <time>2017-08-29T08:08:46Z</time>
      </trkpt>
      <trkpt lat="45.91523" lon="6.51097">
        <ele>2310</ele>
        <time>2017-08-29T08:08:47Z</time>
      </trkpt>
      <trkpt lat="45.91523" lon="6.51097">
        <ele>2310</ele>
        <time>2017-08-29T08:08:48Z</time>
      </trkpt>
      <trkpt lat="45.91521" lon="6.51098">
        <ele>2310</ele>
        <time>2017-08-29T08:08:49Z</time>
      </trkpt>
      <trkpt lat="45.91521" lon="6.51098">
        <ele>2310</ele>
        <time>2017-08-29T08:08:50Z</time>
      </trkpt>
      <trkpt lat="45.91521" lon="6.51098">
        <ele>2311</ele>
        <time>2017-08-29T08:08:51Z</time>
      </trkpt>
      <trkpt lat="45.91519" lon="6.511">
        <ele>2312</ele>
        <time>2017-08-29T08:08:52Z</time>
      </trkpt>
      <trkpt lat="45.91519" lon="6.511">
        <ele>2312</ele>
        <time>2017-08-29T08:08:53Z</time>
      </trkpt>
      <trkpt lat="45.91519" lon="6.511">
        <ele>2312</ele>
        <time>2017-08-29T08:08:54Z</time>
      </trkpt>
      <trkpt lat="45.91519" lon="6.511">
        <ele>2312</ele>
        <time>2017-08-29T08:08:55Z</time>
      </trkpt>
      <trkpt lat="45.91519" lon="6.51103">
        <ele>2312</ele>
        <time>2017-08-29T08:08:56Z</time>
      </trkpt>
      <trkpt lat="45.91519" lon="6.51103">
        <ele>2312</ele>
        <time>2017-08-29T08:08:57Z</time>
      </trkpt>
      <trkpt lat="45.91519" lon="6.51103">
        <ele>2312</ele>
        <time>2017-08-29T08:08:58Z</time>
      </trkpt>
      <trkpt lat="45.91519" lon="6.51103">
        <ele>2313</ele>
        <time>2017-08-29T08:08:59Z</time>
      </trkpt>
      <trkpt lat="45.91519" lon="6.51103">
        <ele>2313</ele>
        <time>2017-08-29T08:09:00Z</time>
      </trkpt>
      <trkpt lat="45.9152" lon="6.51105">
        <ele>2314</ele>
        <time>2017-08-29T08:09:01Z</time>
      </trkpt>
      <trkpt lat="45.9152" lon="6.51105">
        <ele>2314</ele>
        <time>2017-08-29T08:09:02Z</time>
      </trkpt>
      <trkpt lat="45.9152" lon="6.51105">
        <ele>2314</ele>
        <time>2017-08-29T08:09:03Z</time>
      </trkpt>
      <trkpt lat="45.9152" lon="6.51105">
        <ele>2314</ele>
        <time>2017-08-29T08:09:04Z</time>
      </trkpt>
      <trkpt lat="45.9152" lon="6.51105">
        <ele>2314</ele>
        <time>2017-08-29T08:09:05Z</time>
      </trkpt>
      <trkpt lat="45.91522" lon="6.51107">
        <ele>2315</ele>
        <time>2017-08-29T08:09:06Z</time>
      </trkpt>
      <trkpt lat="45.91523" lon="6.51107">
        <ele>2315</ele>
        <time>2017-08-29T08:09:07Z</time>
      </trkpt>
      <trkpt lat="45.91524" lon="6.51108">
        <ele>2315</ele>
        <time>2017-08-29T08:09:08Z</time>
      </trkpt>
      <trkpt lat="45.91525" lon="6.51108">
        <ele>2315</ele>
        <time>2017-08-29T08:09:09Z</time>
      </trkpt>
      <trkpt lat="45.91526" lon="6.51109">
        <ele>2315</ele>
        <time>2017-08-29T08:09:10Z</time>
      </trkpt>
      <trkpt lat="45.91527" lon="6.51109">
        <ele>2315</ele>
        <time>2017-08-29T08:09:11Z</time>
      </trkpt>
      <trkpt lat="45.91528" lon="6.5111">
        <ele>2316</ele>
        <time>2017-08-29T08:09:12Z</time>
      </trkpt>
      <trkpt lat="45.91528" lon="6.5111">
        <ele>2316</ele>
        <time>2017-08-29T08:09:13Z</time>
      </trkpt>
      <trkpt lat="45.91528" lon="6.5111">
        <ele>2316</ele>
        <time>2017-08-29T08:09:14Z</time>
      </trkpt>
      <trkpt lat="45.91528" lon="6.5111">
        <ele>2316</ele>
        <time>2017-08-29T08:09:15Z</time>
      </trkpt>
      <trkpt lat="45.91529" lon="6.51112">
        <ele>2316</ele>
        <time>2017-08-29T08:09:16Z</time>
      </trkpt>
      <trkpt lat="45.91529" lon="6.51112">
        <ele>2316</ele>
        <time>2017-08-29T08:09:17Z</time>
      </trkpt>
      <trkpt lat="45.91529" lon="6.51112">
        <ele>2317</ele>
        <time>2017-08-29T08:09:18Z</time>
      </trkpt>
      <trkpt lat="45.91528" lon="6.51115">
        <ele>2317</ele>
        <time>2017-08-29T08:09:19Z</time>
      </trkpt>
      <trkpt lat="45.91528" lon="6.51115">
        <ele>2317</ele>
        <time>2017-08-29T08:09:20Z</time>
      </trkpt>
      <trkpt lat="45.91528" lon="6.51115">
        <ele>2318</ele>
        <time>2017-08-29T08:09:21Z</time>
      </trkpt>
      <trkpt lat="45.91528" lon="6.51115">
        <ele>2318</ele>
        <time>2017-08-29T08:09:22Z</time>
      </trkpt>
      <trkpt lat="45.91528" lon="6.51115">
        <ele>2318</ele>
        <time>2017-08-29T08:09:23Z</time>
      </trkpt>
      <trkpt lat="45.91526" lon="6.51117">
        <ele>2319</ele>
        <time>2017-08-29T08:09:24Z</time>
      </trkpt>
      <trkpt lat="45.91526" lon="6.51117">
        <ele>2319</ele>
        <time>2017-08-29T08:09:25Z</time>
      </trkpt>
      <trkpt lat="45.91526" lon="6.51117">
        <ele>2319</ele>
        <time>2017-08-29T08:09:26Z</time>
      </trkpt>
      <trkpt lat="45.91526" lon="6.51117">
        <ele>2319</ele>
        <time>2017-08-29T08:09:27Z</time>
      </trkpt>
      <trkpt lat="45.91526" lon="6.51117">
        <ele>2319</ele>
        <time>2017-08-29T08:09:28Z</time>
      </trkpt>
      <trkpt lat="45.91525" lon="6.5112">
        <ele>2319</ele>
        <time>2017-08-29T08:09:29Z</time>
      </trkpt>
      <trkpt lat="45.91525" lon="6.5112">
        <ele>2320</ele>
        <time>2017-08-29T08:09:30Z</time>
      </trkpt>
      <trkpt lat="45.91525" lon="6.5112">
        <ele>2320</ele>
        <time>2017-08-29T08:09:31Z</time>
      </trkpt>
      <trkpt lat="45.91525" lon="6.5112">
        <ele>2320</ele>
        <time>2017-08-29T08:09:32Z</time>
      </trkpt>
      <trkpt lat="45.91526" lon="6.51122">
        <ele>2320</ele>
        <time>2017-08-29T08:09:33Z</time>
      </trkpt>
      <trkpt lat="45.91526" lon="6.51122">
        <ele>2320</ele>
        <time>2017-08-29T08:09:34Z</time>
      </trkpt>
      <trkpt lat="45.91526" lon="6.51122">
        <ele>2320</ele>
        <time>2017-08-29T08:09:35Z</time>
      </trkpt>
      <trkpt lat="45.91526" lon="6.51122">
        <ele>2321</ele>
        <time>2017-08-29T08:09:36Z</time>
      </trkpt>
      <trkpt lat="45.91526" lon="6.51122">
        <ele>2321</ele>
        <time>2017-08-29T08:09:37Z</time>
      </trkpt>
      <trkpt lat="45.91526" lon="6.51122">
        <ele>2321</ele>
        <time>2017-08-29T08:09:38Z</time>
      </trkpt>
      <trkpt lat="45.91526" lon="6.51122">
        <ele>2322</ele>
        <time>2017-08-29T08:09:39Z</time>
      </trkpt>
      <trkpt lat="45.91529" lon="6.51122">
        <ele>2322</ele>
        <time>2017-08-29T08:09:40Z</time>
      </trkpt>
      <trkpt lat="45.91529" lon="6.51122">
        <ele>2322</ele>
        <time>2017-08-29T08:09:41Z</time>
      </trkpt>
      <trkpt lat="45.91529" lon="6.51122">
        <ele>2322</ele>
        <time>2017-08-29T08:09:42Z</time>
      </trkpt>
      <trkpt lat="45.91529" lon="6.51122">
        <ele>2322</ele>
        <time>2017-08-29T08:09:43Z</time>
      </trkpt>
      <trkpt lat="45.91529" lon="6.51125">
        <ele>2323</ele>
        <time>2017-08-29T08:09:44Z</time>
      </trkpt>
      <trkpt lat="45.91529" lon="6.51125">
        <ele>2323</ele>
        <time>2017-08-29T08:09:45Z</time>
      </trkpt>
      <trkpt lat="45.91529" lon="6.51125">
        <ele>2323</ele>
        <time>2017-08-29T08:09:46Z</time>
      </trkpt>
      <trkpt lat="45.91529" lon="6.51125">
        <ele>2323</ele>
        <time>2017-08-29T08:09:47Z</time>
      </trkpt>
      <trkpt lat="45.91529" lon="6.51125">
        <ele>2324</ele>
        <time>2017-08-29T08:09:48Z</time>
      </trkpt>
      <trkpt lat="45.91529" lon="6.51125">
        <ele>2324</ele>
        <time>2017-08-29T08:09:49Z</time>
      </trkpt>
      <trkpt lat="45.91529" lon="6.51125">
        <ele>2324</ele>
        <time>2017-08-29T08:09:50Z</time>
      </trkpt>
      <trkpt lat="45.91529" lon="6.51125">
        <ele>2325</ele>
        <time>2017-08-29T08:09:51Z</time>
      </trkpt>
      <trkpt lat="45.91531" lon="6.51126">
        <ele>2325</ele>
        <time>2017-08-29T08:09:52Z</time>
      </trkpt>
      <trkpt lat="45.91531" lon="6.51126">
        <ele>2325</ele>
        <time>2017-08-29T08:09:53Z</time>
      </trkpt>
      <trkpt lat="45.91531" lon="6.51126">
        <ele>2325</ele>
        <time>2017-08-29T08:09:54Z</time>
      </trkpt>
      <trkpt lat="45.91531" lon="6.51126">
        <ele>2325</ele>
        <time>2017-08-29T08:09:55Z</time>
      </trkpt>
      <trkpt lat="45.91533" lon="6.51125">
        <ele>2325</ele>
        <time>2017-08-29T08:09:56Z</time>
      </trkpt>
      <trkpt lat="45.91533" lon="6.51125">
        <ele>2325</ele>
        <time>2017-08-29T08:09:57Z</time>
      </trkpt>
      <trkpt lat="45.91533" lon="6.51125">
        <ele>2326</ele>
        <time>2017-08-29T08:09:58Z</time>
      </trkpt>
      <trkpt lat="45.91533" lon="6.51125">
        <ele>2326</ele>
        <time>2017-08-29T08:09:59Z</time>
      </trkpt>
      <trkpt lat="45.91533" lon="6.51125">
        <ele>2326</ele>
        <time>2017-08-29T08:10:00Z</time>
      </trkpt>
      <trkpt lat="45.91533" lon="6.51125">
        <ele>2326</ele>
        <time>2017-08-29T08:10:01Z</time>
      </trkpt>
      <trkpt lat="45.91533" lon="6.51125">
        <ele>2326</ele>
        <time>2017-08-29T08:10:02Z</time>
      </trkpt>
      <trkpt lat="45.91533" lon="6.51125">
        <ele>2326</ele>
        <time>2017-08-29T08:10:03Z</time>
      </trkpt>
      <trkpt lat="45.91533" lon="6.51125">
        <ele>2327</ele>
        <time>2017-08-29T08:10:04Z</time>
      </trkpt>
      <trkpt lat="45.91532" lon="6.51128">
        <ele>2327</ele>
        <time>2017-08-29T08:10:05Z</time>
      </trkpt>
      <trkpt lat="45.91532" lon="6.51128">
        <ele>2327</ele>
        <time>2017-08-29T08:10:06Z</time>
      </trkpt>
      <trkpt lat="45.91532" lon="6.51128">
        <ele>2327</ele>
        <time>2017-08-29T08:10:07Z</time>
      </trkpt>
      <trkpt lat="45.91532" lon="6.51128">
        <ele>2327</ele>
        <time>2017-08-29T08:10:08Z</time>
      </trkpt>
      <trkpt lat="45.91532" lon="6.51128">
        <ele>2327</ele>
        <time>2017-08-29T08:10:09Z</time>
      </trkpt>
      <trkpt lat="45.91532" lon="6.51128">
        <ele>2327</ele>
        <time>2017-08-29T08:10:10Z</time>
      </trkpt>
      <trkpt lat="45.91532" lon="6.5113">
        <ele>2328</ele>
        <time>2017-08-29T08:10:11Z</time>
      </trkpt>
      <trkpt lat="45.91532" lon="6.5113">
        <ele>2329</ele>
        <time>2017-08-29T08:10:12Z</time>
      </trkpt>
      <trkpt lat="45.91532" lon="6.5113">
        <ele>2329</ele>
        <time>2017-08-29T08:10:13Z</time>
      </trkpt>
      <trkpt lat="45.91532" lon="6.5113">
        <ele>2329</ele>
        <time>2017-08-29T08:10:14Z</time>
      </trkpt>
      <trkpt lat="45.91532" lon="6.5113">
        <ele>2329</ele>
        <time>2017-08-29T08:10:15Z</time>
      </trkpt>
      <trkpt lat="45.91533" lon="6.51132">
        <ele>2329</ele>
        <time>2017-08-29T08:10:16Z</time>
      </trkpt>
      <trkpt lat="45.91533" lon="6.51132">
        <ele>2329</ele>
        <time>2017-08-29T08:10:17Z</time>
      </trkpt>
      <trkpt lat="45.91533" lon="6.51132">
        <ele>2329</ele>
        <time>2017-08-29T08:10:18Z</time>
      </trkpt>
      <trkpt lat="45.91533" lon="6.51132">
        <ele>2329</ele>
        <time>2017-08-29T08:10:19Z</time>
      </trkpt>
      <trkpt lat="45.91533" lon="6.51132">
        <ele>2329</ele>
        <time>2017-08-29T08:10:20Z</time>
      </trkpt>
      <trkpt lat="45.91535" lon="6.51133">
        <ele>2331</ele>
        <time>2017-08-29T08:10:21Z</time>
      </trkpt>
      <trkpt lat="45.91535" lon="6.51133">
        <ele>2332</ele>
        <time>2017-08-29T08:10:22Z</time>
      </trkpt>
      <trkpt lat="45.91535" lon="6.51133">
        <ele>2332</ele>
        <time>2017-08-29T08:10:23Z</time>
      </trkpt>
      <trkpt lat="45.91535" lon="6.51133">
        <ele>2332</ele>
        <time>2017-08-29T08:10:24Z</time>
      </trkpt>
      <trkpt lat="45.91535" lon="6.51133">
        <ele>2332</ele>
        <time>2017-08-29T08:10:25Z</time>
      </trkpt>
      <trkpt lat="45.91535" lon="6.51133">
        <ele>2332</ele>
        <time>2017-08-29T08:10:26Z</time>
      </trkpt>
      <trkpt lat="45.91535" lon="6.51133">
        <ele>2332</ele>
        <time>2017-08-29T08:10:27Z</time>
      </trkpt>
      <trkpt lat="45.91537" lon="6.51136">
        <ele>2333</ele>
        <time>2017-08-29T08:10:28Z</time>
      </trkpt>
      <trkpt lat="45.91538" lon="6.51136">
        <ele>2333</ele>
        <time>2017-08-29T08:10:29Z</time>
      </trkpt>
      <trkpt lat="45.91539" lon="6.51136">
        <ele>2333</ele>
        <time>2017-08-29T08:10:30Z</time>
      </trkpt>
      <trkpt lat="45.9154" lon="6.51137">
        <ele>2334</ele>
        <time>2017-08-29T08:10:31Z</time>
      </trkpt>
      <trkpt lat="45.91541" lon="6.51137">
        <ele>2334</ele>
        <time>2017-08-29T08:10:32Z</time>
      </trkpt>
      <trkpt lat="45.91542" lon="6.51137">
        <ele>2334</ele>
        <time>2017-08-29T08:10:33Z</time>
      </trkpt>
      <trkpt lat="45.91542" lon="6.51137">
        <ele>2334</ele>
        <time>2017-08-29T08:10:34Z</time>
      </trkpt>
      <trkpt lat="45.91542" lon="6.51137">
        <ele>2334</ele>
        <time>2017-08-29T08:10:35Z</time>
      </trkpt>
      <trkpt lat="45.91542" lon="6.51137">
        <ele>2335</ele>
        <time>2017-08-29T08:10:36Z</time>
      </trkpt>
      <trkpt lat="45.91544" lon="6.51138">
        <ele>2335</ele>
        <time>2017-08-29T08:10:37Z</time>
      </trkpt>
      <trkpt lat="45.91544" lon="6.51138">
        <ele>2335</ele>
        <time>2017-08-29T08:10:38Z</time>
      </trkpt>
      <trkpt lat="45.91544" lon="6.51138">
        <ele>2336</ele>
        <time>2017-08-29T08:10:39Z</time>
      </trkpt>
      <trkpt lat="45.91544" lon="6.51138">
        <ele>2336</ele>
        <time>2017-08-29T08:10:40Z</time>
      </trkpt>
      <trkpt lat="45.91542" lon="6.51139">
        <ele>2336</ele>
        <time>2017-08-29T08:10:41Z</time>
      </trkpt>
      <trkpt lat="45.91542" lon="6.51139">
        <ele>2336</ele>
        <time>2017-08-29T08:10:42Z</time>
      </trkpt>
      <trkpt lat="45.91542" lon="6.51139">
        <ele>2336</ele>
        <time>2017-08-29T08:10:43Z</time>
      </trkpt>
      <trkpt lat="45.91542" lon="6.51139">
        <ele>2336</ele>
        <time>2017-08-29T08:10:44Z</time>
      </trkpt>
      <trkpt lat="45.91542" lon="6.51139">
        <ele>2337</ele>
        <time>2017-08-29T08:10:45Z</time>
      </trkpt>
      <trkpt lat="45.91542" lon="6.51139">
        <ele>2337</ele>
        <time>2017-08-29T08:10:46Z</time>
      </trkpt>
      <trkpt lat="45.91542" lon="6.51139">
        <ele>2337</ele>
        <time>2017-08-29T08:10:47Z</time>
      </trkpt>
      <trkpt lat="45.91542" lon="6.51139">
        <ele>2337</ele>
        <time>2017-08-29T08:10:48Z</time>
      </trkpt>
      <trkpt lat="45.91542" lon="6.51139">
        <ele>2337</ele>
        <time>2017-08-29T08:10:49Z</time>
      </trkpt>
      <trkpt lat="45.91543" lon="6.5114">
        <ele>2337</ele>
        <time>2017-08-29T08:10:50Z</time>
      </trkpt>
      <trkpt lat="45.91543" lon="6.5114">
        <ele>2338</ele>
        <time>2017-08-29T08:10:51Z</time>
      </trkpt>
      <trkpt lat="45.91543" lon="6.5114">
        <ele>2338</ele>
        <time>2017-08-29T08:10:52Z</time>
      </trkpt>
      <trkpt lat="45.91543" lon="6.5114">
        <ele>2338</ele>
        <time>2017-08-29T08:10:53Z</time>
      </trkpt>
      <trkpt lat="45.91543" lon="6.5114">
        <ele>2339</ele>
        <time>2017-08-29T08:10:54Z</time>
      </trkpt>
      <trkpt lat="45.91543" lon="6.5114">
        <ele>2339</ele>
        <time>2017-08-29T08:10:55Z</time>
      </trkpt>
      <trkpt lat="45.91545" lon="6.5114">
        <ele>2339</ele>
        <time>2017-08-29T08:10:56Z</time>
      </trkpt>
      <trkpt lat="45.91545" lon="6.5114">
        <ele>2339</ele>
        <time>2017-08-29T08:10:57Z</time>
      </trkpt>
      <trkpt lat="45.91545" lon="6.5114">
        <ele>2339</ele>
        <time>2017-08-29T08:10:58Z</time>
      </trkpt>
      <trkpt lat="45.91547" lon="6.51141">
        <ele>2339</ele>
        <time>2017-08-29T08:10:59Z</time>
      </trkpt>
      <trkpt lat="45.91547" lon="6.51141">
        <ele>2339</ele>
        <time>2017-08-29T08:11:00Z</time>
      </trkpt>
      <trkpt lat="45.91547" lon="6.51141">
        <ele>2340</ele>
        <time>2017-08-29T08:11:01Z</time>
      </trkpt>
      <trkpt lat="45.91549" lon="6.51142">
        <ele>2340</ele>
        <time>2017-08-29T08:11:02Z</time>
      </trkpt>
      <trkpt lat="45.91549" lon="6.51142">
        <ele>2340</ele>
        <time>2017-08-29T08:11:03Z</time>
      </trkpt>
      <trkpt lat="45.91549" lon="6.51142">
        <ele>2340</ele>
        <time>2017-08-29T08:11:04Z</time>
      </trkpt>
      <trkpt lat="45.91549" lon="6.51142">
        <ele>2340</ele>
        <time>2017-08-29T08:11:05Z</time>
      </trkpt>
      <trkpt lat="45.91549" lon="6.51142">
        <ele>2340</ele>
        <time>2017-08-29T08:11:06Z</time>
      </trkpt>
      <trkpt lat="45.91551" lon="6.51142">
        <ele>2341</ele>
        <time>2017-08-29T08:11:07Z</time>
      </trkpt>
      <trkpt lat="45.91551" lon="6.51142">
        <ele>2341</ele>
        <time>2017-08-29T08:11:08Z</time>
      </trkpt>
      <trkpt lat="45.91551" lon="6.51142">
        <ele>2342</ele>
        <time>2017-08-29T08:11:09Z</time>
      </trkpt>
      <trkpt lat="45.91551" lon="6.51142">
        <ele>2342</ele>
        <time>2017-08-29T08:11:10Z</time>
      </trkpt>
      <trkpt lat="45.91551" lon="6.51142">
        <ele>2342</ele>
        <time>2017-08-29T08:11:11Z</time>
      </trkpt>
      <trkpt lat="45.91551" lon="6.51142">
        <ele>2342</ele>
        <time>2017-08-29T08:11:12Z</time>
      </trkpt>
      <trkpt lat="45.91553" lon="6.51142">
        <ele>2342</ele>
        <time>2017-08-29T08:11:13Z</time>
      </trkpt>
      <trkpt lat="45.91553" lon="6.51142">
        <ele>2342</ele>
        <time>2017-08-29T08:11:14Z</time>
      </trkpt>
      <trkpt lat="45.91553" lon="6.51142">
        <ele>2343</ele>
        <time>2017-08-29T08:11:15Z</time>
      </trkpt>
      <trkpt lat="45.91555" lon="6.51142">
        <ele>2343</ele>
        <time>2017-08-29T08:11:16Z</time>
      </trkpt>
      <trkpt lat="45.91555" lon="6.51142">
        <ele>2343</ele>
        <time>2017-08-29T08:11:17Z</time>
      </trkpt>
      <trkpt lat="45.91555" lon="6.51142">
        <ele>2344</ele>
        <time>2017-08-29T08:11:18Z</time>
      </trkpt>
      <trkpt lat="45.91555" lon="6.51142">
        <ele>2344</ele>
        <time>2017-08-29T08:11:19Z</time>
      </trkpt>
      <trkpt lat="45.91557" lon="6.51144">
        <ele>2344</ele>
        <time>2017-08-29T08:11:20Z</time>
      </trkpt>
      <trkpt lat="45.91557" lon="6.51144">
        <ele>2345</ele>
        <time>2017-08-29T08:11:21Z</time>
      </trkpt>
      <trkpt lat="45.91557" lon="6.51144">
        <ele>2345</ele>
        <time>2017-08-29T08:11:22Z</time>
      </trkpt>
      <trkpt lat="45.91557" lon="6.51144">
        <ele>2345</ele>
        <time>2017-08-29T08:11:23Z</time>
      </trkpt>
      <trkpt lat="45.91557" lon="6.51144">
        <ele>2345</ele>
        <time>2017-08-29T08:11:24Z</time>
      </trkpt>
      <trkpt lat="45.91555" lon="6.51145">
        <ele>2345</ele>
        <time>2017-08-29T08:11:25Z</time>
      </trkpt>
      <trkpt lat="45.91555" lon="6.51145">
        <ele>2346</ele>
        <time>2017-08-29T08:11:26Z</time>
      </trkpt>
      <trkpt lat="45.91555" lon="6.51145">
        <ele>2346</ele>
        <time>2017-08-29T08:11:27Z</time>
      </trkpt>
      <trkpt lat="45.91555" lon="6.51145">
        <ele>2346</ele>
        <time>2017-08-29T08:11:28Z</time>
      </trkpt>
      <trkpt lat="45.91555" lon="6.51145">
        <ele>2346</ele>
        <time>2017-08-29T08:11:29Z</time>
      </trkpt>
      <trkpt lat="45.91555" lon="6.51145">
        <ele>2347</ele>
        <time>2017-08-29T08:11:30Z</time>
      </trkpt>
      <trkpt lat="45.91555" lon="6.51145">
        <ele>2347</ele>
        <time>2017-08-29T08:11:31Z</time>
      </trkpt>
      <trkpt lat="45.91555" lon="6.51145">
        <ele>2348</ele>
        <time>2017-08-29T08:11:32Z</time>
      </trkpt>
      <trkpt lat="45.91555" lon="6.51145">
        <ele>2348</ele>
        <time>2017-08-29T08:11:33Z</time>
      </trkpt>
      <trkpt lat="45.91555" lon="6.51145">
        <ele>2348</ele>
        <time>2017-08-29T08:11:34Z</time>
      </trkpt>
      <trkpt lat="45.91555" lon="6.51145">
        <ele>2348</ele>
        <time>2017-08-29T08:11:35Z</time>
      </trkpt>
      <trkpt lat="45.91555" lon="6.51145">
        <ele>2348</ele>
        <time>2017-08-29T08:11:36Z</time>
      </trkpt>
      <trkpt lat="45.91556" lon="6.51148">
        <ele>2348</ele>
        <time>2017-08-29T08:11:37Z</time>
      </trkpt>
      <trkpt lat="45.91556" lon="6.51148">
        <ele>2348</ele>
        <time>2017-08-29T08:11:38Z</time>
      </trkpt>
      <trkpt lat="45.91556" lon="6.51148">
        <ele>2348</ele>
        <time>2017-08-29T08:11:39Z</time>
      </trkpt>
      <trkpt lat="45.91556" lon="6.51148">
        <ele>2348</ele>
        <time>2017-08-29T08:11:40Z</time>
      </trkpt>
      <trkpt lat="45.91556" lon="6.51148">
        <ele>2348</ele>
        <time>2017-08-29T08:11:41Z</time>
      </trkpt>
      <trkpt lat="45.91556" lon="6.51148">
        <ele>2349</ele>
        <time>2017-08-29T08:11:42Z</time>
      </trkpt>
      <trkpt lat="45.91555" lon="6.51151">
        <ele>2349</ele>
        <time>2017-08-29T08:11:43Z</time>
      </trkpt>
      <trkpt lat="45.91555" lon="6.51151">
        <ele>2349</ele>
        <time>2017-08-29T08:11:44Z</time>
      </trkpt>
      <trkpt lat="45.91555" lon="6.51151">
        <ele>2349</ele>
        <time>2017-08-29T08:11:45Z</time>
      </trkpt>
      <trkpt lat="45.91555" lon="6.51151">
        <ele>2349</ele>
        <time>2017-08-29T08:11:46Z</time>
      </trkpt>
      <trkpt lat="45.91555" lon="6.51151">
        <ele>2350</ele>
        <time>2017-08-29T08:11:47Z</time>
      </trkpt>
      <trkpt lat="45.91555" lon="6.51153">
        <ele>2350</ele>
        <time>2017-08-29T08:11:48Z</time>
      </trkpt>
      <trkpt lat="45.91555" lon="6.51153">
        <ele>2350</ele>
        <time>2017-08-29T08:11:49Z</time>
      </trkpt>
      <trkpt lat="45.91555" lon="6.51153">
        <ele>2350</ele>
        <time>2017-08-29T08:11:50Z</time>
      </trkpt>
      <trkpt lat="45.91555" lon="6.51153">
        <ele>2350</ele>
        <time>2017-08-29T08:11:51Z</time>
      </trkpt>
      <trkpt lat="45.91553" lon="6.51155">
        <ele>2350</ele>
        <time>2017-08-29T08:11:52Z</time>
      </trkpt>
      <trkpt lat="45.91553" lon="6.51155">
        <ele>2351</ele>
        <time>2017-08-29T08:11:53Z</time>
      </trkpt>
      <trkpt lat="45.91553" lon="6.51155">
        <ele>2351</ele>
        <time>2017-08-29T08:11:54Z</time>
      </trkpt>
      <trkpt lat="45.91553" lon="6.51155">
        <ele>2351</ele>
        <time>2017-08-29T08:11:55Z</time>
      </trkpt>
      <trkpt lat="45.91553" lon="6.51155">
        <ele>2351</ele>
        <time>2017-08-29T08:11:56Z</time>
      </trkpt>
      <trkpt lat="45.91553" lon="6.51155">
        <ele>2351</ele>
        <time>2017-08-29T08:11:57Z</time>
      </trkpt>
      <trkpt lat="45.91553" lon="6.51155">
        <ele>2351</ele>
        <time>2017-08-29T08:11:58Z</time>
      </trkpt>
      <trkpt lat="45.91553" lon="6.51155">
        <ele>2351</ele>
        <time>2017-08-29T08:11:59Z</time>
      </trkpt>
      <trkpt lat="45.91555" lon="6.51157">
        <ele>2351</ele>
        <time>2017-08-29T08:12:00Z</time>
      </trkpt>
      <trkpt lat="45.91555" lon="6.51157">
        <ele>2351</ele>
        <time>2017-08-29T08:12:01Z</time>
      </trkpt>
      <trkpt lat="45.91555" lon="6.51157">
        <ele>2351</ele>
        <time>2017-08-29T08:12:02Z</time>
      </trkpt>
      <trkpt lat="45.91555" lon="6.51157">
        <ele>2352</ele>
        <time>2017-08-29T08:12:03Z</time>
      </trkpt>
      <trkpt lat="45.91556" lon="6.5116">
        <ele>2352</ele>
        <time>2017-08-29T08:12:04Z</time>
      </trkpt>
      <trkpt lat="45.91556" lon="6.5116">
        <ele>2353</ele>
        <time>2017-08-29T08:12:05Z</time>
      </trkpt>
      <trkpt lat="45.91556" lon="6.5116">
        <ele>2353</ele>
        <time>2017-08-29T08:12:06Z</time>
      </trkpt>
      <trkpt lat="45.91554" lon="6.51161">
        <ele>2353</ele>
        <time>2017-08-29T08:12:07Z</time>
      </trkpt>
      <trkpt lat="45.91554" lon="6.51161">
        <ele>2353</ele>
        <time>2017-08-29T08:12:08Z</time>
      </trkpt>
      <trkpt lat="45.91554" lon="6.51161">
        <ele>2353</ele>
        <time>2017-08-29T08:12:09Z</time>
      </trkpt>
      <trkpt lat="45.91554" lon="6.51161">
        <ele>2354</ele>
        <time>2017-08-29T08:12:10Z</time>
      </trkpt>
      <trkpt lat="45.91554" lon="6.51161">
        <ele>2354</ele>
        <time>2017-08-29T08:12:11Z</time>
      </trkpt>
      <trkpt lat="45.91554" lon="6.51161">
        <ele>2355</ele>
        <time>2017-08-29T08:12:12Z</time>
      </trkpt>
      <trkpt lat="45.91553" lon="6.51164">
        <ele>2355</ele>
        <time>2017-08-29T08:12:13Z</time>
      </trkpt>
      <trkpt lat="45.91553" lon="6.51164">
        <ele>2355</ele>
        <time>2017-08-29T08:12:14Z</time>
      </trkpt>
      <trkpt lat="45.91553" lon="6.51164">
        <ele>2355</ele>
        <time>2017-08-29T08:12:15Z</time>
      </trkpt>
      <trkpt lat="45.91553" lon="6.51164">
        <ele>2357</ele>
        <time>2017-08-29T08:12:16Z</time>
      </trkpt>
      <trkpt lat="45.91553" lon="6.51167">
        <ele>2357</ele>
        <time>2017-08-29T08:12:17Z</time>
      </trkpt>
      <trkpt lat="45.91553" lon="6.51167">
        <ele>2357</ele>
        <time>2017-08-29T08:12:18Z</time>
      </trkpt>
      <trkpt lat="45.91553" lon="6.51167">
        <ele>2358</ele>
        <time>2017-08-29T08:12:19Z</time>
      </trkpt>
      <trkpt lat="45.91553" lon="6.51167">
        <ele>2359</ele>
        <time>2017-08-29T08:12:20Z</time>
      </trkpt>
      <trkpt lat="45.91553" lon="6.51167">
        <ele>2359</ele>
        <time>2017-08-29T08:12:21Z</time>
      </trkpt>
      <trkpt lat="45.91553" lon="6.51167">
        <ele>2359</ele>
        <time>2017-08-29T08:12:22Z</time>
      </trkpt>
      <trkpt lat="45.91553" lon="6.51167">
        <ele>2359</ele>
        <time>2017-08-29T08:12:23Z</time>
      </trkpt>
      <trkpt lat="45.91553" lon="6.51167">
        <ele>2359</ele>
        <time>2017-08-29T08:12:24Z</time>
      </trkpt>
      <trkpt lat="45.91552" lon="6.51171">
        <ele>2359</ele>
        <time>2017-08-29T08:12:25Z</time>
      </trkpt>
      <trkpt lat="45.91552" lon="6.51171">
        <ele>2359</ele>
        <time>2017-08-29T08:12:26Z</time>
      </trkpt>
      <trkpt lat="45.91552" lon="6.51171">
        <ele>2359</ele>
        <time>2017-08-29T08:12:27Z</time>
      </trkpt>
      <trkpt lat="45.91552" lon="6.51171">
        <ele>2359</ele>
        <time>2017-08-29T08:12:28Z</time>
      </trkpt>
      <trkpt lat="45.91552" lon="6.51171">
        <ele>2359</ele>
        <time>2017-08-29T08:12:29Z</time>
      </trkpt>
      <trkpt lat="45.91552" lon="6.51171">
        <ele>2360</ele>
        <time>2017-08-29T08:12:30Z</time>
      </trkpt>
      <trkpt lat="45.91552" lon="6.51174">
        <ele>2360</ele>
        <time>2017-08-29T08:12:31Z</time>
      </trkpt>
      <trkpt lat="45.91552" lon="6.51174">
        <ele>2360</ele>
        <time>2017-08-29T08:12:32Z</time>
      </trkpt>
      <trkpt lat="45.91552" lon="6.51174">
        <ele>2360</ele>
        <time>2017-08-29T08:12:33Z</time>
      </trkpt>
      <trkpt lat="45.91552" lon="6.51174">
        <ele>2360</ele>
        <time>2017-08-29T08:12:34Z</time>
      </trkpt>
      <trkpt lat="45.91552" lon="6.51174">
        <ele>2360</ele>
        <time>2017-08-29T08:12:35Z</time>
      </trkpt>
      <trkpt lat="45.91552" lon="6.51174">
        <ele>2360</ele>
        <time>2017-08-29T08:12:36Z</time>
      </trkpt>
      <trkpt lat="45.91552" lon="6.51174">
        <ele>2361</ele>
        <time>2017-08-29T08:12:37Z</time>
      </trkpt>
      <trkpt lat="45.91552" lon="6.51174">
        <ele>2362</ele>
        <time>2017-08-29T08:12:38Z</time>
      </trkpt>
      <trkpt lat="45.91552" lon="6.51174">
        <ele>2362</ele>
        <time>2017-08-29T08:12:39Z</time>
      </trkpt>
      <trkpt lat="45.91552" lon="6.51174">
        <ele>2362</ele>
        <time>2017-08-29T08:12:40Z</time>
      </trkpt>
      <trkpt lat="45.91552" lon="6.51174">
        <ele>2362</ele>
        <time>2017-08-29T08:12:41Z</time>
      </trkpt>
      <trkpt lat="45.91552" lon="6.51174">
        <ele>2362</ele>
        <time>2017-08-29T08:12:42Z</time>
      </trkpt>
      <trkpt lat="45.91552" lon="6.51174">
        <ele>2362</ele>
        <time>2017-08-29T08:12:43Z</time>
      </trkpt>
      <trkpt lat="45.91552" lon="6.51174">
        <ele>2362</ele>
        <time>2017-08-29T08:12:44Z</time>
      </trkpt>
      <trkpt lat="45.91552" lon="6.51174">
        <ele>2362</ele>
        <time>2017-08-29T08:12:45Z</time>
      </trkpt>
      <trkpt lat="45.91552" lon="6.51174">
        <ele>2362</ele>
        <time>2017-08-29T08:12:46Z</time>
      </trkpt>
      <trkpt lat="45.91552" lon="6.51174">
        <ele>2363</ele>
        <time>2017-08-29T08:12:47Z</time>
      </trkpt>
      <trkpt lat="45.91553" lon="6.51177">
        <ele>2363</ele>
        <time>2017-08-29T08:12:48Z</time>
      </trkpt>
      <trkpt lat="45.91553" lon="6.51177">
        <ele>2363</ele>
        <time>2017-08-29T08:12:49Z</time>
      </trkpt>
      <trkpt lat="45.91553" lon="6.51177">
        <ele>2364</ele>
        <time>2017-08-29T08:12:50Z</time>
      </trkpt>
      <trkpt lat="45.91554" lon="6.51179">
        <ele>2364</ele>
        <time>2017-08-29T08:12:51Z</time>
      </trkpt>
      <trkpt lat="45.91554" lon="6.51179">
        <ele>2364</ele>
        <time>2017-08-29T08:12:52Z</time>
      </trkpt>
      <trkpt lat="45.91554" lon="6.51179">
        <ele>2365</ele>
        <time>2017-08-29T08:12:53Z</time>
      </trkpt>
      <trkpt lat="45.91554" lon="6.51179">
        <ele>2365</ele>
        <time>2017-08-29T08:12:54Z</time>
      </trkpt>
      <trkpt lat="45.91554" lon="6.51179">
        <ele>2365</ele>
        <time>2017-08-29T08:12:55Z</time>
      </trkpt>
      <trkpt lat="45.91553" lon="6.51181">
        <ele>2365</ele>
        <time>2017-08-29T08:12:56Z</time>
      </trkpt>
      <trkpt lat="45.91553" lon="6.51181">
        <ele>2365</ele>
        <time>2017-08-29T08:12:57Z</time>
      </trkpt>
      <trkpt lat="45.91553" lon="6.51181">
        <ele>2365</ele>
        <time>2017-08-29T08:12:58Z</time>
      </trkpt>
      <trkpt lat="45.91553" lon="6.51181">
        <ele>2365</ele>
        <time>2017-08-29T08:12:59Z</time>
      </trkpt>
      <trkpt lat="45.91553" lon="6.51181">
        <ele>2365</ele>
        <time>2017-08-29T08:13:00Z</time>
      </trkpt>
      <trkpt lat="45.91553" lon="6.51181">
        <ele>2365</ele>
        <time>2017-08-29T08:13:01Z</time>
      </trkpt>
      <trkpt lat="45.91553" lon="6.51181">
        <ele>2366</ele>
        <time>2017-08-29T08:13:02Z</time>
      </trkpt>
      <trkpt lat="45.91553" lon="6.51181">
        <ele>2366</ele>
        <time>2017-08-29T08:13:03Z</time>
      </trkpt>
      <trkpt lat="45.91553" lon="6.51183">
        <ele>2366</ele>
        <time>2017-08-29T08:13:04Z</time>
      </trkpt>
      <trkpt lat="45.91553" lon="6.51183">
        <ele>2366</ele>
        <time>2017-08-29T08:13:05Z</time>
      </trkpt>
      <trkpt lat="45.91553" lon="6.51183">
        <ele>2366</ele>
        <time>2017-08-29T08:13:06Z</time>
      </trkpt>
      <trkpt lat="45.91553" lon="6.51183">
        <ele>2366</ele>
        <time>2017-08-29T08:13:07Z</time>
      </trkpt>
      <trkpt lat="45.91553" lon="6.51183">
        <ele>2367</ele>
        <time>2017-08-29T08:13:08Z</time>
      </trkpt>
      <trkpt lat="45.91553" lon="6.51186">
        <ele>2367</ele>
        <time>2017-08-29T08:13:09Z</time>
      </trkpt>
      <trkpt lat="45.91553" lon="6.51186">
        <ele>2368</ele>
        <time>2017-08-29T08:13:10Z</time>
      </trkpt>
      <trkpt lat="45.91553" lon="6.51186">
        <ele>2368</ele>
        <time>2017-08-29T08:13:11Z</time>
      </trkpt>
      <trkpt lat="45.91553" lon="6.51186">
        <ele>2368</ele>
        <time>2017-08-29T08:13:12Z</time>
      </trkpt>
      <trkpt lat="45.91553" lon="6.51186">
        <ele>2368</ele>
        <time>2017-08-29T08:13:13Z</time>
      </trkpt>
      <trkpt lat="45.91553" lon="6.51186">
        <ele>2368</ele>
        <time>2017-08-29T08:13:14Z</time>
      </trkpt>
      <trkpt lat="45.91553" lon="6.51186">
        <ele>2369</ele>
        <time>2017-08-29T08:13:15Z</time>
      </trkpt>
      <trkpt lat="45.91552" lon="6.51188">
        <ele>2369</ele>
        <time>2017-08-29T08:13:16Z</time>
      </trkpt>
      <trkpt lat="45.91552" lon="6.51188">
        <ele>2369</ele>
        <time>2017-08-29T08:13:17Z</time>
      </trkpt>
      <trkpt lat="45.91552" lon="6.51188">
        <ele>2369</ele>
        <time>2017-08-29T08:13:18Z</time>
      </trkpt>
      <trkpt lat="45.91552" lon="6.51188">
        <ele>2369</ele>
        <time>2017-08-29T08:13:19Z</time>
      </trkpt>
      <trkpt lat="45.91552" lon="6.51188">
        <ele>2369</ele>
        <time>2017-08-29T08:13:20Z</time>
      </trkpt>
      <trkpt lat="45.91552" lon="6.51188">
        <ele>2370</ele>
        <time>2017-08-29T08:13:21Z</time>
      </trkpt>
      <trkpt lat="45.91552" lon="6.51188">
        <ele>2370</ele>
        <time>2017-08-29T08:13:22Z</time>
      </trkpt>
      <trkpt lat="45.91552" lon="6.51192">
        <ele>2371</ele>
        <time>2017-08-29T08:13:23Z</time>
      </trkpt>
      <trkpt lat="45.91552" lon="6.51192">
        <ele>2371</ele>
        <time>2017-08-29T08:13:24Z</time>
      </trkpt>
      <trkpt lat="45.91552" lon="6.51192">
        <ele>2371</ele>
        <time>2017-08-29T08:13:25Z</time>
      </trkpt>
      <trkpt lat="45.91552" lon="6.51192">
        <ele>2371</ele>
        <time>2017-08-29T08:13:26Z</time>
      </trkpt>
      <trkpt lat="45.91552" lon="6.51192">
        <ele>2371</ele>
        <time>2017-08-29T08:13:27Z</time>
      </trkpt>
      <trkpt lat="45.91552" lon="6.51192">
        <ele>2371</ele>
        <time>2017-08-29T08:13:28Z</time>
      </trkpt>
      <trkpt lat="45.91552" lon="6.51192">
        <ele>2371</ele>
        <time>2017-08-29T08:13:29Z</time>
      </trkpt>
      <trkpt lat="45.91552" lon="6.51192">
        <ele>2371</ele>
        <time>2017-08-29T08:13:30Z</time>
      </trkpt>
      <trkpt lat="45.91552" lon="6.51192">
        <ele>2371</ele>
        <time>2017-08-29T08:13:31Z</time>
      </trkpt>
      <trkpt lat="45.91552" lon="6.51192">
        <ele>2372</ele>
        <time>2017-08-29T08:13:32Z</time>
      </trkpt>
      <trkpt lat="45.91551" lon="6.51194">
        <ele>2372</ele>
        <time>2017-08-29T08:13:33Z</time>
      </trkpt>
      <trkpt lat="45.91551" lon="6.51194">
        <ele>2372</ele>
        <time>2017-08-29T08:13:34Z</time>
      </trkpt>
      <trkpt lat="45.91551" lon="6.51194">
        <ele>2373</ele>
        <time>2017-08-29T08:13:35Z</time>
      </trkpt>
      <trkpt lat="45.91551" lon="6.51194">
        <ele>2373</ele>
        <time>2017-08-29T08:13:36Z</time>
      </trkpt>
      <trkpt lat="45.91551" lon="6.51194">
        <ele>2374</ele>
        <time>2017-08-29T08:13:37Z</time>
      </trkpt>
      <trkpt lat="45.91552" lon="6.51197">
        <ele>2374</ele>
        <time>2017-08-29T08:13:38Z</time>
      </trkpt>
      <trkpt lat="45.91552" lon="6.51197">
        <ele>2374</ele>
        <time>2017-08-29T08:13:39Z</time>
      </trkpt>
      <trkpt lat="45.91552" lon="6.512">
        <ele>2374</ele>
        <time>2017-08-29T08:13:40Z</time>
      </trkpt>
      <trkpt lat="45.91552" lon="6.512">
        <ele>2374</ele>
        <time>2017-08-29T08:13:41Z</time>
      </trkpt>
      <trkpt lat="45.91552" lon="6.512">
        <ele>2374</ele>
        <time>2017-08-29T08:13:42Z</time>
      </trkpt>
      <trkpt lat="45.91552" lon="6.512">
        <ele>2374</ele>
        <time>2017-08-29T08:13:43Z</time>
      </trkpt>
      <trkpt lat="45.91554" lon="6.51202">
        <ele>2374</ele>
        <time>2017-08-29T08:13:44Z</time>
      </trkpt>
      <trkpt lat="45.91554" lon="6.51202">
        <ele>2375</ele>
        <time>2017-08-29T08:13:45Z</time>
      </trkpt>
      <trkpt lat="45.91554" lon="6.51202">
        <ele>2375</ele>
        <time>2017-08-29T08:13:46Z</time>
      </trkpt>
      <trkpt lat="45.91554" lon="6.51202">
        <ele>2375</ele>
        <time>2017-08-29T08:13:47Z</time>
      </trkpt>
      <trkpt lat="45.91554" lon="6.51202">
        <ele>2375</ele>
        <time>2017-08-29T08:13:48Z</time>
      </trkpt>
      <trkpt lat="45.91554" lon="6.51202">
        <ele>2375</ele>
        <time>2017-08-29T08:13:49Z</time>
      </trkpt>
      <trkpt lat="45.91554" lon="6.51202">
        <ele>2375</ele>
        <time>2017-08-29T08:13:50Z</time>
      </trkpt>
      <trkpt lat="45.91554" lon="6.51202">
        <ele>2375</ele>
        <time>2017-08-29T08:13:51Z</time>
      </trkpt>
      <trkpt lat="45.91554" lon="6.51202">
        <ele>2375</ele>
        <time>2017-08-29T08:13:52Z</time>
      </trkpt>
      <trkpt lat="45.91554" lon="6.51202">
        <ele>2375</ele>
        <time>2017-08-29T08:13:53Z</time>
      </trkpt>
      <trkpt lat="45.91554" lon="6.51202">
        <ele>2375</ele>
        <time>2017-08-29T08:13:54Z</time>
      </trkpt>
      <trkpt lat="45.91556" lon="6.51204">
        <ele>2376</ele>
        <time>2017-08-29T08:13:55Z</time>
      </trkpt>
      <trkpt lat="45.91556" lon="6.51204">
        <ele>2376</ele>
        <time>2017-08-29T08:13:56Z</time>
      </trkpt>
      <trkpt lat="45.91556" lon="6.51204">
        <ele>2377</ele>
        <time>2017-08-29T08:13:57Z</time>
      </trkpt>
      <trkpt lat="45.91556" lon="6.51204">
        <ele>2377</ele>
        <time>2017-08-29T08:13:58Z</time>
      </trkpt>
      <trkpt lat="45.91556" lon="6.51206">
        <ele>2377</ele>
        <time>2017-08-29T08:13:59Z</time>
      </trkpt>
      <trkpt lat="45.91556" lon="6.51206">
        <ele>2377</ele>
        <time>2017-08-29T08:14:00Z</time>
      </trkpt>
      <trkpt lat="45.91556" lon="6.51206">
        <ele>2378</ele>
        <time>2017-08-29T08:14:01Z</time>
      </trkpt>
      <trkpt lat="45.91558" lon="6.51208">
        <ele>2378</ele>
        <time>2017-08-29T08:14:02Z</time>
      </trkpt>
      <trkpt lat="45.91558" lon="6.51208">
        <ele>2378</ele>
        <time>2017-08-29T08:14:03Z</time>
      </trkpt>
      <trkpt lat="45.91558" lon="6.51208">
        <ele>2378</ele>
        <time>2017-08-29T08:14:04Z</time>
      </trkpt>
      <trkpt lat="45.91558" lon="6.51208">
        <ele>2378</ele>
        <time>2017-08-29T08:14:05Z</time>
      </trkpt>
      <trkpt lat="45.91558" lon="6.51208">
        <ele>2378</ele>
        <time>2017-08-29T08:14:06Z</time>
      </trkpt>
      <trkpt lat="45.91558" lon="6.51208">
        <ele>2378</ele>
        <time>2017-08-29T08:14:07Z</time>
      </trkpt>
      <trkpt lat="45.91559" lon="6.51211">
        <ele>2378</ele>
        <time>2017-08-29T08:14:08Z</time>
      </trkpt>
      <trkpt lat="45.91559" lon="6.51211">
        <ele>2379</ele>
        <time>2017-08-29T08:14:09Z</time>
      </trkpt>
      <trkpt lat="45.91559" lon="6.51211">
        <ele>2379</ele>
        <time>2017-08-29T08:14:10Z</time>
      </trkpt>
      <trkpt lat="45.91559" lon="6.51211">
        <ele>2379</ele>
        <time>2017-08-29T08:14:11Z</time>
      </trkpt>
      <trkpt lat="45.91559" lon="6.51211">
        <ele>2379</ele>
        <time>2017-08-29T08:14:12Z</time>
      </trkpt>
      <trkpt lat="45.91559" lon="6.51211">
        <ele>2379</ele>
        <time>2017-08-29T08:14:13Z</time>
      </trkpt>
      <trkpt lat="45.91559" lon="6.51211">
        <ele>2380</ele>
        <time>2017-08-29T08:14:14Z</time>
      </trkpt>
      <trkpt lat="45.9156" lon="6.51213">
        <ele>2380</ele>
        <time>2017-08-29T08:14:15Z</time>
      </trkpt>
      <trkpt lat="45.9156" lon="6.51213">
        <ele>2380</ele>
        <time>2017-08-29T08:14:16Z</time>
      </trkpt>
      <trkpt lat="45.9156" lon="6.51213">
        <ele>2380</ele>
        <time>2017-08-29T08:14:17Z</time>
      </trkpt>
      <trkpt lat="45.9156" lon="6.51213">
        <ele>2381</ele>
        <time>2017-08-29T08:14:18Z</time>
      </trkpt>
      <trkpt lat="45.91562" lon="6.51215">
        <ele>2381</ele>
        <time>2017-08-29T08:14:19Z</time>
      </trkpt>
      <trkpt lat="45.91562" lon="6.51215">
        <ele>2381</ele>
        <time>2017-08-29T08:14:20Z</time>
      </trkpt>
      <trkpt lat="45.91562" lon="6.51215">
        <ele>2381</ele>
        <time>2017-08-29T08:14:21Z</time>
      </trkpt>
      <trkpt lat="45.91562" lon="6.51215">
        <ele>2383</ele>
        <time>2017-08-29T08:14:22Z</time>
      </trkpt>
      <trkpt lat="45.91562" lon="6.51215">
        <ele>2383</ele>
        <time>2017-08-29T08:14:23Z</time>
      </trkpt>
      <trkpt lat="45.91563" lon="6.51218">
        <ele>2383</ele>
        <time>2017-08-29T08:14:24Z</time>
      </trkpt>
      <trkpt lat="45.91563" lon="6.51218">
        <ele>2383</ele>
        <time>2017-08-29T08:14:25Z</time>
      </trkpt>
      <trkpt lat="45.91563" lon="6.51218">
        <ele>2383</ele>
        <time>2017-08-29T08:14:26Z</time>
      </trkpt>
      <trkpt lat="45.91563" lon="6.51218">
        <ele>2383</ele>
        <time>2017-08-29T08:14:27Z</time>
      </trkpt>
      <trkpt lat="45.91564" lon="6.51221">
        <ele>2384</ele>
        <time>2017-08-29T08:14:28Z</time>
      </trkpt>
      <trkpt lat="45.91564" lon="6.51221">
        <ele>2384</ele>
        <time>2017-08-29T08:14:29Z</time>
      </trkpt>
      <trkpt lat="45.91564" lon="6.51221">
        <ele>2384</ele>
        <time>2017-08-29T08:14:30Z</time>
      </trkpt>
      <trkpt lat="45.91564" lon="6.51221">
        <ele>2384</ele>
        <time>2017-08-29T08:14:31Z</time>
      </trkpt>
      <trkpt lat="45.91565" lon="6.51224">
        <ele>2385</ele>
        <time>2017-08-29T08:14:32Z</time>
      </trkpt>
      <trkpt lat="45.91565" lon="6.51224">
        <ele>2385</ele>
        <time>2017-08-29T08:14:33Z</time>
      </trkpt>
      <trkpt lat="45.91565" lon="6.51224">
        <ele>2385</ele>
        <time>2017-08-29T08:14:34Z</time>
      </trkpt>
      <trkpt lat="45.91567" lon="6.51226">
        <ele>2385</ele>
        <time>2017-08-29T08:14:35Z</time>
      </trkpt>
      <trkpt lat="45.91568" lon="6.51226">
        <ele>2385</ele>
        <time>2017-08-29T08:14:36Z</time>
      </trkpt>
      <trkpt lat="45.91568" lon="6.51226">
        <ele>2385</ele>
        <time>2017-08-29T08:14:37Z</time>
      </trkpt>
      <trkpt lat="45.91569" lon="6.51227">
        <ele>2385</ele>
        <time>2017-08-29T08:14:38Z</time>
      </trkpt>
      <trkpt lat="45.91569" lon="6.51227">
        <ele>2385</ele>
        <time>2017-08-29T08:14:39Z</time>
      </trkpt>
      <trkpt lat="45.9157" lon="6.51227">
        <ele>2386</ele>
        <time>2017-08-29T08:14:40Z</time>
      </trkpt>
      <trkpt lat="45.9157" lon="6.51228">
        <ele>2386</ele>
        <time>2017-08-29T08:14:41Z</time>
      </trkpt>
      <trkpt lat="45.91571" lon="6.51228">
        <ele>2386</ele>
        <time>2017-08-29T08:14:42Z</time>
      </trkpt>
      <trkpt lat="45.91571" lon="6.51228">
        <ele>2386</ele>
        <time>2017-08-29T08:14:43Z</time>
      </trkpt>
      <trkpt lat="45.91573" lon="6.5123">
        <ele>2386</ele>
        <time>2017-08-29T08:14:44Z</time>
      </trkpt>
      <trkpt lat="45.91575" lon="6.51232">
        <ele>2386</ele>
        <time>2017-08-29T08:14:45Z</time>
      </trkpt>
      <trkpt lat="45.91576" lon="6.51234">
        <ele>2386</ele>
        <time>2017-08-29T08:14:46Z</time>
      </trkpt>
      <trkpt lat="45.91578" lon="6.51236">
        <ele>2386</ele>
        <time>2017-08-29T08:14:47Z</time>
      </trkpt>
      <trkpt lat="45.91579" lon="6.51239">
        <ele>2386</ele>
        <time>2017-08-29T08:14:48Z</time>
      </trkpt>
      <trkpt lat="45.91579" lon="6.51239">
        <ele>2386</ele>
        <time>2017-08-29T08:14:49Z</time>
      </trkpt>
      <trkpt lat="45.91577" lon="6.51238">
        <ele>2387</ele>
        <time>2017-08-29T08:14:50Z</time>
      </trkpt>
      <trkpt lat="45.91577" lon="6.51238">
        <ele>2388</ele>
        <time>2017-08-29T08:14:51Z</time>
      </trkpt>
      <trkpt lat="45.91575" lon="6.51237">
        <ele>2388</ele>
        <time>2017-08-29T08:14:52Z</time>
      </trkpt>
      <trkpt lat="45.91575" lon="6.51237">
        <ele>2388</ele>
        <time>2017-08-29T08:14:53Z</time>
      </trkpt>
      <trkpt lat="45.91575" lon="6.51237">
        <ele>2388</ele>
        <time>2017-08-29T08:14:54Z</time>
      </trkpt>
      <trkpt lat="45.91573" lon="6.51237">
        <ele>2389</ele>
        <time>2017-08-29T08:14:55Z</time>
      </trkpt>
      <trkpt lat="45.91573" lon="6.51237">
        <ele>2389</ele>
        <time>2017-08-29T08:14:56Z</time>
      </trkpt>
      <trkpt lat="45.91573" lon="6.51237">
        <ele>2389</ele>
        <time>2017-08-29T08:14:57Z</time>
      </trkpt>
      <trkpt lat="45.91573" lon="6.51237">
        <ele>2389</ele>
        <time>2017-08-29T08:14:58Z</time>
      </trkpt>
      <trkpt lat="45.91573" lon="6.51237">
        <ele>2389</ele>
        <time>2017-08-29T08:14:59Z</time>
      </trkpt>
      <trkpt lat="45.91573" lon="6.51237">
        <ele>2389</ele>
        <time>2017-08-29T08:15:00Z</time>
      </trkpt>
      <trkpt lat="45.91573" lon="6.51237">
        <ele>2389</ele>
        <time>2017-08-29T08:15:01Z</time>
      </trkpt>
      <trkpt lat="45.91573" lon="6.51237">
        <ele>2389</ele>
        <time>2017-08-29T08:15:02Z</time>
      </trkpt>
      <trkpt lat="45.91573" lon="6.51237">
        <ele>2389</ele>
        <time>2017-08-29T08:15:03Z</time>
      </trkpt>
      <trkpt lat="45.91573" lon="6.51237">
        <ele>2389</ele>
        <time>2017-08-29T08:15:04Z</time>
      </trkpt>
      <trkpt lat="45.91571" lon="6.51238">
        <ele>2389</ele>
        <time>2017-08-29T08:15:05Z</time>
      </trkpt>
      <trkpt lat="45.91571" lon="6.51238">
        <ele>2390</ele>
        <time>2017-08-29T08:15:06Z</time>
      </trkpt>
      <trkpt lat="45.91571" lon="6.51238">
        <ele>2390</ele>
        <time>2017-08-29T08:15:07Z</time>
      </trkpt>
      <trkpt lat="45.91571" lon="6.51238">
        <ele>2390</ele>
        <time>2017-08-29T08:15:08Z</time>
      </trkpt>
      <trkpt lat="45.91571" lon="6.51238">
        <ele>2390</ele>
        <time>2017-08-29T08:15:09Z</time>
      </trkpt>
      <trkpt lat="45.91571" lon="6.51238">
        <ele>2390</ele>
        <time>2017-08-29T08:15:10Z</time>
      </trkpt>
      <trkpt lat="45.91571" lon="6.51238">
        <ele>2390</ele>
        <time>2017-08-29T08:15:11Z</time>
      </trkpt>
      <trkpt lat="45.91571" lon="6.51238">
        <ele>2390</ele>
        <time>2017-08-29T08:15:12Z</time>
      </trkpt>
      <trkpt lat="45.91571" lon="6.51238">
        <ele>2390</ele>
        <time>2017-08-29T08:15:13Z</time>
      </trkpt>
      <trkpt lat="45.91572" lon="6.51236">
        <ele>2390</ele>
        <time>2017-08-29T08:15:14Z</time>
      </trkpt>
      <trkpt lat="45.91572" lon="6.51236">
        <ele>2391</ele>
        <time>2017-08-29T08:15:15Z</time>
      </trkpt>
      <trkpt lat="45.91572" lon="6.51236">
        <ele>2392</ele>
        <time>2017-08-29T08:15:16Z</time>
      </trkpt>
      <trkpt lat="45.91572" lon="6.51236">
        <ele>2392</ele>
        <time>2017-08-29T08:15:17Z</time>
      </trkpt>
      <trkpt lat="45.91572" lon="6.51236">
        <ele>2392</ele>
        <time>2017-08-29T08:15:18Z</time>
      </trkpt>
      <trkpt lat="45.91572" lon="6.51236">
        <ele>2393</ele>
        <time>2017-08-29T08:15:19Z</time>
      </trkpt>
      <trkpt lat="45.91572" lon="6.51236">
        <ele>2393</ele>
        <time>2017-08-29T08:15:20Z</time>
      </trkpt>
      <trkpt lat="45.91572" lon="6.51236">
        <ele>2394</ele>
        <time>2017-08-29T08:15:21Z</time>
      </trkpt>
      <trkpt lat="45.91572" lon="6.51236">
        <ele>2394</ele>
        <time>2017-08-29T08:15:22Z</time>
      </trkpt>
      <trkpt lat="45.91572" lon="6.51236">
        <ele>2394</ele>
        <time>2017-08-29T08:15:23Z</time>
      </trkpt>
      <trkpt lat="45.91572" lon="6.51236">
        <ele>2394</ele>
        <time>2017-08-29T08:15:24Z</time>
      </trkpt>
      <trkpt lat="45.91572" lon="6.51236">
        <ele>2394</ele>
        <time>2017-08-29T08:15:25Z</time>
      </trkpt>
      <trkpt lat="45.91572" lon="6.51236">
        <ele>2395</ele>
        <time>2017-08-29T08:15:26Z</time>
      </trkpt>
      <trkpt lat="45.91572" lon="6.51236">
        <ele>2395</ele>
        <time>2017-08-29T08:15:27Z</time>
      </trkpt>
      <trkpt lat="45.91572" lon="6.51236">
        <ele>2395</ele>
        <time>2017-08-29T08:15:28Z</time>
      </trkpt>
      <trkpt lat="45.91572" lon="6.51236">
        <ele>2395</ele>
        <time>2017-08-29T08:15:29Z</time>
      </trkpt>
      <trkpt lat="45.91572" lon="6.51236">
        <ele>2395</ele>
        <time>2017-08-29T08:15:30Z</time>
      </trkpt>
      <trkpt lat="45.91572" lon="6.51236">
        <ele>2396</ele>
        <time>2017-08-29T08:15:31Z</time>
      </trkpt>
      <trkpt lat="45.91572" lon="6.51236">
        <ele>2396</ele>
        <time>2017-08-29T08:15:32Z</time>
      </trkpt>
      <trkpt lat="45.91572" lon="6.51236">
        <ele>2396</ele>
        <time>2017-08-29T08:15:33Z</time>
      </trkpt>
      <trkpt lat="45.91572" lon="6.51236">
        <ele>2396</ele>
        <time>2017-08-29T08:15:34Z</time>
      </trkpt>
      <trkpt lat="45.91572" lon="6.51236">
        <ele>2396</ele>
        <time>2017-08-29T08:15:35Z</time>
      </trkpt>
      <trkpt lat="45.91572" lon="6.51236">
        <ele>2396</ele>
        <time>2017-08-29T08:15:36Z</time>
      </trkpt>
      <trkpt lat="45.91573" lon="6.51238">
        <ele>2396</ele>
        <time>2017-08-29T08:15:37Z</time>
      </trkpt>
      <trkpt lat="45.91573" lon="6.51238">
        <ele>2396</ele>
        <time>2017-08-29T08:15:38Z</time>
      </trkpt>
      <trkpt lat="45.91573" lon="6.51238">
        <ele>2396</ele>
        <time>2017-08-29T08:15:39Z</time>
      </trkpt>
      <trkpt lat="45.91573" lon="6.51238">
        <ele>2397</ele>
        <time>2017-08-29T08:15:40Z</time>
      </trkpt>
      <trkpt lat="45.91573" lon="6.51238">
        <ele>2397</ele>
        <time>2017-08-29T08:15:41Z</time>
      </trkpt>
      <trkpt lat="45.91573" lon="6.51238">
        <ele>2397</ele>
        <time>2017-08-29T08:15:42Z</time>
      </trkpt>
      <trkpt lat="45.91576" lon="6.51241">
        <ele>2397</ele>
        <time>2017-08-29T08:15:43Z</time>
      </trkpt>
      <trkpt lat="45.91576" lon="6.51241">
        <ele>2397</ele>
        <time>2017-08-29T08:15:44Z</time>
      </trkpt>
      <trkpt lat="45.91576" lon="6.51241">
        <ele>2397</ele>
        <time>2017-08-29T08:15:45Z</time>
      </trkpt>
      <trkpt lat="45.91576" lon="6.51241">
        <ele>2397</ele>
        <time>2017-08-29T08:15:46Z</time>
      </trkpt>
      <trkpt lat="45.91576" lon="6.51241">
        <ele>2397</ele>
        <time>2017-08-29T08:15:47Z</time>
      </trkpt>
      <trkpt lat="45.91576" lon="6.51241">
        <ele>2397</ele>
        <time>2017-08-29T08:15:48Z</time>
      </trkpt>
      <trkpt lat="45.91576" lon="6.51241">
        <ele>2398</ele>
        <time>2017-08-29T08:15:49Z</time>
      </trkpt>
      <trkpt lat="45.91576" lon="6.51241">
        <ele>2398</ele>
        <time>2017-08-29T08:15:50Z</time>
      </trkpt>
      <trkpt lat="45.91576" lon="6.51241">
        <ele>2398</ele>
        <time>2017-08-29T08:15:51Z</time>
      </trkpt>
      <trkpt lat="45.91576" lon="6.51241">
        <ele>2398</ele>
        <time>2017-08-29T08:15:52Z</time>
      </trkpt>
      <trkpt lat="45.91576" lon="6.51241">
        <ele>2398</ele>
        <time>2017-08-29T08:15:53Z</time>
      </trkpt>
      <trkpt lat="45.91576" lon="6.51241">
        <ele>2398</ele>
        <time>2017-08-29T08:15:54Z</time>
      </trkpt>
      <trkpt lat="45.91576" lon="6.51241">
        <ele>2398</ele>
        <time>2017-08-29T08:15:55Z</time>
      </trkpt>
      <trkpt lat="45.91576" lon="6.51241">
        <ele>2398</ele>
        <time>2017-08-29T08:15:56Z</time>
      </trkpt>
      <trkpt lat="45.91576" lon="6.51241">
        <ele>2398</ele>
        <time>2017-08-29T08:15:57Z</time>
      </trkpt>
      <trkpt lat="45.91576" lon="6.51241">
        <ele>2398</ele>
        <time>2017-08-29T08:15:58Z</time>
      </trkpt>
      <trkpt lat="45.91574" lon="6.51242">
        <ele>2398</ele>
        <time>2017-08-29T08:15:59Z</time>
      </trkpt>
      <trkpt lat="45.91574" lon="6.51242">
        <ele>2398</ele>
        <time>2017-08-29T08:16:00Z</time>
      </trkpt>
      <trkpt lat="45.91574" lon="6.51242">
        <ele>2398</ele>
        <time>2017-08-29T08:16:01Z</time>
      </trkpt>
      <trkpt lat="45.91574" lon="6.51242">
        <ele>2398</ele>
        <time>2017-08-29T08:16:02Z</time>
      </trkpt>
      <trkpt lat="45.91574" lon="6.51242">
        <ele>2398</ele>
        <time>2017-08-29T08:16:03Z</time>
      </trkpt>
      <trkpt lat="45.91574" lon="6.51242">
        <ele>2398</ele>
        <time>2017-08-29T08:16:04Z</time>
      </trkpt>
      <trkpt lat="45.91574" lon="6.51242">
        <ele>2397</ele>
        <time>2017-08-29T08:16:05Z</time>
      </trkpt>
      <trkpt lat="45.91574" lon="6.51242">
        <ele>2397</ele>
        <time>2017-08-29T08:16:06Z</time>
      </trkpt>
      <trkpt lat="45.91574" lon="6.51242">
        <ele>2397</ele>
        <time>2017-08-29T08:16:07Z</time>
      </trkpt>
      <trkpt lat="45.91574" lon="6.51242">
        <ele>2397</ele>
        <time>2017-08-29T08:16:08Z</time>
      </trkpt>
      <trkpt lat="45.91574" lon="6.51242">
        <ele>2397</ele>
        <time>2017-08-29T08:16:09Z</time>
      </trkpt>
      <trkpt lat="45.91574" lon="6.51242">
        <ele>2397</ele>
        <time>2017-08-29T08:16:10Z</time>
      </trkpt>
      <trkpt lat="45.91574" lon="6.51242">
        <ele>2397</ele>
        <time>2017-08-29T08:16:11Z</time>
      </trkpt>
      <trkpt lat="45.91574" lon="6.51242">
        <ele>2397</ele>
        <time>2017-08-29T08:16:12Z</time>
      </trkpt>
      <trkpt lat="45.91574" lon="6.51242">
        <ele>2397</ele>
        <time>2017-08-29T08:16:13Z</time>
      </trkpt>
      <trkpt lat="45.91576" lon="6.51242">
        <ele>2398</ele>
        <time>2017-08-29T08:16:14Z</time>
      </trkpt>
      <trkpt lat="45.91576" lon="6.51243">
        <ele>2398</ele>
        <time>2017-08-29T08:16:15Z</time>
      </trkpt>
      <trkpt lat="45.91576" lon="6.51244">
        <ele>2399</ele>
        <time>2017-08-29T08:16:16Z</time>
      </trkpt>
      <trkpt lat="45.91576" lon="6.51245">
        <ele>2399</ele>
        <time>2017-08-29T08:16:17Z</time>
      </trkpt>
      <trkpt lat="45.91577" lon="6.51247">
        <ele>2400</ele>
        <time>2017-08-29T08:16:18Z</time>
      </trkpt>
      <trkpt lat="45.91577" lon="6.51248">
        <ele>2400</ele>
        <time>2017-08-29T08:16:19Z</time>
      </trkpt>
      <trkpt lat="45.91577" lon="6.51248">
        <ele>2400</ele>
        <time>2017-08-29T08:16:20Z</time>
      </trkpt>
      <trkpt lat="45.91577" lon="6.51248">
        <ele>2400</ele>
        <time>2017-08-29T08:16:21Z</time>
      </trkpt>
      <trkpt lat="45.91577" lon="6.51248">
        <ele>2400</ele>
        <time>2017-08-29T08:16:22Z</time>
      </trkpt>
      <trkpt lat="45.91577" lon="6.51248">
        <ele>2400</ele>
        <time>2017-08-29T08:16:23Z</time>
      </trkpt>
      <trkpt lat="45.91577" lon="6.51251">
        <ele>2400</ele>
        <time>2017-08-29T08:16:24Z</time>
      </trkpt>
      <trkpt lat="45.91577" lon="6.51251">
        <ele>2401</ele>
        <time>2017-08-29T08:16:25Z</time>
      </trkpt>
      <trkpt lat="45.91577" lon="6.51251">
        <ele>2401</ele>
        <time>2017-08-29T08:16:26Z</time>
      </trkpt>
      <trkpt lat="45.91577" lon="6.51251">
        <ele>2402</ele>
        <time>2017-08-29T08:16:27Z</time>
      </trkpt>
      <trkpt lat="45.91577" lon="6.51251">
        <ele>2402</ele>
        <time>2017-08-29T08:16:28Z</time>
      </trkpt>
      <trkpt lat="45.91577" lon="6.51251">
        <ele>2402</ele>
        <time>2017-08-29T08:16:29Z</time>
      </trkpt>
      <trkpt lat="45.9158" lon="6.51251">
        <ele>2402</ele>
        <time>2017-08-29T08:16:30Z</time>
      </trkpt>
      <trkpt lat="45.9158" lon="6.51251">
        <ele>2403</ele>
        <time>2017-08-29T08:16:31Z</time>
      </trkpt>
      <trkpt lat="45.9158" lon="6.51251">
        <ele>2403</ele>
        <time>2017-08-29T08:16:32Z</time>
      </trkpt>
      <trkpt lat="45.9158" lon="6.51251">
        <ele>2403</ele>
        <time>2017-08-29T08:16:33Z</time>
      </trkpt>
      <trkpt lat="45.9158" lon="6.51251">
        <ele>2404</ele>
        <time>2017-08-29T08:16:34Z</time>
      </trkpt>
      <trkpt lat="45.91581" lon="6.51252">
        <ele>2404</ele>
        <time>2017-08-29T08:16:35Z</time>
      </trkpt>
      <trkpt lat="45.91581" lon="6.51252">
        <ele>2404</ele>
        <time>2017-08-29T08:16:36Z</time>
      </trkpt>
      <trkpt lat="45.91581" lon="6.51252">
        <ele>2404</ele>
        <time>2017-08-29T08:16:37Z</time>
      </trkpt>
      <trkpt lat="45.91581" lon="6.51252">
        <ele>2404</ele>
        <time>2017-08-29T08:16:38Z</time>
      </trkpt>
      <trkpt lat="45.91581" lon="6.51252">
        <ele>2405</ele>
        <time>2017-08-29T08:16:39Z</time>
      </trkpt>
      <trkpt lat="45.91581" lon="6.51252">
        <ele>2405</ele>
        <time>2017-08-29T08:16:40Z</time>
      </trkpt>
      <trkpt lat="45.91583" lon="6.51251">
        <ele>2405</ele>
        <time>2017-08-29T08:16:41Z</time>
      </trkpt>
      <trkpt lat="45.91583" lon="6.51251">
        <ele>2405</ele>
        <time>2017-08-29T08:16:42Z</time>
      </trkpt>
      <trkpt lat="45.91583" lon="6.51251">
        <ele>2405</ele>
        <time>2017-08-29T08:16:43Z</time>
      </trkpt>
      <trkpt lat="45.91585" lon="6.51253">
        <ele>2406</ele>
        <time>2017-08-29T08:16:44Z</time>
      </trkpt>
      <trkpt lat="45.91585" lon="6.51253">
        <ele>2406</ele>
        <time>2017-08-29T08:16:45Z</time>
      </trkpt>
      <trkpt lat="45.91585" lon="6.51254">
        <ele>2406</ele>
        <time>2017-08-29T08:16:46Z</time>
      </trkpt>
      <trkpt lat="45.91584" lon="6.51254">
        <ele>2406</ele>
        <time>2017-08-29T08:16:47Z</time>
      </trkpt>
      <trkpt lat="45.91584" lon="6.51255">
        <ele>2406</ele>
        <time>2017-08-29T08:16:48Z</time>
      </trkpt>
      <trkpt lat="45.91584" lon="6.51255">
        <ele>2407</ele>
        <time>2017-08-29T08:16:49Z</time>
      </trkpt>
      <trkpt lat="45.91584" lon="6.51256">
        <ele>2407</ele>
        <time>2017-08-29T08:16:50Z</time>
      </trkpt>
      <trkpt lat="45.91584" lon="6.51256">
        <ele>2407</ele>
        <time>2017-08-29T08:16:51Z</time>
      </trkpt>
      <trkpt lat="45.91583" lon="6.51257">
        <ele>2407</ele>
        <time>2017-08-29T08:16:52Z</time>
      </trkpt>
      <trkpt lat="45.91583" lon="6.51257">
        <ele>2409</ele>
        <time>2017-08-29T08:16:53Z</time>
      </trkpt>
      <trkpt lat="45.91583" lon="6.51258">
        <ele>2410</ele>
        <time>2017-08-29T08:16:54Z</time>
      </trkpt>
      <trkpt lat="45.91583" lon="6.51258">
        <ele>2410</ele>
        <time>2017-08-29T08:16:55Z</time>
      </trkpt>
      <trkpt lat="45.91583" lon="6.51259">
        <ele>2410</ele>
        <time>2017-08-29T08:16:56Z</time>
      </trkpt>
      <trkpt lat="45.91582" lon="6.51259">
        <ele>2410</ele>
        <time>2017-08-29T08:16:57Z</time>
      </trkpt>
      <trkpt lat="45.91582" lon="6.51259">
        <ele>2410</ele>
        <time>2017-08-29T08:16:58Z</time>
      </trkpt>
      <trkpt lat="45.91582" lon="6.5126">
        <ele>2410</ele>
        <time>2017-08-29T08:16:59Z</time>
      </trkpt>
      <trkpt lat="45.91582" lon="6.5126">
        <ele>2410</ele>
        <time>2017-08-29T08:17:00Z</time>
      </trkpt>
      <trkpt lat="45.91581" lon="6.51261">
        <ele>2410</ele>
        <time>2017-08-29T08:17:01Z</time>
      </trkpt>
      <trkpt lat="45.91581" lon="6.51261">
        <ele>2411</ele>
        <time>2017-08-29T08:17:02Z</time>
      </trkpt>
      <trkpt lat="45.91581" lon="6.51262">
        <ele>2411</ele>
        <time>2017-08-29T08:17:03Z</time>
      </trkpt>
      <trkpt lat="45.91581" lon="6.51262">
        <ele>2411</ele>
        <time>2017-08-29T08:17:04Z</time>
      </trkpt>
      <trkpt lat="45.91581" lon="6.51263">
        <ele>2412</ele>
        <time>2017-08-29T08:17:05Z</time>
      </trkpt>
      <trkpt lat="45.9158" lon="6.51263">
        <ele>2413</ele>
        <time>2017-08-29T08:17:06Z</time>
      </trkpt>
      <trkpt lat="45.9158" lon="6.51264">
        <ele>2413</ele>
        <time>2017-08-29T08:17:07Z</time>
      </trkpt>
      <trkpt lat="45.9158" lon="6.51264">
        <ele>2413</ele>
        <time>2017-08-29T08:17:08Z</time>
      </trkpt>
      <trkpt lat="45.9158" lon="6.51264">
        <ele>2413</ele>
        <time>2017-08-29T08:17:09Z</time>
      </trkpt>
      <trkpt lat="45.9158" lon="6.51263">
        <ele>2414</ele>
        <time>2017-08-29T08:17:10Z</time>
      </trkpt>
      <trkpt lat="45.91579" lon="6.51263">
        <ele>2414</ele>
        <time>2017-08-29T08:17:11Z</time>
      </trkpt>
      <trkpt lat="45.91579" lon="6.51263">
        <ele>2415</ele>
        <time>2017-08-29T08:17:12Z</time>
      </trkpt>
      <trkpt lat="45.91579" lon="6.51262">
        <ele>2415</ele>
        <time>2017-08-29T08:17:13Z</time>
      </trkpt>
      <trkpt lat="45.91579" lon="6.51262">
        <ele>2415</ele>
        <time>2017-08-29T08:17:14Z</time>
      </trkpt>
      <trkpt lat="45.91579" lon="6.51262">
        <ele>2414</ele>
        <time>2017-08-29T08:17:15Z</time>
      </trkpt>
      <trkpt lat="45.91579" lon="6.51261">
        <ele>2414</ele>
        <time>2017-08-29T08:17:16Z</time>
      </trkpt>
      <trkpt lat="45.91578" lon="6.51261">
        <ele>2414</ele>
        <time>2017-08-29T08:17:17Z</time>
      </trkpt>
      <trkpt lat="45.91578" lon="6.51261">
        <ele>2414</ele>
        <time>2017-08-29T08:17:18Z</time>
      </trkpt>
      <trkpt lat="45.91578" lon="6.5126">
        <ele>2414</ele>
        <time>2017-08-29T08:17:19Z</time>
      </trkpt>
      <trkpt lat="45.91578" lon="6.5126">
        <ele>2414</ele>
        <time>2017-08-29T08:17:20Z</time>
      </trkpt>
      <trkpt lat="45.91578" lon="6.51259">
        <ele>2414</ele>
        <time>2017-08-29T08:17:21Z</time>
      </trkpt>
      <trkpt lat="45.91577" lon="6.51259">
        <ele>2413</ele>
        <time>2017-08-29T08:17:22Z</time>
      </trkpt>
      <trkpt lat="45.91577" lon="6.51259">
        <ele>2413</ele>
        <time>2017-08-29T08:17:23Z</time>
      </trkpt>
      <trkpt lat="45.91577" lon="6.51258">
        <ele>2413</ele>
        <time>2017-08-29T08:17:24Z</time>
      </trkpt>
      <trkpt lat="45.91577" lon="6.51258">
        <ele>2413</ele>
        <time>2017-08-29T08:17:25Z</time>
      </trkpt>
      <trkpt lat="45.91577" lon="6.51258">
        <ele>2413</ele>
        <time>2017-08-29T08:17:26Z</time>
      </trkpt>
      <trkpt lat="45.91576" lon="6.51257">
        <ele>2413</ele>
        <time>2017-08-29T08:17:27Z</time>
      </trkpt>
      <trkpt lat="45.91576" lon="6.51257">
        <ele>2413</ele>
        <time>2017-08-29T08:17:28Z</time>
      </trkpt>
      <trkpt lat="45.91576" lon="6.51257">
        <ele>2414</ele>
        <time>2017-08-29T08:17:29Z</time>
      </trkpt>
      <trkpt lat="45.91576" lon="6.51256">
        <ele>2414</ele>
        <time>2017-08-29T08:17:30Z</time>
      </trkpt>
      <trkpt lat="45.91576" lon="6.51256">
        <ele>2414</ele>
        <time>2017-08-29T08:17:31Z</time>
      </trkpt>
      <trkpt lat="45.91575" lon="6.51256">
        <ele>2414</ele>
        <time>2017-08-29T08:17:32Z</time>
      </trkpt>
      <trkpt lat="45.91575" lon="6.51255">
        <ele>2414</ele>
        <time>2017-08-29T08:17:33Z</time>
      </trkpt>
      <trkpt lat="45.91575" lon="6.51255">
        <ele>2414</ele>
        <time>2017-08-29T08:17:34Z</time>
      </trkpt>
      <trkpt lat="45.91575" lon="6.51255">
        <ele>2415</ele>
        <time>2017-08-29T08:17:35Z</time>
      </trkpt>
      <trkpt lat="45.91575" lon="6.51254">
        <ele>2415</ele>
        <time>2017-08-29T08:17:36Z</time>
      </trkpt>
      <trkpt lat="45.91575" lon="6.51254">
        <ele>2415</ele>
        <time>2017-08-29T08:17:37Z</time>
      </trkpt>
      <trkpt lat="45.91574" lon="6.51254">
        <ele>2415</ele>
        <time>2017-08-29T08:17:38Z</time>
      </trkpt>
      <trkpt lat="45.91574" lon="6.51253">
        <ele>2415</ele>
        <time>2017-08-29T08:17:39Z</time>
      </trkpt>
      <trkpt lat="45.91574" lon="6.51253">
        <ele>2415</ele>
        <time>2017-08-29T08:17:40Z</time>
      </trkpt>
      <trkpt lat="45.91574" lon="6.51254">
        <ele>2415</ele>
        <time>2017-08-29T08:17:41Z</time>
      </trkpt>
      <trkpt lat="45.91575" lon="6.51255">
        <ele>2415</ele>
        <time>2017-08-29T08:17:42Z</time>
      </trkpt>
      <trkpt lat="45.91575" lon="6.51255">
        <ele>2415</ele>
        <time>2017-08-29T08:17:43Z</time>
      </trkpt>
      <trkpt lat="45.91575" lon="6.51256">
        <ele>2415</ele>
        <time>2017-08-29T08:17:44Z</time>
      </trkpt>
      <trkpt lat="45.91576" lon="6.51257">
        <ele>2415</ele>
        <time>2017-08-29T08:17:45Z</time>
      </trkpt>
      <trkpt lat="45.91576" lon="6.51258">
        <ele>2415</ele>
        <time>2017-08-29T08:17:46Z</time>
      </trkpt>
      <trkpt lat="45.91576" lon="6.51259">
        <ele>2415</ele>
        <time>2017-08-29T08:17:47Z</time>
      </trkpt>
      <trkpt lat="45.91577" lon="6.5126">
        <ele>2415</ele>
        <time>2017-08-29T08:17:48Z</time>
      </trkpt>
      <trkpt lat="45.91577" lon="6.51261">
        <ele>2414</ele>
        <time>2017-08-29T08:17:49Z</time>
      </trkpt>
      <trkpt lat="45.91579" lon="6.51261">
        <ele>2414</ele>
        <time>2017-08-29T08:17:50Z</time>
      </trkpt>
      <trkpt lat="45.91579" lon="6.51261">
        <ele>2415</ele>
        <time>2017-08-29T08:17:51Z</time>
      </trkpt>
      <trkpt lat="45.91579" lon="6.51261">
        <ele>2415</ele>
        <time>2017-08-29T08:17:52Z</time>
      </trkpt>
      <trkpt lat="45.91579" lon="6.51261">
        <ele>2415</ele>
        <time>2017-08-29T08:17:53Z</time>
      </trkpt>
      <trkpt lat="45.91579" lon="6.51261">
        <ele>2415</ele>
        <time>2017-08-29T08:17:54Z</time>
      </trkpt>
      <trkpt lat="45.91579" lon="6.51261">
        <ele>2415</ele>
        <time>2017-08-29T08:17:55Z</time>
      </trkpt>
      <trkpt lat="45.91579" lon="6.51261">
        <ele>2415</ele>
        <time>2017-08-29T08:17:56Z</time>
      </trkpt>
      <trkpt lat="45.91579" lon="6.51261">
        <ele>2415</ele>
        <time>2017-08-29T08:17:57Z</time>
      </trkpt>
      <trkpt lat="45.91582" lon="6.51261">
        <ele>2415</ele>
        <time>2017-08-29T08:17:58Z</time>
      </trkpt>
      <trkpt lat="45.91582" lon="6.51261">
        <ele>2414</ele>
        <time>2017-08-29T08:17:59Z</time>
      </trkpt>
      <trkpt lat="45.91582" lon="6.51261">
        <ele>2414</ele>
        <time>2017-08-29T08:18:00Z</time>
      </trkpt>
      <trkpt lat="45.91582" lon="6.51261">
        <ele>2415</ele>
        <time>2017-08-29T08:18:01Z</time>
      </trkpt>
      <trkpt lat="45.91582" lon="6.51261">
        <ele>2415</ele>
        <time>2017-08-29T08:18:02Z</time>
      </trkpt>
      <trkpt lat="45.91582" lon="6.51261">
        <ele>2415</ele>
        <time>2017-08-29T08:18:03Z</time>
      </trkpt>
      <trkpt lat="45.91582" lon="6.51261">
        <ele>2415</ele>
        <time>2017-08-29T08:18:04Z</time>
      </trkpt>
      <trkpt lat="45.91582" lon="6.51261">
        <ele>2416</ele>
        <time>2017-08-29T08:18:05Z</time>
      </trkpt>
      <trkpt lat="45.91582" lon="6.51261">
        <ele>2416</ele>
        <time>2017-08-29T08:18:06Z</time>
      </trkpt>
      <trkpt lat="45.91582" lon="6.51261">
        <ele>2416</ele>
        <time>2017-08-29T08:18:07Z</time>
      </trkpt>
      <trkpt lat="45.91582" lon="6.51261">
        <ele>2415</ele>
        <time>2017-08-29T08:18:08Z</time>
      </trkpt>
      <trkpt lat="45.91582" lon="6.51261">
        <ele>2415</ele>
        <time>2017-08-29T08:18:09Z</time>
      </trkpt>
      <trkpt lat="45.91582" lon="6.51261">
        <ele>2415</ele>
        <time>2017-08-29T08:18:10Z</time>
      </trkpt>
      <trkpt lat="45.91582" lon="6.51261">
        <ele>2415</ele>
        <time>2017-08-29T08:18:11Z</time>
      </trkpt>
      <trkpt lat="45.91582" lon="6.51261">
        <ele>2415</ele>
        <time>2017-08-29T08:18:12Z</time>
      </trkpt>
      <trkpt lat="45.91583" lon="6.51263">
        <ele>2415</ele>
        <time>2017-08-29T08:18:13Z</time>
      </trkpt>
      <trkpt lat="45.91584" lon="6.51263">
        <ele>2415</ele>
        <time>2017-08-29T08:18:14Z</time>
      </trkpt>
      <trkpt lat="45.91584" lon="6.51264">
        <ele>2415</ele>
        <time>2017-08-29T08:18:15Z</time>
      </trkpt>
      <trkpt lat="45.91584" lon="6.51264">
        <ele>2415</ele>
        <time>2017-08-29T08:18:16Z</time>
      </trkpt>
      <trkpt lat="45.91585" lon="6.51265">
        <ele>2415</ele>
        <time>2017-08-29T08:18:17Z</time>
      </trkpt>
      <trkpt lat="45.91585" lon="6.51266">
        <ele>2415</ele>
        <time>2017-08-29T08:18:18Z</time>
      </trkpt>
      <trkpt lat="45.91585" lon="6.51266">
        <ele>2415</ele>
        <time>2017-08-29T08:18:19Z</time>
      </trkpt>
      <trkpt lat="45.91586" lon="6.51267">
        <ele>2415</ele>
        <time>2017-08-29T08:18:20Z</time>
      </trkpt>
      <trkpt lat="45.91586" lon="6.51268">
        <ele>2415</ele>
        <time>2017-08-29T08:18:21Z</time>
      </trkpt>
      <trkpt lat="45.91586" lon="6.51268">
        <ele>2415</ele>
        <time>2017-08-29T08:18:22Z</time>
      </trkpt>
      <trkpt lat="45.91587" lon="6.51269">
        <ele>2415</ele>
        <time>2017-08-29T08:18:23Z</time>
      </trkpt>
      <trkpt lat="45.91587" lon="6.5127">
        <ele>2415</ele>
        <time>2017-08-29T08:18:24Z</time>
      </trkpt>
      <trkpt lat="45.91587" lon="6.5127">
        <ele>2415</ele>
        <time>2017-08-29T08:18:25Z</time>
      </trkpt>
      <trkpt lat="45.91588" lon="6.51271">
        <ele>2415</ele>
        <time>2017-08-29T08:18:26Z</time>
      </trkpt>
      <trkpt lat="45.91588" lon="6.51272">
        <ele>2418</ele>
        <time>2017-08-29T08:22:58Z</time>
      </trkpt>
      <trkpt lat="45.91588" lon="6.51272">
        <ele>2418</ele>
        <time>2017-08-29T08:22:59Z</time>
      </trkpt>
      <trkpt lat="45.91588" lon="6.51272">
        <ele>2418</ele>
        <time>2017-08-29T08:23:00Z</time>
      </trkpt>
      <trkpt lat="45.91588" lon="6.51272">
        <ele>2415</ele>
        <time>2017-08-29T08:23:01Z</time>
      </trkpt>
      <trkpt lat="45.91589" lon="6.51277">
        <ele>2415</ele>
        <time>2017-08-29T08:23:02Z</time>
      </trkpt>
      <trkpt lat="45.91589" lon="6.51282">
        <ele>2415</ele>
        <time>2017-08-29T08:23:03Z</time>
      </trkpt>
      <trkpt lat="45.91589" lon="6.51284">
        <ele>2415</ele>
        <time>2017-08-29T08:23:04Z</time>
      </trkpt>
      <trkpt lat="45.91589" lon="6.51285">
        <ele>2415</ele>
        <time>2017-08-29T08:23:05Z</time>
      </trkpt>
      <trkpt lat="45.91589" lon="6.51287">
        <ele>2415</ele>
        <time>2017-08-29T08:23:06Z</time>
      </trkpt>
      <trkpt lat="45.91589" lon="6.51289">
        <ele>2414</ele>
        <time>2017-08-29T08:23:07Z</time>
      </trkpt>
      <trkpt lat="45.91588" lon="6.51297">
        <ele>2414</ele>
        <time>2017-08-29T08:23:08Z</time>
      </trkpt>
      <trkpt lat="45.91587" lon="6.51299">
        <ele>2413</ele>
        <time>2017-08-29T08:23:09Z</time>
      </trkpt>
      <trkpt lat="45.91587" lon="6.51299">
        <ele>2412</ele>
        <time>2017-08-29T08:23:10Z</time>
      </trkpt>
      <trkpt lat="45.91585" lon="6.51301">
        <ele>2412</ele>
        <time>2017-08-29T08:23:11Z</time>
      </trkpt>
      <trkpt lat="45.91584" lon="6.51304">
        <ele>2411</ele>
        <time>2017-08-29T08:23:12Z</time>
      </trkpt>
      <trkpt lat="45.91584" lon="6.51306">
        <ele>2411</ele>
        <time>2017-08-29T08:23:13Z</time>
      </trkpt>
      <trkpt lat="45.91583" lon="6.51308">
        <ele>2410</ele>
        <time>2017-08-29T08:23:14Z</time>
      </trkpt>
      <trkpt lat="45.91583" lon="6.5131">
        <ele>2411</ele>
        <time>2017-08-29T08:23:15Z</time>
      </trkpt>
      <trkpt lat="45.91583" lon="6.51312">
        <ele>2411</ele>
        <time>2017-08-29T08:23:16Z</time>
      </trkpt>
      <trkpt lat="45.91582" lon="6.51314">
        <ele>2410</ele>
        <time>2017-08-29T08:23:17Z</time>
      </trkpt>
      <trkpt lat="45.91582" lon="6.51316">
        <ele>2409</ele>
        <time>2017-08-29T08:23:18Z</time>
      </trkpt>
      <trkpt lat="45.91581" lon="6.51318">
        <ele>2409</ele>
        <time>2017-08-29T08:23:19Z</time>
      </trkpt>
      <trkpt lat="45.91581" lon="6.5132">
        <ele>2409</ele>
        <time>2017-08-29T08:23:20Z</time>
      </trkpt>
      <trkpt lat="45.91581" lon="6.51323">
        <ele>2409</ele>
        <time>2017-08-29T08:23:21Z</time>
      </trkpt>
      <trkpt lat="45.91581" lon="6.51325">
        <ele>2408</ele>
        <time>2017-08-29T08:23:22Z</time>
      </trkpt>
      <trkpt lat="45.9158" lon="6.51327">
        <ele>2408</ele>
        <time>2017-08-29T08:23:23Z</time>
      </trkpt>
      <trkpt lat="45.9158" lon="6.51329">
        <ele>2407</ele>
        <time>2017-08-29T08:23:24Z</time>
      </trkpt>
      <trkpt lat="45.9158" lon="6.51332">
        <ele>2406</ele>
        <time>2017-08-29T08:23:25Z</time>
      </trkpt>
      <trkpt lat="45.91579" lon="6.51334">
        <ele>2405</ele>
        <time>2017-08-29T08:23:26Z</time>
      </trkpt>
      <trkpt lat="45.91579" lon="6.51337">
        <ele>2405</ele>
        <time>2017-08-29T08:23:27Z</time>
      </trkpt>
      <trkpt lat="45.91579" lon="6.51339">
        <ele>2405</ele>
        <time>2017-08-29T08:23:28Z</time>
      </trkpt>
      <trkpt lat="45.91579" lon="6.51342">
        <ele>2404</ele>
        <time>2017-08-29T08:23:29Z</time>
      </trkpt>
      <trkpt lat="45.91579" lon="6.51343">
        <ele>2403</ele>
        <time>2017-08-29T08:23:30Z</time>
      </trkpt>
      <trkpt lat="45.91578" lon="6.51345">
        <ele>2403</ele>
        <time>2017-08-29T08:23:31Z</time>
      </trkpt>
      <trkpt lat="45.91578" lon="6.51347">
        <ele>2403</ele>
        <time>2017-08-29T08:23:32Z</time>
      </trkpt>
      <trkpt lat="45.91578" lon="6.51348">
        <ele>2402</ele>
        <time>2017-08-29T08:23:33Z</time>
      </trkpt>
      <trkpt lat="45.91578" lon="6.51348">
        <ele>2402</ele>
        <time>2017-08-29T08:23:34Z</time>
      </trkpt>
      <trkpt lat="45.91579" lon="6.51351">
        <ele>2402</ele>
        <time>2017-08-29T08:23:35Z</time>
      </trkpt>
      <trkpt lat="45.91579" lon="6.51351">
        <ele>2401</ele>
        <time>2017-08-29T08:23:36Z</time>
      </trkpt>
      <trkpt lat="45.91579" lon="6.51354">
        <ele>2400</ele>
        <time>2017-08-29T08:23:37Z</time>
      </trkpt>
      <trkpt lat="45.91579" lon="6.51354">
        <ele>2400</ele>
        <time>2017-08-29T08:23:38Z</time>
      </trkpt>
      <trkpt lat="45.91579" lon="6.51354">
        <ele>2400</ele>
        <time>2017-08-29T08:23:39Z</time>
      </trkpt>
      <trkpt lat="45.91579" lon="6.51354">
        <ele>2400</ele>
        <time>2017-08-29T08:23:40Z</time>
      </trkpt>
      <trkpt lat="45.9158" lon="6.51357">
        <ele>2400</ele>
        <time>2017-08-29T08:23:41Z</time>
      </trkpt>
      <trkpt lat="45.9158" lon="6.51357">
        <ele>2399</ele>
        <time>2017-08-29T08:23:42Z</time>
      </trkpt>
      <trkpt lat="45.9158" lon="6.51357">
        <ele>2399</ele>
        <time>2017-08-29T08:23:43Z</time>
      </trkpt>
      <trkpt lat="45.9158" lon="6.51357">
        <ele>2399</ele>
        <time>2017-08-29T08:23:44Z</time>
      </trkpt>
      <trkpt lat="45.9158" lon="6.51357">
        <ele>2398</ele>
        <time>2017-08-29T08:23:45Z</time>
      </trkpt>
      <trkpt lat="45.91579" lon="6.51361">
        <ele>2398</ele>
        <time>2017-08-29T08:23:46Z</time>
      </trkpt>
      <trkpt lat="45.91579" lon="6.51361">
        <ele>2398</ele>
        <time>2017-08-29T08:23:47Z</time>
      </trkpt>
      <trkpt lat="45.91578" lon="6.51363">
        <ele>2397</ele>
        <time>2017-08-29T08:23:48Z</time>
      </trkpt>
      <trkpt lat="45.91578" lon="6.51363">
        <ele>2397</ele>
        <time>2017-08-29T08:23:49Z</time>
      </trkpt>
      <trkpt lat="45.91578" lon="6.51363">
        <ele>2397</ele>
        <time>2017-08-29T08:23:50Z</time>
      </trkpt>
      <trkpt lat="45.91576" lon="6.51362">
        <ele>2397</ele>
        <time>2017-08-29T08:23:51Z</time>
      </trkpt>
      <trkpt lat="45.91576" lon="6.51362">
        <ele>2397</ele>
        <time>2017-08-29T08:23:52Z</time>
      </trkpt>
      <trkpt lat="45.91576" lon="6.51362">
        <ele>2396</ele>
        <time>2017-08-29T08:23:53Z</time>
      </trkpt>
      <trkpt lat="45.91576" lon="6.51362">
        <ele>2396</ele>
        <time>2017-08-29T08:23:54Z</time>
      </trkpt>
      <trkpt lat="45.91576" lon="6.51362">
        <ele>2396</ele>
        <time>2017-08-29T08:23:55Z</time>
      </trkpt>
      <trkpt lat="45.91576" lon="6.51362">
        <ele>2396</ele>
        <time>2017-08-29T08:23:56Z</time>
      </trkpt>
      <trkpt lat="45.91576" lon="6.51362">
        <ele>2396</ele>
        <time>2017-08-29T08:23:57Z</time>
      </trkpt>
      <trkpt lat="45.91576" lon="6.51362">
        <ele>2395</ele>
        <time>2017-08-29T08:23:58Z</time>
      </trkpt>
      <trkpt lat="45.91575" lon="6.51365">
        <ele>2395</ele>
        <time>2017-08-29T08:23:59Z</time>
      </trkpt>
      <trkpt lat="45.91575" lon="6.51365">
        <ele>2394</ele>
        <time>2017-08-29T08:24:00Z</time>
      </trkpt>
      <trkpt lat="45.91575" lon="6.51365">
        <ele>2393</ele>
        <time>2017-08-29T08:24:01Z</time>
      </trkpt>
      <trkpt lat="45.91575" lon="6.51365">
        <ele>2393</ele>
        <time>2017-08-29T08:24:02Z</time>
      </trkpt>
      <trkpt lat="45.91574" lon="6.51368">
        <ele>2393</ele>
        <time>2017-08-29T08:24:03Z</time>
      </trkpt>
      <trkpt lat="45.91574" lon="6.51368">
        <ele>2393</ele>
        <time>2017-08-29T08:24:04Z</time>
      </trkpt>
      <trkpt lat="45.91574" lon="6.51368">
        <ele>2392</ele>
        <time>2017-08-29T08:24:05Z</time>
      </trkpt>
      <trkpt lat="45.91574" lon="6.51368">
        <ele>2392</ele>
        <time>2017-08-29T08:24:06Z</time>
      </trkpt>
      <trkpt lat="45.91574" lon="6.51368">
        <ele>2392</ele>
        <time>2017-08-29T08:24:07Z</time>
      </trkpt>
      <trkpt lat="45.91574" lon="6.51368">
        <ele>2392</ele>
        <time>2017-08-29T08:24:08Z</time>
      </trkpt>
      <trkpt lat="45.91574" lon="6.51368">
        <ele>2392</ele>
        <time>2017-08-29T08:24:09Z</time>
      </trkpt>
      <trkpt lat="45.91574" lon="6.51368">
        <ele>2392</ele>
        <time>2017-08-29T08:24:10Z</time>
      </trkpt>
      <trkpt lat="45.91572" lon="6.51369">
        <ele>2391</ele>
        <time>2017-08-29T08:24:11Z</time>
      </trkpt>
      <trkpt lat="45.91572" lon="6.51369">
        <ele>2392</ele>
        <time>2017-08-29T08:24:12Z</time>
      </trkpt>
      <trkpt lat="45.91572" lon="6.51369">
        <ele>2391</ele>
        <time>2017-08-29T08:24:13Z</time>
      </trkpt>
      <trkpt lat="45.91572" lon="6.51373">
        <ele>2389</ele>
        <time>2017-08-29T08:24:14Z</time>
      </trkpt>
      <trkpt lat="45.91572" lon="6.51373">
        <ele>2390</ele>
        <time>2017-08-29T08:24:15Z</time>
      </trkpt>
      <trkpt lat="45.91572" lon="6.51373">
        <ele>2390</ele>
        <time>2017-08-29T08:24:16Z</time>
      </trkpt>
      <trkpt lat="45.91571" lon="6.51376">
        <ele>2390</ele>
        <time>2017-08-29T08:24:17Z</time>
      </trkpt>
      <trkpt lat="45.91571" lon="6.51376">
        <ele>2389</ele>
        <time>2017-08-29T08:24:18Z</time>
      </trkpt>
      <trkpt lat="45.91571" lon="6.51376">
        <ele>2389</ele>
        <time>2017-08-29T08:24:19Z</time>
      </trkpt>
      <trkpt lat="45.91571" lon="6.51376">
        <ele>2389</ele>
        <time>2017-08-29T08:24:20Z</time>
      </trkpt>
      <trkpt lat="45.91571" lon="6.51376">
        <ele>2389</ele>
        <time>2017-08-29T08:24:21Z</time>
      </trkpt>
      <trkpt lat="45.9157" lon="6.51379">
        <ele>2388</ele>
        <time>2017-08-29T08:24:22Z</time>
      </trkpt>
      <trkpt lat="45.9157" lon="6.51379">
        <ele>2388</ele>
        <time>2017-08-29T08:24:23Z</time>
      </trkpt>
      <trkpt lat="45.9157" lon="6.51379">
        <ele>2388</ele>
        <time>2017-08-29T08:24:24Z</time>
      </trkpt>
      <trkpt lat="45.91569" lon="6.5138">
        <ele>2387</ele>
        <time>2017-08-29T08:24:25Z</time>
      </trkpt>
      <trkpt lat="45.91569" lon="6.5138">
        <ele>2387</ele>
        <time>2017-08-29T08:24:26Z</time>
      </trkpt>
      <trkpt lat="45.91569" lon="6.5138">
        <ele>2387</ele>
        <time>2017-08-29T08:24:27Z</time>
      </trkpt>
      <trkpt lat="45.91569" lon="6.5138">
        <ele>2387</ele>
        <time>2017-08-29T08:24:28Z</time>
      </trkpt>
      <trkpt lat="45.91569" lon="6.5138">
        <ele>2387</ele>
        <time>2017-08-29T08:24:29Z</time>
      </trkpt>
      <trkpt lat="45.91569" lon="6.5138">
        <ele>2386</ele>
        <time>2017-08-29T08:24:30Z</time>
      </trkpt>
      <trkpt lat="45.91569" lon="6.5138">
        <ele>2386</ele>
        <time>2017-08-29T08:24:31Z</time>
      </trkpt>
      <trkpt lat="45.91569" lon="6.5138">
        <ele>2386</ele>
        <time>2017-08-29T08:24:32Z</time>
      </trkpt>
      <trkpt lat="45.91569" lon="6.51383">
        <ele>2386</ele>
        <time>2017-08-29T08:24:33Z</time>
      </trkpt>
      <trkpt lat="45.91569" lon="6.51383">
        <ele>2386</ele>
        <time>2017-08-29T08:24:34Z</time>
      </trkpt>
      <trkpt lat="45.91569" lon="6.51383">
        <ele>2386</ele>
        <time>2017-08-29T08:24:35Z</time>
      </trkpt>
      <trkpt lat="45.91569" lon="6.51383">
        <ele>2385</ele>
        <time>2017-08-29T08:24:36Z</time>
      </trkpt>
      <trkpt lat="45.91569" lon="6.51383">
        <ele>2385</ele>
        <time>2017-08-29T08:24:37Z</time>
      </trkpt>
      <trkpt lat="45.91569" lon="6.51383">
        <ele>2385</ele>
        <time>2017-08-29T08:24:38Z</time>
      </trkpt>
      <trkpt lat="45.91569" lon="6.51383">
        <ele>2384</ele>
        <time>2017-08-29T08:24:39Z</time>
      </trkpt>
      <trkpt lat="45.91569" lon="6.51383">
        <ele>2384</ele>
        <time>2017-08-29T08:24:40Z</time>
      </trkpt>
      <trkpt lat="45.91567" lon="6.51384">
        <ele>2384</ele>
        <time>2017-08-29T08:24:41Z</time>
      </trkpt>
      <trkpt lat="45.91567" lon="6.51384">
        <ele>2383</ele>
        <time>2017-08-29T08:24:42Z</time>
      </trkpt>
      <trkpt lat="45.91565" lon="6.51385">
        <ele>2383</ele>
        <time>2017-08-29T08:24:43Z</time>
      </trkpt>
      <trkpt lat="45.91565" lon="6.51385">
        <ele>2383</ele>
        <time>2017-08-29T08:24:44Z</time>
      </trkpt>
      <trkpt lat="45.91562" lon="6.51384">
        <ele>2383</ele>
        <time>2017-08-29T08:24:45Z</time>
      </trkpt>
      <trkpt lat="45.91562" lon="6.51384">
        <ele>2382</ele>
        <time>2017-08-29T08:24:46Z</time>
      </trkpt>
      <trkpt lat="45.91562" lon="6.51384">
        <ele>2381</ele>
        <time>2017-08-29T08:24:47Z</time>
      </trkpt>
      <trkpt lat="45.91561" lon="6.51386">
        <ele>2382</ele>
        <time>2017-08-29T08:24:48Z</time>
      </trkpt>
      <trkpt lat="45.91561" lon="6.51386">
        <ele>2382</ele>
        <time>2017-08-29T08:24:49Z</time>
      </trkpt>
      <trkpt lat="45.91561" lon="6.51386">
        <ele>2381</ele>
        <time>2017-08-29T08:24:50Z</time>
      </trkpt>
      <trkpt lat="45.91561" lon="6.51386">
        <ele>2381</ele>
        <time>2017-08-29T08:24:51Z</time>
      </trkpt>
      <trkpt lat="45.91559" lon="6.51389">
        <ele>2381</ele>
        <time>2017-08-29T08:24:52Z</time>
      </trkpt>
      <trkpt lat="45.91559" lon="6.51389">
        <ele>2381</ele>
        <time>2017-08-29T08:24:53Z</time>
      </trkpt>
      <trkpt lat="45.91559" lon="6.51391">
        <ele>2381</ele>
        <time>2017-08-29T08:24:54Z</time>
      </trkpt>
      <trkpt lat="45.91559" lon="6.51391">
        <ele>2378</ele>
        <time>2017-08-29T08:24:55Z</time>
      </trkpt>
      <trkpt lat="45.91561" lon="6.51393">
        <ele>2378</ele>
        <time>2017-08-29T08:24:56Z</time>
      </trkpt>
      <trkpt lat="45.91561" lon="6.51393">
        <ele>2378</ele>
        <time>2017-08-29T08:24:57Z</time>
      </trkpt>
      <trkpt lat="45.91561" lon="6.51393">
        <ele>2378</ele>
        <time>2017-08-29T08:24:58Z</time>
      </trkpt>
      <trkpt lat="45.91561" lon="6.51393">
        <ele>2378</ele>
        <time>2017-08-29T08:24:59Z</time>
      </trkpt>
      <trkpt lat="45.91561" lon="6.51393">
        <ele>2378</ele>
        <time>2017-08-29T08:25:00Z</time>
      </trkpt>
      <trkpt lat="45.91561" lon="6.51393">
        <ele>2378</ele>
        <time>2017-08-29T08:25:01Z</time>
      </trkpt>
      <trkpt lat="45.91559" lon="6.51392">
        <ele>2378</ele>
        <time>2017-08-29T08:25:02Z</time>
      </trkpt>
      <trkpt lat="45.91559" lon="6.51392">
        <ele>2378</ele>
        <time>2017-08-29T08:25:03Z</time>
      </trkpt>
      <trkpt lat="45.91559" lon="6.51392">
        <ele>2377</ele>
        <time>2017-08-29T08:25:04Z</time>
      </trkpt>
      <trkpt lat="45.91558" lon="6.51395">
        <ele>2377</ele>
        <time>2017-08-29T08:25:05Z</time>
      </trkpt>
      <trkpt lat="45.91558" lon="6.51395">
        <ele>2377</ele>
        <time>2017-08-29T08:25:06Z</time>
      </trkpt>
      <trkpt lat="45.91559" lon="6.51397">
        <ele>2378</ele>
        <time>2017-08-29T08:25:07Z</time>
      </trkpt>
      <trkpt lat="45.91559" lon="6.51397">
        <ele>2378</ele>
        <time>2017-08-29T08:25:08Z</time>
      </trkpt>
      <trkpt lat="45.91561" lon="6.51399">
        <ele>2377</ele>
        <time>2017-08-29T08:25:09Z</time>
      </trkpt>
      <trkpt lat="45.91561" lon="6.51399">
        <ele>2376</ele>
        <time>2017-08-29T08:25:10Z</time>
      </trkpt>
      <trkpt lat="45.91562" lon="6.51402">
        <ele>2375</ele>
        <time>2017-08-29T08:25:11Z</time>
      </trkpt>
      <trkpt lat="45.91562" lon="6.51402">
        <ele>2375</ele>
        <time>2017-08-29T08:25:12Z</time>
      </trkpt>
      <trkpt lat="45.91563" lon="6.51405">
        <ele>2375</ele>
        <time>2017-08-29T08:25:13Z</time>
      </trkpt>
      <trkpt lat="45.91563" lon="6.51405">
        <ele>2375</ele>
        <time>2017-08-29T08:25:14Z</time>
      </trkpt>
      <trkpt lat="45.91563" lon="6.51408">
        <ele>2375</ele>
        <time>2017-08-29T08:25:15Z</time>
      </trkpt>
      <trkpt lat="45.91563" lon="6.51408">
        <ele>2375</ele>
        <time>2017-08-29T08:25:16Z</time>
      </trkpt>
      <trkpt lat="45.91563" lon="6.51411">
        <ele>2374</ele>
        <time>2017-08-29T08:25:17Z</time>
      </trkpt>
      <trkpt lat="45.91563" lon="6.51411">
        <ele>2373</ele>
        <time>2017-08-29T08:25:18Z</time>
      </trkpt>
      <trkpt lat="45.91563" lon="6.51411">
        <ele>2373</ele>
        <time>2017-08-29T08:25:19Z</time>
      </trkpt>
      <trkpt lat="45.91563" lon="6.51411">
        <ele>2372</ele>
        <time>2017-08-29T08:25:20Z</time>
      </trkpt>
      <trkpt lat="45.91563" lon="6.51411">
        <ele>2372</ele>
        <time>2017-08-29T08:25:21Z</time>
      </trkpt>
      <trkpt lat="45.91563" lon="6.51411">
        <ele>2372</ele>
        <time>2017-08-29T08:25:22Z</time>
      </trkpt>
      <trkpt lat="45.91565" lon="6.51412">
        <ele>2371</ele>
        <time>2017-08-29T08:25:23Z</time>
      </trkpt>
      <trkpt lat="45.91565" lon="6.51412">
        <ele>2371</ele>
        <time>2017-08-29T08:25:24Z</time>
      </trkpt>
      <trkpt lat="45.91565" lon="6.51412">
        <ele>2371</ele>
        <time>2017-08-29T08:25:25Z</time>
      </trkpt>
      <trkpt lat="45.91568" lon="6.51413">
        <ele>2370</ele>
        <time>2017-08-29T08:25:26Z</time>
      </trkpt>
      <trkpt lat="45.91568" lon="6.51413">
        <ele>2370</ele>
        <time>2017-08-29T08:25:27Z</time>
      </trkpt>
      <trkpt lat="45.91568" lon="6.51413">
        <ele>2370</ele>
        <time>2017-08-29T08:25:28Z</time>
      </trkpt>
      <trkpt lat="45.91568" lon="6.51413">
        <ele>2370</ele>
        <time>2017-08-29T08:25:29Z</time>
      </trkpt>
      <trkpt lat="45.91568" lon="6.51413">
        <ele>2370</ele>
        <time>2017-08-29T08:25:30Z</time>
      </trkpt>
      <trkpt lat="45.91569" lon="6.51411">
        <ele>2369</ele>
        <time>2017-08-29T08:25:31Z</time>
      </trkpt>
      <trkpt lat="45.91569" lon="6.51411">
        <ele>2369</ele>
        <time>2017-08-29T08:25:32Z</time>
      </trkpt>
      <trkpt lat="45.91569" lon="6.51411">
        <ele>2369</ele>
        <time>2017-08-29T08:25:33Z</time>
      </trkpt>
      <trkpt lat="45.91569" lon="6.51411">
        <ele>2367</ele>
        <time>2017-08-29T08:25:34Z</time>
      </trkpt>
      <trkpt lat="45.91571" lon="6.51412">
        <ele>2366</ele>
        <time>2017-08-29T08:25:35Z</time>
      </trkpt>
      <trkpt lat="45.91571" lon="6.51412">
        <ele>2366</ele>
        <time>2017-08-29T08:25:36Z</time>
      </trkpt>
      <trkpt lat="45.91571" lon="6.51412">
        <ele>2366</ele>
        <time>2017-08-29T08:25:37Z</time>
      </trkpt>
      <trkpt lat="45.91571" lon="6.51412">
        <ele>2367</ele>
        <time>2017-08-29T08:25:38Z</time>
      </trkpt>
      <trkpt lat="45.91572" lon="6.5141">
        <ele>2367</ele>
        <time>2017-08-29T08:25:39Z</time>
      </trkpt>
      <trkpt lat="45.91572" lon="6.5141">
        <ele>2368</ele>
        <time>2017-08-29T08:25:40Z</time>
      </trkpt>
      <trkpt lat="45.91572" lon="6.5141">
        <ele>2368</ele>
        <time>2017-08-29T08:25:41Z</time>
      </trkpt>
      <trkpt lat="45.91574" lon="6.51409">
        <ele>2368</ele>
        <time>2017-08-29T08:25:42Z</time>
      </trkpt>
      <trkpt lat="45.91574" lon="6.51409">
        <ele>2368</ele>
        <time>2017-08-29T08:25:43Z</time>
      </trkpt>
      <trkpt lat="45.91573" lon="6.51412">
        <ele>2368</ele>
        <time>2017-08-29T08:25:44Z</time>
      </trkpt>
      <trkpt lat="45.91572" lon="6.51414">
        <ele>2367</ele>
        <time>2017-08-29T08:25:45Z</time>
      </trkpt>
      <trkpt lat="45.91571" lon="6.51417">
        <ele>2367</ele>
        <time>2017-08-29T08:25:46Z</time>
      </trkpt>
      <trkpt lat="45.91569" lon="6.51419">
        <ele>2366</ele>
        <time>2017-08-29T08:25:47Z</time>
      </trkpt>
      <trkpt lat="45.91568" lon="6.51421">
        <ele>2366</ele>
        <time>2017-08-29T08:25:48Z</time>
      </trkpt>
      <trkpt lat="45.91566" lon="6.51423">
        <ele>2366</ele>
        <time>2017-08-29T08:25:49Z</time>
      </trkpt>
      <trkpt lat="45.91566" lon="6.51423">
        <ele>2366</ele>
        <time>2017-08-29T08:25:50Z</time>
      </trkpt>
      <trkpt lat="45.91565" lon="6.51427">
        <ele>2366</ele>
        <time>2017-08-29T08:25:51Z</time>
      </trkpt>
      <trkpt lat="45.91565" lon="6.51427">
        <ele>2367</ele>
        <time>2017-08-29T08:25:52Z</time>
      </trkpt>
      <trkpt lat="45.91564" lon="6.51432">
        <ele>2366</ele>
        <time>2017-08-29T08:25:53Z</time>
      </trkpt>
      <trkpt lat="45.91564" lon="6.51432">
        <ele>2365</ele>
        <time>2017-08-29T08:25:54Z</time>
      </trkpt>
      <trkpt lat="45.91565" lon="6.51437">
        <ele>2364</ele>
        <time>2017-08-29T08:25:55Z</time>
      </trkpt>
      <trkpt lat="45.91565" lon="6.51437">
        <ele>2363</ele>
        <time>2017-08-29T08:25:56Z</time>
      </trkpt>
      <trkpt lat="45.91564" lon="6.51442">
        <ele>2362</ele>
        <time>2017-08-29T08:25:57Z</time>
      </trkpt>
      <trkpt lat="45.91564" lon="6.51445">
        <ele>2362</ele>
        <time>2017-08-29T08:25:58Z</time>
      </trkpt>
      <trkpt lat="45.91565" lon="6.51448">
        <ele>2362</ele>
        <time>2017-08-29T08:25:59Z</time>
      </trkpt>
      <trkpt lat="45.91565" lon="6.51452">
        <ele>2361</ele>
        <time>2017-08-29T08:26:00Z</time>
      </trkpt>
      <trkpt lat="45.91566" lon="6.51455">
        <ele>2359</ele>
        <time>2017-08-29T08:26:01Z</time>
      </trkpt>
      <trkpt lat="45.91566" lon="6.51459">
        <ele>2359</ele>
        <time>2017-08-29T08:26:02Z</time>
      </trkpt>
      <trkpt lat="45.91567" lon="6.51463">
        <ele>2359</ele>
        <time>2017-08-29T08:26:03Z</time>
      </trkpt>
      <trkpt lat="45.91569" lon="6.51467">
        <ele>2359</ele>
        <time>2017-08-29T08:26:04Z</time>
      </trkpt>
      <trkpt lat="45.9157" lon="6.51471">
        <ele>2358</ele>
        <time>2017-08-29T08:26:05Z</time>
      </trkpt>
      <trkpt lat="45.91571" lon="6.51473">
        <ele>2358</ele>
        <time>2017-08-29T08:26:06Z</time>
      </trkpt>
      <trkpt lat="45.91573" lon="6.51476">
        <ele>2358</ele>
        <time>2017-08-29T08:26:07Z</time>
      </trkpt>
      <trkpt lat="45.91574" lon="6.51479">
        <ele>2357</ele>
        <time>2017-08-29T08:26:08Z</time>
      </trkpt>
      <trkpt lat="45.91576" lon="6.51483">
        <ele>2356</ele>
        <time>2017-08-29T08:26:09Z</time>
      </trkpt>
      <trkpt lat="45.91577" lon="6.51485">
        <ele>2356</ele>
        <time>2017-08-29T08:26:10Z</time>
      </trkpt>
      <trkpt lat="45.91578" lon="6.51488">
        <ele>2356</ele>
        <time>2017-08-29T08:26:11Z</time>
      </trkpt>
      <trkpt lat="45.91579" lon="6.51491">
        <ele>2355</ele>
        <time>2017-08-29T08:26:12Z</time>
      </trkpt>
      <trkpt lat="45.9158" lon="6.51494">
        <ele>2355</ele>
        <time>2017-08-29T08:26:13Z</time>
      </trkpt>
      <trkpt lat="45.91581" lon="6.51497">
        <ele>2356</ele>
        <time>2017-08-29T08:26:14Z</time>
      </trkpt>
      <trkpt lat="45.91582" lon="6.515">
        <ele>2356</ele>
        <time>2017-08-29T08:26:15Z</time>
      </trkpt>
      <trkpt lat="45.91582" lon="6.51503">
        <ele>2356</ele>
        <time>2017-08-29T08:26:16Z</time>
      </trkpt>
      <trkpt lat="45.91582" lon="6.51503">
        <ele>2356</ele>
        <time>2017-08-29T08:26:17Z</time>
      </trkpt>
      <trkpt lat="45.91583" lon="6.51507">
        <ele>2355</ele>
        <time>2017-08-29T08:26:18Z</time>
      </trkpt>
      <trkpt lat="45.91583" lon="6.51507">
        <ele>2354</ele>
        <time>2017-08-29T08:26:19Z</time>
      </trkpt>
      <trkpt lat="45.91582" lon="6.5151">
        <ele>2353</ele>
        <time>2017-08-29T08:26:20Z</time>
      </trkpt>
      <trkpt lat="45.91582" lon="6.5151">
        <ele>2352</ele>
        <time>2017-08-29T08:26:21Z</time>
      </trkpt>
      <trkpt lat="45.91581" lon="6.51514">
        <ele>2353</ele>
        <time>2017-08-29T08:26:22Z</time>
      </trkpt>
      <trkpt lat="45.9158" lon="6.51517">
        <ele>2353</ele>
        <time>2017-08-29T08:26:23Z</time>
      </trkpt>
      <trkpt lat="45.9158" lon="6.5152">
        <ele>2352</ele>
        <time>2017-08-29T08:26:24Z</time>
      </trkpt>
      <trkpt lat="45.9158" lon="6.51523">
        <ele>2351</ele>
        <time>2017-08-29T08:26:25Z</time>
      </trkpt>
      <trkpt lat="45.9158" lon="6.51526">
        <ele>2350</ele>
        <time>2017-08-29T08:26:26Z</time>
      </trkpt>
      <trkpt lat="45.91581" lon="6.51529">
        <ele>2350</ele>
        <time>2017-08-29T08:26:27Z</time>
      </trkpt>
      <trkpt lat="45.91581" lon="6.51532">
        <ele>2350</ele>
        <time>2017-08-29T08:26:28Z</time>
      </trkpt>
      <trkpt lat="45.91581" lon="6.51532">
        <ele>2350</ele>
        <time>2017-08-29T08:26:29Z</time>
      </trkpt>
      <trkpt lat="45.91581" lon="6.51536">
        <ele>2349</ele>
        <time>2017-08-29T08:26:30Z</time>
      </trkpt>
      <trkpt lat="45.91581" lon="6.51536">
        <ele>2349</ele>
        <time>2017-08-29T08:26:31Z</time>
      </trkpt>
      <trkpt lat="45.91581" lon="6.5154">
        <ele>2348</ele>
        <time>2017-08-29T08:26:32Z</time>
      </trkpt>
      <trkpt lat="45.91582" lon="6.51542">
        <ele>2347</ele>
        <time>2017-08-29T08:26:33Z</time>
      </trkpt>
      <trkpt lat="45.91583" lon="6.51545">
        <ele>2347</ele>
        <time>2017-08-29T08:26:34Z</time>
      </trkpt>
      <trkpt lat="45.91584" lon="6.51548">
        <ele>2346</ele>
        <time>2017-08-29T08:26:35Z</time>
      </trkpt>
      <trkpt lat="45.91584" lon="6.51548">
        <ele>2347</ele>
        <time>2017-08-29T08:26:36Z</time>
      </trkpt>
      <trkpt lat="45.91584" lon="6.51548">
        <ele>2347</ele>
        <time>2017-08-29T08:26:37Z</time>
      </trkpt>
      <trkpt lat="45.91584" lon="6.51548">
        <ele>2346</ele>
        <time>2017-08-29T08:26:38Z</time>
      </trkpt>
      <trkpt lat="45.91584" lon="6.51548">
        <ele>2346</ele>
        <time>2017-08-29T08:26:39Z</time>
      </trkpt>
      <trkpt lat="45.91585" lon="6.51548">
        <ele>2346</ele>
        <time>2017-08-29T08:26:40Z</time>
      </trkpt>
      <trkpt lat="45.91585" lon="6.51548">
        <ele>2346</ele>
        <time>2017-08-29T08:26:41Z</time>
      </trkpt>
      <trkpt lat="45.91585" lon="6.51548">
        <ele>2346</ele>
        <time>2017-08-29T08:26:42Z</time>
      </trkpt>
      <trkpt lat="45.91585" lon="6.51548">
        <ele>2346</ele>
        <time>2017-08-29T08:26:43Z</time>
      </trkpt>
      <trkpt lat="45.91585" lon="6.51548">
        <ele>2346</ele>
        <time>2017-08-29T08:26:44Z</time>
      </trkpt>
      <trkpt lat="45.91585" lon="6.51548">
        <ele>2346</ele>
        <time>2017-08-29T08:26:45Z</time>
      </trkpt>
      <trkpt lat="45.91585" lon="6.51548">
        <ele>2346</ele>
        <time>2017-08-29T08:26:46Z</time>
      </trkpt>
      <trkpt lat="45.91585" lon="6.51548">
        <ele>2347</ele>
        <time>2017-08-29T08:26:47Z</time>
      </trkpt>
      <trkpt lat="45.91585" lon="6.51548">
        <ele>2347</ele>
        <time>2017-08-29T08:26:48Z</time>
      </trkpt>
      <trkpt lat="45.91585" lon="6.51548">
        <ele>2347</ele>
        <time>2017-08-29T08:26:49Z</time>
      </trkpt>
      <trkpt lat="45.91585" lon="6.51548">
        <ele>2347</ele>
        <time>2017-08-29T08:26:50Z</time>
      </trkpt>
      <trkpt lat="45.91585" lon="6.51548">
        <ele>2347</ele>
        <time>2017-08-29T08:26:51Z</time>
      </trkpt>
      <trkpt lat="45.91585" lon="6.51548">
        <ele>2347</ele>
        <time>2017-08-29T08:26:52Z</time>
      </trkpt>
      <trkpt lat="45.91586" lon="6.51551">
        <ele>2347</ele>
        <time>2017-08-29T08:26:53Z</time>
      </trkpt>
      <trkpt lat="45.91586" lon="6.51551">
        <ele>2347</ele>
        <time>2017-08-29T08:26:54Z</time>
      </trkpt>
      <trkpt lat="45.91586" lon="6.51551">
        <ele>2347</ele>
        <time>2017-08-29T08:26:55Z</time>
      </trkpt>
      <trkpt lat="45.91586" lon="6.51553">
        <ele>2347</ele>
        <time>2017-08-29T08:26:56Z</time>
      </trkpt>
      <trkpt lat="45.91586" lon="6.51553">
        <ele>2347</ele>
        <time>2017-08-29T08:26:57Z</time>
      </trkpt>
      <trkpt lat="45.91586" lon="6.51553">
        <ele>2348</ele>
        <time>2017-08-29T08:26:58Z</time>
      </trkpt>
      <trkpt lat="45.91587" lon="6.51556">
        <ele>2348</ele>
        <time>2017-08-29T08:26:59Z</time>
      </trkpt>
      <trkpt lat="45.91587" lon="6.51556">
        <ele>2348</ele>
        <time>2017-08-29T08:27:00Z</time>
      </trkpt>
      <trkpt lat="45.91587" lon="6.51556">
        <ele>2348</ele>
        <time>2017-08-29T08:27:01Z</time>
      </trkpt>
      <trkpt lat="45.9159" lon="6.51556">
        <ele>2348</ele>
        <time>2017-08-29T08:27:02Z</time>
      </trkpt>
      <trkpt lat="45.9159" lon="6.51556">
        <ele>2348</ele>
        <time>2017-08-29T08:27:03Z</time>
      </trkpt>
      <trkpt lat="45.91591" lon="6.51557">
        <ele>2349</ele>
        <time>2017-08-29T08:27:04Z</time>
      </trkpt>
      <trkpt lat="45.91591" lon="6.51557">
        <ele>2349</ele>
        <time>2017-08-29T08:27:05Z</time>
      </trkpt>
      <trkpt lat="45.91594" lon="6.51561">
        <ele>2349</ele>
        <time>2017-08-29T08:27:06Z</time>
      </trkpt>
      <trkpt lat="45.91595" lon="6.51563">
        <ele>2349</ele>
        <time>2017-08-29T08:27:07Z</time>
      </trkpt>
      <trkpt lat="45.91597" lon="6.51566">
        <ele>2349</ele>
        <time>2017-08-29T08:27:08Z</time>
      </trkpt>
      <trkpt lat="45.91599" lon="6.51568">
        <ele>2349</ele>
        <time>2017-08-29T08:27:09Z</time>
      </trkpt>
      <trkpt lat="45.91601" lon="6.5157">
        <ele>2348</ele>
        <time>2017-08-29T08:27:10Z</time>
      </trkpt>
      <trkpt lat="45.91603" lon="6.51571">
        <ele>2347</ele>
        <time>2017-08-29T08:27:11Z</time>
      </trkpt>
      <trkpt lat="45.91606" lon="6.51572">
        <ele>2348</ele>
        <time>2017-08-29T08:27:12Z</time>
      </trkpt>
      <trkpt lat="45.91608" lon="6.51572">
        <ele>2348</ele>
        <time>2017-08-29T08:27:13Z</time>
      </trkpt>
      <trkpt lat="45.91611" lon="6.51572">
        <ele>2348</ele>
        <time>2017-08-29T08:27:14Z</time>
      </trkpt>
      <trkpt lat="45.91613" lon="6.51573">
        <ele>2348</ele>
        <time>2017-08-29T08:27:15Z</time>
      </trkpt>
      <trkpt lat="45.91616" lon="6.51574">
        <ele>2347</ele>
        <time>2017-08-29T08:27:16Z</time>
      </trkpt>
      <trkpt lat="45.91618" lon="6.51575">
        <ele>2347</ele>
        <time>2017-08-29T08:27:17Z</time>
      </trkpt>
      <trkpt lat="45.91621" lon="6.51576">
        <ele>2346</ele>
        <time>2017-08-29T08:27:18Z</time>
      </trkpt>
      <trkpt lat="45.91623" lon="6.51577">
        <ele>2345</ele>
        <time>2017-08-29T08:27:19Z</time>
      </trkpt>
      <trkpt lat="45.91625" lon="6.51577">
        <ele>2345</ele>
        <time>2017-08-29T08:27:20Z</time>
      </trkpt>
      <trkpt lat="45.91627" lon="6.51578">
        <ele>2344</ele>
        <time>2017-08-29T08:27:21Z</time>
      </trkpt>
      <trkpt lat="45.9163" lon="6.51579">
        <ele>2344</ele>
        <time>2017-08-29T08:27:22Z</time>
      </trkpt>
      <trkpt lat="45.91632" lon="6.51582">
        <ele>2343</ele>
        <time>2017-08-29T08:27:23Z</time>
      </trkpt>
      <trkpt lat="45.91634" lon="6.51585">
        <ele>2343</ele>
        <time>2017-08-29T08:27:24Z</time>
      </trkpt>
      <trkpt lat="45.91636" lon="6.51587">
        <ele>2343</ele>
        <time>2017-08-29T08:27:25Z</time>
      </trkpt>
      <trkpt lat="45.91639" lon="6.5159">
        <ele>2343</ele>
        <time>2017-08-29T08:27:26Z</time>
      </trkpt>
      <trkpt lat="45.91641" lon="6.51593">
        <ele>2342</ele>
        <time>2017-08-29T08:27:27Z</time>
      </trkpt>
      <trkpt lat="45.91643" lon="6.51596">
        <ele>2341</ele>
        <time>2017-08-29T08:27:28Z</time>
      </trkpt>
      <trkpt lat="45.91645" lon="6.51599">
        <ele>2342</ele>
        <time>2017-08-29T08:27:29Z</time>
      </trkpt>
      <trkpt lat="45.91647" lon="6.51602">
        <ele>2342</ele>
        <time>2017-08-29T08:27:30Z</time>
      </trkpt>
      <trkpt lat="45.91649" lon="6.51604">
        <ele>2341</ele>
        <time>2017-08-29T08:27:31Z</time>
      </trkpt>
      <trkpt lat="45.91651" lon="6.51606">
        <ele>2341</ele>
        <time>2017-08-29T08:27:32Z</time>
      </trkpt>
      <trkpt lat="45.91653" lon="6.51607">
        <ele>2340</ele>
        <time>2017-08-29T08:27:33Z</time>
      </trkpt>
      <trkpt lat="45.91656" lon="6.5161">
        <ele>2340</ele>
        <time>2017-08-29T08:27:34Z</time>
      </trkpt>
      <trkpt lat="45.91658" lon="6.51611">
        <ele>2340</ele>
        <time>2017-08-29T08:27:35Z</time>
      </trkpt>
      <trkpt lat="45.9166" lon="6.51612">
        <ele>2341</ele>
        <time>2017-08-29T08:27:36Z</time>
      </trkpt>
      <trkpt lat="45.91662" lon="6.51614">
        <ele>2341</ele>
        <time>2017-08-29T08:27:37Z</time>
      </trkpt>
      <trkpt lat="45.91664" lon="6.51616">
        <ele>2341</ele>
        <time>2017-08-29T08:27:38Z</time>
      </trkpt>
      <trkpt lat="45.91666" lon="6.51618">
        <ele>2341</ele>
        <time>2017-08-29T08:27:39Z</time>
      </trkpt>
      <trkpt lat="45.91668" lon="6.5162">
        <ele>2341</ele>
        <time>2017-08-29T08:27:40Z</time>
      </trkpt>
      <trkpt lat="45.91669" lon="6.51622">
        <ele>2340</ele>
        <time>2017-08-29T08:27:41Z</time>
      </trkpt>
      <trkpt lat="45.91671" lon="6.51624">
        <ele>2341</ele>
        <time>2017-08-29T08:27:42Z</time>
      </trkpt>
      <trkpt lat="45.91672" lon="6.51626">
        <ele>2341</ele>
        <time>2017-08-29T08:27:43Z</time>
      </trkpt>
      <trkpt lat="45.91672" lon="6.51626">
        <ele>2340</ele>
        <time>2017-08-29T08:27:44Z</time>
      </trkpt>
      <trkpt lat="45.91675" lon="6.51629">
        <ele>2340</ele>
        <time>2017-08-29T08:27:45Z</time>
      </trkpt>
      <trkpt lat="45.91675" lon="6.51629">
        <ele>2340</ele>
        <time>2017-08-29T08:27:46Z</time>
      </trkpt>
      <trkpt lat="45.91679" lon="6.51631">
        <ele>2341</ele>
        <time>2017-08-29T08:27:47Z</time>
      </trkpt>
      <trkpt lat="45.9168" lon="6.51632">
        <ele>2341</ele>
        <time>2017-08-29T08:27:48Z</time>
      </trkpt>
      <trkpt lat="45.91682" lon="6.51633">
        <ele>2341</ele>
        <time>2017-08-29T08:27:49Z</time>
      </trkpt>
      <trkpt lat="45.91682" lon="6.51633">
        <ele>2342</ele>
        <time>2017-08-29T08:27:50Z</time>
      </trkpt>
      <trkpt lat="45.91685" lon="6.51635">
        <ele>2342</ele>
        <time>2017-08-29T08:27:51Z</time>
      </trkpt>
      <trkpt lat="45.91685" lon="6.51635">
        <ele>2343</ele>
        <time>2017-08-29T08:27:52Z</time>
      </trkpt>
      <trkpt lat="45.91688" lon="6.51637">
        <ele>2343</ele>
        <time>2017-08-29T08:27:53Z</time>
      </trkpt>
      <trkpt lat="45.9169" lon="6.51638">
        <ele>2343</ele>
        <time>2017-08-29T08:27:54Z</time>
      </trkpt>
      <trkpt lat="45.91692" lon="6.5164">
        <ele>2343</ele>
        <time>2017-08-29T08:27:55Z</time>
      </trkpt>
      <trkpt lat="45.91693" lon="6.51642">
        <ele>2343</ele>
        <time>2017-08-29T08:27:56Z</time>
      </trkpt>
      <trkpt lat="45.91695" lon="6.51643">
        <ele>2343</ele>
        <time>2017-08-29T08:27:57Z</time>
      </trkpt>
      <trkpt lat="45.91696" lon="6.51646">
        <ele>2342</ele>
        <time>2017-08-29T08:27:58Z</time>
      </trkpt>
      <trkpt lat="45.91697" lon="6.51648">
        <ele>2341</ele>
        <time>2017-08-29T08:27:59Z</time>
      </trkpt>
      <trkpt lat="45.91699" lon="6.51649">
        <ele>2342</ele>
        <time>2017-08-29T08:28:00Z</time>
      </trkpt>
      <trkpt lat="45.91701" lon="6.5165">
        <ele>2342</ele>
        <time>2017-08-29T08:28:01Z</time>
      </trkpt>
      <trkpt lat="45.91703" lon="6.51651">
        <ele>2342</ele>
        <time>2017-08-29T08:28:02Z</time>
      </trkpt>
      <trkpt lat="45.91705" lon="6.51653">
        <ele>2342</ele>
        <time>2017-08-29T08:28:03Z</time>
      </trkpt>
      <trkpt lat="45.91707" lon="6.51654">
        <ele>2342</ele>
        <time>2017-08-29T08:28:04Z</time>
      </trkpt>
      <trkpt lat="45.91709" lon="6.51654">
        <ele>2341</ele>
        <time>2017-08-29T08:28:05Z</time>
      </trkpt>
      <trkpt lat="45.91711" lon="6.51655">
        <ele>2341</ele>
        <time>2017-08-29T08:28:06Z</time>
      </trkpt>
      <trkpt lat="45.91712" lon="6.51656">
        <ele>2341</ele>
        <time>2017-08-29T08:28:07Z</time>
      </trkpt>
      <trkpt lat="45.91714" lon="6.51657">
        <ele>2341</ele>
        <time>2017-08-29T08:28:08Z</time>
      </trkpt>
      <trkpt lat="45.91716" lon="6.51658">
        <ele>2341</ele>
        <time>2017-08-29T08:28:09Z</time>
      </trkpt>
      <trkpt lat="45.91718" lon="6.51657">
        <ele>2342</ele>
        <time>2017-08-29T08:28:10Z</time>
      </trkpt>
      <trkpt lat="45.91718" lon="6.51657">
        <ele>2342</ele>
        <time>2017-08-29T08:28:11Z</time>
      </trkpt>
      <trkpt lat="45.91721" lon="6.51657">
        <ele>2342</ele>
        <time>2017-08-29T08:28:12Z</time>
      </trkpt>
      <trkpt lat="45.91721" lon="6.51657">
        <ele>2342</ele>
        <time>2017-08-29T08:28:13Z</time>
      </trkpt>
      <trkpt lat="45.91724" lon="6.51656">
        <ele>2343</ele>
        <time>2017-08-29T08:28:14Z</time>
      </trkpt>
      <trkpt lat="45.91724" lon="6.51656">
        <ele>2343</ele>
        <time>2017-08-29T08:28:15Z</time>
      </trkpt>
      <trkpt lat="45.91726" lon="6.51657">
        <ele>2343</ele>
        <time>2017-08-29T08:28:16Z</time>
      </trkpt>
      <trkpt lat="45.91726" lon="6.51657">
        <ele>2343</ele>
        <time>2017-08-29T08:28:17Z</time>
      </trkpt>
      <trkpt lat="45.91728" lon="6.51657">
        <ele>2345</ele>
        <time>2017-08-29T08:28:18Z</time>
      </trkpt>
      <trkpt lat="45.91728" lon="6.51657">
        <ele>2345</ele>
        <time>2017-08-29T08:28:19Z</time>
      </trkpt>
      <trkpt lat="45.91731" lon="6.51658">
        <ele>2345</ele>
        <time>2017-08-29T08:28:20Z</time>
      </trkpt>
      <trkpt lat="45.91731" lon="6.51658">
        <ele>2345</ele>
        <time>2017-08-29T08:28:21Z</time>
      </trkpt>
      <trkpt lat="45.91734" lon="6.5166">
        <ele>2345</ele>
        <time>2017-08-29T08:28:22Z</time>
      </trkpt>
      <trkpt lat="45.91734" lon="6.5166">
        <ele>2345</ele>
        <time>2017-08-29T08:28:23Z</time>
      </trkpt>
      <trkpt lat="45.91737" lon="6.51663">
        <ele>2345</ele>
        <time>2017-08-29T08:28:24Z</time>
      </trkpt>
      <trkpt lat="45.91737" lon="6.51663">
        <ele>2345</ele>
        <time>2017-08-29T08:28:25Z</time>
      </trkpt>
      <trkpt lat="45.9174" lon="6.51665">
        <ele>2346</ele>
        <time>2017-08-29T08:28:26Z</time>
      </trkpt>
      <trkpt lat="45.9174" lon="6.51665">
        <ele>2346</ele>
        <time>2017-08-29T08:28:27Z</time>
      </trkpt>
      <trkpt lat="45.91742" lon="6.51668">
        <ele>2346</ele>
        <time>2017-08-29T08:28:28Z</time>
      </trkpt>
      <trkpt lat="45.91742" lon="6.51668">
        <ele>2346</ele>
        <time>2017-08-29T08:28:29Z</time>
      </trkpt>
      <trkpt lat="45.91744" lon="6.5167">
        <ele>2346</ele>
        <time>2017-08-29T08:28:30Z</time>
      </trkpt>
      <trkpt lat="45.91744" lon="6.5167">
        <ele>2346</ele>
        <time>2017-08-29T08:28:31Z</time>
      </trkpt>
      <trkpt lat="45.91746" lon="6.51673">
        <ele>2346</ele>
        <time>2017-08-29T08:28:32Z</time>
      </trkpt>
      <trkpt lat="45.91746" lon="6.51673">
        <ele>2346</ele>
        <time>2017-08-29T08:28:33Z</time>
      </trkpt>
      <trkpt lat="45.91748" lon="6.51674">
        <ele>2346</ele>
        <time>2017-08-29T08:28:34Z</time>
      </trkpt>
      <trkpt lat="45.91748" lon="6.51674">
        <ele>2347</ele>
        <time>2017-08-29T08:28:35Z</time>
      </trkpt>
      <trkpt lat="45.9175" lon="6.51675">
        <ele>2347</ele>
        <time>2017-08-29T08:28:36Z</time>
      </trkpt>
      <trkpt lat="45.9175" lon="6.51675">
        <ele>2348</ele>
        <time>2017-08-29T08:28:37Z</time>
      </trkpt>
      <trkpt lat="45.91753" lon="6.51676">
        <ele>2348</ele>
        <time>2017-08-29T08:28:38Z</time>
      </trkpt>
      <trkpt lat="45.91753" lon="6.51676">
        <ele>2348</ele>
        <time>2017-08-29T08:28:39Z</time>
      </trkpt>
      <trkpt lat="45.91756" lon="6.51679">
        <ele>2348</ele>
        <time>2017-08-29T08:28:40Z</time>
      </trkpt>
      <trkpt lat="45.91756" lon="6.51679">
        <ele>2348</ele>
        <time>2017-08-29T08:28:41Z</time>
      </trkpt>
      <trkpt lat="45.91759" lon="6.51681">
        <ele>2348</ele>
        <time>2017-08-29T08:28:42Z</time>
      </trkpt>
      <trkpt lat="45.91759" lon="6.51681">
        <ele>2348</ele>
        <time>2017-08-29T08:28:43Z</time>
      </trkpt>
      <trkpt lat="45.91761" lon="6.51683">
        <ele>2348</ele>
        <time>2017-08-29T08:28:44Z</time>
      </trkpt>
      <trkpt lat="45.91761" lon="6.51683">
        <ele>2348</ele>
        <time>2017-08-29T08:28:45Z</time>
      </trkpt>
      <trkpt lat="45.91762" lon="6.51685">
        <ele>2348</ele>
        <time>2017-08-29T08:28:46Z</time>
      </trkpt>
      <trkpt lat="45.91762" lon="6.51685">
        <ele>2348</ele>
        <time>2017-08-29T08:28:47Z</time>
      </trkpt>
      <trkpt lat="45.91764" lon="6.51686">
        <ele>2349</ele>
        <time>2017-08-29T08:28:48Z</time>
      </trkpt>
      <trkpt lat="45.91764" lon="6.51686">
        <ele>2349</ele>
        <time>2017-08-29T08:28:49Z</time>
      </trkpt>
      <trkpt lat="45.91767" lon="6.51687">
        <ele>2349</ele>
        <time>2017-08-29T08:28:50Z</time>
      </trkpt>
      <trkpt lat="45.91767" lon="6.51687">
        <ele>2349</ele>
        <time>2017-08-29T08:28:51Z</time>
      </trkpt>
      <trkpt lat="45.91769" lon="6.51688">
        <ele>2350</ele>
        <time>2017-08-29T08:28:52Z</time>
      </trkpt>
      <trkpt lat="45.91769" lon="6.51688">
        <ele>2350</ele>
        <time>2017-08-29T08:28:53Z</time>
      </trkpt>
      <trkpt lat="45.91771" lon="6.5169">
        <ele>2350</ele>
        <time>2017-08-29T08:28:54Z</time>
      </trkpt>
      <trkpt lat="45.91771" lon="6.5169">
        <ele>2350</ele>
        <time>2017-08-29T08:28:55Z</time>
      </trkpt>
      <trkpt lat="45.91773" lon="6.5169">
        <ele>2349</ele>
        <time>2017-08-29T08:28:56Z</time>
      </trkpt>
      <trkpt lat="45.91773" lon="6.5169">
        <ele>2349</ele>
        <time>2017-08-29T08:28:57Z</time>
      </trkpt>
      <trkpt lat="45.91775" lon="6.5169">
        <ele>2349</ele>
        <time>2017-08-29T08:28:58Z</time>
      </trkpt>
      <trkpt lat="45.91775" lon="6.5169">
        <ele>2349</ele>
        <time>2017-08-29T08:28:59Z</time>
      </trkpt>
      <trkpt lat="45.91777" lon="6.51691">
        <ele>2349</ele>
        <time>2017-08-29T08:29:00Z</time>
      </trkpt>
      <trkpt lat="45.91777" lon="6.51691">
        <ele>2349</ele>
        <time>2017-08-29T08:29:01Z</time>
      </trkpt>
      <trkpt lat="45.91779" lon="6.51692">
        <ele>2349</ele>
        <time>2017-08-29T08:29:02Z</time>
      </trkpt>
      <trkpt lat="45.91779" lon="6.51692">
        <ele>2348</ele>
        <time>2017-08-29T08:29:03Z</time>
      </trkpt>
      <trkpt lat="45.91781" lon="6.51694">
        <ele>2347</ele>
        <time>2017-08-29T08:29:04Z</time>
      </trkpt>
      <trkpt lat="45.91781" lon="6.51694">
        <ele>2347</ele>
        <time>2017-08-29T08:29:05Z</time>
      </trkpt>
      <trkpt lat="45.91783" lon="6.51696">
        <ele>2347</ele>
        <time>2017-08-29T08:29:06Z</time>
      </trkpt>
      <trkpt lat="45.91783" lon="6.51696">
        <ele>2347</ele>
        <time>2017-08-29T08:29:07Z</time>
      </trkpt>
      <trkpt lat="45.91784" lon="6.517">
        <ele>2347</ele>
        <time>2017-08-29T08:29:08Z</time>
      </trkpt>
      <trkpt lat="45.91784" lon="6.517">
        <ele>2347</ele>
        <time>2017-08-29T08:29:09Z</time>
      </trkpt>
      <trkpt lat="45.91786" lon="6.51704">
        <ele>2347</ele>
        <time>2017-08-29T08:29:10Z</time>
      </trkpt>
      <trkpt lat="45.91786" lon="6.51704">
        <ele>2347</ele>
        <time>2017-08-29T08:29:11Z</time>
      </trkpt>
      <trkpt lat="45.91789" lon="6.51705">
        <ele>2346</ele>
        <time>2017-08-29T08:29:12Z</time>
      </trkpt>
      <trkpt lat="45.91789" lon="6.51705">
        <ele>2346</ele>
        <time>2017-08-29T08:29:13Z</time>
      </trkpt>
      <trkpt lat="45.91791" lon="6.51705">
        <ele>2346</ele>
        <time>2017-08-29T08:29:14Z</time>
      </trkpt>
      <trkpt lat="45.91791" lon="6.51705">
        <ele>2345</ele>
        <time>2017-08-29T08:29:15Z</time>
      </trkpt>
      <trkpt lat="45.91791" lon="6.51705">
        <ele>2345</ele>
        <time>2017-08-29T08:29:16Z</time>
      </trkpt>
      <trkpt lat="45.91791" lon="6.51705">
        <ele>2345</ele>
        <time>2017-08-29T08:29:17Z</time>
      </trkpt>
      <trkpt lat="45.91791" lon="6.51705">
        <ele>2345</ele>
        <time>2017-08-29T08:29:18Z</time>
      </trkpt>
      <trkpt lat="45.91791" lon="6.51705">
        <ele>2345</ele>
        <time>2017-08-29T08:29:19Z</time>
      </trkpt>
      <trkpt lat="45.91791" lon="6.51705">
        <ele>2345</ele>
        <time>2017-08-29T08:29:20Z</time>
      </trkpt>
      <trkpt lat="45.91791" lon="6.51705">
        <ele>2345</ele>
        <time>2017-08-29T08:29:21Z</time>
      </trkpt>
      <trkpt lat="45.91791" lon="6.51705">
        <ele>2345</ele>
        <time>2017-08-29T08:29:22Z</time>
      </trkpt>
      <trkpt lat="45.91791" lon="6.51705">
        <ele>2345</ele>
        <time>2017-08-29T08:29:23Z</time>
      </trkpt>
      <trkpt lat="45.91791" lon="6.51705">
        <ele>2345</ele>
        <time>2017-08-29T08:29:24Z</time>
      </trkpt>
      <trkpt lat="45.91791" lon="6.51705">
        <ele>2345</ele>
        <time>2017-08-29T08:29:25Z</time>
      </trkpt>
      <trkpt lat="45.91791" lon="6.51705">
        <ele>2345</ele>
        <time>2017-08-29T08:29:26Z</time>
      </trkpt>
      <trkpt lat="45.91791" lon="6.51705">
        <ele>2345</ele>
        <time>2017-08-29T08:29:27Z</time>
      </trkpt>
      <trkpt lat="45.91791" lon="6.51705">
        <ele>2345</ele>
        <time>2017-08-29T08:29:28Z</time>
      </trkpt>
      <trkpt lat="45.91791" lon="6.51705">
        <ele>2345</ele>
        <time>2017-08-29T08:29:29Z</time>
      </trkpt>
      <trkpt lat="45.91791" lon="6.51705">
        <ele>2345</ele>
        <time>2017-08-29T08:29:30Z</time>
      </trkpt>
      <trkpt lat="45.91791" lon="6.51705">
        <ele>2345</ele>
        <time>2017-08-29T08:29:31Z</time>
      </trkpt>
      <trkpt lat="45.91791" lon="6.51705">
        <ele>2345</ele>
        <time>2017-08-29T08:29:32Z</time>
      </trkpt>
      <trkpt lat="45.91791" lon="6.51705">
        <ele>2345</ele>
        <time>2017-08-29T08:29:33Z</time>
      </trkpt>
      <trkpt lat="45.91791" lon="6.51705">
        <ele>2345</ele>
        <time>2017-08-29T08:29:34Z</time>
      </trkpt>
      <trkpt lat="45.91791" lon="6.51705">
        <ele>2345</ele>
        <time>2017-08-29T08:29:35Z</time>
      </trkpt>
      <trkpt lat="45.91791" lon="6.51705">
        <ele>2346</ele>
        <time>2017-08-29T08:29:36Z</time>
      </trkpt>
      <trkpt lat="45.91791" lon="6.51705">
        <ele>2346</ele>
        <time>2017-08-29T08:29:37Z</time>
      </trkpt>
      <trkpt lat="45.91791" lon="6.51705">
        <ele>2346</ele>
        <time>2017-08-29T08:29:38Z</time>
      </trkpt>
      <trkpt lat="45.91791" lon="6.51705">
        <ele>2346</ele>
        <time>2017-08-29T08:29:39Z</time>
      </trkpt>
      <trkpt lat="45.91791" lon="6.51705">
        <ele>2346</ele>
        <time>2017-08-29T08:29:40Z</time>
      </trkpt>
      <trkpt lat="45.91791" lon="6.51705">
        <ele>2346</ele>
        <time>2017-08-29T08:29:41Z</time>
      </trkpt>
      <trkpt lat="45.91791" lon="6.51705">
        <ele>2346</ele>
        <time>2017-08-29T08:29:42Z</time>
      </trkpt>
      <trkpt lat="45.91791" lon="6.51705">
        <ele>2346</ele>
        <time>2017-08-29T08:29:43Z</time>
      </trkpt>
      <trkpt lat="45.91791" lon="6.51705">
        <ele>2346</ele>
        <time>2017-08-29T08:29:44Z</time>
      </trkpt>
      <trkpt lat="45.91791" lon="6.51705">
        <ele>2346</ele>
        <time>2017-08-29T08:29:45Z</time>
      </trkpt>
      <trkpt lat="45.91791" lon="6.51705">
        <ele>2346</ele>
        <time>2017-08-29T08:29:46Z</time>
      </trkpt>
      <trkpt lat="45.91791" lon="6.51705">
        <ele>2346</ele>
        <time>2017-08-29T08:29:47Z</time>
      </trkpt>
      <trkpt lat="45.91791" lon="6.51705">
        <ele>2346</ele>
        <time>2017-08-29T08:29:48Z</time>
      </trkpt>
      <trkpt lat="45.91791" lon="6.51705">
        <ele>2346</ele>
        <time>2017-08-29T08:29:49Z</time>
      </trkpt>
      <trkpt lat="45.91791" lon="6.51705">
        <ele>2346</ele>
        <time>2017-08-29T08:29:50Z</time>
      </trkpt>
      <trkpt lat="45.91791" lon="6.51705">
        <ele>2346</ele>
        <time>2017-08-29T08:29:51Z</time>
      </trkpt>
      <trkpt lat="45.91791" lon="6.51705">
        <ele>2346</ele>
        <time>2017-08-29T08:29:52Z</time>
      </trkpt>
      <trkpt lat="45.91791" lon="6.51705">
        <ele>2346</ele>
        <time>2017-08-29T08:29:53Z</time>
      </trkpt>
      <trkpt lat="45.91791" lon="6.51705">
        <ele>2346</ele>
        <time>2017-08-29T08:29:54Z</time>
      </trkpt>
      <trkpt lat="45.91791" lon="6.51705">
        <ele>2346</ele>
        <time>2017-08-29T08:29:55Z</time>
      </trkpt>
      <trkpt lat="45.91791" lon="6.51705">
        <ele>2346</ele>
        <time>2017-08-29T08:29:56Z</time>
      </trkpt>
      <trkpt lat="45.91791" lon="6.51705">
        <ele>2346</ele>
        <time>2017-08-29T08:29:57Z</time>
      </trkpt>
      <trkpt lat="45.91791" lon="6.51705">
        <ele>2346</ele>
        <time>2017-08-29T08:29:58Z</time>
      </trkpt>
      <trkpt lat="45.91791" lon="6.51705">
        <ele>2346</ele>
        <time>2017-08-29T08:29:59Z</time>
      </trkpt>
      <trkpt lat="45.91791" lon="6.51705">
        <ele>2346</ele>
        <time>2017-08-29T08:30:00Z</time>
      </trkpt>
      <trkpt lat="45.91791" lon="6.51705">
        <ele>2345</ele>
        <time>2017-08-29T08:30:01Z</time>
      </trkpt>
      <trkpt lat="45.91791" lon="6.51708">
        <ele>2345</ele>
        <time>2017-08-29T08:30:02Z</time>
      </trkpt>
      <trkpt lat="45.91791" lon="6.51708">
        <ele>2345</ele>
        <time>2017-08-29T08:30:03Z</time>
      </trkpt>
      <trkpt lat="45.91791" lon="6.51711">
        <ele>2345</ele>
        <time>2017-08-29T08:30:04Z</time>
      </trkpt>
      <trkpt lat="45.91791" lon="6.51711">
        <ele>2345</ele>
        <time>2017-08-29T08:30:05Z</time>
      </trkpt>
      <trkpt lat="45.91793" lon="6.51714">
        <ele>2345</ele>
        <time>2017-08-29T08:30:06Z</time>
      </trkpt>
      <trkpt lat="45.91793" lon="6.51714">
        <ele>2345</ele>
        <time>2017-08-29T08:30:07Z</time>
      </trkpt>
      <trkpt lat="45.91795" lon="6.51717">
        <ele>2344</ele>
        <time>2017-08-29T08:30:08Z</time>
      </trkpt>
      <trkpt lat="45.91795" lon="6.51717">
        <ele>2344</ele>
        <time>2017-08-29T08:30:09Z</time>
      </trkpt>
      <trkpt lat="45.91796" lon="6.51721">
        <ele>2344</ele>
        <time>2017-08-29T08:30:10Z</time>
      </trkpt>
      <trkpt lat="45.91796" lon="6.51721">
        <ele>2344</ele>
        <time>2017-08-29T08:30:11Z</time>
      </trkpt>
      <trkpt lat="45.91797" lon="6.51725">
        <ele>2343</ele>
        <time>2017-08-29T08:30:12Z</time>
      </trkpt>
      <trkpt lat="45.91797" lon="6.51725">
        <ele>2343</ele>
        <time>2017-08-29T08:30:13Z</time>
      </trkpt>
      <trkpt lat="45.91799" lon="6.51729">
        <ele>2343</ele>
        <time>2017-08-29T08:30:14Z</time>
      </trkpt>
      <trkpt lat="45.91799" lon="6.51729">
        <ele>2343</ele>
        <time>2017-08-29T08:30:15Z</time>
      </trkpt>
      <trkpt lat="45.91802" lon="6.51732">
        <ele>2343</ele>
        <time>2017-08-29T08:30:16Z</time>
      </trkpt>
      <trkpt lat="45.91802" lon="6.51732">
        <ele>2343</ele>
        <time>2017-08-29T08:30:17Z</time>
      </trkpt>
      <trkpt lat="45.91803" lon="6.51735">
        <ele>2343</ele>
        <time>2017-08-29T08:30:18Z</time>
      </trkpt>
      <trkpt lat="45.91803" lon="6.51735">
        <ele>2343</ele>
        <time>2017-08-29T08:30:19Z</time>
      </trkpt>
      <trkpt lat="45.91801" lon="6.51737">
        <ele>2343</ele>
        <time>2017-08-29T08:30:20Z</time>
      </trkpt>
      <trkpt lat="45.91801" lon="6.51737">
        <ele>2344</ele>
        <time>2017-08-29T08:30:21Z</time>
      </trkpt>
      <trkpt lat="45.918" lon="6.5174">
        <ele>2346</ele>
        <time>2017-08-29T08:30:22Z</time>
      </trkpt>
      <trkpt lat="45.918" lon="6.5174">
        <ele>2346</ele>
        <time>2017-08-29T08:30:23Z</time>
      </trkpt>
      <trkpt lat="45.91799" lon="6.51742">
        <ele>2346</ele>
        <time>2017-08-29T08:30:24Z</time>
      </trkpt>
      <trkpt lat="45.91799" lon="6.51742">
        <ele>2346</ele>
        <time>2017-08-29T08:30:25Z</time>
      </trkpt>
      <trkpt lat="45.91799" lon="6.51742">
        <ele>2346</ele>
        <time>2017-08-29T08:30:26Z</time>
      </trkpt>
      <trkpt lat="45.91799" lon="6.51742">
        <ele>2346</ele>
        <time>2017-08-29T08:30:27Z</time>
      </trkpt>
      <trkpt lat="45.91799" lon="6.51745">
        <ele>2346</ele>
        <time>2017-08-29T08:30:28Z</time>
      </trkpt>
      <trkpt lat="45.91799" lon="6.51745">
        <ele>2346</ele>
        <time>2017-08-29T08:30:29Z</time>
      </trkpt>
      <trkpt lat="45.91799" lon="6.51745">
        <ele>2346</ele>
        <time>2017-08-29T08:30:30Z</time>
      </trkpt>
      <trkpt lat="45.91799" lon="6.51749">
        <ele>2346</ele>
        <time>2017-08-29T08:30:31Z</time>
      </trkpt>
      <trkpt lat="45.91799" lon="6.51749">
        <ele>2346</ele>
        <time>2017-08-29T08:30:32Z</time>
      </trkpt>
      <trkpt lat="45.91799" lon="6.51752">
        <ele>2345</ele>
        <time>2017-08-29T08:30:33Z</time>
      </trkpt>
      <trkpt lat="45.91799" lon="6.51752">
        <ele>2345</ele>
        <time>2017-08-29T08:30:34Z</time>
      </trkpt>
      <trkpt lat="45.91799" lon="6.51755">
        <ele>2344</ele>
        <time>2017-08-29T08:30:35Z</time>
      </trkpt>
      <trkpt lat="45.91799" lon="6.51755">
        <ele>2344</ele>
        <time>2017-08-29T08:30:36Z</time>
      </trkpt>
      <trkpt lat="45.91798" lon="6.51759">
        <ele>2343</ele>
        <time>2017-08-29T08:30:37Z</time>
      </trkpt>
      <trkpt lat="45.91798" lon="6.51759">
        <ele>2343</ele>
        <time>2017-08-29T08:30:38Z</time>
      </trkpt>
      <trkpt lat="45.91799" lon="6.51762">
        <ele>2343</ele>
        <time>2017-08-29T08:30:39Z</time>
      </trkpt>
      <trkpt lat="45.91799" lon="6.51762">
        <ele>2343</ele>
        <time>2017-08-29T08:30:40Z</time>
      </trkpt>
      <trkpt lat="45.918" lon="6.51766">
        <ele>2343</ele>
        <time>2017-08-29T08:30:41Z</time>
      </trkpt>
      <trkpt lat="45.918" lon="6.51766">
        <ele>2342</ele>
        <time>2017-08-29T08:30:42Z</time>
      </trkpt>
      <trkpt lat="45.91801" lon="6.51769">
        <ele>2342</ele>
        <time>2017-08-29T08:30:43Z</time>
      </trkpt>
      <trkpt lat="45.91801" lon="6.51769">
        <ele>2342</ele>
        <time>2017-08-29T08:30:44Z</time>
      </trkpt>
      <trkpt lat="45.91803" lon="6.51771">
        <ele>2342</ele>
        <time>2017-08-29T08:30:45Z</time>
      </trkpt>
      <trkpt lat="45.91803" lon="6.51771">
        <ele>2342</ele>
        <time>2017-08-29T08:30:46Z</time>
      </trkpt>
      <trkpt lat="45.91805" lon="6.51772">
        <ele>2342</ele>
        <time>2017-08-29T08:30:47Z</time>
      </trkpt>
      <trkpt lat="45.91805" lon="6.51772">
        <ele>2342</ele>
        <time>2017-08-29T08:30:48Z</time>
      </trkpt>
      <trkpt lat="45.91807" lon="6.51771">
        <ele>2342</ele>
        <time>2017-08-29T08:30:49Z</time>
      </trkpt>
      <trkpt lat="45.91807" lon="6.51771">
        <ele>2342</ele>
        <time>2017-08-29T08:30:50Z</time>
      </trkpt>
      <trkpt lat="45.9181" lon="6.51771">
        <ele>2342</ele>
        <time>2017-08-29T08:30:51Z</time>
      </trkpt>
      <trkpt lat="45.9181" lon="6.51771">
        <ele>2342</ele>
        <time>2017-08-29T08:30:52Z</time>
      </trkpt>
      <trkpt lat="45.91813" lon="6.51769">
        <ele>2342</ele>
        <time>2017-08-29T08:30:53Z</time>
      </trkpt>
      <trkpt lat="45.91813" lon="6.51769">
        <ele>2342</ele>
        <time>2017-08-29T08:30:54Z</time>
      </trkpt>
      <trkpt lat="45.91815" lon="6.51768">
        <ele>2342</ele>
        <time>2017-08-29T08:30:55Z</time>
      </trkpt>
      <trkpt lat="45.91815" lon="6.51768">
        <ele>2342</ele>
        <time>2017-08-29T08:30:56Z</time>
      </trkpt>
      <trkpt lat="45.91817" lon="6.51769">
        <ele>2342</ele>
        <time>2017-08-29T08:30:57Z</time>
      </trkpt>
      <trkpt lat="45.91817" lon="6.51769">
        <ele>2342</ele>
        <time>2017-08-29T08:30:58Z</time>
      </trkpt>
      <trkpt lat="45.9182" lon="6.51769">
        <ele>2342</ele>
        <time>2017-08-29T08:30:59Z</time>
      </trkpt>
      <trkpt lat="45.9182" lon="6.51769">
        <ele>2342</ele>
        <time>2017-08-29T08:31:00Z</time>
      </trkpt>
      <trkpt lat="45.91822" lon="6.51769">
        <ele>2342</ele>
        <time>2017-08-29T08:31:01Z</time>
      </trkpt>
      <trkpt lat="45.91822" lon="6.51769">
        <ele>2342</ele>
        <time>2017-08-29T08:31:02Z</time>
      </trkpt>
      <trkpt lat="45.91824" lon="6.51769">
        <ele>2342</ele>
        <time>2017-08-29T08:31:03Z</time>
      </trkpt>
      <trkpt lat="45.91824" lon="6.51769">
        <ele>2342</ele>
        <time>2017-08-29T08:31:04Z</time>
      </trkpt>
      <trkpt lat="45.91826" lon="6.51768">
        <ele>2341</ele>
        <time>2017-08-29T08:31:05Z</time>
      </trkpt>
      <trkpt lat="45.91826" lon="6.51768">
        <ele>2341</ele>
        <time>2017-08-29T08:31:06Z</time>
      </trkpt>
      <trkpt lat="45.91827" lon="6.51766">
        <ele>2341</ele>
        <time>2017-08-29T08:31:07Z</time>
      </trkpt>
      <trkpt lat="45.91827" lon="6.51766">
        <ele>2341</ele>
        <time>2017-08-29T08:31:08Z</time>
      </trkpt>
      <trkpt lat="45.91829" lon="6.51764">
        <ele>2340</ele>
        <time>2017-08-29T08:31:09Z</time>
      </trkpt>
      <trkpt lat="45.91829" lon="6.51764">
        <ele>2341</ele>
        <time>2017-08-29T08:31:10Z</time>
      </trkpt>
      <trkpt lat="45.91829" lon="6.51764">
        <ele>2341</ele>
        <time>2017-08-29T08:31:11Z</time>
      </trkpt>
      <trkpt lat="45.91831" lon="6.51762">
        <ele>2341</ele>
        <time>2017-08-29T08:31:12Z</time>
      </trkpt>
      <trkpt lat="45.91831" lon="6.51762">
        <ele>2341</ele>
        <time>2017-08-29T08:31:13Z</time>
      </trkpt>
      <trkpt lat="45.91833" lon="6.5176">
        <ele>2341</ele>
        <time>2017-08-29T08:31:14Z</time>
      </trkpt>
      <trkpt lat="45.91833" lon="6.5176">
        <ele>2341</ele>
        <time>2017-08-29T08:31:15Z</time>
      </trkpt>
      <trkpt lat="45.91835" lon="6.51759">
        <ele>2340</ele>
        <time>2017-08-29T08:31:16Z</time>
      </trkpt>
      <trkpt lat="45.91835" lon="6.51759">
        <ele>2340</ele>
        <time>2017-08-29T08:31:17Z</time>
      </trkpt>
      <trkpt lat="45.91835" lon="6.51759">
        <ele>2340</ele>
        <time>2017-08-29T08:31:18Z</time>
      </trkpt>
      <trkpt lat="45.91837" lon="6.51758">
        <ele>2340</ele>
        <time>2017-08-29T08:31:19Z</time>
      </trkpt>
      <trkpt lat="45.91837" lon="6.51758">
        <ele>2340</ele>
        <time>2017-08-29T08:31:20Z</time>
      </trkpt>
      <trkpt lat="45.91837" lon="6.51758">
        <ele>2340</ele>
        <time>2017-08-29T08:31:21Z</time>
      </trkpt>
      <trkpt lat="45.9184" lon="6.51757">
        <ele>2340</ele>
        <time>2017-08-29T08:31:22Z</time>
      </trkpt>
      <trkpt lat="45.9184" lon="6.51757">
        <ele>2340</ele>
        <time>2017-08-29T08:31:23Z</time>
      </trkpt>
      <trkpt lat="45.91842" lon="6.51757">
        <ele>2340</ele>
        <time>2017-08-29T08:31:24Z</time>
      </trkpt>
      <trkpt lat="45.91842" lon="6.51757">
        <ele>2339</ele>
        <time>2017-08-29T08:31:25Z</time>
      </trkpt>
      <trkpt lat="45.91842" lon="6.51757">
        <ele>2339</ele>
        <time>2017-08-29T08:31:26Z</time>
      </trkpt>
      <trkpt lat="45.91844" lon="6.51755">
        <ele>2338</ele>
        <time>2017-08-29T08:31:27Z</time>
      </trkpt>
      <trkpt lat="45.91844" lon="6.51755">
        <ele>2338</ele>
        <time>2017-08-29T08:31:28Z</time>
      </trkpt>
      <trkpt lat="45.91846" lon="6.51754">
        <ele>2337</ele>
        <time>2017-08-29T08:31:29Z</time>
      </trkpt>
      <trkpt lat="45.91846" lon="6.51754">
        <ele>2337</ele>
        <time>2017-08-29T08:31:30Z</time>
      </trkpt>
      <trkpt lat="45.91848" lon="6.51752">
        <ele>2337</ele>
        <time>2017-08-29T08:31:31Z</time>
      </trkpt>
      <trkpt lat="45.91848" lon="6.51752">
        <ele>2337</ele>
        <time>2017-08-29T08:31:32Z</time>
      </trkpt>
      <trkpt lat="45.9185" lon="6.5175">
        <ele>2337</ele>
        <time>2017-08-29T08:31:33Z</time>
      </trkpt>
      <trkpt lat="45.9185" lon="6.5175">
        <ele>2336</ele>
        <time>2017-08-29T08:31:34Z</time>
      </trkpt>
      <trkpt lat="45.91851" lon="6.51749">
        <ele>2336</ele>
        <time>2017-08-29T08:31:35Z</time>
      </trkpt>
      <trkpt lat="45.91851" lon="6.51749">
        <ele>2336</ele>
        <time>2017-08-29T08:31:36Z</time>
      </trkpt>
      <trkpt lat="45.91853" lon="6.51746">
        <ele>2335</ele>
        <time>2017-08-29T08:31:37Z</time>
      </trkpt>
      <trkpt lat="45.91853" lon="6.51746">
        <ele>2334</ele>
        <time>2017-08-29T08:31:38Z</time>
      </trkpt>
      <trkpt lat="45.91855" lon="6.51745">
        <ele>2334</ele>
        <time>2017-08-29T08:31:39Z</time>
      </trkpt>
      <trkpt lat="45.91855" lon="6.51745">
        <ele>2334</ele>
        <time>2017-08-29T08:31:40Z</time>
      </trkpt>
      <trkpt lat="45.91859" lon="6.51745">
        <ele>2333</ele>
        <time>2017-08-29T08:31:41Z</time>
      </trkpt>
      <trkpt lat="45.91861" lon="6.51745">
        <ele>2333</ele>
        <time>2017-08-29T08:31:42Z</time>
      </trkpt>
      <trkpt lat="45.91863" lon="6.51745">
        <ele>2333</ele>
        <time>2017-08-29T08:31:43Z</time>
      </trkpt>
      <trkpt lat="45.91865" lon="6.51745">
        <ele>2333</ele>
        <time>2017-08-29T08:31:44Z</time>
      </trkpt>
      <trkpt lat="45.91865" lon="6.51745">
        <ele>2333</ele>
        <time>2017-08-29T08:31:45Z</time>
      </trkpt>
      <trkpt lat="45.91867" lon="6.51744">
        <ele>2333</ele>
        <time>2017-08-29T08:31:46Z</time>
      </trkpt>
      <trkpt lat="45.91867" lon="6.51744">
        <ele>2332</ele>
        <time>2017-08-29T08:31:47Z</time>
      </trkpt>
      <trkpt lat="45.9187" lon="6.51744">
        <ele>2331</ele>
        <time>2017-08-29T08:31:48Z</time>
      </trkpt>
      <trkpt lat="45.9187" lon="6.51744">
        <ele>2331</ele>
        <time>2017-08-29T08:31:49Z</time>
      </trkpt>
      <trkpt lat="45.91872" lon="6.51744">
        <ele>2331</ele>
        <time>2017-08-29T08:31:50Z</time>
      </trkpt>
      <trkpt lat="45.91872" lon="6.51744">
        <ele>2331</ele>
        <time>2017-08-29T08:31:51Z</time>
      </trkpt>
      <trkpt lat="45.91872" lon="6.51744">
        <ele>2331</ele>
        <time>2017-08-29T08:31:52Z</time>
      </trkpt>
      <trkpt lat="45.91875" lon="6.51743">
        <ele>2331</ele>
        <time>2017-08-29T08:31:53Z</time>
      </trkpt>
      <trkpt lat="45.91875" lon="6.51743">
        <ele>2330</ele>
        <time>2017-08-29T08:31:54Z</time>
      </trkpt>
      <trkpt lat="45.91878" lon="6.51743">
        <ele>2330</ele>
        <time>2017-08-29T08:31:55Z</time>
      </trkpt>
      <trkpt lat="45.91878" lon="6.51743">
        <ele>2330</ele>
        <time>2017-08-29T08:31:56Z</time>
      </trkpt>
      <trkpt lat="45.9188" lon="6.51744">
        <ele>2330</ele>
        <time>2017-08-29T08:31:57Z</time>
      </trkpt>
      <trkpt lat="45.9188" lon="6.51744">
        <ele>2330</ele>
        <time>2017-08-29T08:31:58Z</time>
      </trkpt>
      <trkpt lat="45.9188" lon="6.51744">
        <ele>2330</ele>
        <time>2017-08-29T08:31:59Z</time>
      </trkpt>
      <trkpt lat="45.91883" lon="6.51745">
        <ele>2330</ele>
        <time>2017-08-29T08:32:00Z</time>
      </trkpt>
      <trkpt lat="45.91883" lon="6.51745">
        <ele>2330</ele>
        <time>2017-08-29T08:32:01Z</time>
      </trkpt>
      <trkpt lat="45.91883" lon="6.51745">
        <ele>2330</ele>
        <time>2017-08-29T08:32:02Z</time>
      </trkpt>
      <trkpt lat="45.91885" lon="6.51743">
        <ele>2330</ele>
        <time>2017-08-29T08:32:03Z</time>
      </trkpt>
      <trkpt lat="45.91885" lon="6.51743">
        <ele>2330</ele>
        <time>2017-08-29T08:32:04Z</time>
      </trkpt>
      <trkpt lat="45.91887" lon="6.51741">
        <ele>2329</ele>
        <time>2017-08-29T08:32:05Z</time>
      </trkpt>
      <trkpt lat="45.91887" lon="6.51741">
        <ele>2329</ele>
        <time>2017-08-29T08:32:06Z</time>
      </trkpt>
      <trkpt lat="45.91889" lon="6.51741">
        <ele>2329</ele>
        <time>2017-08-29T08:32:07Z</time>
      </trkpt>
      <trkpt lat="45.91889" lon="6.51741">
        <ele>2329</ele>
        <time>2017-08-29T08:32:08Z</time>
      </trkpt>
      <trkpt lat="45.91892" lon="6.51741">
        <ele>2329</ele>
        <time>2017-08-29T08:32:09Z</time>
      </trkpt>
      <trkpt lat="45.91892" lon="6.51741">
        <ele>2329</ele>
        <time>2017-08-29T08:32:10Z</time>
      </trkpt>
      <trkpt lat="45.91895" lon="6.51741">
        <ele>2329</ele>
        <time>2017-08-29T08:32:11Z</time>
      </trkpt>
      <trkpt lat="45.91895" lon="6.51741">
        <ele>2328</ele>
        <time>2017-08-29T08:32:12Z</time>
      </trkpt>
      <trkpt lat="45.91895" lon="6.51741">
        <ele>2327</ele>
        <time>2017-08-29T08:32:13Z</time>
      </trkpt>
      <trkpt lat="45.91895" lon="6.51741">
        <ele>2327</ele>
        <time>2017-08-29T08:32:14Z</time>
      </trkpt>
      <trkpt lat="45.91895" lon="6.51741">
        <ele>2327</ele>
        <time>2017-08-29T08:32:15Z</time>
      </trkpt>
      <trkpt lat="45.91895" lon="6.51741">
        <ele>2327</ele>
        <time>2017-08-29T08:32:16Z</time>
      </trkpt>
      <trkpt lat="45.91895" lon="6.51741">
        <ele>2327</ele>
        <time>2017-08-29T08:32:17Z</time>
      </trkpt>
      <trkpt lat="45.91895" lon="6.51741">
        <ele>2327</ele>
        <time>2017-08-29T08:32:18Z</time>
      </trkpt>
      <trkpt lat="45.91895" lon="6.51741">
        <ele>2327</ele>
        <time>2017-08-29T08:32:19Z</time>
      </trkpt>
      <trkpt lat="45.91895" lon="6.51741">
        <ele>2327</ele>
        <time>2017-08-29T08:32:20Z</time>
      </trkpt>
      <trkpt lat="45.91895" lon="6.51741">
        <ele>2327</ele>
        <time>2017-08-29T08:32:21Z</time>
      </trkpt>
      <trkpt lat="45.91895" lon="6.51741">
        <ele>2327</ele>
        <time>2017-08-29T08:32:22Z</time>
      </trkpt>
      <trkpt lat="45.91895" lon="6.51741">
        <ele>2329</ele>
        <time>2017-08-29T08:32:23Z</time>
      </trkpt>
      <trkpt lat="45.91895" lon="6.51741">
        <ele>2329</ele>
        <time>2017-08-29T08:32:24Z</time>
      </trkpt>
      <trkpt lat="45.91895" lon="6.51741">
        <ele>2329</ele>
        <time>2017-08-29T08:32:25Z</time>
      </trkpt>
      <trkpt lat="45.91895" lon="6.51741">
        <ele>2329</ele>
        <time>2017-08-29T08:32:26Z</time>
      </trkpt>
      <trkpt lat="45.91895" lon="6.51741">
        <ele>2329</ele>
        <time>2017-08-29T08:32:27Z</time>
      </trkpt>
      <trkpt lat="45.91895" lon="6.51741">
        <ele>2329</ele>
        <time>2017-08-29T08:32:28Z</time>
      </trkpt>
      <trkpt lat="45.91897" lon="6.5174">
        <ele>2329</ele>
        <time>2017-08-29T08:32:29Z</time>
      </trkpt>
      <trkpt lat="45.91897" lon="6.5174">
        <ele>2329</ele>
        <time>2017-08-29T08:32:30Z</time>
      </trkpt>
      <trkpt lat="45.91897" lon="6.5174">
        <ele>2329</ele>
        <time>2017-08-29T08:32:31Z</time>
      </trkpt>
      <trkpt lat="45.91897" lon="6.5174">
        <ele>2329</ele>
        <time>2017-08-29T08:32:32Z</time>
      </trkpt>
      <trkpt lat="45.91897" lon="6.5174">
        <ele>2329</ele>
        <time>2017-08-29T08:32:33Z</time>
      </trkpt>
      <trkpt lat="45.91897" lon="6.5174">
        <ele>2329</ele>
        <time>2017-08-29T08:32:34Z</time>
      </trkpt>
      <trkpt lat="45.91899" lon="6.51741">
        <ele>2329</ele>
        <time>2017-08-29T08:32:35Z</time>
      </trkpt>
      <trkpt lat="45.91899" lon="6.51741">
        <ele>2327</ele>
        <time>2017-08-29T08:32:36Z</time>
      </trkpt>
      <trkpt lat="45.91899" lon="6.51741">
        <ele>2327</ele>
        <time>2017-08-29T08:32:37Z</time>
      </trkpt>
      <trkpt lat="45.91899" lon="6.51741">
        <ele>2327</ele>
        <time>2017-08-29T08:32:38Z</time>
      </trkpt>
      <trkpt lat="45.91901" lon="6.51743">
        <ele>2326</ele>
        <time>2017-08-29T08:32:39Z</time>
      </trkpt>
      <trkpt lat="45.91901" lon="6.51743">
        <ele>2326</ele>
        <time>2017-08-29T08:32:40Z</time>
      </trkpt>
      <trkpt lat="45.91901" lon="6.51743">
        <ele>2326</ele>
        <time>2017-08-29T08:32:41Z</time>
      </trkpt>
      <trkpt lat="45.91903" lon="6.51745">
        <ele>2326</ele>
        <time>2017-08-29T08:32:42Z</time>
      </trkpt>
      <trkpt lat="45.91903" lon="6.51745">
        <ele>2326</ele>
        <time>2017-08-29T08:32:43Z</time>
      </trkpt>
      <trkpt lat="45.91903" lon="6.51745">
        <ele>2326</ele>
        <time>2017-08-29T08:32:44Z</time>
      </trkpt>
      <trkpt lat="45.91903" lon="6.51745">
        <ele>2326</ele>
        <time>2017-08-29T08:32:45Z</time>
      </trkpt>
      <trkpt lat="45.91903" lon="6.51745">
        <ele>2326</ele>
        <time>2017-08-29T08:32:46Z</time>
      </trkpt>
      <trkpt lat="45.91903" lon="6.51745">
        <ele>2326</ele>
        <time>2017-08-29T08:32:47Z</time>
      </trkpt>
      <trkpt lat="45.91904" lon="6.51747">
        <ele>2326</ele>
        <time>2017-08-29T08:32:48Z</time>
      </trkpt>
      <trkpt lat="45.91904" lon="6.51747">
        <ele>2326</ele>
        <time>2017-08-29T08:32:49Z</time>
      </trkpt>
      <trkpt lat="45.91904" lon="6.51747">
        <ele>2326</ele>
        <time>2017-08-29T08:32:50Z</time>
      </trkpt>
      <trkpt lat="45.91906" lon="6.51748">
        <ele>2326</ele>
        <time>2017-08-29T08:32:51Z</time>
      </trkpt>
      <trkpt lat="45.91906" lon="6.51748">
        <ele>2326</ele>
        <time>2017-08-29T08:32:52Z</time>
      </trkpt>
      <trkpt lat="45.91906" lon="6.51748">
        <ele>2326</ele>
        <time>2017-08-29T08:32:53Z</time>
      </trkpt>
      <trkpt lat="45.91908" lon="6.51749">
        <ele>2326</ele>
        <time>2017-08-29T08:32:54Z</time>
      </trkpt>
      <trkpt lat="45.91908" lon="6.51749">
        <ele>2326</ele>
        <time>2017-08-29T08:32:55Z</time>
      </trkpt>
      <trkpt lat="45.91908" lon="6.51749">
        <ele>2325</ele>
        <time>2017-08-29T08:32:56Z</time>
      </trkpt>
      <trkpt lat="45.91908" lon="6.51749">
        <ele>2325</ele>
        <time>2017-08-29T08:32:57Z</time>
      </trkpt>
      <trkpt lat="45.91908" lon="6.51749">
        <ele>2326</ele>
        <time>2017-08-29T08:32:58Z</time>
      </trkpt>
      <trkpt lat="45.91908" lon="6.51749">
        <ele>2326</ele>
        <time>2017-08-29T08:32:59Z</time>
      </trkpt>
      <trkpt lat="45.91908" lon="6.51749">
        <ele>2326</ele>
        <time>2017-08-29T08:33:00Z</time>
      </trkpt>
      <trkpt lat="45.91908" lon="6.51749">
        <ele>2324</ele>
        <time>2017-08-29T08:33:01Z</time>
      </trkpt>
      <trkpt lat="45.91908" lon="6.51749">
        <ele>2324</ele>
        <time>2017-08-29T08:33:02Z</time>
      </trkpt>
      <trkpt lat="45.91908" lon="6.51749">
        <ele>2324</ele>
        <time>2017-08-29T08:33:03Z</time>
      </trkpt>
      <trkpt lat="45.91908" lon="6.51749">
        <ele>2324</ele>
        <time>2017-08-29T08:33:04Z</time>
      </trkpt>
      <trkpt lat="45.91908" lon="6.51749">
        <ele>2324</ele>
        <time>2017-08-29T08:33:05Z</time>
      </trkpt>
      <trkpt lat="45.9191" lon="6.51749">
        <ele>2325</ele>
        <time>2017-08-29T08:33:06Z</time>
      </trkpt>
      <trkpt lat="45.9191" lon="6.51749">
        <ele>2325</ele>
        <time>2017-08-29T08:33:07Z</time>
      </trkpt>
      <trkpt lat="45.9191" lon="6.51749">
        <ele>2325</ele>
        <time>2017-08-29T08:33:08Z</time>
      </trkpt>
      <trkpt lat="45.91912" lon="6.51747">
        <ele>2325</ele>
        <time>2017-08-29T08:33:09Z</time>
      </trkpt>
      <trkpt lat="45.91912" lon="6.51747">
        <ele>2327</ele>
        <time>2017-08-29T08:33:10Z</time>
      </trkpt>
      <trkpt lat="45.91912" lon="6.51747">
        <ele>2327</ele>
        <time>2017-08-29T08:33:11Z</time>
      </trkpt>
      <trkpt lat="45.91914" lon="6.51747">
        <ele>2327</ele>
        <time>2017-08-29T08:33:12Z</time>
      </trkpt>
      <trkpt lat="45.91914" lon="6.51747">
        <ele>2328</ele>
        <time>2017-08-29T08:33:13Z</time>
      </trkpt>
      <trkpt lat="45.91914" lon="6.51747">
        <ele>2328</ele>
        <time>2017-08-29T08:33:14Z</time>
      </trkpt>
      <trkpt lat="45.91914" lon="6.51747">
        <ele>2328</ele>
        <time>2017-08-29T08:33:15Z</time>
      </trkpt>
      <trkpt lat="45.91915" lon="6.51749">
        <ele>2329</ele>
        <time>2017-08-29T08:33:16Z</time>
      </trkpt>
      <trkpt lat="45.91915" lon="6.51749">
        <ele>2329</ele>
        <time>2017-08-29T08:33:17Z</time>
      </trkpt>
      <trkpt lat="45.91915" lon="6.51749">
        <ele>2329</ele>
        <time>2017-08-29T08:33:18Z</time>
      </trkpt>
      <trkpt lat="45.91915" lon="6.51749">
        <ele>2329</ele>
        <time>2017-08-29T08:33:19Z</time>
      </trkpt>
      <trkpt lat="45.91917" lon="6.51751">
        <ele>2329</ele>
        <time>2017-08-29T08:33:20Z</time>
      </trkpt>
      <trkpt lat="45.91917" lon="6.51751">
        <ele>2329</ele>
        <time>2017-08-29T08:33:21Z</time>
      </trkpt>
      <trkpt lat="45.91917" lon="6.51751">
        <ele>2329</ele>
        <time>2017-08-29T08:33:22Z</time>
      </trkpt>
      <trkpt lat="45.91917" lon="6.51751">
        <ele>2330</ele>
        <time>2017-08-29T08:33:23Z</time>
      </trkpt>
      <trkpt lat="45.91917" lon="6.51751">
        <ele>2330</ele>
        <time>2017-08-29T08:33:24Z</time>
      </trkpt>
      <trkpt lat="45.91919" lon="6.51754">
        <ele>2330</ele>
        <time>2017-08-29T08:33:25Z</time>
      </trkpt>
      <trkpt lat="45.91919" lon="6.51754">
        <ele>2330</ele>
        <time>2017-08-29T08:33:26Z</time>
      </trkpt>
      <trkpt lat="45.91921" lon="6.51754">
        <ele>2330</ele>
        <time>2017-08-29T08:33:27Z</time>
      </trkpt>
      <trkpt lat="45.91921" lon="6.51754">
        <ele>2330</ele>
        <time>2017-08-29T08:33:28Z</time>
      </trkpt>
      <trkpt lat="45.91921" lon="6.51754">
        <ele>2330</ele>
        <time>2017-08-29T08:33:29Z</time>
      </trkpt>
      <trkpt lat="45.91923" lon="6.51754">
        <ele>2330</ele>
        <time>2017-08-29T08:33:30Z</time>
      </trkpt>
      <trkpt lat="45.91923" lon="6.51754">
        <ele>2330</ele>
        <time>2017-08-29T08:33:31Z</time>
      </trkpt>
      <trkpt lat="45.91923" lon="6.51754">
        <ele>2330</ele>
        <time>2017-08-29T08:33:32Z</time>
      </trkpt>
      <trkpt lat="45.91925" lon="6.51754">
        <ele>2330</ele>
        <time>2017-08-29T08:33:33Z</time>
      </trkpt>
      <trkpt lat="45.91925" lon="6.51754">
        <ele>2330</ele>
        <time>2017-08-29T08:33:34Z</time>
      </trkpt>
      <trkpt lat="45.91925" lon="6.51754">
        <ele>2330</ele>
        <time>2017-08-29T08:33:35Z</time>
      </trkpt>
      <trkpt lat="45.91925" lon="6.51754">
        <ele>2330</ele>
        <time>2017-08-29T08:33:36Z</time>
      </trkpt>
      <trkpt lat="45.91925" lon="6.51754">
        <ele>2330</ele>
        <time>2017-08-29T08:33:37Z</time>
      </trkpt>
      <trkpt lat="45.91925" lon="6.51754">
        <ele>2330</ele>
        <time>2017-08-29T08:33:38Z</time>
      </trkpt>
      <trkpt lat="45.91925" lon="6.51754">
        <ele>2330</ele>
        <time>2017-08-29T08:33:39Z</time>
      </trkpt>
      <trkpt lat="45.91925" lon="6.51754">
        <ele>2330</ele>
        <time>2017-08-29T08:33:40Z</time>
      </trkpt>
      <trkpt lat="45.91925" lon="6.51754">
        <ele>2330</ele>
        <time>2017-08-29T08:33:41Z</time>
      </trkpt>
      <trkpt lat="45.91928" lon="6.51753">
        <ele>2330</ele>
        <time>2017-08-29T08:33:42Z</time>
      </trkpt>
      <trkpt lat="45.91928" lon="6.51753">
        <ele>2330</ele>
        <time>2017-08-29T08:33:43Z</time>
      </trkpt>
      <trkpt lat="45.91928" lon="6.51753">
        <ele>2330</ele>
        <time>2017-08-29T08:33:44Z</time>
      </trkpt>
      <trkpt lat="45.91929" lon="6.51756">
        <ele>2330</ele>
        <time>2017-08-29T08:33:45Z</time>
      </trkpt>
      <trkpt lat="45.91929" lon="6.51756">
        <ele>2330</ele>
        <time>2017-08-29T08:33:46Z</time>
      </trkpt>
      <trkpt lat="45.91929" lon="6.51756">
        <ele>2330</ele>
        <time>2017-08-29T08:33:47Z</time>
      </trkpt>
      <trkpt lat="45.91931" lon="6.51757">
        <ele>2330</ele>
        <time>2017-08-29T08:33:48Z</time>
      </trkpt>
      <trkpt lat="45.91931" lon="6.51757">
        <ele>2330</ele>
        <time>2017-08-29T08:33:49Z</time>
      </trkpt>
      <trkpt lat="45.91934" lon="6.51758">
        <ele>2331</ele>
        <time>2017-08-29T08:33:50Z</time>
      </trkpt>
      <trkpt lat="45.91934" lon="6.51758">
        <ele>2331</ele>
        <time>2017-08-29T08:33:51Z</time>
      </trkpt>
      <trkpt lat="45.91934" lon="6.51758">
        <ele>2332</ele>
        <time>2017-08-29T08:33:52Z</time>
      </trkpt>
      <trkpt lat="45.91936" lon="6.51759">
        <ele>2332</ele>
        <time>2017-08-29T08:33:53Z</time>
      </trkpt>
      <trkpt lat="45.91936" lon="6.51759">
        <ele>2332</ele>
        <time>2017-08-29T08:33:54Z</time>
      </trkpt>
      <trkpt lat="45.91939" lon="6.51759">
        <ele>2332</ele>
        <time>2017-08-29T08:33:55Z</time>
      </trkpt>
      <trkpt lat="45.91939" lon="6.51759">
        <ele>2332</ele>
        <time>2017-08-29T08:33:56Z</time>
      </trkpt>
      <trkpt lat="45.91939" lon="6.51759">
        <ele>2332</ele>
        <time>2017-08-29T08:33:57Z</time>
      </trkpt>
      <trkpt lat="45.91939" lon="6.51759">
        <ele>2332</ele>
        <time>2017-08-29T08:33:58Z</time>
      </trkpt>
      <trkpt lat="45.91939" lon="6.51759">
        <ele>2332</ele>
        <time>2017-08-29T08:33:59Z</time>
      </trkpt>
      <trkpt lat="45.91939" lon="6.51759">
        <ele>2332</ele>
        <time>2017-08-29T08:34:00Z</time>
      </trkpt>
      <trkpt lat="45.91939" lon="6.51759">
        <ele>2332</ele>
        <time>2017-08-29T08:34:01Z</time>
      </trkpt>
      <trkpt lat="45.91939" lon="6.51759">
        <ele>2333</ele>
        <time>2017-08-29T08:34:02Z</time>
      </trkpt>
      <trkpt lat="45.91939" lon="6.51759">
        <ele>2333</ele>
        <time>2017-08-29T08:34:03Z</time>
      </trkpt>
      <trkpt lat="45.91939" lon="6.51759">
        <ele>2333</ele>
        <time>2017-08-29T08:34:04Z</time>
      </trkpt>
      <trkpt lat="45.91939" lon="6.51759">
        <ele>2333</ele>
        <time>2017-08-29T08:34:05Z</time>
      </trkpt>
      <trkpt lat="45.91939" lon="6.51759">
        <ele>2333</ele>
        <time>2017-08-29T08:34:06Z</time>
      </trkpt>
      <trkpt lat="45.91939" lon="6.51759">
        <ele>2333</ele>
        <time>2017-08-29T08:34:07Z</time>
      </trkpt>
      <trkpt lat="45.91939" lon="6.51759">
        <ele>2333</ele>
        <time>2017-08-29T08:34:08Z</time>
      </trkpt>
      <trkpt lat="45.91939" lon="6.51759">
        <ele>2333</ele>
        <time>2017-08-29T08:34:09Z</time>
      </trkpt>
      <trkpt lat="45.91939" lon="6.51759">
        <ele>2333</ele>
        <time>2017-08-29T08:34:10Z</time>
      </trkpt>
      <trkpt lat="45.91939" lon="6.51759">
        <ele>2333</ele>
        <time>2017-08-29T08:34:11Z</time>
      </trkpt>
      <trkpt lat="45.91939" lon="6.51759">
        <ele>2333</ele>
        <time>2017-08-29T08:34:12Z</time>
      </trkpt>
      <trkpt lat="45.91939" lon="6.51759">
        <ele>2333</ele>
        <time>2017-08-29T08:34:13Z</time>
      </trkpt>
      <trkpt lat="45.91939" lon="6.51759">
        <ele>2333</ele>
        <time>2017-08-29T08:34:14Z</time>
      </trkpt>
      <trkpt lat="45.91937" lon="6.51759">
        <ele>2333</ele>
        <time>2017-08-29T08:34:15Z</time>
      </trkpt>
      <trkpt lat="45.91937" lon="6.51759">
        <ele>2333</ele>
        <time>2017-08-29T08:34:16Z</time>
      </trkpt>
      <trkpt lat="45.91937" lon="6.51759">
        <ele>2333</ele>
        <time>2017-08-29T08:34:17Z</time>
      </trkpt>
      <trkpt lat="45.91937" lon="6.51759">
        <ele>2333</ele>
        <time>2017-08-29T08:34:18Z</time>
      </trkpt>
      <trkpt lat="45.91937" lon="6.51759">
        <ele>2333</ele>
        <time>2017-08-29T08:34:19Z</time>
      </trkpt>
      <trkpt lat="45.91937" lon="6.51759">
        <ele>2333</ele>
        <time>2017-08-29T08:34:20Z</time>
      </trkpt>
      <trkpt lat="45.91937" lon="6.51759">
        <ele>2333</ele>
        <time>2017-08-29T08:34:21Z</time>
      </trkpt>
      <trkpt lat="45.91937" lon="6.51759">
        <ele>2333</ele>
        <time>2017-08-29T08:34:22Z</time>
      </trkpt>
      <trkpt lat="45.91937" lon="6.51759">
        <ele>2333</ele>
        <time>2017-08-29T08:34:23Z</time>
      </trkpt>
      <trkpt lat="45.91937" lon="6.51759">
        <ele>2333</ele>
        <time>2017-08-29T08:34:24Z</time>
      </trkpt>
      <trkpt lat="45.91937" lon="6.51759">
        <ele>2333</ele>
        <time>2017-08-29T08:34:25Z</time>
      </trkpt>
      <trkpt lat="45.91937" lon="6.51759">
        <ele>2332</ele>
        <time>2017-08-29T08:34:26Z</time>
      </trkpt>
      <trkpt lat="45.91937" lon="6.51759">
        <ele>2333</ele>
        <time>2017-08-29T08:34:27Z</time>
      </trkpt>
      <trkpt lat="45.91937" lon="6.51759">
        <ele>2333</ele>
        <time>2017-08-29T08:34:28Z</time>
      </trkpt>
      <trkpt lat="45.91937" lon="6.51759">
        <ele>2333</ele>
        <time>2017-08-29T08:34:29Z</time>
      </trkpt>
      <trkpt lat="45.91937" lon="6.51759">
        <ele>2333</ele>
        <time>2017-08-29T08:34:30Z</time>
      </trkpt>
      <trkpt lat="45.91937" lon="6.51759">
        <ele>2333</ele>
        <time>2017-08-29T08:34:31Z</time>
      </trkpt>
      <trkpt lat="45.91937" lon="6.51759">
        <ele>2333</ele>
        <time>2017-08-29T08:34:32Z</time>
      </trkpt>
      <trkpt lat="45.91937" lon="6.51759">
        <ele>2333</ele>
        <time>2017-08-29T08:34:33Z</time>
      </trkpt>
      <trkpt lat="45.91939" lon="6.51757">
        <ele>2333</ele>
        <time>2017-08-29T08:34:34Z</time>
      </trkpt>
      <trkpt lat="45.91939" lon="6.51757">
        <ele>2333</ele>
        <time>2017-08-29T08:34:35Z</time>
      </trkpt>
      <trkpt lat="45.91939" lon="6.51757">
        <ele>2333</ele>
        <time>2017-08-29T08:34:36Z</time>
      </trkpt>
      <trkpt lat="45.9194" lon="6.51756">
        <ele>2333</ele>
        <time>2017-08-29T08:34:37Z</time>
      </trkpt>
      <trkpt lat="45.9194" lon="6.51756">
        <ele>2332</ele>
        <time>2017-08-29T08:34:38Z</time>
      </trkpt>
      <trkpt lat="45.9194" lon="6.51756">
        <ele>2331</ele>
        <time>2017-08-29T08:34:39Z</time>
      </trkpt>
      <trkpt lat="45.91943" lon="6.51756">
        <ele>2332</ele>
        <time>2017-08-29T08:34:40Z</time>
      </trkpt>
      <trkpt lat="45.91944" lon="6.51756">
        <ele>2332</ele>
        <time>2017-08-29T08:34:41Z</time>
      </trkpt>
      <trkpt lat="45.91946" lon="6.51755">
        <ele>2332</ele>
        <time>2017-08-29T08:34:42Z</time>
      </trkpt>
      <trkpt lat="45.91948" lon="6.51755">
        <ele>2332</ele>
        <time>2017-08-29T08:34:43Z</time>
      </trkpt>
      <trkpt lat="45.91948" lon="6.51755">
        <ele>2331</ele>
        <time>2017-08-29T08:34:44Z</time>
      </trkpt>
      <trkpt lat="45.91951" lon="6.51754">
        <ele>2331</ele>
        <time>2017-08-29T08:34:45Z</time>
      </trkpt>
      <trkpt lat="45.91951" lon="6.51754">
        <ele>2332</ele>
        <time>2017-08-29T08:34:46Z</time>
      </trkpt>
      <trkpt lat="45.91954" lon="6.51753">
        <ele>2332</ele>
        <time>2017-08-29T08:34:47Z</time>
      </trkpt>
      <trkpt lat="45.91954" lon="6.51753">
        <ele>2332</ele>
        <time>2017-08-29T08:34:48Z</time>
      </trkpt>
      <trkpt lat="45.91954" lon="6.51753">
        <ele>2331</ele>
        <time>2017-08-29T08:34:49Z</time>
      </trkpt>
      <trkpt lat="45.91956" lon="6.51752">
        <ele>2331</ele>
        <time>2017-08-29T08:34:50Z</time>
      </trkpt>
      <trkpt lat="45.91956" lon="6.51752">
        <ele>2331</ele>
        <time>2017-08-29T08:34:51Z</time>
      </trkpt>
      <trkpt lat="45.91956" lon="6.51752">
        <ele>2331</ele>
        <time>2017-08-29T08:34:52Z</time>
      </trkpt>
      <trkpt lat="45.91958" lon="6.51753">
        <ele>2331</ele>
        <time>2017-08-29T08:34:53Z</time>
      </trkpt>
      <trkpt lat="45.91958" lon="6.51753">
        <ele>2331</ele>
        <time>2017-08-29T08:34:54Z</time>
      </trkpt>
      <trkpt lat="45.91961" lon="6.51753">
        <ele>2331</ele>
        <time>2017-08-29T08:34:55Z</time>
      </trkpt>
      <trkpt lat="45.91961" lon="6.51753">
        <ele>2331</ele>
        <time>2017-08-29T08:34:56Z</time>
      </trkpt>
      <trkpt lat="45.91964" lon="6.51753">
        <ele>2331</ele>
        <time>2017-08-29T08:34:57Z</time>
      </trkpt>
      <trkpt lat="45.91966" lon="6.51753">
        <ele>2331</ele>
        <time>2017-08-29T08:34:58Z</time>
      </trkpt>
      <trkpt lat="45.91966" lon="6.51753">
        <ele>2331</ele>
        <time>2017-08-29T08:34:59Z</time>
      </trkpt>
      <trkpt lat="45.91968" lon="6.51753">
        <ele>2331</ele>
        <time>2017-08-29T08:35:00Z</time>
      </trkpt>
      <trkpt lat="45.91968" lon="6.51753">
        <ele>2331</ele>
        <time>2017-08-29T08:35:01Z</time>
      </trkpt>
      <trkpt lat="45.91968" lon="6.51753">
        <ele>2331</ele>
        <time>2017-08-29T08:35:02Z</time>
      </trkpt>
      <trkpt lat="45.9197" lon="6.51752">
        <ele>2331</ele>
        <time>2017-08-29T08:35:03Z</time>
      </trkpt>
      <trkpt lat="45.9197" lon="6.51752">
        <ele>2331</ele>
        <time>2017-08-29T08:35:04Z</time>
      </trkpt>
      <trkpt lat="45.9197" lon="6.51752">
        <ele>2331</ele>
        <time>2017-08-29T08:35:05Z</time>
      </trkpt>
      <trkpt lat="45.9197" lon="6.51752">
        <ele>2331</ele>
        <time>2017-08-29T08:35:06Z</time>
      </trkpt>
      <trkpt lat="45.9197" lon="6.51752">
        <ele>2331</ele>
        <time>2017-08-29T08:35:07Z</time>
      </trkpt>
      <trkpt lat="45.9197" lon="6.51752">
        <ele>2331</ele>
        <time>2017-08-29T08:35:08Z</time>
      </trkpt>
      <trkpt lat="45.9197" lon="6.51752">
        <ele>2331</ele>
        <time>2017-08-29T08:35:09Z</time>
      </trkpt>
      <trkpt lat="45.9197" lon="6.51752">
        <ele>2331</ele>
        <time>2017-08-29T08:35:10Z</time>
      </trkpt>
      <trkpt lat="45.9197" lon="6.51752">
        <ele>2331</ele>
        <time>2017-08-29T08:35:11Z</time>
      </trkpt>
      <trkpt lat="45.91971" lon="6.51753">
        <ele>2331</ele>
        <time>2017-08-29T08:35:12Z</time>
      </trkpt>
      <trkpt lat="45.91971" lon="6.51753">
        <ele>2331</ele>
        <time>2017-08-29T08:35:13Z</time>
      </trkpt>
      <trkpt lat="45.91971" lon="6.51753">
        <ele>2331</ele>
        <time>2017-08-29T08:35:14Z</time>
      </trkpt>
      <trkpt lat="45.91971" lon="6.51753">
        <ele>2331</ele>
        <time>2017-08-29T08:35:15Z</time>
      </trkpt>
      <trkpt lat="45.91971" lon="6.51753">
        <ele>2332</ele>
        <time>2017-08-29T08:35:16Z</time>
      </trkpt>
      <trkpt lat="45.91975" lon="6.51753">
        <ele>2332</ele>
        <time>2017-08-29T08:35:17Z</time>
      </trkpt>
      <trkpt lat="45.91975" lon="6.51753">
        <ele>2332</ele>
        <time>2017-08-29T08:35:18Z</time>
      </trkpt>
      <trkpt lat="45.91975" lon="6.51753">
        <ele>2332</ele>
        <time>2017-08-29T08:35:19Z</time>
      </trkpt>
      <trkpt lat="45.91976" lon="6.51753">
        <ele>2332</ele>
        <time>2017-08-29T08:35:20Z</time>
      </trkpt>
      <trkpt lat="45.91976" lon="6.51753">
        <ele>2332</ele>
        <time>2017-08-29T08:35:21Z</time>
      </trkpt>
      <trkpt lat="45.91976" lon="6.51753">
        <ele>2332</ele>
        <time>2017-08-29T08:35:22Z</time>
      </trkpt>
      <trkpt lat="45.91976" lon="6.51753">
        <ele>2332</ele>
        <time>2017-08-29T08:35:23Z</time>
      </trkpt>
      <trkpt lat="45.91977" lon="6.51753">
        <ele>2332</ele>
        <time>2017-08-29T08:35:24Z</time>
      </trkpt>
      <trkpt lat="45.91977" lon="6.51753">
        <ele>2332</ele>
        <time>2017-08-29T08:35:25Z</time>
      </trkpt>
      <trkpt lat="45.91977" lon="6.51753">
        <ele>2332</ele>
        <time>2017-08-29T08:35:26Z</time>
      </trkpt>
      <trkpt lat="45.91977" lon="6.51753">
        <ele>2332</ele>
        <time>2017-08-29T08:35:27Z</time>
      </trkpt>
      <trkpt lat="45.91977" lon="6.51753">
        <ele>2331</ele>
        <time>2017-08-29T08:35:28Z</time>
      </trkpt>
      <trkpt lat="45.91978" lon="6.51752">
        <ele>2331</ele>
        <time>2017-08-29T08:35:29Z</time>
      </trkpt>
      <trkpt lat="45.91978" lon="6.51752">
        <ele>2331</ele>
        <time>2017-08-29T08:35:30Z</time>
      </trkpt>
      <trkpt lat="45.91978" lon="6.51752">
        <ele>2332</ele>
        <time>2017-08-29T08:35:31Z</time>
      </trkpt>
      <trkpt lat="45.91978" lon="6.51752">
        <ele>2332</ele>
        <time>2017-08-29T08:35:32Z</time>
      </trkpt>
      <trkpt lat="45.91979" lon="6.51752">
        <ele>2332</ele>
        <time>2017-08-29T08:35:33Z</time>
      </trkpt>
      <trkpt lat="45.91979" lon="6.51752">
        <ele>2332</ele>
        <time>2017-08-29T08:35:34Z</time>
      </trkpt>
      <trkpt lat="45.91979" lon="6.51752">
        <ele>2332</ele>
        <time>2017-08-29T08:35:35Z</time>
      </trkpt>
      <trkpt lat="45.91979" lon="6.51752">
        <ele>2332</ele>
        <time>2017-08-29T08:35:36Z</time>
      </trkpt>
      <trkpt lat="45.9198" lon="6.51752">
        <ele>2332</ele>
        <time>2017-08-29T08:35:37Z</time>
      </trkpt>
      <trkpt lat="45.9198" lon="6.51752">
        <ele>2332</ele>
        <time>2017-08-29T08:35:38Z</time>
      </trkpt>
      <trkpt lat="45.9198" lon="6.51752">
        <ele>2332</ele>
        <time>2017-08-29T08:35:39Z</time>
      </trkpt>
      <trkpt lat="45.9198" lon="6.51752">
        <ele>2332</ele>
        <time>2017-08-29T08:35:40Z</time>
      </trkpt>
      <trkpt lat="45.91981" lon="6.51752">
        <ele>2332</ele>
        <time>2017-08-29T08:35:41Z</time>
      </trkpt>
      <trkpt lat="45.91981" lon="6.51752">
        <ele>2332</ele>
        <time>2017-08-29T08:35:42Z</time>
      </trkpt>
      <trkpt lat="45.91981" lon="6.51752">
        <ele>2332</ele>
        <time>2017-08-29T08:35:43Z</time>
      </trkpt>
      <trkpt lat="45.91981" lon="6.51752">
        <ele>2333</ele>
        <time>2017-08-29T08:35:44Z</time>
      </trkpt>
      <trkpt lat="45.91981" lon="6.51752">
        <ele>2333</ele>
        <time>2017-08-29T08:35:45Z</time>
      </trkpt>
      <trkpt lat="45.91982" lon="6.51752">
        <ele>2333</ele>
        <time>2017-08-29T08:35:46Z</time>
      </trkpt>
      <trkpt lat="45.91982" lon="6.51752">
        <ele>2332</ele>
        <time>2017-08-29T08:35:47Z</time>
      </trkpt>
      <trkpt lat="45.91982" lon="6.51752">
        <ele>2332</ele>
        <time>2017-08-29T08:35:48Z</time>
      </trkpt>
      <trkpt lat="45.91982" lon="6.51752">
        <ele>2332</ele>
        <time>2017-08-29T08:35:49Z</time>
      </trkpt>
      <trkpt lat="45.91983" lon="6.51751">
        <ele>2332</ele>
        <time>2017-08-29T08:35:50Z</time>
      </trkpt>
      <trkpt lat="45.91983" lon="6.51751">
        <ele>2332</ele>
        <time>2017-08-29T08:35:51Z</time>
      </trkpt>
      <trkpt lat="45.91983" lon="6.51751">
        <ele>2332</ele>
        <time>2017-08-29T08:35:52Z</time>
      </trkpt>
      <trkpt lat="45.91983" lon="6.51751">
        <ele>2332</ele>
        <time>2017-08-29T08:35:53Z</time>
      </trkpt>
      <trkpt lat="45.91984" lon="6.51751">
        <ele>2332</ele>
        <time>2017-08-29T08:35:54Z</time>
      </trkpt>
      <trkpt lat="45.91984" lon="6.51751">
        <ele>2332</ele>
        <time>2017-08-29T08:35:55Z</time>
      </trkpt>
      <trkpt lat="45.91984" lon="6.51751">
        <ele>2332</ele>
        <time>2017-08-29T08:35:56Z</time>
      </trkpt>
      <trkpt lat="45.91984" lon="6.51751">
        <ele>2332</ele>
        <time>2017-08-29T08:35:57Z</time>
      </trkpt>
      <trkpt lat="45.91984" lon="6.5175">
        <ele>2331</ele>
        <time>2017-08-29T08:35:58Z</time>
      </trkpt>
      <trkpt lat="45.91985" lon="6.5175">
        <ele>2331</ele>
        <time>2017-08-29T08:35:59Z</time>
      </trkpt>
      <trkpt lat="45.91985" lon="6.5175">
        <ele>2331</ele>
        <time>2017-08-29T08:36:00Z</time>
      </trkpt>
      <trkpt lat="45.91985" lon="6.5175">
        <ele>2331</ele>
        <time>2017-08-29T08:36:01Z</time>
      </trkpt>
      <trkpt lat="45.91985" lon="6.51749">
        <ele>2331</ele>
        <time>2017-08-29T08:36:02Z</time>
      </trkpt>
      <trkpt lat="45.91986" lon="6.51749">
        <ele>2331</ele>
        <time>2017-08-29T08:36:03Z</time>
      </trkpt>
      <trkpt lat="45.91986" lon="6.51749">
        <ele>2331</ele>
        <time>2017-08-29T08:36:04Z</time>
      </trkpt>
      <trkpt lat="45.91986" lon="6.51749">
        <ele>2331</ele>
        <time>2017-08-29T08:36:05Z</time>
      </trkpt>
      <trkpt lat="45.91986" lon="6.51748">
        <ele>2331</ele>
        <time>2017-08-29T08:36:06Z</time>
      </trkpt>
      <trkpt lat="45.91986" lon="6.51748">
        <ele>2331</ele>
        <time>2017-08-29T08:36:07Z</time>
      </trkpt>
      <trkpt lat="45.91987" lon="6.51748">
        <ele>2331</ele>
        <time>2017-08-29T08:36:08Z</time>
      </trkpt>
      <trkpt lat="45.91987" lon="6.51747">
        <ele>2331</ele>
        <time>2017-08-29T08:36:09Z</time>
      </trkpt>
      <trkpt lat="45.91987" lon="6.51747">
        <ele>2331</ele>
        <time>2017-08-29T08:36:10Z</time>
      </trkpt>
      <trkpt lat="45.91987" lon="6.51747">
        <ele>2331</ele>
        <time>2017-08-29T08:36:11Z</time>
      </trkpt>
      <trkpt lat="45.91988" lon="6.51747">
        <ele>2331</ele>
        <time>2017-08-29T08:36:12Z</time>
      </trkpt>
      <trkpt lat="45.91988" lon="6.51746">
        <ele>2331</ele>
        <time>2017-08-29T08:36:13Z</time>
      </trkpt>
      <trkpt lat="45.91988" lon="6.51746">
        <ele>2331</ele>
        <time>2017-08-29T08:36:14Z</time>
      </trkpt>
      <trkpt lat="45.91988" lon="6.51746">
        <ele>2331</ele>
        <time>2017-08-29T08:36:15Z</time>
      </trkpt>
      <trkpt lat="45.91988" lon="6.51746">
        <ele>2330</ele>
        <time>2017-08-29T08:36:16Z</time>
      </trkpt>
      <trkpt lat="45.91989" lon="6.51745">
        <ele>2330</ele>
        <time>2017-08-29T08:36:17Z</time>
      </trkpt>
      <trkpt lat="45.91989" lon="6.51745">
        <ele>2330</ele>
        <time>2017-08-29T08:36:18Z</time>
      </trkpt>
      <trkpt lat="45.91989" lon="6.51745">
        <ele>2330</ele>
        <time>2017-08-29T08:36:19Z</time>
      </trkpt>
      <trkpt lat="45.91989" lon="6.51744">
        <ele>2330</ele>
        <time>2017-08-29T08:36:20Z</time>
      </trkpt>
      <trkpt lat="45.91989" lon="6.51744">
        <ele>2330</ele>
        <time>2017-08-29T08:36:21Z</time>
      </trkpt>
      <trkpt lat="45.9199" lon="6.51744">
        <ele>2329</ele>
        <time>2017-08-29T08:36:22Z</time>
      </trkpt>
      <trkpt lat="45.9199" lon="6.51744">
        <ele>2329</ele>
        <time>2017-08-29T08:36:23Z</time>
      </trkpt>
      <trkpt lat="45.9199" lon="6.51743">
        <ele>2329</ele>
        <time>2017-08-29T08:36:24Z</time>
      </trkpt>
      <trkpt lat="45.9199" lon="6.51743">
        <ele>2329</ele>
        <time>2017-08-29T08:36:25Z</time>
      </trkpt>
      <trkpt lat="45.91991" lon="6.51743">
        <ele>2329</ele>
        <time>2017-08-29T08:36:26Z</time>
      </trkpt>
      <trkpt lat="45.91991" lon="6.51743">
        <ele>2329</ele>
        <time>2017-08-29T08:36:27Z</time>
      </trkpt>
      <trkpt lat="45.91991" lon="6.51743">
        <ele>2329</ele>
        <time>2017-08-29T08:36:28Z</time>
      </trkpt>
      <trkpt lat="45.91991" lon="6.51743">
        <ele>2329</ele>
        <time>2017-08-29T08:36:29Z</time>
      </trkpt>
      <trkpt lat="45.9199" lon="6.51743">
        <ele>2329</ele>
        <time>2017-08-29T08:36:30Z</time>
      </trkpt>
      <trkpt lat="45.9199" lon="6.51743">
        <ele>2329</ele>
        <time>2017-08-29T08:36:31Z</time>
      </trkpt>
      <trkpt lat="45.9199" lon="6.51743">
        <ele>2329</ele>
        <time>2017-08-29T08:36:32Z</time>
      </trkpt>
      <trkpt lat="45.9199" lon="6.51743">
        <ele>2330</ele>
        <time>2017-08-29T08:36:33Z</time>
      </trkpt>
      <trkpt lat="45.9199" lon="6.51744">
        <ele>2330</ele>
        <time>2017-08-29T08:36:34Z</time>
      </trkpt>
      <trkpt lat="45.9199" lon="6.51744">
        <ele>2330</ele>
        <time>2017-08-29T08:36:35Z</time>
      </trkpt>
      <trkpt lat="45.9199" lon="6.51744">
        <ele>2330</ele>
        <time>2017-08-29T08:36:36Z</time>
      </trkpt>
      <trkpt lat="45.9199" lon="6.51744">
        <ele>2330</ele>
        <time>2017-08-29T08:36:37Z</time>
      </trkpt>
      <trkpt lat="45.91989" lon="6.51744">
        <ele>2329</ele>
        <time>2017-08-29T08:36:38Z</time>
      </trkpt>
      <trkpt lat="45.91989" lon="6.51744">
        <ele>2329</ele>
        <time>2017-08-29T08:36:39Z</time>
      </trkpt>
      <trkpt lat="45.91989" lon="6.51744">
        <ele>2329</ele>
        <time>2017-08-29T08:36:40Z</time>
      </trkpt>
      <trkpt lat="45.91989" lon="6.51745">
        <ele>2329</ele>
        <time>2017-08-29T08:36:41Z</time>
      </trkpt>
      <trkpt lat="45.91989" lon="6.51745">
        <ele>2330</ele>
        <time>2017-08-29T08:36:42Z</time>
      </trkpt>
      <trkpt lat="45.91989" lon="6.51745">
        <ele>2330</ele>
        <time>2017-08-29T08:36:43Z</time>
      </trkpt>
      <trkpt lat="45.91989" lon="6.51745">
        <ele>2330</ele>
        <time>2017-08-29T08:36:44Z</time>
      </trkpt>
      <trkpt lat="45.91989" lon="6.51745">
        <ele>2330</ele>
        <time>2017-08-29T08:36:45Z</time>
      </trkpt>
      <trkpt lat="45.91988" lon="6.51745">
        <ele>2330</ele>
        <time>2017-08-29T08:36:46Z</time>
      </trkpt>
      <trkpt lat="45.91988" lon="6.51745">
        <ele>2330</ele>
        <time>2017-08-29T08:36:47Z</time>
      </trkpt>
      <trkpt lat="45.91988" lon="6.51746">
        <ele>2330</ele>
        <time>2017-08-29T08:36:48Z</time>
      </trkpt>
      <trkpt lat="45.91988" lon="6.51746">
        <ele>2330</ele>
        <time>2017-08-29T08:36:49Z</time>
      </trkpt>
      <trkpt lat="45.91988" lon="6.51746">
        <ele>2330</ele>
        <time>2017-08-29T08:36:50Z</time>
      </trkpt>
      <trkpt lat="45.91988" lon="6.51746">
        <ele>2330</ele>
        <time>2017-08-29T08:36:51Z</time>
      </trkpt>
      <trkpt lat="45.91988" lon="6.51746">
        <ele>2330</ele>
        <time>2017-08-29T08:36:52Z</time>
      </trkpt>
      <trkpt lat="45.91988" lon="6.51746">
        <ele>2330</ele>
        <time>2017-08-29T08:36:53Z</time>
      </trkpt>
      <trkpt lat="45.91987" lon="6.51746">
        <ele>2330</ele>
        <time>2017-08-29T08:36:54Z</time>
      </trkpt>
      <trkpt lat="45.91987" lon="6.51747">
        <ele>2330</ele>
        <time>2017-08-29T08:36:55Z</time>
      </trkpt>
      <trkpt lat="45.91987" lon="6.51747">
        <ele>2330</ele>
        <time>2017-08-29T08:36:56Z</time>
      </trkpt>
      <trkpt lat="45.91987" lon="6.51747">
        <ele>2330</ele>
        <time>2017-08-29T08:36:57Z</time>
      </trkpt>
      <trkpt lat="45.91987" lon="6.51747">
        <ele>2330</ele>
        <time>2017-08-29T08:36:58Z</time>
      </trkpt>
      <trkpt lat="45.91987" lon="6.51747">
        <ele>2330</ele>
        <time>2017-08-29T08:36:59Z</time>
      </trkpt>
      <trkpt lat="45.91987" lon="6.51747">
        <ele>2330</ele>
        <time>2017-08-29T08:37:00Z</time>
      </trkpt>
      <trkpt lat="45.91987" lon="6.51747">
        <ele>2330</ele>
        <time>2017-08-29T08:37:01Z</time>
      </trkpt>
      <trkpt lat="45.91986" lon="6.51748">
        <ele>2330</ele>
        <time>2017-08-29T08:37:02Z</time>
      </trkpt>
      <trkpt lat="45.91986" lon="6.51748">
        <ele>2330</ele>
        <time>2017-08-29T08:37:03Z</time>
      </trkpt>
      <trkpt lat="45.91986" lon="6.51748">
        <ele>2330</ele>
        <time>2017-08-29T08:37:04Z</time>
      </trkpt>
      <trkpt lat="45.91986" lon="6.51748">
        <ele>2330</ele>
        <time>2017-08-29T08:37:05Z</time>
      </trkpt>
      <trkpt lat="45.91986" lon="6.51748">
        <ele>2330</ele>
        <time>2017-08-29T08:37:06Z</time>
      </trkpt>
      <trkpt lat="45.91986" lon="6.51748">
        <ele>2329</ele>
        <time>2017-08-29T08:37:07Z</time>
      </trkpt>
      <trkpt lat="45.91986" lon="6.51748">
        <ele>2329</ele>
        <time>2017-08-29T08:37:08Z</time>
      </trkpt>
      <trkpt lat="45.91986" lon="6.51749">
        <ele>2329</ele>
        <time>2017-08-29T08:37:09Z</time>
      </trkpt>
      <trkpt lat="45.91985" lon="6.51749">
        <ele>2329</ele>
        <time>2017-08-29T08:37:10Z</time>
      </trkpt>
      <trkpt lat="45.91985" lon="6.51749">
        <ele>2329</ele>
        <time>2017-08-29T08:37:11Z</time>
      </trkpt>
      <trkpt lat="45.91985" lon="6.51749">
        <ele>2329</ele>
        <time>2017-08-29T08:37:12Z</time>
      </trkpt>
      <trkpt lat="45.91985" lon="6.51749">
        <ele>2330</ele>
        <time>2017-08-29T08:37:13Z</time>
      </trkpt>
      <trkpt lat="45.91985" lon="6.51749">
        <ele>2330</ele>
        <time>2017-08-29T08:37:14Z</time>
      </trkpt>
      <trkpt lat="45.91985" lon="6.51749">
        <ele>2330</ele>
        <time>2017-08-29T08:37:15Z</time>
      </trkpt>
      <trkpt lat="45.91985" lon="6.5175">
        <ele>2330</ele>
        <time>2017-08-29T08:37:16Z</time>
      </trkpt>
      <trkpt lat="45.91985" lon="6.5175">
        <ele>2330</ele>
        <time>2017-08-29T08:37:17Z</time>
      </trkpt>
      <trkpt lat="45.91985" lon="6.5175">
        <ele>2330</ele>
        <time>2017-08-29T08:37:18Z</time>
      </trkpt>
      <trkpt lat="45.91984" lon="6.5175">
        <ele>2330</ele>
        <time>2017-08-29T08:37:19Z</time>
      </trkpt>
      <trkpt lat="45.91984" lon="6.5175">
        <ele>2330</ele>
        <time>2017-08-29T08:37:20Z</time>
      </trkpt>
      <trkpt lat="45.91984" lon="6.5175">
        <ele>2331</ele>
        <time>2017-08-29T08:37:21Z</time>
      </trkpt>
      <trkpt lat="45.91984" lon="6.5175">
        <ele>2331</ele>
        <time>2017-08-29T08:37:22Z</time>
      </trkpt>
      <trkpt lat="45.91984" lon="6.51751">
        <ele>2331</ele>
        <time>2017-08-29T08:37:23Z</time>
      </trkpt>
      <trkpt lat="45.91984" lon="6.51751">
        <ele>2331</ele>
        <time>2017-08-29T08:37:24Z</time>
      </trkpt>
      <trkpt lat="45.91984" lon="6.51751">
        <ele>2331</ele>
        <time>2017-08-29T08:37:25Z</time>
      </trkpt>
      <trkpt lat="45.91984" lon="6.51751">
        <ele>2331</ele>
        <time>2017-08-29T08:37:26Z</time>
      </trkpt>
      <trkpt lat="45.91983" lon="6.51751">
        <ele>2331</ele>
        <time>2017-08-29T08:37:27Z</time>
      </trkpt>
      <trkpt lat="45.91983" lon="6.51751">
        <ele>2331</ele>
        <time>2017-08-29T08:37:28Z</time>
      </trkpt>
      <trkpt lat="45.91983" lon="6.51751">
        <ele>2332</ele>
        <time>2017-08-29T08:37:29Z</time>
      </trkpt>
      <trkpt lat="45.91983" lon="6.51752">
        <ele>2332</ele>
        <time>2017-08-29T08:37:30Z</time>
      </trkpt>
      <trkpt lat="45.91983" lon="6.51752">
        <ele>2332</ele>
        <time>2017-08-29T08:37:31Z</time>
      </trkpt>
      <trkpt lat="45.91983" lon="6.51752">
        <ele>2333</ele>
        <time>2017-08-29T08:37:32Z</time>
      </trkpt>
      <trkpt lat="45.91983" lon="6.51753">
        <ele>2333</ele>
        <time>2017-08-29T08:37:33Z</time>
      </trkpt>
      <trkpt lat="45.91982" lon="6.51753">
        <ele>2333</ele>
        <time>2017-08-29T08:37:34Z</time>
      </trkpt>
      <trkpt lat="45.91982" lon="6.51754">
        <ele>2333</ele>
        <time>2017-08-29T08:37:35Z</time>
      </trkpt>
      <trkpt lat="45.91982" lon="6.51754">
        <ele>2333</ele>
        <time>2017-08-29T08:37:36Z</time>
      </trkpt>
      <trkpt lat="45.91982" lon="6.51755">
        <ele>2333</ele>
        <time>2017-08-29T08:37:37Z</time>
      </trkpt>
      <trkpt lat="45.91982" lon="6.51755">
        <ele>2333</ele>
        <time>2017-08-29T08:37:38Z</time>
      </trkpt>
      <trkpt lat="45.91982" lon="6.51756">
        <ele>2334</ele>
        <time>2017-08-29T08:37:39Z</time>
      </trkpt>
      <trkpt lat="45.91982" lon="6.51756">
        <ele>2334</ele>
        <time>2017-08-29T08:37:40Z</time>
      </trkpt>
      <trkpt lat="45.91981" lon="6.51757">
        <ele>2334</ele>
        <time>2017-08-29T08:37:41Z</time>
      </trkpt>
      <trkpt lat="45.91981" lon="6.51757">
        <ele>2334</ele>
        <time>2017-08-29T08:37:42Z</time>
      </trkpt>
      <trkpt lat="45.91981" lon="6.51758">
        <ele>2334</ele>
        <time>2017-08-29T08:37:43Z</time>
      </trkpt>
      <trkpt lat="45.91981" lon="6.51758">
        <ele>2334</ele>
        <time>2017-08-29T08:37:44Z</time>
      </trkpt>
      <trkpt lat="45.91981" lon="6.51758">
        <ele>2334</ele>
        <time>2017-08-29T08:37:45Z</time>
      </trkpt>
      <trkpt lat="45.91981" lon="6.51759">
        <ele>2334</ele>
        <time>2017-08-29T08:37:46Z</time>
      </trkpt>
      <trkpt lat="45.91981" lon="6.51759">
        <ele>2335</ele>
        <time>2017-08-29T08:37:47Z</time>
      </trkpt>
      <trkpt lat="45.9198" lon="6.5176">
        <ele>2335</ele>
        <time>2017-08-29T08:37:48Z</time>
      </trkpt>
      <trkpt lat="45.9198" lon="6.5176">
        <ele>2335</ele>
        <time>2017-08-29T08:37:49Z</time>
      </trkpt>
      <trkpt lat="45.9198" lon="6.51761">
        <ele>2335</ele>
        <time>2017-08-29T08:37:50Z</time>
      </trkpt>
      <trkpt lat="45.9198" lon="6.51761">
        <ele>2335</ele>
        <time>2017-08-29T08:37:51Z</time>
      </trkpt>
      <trkpt lat="45.9198" lon="6.51762">
        <ele>2335</ele>
        <time>2017-08-29T08:37:52Z</time>
      </trkpt>
      <trkpt lat="45.9198" lon="6.51762">
        <ele>2335</ele>
        <time>2017-08-29T08:37:53Z</time>
      </trkpt>
      <trkpt lat="45.91979" lon="6.51763">
        <ele>2336</ele>
        <time>2017-08-29T08:37:54Z</time>
      </trkpt>
      <trkpt lat="45.91979" lon="6.51763">
        <ele>2336</ele>
        <time>2017-08-29T08:37:55Z</time>
      </trkpt>
      <trkpt lat="45.91979" lon="6.51764">
        <ele>2337</ele>
        <time>2017-08-29T08:37:56Z</time>
      </trkpt>
      <trkpt lat="45.91979" lon="6.51764">
        <ele>2337</ele>
        <time>2017-08-29T08:37:57Z</time>
      </trkpt>
      <trkpt lat="45.91979" lon="6.51765">
        <ele>2337</ele>
        <time>2017-08-29T08:37:58Z</time>
      </trkpt>
      <trkpt lat="45.91979" lon="6.51765">
        <ele>2337</ele>
        <time>2017-08-29T08:37:59Z</time>
      </trkpt>
      <trkpt lat="45.91979" lon="6.51766">
        <ele>2337</ele>
        <time>2017-08-29T08:38:00Z</time>
      </trkpt>
      <trkpt lat="45.91979" lon="6.51766">
        <ele>2337</ele>
        <time>2017-08-29T08:38:01Z</time>
      </trkpt>
      <trkpt lat="45.91979" lon="6.51767">
        <ele>2337</ele>
        <time>2017-08-29T08:38:02Z</time>
      </trkpt>
      <trkpt lat="45.91979" lon="6.51767">
        <ele>2337</ele>
        <time>2017-08-29T08:38:03Z</time>
      </trkpt>
      <trkpt lat="45.91979" lon="6.51768">
        <ele>2337</ele>
        <time>2017-08-29T08:38:04Z</time>
      </trkpt>
      <trkpt lat="45.91979" lon="6.51768">
        <ele>2337</ele>
        <time>2017-08-29T08:38:05Z</time>
      </trkpt>
      <trkpt lat="45.91978" lon="6.51769">
        <ele>2337</ele>
        <time>2017-08-29T08:38:06Z</time>
      </trkpt>
      <trkpt lat="45.91978" lon="6.51769">
        <ele>2337</ele>
        <time>2017-08-29T08:38:07Z</time>
      </trkpt>
      <trkpt lat="45.91978" lon="6.5177">
        <ele>2337</ele>
        <time>2017-08-29T08:38:08Z</time>
      </trkpt>
      <trkpt lat="45.91978" lon="6.5177">
        <ele>2338</ele>
        <time>2017-08-29T08:38:09Z</time>
      </trkpt>
      <trkpt lat="45.91978" lon="6.51771">
        <ele>2339</ele>
        <time>2017-08-29T08:38:10Z</time>
      </trkpt>
      <trkpt lat="45.91978" lon="6.51771">
        <ele>2339</ele>
        <time>2017-08-29T08:38:11Z</time>
      </trkpt>
      <trkpt lat="45.91978" lon="6.51772">
        <ele>2339</ele>
        <time>2017-08-29T08:38:12Z</time>
      </trkpt>
      <trkpt lat="45.91978" lon="6.51772">
        <ele>2339</ele>
        <time>2017-08-29T08:38:13Z</time>
      </trkpt>
      <trkpt lat="45.91978" lon="6.51773">
        <ele>2340</ele>
        <time>2017-08-29T08:38:14Z</time>
      </trkpt>
      <trkpt lat="45.91978" lon="6.51773">
        <ele>2340</ele>
        <time>2017-08-29T08:38:15Z</time>
      </trkpt>
      <trkpt lat="45.91978" lon="6.51774">
        <ele>2340</ele>
        <time>2017-08-29T08:38:16Z</time>
      </trkpt>
      <trkpt lat="45.91978" lon="6.51774">
        <ele>2340</ele>
        <time>2017-08-29T08:38:17Z</time>
      </trkpt>
      <trkpt lat="45.91978" lon="6.51775">
        <ele>2340</ele>
        <time>2017-08-29T08:38:18Z</time>
      </trkpt>
      <trkpt lat="45.91978" lon="6.51775">
        <ele>2340</ele>
        <time>2017-08-29T08:38:19Z</time>
      </trkpt>
      <trkpt lat="45.91978" lon="6.51776">
        <ele>2341</ele>
        <time>2017-08-29T08:38:20Z</time>
      </trkpt>
      <trkpt lat="45.91977" lon="6.51776">
        <ele>2341</ele>
        <time>2017-08-29T08:38:21Z</time>
      </trkpt>
      <trkpt lat="45.91978" lon="6.51777">
        <ele>2341</ele>
        <time>2017-08-29T08:38:22Z</time>
      </trkpt>
      <trkpt lat="45.91978" lon="6.51777">
        <ele>2341</ele>
        <time>2017-08-29T08:38:23Z</time>
      </trkpt>
      <trkpt lat="45.91978" lon="6.51777">
        <ele>2341</ele>
        <time>2017-08-29T08:38:24Z</time>
      </trkpt>
      <trkpt lat="45.91978" lon="6.51778">
        <ele>2341</ele>
        <time>2017-08-29T08:38:25Z</time>
      </trkpt>
      <trkpt lat="45.91978" lon="6.51778">
        <ele>2342</ele>
        <time>2017-08-29T08:38:26Z</time>
      </trkpt>
      <trkpt lat="45.91979" lon="6.51779">
        <ele>2342</ele>
        <time>2017-08-29T08:38:27Z</time>
      </trkpt>
      <trkpt lat="45.91979" lon="6.51779">
        <ele>2342</ele>
        <time>2017-08-29T08:38:28Z</time>
      </trkpt>
      <trkpt lat="45.91979" lon="6.51779">
        <ele>2342</ele>
        <time>2017-08-29T08:38:29Z</time>
      </trkpt>
      <trkpt lat="45.91979" lon="6.5178">
        <ele>2342</ele>
        <time>2017-08-29T08:38:30Z</time>
      </trkpt>
      <trkpt lat="45.91979" lon="6.5178">
        <ele>2342</ele>
        <time>2017-08-29T08:38:31Z</time>
      </trkpt>
      <trkpt lat="45.91979" lon="6.5178">
        <ele>2342</ele>
        <time>2017-08-29T08:38:32Z</time>
      </trkpt>
      <trkpt lat="45.9198" lon="6.51781">
        <ele>2343</ele>
        <time>2017-08-29T08:38:33Z</time>
      </trkpt>
      <trkpt lat="45.9198" lon="6.51781">
        <ele>2343</ele>
        <time>2017-08-29T08:38:34Z</time>
      </trkpt>
      <trkpt lat="45.9198" lon="6.51781">
        <ele>2344</ele>
        <time>2017-08-29T08:38:35Z</time>
      </trkpt>
      <trkpt lat="45.9198" lon="6.51782">
        <ele>2344</ele>
        <time>2017-08-29T08:38:36Z</time>
      </trkpt>
      <trkpt lat="45.9198" lon="6.51782">
        <ele>2344</ele>
        <time>2017-08-29T08:38:37Z</time>
      </trkpt>
      <trkpt lat="45.9198" lon="6.51783">
        <ele>2344</ele>
        <time>2017-08-29T08:38:38Z</time>
      </trkpt>
      <trkpt lat="45.91981" lon="6.51783">
        <ele>2344</ele>
        <time>2017-08-29T08:38:39Z</time>
      </trkpt>
      <trkpt lat="45.91981" lon="6.51783">
        <ele>2344</ele>
        <time>2017-08-29T08:38:40Z</time>
      </trkpt>
      <trkpt lat="45.91981" lon="6.51784">
        <ele>2344</ele>
        <time>2017-08-29T08:38:41Z</time>
      </trkpt>
      <trkpt lat="45.91981" lon="6.51784">
        <ele>2345</ele>
        <time>2017-08-29T08:38:42Z</time>
      </trkpt>
      <trkpt lat="45.91981" lon="6.51784">
        <ele>2345</ele>
        <time>2017-08-29T08:38:43Z</time>
      </trkpt>
      <trkpt lat="45.91982" lon="6.51785">
        <ele>2345</ele>
        <time>2017-08-29T08:38:44Z</time>
      </trkpt>
      <trkpt lat="45.91982" lon="6.51785">
        <ele>2345</ele>
        <time>2017-08-29T08:38:45Z</time>
      </trkpt>
      <trkpt lat="45.91982" lon="6.51786">
        <ele>2345</ele>
        <time>2017-08-29T08:38:46Z</time>
      </trkpt>
      <trkpt lat="45.91982" lon="6.51786">
        <ele>2345</ele>
        <time>2017-08-29T08:38:47Z</time>
      </trkpt>
      <trkpt lat="45.91982" lon="6.51786">
        <ele>2346</ele>
        <time>2017-08-29T08:38:48Z</time>
      </trkpt>
      <trkpt lat="45.91982" lon="6.51787">
        <ele>2346</ele>
        <time>2017-08-29T08:38:49Z</time>
      </trkpt>
      <trkpt lat="45.91983" lon="6.51787">
        <ele>2346</ele>
        <time>2017-08-29T08:38:50Z</time>
      </trkpt>
      <trkpt lat="45.91983" lon="6.51787">
        <ele>2346</ele>
        <time>2017-08-29T08:38:51Z</time>
      </trkpt>
      <trkpt lat="45.91983" lon="6.51788">
        <ele>2346</ele>
        <time>2017-08-29T08:38:52Z</time>
      </trkpt>
      <trkpt lat="45.91983" lon="6.51788">
        <ele>2346</ele>
        <time>2017-08-29T08:38:53Z</time>
      </trkpt>
      <trkpt lat="45.91983" lon="6.51789">
        <ele>2347</ele>
        <time>2017-08-29T08:38:54Z</time>
      </trkpt>
      <trkpt lat="45.91982" lon="6.51789">
        <ele>2347</ele>
        <time>2017-08-29T08:38:55Z</time>
      </trkpt>
      <trkpt lat="45.91982" lon="6.5179">
        <ele>2347</ele>
        <time>2017-08-29T08:38:56Z</time>
      </trkpt>
      <trkpt lat="45.91982" lon="6.5179">
        <ele>2347</ele>
        <time>2017-08-29T08:38:57Z</time>
      </trkpt>
      <trkpt lat="45.91982" lon="6.51791">
        <ele>2347</ele>
        <time>2017-08-29T08:38:58Z</time>
      </trkpt>
      <trkpt lat="45.91982" lon="6.51791">
        <ele>2347</ele>
        <time>2017-08-29T08:38:59Z</time>
      </trkpt>
      <trkpt lat="45.91982" lon="6.51792">
        <ele>2347</ele>
        <time>2017-08-29T08:39:00Z</time>
      </trkpt>
      <trkpt lat="45.91982" lon="6.51792">
        <ele>2348</ele>
        <time>2017-08-29T08:39:01Z</time>
      </trkpt>
      <trkpt lat="45.91982" lon="6.51793">
        <ele>2348</ele>
        <time>2017-08-29T08:39:02Z</time>
      </trkpt>
      <trkpt lat="45.91982" lon="6.51793">
        <ele>2348</ele>
        <time>2017-08-29T08:39:03Z</time>
      </trkpt>
      <trkpt lat="45.91982" lon="6.51794">
        <ele>2349</ele>
        <time>2017-08-29T08:39:04Z</time>
      </trkpt>
      <trkpt lat="45.91982" lon="6.51794">
        <ele>2349</ele>
        <time>2017-08-29T08:39:05Z</time>
      </trkpt>
      <trkpt lat="45.91982" lon="6.51795">
        <ele>2349</ele>
        <time>2017-08-29T08:39:06Z</time>
      </trkpt>
      <trkpt lat="45.91981" lon="6.51795">
        <ele>2349</ele>
        <time>2017-08-29T08:39:07Z</time>
      </trkpt>
      <trkpt lat="45.91981" lon="6.51796">
        <ele>2349</ele>
        <time>2017-08-29T08:39:08Z</time>
      </trkpt>
      <trkpt lat="45.91981" lon="6.51796">
        <ele>2349</ele>
        <time>2017-08-29T08:39:09Z</time>
      </trkpt>
      <trkpt lat="45.91981" lon="6.51797">
        <ele>2349</ele>
        <time>2017-08-29T08:39:10Z</time>
      </trkpt>
      <trkpt lat="45.91981" lon="6.51797">
        <ele>2350</ele>
        <time>2017-08-29T08:39:11Z</time>
      </trkpt>
      <trkpt lat="45.91981" lon="6.51798">
        <ele>2350</ele>
        <time>2017-08-29T08:39:12Z</time>
      </trkpt>
      <trkpt lat="45.91981" lon="6.51798">
        <ele>2350</ele>
        <time>2017-08-29T08:39:13Z</time>
      </trkpt>
      <trkpt lat="45.91981" lon="6.51799">
        <ele>2350</ele>
        <time>2017-08-29T08:39:14Z</time>
      </trkpt>
      <trkpt lat="45.91981" lon="6.51799">
        <ele>2350</ele>
        <time>2017-08-29T08:39:15Z</time>
      </trkpt>
      <trkpt lat="45.91981" lon="6.518">
        <ele>2350</ele>
        <time>2017-08-29T08:39:16Z</time>
      </trkpt>
      <trkpt lat="45.91981" lon="6.518">
        <ele>2350</ele>
        <time>2017-08-29T08:39:17Z</time>
      </trkpt>
      <trkpt lat="45.91981" lon="6.518">
        <ele>2351</ele>
        <time>2017-08-29T08:39:18Z</time>
      </trkpt>
      <trkpt lat="45.91981" lon="6.518">
        <ele>2351</ele>
        <time>2017-08-29T08:39:19Z</time>
      </trkpt>
      <trkpt lat="45.91981" lon="6.51801">
        <ele>2351</ele>
        <time>2017-08-29T08:39:20Z</time>
      </trkpt>
      <trkpt lat="45.91981" lon="6.51801">
        <ele>2351</ele>
        <time>2017-08-29T08:39:21Z</time>
      </trkpt>
      <trkpt lat="45.91981" lon="6.51801">
        <ele>2351</ele>
        <time>2017-08-29T08:39:22Z</time>
      </trkpt>
      <trkpt lat="45.91981" lon="6.51801">
        <ele>2351</ele>
        <time>2017-08-29T08:39:23Z</time>
      </trkpt>
      <trkpt lat="45.91981" lon="6.51801">
        <ele>2351</ele>
        <time>2017-08-29T08:39:24Z</time>
      </trkpt>
      <trkpt lat="45.91981" lon="6.51802">
        <ele>2351</ele>
        <time>2017-08-29T08:39:25Z</time>
      </trkpt>
      <trkpt lat="45.91981" lon="6.51802">
        <ele>2351</ele>
        <time>2017-08-29T08:39:26Z</time>
      </trkpt>
      <trkpt lat="45.91981" lon="6.51802">
        <ele>2351</ele>
        <time>2017-08-29T08:39:27Z</time>
      </trkpt>
      <trkpt lat="45.91981" lon="6.51802">
        <ele>2351</ele>
        <time>2017-08-29T08:39:28Z</time>
      </trkpt>
      <trkpt lat="45.91981" lon="6.51802">
        <ele>2351</ele>
        <time>2017-08-29T08:39:29Z</time>
      </trkpt>
      <trkpt lat="45.91981" lon="6.51803">
        <ele>2351</ele>
        <time>2017-08-29T08:39:30Z</time>
      </trkpt>
      <trkpt lat="45.91981" lon="6.51803">
        <ele>2351</ele>
        <time>2017-08-29T08:39:31Z</time>
      </trkpt>
      <trkpt lat="45.91981" lon="6.51803">
        <ele>2351</ele>
        <time>2017-08-29T08:39:32Z</time>
      </trkpt>
      <trkpt lat="45.91981" lon="6.51803">
        <ele>2351</ele>
        <time>2017-08-29T08:39:33Z</time>
      </trkpt>
      <trkpt lat="45.91981" lon="6.51803">
        <ele>2351</ele>
        <time>2017-08-29T08:39:34Z</time>
      </trkpt>
      <trkpt lat="45.91981" lon="6.51804">
        <ele>2351</ele>
        <time>2017-08-29T08:39:35Z</time>
      </trkpt>
      <trkpt lat="45.91981" lon="6.51804">
        <ele>2351</ele>
        <time>2017-08-29T08:39:36Z</time>
      </trkpt>
      <trkpt lat="45.91981" lon="6.51804">
        <ele>2351</ele>
        <time>2017-08-29T08:39:37Z</time>
      </trkpt>
      <trkpt lat="45.91981" lon="6.51804">
        <ele>2351</ele>
        <time>2017-08-29T08:39:38Z</time>
      </trkpt>
      <trkpt lat="45.91981" lon="6.51804">
        <ele>2351</ele>
        <time>2017-08-29T08:39:39Z</time>
      </trkpt>
      <trkpt lat="45.91981" lon="6.51805">
        <ele>2351</ele>
        <time>2017-08-29T08:39:40Z</time>
      </trkpt>
      <trkpt lat="45.91981" lon="6.51805">
        <ele>2351</ele>
        <time>2017-08-29T08:39:41Z</time>
      </trkpt>
      <trkpt lat="45.91981" lon="6.51805">
        <ele>2351</ele>
        <time>2017-08-29T08:39:42Z</time>
      </trkpt>
      <trkpt lat="45.91981" lon="6.51805">
        <ele>2351</ele>
        <time>2017-08-29T08:39:43Z</time>
      </trkpt>
      <trkpt lat="45.91981" lon="6.51805">
        <ele>2351</ele>
        <time>2017-08-29T08:39:44Z</time>
      </trkpt>
      <trkpt lat="45.91981" lon="6.51806">
        <ele>2351</ele>
        <time>2017-08-29T08:39:45Z</time>
      </trkpt>
      <trkpt lat="45.91981" lon="6.51806">
        <ele>2352</ele>
        <time>2017-08-29T08:39:46Z</time>
      </trkpt>
      <trkpt lat="45.91981" lon="6.51806">
        <ele>2352</ele>
        <time>2017-08-29T08:39:47Z</time>
      </trkpt>
      <trkpt lat="45.91981" lon="6.51806">
        <ele>2352</ele>
        <time>2017-08-29T08:39:48Z</time>
      </trkpt>
      <trkpt lat="45.91981" lon="6.51806">
        <ele>2352</ele>
        <time>2017-08-29T08:39:49Z</time>
      </trkpt>
      <trkpt lat="45.91981" lon="6.51806">
        <ele>2352</ele>
        <time>2017-08-29T08:39:50Z</time>
      </trkpt>
      <trkpt lat="45.91981" lon="6.51807">
        <ele>2352</ele>
        <time>2017-08-29T08:39:51Z</time>
      </trkpt>
      <trkpt lat="45.91981" lon="6.51807">
        <ele>2353</ele>
        <time>2017-08-29T08:39:52Z</time>
      </trkpt>
      <trkpt lat="45.91981" lon="6.51807">
        <ele>2353</ele>
        <time>2017-08-29T08:39:53Z</time>
      </trkpt>
      <trkpt lat="45.91981" lon="6.51807">
        <ele>2355</ele>
        <time>2017-08-29T08:39:54Z</time>
      </trkpt>
      <trkpt lat="45.91981" lon="6.51807">
        <ele>2355</ele>
        <time>2017-08-29T08:39:55Z</time>
      </trkpt>
      <trkpt lat="45.91981" lon="6.51808">
        <ele>2355</ele>
        <time>2017-08-29T08:39:56Z</time>
      </trkpt>
      <trkpt lat="45.91981" lon="6.51808">
        <ele>2355</ele>
        <time>2017-08-29T08:39:57Z</time>
      </trkpt>
      <trkpt lat="45.91981" lon="6.51808">
        <ele>2356</ele>
        <time>2017-08-29T08:39:58Z</time>
      </trkpt>
      <trkpt lat="45.91981" lon="6.51808">
        <ele>2356</ele>
        <time>2017-08-29T08:39:59Z</time>
      </trkpt>
      <trkpt lat="45.91981" lon="6.51808">
        <ele>2356</ele>
        <time>2017-08-29T08:40:00Z</time>
      </trkpt>
      <trkpt lat="45.91981" lon="6.51809">
        <ele>2357</ele>
        <time>2017-08-29T08:40:01Z</time>
      </trkpt>
      <trkpt lat="45.91981" lon="6.51809">
        <ele>2357</ele>
        <time>2017-08-29T08:40:02Z</time>
      </trkpt>
      <trkpt lat="45.91981" lon="6.51809">
        <ele>2357</ele>
        <time>2017-08-29T08:40:03Z</time>
      </trkpt>
      <trkpt lat="45.91981" lon="6.51809">
        <ele>2357</ele>
        <time>2017-08-29T08:40:04Z</time>
      </trkpt>
      <trkpt lat="45.91981" lon="6.51809">
        <ele>2357</ele>
        <time>2017-08-29T08:40:05Z</time>
      </trkpt>
      <trkpt lat="45.91981" lon="6.5181">
        <ele>2357</ele>
        <time>2017-08-29T08:40:06Z</time>
      </trkpt>
      <trkpt lat="45.91981" lon="6.5181">
        <ele>2357</ele>
        <time>2017-08-29T08:40:07Z</time>
      </trkpt>
      <trkpt lat="45.91981" lon="6.5181">
        <ele>2357</ele>
        <time>2017-08-29T08:40:08Z</time>
      </trkpt>
      <trkpt lat="45.91981" lon="6.5181">
        <ele>2357</ele>
        <time>2017-08-29T08:40:09Z</time>
      </trkpt>
      <trkpt lat="45.91981" lon="6.5181">
        <ele>2358</ele>
        <time>2017-08-29T08:40:10Z</time>
      </trkpt>
      <trkpt lat="45.91981" lon="6.51811">
        <ele>2358</ele>
        <time>2017-08-29T08:40:11Z</time>
      </trkpt>
      <trkpt lat="45.91981" lon="6.51811">
        <ele>2358</ele>
        <time>2017-08-29T08:40:12Z</time>
      </trkpt>
      <trkpt lat="45.91981" lon="6.51811">
        <ele>2358</ele>
        <time>2017-08-29T08:40:13Z</time>
      </trkpt>
      <trkpt lat="45.91981" lon="6.51811">
        <ele>2359</ele>
        <time>2017-08-29T08:40:14Z</time>
      </trkpt>
      <trkpt lat="45.91981" lon="6.51811">
        <ele>2359</ele>
        <time>2017-08-29T08:40:15Z</time>
      </trkpt>
      <trkpt lat="45.91981" lon="6.51812">
        <ele>2359</ele>
        <time>2017-08-29T08:40:16Z</time>
      </trkpt>
      <trkpt lat="45.91981" lon="6.51812">
        <ele>2359</ele>
        <time>2017-08-29T08:40:17Z</time>
      </trkpt>
      <trkpt lat="45.91982" lon="6.51812">
        <ele>2359</ele>
        <time>2017-08-29T08:40:18Z</time>
      </trkpt>
      <trkpt lat="45.91982" lon="6.51812">
        <ele>2359</ele>
        <time>2017-08-29T08:40:19Z</time>
      </trkpt>
      <trkpt lat="45.91982" lon="6.51812">
        <ele>2359</ele>
        <time>2017-08-29T08:40:20Z</time>
      </trkpt>
      <trkpt lat="45.91982" lon="6.51813">
        <ele>2359</ele>
        <time>2017-08-29T08:40:21Z</time>
      </trkpt>
      <trkpt lat="45.91982" lon="6.51813">
        <ele>2359</ele>
        <time>2017-08-29T08:40:22Z</time>
      </trkpt>
      <trkpt lat="45.91982" lon="6.51813">
        <ele>2359</ele>
        <time>2017-08-29T08:40:23Z</time>
      </trkpt>
      <trkpt lat="45.91983" lon="6.51814">
        <ele>2359</ele>
        <time>2017-08-29T08:40:24Z</time>
      </trkpt>
      <trkpt lat="45.91983" lon="6.51814">
        <ele>2359</ele>
        <time>2017-08-29T08:40:25Z</time>
      </trkpt>
      <trkpt lat="45.91983" lon="6.51814">
        <ele>2359</ele>
        <time>2017-08-29T08:40:26Z</time>
      </trkpt>
      <trkpt lat="45.91983" lon="6.51814">
        <ele>2359</ele>
        <time>2017-08-29T08:40:27Z</time>
      </trkpt>
      <trkpt lat="45.91983" lon="6.51814">
        <ele>2359</ele>
        <time>2017-08-29T08:40:28Z</time>
      </trkpt>
      <trkpt lat="45.91983" lon="6.51814">
        <ele>2359</ele>
        <time>2017-08-29T08:40:29Z</time>
      </trkpt>
      <trkpt lat="45.91983" lon="6.51814">
        <ele>2359</ele>
        <time>2017-08-29T08:40:30Z</time>
      </trkpt>
      <trkpt lat="45.91983" lon="6.51814">
        <ele>2360</ele>
        <time>2017-08-29T08:40:31Z</time>
      </trkpt>
      <trkpt lat="45.91983" lon="6.51814">
        <ele>2360</ele>
        <time>2017-08-29T08:40:32Z</time>
      </trkpt>
      <trkpt lat="45.91983" lon="6.51814">
        <ele>2360</ele>
        <time>2017-08-29T08:40:33Z</time>
      </trkpt>
      <trkpt lat="45.91982" lon="6.51812">
        <ele>2360</ele>
        <time>2017-08-29T08:40:34Z</time>
      </trkpt>
      <trkpt lat="45.91982" lon="6.51812">
        <ele>2360</ele>
        <time>2017-08-29T08:40:35Z</time>
      </trkpt>
      <trkpt lat="45.91982" lon="6.51812">
        <ele>2360</ele>
        <time>2017-08-29T08:40:36Z</time>
      </trkpt>
      <trkpt lat="45.91981" lon="6.5181">
        <ele>2360</ele>
        <time>2017-08-29T08:40:37Z</time>
      </trkpt>
      <trkpt lat="45.91981" lon="6.5181">
        <ele>2360</ele>
        <time>2017-08-29T08:40:38Z</time>
      </trkpt>
      <trkpt lat="45.91981" lon="6.5181">
        <ele>2360</ele>
        <time>2017-08-29T08:40:39Z</time>
      </trkpt>
      <trkpt lat="45.91981" lon="6.5181">
        <ele>2360</ele>
        <time>2017-08-29T08:40:40Z</time>
      </trkpt>
      <trkpt lat="45.91981" lon="6.5181">
        <ele>2360</ele>
        <time>2017-08-29T08:40:41Z</time>
      </trkpt>
      <trkpt lat="45.91981" lon="6.5181">
        <ele>2360</ele>
        <time>2017-08-29T08:40:42Z</time>
      </trkpt>
      <trkpt lat="45.91981" lon="6.5181">
        <ele>2360</ele>
        <time>2017-08-29T08:40:43Z</time>
      </trkpt>
      <trkpt lat="45.9198" lon="6.51807">
        <ele>2360</ele>
        <time>2017-08-29T08:40:44Z</time>
      </trkpt>
      <trkpt lat="45.9198" lon="6.51807">
        <ele>2360</ele>
        <time>2017-08-29T08:40:45Z</time>
      </trkpt>
      <trkpt lat="45.91981" lon="6.51807">
        <ele>2360</ele>
        <time>2017-08-29T08:40:46Z</time>
      </trkpt>
      <trkpt lat="45.91981" lon="6.51808">
        <ele>2360</ele>
        <time>2017-08-29T08:40:47Z</time>
      </trkpt>
      <trkpt lat="45.91982" lon="6.51808">
        <ele>2360</ele>
        <time>2017-08-29T08:40:48Z</time>
      </trkpt>
      <trkpt lat="45.91982" lon="6.51808">
        <ele>2360</ele>
        <time>2017-08-29T08:40:49Z</time>
      </trkpt>
      <trkpt lat="45.91983" lon="6.51808">
        <ele>2359</ele>
        <time>2017-08-29T08:40:50Z</time>
      </trkpt>
      <trkpt lat="45.91983" lon="6.51809">
        <ele>2360</ele>
        <time>2017-08-29T08:40:51Z</time>
      </trkpt>
      <trkpt lat="45.91984" lon="6.51809">
        <ele>2360</ele>
        <time>2017-08-29T08:40:52Z</time>
      </trkpt>
      <trkpt lat="45.91985" lon="6.51809">
        <ele>2360</ele>
        <time>2017-08-29T08:40:53Z</time>
      </trkpt>
      <trkpt lat="45.91985" lon="6.51809">
        <ele>2360</ele>
        <time>2017-08-29T08:40:54Z</time>
      </trkpt>
      <trkpt lat="45.91986" lon="6.5181">
        <ele>2360</ele>
        <time>2017-08-29T08:40:55Z</time>
      </trkpt>
      <trkpt lat="45.91986" lon="6.5181">
        <ele>2360</ele>
        <time>2017-08-29T08:40:56Z</time>
      </trkpt>
      <trkpt lat="45.91987" lon="6.5181">
        <ele>2360</ele>
        <time>2017-08-29T08:40:57Z</time>
      </trkpt>
      <trkpt lat="45.91987" lon="6.5181">
        <ele>2360</ele>
        <time>2017-08-29T08:40:58Z</time>
      </trkpt>
      <trkpt lat="45.91988" lon="6.5181">
        <ele>2360</ele>
        <time>2017-08-29T08:40:59Z</time>
      </trkpt>
      <trkpt lat="45.91988" lon="6.51811">
        <ele>2360</ele>
        <time>2017-08-29T08:41:00Z</time>
      </trkpt>
      <trkpt lat="45.91988" lon="6.51811">
        <ele>2360</ele>
        <time>2017-08-29T08:41:01Z</time>
      </trkpt>
      <trkpt lat="45.91988" lon="6.51811">
        <ele>2360</ele>
        <time>2017-08-29T08:41:02Z</time>
      </trkpt>
      <trkpt lat="45.91988" lon="6.51811">
        <ele>2360</ele>
        <time>2017-08-29T08:41:03Z</time>
      </trkpt>
      <trkpt lat="45.91988" lon="6.51811">
        <ele>2360</ele>
        <time>2017-08-29T08:41:04Z</time>
      </trkpt>
      <trkpt lat="45.91988" lon="6.51811">
        <ele>2360</ele>
        <time>2017-08-29T08:41:05Z</time>
      </trkpt>
      <trkpt lat="45.91988" lon="6.51811">
        <ele>2360</ele>
        <time>2017-08-29T08:41:06Z</time>
      </trkpt>
      <trkpt lat="45.91988" lon="6.51811">
        <ele>2360</ele>
        <time>2017-08-29T08:41:07Z</time>
      </trkpt>
      <trkpt lat="45.91988" lon="6.51811">
        <ele>2360</ele>
        <time>2017-08-29T08:41:08Z</time>
      </trkpt>
      <trkpt lat="45.91988" lon="6.51811">
        <ele>2360</ele>
        <time>2017-08-29T08:41:09Z</time>
      </trkpt>
      <trkpt lat="45.91988" lon="6.51811">
        <ele>2360</ele>
        <time>2017-08-29T08:41:10Z</time>
      </trkpt>
      <trkpt lat="45.91988" lon="6.51811">
        <ele>2360</ele>
        <time>2017-08-29T08:41:11Z</time>
      </trkpt>
      <trkpt lat="45.91988" lon="6.51811">
        <ele>2360</ele>
        <time>2017-08-29T08:41:12Z</time>
      </trkpt>
      <trkpt lat="45.91988" lon="6.51811">
        <ele>2360</ele>
        <time>2017-08-29T08:41:13Z</time>
      </trkpt>
      <trkpt lat="45.91988" lon="6.51811">
        <ele>2360</ele>
        <time>2017-08-29T08:41:14Z</time>
      </trkpt>
      <trkpt lat="45.91988" lon="6.51811">
        <ele>2360</ele>
        <time>2017-08-29T08:41:15Z</time>
      </trkpt>
      <trkpt lat="45.91988" lon="6.51811">
        <ele>2360</ele>
        <time>2017-08-29T08:41:16Z</time>
      </trkpt>
      <trkpt lat="45.91988" lon="6.51811">
        <ele>2360</ele>
        <time>2017-08-29T08:41:17Z</time>
      </trkpt>
      <trkpt lat="45.91988" lon="6.51811">
        <ele>2359</ele>
        <time>2017-08-29T08:41:18Z</time>
      </trkpt>
      <trkpt lat="45.91988" lon="6.51811">
        <ele>2359</ele>
        <time>2017-08-29T08:41:19Z</time>
      </trkpt>
      <trkpt lat="45.91986" lon="6.51812">
        <ele>2359</ele>
        <time>2017-08-29T08:41:20Z</time>
      </trkpt>
      <trkpt lat="45.91986" lon="6.51812">
        <ele>2359</ele>
        <time>2017-08-29T08:41:21Z</time>
      </trkpt>
      <trkpt lat="45.91984" lon="6.51811">
        <ele>2359</ele>
        <time>2017-08-29T08:41:22Z</time>
      </trkpt>
      <trkpt lat="45.91984" lon="6.51811">
        <ele>2359</ele>
        <time>2017-08-29T08:41:23Z</time>
      </trkpt>
      <trkpt lat="45.91984" lon="6.51811">
        <ele>2359</ele>
        <time>2017-08-29T08:41:24Z</time>
      </trkpt>
      <trkpt lat="45.91982" lon="6.5181">
        <ele>2359</ele>
        <time>2017-08-29T08:41:25Z</time>
      </trkpt>
      <trkpt lat="45.91982" lon="6.5181">
        <ele>2359</ele>
        <time>2017-08-29T08:41:26Z</time>
      </trkpt>
      <trkpt lat="45.91982" lon="6.5181">
        <ele>2359</ele>
        <time>2017-08-29T08:41:27Z</time>
      </trkpt>
      <trkpt lat="45.91982" lon="6.5181">
        <ele>2359</ele>
        <time>2017-08-29T08:41:28Z</time>
      </trkpt>
      <trkpt lat="45.91982" lon="6.5181">
        <ele>2359</ele>
        <time>2017-08-29T08:41:29Z</time>
      </trkpt>
      <trkpt lat="45.91981" lon="6.51812">
        <ele>2360</ele>
        <time>2017-08-29T08:41:30Z</time>
      </trkpt>
      <trkpt lat="45.91981" lon="6.51812">
        <ele>2360</ele>
        <time>2017-08-29T08:41:31Z</time>
      </trkpt>
      <trkpt lat="45.91981" lon="6.51812">
        <ele>2360</ele>
        <time>2017-08-29T08:41:32Z</time>
      </trkpt>
      <trkpt lat="45.91981" lon="6.51812">
        <ele>2361</ele>
        <time>2017-08-29T08:41:33Z</time>
      </trkpt>
      <trkpt lat="45.91981" lon="6.51812">
        <ele>2361</ele>
        <time>2017-08-29T08:41:34Z</time>
      </trkpt>
      <trkpt lat="45.9198" lon="6.51815">
        <ele>2361</ele>
        <time>2017-08-29T08:41:35Z</time>
      </trkpt>
      <trkpt lat="45.9198" lon="6.51815">
        <ele>2361</ele>
        <time>2017-08-29T08:41:36Z</time>
      </trkpt>
      <trkpt lat="45.9198" lon="6.51815">
        <ele>2362</ele>
        <time>2017-08-29T08:41:37Z</time>
      </trkpt>
      <trkpt lat="45.91981" lon="6.51817">
        <ele>2362</ele>
        <time>2017-08-29T08:41:38Z</time>
      </trkpt>
      <trkpt lat="45.91981" lon="6.51817">
        <ele>2362</ele>
        <time>2017-08-29T08:41:39Z</time>
      </trkpt>
      <trkpt lat="45.91981" lon="6.51817">
        <ele>2362</ele>
        <time>2017-08-29T08:41:40Z</time>
      </trkpt>
      <trkpt lat="45.91981" lon="6.51817">
        <ele>2362</ele>
        <time>2017-08-29T08:41:41Z</time>
      </trkpt>
      <trkpt lat="45.91981" lon="6.51817">
        <ele>2362</ele>
        <time>2017-08-29T08:41:42Z</time>
      </trkpt>
      <trkpt lat="45.91981" lon="6.51817">
        <ele>2362</ele>
        <time>2017-08-29T08:41:43Z</time>
      </trkpt>
      <trkpt lat="45.91981" lon="6.51817">
        <ele>2363</ele>
        <time>2017-08-29T08:41:44Z</time>
      </trkpt>
      <trkpt lat="45.91981" lon="6.51817">
        <ele>2363</ele>
        <time>2017-08-29T08:41:45Z</time>
      </trkpt>
      <trkpt lat="45.91981" lon="6.51817">
        <ele>2363</ele>
        <time>2017-08-29T08:41:46Z</time>
      </trkpt>
      <trkpt lat="45.91981" lon="6.51817">
        <ele>2363</ele>
        <time>2017-08-29T08:41:47Z</time>
      </trkpt>
      <trkpt lat="45.91981" lon="6.51817">
        <ele>2363</ele>
        <time>2017-08-29T08:41:48Z</time>
      </trkpt>
      <trkpt lat="45.91981" lon="6.51817">
        <ele>2363</ele>
        <time>2017-08-29T08:41:49Z</time>
      </trkpt>
      <trkpt lat="45.91981" lon="6.51817">
        <ele>2363</ele>
        <time>2017-08-29T08:41:50Z</time>
      </trkpt>
      <trkpt lat="45.91981" lon="6.51817">
        <ele>2364</ele>
        <time>2017-08-29T08:41:51Z</time>
      </trkpt>
      <trkpt lat="45.91981" lon="6.51817">
        <ele>2364</ele>
        <time>2017-08-29T08:41:52Z</time>
      </trkpt>
      <trkpt lat="45.91981" lon="6.51817">
        <ele>2364</ele>
        <time>2017-08-29T08:41:53Z</time>
      </trkpt>
      <trkpt lat="45.91981" lon="6.51817">
        <ele>2365</ele>
        <time>2017-08-29T08:41:54Z</time>
      </trkpt>
      <trkpt lat="45.91981" lon="6.51817">
        <ele>2365</ele>
        <time>2017-08-29T08:41:55Z</time>
      </trkpt>
      <trkpt lat="45.91981" lon="6.51817">
        <ele>2365</ele>
        <time>2017-08-29T08:41:56Z</time>
      </trkpt>
      <trkpt lat="45.91981" lon="6.51817">
        <ele>2365</ele>
        <time>2017-08-29T08:41:57Z</time>
      </trkpt>
      <trkpt lat="45.91981" lon="6.5182">
        <ele>2366</ele>
        <time>2017-08-29T08:41:58Z</time>
      </trkpt>
      <trkpt lat="45.91981" lon="6.5182">
        <ele>2366</ele>
        <time>2017-08-29T08:41:59Z</time>
      </trkpt>
      <trkpt lat="45.91981" lon="6.5182">
        <ele>2366</ele>
        <time>2017-08-29T08:42:00Z</time>
      </trkpt>
      <trkpt lat="45.9198" lon="6.51823">
        <ele>2367</ele>
        <time>2017-08-29T08:42:01Z</time>
      </trkpt>
      <trkpt lat="45.9198" lon="6.51824">
        <ele>2367</ele>
        <time>2017-08-29T08:42:02Z</time>
      </trkpt>
      <trkpt lat="45.9198" lon="6.51824">
        <ele>2367</ele>
        <time>2017-08-29T08:42:03Z</time>
      </trkpt>
      <trkpt lat="45.9198" lon="6.51825">
        <ele>2367</ele>
        <time>2017-08-29T08:42:04Z</time>
      </trkpt>
      <trkpt lat="45.9198" lon="6.51825">
        <ele>2367</ele>
        <time>2017-08-29T08:42:05Z</time>
      </trkpt>
      <trkpt lat="45.9198" lon="6.51825">
        <ele>2367</ele>
        <time>2017-08-29T08:42:06Z</time>
      </trkpt>
      <trkpt lat="45.9198" lon="6.51826">
        <ele>2368</ele>
        <time>2017-08-29T08:42:07Z</time>
      </trkpt>
      <trkpt lat="45.9198" lon="6.51826">
        <ele>2368</ele>
        <time>2017-08-29T08:42:08Z</time>
      </trkpt>
      <trkpt lat="45.9198" lon="6.51827">
        <ele>2368</ele>
        <time>2017-08-29T08:42:09Z</time>
      </trkpt>
      <trkpt lat="45.9198" lon="6.51827">
        <ele>2368</ele>
        <time>2017-08-29T08:42:10Z</time>
      </trkpt>
      <trkpt lat="45.9198" lon="6.51827">
        <ele>2368</ele>
        <time>2017-08-29T08:42:11Z</time>
      </trkpt>
      <trkpt lat="45.9198" lon="6.51828">
        <ele>2368</ele>
        <time>2017-08-29T08:42:12Z</time>
      </trkpt>
      <trkpt lat="45.9198" lon="6.51828">
        <ele>2368</ele>
        <time>2017-08-29T08:42:13Z</time>
      </trkpt>
      <trkpt lat="45.9198" lon="6.51829">
        <ele>2368</ele>
        <time>2017-08-29T08:42:14Z</time>
      </trkpt>
      <trkpt lat="45.9198" lon="6.51829">
        <ele>2368</ele>
        <time>2017-08-29T08:42:15Z</time>
      </trkpt>
      <trkpt lat="45.9198" lon="6.51829">
        <ele>2368</ele>
        <time>2017-08-29T08:42:16Z</time>
      </trkpt>
      <trkpt lat="45.9198" lon="6.5183">
        <ele>2368</ele>
        <time>2017-08-29T08:42:17Z</time>
      </trkpt>
      <trkpt lat="45.9198" lon="6.5183">
        <ele>2369</ele>
        <time>2017-08-29T08:42:18Z</time>
      </trkpt>
      <trkpt lat="45.9198" lon="6.51831">
        <ele>2369</ele>
        <time>2017-08-29T08:42:19Z</time>
      </trkpt>
      <trkpt lat="45.9198" lon="6.51831">
        <ele>2370</ele>
        <time>2017-08-29T08:42:20Z</time>
      </trkpt>
      <trkpt lat="45.9198" lon="6.51831">
        <ele>2370</ele>
        <time>2017-08-29T08:42:21Z</time>
      </trkpt>
      <trkpt lat="45.9198" lon="6.51832">
        <ele>2370</ele>
        <time>2017-08-29T08:42:22Z</time>
      </trkpt>
      <trkpt lat="45.9198" lon="6.51832">
        <ele>2370</ele>
        <time>2017-08-29T08:42:23Z</time>
      </trkpt>
      <trkpt lat="45.9198" lon="6.51833">
        <ele>2370</ele>
        <time>2017-08-29T08:42:24Z</time>
      </trkpt>
      <trkpt lat="45.9198" lon="6.51833">
        <ele>2371</ele>
        <time>2017-08-29T08:42:25Z</time>
      </trkpt>
      <trkpt lat="45.9198" lon="6.51833">
        <ele>2371</ele>
        <time>2017-08-29T08:42:26Z</time>
      </trkpt>
      <trkpt lat="45.9198" lon="6.51834">
        <ele>2371</ele>
        <time>2017-08-29T08:42:27Z</time>
      </trkpt>
      <trkpt lat="45.9198" lon="6.51834">
        <ele>2371</ele>
        <time>2017-08-29T08:42:28Z</time>
      </trkpt>
      <trkpt lat="45.91981" lon="6.51834">
        <ele>2372</ele>
        <time>2017-08-29T08:42:29Z</time>
      </trkpt>
      <trkpt lat="45.91981" lon="6.51835">
        <ele>2372</ele>
        <time>2017-08-29T08:42:30Z</time>
      </trkpt>
      <trkpt lat="45.91981" lon="6.51835">
        <ele>2372</ele>
        <time>2017-08-29T08:42:31Z</time>
      </trkpt>
      <trkpt lat="45.91981" lon="6.51835">
        <ele>2372</ele>
        <time>2017-08-29T08:42:32Z</time>
      </trkpt>
      <trkpt lat="45.91981" lon="6.51835">
        <ele>2372</ele>
        <time>2017-08-29T08:42:33Z</time>
      </trkpt>
      <trkpt lat="45.91981" lon="6.51836">
        <ele>2373</ele>
        <time>2017-08-29T08:42:34Z</time>
      </trkpt>
      <trkpt lat="45.91981" lon="6.51836">
        <ele>2373</ele>
        <time>2017-08-29T08:42:35Z</time>
      </trkpt>
      <trkpt lat="45.91982" lon="6.51836">
        <ele>2373</ele>
        <time>2017-08-29T08:42:36Z</time>
      </trkpt>
      <trkpt lat="45.91982" lon="6.51836">
        <ele>2373</ele>
        <time>2017-08-29T08:42:37Z</time>
      </trkpt>
      <trkpt lat="45.91982" lon="6.51837">
        <ele>2373</ele>
        <time>2017-08-29T08:42:38Z</time>
      </trkpt>
      <trkpt lat="45.91982" lon="6.51837">
        <ele>2373</ele>
        <time>2017-08-29T08:42:39Z</time>
      </trkpt>
      <trkpt lat="45.91982" lon="6.51837">
        <ele>2373</ele>
        <time>2017-08-29T08:42:40Z</time>
      </trkpt>
      <trkpt lat="45.91982" lon="6.51838">
        <ele>2373</ele>
        <time>2017-08-29T08:42:41Z</time>
      </trkpt>
      <trkpt lat="45.91982" lon="6.51838">
        <ele>2373</ele>
        <time>2017-08-29T08:42:42Z</time>
      </trkpt>
      <trkpt lat="45.91983" lon="6.51838">
        <ele>2374</ele>
        <time>2017-08-29T08:42:43Z</time>
      </trkpt>
      <trkpt lat="45.91983" lon="6.51838">
        <ele>2374</ele>
        <time>2017-08-29T08:42:44Z</time>
      </trkpt>
      <trkpt lat="45.91983" lon="6.51839">
        <ele>2374</ele>
        <time>2017-08-29T08:42:45Z</time>
      </trkpt>
      <trkpt lat="45.91983" lon="6.51839">
        <ele>2374</ele>
        <time>2017-08-29T08:42:46Z</time>
      </trkpt>
      <trkpt lat="45.91984" lon="6.5184">
        <ele>2374</ele>
        <time>2017-08-29T08:42:47Z</time>
      </trkpt>
      <trkpt lat="45.91984" lon="6.5184">
        <ele>2375</ele>
        <time>2017-08-29T08:42:48Z</time>
      </trkpt>
      <trkpt lat="45.91984" lon="6.5184">
        <ele>2375</ele>
        <time>2017-08-29T08:42:49Z</time>
      </trkpt>
      <trkpt lat="45.91984" lon="6.51841">
        <ele>2375</ele>
        <time>2017-08-29T08:42:50Z</time>
      </trkpt>
      <trkpt lat="45.91985" lon="6.51841">
        <ele>2375</ele>
        <time>2017-08-29T08:42:51Z</time>
      </trkpt>
      <trkpt lat="45.91985" lon="6.51841">
        <ele>2375</ele>
        <time>2017-08-29T08:42:52Z</time>
      </trkpt>
      <trkpt lat="45.91985" lon="6.51842">
        <ele>2376</ele>
        <time>2017-08-29T08:42:53Z</time>
      </trkpt>
      <trkpt lat="45.91986" lon="6.51842">
        <ele>2376</ele>
        <time>2017-08-29T08:42:54Z</time>
      </trkpt>
      <trkpt lat="45.91986" lon="6.51843">
        <ele>2376</ele>
        <time>2017-08-29T08:42:55Z</time>
      </trkpt>
      <trkpt lat="45.91986" lon="6.51843">
        <ele>2376</ele>
        <time>2017-08-29T08:42:56Z</time>
      </trkpt>
      <trkpt lat="45.91986" lon="6.51843">
        <ele>2376</ele>
        <time>2017-08-29T08:42:57Z</time>
      </trkpt>
      <trkpt lat="45.91987" lon="6.51844">
        <ele>2376</ele>
        <time>2017-08-29T08:42:58Z</time>
      </trkpt>
      <trkpt lat="45.91987" lon="6.51844">
        <ele>2377</ele>
        <time>2017-08-29T08:42:59Z</time>
      </trkpt>
      <trkpt lat="45.91987" lon="6.51845">
        <ele>2377</ele>
        <time>2017-08-29T08:43:00Z</time>
      </trkpt>
      <trkpt lat="45.91988" lon="6.51845">
        <ele>2377</ele>
        <time>2017-08-29T08:43:01Z</time>
      </trkpt>
      <trkpt lat="45.91988" lon="6.51845">
        <ele>2377</ele>
        <time>2017-08-29T08:43:02Z</time>
      </trkpt>
      <trkpt lat="45.91988" lon="6.51845">
        <ele>2377</ele>
        <time>2017-08-29T08:43:03Z</time>
      </trkpt>
      <trkpt lat="45.91988" lon="6.51845">
        <ele>2377</ele>
        <time>2017-08-29T08:43:04Z</time>
      </trkpt>
      <trkpt lat="45.91988" lon="6.51845">
        <ele>2377</ele>
        <time>2017-08-29T08:43:05Z</time>
      </trkpt>
      <trkpt lat="45.91988" lon="6.51845">
        <ele>2377</ele>
        <time>2017-08-29T08:43:06Z</time>
      </trkpt>
      <trkpt lat="45.91988" lon="6.51845">
        <ele>2378</ele>
        <time>2017-08-29T08:43:07Z</time>
      </trkpt>
      <trkpt lat="45.91988" lon="6.51845">
        <ele>2379</ele>
        <time>2017-08-29T08:43:08Z</time>
      </trkpt>
      <trkpt lat="45.91988" lon="6.51845">
        <ele>2379</ele>
        <time>2017-08-29T08:43:09Z</time>
      </trkpt>
      <trkpt lat="45.91988" lon="6.51845">
        <ele>2379</ele>
        <time>2017-08-29T08:43:10Z</time>
      </trkpt>
      <trkpt lat="45.91988" lon="6.51845">
        <ele>2379</ele>
        <time>2017-08-29T08:43:11Z</time>
      </trkpt>
      <trkpt lat="45.91988" lon="6.51845">
        <ele>2381</ele>
        <time>2017-08-29T08:43:12Z</time>
      </trkpt>
      <trkpt lat="45.91986" lon="6.51846">
        <ele>2381</ele>
        <time>2017-08-29T08:43:13Z</time>
      </trkpt>
      <trkpt lat="45.91986" lon="6.51846">
        <ele>2381</ele>
        <time>2017-08-29T08:43:14Z</time>
      </trkpt>
      <trkpt lat="45.91986" lon="6.51846">
        <ele>2381</ele>
        <time>2017-08-29T08:43:15Z</time>
      </trkpt>
      <trkpt lat="45.91986" lon="6.51846">
        <ele>2381</ele>
        <time>2017-08-29T08:43:16Z</time>
      </trkpt>
      <trkpt lat="45.91986" lon="6.51846">
        <ele>2381</ele>
        <time>2017-08-29T08:43:17Z</time>
      </trkpt>
      <trkpt lat="45.91986" lon="6.51846">
        <ele>2381</ele>
        <time>2017-08-29T08:43:18Z</time>
      </trkpt>
      <trkpt lat="45.91986" lon="6.51846">
        <ele>2381</ele>
        <time>2017-08-29T08:43:19Z</time>
      </trkpt>
      <trkpt lat="45.91986" lon="6.51846">
        <ele>2381</ele>
        <time>2017-08-29T08:43:20Z</time>
      </trkpt>
      <trkpt lat="45.91986" lon="6.51846">
        <ele>2381</ele>
        <time>2017-08-29T08:43:21Z</time>
      </trkpt>
      <trkpt lat="45.91986" lon="6.51846">
        <ele>2381</ele>
        <time>2017-08-29T08:43:22Z</time>
      </trkpt>
      <trkpt lat="45.91986" lon="6.51846">
        <ele>2381</ele>
        <time>2017-08-29T08:43:23Z</time>
      </trkpt>
      <trkpt lat="45.91986" lon="6.51846">
        <ele>2382</ele>
        <time>2017-08-29T08:43:24Z</time>
      </trkpt>
      <trkpt lat="45.91986" lon="6.51846">
        <ele>2382</ele>
        <time>2017-08-29T08:43:25Z</time>
      </trkpt>
      <trkpt lat="45.91986" lon="6.51846">
        <ele>2382</ele>
        <time>2017-08-29T08:43:26Z</time>
      </trkpt>
      <trkpt lat="45.91986" lon="6.51846">
        <ele>2382</ele>
        <time>2017-08-29T08:43:27Z</time>
      </trkpt>
      <trkpt lat="45.91986" lon="6.51846">
        <ele>2382</ele>
        <time>2017-08-29T08:43:28Z</time>
      </trkpt>
      <trkpt lat="45.91986" lon="6.51846">
        <ele>2382</ele>
        <time>2017-08-29T08:43:29Z</time>
      </trkpt>
      <trkpt lat="45.91986" lon="6.51846">
        <ele>2382</ele>
        <time>2017-08-29T08:43:30Z</time>
      </trkpt>
      <trkpt lat="45.91986" lon="6.51846">
        <ele>2382</ele>
        <time>2017-08-29T08:43:31Z</time>
      </trkpt>
      <trkpt lat="45.91986" lon="6.51846">
        <ele>2382</ele>
        <time>2017-08-29T08:43:32Z</time>
      </trkpt>
      <trkpt lat="45.91986" lon="6.51846">
        <ele>2382</ele>
        <time>2017-08-29T08:43:33Z</time>
      </trkpt>
      <trkpt lat="45.91988" lon="6.51849">
        <ele>2382</ele>
        <time>2017-08-29T08:43:34Z</time>
      </trkpt>
      <trkpt lat="45.91988" lon="6.51849">
        <ele>2382</ele>
        <time>2017-08-29T08:43:35Z</time>
      </trkpt>
      <trkpt lat="45.91988" lon="6.51849">
        <ele>2383</ele>
        <time>2017-08-29T08:43:36Z</time>
      </trkpt>
      <trkpt lat="45.91988" lon="6.51849">
        <ele>2383</ele>
        <time>2017-08-29T08:43:37Z</time>
      </trkpt>
      <trkpt lat="45.91989" lon="6.51851">
        <ele>2383</ele>
        <time>2017-08-29T08:43:38Z</time>
      </trkpt>
      <trkpt lat="45.91989" lon="6.51851">
        <ele>2383</ele>
        <time>2017-08-29T08:43:39Z</time>
      </trkpt>
      <trkpt lat="45.91989" lon="6.51851">
        <ele>2383</ele>
        <time>2017-08-29T08:43:40Z</time>
      </trkpt>
      <trkpt lat="45.91989" lon="6.51851">
        <ele>2383</ele>
        <time>2017-08-29T08:43:41Z</time>
      </trkpt>
      <trkpt lat="45.9199" lon="6.51852">
        <ele>2383</ele>
        <time>2017-08-29T08:43:42Z</time>
      </trkpt>
      <trkpt lat="45.9199" lon="6.51852">
        <ele>2383</ele>
        <time>2017-08-29T08:43:43Z</time>
      </trkpt>
      <trkpt lat="45.9199" lon="6.51852">
        <ele>2384</ele>
        <time>2017-08-29T08:43:44Z</time>
      </trkpt>
      <trkpt lat="45.9199" lon="6.51852">
        <ele>2384</ele>
        <time>2017-08-29T08:43:45Z</time>
      </trkpt>
      <trkpt lat="45.9199" lon="6.51852">
        <ele>2384</ele>
        <time>2017-08-29T08:43:46Z</time>
      </trkpt>
      <trkpt lat="45.91992" lon="6.51855">
        <ele>2384</ele>
        <time>2017-08-29T08:43:47Z</time>
      </trkpt>
      <trkpt lat="45.91992" lon="6.51855">
        <ele>2384</ele>
        <time>2017-08-29T08:43:48Z</time>
      </trkpt>
      <trkpt lat="45.91992" lon="6.51855">
        <ele>2385</ele>
        <time>2017-08-29T08:43:49Z</time>
      </trkpt>
      <trkpt lat="45.91992" lon="6.51855">
        <ele>2385</ele>
        <time>2017-08-29T08:43:50Z</time>
      </trkpt>
      <trkpt lat="45.91992" lon="6.51855">
        <ele>2385</ele>
        <time>2017-08-29T08:43:51Z</time>
      </trkpt>
      <trkpt lat="45.91992" lon="6.51855">
        <ele>2386</ele>
        <time>2017-08-29T08:43:52Z</time>
      </trkpt>
      <trkpt lat="45.91994" lon="6.51856">
        <ele>2386</ele>
        <time>2017-08-29T08:43:53Z</time>
      </trkpt>
      <trkpt lat="45.91994" lon="6.51856">
        <ele>2386</ele>
        <time>2017-08-29T08:43:54Z</time>
      </trkpt>
      <trkpt lat="45.91994" lon="6.51856">
        <ele>2386</ele>
        <time>2017-08-29T08:43:55Z</time>
      </trkpt>
      <trkpt lat="45.91994" lon="6.51856">
        <ele>2386</ele>
        <time>2017-08-29T08:43:56Z</time>
      </trkpt>
      <trkpt lat="45.91994" lon="6.51856">
        <ele>2386</ele>
        <time>2017-08-29T08:43:57Z</time>
      </trkpt>
      <trkpt lat="45.91994" lon="6.51856">
        <ele>2387</ele>
        <time>2017-08-29T08:43:58Z</time>
      </trkpt>
      <trkpt lat="45.91996" lon="6.51856">
        <ele>2387</ele>
        <time>2017-08-29T08:43:59Z</time>
      </trkpt>
      <trkpt lat="45.91996" lon="6.51856">
        <ele>2387</ele>
        <time>2017-08-29T08:44:00Z</time>
      </trkpt>
      <trkpt lat="45.91996" lon="6.51856">
        <ele>2387</ele>
        <time>2017-08-29T08:44:01Z</time>
      </trkpt>
      <trkpt lat="45.91996" lon="6.51856">
        <ele>2387</ele>
        <time>2017-08-29T08:44:02Z</time>
      </trkpt>
      <trkpt lat="45.91996" lon="6.51856">
        <ele>2387</ele>
        <time>2017-08-29T08:44:03Z</time>
      </trkpt>
      <trkpt lat="45.91996" lon="6.51856">
        <ele>2388</ele>
        <time>2017-08-29T08:44:04Z</time>
      </trkpt>
      <trkpt lat="45.91996" lon="6.51853">
        <ele>2388</ele>
        <time>2017-08-29T08:44:05Z</time>
      </trkpt>
      <trkpt lat="45.91996" lon="6.51853">
        <ele>2388</ele>
        <time>2017-08-29T08:44:06Z</time>
      </trkpt>
      <trkpt lat="45.91996" lon="6.51853">
        <ele>2388</ele>
        <time>2017-08-29T08:44:07Z</time>
      </trkpt>
      <trkpt lat="45.91996" lon="6.51853">
        <ele>2389</ele>
        <time>2017-08-29T08:44:08Z</time>
      </trkpt>
      <trkpt lat="45.91996" lon="6.51853">
        <ele>2389</ele>
        <time>2017-08-29T08:44:09Z</time>
      </trkpt>
      <trkpt lat="45.91996" lon="6.51853">
        <ele>2389</ele>
        <time>2017-08-29T08:44:10Z</time>
      </trkpt>
      <trkpt lat="45.91996" lon="6.51853">
        <ele>2389</ele>
        <time>2017-08-29T08:44:11Z</time>
      </trkpt>
      <trkpt lat="45.91996" lon="6.51853">
        <ele>2389</ele>
        <time>2017-08-29T08:44:12Z</time>
      </trkpt>
      <trkpt lat="45.91996" lon="6.51853">
        <ele>2389</ele>
        <time>2017-08-29T08:44:13Z</time>
      </trkpt>
      <trkpt lat="45.91996" lon="6.51853">
        <ele>2389</ele>
        <time>2017-08-29T08:44:14Z</time>
      </trkpt>
      <trkpt lat="45.91996" lon="6.51853">
        <ele>2389</ele>
        <time>2017-08-29T08:44:15Z</time>
      </trkpt>
      <trkpt lat="45.91996" lon="6.51853">
        <ele>2389</ele>
        <time>2017-08-29T08:44:16Z</time>
      </trkpt>
      <trkpt lat="45.91997" lon="6.51855">
        <ele>2389</ele>
        <time>2017-08-29T08:44:17Z</time>
      </trkpt>
      <trkpt lat="45.91997" lon="6.51855">
        <ele>2389</ele>
        <time>2017-08-29T08:44:18Z</time>
      </trkpt>
      <trkpt lat="45.91997" lon="6.51855">
        <ele>2389</ele>
        <time>2017-08-29T08:44:19Z</time>
      </trkpt>
      <trkpt lat="45.91997" lon="6.51855">
        <ele>2390</ele>
        <time>2017-08-29T08:44:20Z</time>
      </trkpt>
      <trkpt lat="45.91998" lon="6.51855">
        <ele>2390</ele>
        <time>2017-08-29T08:44:21Z</time>
      </trkpt>
      <trkpt lat="45.91998" lon="6.51855">
        <ele>2391</ele>
        <time>2017-08-29T08:44:22Z</time>
      </trkpt>
      <trkpt lat="45.91998" lon="6.51856">
        <ele>2391</ele>
        <time>2017-08-29T08:44:23Z</time>
      </trkpt>
      <trkpt lat="45.91998" lon="6.51856">
        <ele>2392</ele>
        <time>2017-08-29T08:44:24Z</time>
      </trkpt>
      <trkpt lat="45.91998" lon="6.51856">
        <ele>2392</ele>
        <time>2017-08-29T08:44:25Z</time>
      </trkpt>
      <trkpt lat="45.91998" lon="6.51856">
        <ele>2392</ele>
        <time>2017-08-29T08:44:26Z</time>
      </trkpt>
      <trkpt lat="45.91999" lon="6.51856">
        <ele>2392</ele>
        <time>2017-08-29T08:44:27Z</time>
      </trkpt>
      <trkpt lat="45.91999" lon="6.51856">
        <ele>2391</ele>
        <time>2017-08-29T08:44:28Z</time>
      </trkpt>
      <trkpt lat="45.91999" lon="6.51856">
        <ele>2391</ele>
        <time>2017-08-29T08:44:29Z</time>
      </trkpt>
      <trkpt lat="45.91999" lon="6.51856">
        <ele>2391</ele>
        <time>2017-08-29T08:44:30Z</time>
      </trkpt>
      <trkpt lat="45.91999" lon="6.51856">
        <ele>2391</ele>
        <time>2017-08-29T08:44:31Z</time>
      </trkpt>
      <trkpt lat="45.91999" lon="6.51857">
        <ele>2391</ele>
        <time>2017-08-29T08:44:32Z</time>
      </trkpt>
      <trkpt lat="45.92" lon="6.51857">
        <ele>2392</ele>
        <time>2017-08-29T08:44:33Z</time>
      </trkpt>
      <trkpt lat="45.92" lon="6.51857">
        <ele>2392</ele>
        <time>2017-08-29T08:44:34Z</time>
      </trkpt>
      <trkpt lat="45.92" lon="6.51857">
        <ele>2392</ele>
        <time>2017-08-29T08:44:35Z</time>
      </trkpt>
      <trkpt lat="45.92" lon="6.51857">
        <ele>2392</ele>
        <time>2017-08-29T08:44:36Z</time>
      </trkpt>
      <trkpt lat="45.92" lon="6.51857">
        <ele>2393</ele>
        <time>2017-08-29T08:44:37Z</time>
      </trkpt>
      <trkpt lat="45.92" lon="6.51857">
        <ele>2393</ele>
        <time>2017-08-29T08:44:38Z</time>
      </trkpt>
      <trkpt lat="45.92001" lon="6.51857">
        <ele>2393</ele>
        <time>2017-08-29T08:44:39Z</time>
      </trkpt>
      <trkpt lat="45.92001" lon="6.51857">
        <ele>2393</ele>
        <time>2017-08-29T08:44:40Z</time>
      </trkpt>
      <trkpt lat="45.92001" lon="6.51858">
        <ele>2394</ele>
        <time>2017-08-29T08:44:41Z</time>
      </trkpt>
      <trkpt lat="45.92001" lon="6.51858">
        <ele>2394</ele>
        <time>2017-08-29T08:44:42Z</time>
      </trkpt>
      <trkpt lat="45.92001" lon="6.51858">
        <ele>2395</ele>
        <time>2017-08-29T08:44:43Z</time>
      </trkpt>
      <trkpt lat="45.92001" lon="6.51858">
        <ele>2395</ele>
        <time>2017-08-29T08:44:44Z</time>
      </trkpt>
      <trkpt lat="45.92001" lon="6.51858">
        <ele>2395</ele>
        <time>2017-08-29T08:44:45Z</time>
      </trkpt>
      <trkpt lat="45.92001" lon="6.51858">
        <ele>2395</ele>
        <time>2017-08-29T08:44:46Z</time>
      </trkpt>
      <trkpt lat="45.92001" lon="6.51858">
        <ele>2395</ele>
        <time>2017-08-29T08:44:47Z</time>
      </trkpt>
      <trkpt lat="45.92001" lon="6.51858">
        <ele>2395</ele>
        <time>2017-08-29T08:44:48Z</time>
      </trkpt>
      <trkpt lat="45.92001" lon="6.51853">
        <ele>2396</ele>
        <time>2017-08-29T08:44:49Z</time>
      </trkpt>
      <trkpt lat="45.92001" lon="6.51853">
        <ele>2396</ele>
        <time>2017-08-29T08:44:50Z</time>
      </trkpt>
      <trkpt lat="45.92001" lon="6.51853">
        <ele>2396</ele>
        <time>2017-08-29T08:44:51Z</time>
      </trkpt>
      <trkpt lat="45.92001" lon="6.51853">
        <ele>2396</ele>
        <time>2017-08-29T08:44:52Z</time>
      </trkpt>
      <trkpt lat="45.92001" lon="6.51853">
        <ele>2396</ele>
        <time>2017-08-29T08:44:53Z</time>
      </trkpt>
      <trkpt lat="45.92001" lon="6.51853">
        <ele>2396</ele>
        <time>2017-08-29T08:44:54Z</time>
      </trkpt>
      <trkpt lat="45.92001" lon="6.51853">
        <ele>2397</ele>
        <time>2017-08-29T08:44:55Z</time>
      </trkpt>
      <trkpt lat="45.92001" lon="6.51853">
        <ele>2397</ele>
        <time>2017-08-29T08:44:56Z</time>
      </trkpt>
      <trkpt lat="45.92001" lon="6.51853">
        <ele>2397</ele>
        <time>2017-08-29T08:44:57Z</time>
      </trkpt>
      <trkpt lat="45.92003" lon="6.51853">
        <ele>2397</ele>
        <time>2017-08-29T08:44:58Z</time>
      </trkpt>
      <trkpt lat="45.92003" lon="6.51853">
        <ele>2398</ele>
        <time>2017-08-29T08:44:59Z</time>
      </trkpt>
      <trkpt lat="45.92003" lon="6.51853">
        <ele>2398</ele>
        <time>2017-08-29T08:45:00Z</time>
      </trkpt>
      <trkpt lat="45.92003" lon="6.51853">
        <ele>2398</ele>
        <time>2017-08-29T08:45:01Z</time>
      </trkpt>
      <trkpt lat="45.92003" lon="6.51853">
        <ele>2398</ele>
        <time>2017-08-29T08:45:02Z</time>
      </trkpt>
      <trkpt lat="45.92004" lon="6.51856">
        <ele>2399</ele>
        <time>2017-08-29T08:45:03Z</time>
      </trkpt>
      <trkpt lat="45.92004" lon="6.51856">
        <ele>2399</ele>
        <time>2017-08-29T08:45:04Z</time>
      </trkpt>
      <trkpt lat="45.92004" lon="6.51856">
        <ele>2399</ele>
        <time>2017-08-29T08:45:05Z</time>
      </trkpt>
      <trkpt lat="45.92004" lon="6.51856">
        <ele>2399</ele>
        <time>2017-08-29T08:45:06Z</time>
      </trkpt>
      <trkpt lat="45.92004" lon="6.51856">
        <ele>2400</ele>
        <time>2017-08-29T08:45:07Z</time>
      </trkpt>
      <trkpt lat="45.92004" lon="6.51856">
        <ele>2400</ele>
        <time>2017-08-29T08:45:08Z</time>
      </trkpt>
      <trkpt lat="45.92004" lon="6.51856">
        <ele>2400</ele>
        <time>2017-08-29T08:45:09Z</time>
      </trkpt>
      <trkpt lat="45.92004" lon="6.51856">
        <ele>2400</ele>
        <time>2017-08-29T08:45:10Z</time>
      </trkpt>
      <trkpt lat="45.92004" lon="6.51856">
        <ele>2400</ele>
        <time>2017-08-29T08:45:11Z</time>
      </trkpt>
      <trkpt lat="45.92004" lon="6.51856">
        <ele>2400</ele>
        <time>2017-08-29T08:45:12Z</time>
      </trkpt>
      <trkpt lat="45.92004" lon="6.51856">
        <ele>2399</ele>
        <time>2017-08-29T08:45:13Z</time>
      </trkpt>
      <trkpt lat="45.92004" lon="6.51856">
        <ele>2400</ele>
        <time>2017-08-29T08:45:14Z</time>
      </trkpt>
      <trkpt lat="45.92005" lon="6.51854">
        <ele>2400</ele>
        <time>2017-08-29T08:45:15Z</time>
      </trkpt>
      <trkpt lat="45.92005" lon="6.51854">
        <ele>2400</ele>
        <time>2017-08-29T08:45:16Z</time>
      </trkpt>
      <trkpt lat="45.92005" lon="6.51854">
        <ele>2400</ele>
        <time>2017-08-29T08:45:17Z</time>
      </trkpt>
      <trkpt lat="45.92005" lon="6.51854">
        <ele>2399</ele>
        <time>2017-08-29T08:45:18Z</time>
      </trkpt>
      <trkpt lat="45.92005" lon="6.51854">
        <ele>2399</ele>
        <time>2017-08-29T08:45:19Z</time>
      </trkpt>
      <trkpt lat="45.92005" lon="6.51854">
        <ele>2399</ele>
        <time>2017-08-29T08:45:20Z</time>
      </trkpt>
      <trkpt lat="45.92005" lon="6.51854">
        <ele>2399</ele>
        <time>2017-08-29T08:45:21Z</time>
      </trkpt>
      <trkpt lat="45.92005" lon="6.51854">
        <ele>2399</ele>
        <time>2017-08-29T08:45:22Z</time>
      </trkpt>
      <trkpt lat="45.92005" lon="6.51854">
        <ele>2399</ele>
        <time>2017-08-29T08:45:23Z</time>
      </trkpt>
      <trkpt lat="45.92005" lon="6.51854">
        <ele>2399</ele>
        <time>2017-08-29T08:45:24Z</time>
      </trkpt>
      <trkpt lat="45.92005" lon="6.51854">
        <ele>2399</ele>
        <time>2017-08-29T08:45:25Z</time>
      </trkpt>
      <trkpt lat="45.92005" lon="6.51854">
        <ele>2399</ele>
        <time>2017-08-29T08:45:26Z</time>
      </trkpt>
      <trkpt lat="45.92005" lon="6.51854">
        <ele>2399</ele>
        <time>2017-08-29T08:45:27Z</time>
      </trkpt>
      <trkpt lat="45.92005" lon="6.51854">
        <ele>2399</ele>
        <time>2017-08-29T08:45:28Z</time>
      </trkpt>
      <trkpt lat="45.92005" lon="6.51854">
        <ele>2399</ele>
        <time>2017-08-29T08:45:29Z</time>
      </trkpt>
      <trkpt lat="45.92005" lon="6.51854">
        <ele>2399</ele>
        <time>2017-08-29T08:45:30Z</time>
      </trkpt>
      <trkpt lat="45.92005" lon="6.51854">
        <ele>2399</ele>
        <time>2017-08-29T08:45:31Z</time>
      </trkpt>
      <trkpt lat="45.92005" lon="6.51854">
        <ele>2399</ele>
        <time>2017-08-29T08:45:32Z</time>
      </trkpt>
      <trkpt lat="45.92005" lon="6.51854">
        <ele>2399</ele>
        <time>2017-08-29T08:45:33Z</time>
      </trkpt>
      <trkpt lat="45.92005" lon="6.51854">
        <ele>2399</ele>
        <time>2017-08-29T08:45:34Z</time>
      </trkpt>
      <trkpt lat="45.92005" lon="6.51854">
        <ele>2399</ele>
        <time>2017-08-29T08:45:35Z</time>
      </trkpt>
      <trkpt lat="45.92005" lon="6.51854">
        <ele>2399</ele>
        <time>2017-08-29T08:45:36Z</time>
      </trkpt>
      <trkpt lat="45.92005" lon="6.51854">
        <ele>2399</ele>
        <time>2017-08-29T08:45:37Z</time>
      </trkpt>
      <trkpt lat="45.92005" lon="6.51854">
        <ele>2399</ele>
        <time>2017-08-29T08:45:38Z</time>
      </trkpt>
      <trkpt lat="45.92005" lon="6.51854">
        <ele>2399</ele>
        <time>2017-08-29T08:45:39Z</time>
      </trkpt>
      <trkpt lat="45.92005" lon="6.51854">
        <ele>2399</ele>
        <time>2017-08-29T08:45:40Z</time>
      </trkpt>
      <trkpt lat="45.92005" lon="6.51854">
        <ele>2399</ele>
        <time>2017-08-29T08:45:41Z</time>
      </trkpt>
      <trkpt lat="45.92005" lon="6.51854">
        <ele>2399</ele>
        <time>2017-08-29T08:45:42Z</time>
      </trkpt>
      <trkpt lat="45.92005" lon="6.51854">
        <ele>2399</ele>
        <time>2017-08-29T08:45:43Z</time>
      </trkpt>
      <trkpt lat="45.92005" lon="6.51854">
        <ele>2399</ele>
        <time>2017-08-29T08:45:44Z</time>
      </trkpt>
      <trkpt lat="45.92005" lon="6.51854">
        <ele>2400</ele>
        <time>2017-08-29T08:45:45Z</time>
      </trkpt>
      <trkpt lat="45.92005" lon="6.51854">
        <ele>2400</ele>
        <time>2017-08-29T08:45:46Z</time>
      </trkpt>
      <trkpt lat="45.92005" lon="6.51854">
        <ele>2400</ele>
        <time>2017-08-29T08:45:47Z</time>
      </trkpt>
      <trkpt lat="45.92005" lon="6.51854">
        <ele>2400</ele>
        <time>2017-08-29T08:45:48Z</time>
      </trkpt>
      <trkpt lat="45.92005" lon="6.51854">
        <ele>2400</ele>
        <time>2017-08-29T08:45:49Z</time>
      </trkpt>
      <trkpt lat="45.92005" lon="6.51854">
        <ele>2400</ele>
        <time>2017-08-29T08:45:50Z</time>
      </trkpt>
      <trkpt lat="45.92005" lon="6.51854">
        <ele>2400</ele>
        <time>2017-08-29T08:45:51Z</time>
      </trkpt>
      <trkpt lat="45.92005" lon="6.51854">
        <ele>2400</ele>
        <time>2017-08-29T08:45:52Z</time>
      </trkpt>
      <trkpt lat="45.92004" lon="6.51853">
        <ele>2401</ele>
        <time>2017-08-29T08:45:53Z</time>
      </trkpt>
      <trkpt lat="45.92004" lon="6.51853">
        <ele>2401</ele>
        <time>2017-08-29T08:45:54Z</time>
      </trkpt>
      <trkpt lat="45.92004" lon="6.51853">
        <ele>2399</ele>
        <time>2017-08-29T08:45:55Z</time>
      </trkpt>
      <trkpt lat="45.92004" lon="6.51853">
        <ele>2399</ele>
        <time>2017-08-29T08:45:56Z</time>
      </trkpt>
      <trkpt lat="45.92004" lon="6.51853">
        <ele>2400</ele>
        <time>2017-08-29T08:45:57Z</time>
      </trkpt>
      <trkpt lat="45.92004" lon="6.51853">
        <ele>2401</ele>
        <time>2017-08-29T08:45:58Z</time>
      </trkpt>
      <trkpt lat="45.92004" lon="6.51853">
        <ele>2401</ele>
        <time>2017-08-29T08:45:59Z</time>
      </trkpt>
      <trkpt lat="45.92004" lon="6.51853">
        <ele>2401</ele>
        <time>2017-08-29T08:46:00Z</time>
      </trkpt>
      <trkpt lat="45.92004" lon="6.51853">
        <ele>2401</ele>
        <time>2017-08-29T08:46:01Z</time>
      </trkpt>
      <trkpt lat="45.92004" lon="6.51853">
        <ele>2401</ele>
        <time>2017-08-29T08:46:02Z</time>
      </trkpt>
      <trkpt lat="45.92004" lon="6.51853">
        <ele>2401</ele>
        <time>2017-08-29T08:46:03Z</time>
      </trkpt>
      <trkpt lat="45.92004" lon="6.51853">
        <ele>2402</ele>
        <time>2017-08-29T08:46:04Z</time>
      </trkpt>
      <trkpt lat="45.92004" lon="6.51853">
        <ele>2402</ele>
        <time>2017-08-29T08:46:05Z</time>
      </trkpt>
      <trkpt lat="45.92004" lon="6.51853">
        <ele>2401</ele>
        <time>2017-08-29T08:46:06Z</time>
      </trkpt>
      <trkpt lat="45.92004" lon="6.51853">
        <ele>2401</ele>
        <time>2017-08-29T08:46:07Z</time>
      </trkpt>
      <trkpt lat="45.92004" lon="6.51853">
        <ele>2400</ele>
        <time>2017-08-29T08:46:08Z</time>
      </trkpt>
      <trkpt lat="45.92004" lon="6.51853">
        <ele>2400</ele>
        <time>2017-08-29T08:46:09Z</time>
      </trkpt>
      <trkpt lat="45.92004" lon="6.51853">
        <ele>2401</ele>
        <time>2017-08-29T08:46:10Z</time>
      </trkpt>
      <trkpt lat="45.92004" lon="6.51853">
        <ele>2401</ele>
        <time>2017-08-29T08:46:11Z</time>
      </trkpt>
      <trkpt lat="45.92004" lon="6.51853">
        <ele>2401</ele>
        <time>2017-08-29T08:46:12Z</time>
      </trkpt>
      <trkpt lat="45.92004" lon="6.51853">
        <ele>2401</ele>
        <time>2017-08-29T08:46:13Z</time>
      </trkpt>
      <trkpt lat="45.92004" lon="6.51853">
        <ele>2401</ele>
        <time>2017-08-29T08:46:14Z</time>
      </trkpt>
      <trkpt lat="45.92004" lon="6.51853">
        <ele>2401</ele>
        <time>2017-08-29T08:46:15Z</time>
      </trkpt>
      <trkpt lat="45.92004" lon="6.51853">
        <ele>2401</ele>
        <time>2017-08-29T08:46:16Z</time>
      </trkpt>
      <trkpt lat="45.92004" lon="6.51853">
        <ele>2401</ele>
        <time>2017-08-29T08:46:17Z</time>
      </trkpt>
      <trkpt lat="45.92004" lon="6.51853">
        <ele>2401</ele>
        <time>2017-08-29T08:46:18Z</time>
      </trkpt>
      <trkpt lat="45.92004" lon="6.51853">
        <ele>2401</ele>
        <time>2017-08-29T08:46:19Z</time>
      </trkpt>
      <trkpt lat="45.92004" lon="6.51853">
        <ele>2401</ele>
        <time>2017-08-29T08:46:20Z</time>
      </trkpt>
      <trkpt lat="45.92004" lon="6.51853">
        <ele>2401</ele>
        <time>2017-08-29T08:46:21Z</time>
      </trkpt>
      <trkpt lat="45.92004" lon="6.51853">
        <ele>2401</ele>
        <time>2017-08-29T08:46:22Z</time>
      </trkpt>
      <trkpt lat="45.92004" lon="6.51853">
        <ele>2401</ele>
        <time>2017-08-29T08:46:23Z</time>
      </trkpt>
      <trkpt lat="45.92004" lon="6.51853">
        <ele>2401</ele>
        <time>2017-08-29T08:46:24Z</time>
      </trkpt>
      <trkpt lat="45.92004" lon="6.51853">
        <ele>2401</ele>
        <time>2017-08-29T08:46:25Z</time>
      </trkpt>
      <trkpt lat="45.92004" lon="6.51853">
        <ele>2401</ele>
        <time>2017-08-29T08:46:26Z</time>
      </trkpt>
      <trkpt lat="45.92004" lon="6.51853">
        <ele>2401</ele>
        <time>2017-08-29T08:46:27Z</time>
      </trkpt>
      <trkpt lat="45.92004" lon="6.51853">
        <ele>2401</ele>
        <time>2017-08-29T08:46:28Z</time>
      </trkpt>
      <trkpt lat="45.92004" lon="6.51853">
        <ele>2401</ele>
        <time>2017-08-29T08:46:29Z</time>
      </trkpt>
      <trkpt lat="45.92004" lon="6.51853">
        <ele>2401</ele>
        <time>2017-08-29T08:46:30Z</time>
      </trkpt>
      <trkpt lat="45.92004" lon="6.51853">
        <ele>2401</ele>
        <time>2017-08-29T08:46:31Z</time>
      </trkpt>
      <trkpt lat="45.92004" lon="6.51853">
        <ele>2401</ele>
        <time>2017-08-29T08:46:32Z</time>
      </trkpt>
      <trkpt lat="45.92004" lon="6.51853">
        <ele>2401</ele>
        <time>2017-08-29T08:46:33Z</time>
      </trkpt>
      <trkpt lat="45.92004" lon="6.51853">
        <ele>2402</ele>
        <time>2017-08-29T08:46:34Z</time>
      </trkpt>
      <trkpt lat="45.92004" lon="6.51853">
        <ele>2402</ele>
        <time>2017-08-29T08:46:35Z</time>
      </trkpt>
      <trkpt lat="45.92004" lon="6.51853">
        <ele>2402</ele>
        <time>2017-08-29T08:46:36Z</time>
      </trkpt>
      <trkpt lat="45.92004" lon="6.51853">
        <ele>2402</ele>
        <time>2017-08-29T08:46:37Z</time>
      </trkpt>
      <trkpt lat="45.92004" lon="6.51853">
        <ele>2402</ele>
        <time>2017-08-29T08:46:38Z</time>
      </trkpt>
      <trkpt lat="45.92004" lon="6.51853">
        <ele>2402</ele>
        <time>2017-08-29T08:46:39Z</time>
      </trkpt>
      <trkpt lat="45.92004" lon="6.51853">
        <ele>2402</ele>
        <time>2017-08-29T08:46:40Z</time>
      </trkpt>
      <trkpt lat="45.92004" lon="6.51853">
        <ele>2402</ele>
        <time>2017-08-29T08:46:41Z</time>
      </trkpt>
      <trkpt lat="45.92004" lon="6.51853">
        <ele>2402</ele>
        <time>2017-08-29T08:46:42Z</time>
      </trkpt>
      <trkpt lat="45.92004" lon="6.51853">
        <ele>2402</ele>
        <time>2017-08-29T08:46:43Z</time>
      </trkpt>
      <trkpt lat="45.92004" lon="6.51853">
        <ele>2402</ele>
        <time>2017-08-29T08:46:44Z</time>
      </trkpt>
      <trkpt lat="45.92004" lon="6.51853">
        <ele>2402</ele>
        <time>2017-08-29T08:46:45Z</time>
      </trkpt>
      <trkpt lat="45.92004" lon="6.51853">
        <ele>2403</ele>
        <time>2017-08-29T08:46:46Z</time>
      </trkpt>
      <trkpt lat="45.92004" lon="6.51853">
        <ele>2403</ele>
        <time>2017-08-29T08:46:47Z</time>
      </trkpt>
      <trkpt lat="45.92004" lon="6.51853">
        <ele>2402</ele>
        <time>2017-08-29T08:46:48Z</time>
      </trkpt>
      <trkpt lat="45.92004" lon="6.51853">
        <ele>2402</ele>
        <time>2017-08-29T08:46:49Z</time>
      </trkpt>
      <trkpt lat="45.92004" lon="6.51853">
        <ele>2402</ele>
        <time>2017-08-29T08:46:50Z</time>
      </trkpt>
      <trkpt lat="45.92004" lon="6.51853">
        <ele>2402</ele>
        <time>2017-08-29T08:46:51Z</time>
      </trkpt>
      <trkpt lat="45.92004" lon="6.51853">
        <ele>2402</ele>
        <time>2017-08-29T08:46:52Z</time>
      </trkpt>
      <trkpt lat="45.92004" lon="6.51853">
        <ele>2402</ele>
        <time>2017-08-29T08:46:53Z</time>
      </trkpt>
      <trkpt lat="45.92004" lon="6.51853">
        <ele>2402</ele>
        <time>2017-08-29T08:46:54Z</time>
      </trkpt>
      <trkpt lat="45.92004" lon="6.51853">
        <ele>2402</ele>
        <time>2017-08-29T08:46:55Z</time>
      </trkpt>
      <trkpt lat="45.92004" lon="6.51853">
        <ele>2402</ele>
        <time>2017-08-29T08:46:56Z</time>
      </trkpt>
      <trkpt lat="45.92004" lon="6.51853">
        <ele>2402</ele>
        <time>2017-08-29T08:46:57Z</time>
      </trkpt>
      <trkpt lat="45.92004" lon="6.51853">
        <ele>2402</ele>
        <time>2017-08-29T08:46:58Z</time>
      </trkpt>
      <trkpt lat="45.92004" lon="6.51853">
        <ele>2402</ele>
        <time>2017-08-29T08:46:59Z</time>
      </trkpt>
      <trkpt lat="45.92004" lon="6.51853">
        <ele>2402</ele>
        <time>2017-08-29T08:47:00Z</time>
      </trkpt>
      <trkpt lat="45.92004" lon="6.51853">
        <ele>2402</ele>
        <time>2017-08-29T08:47:01Z</time>
      </trkpt>
      <trkpt lat="45.92004" lon="6.51853">
        <ele>2402</ele>
        <time>2017-08-29T08:47:02Z</time>
      </trkpt>
      <trkpt lat="45.92004" lon="6.51853">
        <ele>2402</ele>
        <time>2017-08-29T08:47:03Z</time>
      </trkpt>
      <trkpt lat="45.92004" lon="6.51853">
        <ele>2402</ele>
        <time>2017-08-29T08:47:04Z</time>
      </trkpt>
      <trkpt lat="45.92004" lon="6.51853">
        <ele>2401</ele>
        <time>2017-08-29T08:47:05Z</time>
      </trkpt>
      <trkpt lat="45.92004" lon="6.51853">
        <ele>2401</ele>
        <time>2017-08-29T08:47:06Z</time>
      </trkpt>
      <trkpt lat="45.92004" lon="6.51853">
        <ele>2401</ele>
        <time>2017-08-29T08:47:07Z</time>
      </trkpt>
      <trkpt lat="45.92004" lon="6.51853">
        <ele>2401</ele>
        <time>2017-08-29T08:47:08Z</time>
      </trkpt>
      <trkpt lat="45.92004" lon="6.51853">
        <ele>2401</ele>
        <time>2017-08-29T08:47:09Z</time>
      </trkpt>
      <trkpt lat="45.92004" lon="6.51853">
        <ele>2401</ele>
        <time>2017-08-29T08:47:10Z</time>
      </trkpt>
      <trkpt lat="45.92004" lon="6.51853">
        <ele>2401</ele>
        <time>2017-08-29T08:47:11Z</time>
      </trkpt>
      <trkpt lat="45.92004" lon="6.51853">
        <ele>2401</ele>
        <time>2017-08-29T08:47:12Z</time>
      </trkpt>
      <trkpt lat="45.92004" lon="6.51853">
        <ele>2401</ele>
        <time>2017-08-29T08:47:13Z</time>
      </trkpt>
      <trkpt lat="45.92004" lon="6.51853">
        <ele>2401</ele>
        <time>2017-08-29T08:47:14Z</time>
      </trkpt>
      <trkpt lat="45.92004" lon="6.51853">
        <ele>2401</ele>
        <time>2017-08-29T08:47:15Z</time>
      </trkpt>
      <trkpt lat="45.92004" lon="6.51853">
        <ele>2401</ele>
        <time>2017-08-29T08:47:16Z</time>
      </trkpt>
      <trkpt lat="45.92004" lon="6.51853">
        <ele>2401</ele>
        <time>2017-08-29T08:47:17Z</time>
      </trkpt>
      <trkpt lat="45.92004" lon="6.51853">
        <ele>2401</ele>
        <time>2017-08-29T08:47:18Z</time>
      </trkpt>
      <trkpt lat="45.92004" lon="6.51853">
        <ele>2401</ele>
        <time>2017-08-29T08:47:19Z</time>
      </trkpt>
      <trkpt lat="45.92004" lon="6.51853">
        <ele>2401</ele>
        <time>2017-08-29T08:47:20Z</time>
      </trkpt>
      <trkpt lat="45.92004" lon="6.51853">
        <ele>2401</ele>
        <time>2017-08-29T08:47:21Z</time>
      </trkpt>
      <trkpt lat="45.92004" lon="6.51853">
        <ele>2401</ele>
        <time>2017-08-29T08:47:22Z</time>
      </trkpt>
      <trkpt lat="45.92004" lon="6.51853">
        <ele>2401</ele>
        <time>2017-08-29T08:47:23Z</time>
      </trkpt>
      <trkpt lat="45.92004" lon="6.51853">
        <ele>2401</ele>
        <time>2017-08-29T08:47:24Z</time>
      </trkpt>
      <trkpt lat="45.92004" lon="6.51853">
        <ele>2401</ele>
        <time>2017-08-29T08:47:25Z</time>
      </trkpt>
      <trkpt lat="45.92004" lon="6.51853">
        <ele>2402</ele>
        <time>2017-08-29T08:47:26Z</time>
      </trkpt>
      <trkpt lat="45.92004" lon="6.51853">
        <ele>2402</ele>
        <time>2017-08-29T08:47:27Z</time>
      </trkpt>
      <trkpt lat="45.92004" lon="6.51853">
        <ele>2402</ele>
        <time>2017-08-29T08:47:28Z</time>
      </trkpt>
      <trkpt lat="45.92004" lon="6.51853">
        <ele>2402</ele>
        <time>2017-08-29T08:47:29Z</time>
      </trkpt>
      <trkpt lat="45.92004" lon="6.51853">
        <ele>2403</ele>
        <time>2017-08-29T08:47:30Z</time>
      </trkpt>
      <trkpt lat="45.92004" lon="6.51853">
        <ele>2403</ele>
        <time>2017-08-29T08:47:31Z</time>
      </trkpt>
      <trkpt lat="45.92004" lon="6.51853">
        <ele>2403</ele>
        <time>2017-08-29T08:47:32Z</time>
      </trkpt>
      <trkpt lat="45.92004" lon="6.51853">
        <ele>2403</ele>
        <time>2017-08-29T08:47:33Z</time>
      </trkpt>
      <trkpt lat="45.92004" lon="6.51853">
        <ele>2402</ele>
        <time>2017-08-29T08:47:34Z</time>
      </trkpt>
      <trkpt lat="45.92004" lon="6.51853">
        <ele>2402</ele>
        <time>2017-08-29T08:47:35Z</time>
      </trkpt>
      <trkpt lat="45.92004" lon="6.51853">
        <ele>2402</ele>
        <time>2017-08-29T08:47:36Z</time>
      </trkpt>
      <trkpt lat="45.92004" lon="6.51853">
        <ele>2402</ele>
        <time>2017-08-29T08:47:37Z</time>
      </trkpt>
      <trkpt lat="45.92004" lon="6.51853">
        <ele>2402</ele>
        <time>2017-08-29T08:47:38Z</time>
      </trkpt>
      <trkpt lat="45.92004" lon="6.51853">
        <ele>2402</ele>
        <time>2017-08-29T08:47:39Z</time>
      </trkpt>
      <trkpt lat="45.92004" lon="6.51853">
        <ele>2402</ele>
        <time>2017-08-29T08:47:40Z</time>
      </trkpt>
      <trkpt lat="45.92004" lon="6.51853">
        <ele>2402</ele>
        <time>2017-08-29T08:47:41Z</time>
      </trkpt>
      <trkpt lat="45.92004" lon="6.51853">
        <ele>2402</ele>
        <time>2017-08-29T08:47:42Z</time>
      </trkpt>
      <trkpt lat="45.92004" lon="6.51853">
        <ele>2402</ele>
        <time>2017-08-29T08:47:43Z</time>
      </trkpt>
      <trkpt lat="45.92004" lon="6.51853">
        <ele>2402</ele>
        <time>2017-08-29T08:47:44Z</time>
      </trkpt>
      <trkpt lat="45.92004" lon="6.51853">
        <ele>2402</ele>
        <time>2017-08-29T08:47:45Z</time>
      </trkpt>
      <trkpt lat="45.92004" lon="6.51853">
        <ele>2402</ele>
        <time>2017-08-29T08:47:46Z</time>
      </trkpt>
      <trkpt lat="45.92004" lon="6.51853">
        <ele>2402</ele>
        <time>2017-08-29T08:47:47Z</time>
      </trkpt>
      <trkpt lat="45.92004" lon="6.51853">
        <ele>2402</ele>
        <time>2017-08-29T08:47:48Z</time>
      </trkpt>
      <trkpt lat="45.92004" lon="6.51853">
        <ele>2402</ele>
        <time>2017-08-29T08:47:49Z</time>
      </trkpt>
      <trkpt lat="45.92004" lon="6.51853">
        <ele>2402</ele>
        <time>2017-08-29T08:47:50Z</time>
      </trkpt>
      <trkpt lat="45.92004" lon="6.51853">
        <ele>2401</ele>
        <time>2017-08-29T08:47:51Z</time>
      </trkpt>
      <trkpt lat="45.92004" lon="6.51853">
        <ele>2401</ele>
        <time>2017-08-29T08:47:52Z</time>
      </trkpt>
      <trkpt lat="45.92004" lon="6.51853">
        <ele>2401</ele>
        <time>2017-08-29T08:47:53Z</time>
      </trkpt>
      <trkpt lat="45.92004" lon="6.51853">
        <ele>2401</ele>
        <time>2017-08-29T08:47:54Z</time>
      </trkpt>
      <trkpt lat="45.92004" lon="6.51853">
        <ele>2402</ele>
        <time>2017-08-29T08:47:55Z</time>
      </trkpt>
      <trkpt lat="45.92004" lon="6.51853">
        <ele>2402</ele>
        <time>2017-08-29T08:47:56Z</time>
      </trkpt>
      <trkpt lat="45.92004" lon="6.51853">
        <ele>2402</ele>
        <time>2017-08-29T08:47:57Z</time>
      </trkpt>
      <trkpt lat="45.92004" lon="6.51853">
        <ele>2402</ele>
        <time>2017-08-29T08:47:58Z</time>
      </trkpt>
      <trkpt lat="45.92004" lon="6.51853">
        <ele>2402</ele>
        <time>2017-08-29T08:47:59Z</time>
      </trkpt>
      <trkpt lat="45.92004" lon="6.51853">
        <ele>2402</ele>
        <time>2017-08-29T08:48:00Z</time>
      </trkpt>
      <trkpt lat="45.92004" lon="6.51853">
        <ele>2402</ele>
        <time>2017-08-29T08:48:01Z</time>
      </trkpt>
      <trkpt lat="45.92004" lon="6.51853">
        <ele>2402</ele>
        <time>2017-08-29T08:48:02Z</time>
      </trkpt>
      <trkpt lat="45.92004" lon="6.51853">
        <ele>2402</ele>
        <time>2017-08-29T08:48:03Z</time>
      </trkpt>
      <trkpt lat="45.92004" lon="6.51853">
        <ele>2402</ele>
        <time>2017-08-29T08:48:04Z</time>
      </trkpt>
      <trkpt lat="45.92004" lon="6.51853">
        <ele>2402</ele>
        <time>2017-08-29T08:48:05Z</time>
      </trkpt>
      <trkpt lat="45.92004" lon="6.51853">
        <ele>2402</ele>
        <time>2017-08-29T08:48:06Z</time>
      </trkpt>
      <trkpt lat="45.92004" lon="6.51853">
        <ele>2402</ele>
        <time>2017-08-29T08:48:07Z</time>
      </trkpt>
      <trkpt lat="45.92004" lon="6.51853">
        <ele>2402</ele>
        <time>2017-08-29T08:48:08Z</time>
      </trkpt>
      <trkpt lat="45.92004" lon="6.51853">
        <ele>2402</ele>
        <time>2017-08-29T08:48:09Z</time>
      </trkpt>
      <trkpt lat="45.92004" lon="6.51853">
        <ele>2402</ele>
        <time>2017-08-29T08:48:10Z</time>
      </trkpt>
      <trkpt lat="45.92004" lon="6.51853">
        <ele>2402</ele>
        <time>2017-08-29T08:48:11Z</time>
      </trkpt>
      <trkpt lat="45.92004" lon="6.51853">
        <ele>2402</ele>
        <time>2017-08-29T08:48:12Z</time>
      </trkpt>
      <trkpt lat="45.92004" lon="6.51853">
        <ele>2402</ele>
        <time>2017-08-29T08:48:13Z</time>
      </trkpt>
      <trkpt lat="45.92004" lon="6.51853">
        <ele>2402</ele>
        <time>2017-08-29T08:48:14Z</time>
      </trkpt>
      <trkpt lat="45.92004" lon="6.51853">
        <ele>2402</ele>
        <time>2017-08-29T08:48:15Z</time>
      </trkpt>
      <trkpt lat="45.92004" lon="6.51853">
        <ele>2402</ele>
        <time>2017-08-29T08:48:16Z</time>
      </trkpt>
      <trkpt lat="45.92004" lon="6.51853">
        <ele>2402</ele>
        <time>2017-08-29T08:48:17Z</time>
      </trkpt>
      <trkpt lat="45.92004" lon="6.51853">
        <ele>2404</ele>
        <time>2017-08-29T08:48:18Z</time>
      </trkpt>
      <trkpt lat="45.92004" lon="6.51853">
        <ele>2404</ele>
        <time>2017-08-29T08:48:19Z</time>
      </trkpt>
      <trkpt lat="45.92004" lon="6.51853">
        <ele>2404</ele>
        <time>2017-08-29T08:48:20Z</time>
      </trkpt>
      <trkpt lat="45.92004" lon="6.51853">
        <ele>2403</ele>
        <time>2017-08-29T08:48:21Z</time>
      </trkpt>
      <trkpt lat="45.92004" lon="6.51853">
        <ele>2403</ele>
        <time>2017-08-29T08:48:22Z</time>
      </trkpt>
      <trkpt lat="45.92004" lon="6.51853">
        <ele>2403</ele>
        <time>2017-08-29T08:48:23Z</time>
      </trkpt>
      <trkpt lat="45.92004" lon="6.51853">
        <ele>2403</ele>
        <time>2017-08-29T08:48:24Z</time>
      </trkpt>
      <trkpt lat="45.92004" lon="6.51853">
        <ele>2403</ele>
        <time>2017-08-29T08:48:25Z</time>
      </trkpt>
      <trkpt lat="45.92004" lon="6.51853">
        <ele>2403</ele>
        <time>2017-08-29T08:48:26Z</time>
      </trkpt>
      <trkpt lat="45.92004" lon="6.51853">
        <ele>2403</ele>
        <time>2017-08-29T08:48:27Z</time>
      </trkpt>
      <trkpt lat="45.92004" lon="6.51853">
        <ele>2404</ele>
        <time>2017-08-29T08:48:28Z</time>
      </trkpt>
      <trkpt lat="45.92004" lon="6.51853">
        <ele>2404</ele>
        <time>2017-08-29T08:48:29Z</time>
      </trkpt>
      <trkpt lat="45.92004" lon="6.51853">
        <ele>2404</ele>
        <time>2017-08-29T08:48:30Z</time>
      </trkpt>
      <trkpt lat="45.92004" lon="6.51853">
        <ele>2404</ele>
        <time>2017-08-29T08:48:31Z</time>
      </trkpt>
      <trkpt lat="45.92004" lon="6.51855">
        <ele>2404</ele>
        <time>2017-08-29T08:48:32Z</time>
      </trkpt>
      <trkpt lat="45.92004" lon="6.51855">
        <ele>2404</ele>
        <time>2017-08-29T08:48:33Z</time>
      </trkpt>
      <trkpt lat="45.92004" lon="6.51855">
        <ele>2403</ele>
        <time>2017-08-29T08:48:34Z</time>
      </trkpt>
      <trkpt lat="45.92004" lon="6.51855">
        <ele>2403</ele>
        <time>2017-08-29T08:48:35Z</time>
      </trkpt>
      <trkpt lat="45.92004" lon="6.51855">
        <ele>2403</ele>
        <time>2017-08-29T08:48:36Z</time>
      </trkpt>
      <trkpt lat="45.92004" lon="6.51855">
        <ele>2403</ele>
        <time>2017-08-29T08:48:37Z</time>
      </trkpt>
      <trkpt lat="45.92004" lon="6.51855">
        <ele>2403</ele>
        <time>2017-08-29T08:48:38Z</time>
      </trkpt>
      <trkpt lat="45.92003" lon="6.51858">
        <ele>2403</ele>
        <time>2017-08-29T08:48:39Z</time>
      </trkpt>
      <trkpt lat="45.92003" lon="6.51858">
        <ele>2403</ele>
        <time>2017-08-29T08:48:40Z</time>
      </trkpt>
      <trkpt lat="45.92003" lon="6.51858">
        <ele>2403</ele>
        <time>2017-08-29T08:48:41Z</time>
      </trkpt>
      <trkpt lat="45.92003" lon="6.51858">
        <ele>2403</ele>
        <time>2017-08-29T08:48:42Z</time>
      </trkpt>
      <trkpt lat="45.92003" lon="6.51858">
        <ele>2403</ele>
        <time>2017-08-29T08:48:43Z</time>
      </trkpt>
      <trkpt lat="45.92003" lon="6.51858">
        <ele>2403</ele>
        <time>2017-08-29T08:48:44Z</time>
      </trkpt>
      <trkpt lat="45.92003" lon="6.51858">
        <ele>2402</ele>
        <time>2017-08-29T08:48:45Z</time>
      </trkpt>
      <trkpt lat="45.92003" lon="6.51858">
        <ele>2402</ele>
        <time>2017-08-29T08:48:46Z</time>
      </trkpt>
      <trkpt lat="45.92003" lon="6.51858">
        <ele>2402</ele>
        <time>2017-08-29T08:48:47Z</time>
      </trkpt>
      <trkpt lat="45.92003" lon="6.51858">
        <ele>2402</ele>
        <time>2017-08-29T08:48:48Z</time>
      </trkpt>
      <trkpt lat="45.92003" lon="6.51858">
        <ele>2402</ele>
        <time>2017-08-29T08:48:49Z</time>
      </trkpt>
      <trkpt lat="45.92003" lon="6.51858">
        <ele>2402</ele>
        <time>2017-08-29T08:48:50Z</time>
      </trkpt>
      <trkpt lat="45.92003" lon="6.51858">
        <ele>2402</ele>
        <time>2017-08-29T08:48:51Z</time>
      </trkpt>
      <trkpt lat="45.92003" lon="6.51858">
        <ele>2401</ele>
        <time>2017-08-29T08:48:52Z</time>
      </trkpt>
      <trkpt lat="45.92003" lon="6.51858">
        <ele>2401</ele>
        <time>2017-08-29T08:48:53Z</time>
      </trkpt>
      <trkpt lat="45.92003" lon="6.51858">
        <ele>2401</ele>
        <time>2017-08-29T08:48:54Z</time>
      </trkpt>
      <trkpt lat="45.92003" lon="6.51858">
        <ele>2401</ele>
        <time>2017-08-29T08:48:55Z</time>
      </trkpt>
      <trkpt lat="45.92002" lon="6.5186">
        <ele>2401</ele>
        <time>2017-08-29T08:48:56Z</time>
      </trkpt>
      <trkpt lat="45.92002" lon="6.5186">
        <ele>2401</ele>
        <time>2017-08-29T08:48:57Z</time>
      </trkpt>
      <trkpt lat="45.92002" lon="6.5186">
        <ele>2401</ele>
        <time>2017-08-29T08:48:58Z</time>
      </trkpt>
      <trkpt lat="45.92001" lon="6.51864">
        <ele>2401</ele>
        <time>2017-08-29T08:48:59Z</time>
      </trkpt>
      <trkpt lat="45.92001" lon="6.51864">
        <ele>2401</ele>
        <time>2017-08-29T08:49:00Z</time>
      </trkpt>
      <trkpt lat="45.92001" lon="6.51864">
        <ele>2401</ele>
        <time>2017-08-29T08:49:01Z</time>
      </trkpt>
      <trkpt lat="45.92001" lon="6.51864">
        <ele>2401</ele>
        <time>2017-08-29T08:49:02Z</time>
      </trkpt>
      <trkpt lat="45.92" lon="6.51866">
        <ele>2400</ele>
        <time>2017-08-29T08:49:03Z</time>
      </trkpt>
      <trkpt lat="45.92" lon="6.51866">
        <ele>2399</ele>
        <time>2017-08-29T08:49:04Z</time>
      </trkpt>
      <trkpt lat="45.92" lon="6.51866">
        <ele>2399</ele>
        <time>2017-08-29T08:49:05Z</time>
      </trkpt>
      <trkpt lat="45.92" lon="6.51866">
        <ele>2399</ele>
        <time>2017-08-29T08:49:06Z</time>
      </trkpt>
      <trkpt lat="45.92" lon="6.51866">
        <ele>2399</ele>
        <time>2017-08-29T08:49:07Z</time>
      </trkpt>
      <trkpt lat="45.91999" lon="6.51868">
        <ele>2399</ele>
        <time>2017-08-29T08:49:08Z</time>
      </trkpt>
      <trkpt lat="45.91999" lon="6.51868">
        <ele>2399</ele>
        <time>2017-08-29T08:49:09Z</time>
      </trkpt>
      <trkpt lat="45.91999" lon="6.51868">
        <ele>2399</ele>
        <time>2017-08-29T08:49:10Z</time>
      </trkpt>
      <trkpt lat="45.91999" lon="6.51868">
        <ele>2399</ele>
        <time>2017-08-29T08:49:11Z</time>
      </trkpt>
      <trkpt lat="45.91999" lon="6.51868">
        <ele>2399</ele>
        <time>2017-08-29T08:49:12Z</time>
      </trkpt>
      <trkpt lat="45.91997" lon="6.51871">
        <ele>2399</ele>
        <time>2017-08-29T08:49:13Z</time>
      </trkpt>
      <trkpt lat="45.91997" lon="6.51871">
        <ele>2398</ele>
        <time>2017-08-29T08:49:14Z</time>
      </trkpt>
      <trkpt lat="45.91997" lon="6.51874">
        <ele>2398</ele>
        <time>2017-08-29T08:49:15Z</time>
      </trkpt>
      <trkpt lat="45.91997" lon="6.51874">
        <ele>2398</ele>
        <time>2017-08-29T08:49:16Z</time>
      </trkpt>
      <trkpt lat="45.91996" lon="6.51877">
        <ele>2398</ele>
        <time>2017-08-29T08:49:17Z</time>
      </trkpt>
      <trkpt lat="45.91996" lon="6.51877">
        <ele>2398</ele>
        <time>2017-08-29T08:49:18Z</time>
      </trkpt>
      <trkpt lat="45.91996" lon="6.51879">
        <ele>2397</ele>
        <time>2017-08-29T08:49:19Z</time>
      </trkpt>
      <trkpt lat="45.91996" lon="6.51879">
        <ele>2397</ele>
        <time>2017-08-29T08:49:20Z</time>
      </trkpt>
      <trkpt lat="45.91995" lon="6.51884">
        <ele>2397</ele>
        <time>2017-08-29T08:49:21Z</time>
      </trkpt>
      <trkpt lat="45.91995" lon="6.51884">
        <ele>2397</ele>
        <time>2017-08-29T08:49:22Z</time>
      </trkpt>
      <trkpt lat="45.91994" lon="6.51888">
        <ele>2396</ele>
        <time>2017-08-29T08:49:23Z</time>
      </trkpt>
      <trkpt lat="45.91994" lon="6.51888">
        <ele>2396</ele>
        <time>2017-08-29T08:49:24Z</time>
      </trkpt>
      <trkpt lat="45.91993" lon="6.51893">
        <ele>2396</ele>
        <time>2017-08-29T08:49:25Z</time>
      </trkpt>
      <trkpt lat="45.91993" lon="6.51893">
        <ele>2396</ele>
        <time>2017-08-29T08:49:26Z</time>
      </trkpt>
      <trkpt lat="45.91993" lon="6.51893">
        <ele>2396</ele>
        <time>2017-08-29T08:49:27Z</time>
      </trkpt>
      <trkpt lat="45.91993" lon="6.51893">
        <ele>2396</ele>
        <time>2017-08-29T08:49:28Z</time>
      </trkpt>
      <trkpt lat="45.91993" lon="6.51893">
        <ele>2396</ele>
        <time>2017-08-29T08:49:29Z</time>
      </trkpt>
      <trkpt lat="45.91993" lon="6.51893">
        <ele>2396</ele>
        <time>2017-08-29T08:49:30Z</time>
      </trkpt>
      <trkpt lat="45.91993" lon="6.51893">
        <ele>2396</ele>
        <time>2017-08-29T08:49:31Z</time>
      </trkpt>
      <trkpt lat="45.91993" lon="6.51893">
        <ele>2396</ele>
        <time>2017-08-29T08:49:32Z</time>
      </trkpt>
      <trkpt lat="45.91993" lon="6.51893">
        <ele>2396</ele>
        <time>2017-08-29T08:49:33Z</time>
      </trkpt>
      <trkpt lat="45.91993" lon="6.51893">
        <ele>2396</ele>
        <time>2017-08-29T08:49:34Z</time>
      </trkpt>
      <trkpt lat="45.91993" lon="6.51893">
        <ele>2396</ele>
        <time>2017-08-29T08:49:35Z</time>
      </trkpt>
      <trkpt lat="45.91993" lon="6.51893">
        <ele>2396</ele>
        <time>2017-08-29T08:49:36Z</time>
      </trkpt>
      <trkpt lat="45.91993" lon="6.51893">
        <ele>2396</ele>
        <time>2017-08-29T08:49:37Z</time>
      </trkpt>
      <trkpt lat="45.91993" lon="6.51893">
        <ele>2396</ele>
        <time>2017-08-29T08:49:38Z</time>
      </trkpt>
      <trkpt lat="45.91993" lon="6.51893">
        <ele>2396</ele>
        <time>2017-08-29T08:49:39Z</time>
      </trkpt>
      <trkpt lat="45.91993" lon="6.51893">
        <ele>2396</ele>
        <time>2017-08-29T08:49:40Z</time>
      </trkpt>
      <trkpt lat="45.91993" lon="6.51893">
        <ele>2396</ele>
        <time>2017-08-29T08:49:41Z</time>
      </trkpt>
      <trkpt lat="45.91993" lon="6.51893">
        <ele>2395</ele>
        <time>2017-08-29T08:49:42Z</time>
      </trkpt>
      <trkpt lat="45.91992" lon="6.51896">
        <ele>2395</ele>
        <time>2017-08-29T08:49:43Z</time>
      </trkpt>
      <trkpt lat="45.91992" lon="6.51896">
        <ele>2395</ele>
        <time>2017-08-29T08:49:44Z</time>
      </trkpt>
      <trkpt lat="45.91991" lon="6.51899">
        <ele>2395</ele>
        <time>2017-08-29T08:49:45Z</time>
      </trkpt>
      <trkpt lat="45.91991" lon="6.51899">
        <ele>2395</ele>
        <time>2017-08-29T08:49:46Z</time>
      </trkpt>
      <trkpt lat="45.91989" lon="6.51902">
        <ele>2395</ele>
        <time>2017-08-29T08:49:47Z</time>
      </trkpt>
      <trkpt lat="45.91989" lon="6.51902">
        <ele>2395</ele>
        <time>2017-08-29T08:49:48Z</time>
      </trkpt>
      <trkpt lat="45.91989" lon="6.51905">
        <ele>2394</ele>
        <time>2017-08-29T08:49:49Z</time>
      </trkpt>
      <trkpt lat="45.91989" lon="6.51905">
        <ele>2394</ele>
        <time>2017-08-29T08:49:50Z</time>
      </trkpt>
      <trkpt lat="45.91988" lon="6.51907">
        <ele>2394</ele>
        <time>2017-08-29T08:49:51Z</time>
      </trkpt>
      <trkpt lat="45.91988" lon="6.51907">
        <ele>2394</ele>
        <time>2017-08-29T08:49:52Z</time>
      </trkpt>
      <trkpt lat="45.91988" lon="6.51911">
        <ele>2394</ele>
        <time>2017-08-29T08:49:53Z</time>
      </trkpt>
      <trkpt lat="45.91988" lon="6.51911">
        <ele>2394</ele>
        <time>2017-08-29T08:49:54Z</time>
      </trkpt>
      <trkpt lat="45.91988" lon="6.51915">
        <ele>2394</ele>
        <time>2017-08-29T08:49:55Z</time>
      </trkpt>
      <trkpt lat="45.91988" lon="6.51915">
        <ele>2392</ele>
        <time>2017-08-29T08:49:56Z</time>
      </trkpt>
      <trkpt lat="45.91988" lon="6.51919">
        <ele>2392</ele>
        <time>2017-08-29T08:49:57Z</time>
      </trkpt>
      <trkpt lat="45.91988" lon="6.51919">
        <ele>2392</ele>
        <time>2017-08-29T08:49:58Z</time>
      </trkpt>
      <trkpt lat="45.91988" lon="6.51919">
        <ele>2392</ele>
        <time>2017-08-29T08:49:59Z</time>
      </trkpt>
      <trkpt lat="45.91988" lon="6.51919">
        <ele>2392</ele>
        <time>2017-08-29T08:50:00Z</time>
      </trkpt>
      <trkpt lat="45.91988" lon="6.51919">
        <ele>2392</ele>
        <time>2017-08-29T08:50:01Z</time>
      </trkpt>
      <trkpt lat="45.91988" lon="6.51919">
        <ele>2392</ele>
        <time>2017-08-29T08:50:02Z</time>
      </trkpt>
      <trkpt lat="45.91988" lon="6.51919">
        <ele>2392</ele>
        <time>2017-08-29T08:50:03Z</time>
      </trkpt>
      <trkpt lat="45.91988" lon="6.51919">
        <ele>2392</ele>
        <time>2017-08-29T08:50:04Z</time>
      </trkpt>
      <trkpt lat="45.91988" lon="6.51919">
        <ele>2392</ele>
        <time>2017-08-29T08:50:05Z</time>
      </trkpt>
      <trkpt lat="45.91988" lon="6.51919">
        <ele>2392</ele>
        <time>2017-08-29T08:50:06Z</time>
      </trkpt>
      <trkpt lat="45.91988" lon="6.51919">
        <ele>2392</ele>
        <time>2017-08-29T08:50:07Z</time>
      </trkpt>
      <trkpt lat="45.91988" lon="6.51919">
        <ele>2392</ele>
        <time>2017-08-29T08:50:08Z</time>
      </trkpt>
      <trkpt lat="45.91988" lon="6.51919">
        <ele>2392</ele>
        <time>2017-08-29T08:50:09Z</time>
      </trkpt>
      <trkpt lat="45.91988" lon="6.51919">
        <ele>2392</ele>
        <time>2017-08-29T08:50:10Z</time>
      </trkpt>
      <trkpt lat="45.91988" lon="6.51919">
        <ele>2392</ele>
        <time>2017-08-29T08:50:11Z</time>
      </trkpt>
      <trkpt lat="45.91988" lon="6.51919">
        <ele>2392</ele>
        <time>2017-08-29T08:50:12Z</time>
      </trkpt>
      <trkpt lat="45.91988" lon="6.51919">
        <ele>2392</ele>
        <time>2017-08-29T08:50:13Z</time>
      </trkpt>
      <trkpt lat="45.91988" lon="6.51919">
        <ele>2392</ele>
        <time>2017-08-29T08:50:14Z</time>
      </trkpt>
      <trkpt lat="45.91988" lon="6.51919">
        <ele>2392</ele>
        <time>2017-08-29T08:50:15Z</time>
      </trkpt>
      <trkpt lat="45.91988" lon="6.51919">
        <ele>2392</ele>
        <time>2017-08-29T08:50:16Z</time>
      </trkpt>
      <trkpt lat="45.91988" lon="6.51919">
        <ele>2392</ele>
        <time>2017-08-29T08:50:17Z</time>
      </trkpt>
      <trkpt lat="45.91988" lon="6.51919">
        <ele>2392</ele>
        <time>2017-08-29T08:50:18Z</time>
      </trkpt>
      <trkpt lat="45.91988" lon="6.51919">
        <ele>2392</ele>
        <time>2017-08-29T08:50:19Z</time>
      </trkpt>
      <trkpt lat="45.91988" lon="6.51919">
        <ele>2392</ele>
        <time>2017-08-29T08:50:20Z</time>
      </trkpt>
      <trkpt lat="45.91988" lon="6.51919">
        <ele>2392</ele>
        <time>2017-08-29T08:50:21Z</time>
      </trkpt>
      <trkpt lat="45.91988" lon="6.51922">
        <ele>2392</ele>
        <time>2017-08-29T08:50:22Z</time>
      </trkpt>
      <trkpt lat="45.91988" lon="6.51922">
        <ele>2392</ele>
        <time>2017-08-29T08:50:23Z</time>
      </trkpt>
      <trkpt lat="45.91988" lon="6.51922">
        <ele>2392</ele>
        <time>2017-08-29T08:50:24Z</time>
      </trkpt>
      <trkpt lat="45.91988" lon="6.51922">
        <ele>2392</ele>
        <time>2017-08-29T08:50:25Z</time>
      </trkpt>
      <trkpt lat="45.91988" lon="6.51922">
        <ele>2392</ele>
        <time>2017-08-29T08:50:26Z</time>
      </trkpt>
      <trkpt lat="45.91988" lon="6.51922">
        <ele>2392</ele>
        <time>2017-08-29T08:50:27Z</time>
      </trkpt>
      <trkpt lat="45.91988" lon="6.51922">
        <ele>2391</ele>
        <time>2017-08-29T08:50:28Z</time>
      </trkpt>
      <trkpt lat="45.91988" lon="6.51924">
        <ele>2391</ele>
        <time>2017-08-29T08:50:29Z</time>
      </trkpt>
      <trkpt lat="45.91988" lon="6.51924">
        <ele>2390</ele>
        <time>2017-08-29T08:50:30Z</time>
      </trkpt>
      <trkpt lat="45.91988" lon="6.51924">
        <ele>2390</ele>
        <time>2017-08-29T08:50:31Z</time>
      </trkpt>
      <trkpt lat="45.91988" lon="6.51924">
        <ele>2389</ele>
        <time>2017-08-29T08:50:32Z</time>
      </trkpt>
      <trkpt lat="45.91988" lon="6.51924">
        <ele>2389</ele>
        <time>2017-08-29T08:50:33Z</time>
      </trkpt>
      <trkpt lat="45.91988" lon="6.51924">
        <ele>2389</ele>
        <time>2017-08-29T08:50:34Z</time>
      </trkpt>
      <trkpt lat="45.91987" lon="6.51927">
        <ele>2389</ele>
        <time>2017-08-29T08:50:35Z</time>
      </trkpt>
      <trkpt lat="45.91987" lon="6.51927">
        <ele>2389</ele>
        <time>2017-08-29T08:50:36Z</time>
      </trkpt>
      <trkpt lat="45.91987" lon="6.51927">
        <ele>2389</ele>
        <time>2017-08-29T08:50:37Z</time>
      </trkpt>
      <trkpt lat="45.91987" lon="6.51927">
        <ele>2389</ele>
        <time>2017-08-29T08:50:38Z</time>
      </trkpt>
      <trkpt lat="45.91987" lon="6.51927">
        <ele>2388</ele>
        <time>2017-08-29T08:50:39Z</time>
      </trkpt>
      <trkpt lat="45.91985" lon="6.51929">
        <ele>2388</ele>
        <time>2017-08-29T08:50:40Z</time>
      </trkpt>
      <trkpt lat="45.91985" lon="6.51929">
        <ele>2387</ele>
        <time>2017-08-29T08:50:41Z</time>
      </trkpt>
      <trkpt lat="45.91985" lon="6.51929">
        <ele>2387</ele>
        <time>2017-08-29T08:50:42Z</time>
      </trkpt>
      <trkpt lat="45.91985" lon="6.51929">
        <ele>2387</ele>
        <time>2017-08-29T08:50:43Z</time>
      </trkpt>
      <trkpt lat="45.91985" lon="6.51929">
        <ele>2387</ele>
        <time>2017-08-29T08:50:44Z</time>
      </trkpt>
      <trkpt lat="45.91985" lon="6.51929">
        <ele>2387</ele>
        <time>2017-08-29T08:50:45Z</time>
      </trkpt>
      <trkpt lat="45.91984" lon="6.51931">
        <ele>2387</ele>
        <time>2017-08-29T08:50:46Z</time>
      </trkpt>
      <trkpt lat="45.91984" lon="6.51931">
        <ele>2387</ele>
        <time>2017-08-29T08:50:47Z</time>
      </trkpt>
      <trkpt lat="45.91984" lon="6.51931">
        <ele>2387</ele>
        <time>2017-08-29T08:50:48Z</time>
      </trkpt>
      <trkpt lat="45.91984" lon="6.51931">
        <ele>2387</ele>
        <time>2017-08-29T08:50:49Z</time>
      </trkpt>
      <trkpt lat="45.91982" lon="6.51933">
        <ele>2385</ele>
        <time>2017-08-29T08:50:50Z</time>
      </trkpt>
      <trkpt lat="45.91982" lon="6.51933">
        <ele>2385</ele>
        <time>2017-08-29T08:50:51Z</time>
      </trkpt>
      <trkpt lat="45.91982" lon="6.51933">
        <ele>2385</ele>
        <time>2017-08-29T08:50:52Z</time>
      </trkpt>
      <trkpt lat="45.91982" lon="6.51933">
        <ele>2385</ele>
        <time>2017-08-29T08:50:53Z</time>
      </trkpt>
      <trkpt lat="45.91982" lon="6.51933">
        <ele>2385</ele>
        <time>2017-08-29T08:50:54Z</time>
      </trkpt>
      <trkpt lat="45.91982" lon="6.51933">
        <ele>2385</ele>
        <time>2017-08-29T08:50:55Z</time>
      </trkpt>
      <trkpt lat="45.91982" lon="6.51935">
        <ele>2385</ele>
        <time>2017-08-29T08:50:56Z</time>
      </trkpt>
      <trkpt lat="45.91982" lon="6.51935">
        <ele>2385</ele>
        <time>2017-08-29T08:50:57Z</time>
      </trkpt>
      <trkpt lat="45.91982" lon="6.51935">
        <ele>2385</ele>
        <time>2017-08-29T08:50:58Z</time>
      </trkpt>
      <trkpt lat="45.91982" lon="6.51935">
        <ele>2385</ele>
        <time>2017-08-29T08:50:59Z</time>
      </trkpt>
      <trkpt lat="45.91982" lon="6.51935">
        <ele>2384</ele>
        <time>2017-08-29T08:51:00Z</time>
      </trkpt>
      <trkpt lat="45.91982" lon="6.51938">
        <ele>2384</ele>
        <time>2017-08-29T08:51:01Z</time>
      </trkpt>
      <trkpt lat="45.91982" lon="6.51938">
        <ele>2384</ele>
        <time>2017-08-29T08:51:02Z</time>
      </trkpt>
      <trkpt lat="45.91982" lon="6.51938">
        <ele>2383</ele>
        <time>2017-08-29T08:51:03Z</time>
      </trkpt>
      <trkpt lat="45.91982" lon="6.51938">
        <ele>2383</ele>
        <time>2017-08-29T08:51:04Z</time>
      </trkpt>
      <trkpt lat="45.91982" lon="6.51938">
        <ele>2383</ele>
        <time>2017-08-29T08:51:05Z</time>
      </trkpt>
      <trkpt lat="45.91982" lon="6.51938">
        <ele>2383</ele>
        <time>2017-08-29T08:51:06Z</time>
      </trkpt>
      <trkpt lat="45.91982" lon="6.51938">
        <ele>2383</ele>
        <time>2017-08-29T08:51:07Z</time>
      </trkpt>
      <trkpt lat="45.91982" lon="6.51938">
        <ele>2382</ele>
        <time>2017-08-29T08:51:08Z</time>
      </trkpt>
      <trkpt lat="45.91982" lon="6.51938">
        <ele>2382</ele>
        <time>2017-08-29T08:51:09Z</time>
      </trkpt>
      <trkpt lat="45.91984" lon="6.5194">
        <ele>2382</ele>
        <time>2017-08-29T08:51:10Z</time>
      </trkpt>
      <trkpt lat="45.91984" lon="6.5194">
        <ele>2382</ele>
        <time>2017-08-29T08:51:11Z</time>
      </trkpt>
      <trkpt lat="45.91984" lon="6.5194">
        <ele>2382</ele>
        <time>2017-08-29T08:51:12Z</time>
      </trkpt>
      <trkpt lat="45.91984" lon="6.5194">
        <ele>2382</ele>
        <time>2017-08-29T08:51:13Z</time>
      </trkpt>
      <trkpt lat="45.91984" lon="6.51943">
        <ele>2382</ele>
        <time>2017-08-29T08:51:14Z</time>
      </trkpt>
      <trkpt lat="45.91984" lon="6.51943">
        <ele>2382</ele>
        <time>2017-08-29T08:51:15Z</time>
      </trkpt>
      <trkpt lat="45.91984" lon="6.51943">
        <ele>2381</ele>
        <time>2017-08-29T08:51:16Z</time>
      </trkpt>
      <trkpt lat="45.91984" lon="6.51943">
        <ele>2381</ele>
        <time>2017-08-29T08:51:17Z</time>
      </trkpt>
      <trkpt lat="45.91984" lon="6.51943">
        <ele>2381</ele>
        <time>2017-08-29T08:51:18Z</time>
      </trkpt>
      <trkpt lat="45.91984" lon="6.51943">
        <ele>2381</ele>
        <time>2017-08-29T08:51:19Z</time>
      </trkpt>
      <trkpt lat="45.91984" lon="6.51943">
        <ele>2381</ele>
        <time>2017-08-29T08:51:20Z</time>
      </trkpt>
      <trkpt lat="45.91985" lon="6.51945">
        <ele>2380</ele>
        <time>2017-08-29T08:51:21Z</time>
      </trkpt>
      <trkpt lat="45.91985" lon="6.51945">
        <ele>2380</ele>
        <time>2017-08-29T08:51:22Z</time>
      </trkpt>
      <trkpt lat="45.91985" lon="6.51945">
        <ele>2380</ele>
        <time>2017-08-29T08:51:23Z</time>
      </trkpt>
      <trkpt lat="45.91985" lon="6.51945">
        <ele>2380</ele>
        <time>2017-08-29T08:51:24Z</time>
      </trkpt>
      <trkpt lat="45.91985" lon="6.51945">
        <ele>2380</ele>
        <time>2017-08-29T08:51:25Z</time>
      </trkpt>
      <trkpt lat="45.91985" lon="6.51945">
        <ele>2380</ele>
        <time>2017-08-29T08:51:26Z</time>
      </trkpt>
      <trkpt lat="45.91985" lon="6.51945">
        <ele>2379</ele>
        <time>2017-08-29T08:51:27Z</time>
      </trkpt>
      <trkpt lat="45.91985" lon="6.51945">
        <ele>2379</ele>
        <time>2017-08-29T08:51:28Z</time>
      </trkpt>
      <trkpt lat="45.91985" lon="6.51945">
        <ele>2379</ele>
        <time>2017-08-29T08:51:29Z</time>
      </trkpt>
      <trkpt lat="45.91985" lon="6.51945">
        <ele>2379</ele>
        <time>2017-08-29T08:51:30Z</time>
      </trkpt>
      <trkpt lat="45.91985" lon="6.51945">
        <ele>2379</ele>
        <time>2017-08-29T08:51:31Z</time>
      </trkpt>
      <trkpt lat="45.91985" lon="6.51945">
        <ele>2379</ele>
        <time>2017-08-29T08:51:32Z</time>
      </trkpt>
      <trkpt lat="45.91985" lon="6.51945">
        <ele>2379</ele>
        <time>2017-08-29T08:51:33Z</time>
      </trkpt>
      <trkpt lat="45.91985" lon="6.51945">
        <ele>2379</ele>
        <time>2017-08-29T08:51:34Z</time>
      </trkpt>
      <trkpt lat="45.91985" lon="6.51945">
        <ele>2379</ele>
        <time>2017-08-29T08:51:35Z</time>
      </trkpt>
      <trkpt lat="45.91985" lon="6.51945">
        <ele>2378</ele>
        <time>2017-08-29T08:51:36Z</time>
      </trkpt>
      <trkpt lat="45.91985" lon="6.51945">
        <ele>2378</ele>
        <time>2017-08-29T08:51:37Z</time>
      </trkpt>
      <trkpt lat="45.91985" lon="6.51945">
        <ele>2378</ele>
        <time>2017-08-29T08:51:38Z</time>
      </trkpt>
      <trkpt lat="45.91985" lon="6.51945">
        <ele>2378</ele>
        <time>2017-08-29T08:51:39Z</time>
      </trkpt>
      <trkpt lat="45.91985" lon="6.51945">
        <ele>2378</ele>
        <time>2017-08-29T08:51:40Z</time>
      </trkpt>
      <trkpt lat="45.91985" lon="6.51945">
        <ele>2378</ele>
        <time>2017-08-29T08:51:41Z</time>
      </trkpt>
      <trkpt lat="45.91987" lon="6.51947">
        <ele>2378</ele>
        <time>2017-08-29T08:51:42Z</time>
      </trkpt>
      <trkpt lat="45.91987" lon="6.51947">
        <ele>2378</ele>
        <time>2017-08-29T08:51:43Z</time>
      </trkpt>
      <trkpt lat="45.91987" lon="6.51947">
        <ele>2378</ele>
        <time>2017-08-29T08:51:44Z</time>
      </trkpt>
      <trkpt lat="45.91987" lon="6.51947">
        <ele>2378</ele>
        <time>2017-08-29T08:51:45Z</time>
      </trkpt>
      <trkpt lat="45.91987" lon="6.51947">
        <ele>2378</ele>
        <time>2017-08-29T08:51:46Z</time>
      </trkpt>
      <trkpt lat="45.91988" lon="6.51949">
        <ele>2378</ele>
        <time>2017-08-29T08:51:47Z</time>
      </trkpt>
      <trkpt lat="45.91988" lon="6.51949">
        <ele>2378</ele>
        <time>2017-08-29T08:51:48Z</time>
      </trkpt>
      <trkpt lat="45.91988" lon="6.51949">
        <ele>2378</ele>
        <time>2017-08-29T08:51:49Z</time>
      </trkpt>
      <trkpt lat="45.91988" lon="6.51949">
        <ele>2378</ele>
        <time>2017-08-29T08:51:50Z</time>
      </trkpt>
      <trkpt lat="45.91988" lon="6.51949">
        <ele>2377</ele>
        <time>2017-08-29T08:51:51Z</time>
      </trkpt>
      <trkpt lat="45.91988" lon="6.51949">
        <ele>2376</ele>
        <time>2017-08-29T08:51:52Z</time>
      </trkpt>
      <trkpt lat="45.91988" lon="6.51949">
        <ele>2376</ele>
        <time>2017-08-29T08:51:53Z</time>
      </trkpt>
      <trkpt lat="45.91988" lon="6.51949">
        <ele>2376</ele>
        <time>2017-08-29T08:51:54Z</time>
      </trkpt>
      <trkpt lat="45.91988" lon="6.51949">
        <ele>2376</ele>
        <time>2017-08-29T08:51:55Z</time>
      </trkpt>
      <trkpt lat="45.9199" lon="6.51948">
        <ele>2376</ele>
        <time>2017-08-29T08:51:56Z</time>
      </trkpt>
      <trkpt lat="45.9199" lon="6.51948">
        <ele>2376</ele>
        <time>2017-08-29T08:51:57Z</time>
      </trkpt>
      <trkpt lat="45.9199" lon="6.51948">
        <ele>2375</ele>
        <time>2017-08-29T08:51:58Z</time>
      </trkpt>
      <trkpt lat="45.9199" lon="6.51948">
        <ele>2375</ele>
        <time>2017-08-29T08:51:59Z</time>
      </trkpt>
      <trkpt lat="45.9199" lon="6.51948">
        <ele>2375</ele>
        <time>2017-08-29T08:52:00Z</time>
      </trkpt>
      <trkpt lat="45.9199" lon="6.51948">
        <ele>2375</ele>
        <time>2017-08-29T08:52:01Z</time>
      </trkpt>
      <trkpt lat="45.9199" lon="6.51948">
        <ele>2375</ele>
        <time>2017-08-29T08:52:02Z</time>
      </trkpt>
      <trkpt lat="45.9199" lon="6.51948">
        <ele>2375</ele>
        <time>2017-08-29T08:52:03Z</time>
      </trkpt>
      <trkpt lat="45.9199" lon="6.51944">
        <ele>2375</ele>
        <time>2017-08-29T08:52:04Z</time>
      </trkpt>
      <trkpt lat="45.9199" lon="6.51944">
        <ele>2375</ele>
        <time>2017-08-29T08:52:05Z</time>
      </trkpt>
      <trkpt lat="45.91992" lon="6.51944">
        <ele>2375</ele>
        <time>2017-08-29T08:52:06Z</time>
      </trkpt>
      <trkpt lat="45.91994" lon="6.51946">
        <ele>2375</ele>
        <time>2017-08-29T08:52:07Z</time>
      </trkpt>
      <trkpt lat="45.91994" lon="6.51946">
        <ele>2375</ele>
        <time>2017-08-29T08:52:08Z</time>
      </trkpt>
      <trkpt lat="45.91995" lon="6.51949">
        <ele>2374</ele>
        <time>2017-08-29T08:52:09Z</time>
      </trkpt>
      <trkpt lat="45.91995" lon="6.51949">
        <ele>2373</ele>
        <time>2017-08-29T08:52:10Z</time>
      </trkpt>
      <trkpt lat="45.91995" lon="6.51949">
        <ele>2373</ele>
        <time>2017-08-29T08:52:11Z</time>
      </trkpt>
      <trkpt lat="45.91995" lon="6.51949">
        <ele>2372</ele>
        <time>2017-08-29T08:52:12Z</time>
      </trkpt>
      <trkpt lat="45.91995" lon="6.51949">
        <ele>2372</ele>
        <time>2017-08-29T08:52:13Z</time>
      </trkpt>
      <trkpt lat="45.91995" lon="6.51949">
        <ele>2372</ele>
        <time>2017-08-29T08:52:14Z</time>
      </trkpt>
      <trkpt lat="45.91995" lon="6.51949">
        <ele>2372</ele>
        <time>2017-08-29T08:52:15Z</time>
      </trkpt>
      <trkpt lat="45.91995" lon="6.51949">
        <ele>2372</ele>
        <time>2017-08-29T08:52:16Z</time>
      </trkpt>
      <trkpt lat="45.91995" lon="6.51949">
        <ele>2372</ele>
        <time>2017-08-29T08:52:17Z</time>
      </trkpt>
      <trkpt lat="45.91995" lon="6.51949">
        <ele>2372</ele>
        <time>2017-08-29T08:52:18Z</time>
      </trkpt>
      <trkpt lat="45.91995" lon="6.51949">
        <ele>2372</ele>
        <time>2017-08-29T08:52:19Z</time>
      </trkpt>
      <trkpt lat="45.91995" lon="6.51949">
        <ele>2372</ele>
        <time>2017-08-29T08:52:20Z</time>
      </trkpt>
      <trkpt lat="45.91995" lon="6.51949">
        <ele>2372</ele>
        <time>2017-08-29T08:52:21Z</time>
      </trkpt>
      <trkpt lat="45.91995" lon="6.51949">
        <ele>2372</ele>
        <time>2017-08-29T08:52:22Z</time>
      </trkpt>
      <trkpt lat="45.91995" lon="6.51949">
        <ele>2372</ele>
        <time>2017-08-29T08:52:23Z</time>
      </trkpt>
      <trkpt lat="45.91995" lon="6.51949">
        <ele>2371</ele>
        <time>2017-08-29T08:52:24Z</time>
      </trkpt>
      <trkpt lat="45.91998" lon="6.51948">
        <ele>2371</ele>
        <time>2017-08-29T08:52:25Z</time>
      </trkpt>
      <trkpt lat="45.91998" lon="6.51948">
        <ele>2371</ele>
        <time>2017-08-29T08:52:26Z</time>
      </trkpt>
      <trkpt lat="45.92" lon="6.5195">
        <ele>2371</ele>
        <time>2017-08-29T08:52:27Z</time>
      </trkpt>
      <trkpt lat="45.92" lon="6.5195">
        <ele>2370</ele>
        <time>2017-08-29T08:52:28Z</time>
      </trkpt>
      <trkpt lat="45.92" lon="6.5195">
        <ele>2370</ele>
        <time>2017-08-29T08:52:29Z</time>
      </trkpt>
      <trkpt lat="45.92001" lon="6.51953">
        <ele>2369</ele>
        <time>2017-08-29T08:52:30Z</time>
      </trkpt>
      <trkpt lat="45.92001" lon="6.51953">
        <ele>2369</ele>
        <time>2017-08-29T08:52:31Z</time>
      </trkpt>
      <trkpt lat="45.92001" lon="6.51953">
        <ele>2369</ele>
        <time>2017-08-29T08:52:32Z</time>
      </trkpt>
      <trkpt lat="45.92002" lon="6.51956">
        <ele>2368</ele>
        <time>2017-08-29T08:52:33Z</time>
      </trkpt>
      <trkpt lat="45.92002" lon="6.51956">
        <ele>2368</ele>
        <time>2017-08-29T08:52:34Z</time>
      </trkpt>
      <trkpt lat="45.92002" lon="6.51956">
        <ele>2368</ele>
        <time>2017-08-29T08:52:35Z</time>
      </trkpt>
      <trkpt lat="45.92002" lon="6.51959">
        <ele>2368</ele>
        <time>2017-08-29T08:52:36Z</time>
      </trkpt>
      <trkpt lat="45.92002" lon="6.51959">
        <ele>2368</ele>
        <time>2017-08-29T08:52:37Z</time>
      </trkpt>
      <trkpt lat="45.92002" lon="6.51959">
        <ele>2367</ele>
        <time>2017-08-29T08:52:38Z</time>
      </trkpt>
      <trkpt lat="45.92002" lon="6.51959">
        <ele>2367</ele>
        <time>2017-08-29T08:52:39Z</time>
      </trkpt>
      <trkpt lat="45.92002" lon="6.51959">
        <ele>2366</ele>
        <time>2017-08-29T08:52:40Z</time>
      </trkpt>
      <trkpt lat="45.92001" lon="6.51961">
        <ele>2366</ele>
        <time>2017-08-29T08:52:41Z</time>
      </trkpt>
      <trkpt lat="45.92001" lon="6.51961">
        <ele>2366</ele>
        <time>2017-08-29T08:52:42Z</time>
      </trkpt>
      <trkpt lat="45.92001" lon="6.51961">
        <ele>2366</ele>
        <time>2017-08-29T08:52:43Z</time>
      </trkpt>
      <trkpt lat="45.92001" lon="6.51961">
        <ele>2366</ele>
        <time>2017-08-29T08:52:44Z</time>
      </trkpt>
      <trkpt lat="45.92" lon="6.51963">
        <ele>2366</ele>
        <time>2017-08-29T08:52:45Z</time>
      </trkpt>
      <trkpt lat="45.92" lon="6.51963">
        <ele>2366</ele>
        <time>2017-08-29T08:52:46Z</time>
      </trkpt>
      <trkpt lat="45.92" lon="6.51963">
        <ele>2364</ele>
        <time>2017-08-29T08:52:47Z</time>
      </trkpt>
      <trkpt lat="45.92" lon="6.51966">
        <ele>2364</ele>
        <time>2017-08-29T08:52:48Z</time>
      </trkpt>
      <trkpt lat="45.92" lon="6.51966">
        <ele>2364</ele>
        <time>2017-08-29T08:52:49Z</time>
      </trkpt>
      <trkpt lat="45.92" lon="6.51969">
        <ele>2364</ele>
        <time>2017-08-29T08:52:50Z</time>
      </trkpt>
      <trkpt lat="45.92" lon="6.51969">
        <ele>2363</ele>
        <time>2017-08-29T08:52:51Z</time>
      </trkpt>
      <trkpt lat="45.92" lon="6.51972">
        <ele>2363</ele>
        <time>2017-08-29T08:52:52Z</time>
      </trkpt>
      <trkpt lat="45.92" lon="6.51972">
        <ele>2363</ele>
        <time>2017-08-29T08:52:53Z</time>
      </trkpt>
      <trkpt lat="45.92" lon="6.51972">
        <ele>2362</ele>
        <time>2017-08-29T08:52:54Z</time>
      </trkpt>
      <trkpt lat="45.92002" lon="6.51976">
        <ele>2362</ele>
        <time>2017-08-29T08:52:55Z</time>
      </trkpt>
      <trkpt lat="45.92002" lon="6.51976">
        <ele>2362</ele>
        <time>2017-08-29T08:52:56Z</time>
      </trkpt>
      <trkpt lat="45.92004" lon="6.51979">
        <ele>2358</ele>
        <time>2017-08-29T08:52:57Z</time>
      </trkpt>
      <trkpt lat="45.92004" lon="6.51982">
        <ele>2357</ele>
        <time>2017-08-29T08:52:58Z</time>
      </trkpt>
      <trkpt lat="45.92004" lon="6.51982">
        <ele>2357</ele>
        <time>2017-08-29T08:52:59Z</time>
      </trkpt>
      <trkpt lat="45.92006" lon="6.51985">
        <ele>2357</ele>
        <time>2017-08-29T08:53:00Z</time>
      </trkpt>
      <trkpt lat="45.92006" lon="6.51985">
        <ele>2356</ele>
        <time>2017-08-29T08:53:01Z</time>
      </trkpt>
      <trkpt lat="45.92008" lon="6.51988">
        <ele>2356</ele>
        <time>2017-08-29T08:53:02Z</time>
      </trkpt>
      <trkpt lat="45.92008" lon="6.51988">
        <ele>2356</ele>
        <time>2017-08-29T08:53:03Z</time>
      </trkpt>
      <trkpt lat="45.92011" lon="6.51991">
        <ele>2355</ele>
        <time>2017-08-29T08:53:04Z</time>
      </trkpt>
      <trkpt lat="45.92011" lon="6.51991">
        <ele>2355</ele>
        <time>2017-08-29T08:53:05Z</time>
      </trkpt>
      <trkpt lat="45.92012" lon="6.51994">
        <ele>2354</ele>
        <time>2017-08-29T08:53:06Z</time>
      </trkpt>
      <trkpt lat="45.92014" lon="6.51996">
        <ele>2353</ele>
        <time>2017-08-29T08:53:07Z</time>
      </trkpt>
      <trkpt lat="45.92015" lon="6.51998">
        <ele>2353</ele>
        <time>2017-08-29T08:53:08Z</time>
      </trkpt>
      <trkpt lat="45.92015" lon="6.51998">
        <ele>2352</ele>
        <time>2017-08-29T08:53:09Z</time>
      </trkpt>
      <trkpt lat="45.92017" lon="6.52001">
        <ele>2351</ele>
        <time>2017-08-29T08:53:10Z</time>
      </trkpt>
      <trkpt lat="45.92017" lon="6.52001">
        <ele>2351</ele>
        <time>2017-08-29T08:53:11Z</time>
      </trkpt>
      <trkpt lat="45.92019" lon="6.52005">
        <ele>2351</ele>
        <time>2017-08-29T08:53:12Z</time>
      </trkpt>
      <trkpt lat="45.92019" lon="6.52005">
        <ele>2350</ele>
        <time>2017-08-29T08:53:13Z</time>
      </trkpt>
      <trkpt lat="45.9202" lon="6.52008">
        <ele>2349</ele>
        <time>2017-08-29T08:53:14Z</time>
      </trkpt>
      <trkpt lat="45.9202" lon="6.52008">
        <ele>2349</ele>
        <time>2017-08-29T08:53:15Z</time>
      </trkpt>
      <trkpt lat="45.92023" lon="6.52011">
        <ele>2348</ele>
        <time>2017-08-29T08:53:16Z</time>
      </trkpt>
      <trkpt lat="45.92025" lon="6.52013">
        <ele>2347</ele>
        <time>2017-08-29T08:53:17Z</time>
      </trkpt>
      <trkpt lat="45.92026" lon="6.52015">
        <ele>2347</ele>
        <time>2017-08-29T08:53:18Z</time>
      </trkpt>
      <trkpt lat="45.92027" lon="6.52017">
        <ele>2345</ele>
        <time>2017-08-29T08:53:19Z</time>
      </trkpt>
      <trkpt lat="45.92028" lon="6.5202">
        <ele>2344</ele>
        <time>2017-08-29T08:53:20Z</time>
      </trkpt>
      <trkpt lat="45.92029" lon="6.52022">
        <ele>2344</ele>
        <time>2017-08-29T08:53:21Z</time>
      </trkpt>
      <trkpt lat="45.92029" lon="6.52022">
        <ele>2344</ele>
        <time>2017-08-29T08:53:22Z</time>
      </trkpt>
      <trkpt lat="45.92031" lon="6.52026">
        <ele>2344</ele>
        <time>2017-08-29T08:53:23Z</time>
      </trkpt>
      <trkpt lat="45.92031" lon="6.52026">
        <ele>2344</ele>
        <time>2017-08-29T08:53:24Z</time>
      </trkpt>
      <trkpt lat="45.92033" lon="6.52028">
        <ele>2344</ele>
        <time>2017-08-29T08:53:25Z</time>
      </trkpt>
      <trkpt lat="45.92033" lon="6.52028">
        <ele>2343</ele>
        <time>2017-08-29T08:53:26Z</time>
      </trkpt>
      <trkpt lat="45.92036" lon="6.52031">
        <ele>2343</ele>
        <time>2017-08-29T08:53:27Z</time>
      </trkpt>
      <trkpt lat="45.92037" lon="6.52033">
        <ele>2342</ele>
        <time>2017-08-29T08:53:28Z</time>
      </trkpt>
      <trkpt lat="45.92039" lon="6.52035">
        <ele>2342</ele>
        <time>2017-08-29T08:53:29Z</time>
      </trkpt>
      <trkpt lat="45.9204" lon="6.52037">
        <ele>2342</ele>
        <time>2017-08-29T08:53:30Z</time>
      </trkpt>
      <trkpt lat="45.92041" lon="6.5204">
        <ele>2341</ele>
        <time>2017-08-29T08:53:31Z</time>
      </trkpt>
      <trkpt lat="45.92042" lon="6.52042">
        <ele>2340</ele>
        <time>2017-08-29T08:53:32Z</time>
      </trkpt>
      <trkpt lat="45.92043" lon="6.52045">
        <ele>2340</ele>
        <time>2017-08-29T08:53:33Z</time>
      </trkpt>
      <trkpt lat="45.92043" lon="6.52048">
        <ele>2340</ele>
        <time>2017-08-29T08:53:34Z</time>
      </trkpt>
      <trkpt lat="45.92043" lon="6.52048">
        <ele>2340</ele>
        <time>2017-08-29T08:53:35Z</time>
      </trkpt>
      <trkpt lat="45.92043" lon="6.52052">
        <ele>2339</ele>
        <time>2017-08-29T08:53:36Z</time>
      </trkpt>
      <trkpt lat="45.92043" lon="6.52052">
        <ele>2339</ele>
        <time>2017-08-29T08:53:37Z</time>
      </trkpt>
      <trkpt lat="45.92043" lon="6.52052">
        <ele>2339</ele>
        <time>2017-08-29T08:53:38Z</time>
      </trkpt>
      <trkpt lat="45.92043" lon="6.52056">
        <ele>2339</ele>
        <time>2017-08-29T08:53:39Z</time>
      </trkpt>
      <trkpt lat="45.92043" lon="6.52056">
        <ele>2339</ele>
        <time>2017-08-29T08:53:40Z</time>
      </trkpt>
      <trkpt lat="45.92043" lon="6.52056">
        <ele>2339</ele>
        <time>2017-08-29T08:53:41Z</time>
      </trkpt>
      <trkpt lat="45.92043" lon="6.52058">
        <ele>2339</ele>
        <time>2017-08-29T08:53:42Z</time>
      </trkpt>
      <trkpt lat="45.92043" lon="6.52058">
        <ele>2339</ele>
        <time>2017-08-29T08:53:43Z</time>
      </trkpt>
      <trkpt lat="45.92042" lon="6.52061">
        <ele>2340</ele>
        <time>2017-08-29T08:53:44Z</time>
      </trkpt>
      <trkpt lat="45.92042" lon="6.52061">
        <ele>2340</ele>
        <time>2017-08-29T08:53:45Z</time>
      </trkpt>
      <trkpt lat="45.92042" lon="6.52064">
        <ele>2340</ele>
        <time>2017-08-29T08:53:46Z</time>
      </trkpt>
      <trkpt lat="45.92042" lon="6.52064">
        <ele>2340</ele>
        <time>2017-08-29T08:53:47Z</time>
      </trkpt>
      <trkpt lat="45.92041" lon="6.52066">
        <ele>2341</ele>
        <time>2017-08-29T08:53:48Z</time>
      </trkpt>
      <trkpt lat="45.92041" lon="6.52066">
        <ele>2341</ele>
        <time>2017-08-29T08:53:49Z</time>
      </trkpt>
      <trkpt lat="45.92041" lon="6.52066">
        <ele>2342</ele>
        <time>2017-08-29T08:53:50Z</time>
      </trkpt>
      <trkpt lat="45.9204" lon="6.52068">
        <ele>2342</ele>
        <time>2017-08-29T08:53:51Z</time>
      </trkpt>
      <trkpt lat="45.9204" lon="6.52068">
        <ele>2342</ele>
        <time>2017-08-29T08:53:52Z</time>
      </trkpt>
      <trkpt lat="45.9204" lon="6.52068">
        <ele>2343</ele>
        <time>2017-08-29T08:53:53Z</time>
      </trkpt>
      <trkpt lat="45.9204" lon="6.52072">
        <ele>2344</ele>
        <time>2017-08-29T08:53:54Z</time>
      </trkpt>
      <trkpt lat="45.9204" lon="6.52072">
        <ele>2344</ele>
        <time>2017-08-29T08:53:55Z</time>
      </trkpt>
      <trkpt lat="45.9204" lon="6.52072">
        <ele>2344</ele>
        <time>2017-08-29T08:53:56Z</time>
      </trkpt>
      <trkpt lat="45.9204" lon="6.52075">
        <ele>2345</ele>
        <time>2017-08-29T08:53:57Z</time>
      </trkpt>
      <trkpt lat="45.9204" lon="6.52075">
        <ele>2345</ele>
        <time>2017-08-29T08:53:58Z</time>
      </trkpt>
      <trkpt lat="45.9204" lon="6.52075">
        <ele>2345</ele>
        <time>2017-08-29T08:53:59Z</time>
      </trkpt>
      <trkpt lat="45.9204" lon="6.52079">
        <ele>2345</ele>
        <time>2017-08-29T08:54:00Z</time>
      </trkpt>
      <trkpt lat="45.9204" lon="6.52079">
        <ele>2345</ele>
        <time>2017-08-29T08:54:01Z</time>
      </trkpt>
      <trkpt lat="45.9204" lon="6.52079">
        <ele>2345</ele>
        <time>2017-08-29T08:54:02Z</time>
      </trkpt>
      <trkpt lat="45.92039" lon="6.52082">
        <ele>2345</ele>
        <time>2017-08-29T08:54:03Z</time>
      </trkpt>
      <trkpt lat="45.92039" lon="6.52082">
        <ele>2346</ele>
        <time>2017-08-29T08:54:04Z</time>
      </trkpt>
      <trkpt lat="45.92039" lon="6.52082">
        <ele>2346</ele>
        <time>2017-08-29T08:54:05Z</time>
      </trkpt>
      <trkpt lat="45.92039" lon="6.52082">
        <ele>2346</ele>
        <time>2017-08-29T08:54:06Z</time>
      </trkpt>
      <trkpt lat="45.92038" lon="6.52085">
        <ele>2346</ele>
        <time>2017-08-29T08:54:07Z</time>
      </trkpt>
      <trkpt lat="45.92038" lon="6.52085">
        <ele>2346</ele>
        <time>2017-08-29T08:54:08Z</time>
      </trkpt>
      <trkpt lat="45.92039" lon="6.52088">
        <ele>2346</ele>
        <time>2017-08-29T08:54:09Z</time>
      </trkpt>
      <trkpt lat="45.92039" lon="6.52088">
        <ele>2346</ele>
        <time>2017-08-29T08:54:10Z</time>
      </trkpt>
      <trkpt lat="45.92038" lon="6.52092">
        <ele>2346</ele>
        <time>2017-08-29T08:54:11Z</time>
      </trkpt>
      <trkpt lat="45.92038" lon="6.52092">
        <ele>2346</ele>
        <time>2017-08-29T08:54:12Z</time>
      </trkpt>
      <trkpt lat="45.92037" lon="6.52097">
        <ele>2346</ele>
        <time>2017-08-29T08:54:13Z</time>
      </trkpt>
      <trkpt lat="45.92037" lon="6.52097">
        <ele>2346</ele>
        <time>2017-08-29T08:54:14Z</time>
      </trkpt>
      <trkpt lat="45.92036" lon="6.52102">
        <ele>2346</ele>
        <time>2017-08-29T08:54:15Z</time>
      </trkpt>
      <trkpt lat="45.92036" lon="6.52104">
        <ele>2346</ele>
        <time>2017-08-29T08:54:16Z</time>
      </trkpt>
      <trkpt lat="45.92036" lon="6.52107">
        <ele>2346</ele>
        <time>2017-08-29T08:54:17Z</time>
      </trkpt>
      <trkpt lat="45.92036" lon="6.52107">
        <ele>2346</ele>
        <time>2017-08-29T08:54:18Z</time>
      </trkpt>
      <trkpt lat="45.92036" lon="6.52111">
        <ele>2346</ele>
        <time>2017-08-29T08:54:19Z</time>
      </trkpt>
      <trkpt lat="45.92036" lon="6.52111">
        <ele>2346</ele>
        <time>2017-08-29T08:54:20Z</time>
      </trkpt>
      <trkpt lat="45.92037" lon="6.52115">
        <ele>2346</ele>
        <time>2017-08-29T08:54:21Z</time>
      </trkpt>
      <trkpt lat="45.92038" lon="6.52118">
        <ele>2344</ele>
        <time>2017-08-29T08:54:22Z</time>
      </trkpt>
      <trkpt lat="45.92039" lon="6.5212">
        <ele>2344</ele>
        <time>2017-08-29T08:54:23Z</time>
      </trkpt>
      <trkpt lat="45.9204" lon="6.52123">
        <ele>2344</ele>
        <time>2017-08-29T08:54:24Z</time>
      </trkpt>
      <trkpt lat="45.92041" lon="6.52125">
        <ele>2344</ele>
        <time>2017-08-29T08:54:25Z</time>
      </trkpt>
      <trkpt lat="45.92041" lon="6.52125">
        <ele>2344</ele>
        <time>2017-08-29T08:54:26Z</time>
      </trkpt>
      <trkpt lat="45.92041" lon="6.52129">
        <ele>2344</ele>
        <time>2017-08-29T08:54:27Z</time>
      </trkpt>
      <trkpt lat="45.92041" lon="6.52129">
        <ele>2343</ele>
        <time>2017-08-29T08:54:28Z</time>
      </trkpt>
      <trkpt lat="45.92042" lon="6.52131">
        <ele>2343</ele>
        <time>2017-08-29T08:54:29Z</time>
      </trkpt>
      <trkpt lat="45.92042" lon="6.52131">
        <ele>2343</ele>
        <time>2017-08-29T08:54:30Z</time>
      </trkpt>
      <trkpt lat="45.92043" lon="6.52134">
        <ele>2343</ele>
        <time>2017-08-29T08:54:31Z</time>
      </trkpt>
      <trkpt lat="45.92043" lon="6.52134">
        <ele>2342</ele>
        <time>2017-08-29T08:54:32Z</time>
      </trkpt>
      <trkpt lat="45.92045" lon="6.52137">
        <ele>2342</ele>
        <time>2017-08-29T08:54:33Z</time>
      </trkpt>
      <trkpt lat="45.92045" lon="6.52137">
        <ele>2342</ele>
        <time>2017-08-29T08:54:34Z</time>
      </trkpt>
      <trkpt lat="45.92047" lon="6.5214">
        <ele>2341</ele>
        <time>2017-08-29T08:54:35Z</time>
      </trkpt>
      <trkpt lat="45.92047" lon="6.5214">
        <ele>2341</ele>
        <time>2017-08-29T08:54:36Z</time>
      </trkpt>
      <trkpt lat="45.92048" lon="6.52144">
        <ele>2341</ele>
        <time>2017-08-29T08:54:37Z</time>
      </trkpt>
      <trkpt lat="45.92048" lon="6.52144">
        <ele>2341</ele>
        <time>2017-08-29T08:54:38Z</time>
      </trkpt>
      <trkpt lat="45.92048" lon="6.52147">
        <ele>2341</ele>
        <time>2017-08-29T08:54:39Z</time>
      </trkpt>
      <trkpt lat="45.92048" lon="6.52147">
        <ele>2341</ele>
        <time>2017-08-29T08:54:40Z</time>
      </trkpt>
      <trkpt lat="45.92048" lon="6.52151">
        <ele>2341</ele>
        <time>2017-08-29T08:54:41Z</time>
      </trkpt>
      <trkpt lat="45.92048" lon="6.52151">
        <ele>2341</ele>
        <time>2017-08-29T08:54:42Z</time>
      </trkpt>
      <trkpt lat="45.92049" lon="6.52154">
        <ele>2341</ele>
        <time>2017-08-29T08:54:43Z</time>
      </trkpt>
      <trkpt lat="45.92049" lon="6.52154">
        <ele>2341</ele>
        <time>2017-08-29T08:54:44Z</time>
      </trkpt>
      <trkpt lat="45.9205" lon="6.52158">
        <ele>2341</ele>
        <time>2017-08-29T08:54:45Z</time>
      </trkpt>
      <trkpt lat="45.9205" lon="6.52158">
        <ele>2341</ele>
        <time>2017-08-29T08:54:46Z</time>
      </trkpt>
      <trkpt lat="45.92051" lon="6.52161">
        <ele>2341</ele>
        <time>2017-08-29T08:54:47Z</time>
      </trkpt>
      <trkpt lat="45.92051" lon="6.52161">
        <ele>2342</ele>
        <time>2017-08-29T08:54:48Z</time>
      </trkpt>
      <trkpt lat="45.92052" lon="6.52165">
        <ele>2342</ele>
        <time>2017-08-29T08:54:49Z</time>
      </trkpt>
      <trkpt lat="45.92052" lon="6.52165">
        <ele>2342</ele>
        <time>2017-08-29T08:54:50Z</time>
      </trkpt>
      <trkpt lat="45.92053" lon="6.52167">
        <ele>2342</ele>
        <time>2017-08-29T08:54:51Z</time>
      </trkpt>
      <trkpt lat="45.92053" lon="6.52167">
        <ele>2341</ele>
        <time>2017-08-29T08:54:52Z</time>
      </trkpt>
      <trkpt lat="45.92055" lon="6.52171">
        <ele>2341</ele>
        <time>2017-08-29T08:54:53Z</time>
      </trkpt>
      <trkpt lat="45.92055" lon="6.52171">
        <ele>2341</ele>
        <time>2017-08-29T08:54:54Z</time>
      </trkpt>
      <trkpt lat="45.92057" lon="6.52174">
        <ele>2341</ele>
        <time>2017-08-29T08:54:55Z</time>
      </trkpt>
      <trkpt lat="45.92057" lon="6.52174">
        <ele>2341</ele>
        <time>2017-08-29T08:54:56Z</time>
      </trkpt>
      <trkpt lat="45.92059" lon="6.52178">
        <ele>2341</ele>
        <time>2017-08-29T08:54:57Z</time>
      </trkpt>
      <trkpt lat="45.9206" lon="6.52179">
        <ele>2341</ele>
        <time>2017-08-29T08:54:58Z</time>
      </trkpt>
      <trkpt lat="45.9206" lon="6.52179">
        <ele>2341</ele>
        <time>2017-08-29T08:54:59Z</time>
      </trkpt>
      <trkpt lat="45.92062" lon="6.52182">
        <ele>2341</ele>
        <time>2017-08-29T08:55:00Z</time>
      </trkpt>
      <trkpt lat="45.92062" lon="6.52182">
        <ele>2340</ele>
        <time>2017-08-29T08:55:01Z</time>
      </trkpt>
      <trkpt lat="45.92064" lon="6.52185">
        <ele>2340</ele>
        <time>2017-08-29T08:55:02Z</time>
      </trkpt>
      <trkpt lat="45.92066" lon="6.52187">
        <ele>2340</ele>
        <time>2017-08-29T08:55:03Z</time>
      </trkpt>
      <trkpt lat="45.92066" lon="6.52187">
        <ele>2341</ele>
        <time>2017-08-29T08:55:04Z</time>
      </trkpt>
      <trkpt lat="45.92067" lon="6.52191">
        <ele>2341</ele>
        <time>2017-08-29T08:55:05Z</time>
      </trkpt>
      <trkpt lat="45.92067" lon="6.52191">
        <ele>2341</ele>
        <time>2017-08-29T08:55:06Z</time>
      </trkpt>
      <trkpt lat="45.92069" lon="6.52194">
        <ele>2341</ele>
        <time>2017-08-29T08:55:07Z</time>
      </trkpt>
      <trkpt lat="45.92069" lon="6.52194">
        <ele>2341</ele>
        <time>2017-08-29T08:55:08Z</time>
      </trkpt>
      <trkpt lat="45.92072" lon="6.52197">
        <ele>2341</ele>
        <time>2017-08-29T08:55:09Z</time>
      </trkpt>
      <trkpt lat="45.92072" lon="6.52197">
        <ele>2341</ele>
        <time>2017-08-29T08:55:10Z</time>
      </trkpt>
      <trkpt lat="45.92074" lon="6.522">
        <ele>2341</ele>
        <time>2017-08-29T08:55:11Z</time>
      </trkpt>
      <trkpt lat="45.92074" lon="6.522">
        <ele>2341</ele>
        <time>2017-08-29T08:55:12Z</time>
      </trkpt>
      <trkpt lat="45.92076" lon="6.52203">
        <ele>2341</ele>
        <time>2017-08-29T08:55:13Z</time>
      </trkpt>
      <trkpt lat="45.92076" lon="6.52203">
        <ele>2341</ele>
        <time>2017-08-29T08:55:14Z</time>
      </trkpt>
      <trkpt lat="45.92076" lon="6.52203">
        <ele>2341</ele>
        <time>2017-08-29T08:55:15Z</time>
      </trkpt>
      <trkpt lat="45.92077" lon="6.52204">
        <ele>2341</ele>
        <time>2017-08-29T08:55:16Z</time>
      </trkpt>
      <trkpt lat="45.92079" lon="6.52206">
        <ele>2341</ele>
        <time>2017-08-29T08:55:17Z</time>
      </trkpt>
      <trkpt lat="45.92081" lon="6.52207">
        <ele>2341</ele>
        <time>2017-08-29T08:55:18Z</time>
      </trkpt>
      <trkpt lat="45.92081" lon="6.52207">
        <ele>2341</ele>
        <time>2017-08-29T08:55:19Z</time>
      </trkpt>
      <trkpt lat="45.92083" lon="6.52209">
        <ele>2341</ele>
        <time>2017-08-29T08:55:20Z</time>
      </trkpt>
      <trkpt lat="45.92083" lon="6.52209">
        <ele>2340</ele>
        <time>2017-08-29T08:55:21Z</time>
      </trkpt>
      <trkpt lat="45.92086" lon="6.52212">
        <ele>2340</ele>
        <time>2017-08-29T08:55:22Z</time>
      </trkpt>
      <trkpt lat="45.92086" lon="6.52212">
        <ele>2340</ele>
        <time>2017-08-29T08:55:23Z</time>
      </trkpt>
      <trkpt lat="45.92086" lon="6.52216">
        <ele>2340</ele>
        <time>2017-08-29T08:55:24Z</time>
      </trkpt>
      <trkpt lat="45.92086" lon="6.52216">
        <ele>2340</ele>
        <time>2017-08-29T08:55:25Z</time>
      </trkpt>
      <trkpt lat="45.92087" lon="6.52219">
        <ele>2340</ele>
        <time>2017-08-29T08:55:26Z</time>
      </trkpt>
      <trkpt lat="45.92087" lon="6.52219">
        <ele>2340</ele>
        <time>2017-08-29T08:55:27Z</time>
      </trkpt>
      <trkpt lat="45.92089" lon="6.52222">
        <ele>2340</ele>
        <time>2017-08-29T08:55:28Z</time>
      </trkpt>
      <trkpt lat="45.92089" lon="6.52222">
        <ele>2340</ele>
        <time>2017-08-29T08:55:29Z</time>
      </trkpt>
      <trkpt lat="45.92091" lon="6.52225">
        <ele>2340</ele>
        <time>2017-08-29T08:55:30Z</time>
      </trkpt>
      <trkpt lat="45.92091" lon="6.52225">
        <ele>2340</ele>
        <time>2017-08-29T08:55:31Z</time>
      </trkpt>
      <trkpt lat="45.92094" lon="6.52227">
        <ele>2340</ele>
        <time>2017-08-29T08:55:32Z</time>
      </trkpt>
      <trkpt lat="45.92094" lon="6.52227">
        <ele>2340</ele>
        <time>2017-08-29T08:55:33Z</time>
      </trkpt>
      <trkpt lat="45.92096" lon="6.52231">
        <ele>2340</ele>
        <time>2017-08-29T08:55:34Z</time>
      </trkpt>
      <trkpt lat="45.92096" lon="6.52231">
        <ele>2340</ele>
        <time>2017-08-29T08:55:35Z</time>
      </trkpt>
      <trkpt lat="45.92097" lon="6.52234">
        <ele>2341</ele>
        <time>2017-08-29T08:55:36Z</time>
      </trkpt>
      <trkpt lat="45.92097" lon="6.52234">
        <ele>2342</ele>
        <time>2017-08-29T08:55:37Z</time>
      </trkpt>
      <trkpt lat="45.92098" lon="6.52237">
        <ele>2342</ele>
        <time>2017-08-29T08:55:38Z</time>
      </trkpt>
      <trkpt lat="45.92098" lon="6.52237">
        <ele>2342</ele>
        <time>2017-08-29T08:55:39Z</time>
      </trkpt>
      <trkpt lat="45.92099" lon="6.5224">
        <ele>2342</ele>
        <time>2017-08-29T08:55:40Z</time>
      </trkpt>
      <trkpt lat="45.92099" lon="6.5224">
        <ele>2342</ele>
        <time>2017-08-29T08:55:41Z</time>
      </trkpt>
      <trkpt lat="45.921" lon="6.52244">
        <ele>2342</ele>
        <time>2017-08-29T08:55:42Z</time>
      </trkpt>
      <trkpt lat="45.921" lon="6.52244">
        <ele>2342</ele>
        <time>2017-08-29T08:55:43Z</time>
      </trkpt>
      <trkpt lat="45.92102" lon="6.52246">
        <ele>2342</ele>
        <time>2017-08-29T08:55:44Z</time>
      </trkpt>
      <trkpt lat="45.92102" lon="6.52246">
        <ele>2343</ele>
        <time>2017-08-29T08:55:45Z</time>
      </trkpt>
      <trkpt lat="45.92104" lon="6.52249">
        <ele>2343</ele>
        <time>2017-08-29T08:55:46Z</time>
      </trkpt>
      <trkpt lat="45.92104" lon="6.52249">
        <ele>2343</ele>
        <time>2017-08-29T08:55:47Z</time>
      </trkpt>
      <trkpt lat="45.92106" lon="6.52253">
        <ele>2343</ele>
        <time>2017-08-29T08:55:48Z</time>
      </trkpt>
      <trkpt lat="45.92106" lon="6.52253">
        <ele>2343</ele>
        <time>2017-08-29T08:55:49Z</time>
      </trkpt>
      <trkpt lat="45.92109" lon="6.52255">
        <ele>2343</ele>
        <time>2017-08-29T08:55:50Z</time>
      </trkpt>
      <trkpt lat="45.92109" lon="6.52255">
        <ele>2343</ele>
        <time>2017-08-29T08:55:51Z</time>
      </trkpt>
      <trkpt lat="45.92112" lon="6.52257">
        <ele>2343</ele>
        <time>2017-08-29T08:55:52Z</time>
      </trkpt>
      <trkpt lat="45.92112" lon="6.52257">
        <ele>2343</ele>
        <time>2017-08-29T08:55:53Z</time>
      </trkpt>
      <trkpt lat="45.92114" lon="6.52261">
        <ele>2343</ele>
        <time>2017-08-29T08:55:54Z</time>
      </trkpt>
      <trkpt lat="45.92114" lon="6.52261">
        <ele>2343</ele>
        <time>2017-08-29T08:55:55Z</time>
      </trkpt>
      <trkpt lat="45.92116" lon="6.52264">
        <ele>2343</ele>
        <time>2017-08-29T08:55:56Z</time>
      </trkpt>
      <trkpt lat="45.92116" lon="6.52264">
        <ele>2343</ele>
        <time>2017-08-29T08:55:57Z</time>
      </trkpt>
      <trkpt lat="45.92117" lon="6.52267">
        <ele>2343</ele>
        <time>2017-08-29T08:55:58Z</time>
      </trkpt>
      <trkpt lat="45.92117" lon="6.52267">
        <ele>2344</ele>
        <time>2017-08-29T08:55:59Z</time>
      </trkpt>
      <trkpt lat="45.92119" lon="6.5227">
        <ele>2344</ele>
        <time>2017-08-29T08:56:00Z</time>
      </trkpt>
      <trkpt lat="45.92119" lon="6.5227">
        <ele>2343</ele>
        <time>2017-08-29T08:56:01Z</time>
      </trkpt>
      <trkpt lat="45.92121" lon="6.52273">
        <ele>2343</ele>
        <time>2017-08-29T08:56:02Z</time>
      </trkpt>
      <trkpt lat="45.92121" lon="6.52273">
        <ele>2343</ele>
        <time>2017-08-29T08:56:03Z</time>
      </trkpt>
      <trkpt lat="45.92123" lon="6.52277">
        <ele>2343</ele>
        <time>2017-08-29T08:56:04Z</time>
      </trkpt>
      <trkpt lat="45.92123" lon="6.52277">
        <ele>2344</ele>
        <time>2017-08-29T08:56:05Z</time>
      </trkpt>
      <trkpt lat="45.92124" lon="6.5228">
        <ele>2344</ele>
        <time>2017-08-29T08:56:06Z</time>
      </trkpt>
      <trkpt lat="45.92124" lon="6.5228">
        <ele>2344</ele>
        <time>2017-08-29T08:56:07Z</time>
      </trkpt>
      <trkpt lat="45.92126" lon="6.52283">
        <ele>2344</ele>
        <time>2017-08-29T08:56:08Z</time>
      </trkpt>
      <trkpt lat="45.92126" lon="6.52283">
        <ele>2344</ele>
        <time>2017-08-29T08:56:09Z</time>
      </trkpt>
      <trkpt lat="45.92126" lon="6.52283">
        <ele>2344</ele>
        <time>2017-08-29T08:56:10Z</time>
      </trkpt>
      <trkpt lat="45.92127" lon="6.52287">
        <ele>2344</ele>
        <time>2017-08-29T08:56:11Z</time>
      </trkpt>
      <trkpt lat="45.92127" lon="6.52287">
        <ele>2344</ele>
        <time>2017-08-29T08:56:12Z</time>
      </trkpt>
      <trkpt lat="45.92129" lon="6.52289">
        <ele>2344</ele>
        <time>2017-08-29T08:56:13Z</time>
      </trkpt>
      <trkpt lat="45.92129" lon="6.52289">
        <ele>2344</ele>
        <time>2017-08-29T08:56:14Z</time>
      </trkpt>
      <trkpt lat="45.92131" lon="6.5229">
        <ele>2344</ele>
        <time>2017-08-29T08:56:15Z</time>
      </trkpt>
      <trkpt lat="45.92131" lon="6.5229">
        <ele>2344</ele>
        <time>2017-08-29T08:56:16Z</time>
      </trkpt>
      <trkpt lat="45.92133" lon="6.52292">
        <ele>2344</ele>
        <time>2017-08-29T08:56:17Z</time>
      </trkpt>
      <trkpt lat="45.92133" lon="6.52292">
        <ele>2344</ele>
        <time>2017-08-29T08:56:18Z</time>
      </trkpt>
      <trkpt lat="45.92133" lon="6.52292">
        <ele>2344</ele>
        <time>2017-08-29T08:56:19Z</time>
      </trkpt>
      <trkpt lat="45.92134" lon="6.52295">
        <ele>2344</ele>
        <time>2017-08-29T08:56:20Z</time>
      </trkpt>
      <trkpt lat="45.92134" lon="6.52295">
        <ele>2344</ele>
        <time>2017-08-29T08:56:21Z</time>
      </trkpt>
      <trkpt lat="45.92136" lon="6.52296">
        <ele>2344</ele>
        <time>2017-08-29T08:56:22Z</time>
      </trkpt>
      <trkpt lat="45.92136" lon="6.52296">
        <ele>2345</ele>
        <time>2017-08-29T08:56:23Z</time>
      </trkpt>
      <trkpt lat="45.92138" lon="6.52297">
        <ele>2345</ele>
        <time>2017-08-29T08:56:24Z</time>
      </trkpt>
      <trkpt lat="45.92138" lon="6.52297">
        <ele>2345</ele>
        <time>2017-08-29T08:56:25Z</time>
      </trkpt>
      <trkpt lat="45.9214" lon="6.52299">
        <ele>2345</ele>
        <time>2017-08-29T08:56:26Z</time>
      </trkpt>
      <trkpt lat="45.9214" lon="6.52299">
        <ele>2345</ele>
        <time>2017-08-29T08:56:27Z</time>
      </trkpt>
      <trkpt lat="45.92141" lon="6.52301">
        <ele>2345</ele>
        <time>2017-08-29T08:56:28Z</time>
      </trkpt>
      <trkpt lat="45.92141" lon="6.52301">
        <ele>2345</ele>
        <time>2017-08-29T08:56:29Z</time>
      </trkpt>
      <trkpt lat="45.92143" lon="6.52303">
        <ele>2345</ele>
        <time>2017-08-29T08:56:30Z</time>
      </trkpt>
      <trkpt lat="45.92143" lon="6.52303">
        <ele>2345</ele>
        <time>2017-08-29T08:56:31Z</time>
      </trkpt>
      <trkpt lat="45.92145" lon="6.52304">
        <ele>2345</ele>
        <time>2017-08-29T08:56:32Z</time>
      </trkpt>
      <trkpt lat="45.92145" lon="6.52304">
        <ele>2345</ele>
        <time>2017-08-29T08:56:33Z</time>
      </trkpt>
      <trkpt lat="45.92147" lon="6.52307">
        <ele>2345</ele>
        <time>2017-08-29T08:56:34Z</time>
      </trkpt>
      <trkpt lat="45.92147" lon="6.52307">
        <ele>2345</ele>
        <time>2017-08-29T08:56:35Z</time>
      </trkpt>
      <trkpt lat="45.92149" lon="6.5231">
        <ele>2346</ele>
        <time>2017-08-29T08:56:36Z</time>
      </trkpt>
      <trkpt lat="45.92149" lon="6.5231">
        <ele>2346</ele>
        <time>2017-08-29T08:56:37Z</time>
      </trkpt>
      <trkpt lat="45.9215" lon="6.52312">
        <ele>2346</ele>
        <time>2017-08-29T08:56:38Z</time>
      </trkpt>
      <trkpt lat="45.9215" lon="6.52312">
        <ele>2346</ele>
        <time>2017-08-29T08:56:39Z</time>
      </trkpt>
      <trkpt lat="45.92152" lon="6.52314">
        <ele>2346</ele>
        <time>2017-08-29T08:56:40Z</time>
      </trkpt>
      <trkpt lat="45.92152" lon="6.52314">
        <ele>2346</ele>
        <time>2017-08-29T08:56:41Z</time>
      </trkpt>
      <trkpt lat="45.92154" lon="6.52315">
        <ele>2346</ele>
        <time>2017-08-29T08:56:42Z</time>
      </trkpt>
      <trkpt lat="45.92154" lon="6.52315">
        <ele>2346</ele>
        <time>2017-08-29T08:56:43Z</time>
      </trkpt>
      <trkpt lat="45.92156" lon="6.52316">
        <ele>2346</ele>
        <time>2017-08-29T08:56:44Z</time>
      </trkpt>
      <trkpt lat="45.92156" lon="6.52316">
        <ele>2346</ele>
        <time>2017-08-29T08:56:45Z</time>
      </trkpt>
      <trkpt lat="45.92158" lon="6.52317">
        <ele>2346</ele>
        <time>2017-08-29T08:56:46Z</time>
      </trkpt>
      <trkpt lat="45.92158" lon="6.52317">
        <ele>2345</ele>
        <time>2017-08-29T08:56:47Z</time>
      </trkpt>
      <trkpt lat="45.9216" lon="6.52319">
        <ele>2345</ele>
        <time>2017-08-29T08:56:48Z</time>
      </trkpt>
      <trkpt lat="45.9216" lon="6.52319">
        <ele>2345</ele>
        <time>2017-08-29T08:56:49Z</time>
      </trkpt>
      <trkpt lat="45.92161" lon="6.52322">
        <ele>2345</ele>
        <time>2017-08-29T08:56:50Z</time>
      </trkpt>
      <trkpt lat="45.92161" lon="6.52322">
        <ele>2346</ele>
        <time>2017-08-29T08:56:51Z</time>
      </trkpt>
      <trkpt lat="45.92161" lon="6.52322">
        <ele>2346</ele>
        <time>2017-08-29T08:56:52Z</time>
      </trkpt>
      <trkpt lat="45.92163" lon="6.52324">
        <ele>2346</ele>
        <time>2017-08-29T08:56:53Z</time>
      </trkpt>
      <trkpt lat="45.92163" lon="6.52324">
        <ele>2346</ele>
        <time>2017-08-29T08:56:54Z</time>
      </trkpt>
      <trkpt lat="45.92163" lon="6.52324">
        <ele>2346</ele>
        <time>2017-08-29T08:56:55Z</time>
      </trkpt>
      <trkpt lat="45.92165" lon="6.52326">
        <ele>2346</ele>
        <time>2017-08-29T08:56:56Z</time>
      </trkpt>
      <trkpt lat="45.92165" lon="6.52326">
        <ele>2346</ele>
        <time>2017-08-29T08:56:57Z</time>
      </trkpt>
      <trkpt lat="45.92165" lon="6.52326">
        <ele>2346</ele>
        <time>2017-08-29T08:56:58Z</time>
      </trkpt>
      <trkpt lat="45.92167" lon="6.52327">
        <ele>2346</ele>
        <time>2017-08-29T08:56:59Z</time>
      </trkpt>
      <trkpt lat="45.92167" lon="6.52327">
        <ele>2346</ele>
        <time>2017-08-29T08:57:00Z</time>
      </trkpt>
      <trkpt lat="45.92169" lon="6.52328">
        <ele>2346</ele>
        <time>2017-08-29T08:57:01Z</time>
      </trkpt>
      <trkpt lat="45.92169" lon="6.52328">
        <ele>2346</ele>
        <time>2017-08-29T08:57:02Z</time>
      </trkpt>
      <trkpt lat="45.92169" lon="6.52328">
        <ele>2346</ele>
        <time>2017-08-29T08:57:03Z</time>
      </trkpt>
      <trkpt lat="45.92172" lon="6.5233">
        <ele>2346</ele>
        <time>2017-08-29T08:57:04Z</time>
      </trkpt>
      <trkpt lat="45.92172" lon="6.5233">
        <ele>2346</ele>
        <time>2017-08-29T08:57:05Z</time>
      </trkpt>
      <trkpt lat="45.92174" lon="6.52331">
        <ele>2346</ele>
        <time>2017-08-29T08:57:06Z</time>
      </trkpt>
      <trkpt lat="45.92174" lon="6.52331">
        <ele>2347</ele>
        <time>2017-08-29T08:57:07Z</time>
      </trkpt>
      <trkpt lat="45.92176" lon="6.52331">
        <ele>2347</ele>
        <time>2017-08-29T08:57:08Z</time>
      </trkpt>
      <trkpt lat="45.92176" lon="6.52331">
        <ele>2347</ele>
        <time>2017-08-29T08:57:09Z</time>
      </trkpt>
      <trkpt lat="45.92179" lon="6.52332">
        <ele>2347</ele>
        <time>2017-08-29T08:57:10Z</time>
      </trkpt>
      <trkpt lat="45.92179" lon="6.52332">
        <ele>2347</ele>
        <time>2017-08-29T08:57:11Z</time>
      </trkpt>
      <trkpt lat="45.92182" lon="6.52332">
        <ele>2347</ele>
        <time>2017-08-29T08:57:12Z</time>
      </trkpt>
      <trkpt lat="45.92182" lon="6.52332">
        <ele>2347</ele>
        <time>2017-08-29T08:57:13Z</time>
      </trkpt>
      <trkpt lat="45.92184" lon="6.52333">
        <ele>2347</ele>
        <time>2017-08-29T08:57:14Z</time>
      </trkpt>
      <trkpt lat="45.92184" lon="6.52333">
        <ele>2347</ele>
        <time>2017-08-29T08:57:15Z</time>
      </trkpt>
      <trkpt lat="45.92187" lon="6.52333">
        <ele>2347</ele>
        <time>2017-08-29T08:57:16Z</time>
      </trkpt>
      <trkpt lat="45.92187" lon="6.52333">
        <ele>2347</ele>
        <time>2017-08-29T08:57:17Z</time>
      </trkpt>
      <trkpt lat="45.9219" lon="6.52333">
        <ele>2347</ele>
        <time>2017-08-29T08:57:18Z</time>
      </trkpt>
      <trkpt lat="45.92192" lon="6.52333">
        <ele>2347</ele>
        <time>2017-08-29T08:57:19Z</time>
      </trkpt>
      <trkpt lat="45.92192" lon="6.52333">
        <ele>2346</ele>
        <time>2017-08-29T08:57:20Z</time>
      </trkpt>
      <trkpt lat="45.92195" lon="6.52335">
        <ele>2346</ele>
        <time>2017-08-29T08:57:21Z</time>
      </trkpt>
      <trkpt lat="45.92195" lon="6.52335">
        <ele>2346</ele>
        <time>2017-08-29T08:57:22Z</time>
      </trkpt>
      <trkpt lat="45.92197" lon="6.52336">
        <ele>2346</ele>
        <time>2017-08-29T08:57:23Z</time>
      </trkpt>
      <trkpt lat="45.92197" lon="6.52336">
        <ele>2346</ele>
        <time>2017-08-29T08:57:24Z</time>
      </trkpt>
      <trkpt lat="45.922" lon="6.52337">
        <ele>2347</ele>
        <time>2017-08-29T08:57:25Z</time>
      </trkpt>
      <trkpt lat="45.922" lon="6.52337">
        <ele>2347</ele>
        <time>2017-08-29T08:57:26Z</time>
      </trkpt>
      <trkpt lat="45.92202" lon="6.52339">
        <ele>2347</ele>
        <time>2017-08-29T08:57:27Z</time>
      </trkpt>
      <trkpt lat="45.92202" lon="6.52339">
        <ele>2347</ele>
        <time>2017-08-29T08:57:28Z</time>
      </trkpt>
      <trkpt lat="45.92204" lon="6.5234">
        <ele>2347</ele>
        <time>2017-08-29T08:57:29Z</time>
      </trkpt>
      <trkpt lat="45.92204" lon="6.5234">
        <ele>2347</ele>
        <time>2017-08-29T08:57:30Z</time>
      </trkpt>
      <trkpt lat="45.92206" lon="6.52341">
        <ele>2347</ele>
        <time>2017-08-29T08:57:31Z</time>
      </trkpt>
      <trkpt lat="45.92206" lon="6.52341">
        <ele>2348</ele>
        <time>2017-08-29T08:57:32Z</time>
      </trkpt>
      <trkpt lat="45.92208" lon="6.52343">
        <ele>2348</ele>
        <time>2017-08-29T08:57:33Z</time>
      </trkpt>
      <trkpt lat="45.92208" lon="6.52343">
        <ele>2348</ele>
        <time>2017-08-29T08:57:34Z</time>
      </trkpt>
      <trkpt lat="45.92211" lon="6.52343">
        <ele>2348</ele>
        <time>2017-08-29T08:57:35Z</time>
      </trkpt>
      <trkpt lat="45.92211" lon="6.52343">
        <ele>2348</ele>
        <time>2017-08-29T08:57:36Z</time>
      </trkpt>
      <trkpt lat="45.92214" lon="6.52345">
        <ele>2348</ele>
        <time>2017-08-29T08:57:37Z</time>
      </trkpt>
      <trkpt lat="45.92214" lon="6.52345">
        <ele>2348</ele>
        <time>2017-08-29T08:57:38Z</time>
      </trkpt>
      <trkpt lat="45.92217" lon="6.52347">
        <ele>2348</ele>
        <time>2017-08-29T08:57:39Z</time>
      </trkpt>
      <trkpt lat="45.92219" lon="6.52347">
        <ele>2348</ele>
        <time>2017-08-29T08:57:40Z</time>
      </trkpt>
      <trkpt lat="45.92221" lon="6.52348">
        <ele>2348</ele>
        <time>2017-08-29T08:57:41Z</time>
      </trkpt>
      <trkpt lat="45.92223" lon="6.52348">
        <ele>2348</ele>
        <time>2017-08-29T08:57:42Z</time>
      </trkpt>
      <trkpt lat="45.92224" lon="6.52349">
        <ele>2348</ele>
        <time>2017-08-29T08:57:43Z</time>
      </trkpt>
      <trkpt lat="45.92224" lon="6.52349">
        <ele>2348</ele>
        <time>2017-08-29T08:57:44Z</time>
      </trkpt>
      <trkpt lat="45.92228" lon="6.52351">
        <ele>2348</ele>
        <time>2017-08-29T08:57:45Z</time>
      </trkpt>
      <trkpt lat="45.92228" lon="6.52351">
        <ele>2348</ele>
        <time>2017-08-29T08:57:46Z</time>
      </trkpt>
      <trkpt lat="45.92231" lon="6.52352">
        <ele>2348</ele>
        <time>2017-08-29T08:57:47Z</time>
      </trkpt>
      <trkpt lat="45.92231" lon="6.52352">
        <ele>2348</ele>
        <time>2017-08-29T08:57:48Z</time>
      </trkpt>
      <trkpt lat="45.92233" lon="6.52353">
        <ele>2348</ele>
        <time>2017-08-29T08:57:49Z</time>
      </trkpt>
      <trkpt lat="45.92233" lon="6.52353">
        <ele>2348</ele>
        <time>2017-08-29T08:57:50Z</time>
      </trkpt>
      <trkpt lat="45.92236" lon="6.52354">
        <ele>2348</ele>
        <time>2017-08-29T08:57:51Z</time>
      </trkpt>
      <trkpt lat="45.92236" lon="6.52354">
        <ele>2348</ele>
        <time>2017-08-29T08:57:52Z</time>
      </trkpt>
      <trkpt lat="45.92238" lon="6.52355">
        <ele>2348</ele>
        <time>2017-08-29T08:57:53Z</time>
      </trkpt>
      <trkpt lat="45.92238" lon="6.52355">
        <ele>2348</ele>
        <time>2017-08-29T08:57:54Z</time>
      </trkpt>
      <trkpt lat="45.92241" lon="6.52355">
        <ele>2348</ele>
        <time>2017-08-29T08:57:55Z</time>
      </trkpt>
      <trkpt lat="45.92241" lon="6.52355">
        <ele>2348</ele>
        <time>2017-08-29T08:57:56Z</time>
      </trkpt>
      <trkpt lat="45.92241" lon="6.52355">
        <ele>2349</ele>
        <time>2017-08-29T08:57:57Z</time>
      </trkpt>
      <trkpt lat="45.92243" lon="6.52357">
        <ele>2349</ele>
        <time>2017-08-29T08:57:58Z</time>
      </trkpt>
      <trkpt lat="45.92243" lon="6.52357">
        <ele>2349</ele>
        <time>2017-08-29T08:57:59Z</time>
      </trkpt>
      <trkpt lat="45.92245" lon="6.52359">
        <ele>2349</ele>
        <time>2017-08-29T08:58:00Z</time>
      </trkpt>
      <trkpt lat="45.92245" lon="6.52359">
        <ele>2349</ele>
        <time>2017-08-29T08:58:01Z</time>
      </trkpt>
      <trkpt lat="45.92246" lon="6.52362">
        <ele>2349</ele>
        <time>2017-08-29T08:58:02Z</time>
      </trkpt>
      <trkpt lat="45.92246" lon="6.52362">
        <ele>2349</ele>
        <time>2017-08-29T08:58:03Z</time>
      </trkpt>
      <trkpt lat="45.92248" lon="6.52364">
        <ele>2349</ele>
        <time>2017-08-29T08:58:04Z</time>
      </trkpt>
      <trkpt lat="45.92248" lon="6.52364">
        <ele>2349</ele>
        <time>2017-08-29T08:58:05Z</time>
      </trkpt>
      <trkpt lat="45.92249" lon="6.52367">
        <ele>2350</ele>
        <time>2017-08-29T08:58:06Z</time>
      </trkpt>
      <trkpt lat="45.92249" lon="6.52367">
        <ele>2350</ele>
        <time>2017-08-29T08:58:07Z</time>
      </trkpt>
      <trkpt lat="45.92249" lon="6.5237">
        <ele>2350</ele>
        <time>2017-08-29T08:58:08Z</time>
      </trkpt>
      <trkpt lat="45.92249" lon="6.5237">
        <ele>2350</ele>
        <time>2017-08-29T08:58:09Z</time>
      </trkpt>
      <trkpt lat="45.92249" lon="6.5237">
        <ele>2351</ele>
        <time>2017-08-29T08:58:10Z</time>
      </trkpt>
      <trkpt lat="45.92249" lon="6.5237">
        <ele>2351</ele>
        <time>2017-08-29T08:58:11Z</time>
      </trkpt>
      <trkpt lat="45.92249" lon="6.5237">
        <ele>2351</ele>
        <time>2017-08-29T08:58:12Z</time>
      </trkpt>
      <trkpt lat="45.92249" lon="6.5237">
        <ele>2351</ele>
        <time>2017-08-29T08:58:13Z</time>
      </trkpt>
      <trkpt lat="45.92249" lon="6.5237">
        <ele>2351</ele>
        <time>2017-08-29T08:58:14Z</time>
      </trkpt>
      <trkpt lat="45.92249" lon="6.5237">
        <ele>2351</ele>
        <time>2017-08-29T08:58:15Z</time>
      </trkpt>
      <trkpt lat="45.92249" lon="6.5237">
        <ele>2351</ele>
        <time>2017-08-29T08:58:16Z</time>
      </trkpt>
      <trkpt lat="45.92249" lon="6.5237">
        <ele>2352</ele>
        <time>2017-08-29T08:58:17Z</time>
      </trkpt>
      <trkpt lat="45.92249" lon="6.5237">
        <ele>2352</ele>
        <time>2017-08-29T08:58:18Z</time>
      </trkpt>
      <trkpt lat="45.92249" lon="6.5237">
        <ele>2352</ele>
        <time>2017-08-29T08:58:19Z</time>
      </trkpt>
      <trkpt lat="45.92249" lon="6.5237">
        <ele>2352</ele>
        <time>2017-08-29T08:58:20Z</time>
      </trkpt>
      <trkpt lat="45.92249" lon="6.5237">
        <ele>2352</ele>
        <time>2017-08-29T08:58:21Z</time>
      </trkpt>
      <trkpt lat="45.92249" lon="6.5237">
        <ele>2352</ele>
        <time>2017-08-29T08:58:22Z</time>
      </trkpt>
      <trkpt lat="45.92249" lon="6.5237">
        <ele>2352</ele>
        <time>2017-08-29T08:58:23Z</time>
      </trkpt>
      <trkpt lat="45.92249" lon="6.5237">
        <ele>2352</ele>
        <time>2017-08-29T08:58:24Z</time>
      </trkpt>
      <trkpt lat="45.92249" lon="6.5237">
        <ele>2351</ele>
        <time>2017-08-29T08:58:25Z</time>
      </trkpt>
      <trkpt lat="45.92249" lon="6.5237">
        <ele>2351</ele>
        <time>2017-08-29T08:58:26Z</time>
      </trkpt>
      <trkpt lat="45.92249" lon="6.5237">
        <ele>2351</ele>
        <time>2017-08-29T08:58:27Z</time>
      </trkpt>
      <trkpt lat="45.9225" lon="6.52373">
        <ele>2351</ele>
        <time>2017-08-29T08:58:28Z</time>
      </trkpt>
      <trkpt lat="45.9225" lon="6.52373">
        <ele>2351</ele>
        <time>2017-08-29T08:58:29Z</time>
      </trkpt>
      <trkpt lat="45.92251" lon="6.52377">
        <ele>2351</ele>
        <time>2017-08-29T08:58:30Z</time>
      </trkpt>
      <trkpt lat="45.92252" lon="6.5238">
        <ele>2350</ele>
        <time>2017-08-29T08:58:31Z</time>
      </trkpt>
      <trkpt lat="45.92252" lon="6.52382">
        <ele>2350</ele>
        <time>2017-08-29T08:58:32Z</time>
      </trkpt>
      <trkpt lat="45.92253" lon="6.52385">
        <ele>2350</ele>
        <time>2017-08-29T08:58:33Z</time>
      </trkpt>
      <trkpt lat="45.92253" lon="6.52388">
        <ele>2350</ele>
        <time>2017-08-29T08:58:34Z</time>
      </trkpt>
      <trkpt lat="45.92254" lon="6.52391">
        <ele>2350</ele>
        <time>2017-08-29T08:58:35Z</time>
      </trkpt>
      <trkpt lat="45.92255" lon="6.52394">
        <ele>2350</ele>
        <time>2017-08-29T08:58:36Z</time>
      </trkpt>
      <trkpt lat="45.92256" lon="6.52397">
        <ele>2349</ele>
        <time>2017-08-29T08:58:37Z</time>
      </trkpt>
      <trkpt lat="45.92256" lon="6.524">
        <ele>2349</ele>
        <time>2017-08-29T08:58:38Z</time>
      </trkpt>
      <trkpt lat="45.92257" lon="6.52403">
        <ele>2349</ele>
        <time>2017-08-29T08:58:39Z</time>
      </trkpt>
      <trkpt lat="45.92257" lon="6.52406">
        <ele>2349</ele>
        <time>2017-08-29T08:58:40Z</time>
      </trkpt>
      <trkpt lat="45.92257" lon="6.52406">
        <ele>2349</ele>
        <time>2017-08-29T08:58:41Z</time>
      </trkpt>
      <trkpt lat="45.92256" lon="6.52411">
        <ele>2349</ele>
        <time>2017-08-29T08:58:42Z</time>
      </trkpt>
      <trkpt lat="45.92256" lon="6.52414">
        <ele>2349</ele>
        <time>2017-08-29T08:58:43Z</time>
      </trkpt>
      <trkpt lat="45.92255" lon="6.52417">
        <ele>2349</ele>
        <time>2017-08-29T08:58:44Z</time>
      </trkpt>
      <trkpt lat="45.92255" lon="6.5242">
        <ele>2349</ele>
        <time>2017-08-29T08:58:45Z</time>
      </trkpt>
      <trkpt lat="45.92254" lon="6.52423">
        <ele>2349</ele>
        <time>2017-08-29T08:58:46Z</time>
      </trkpt>
      <trkpt lat="45.92254" lon="6.52425">
        <ele>2349</ele>
        <time>2017-08-29T08:58:47Z</time>
      </trkpt>
      <trkpt lat="45.92253" lon="6.52428">
        <ele>2349</ele>
        <time>2017-08-29T08:58:48Z</time>
      </trkpt>
      <trkpt lat="45.92252" lon="6.52431">
        <ele>2349</ele>
        <time>2017-08-29T08:58:49Z</time>
      </trkpt>
      <trkpt lat="45.92252" lon="6.52433">
        <ele>2349</ele>
        <time>2017-08-29T08:58:50Z</time>
      </trkpt>
      <trkpt lat="45.92252" lon="6.52433">
        <ele>2349</ele>
        <time>2017-08-29T08:58:51Z</time>
      </trkpt>
      <trkpt lat="45.92251" lon="6.52438">
        <ele>2349</ele>
        <time>2017-08-29T08:58:52Z</time>
      </trkpt>
      <trkpt lat="45.92251" lon="6.52438">
        <ele>2349</ele>
        <time>2017-08-29T08:58:53Z</time>
      </trkpt>
      <trkpt lat="45.92251" lon="6.52441">
        <ele>2349</ele>
        <time>2017-08-29T08:58:54Z</time>
      </trkpt>
      <trkpt lat="45.92251" lon="6.52441">
        <ele>2349</ele>
        <time>2017-08-29T08:58:55Z</time>
      </trkpt>
      <trkpt lat="45.92251" lon="6.52441">
        <ele>2348</ele>
        <time>2017-08-29T08:58:56Z</time>
      </trkpt>
      <trkpt lat="45.92251" lon="6.52441">
        <ele>2348</ele>
        <time>2017-08-29T08:58:57Z</time>
      </trkpt>
      <trkpt lat="45.92251" lon="6.52441">
        <ele>2348</ele>
        <time>2017-08-29T08:58:58Z</time>
      </trkpt>
      <trkpt lat="45.92251" lon="6.52441">
        <ele>2348</ele>
        <time>2017-08-29T08:58:59Z</time>
      </trkpt>
      <trkpt lat="45.92251" lon="6.52441">
        <ele>2348</ele>
        <time>2017-08-29T08:59:00Z</time>
      </trkpt>
      <trkpt lat="45.92251" lon="6.52441">
        <ele>2348</ele>
        <time>2017-08-29T08:59:01Z</time>
      </trkpt>
      <trkpt lat="45.92251" lon="6.52441">
        <ele>2348</ele>
        <time>2017-08-29T08:59:02Z</time>
      </trkpt>
      <trkpt lat="45.92251" lon="6.52441">
        <ele>2348</ele>
        <time>2017-08-29T08:59:03Z</time>
      </trkpt>
      <trkpt lat="45.92251" lon="6.52441">
        <ele>2348</ele>
        <time>2017-08-29T08:59:04Z</time>
      </trkpt>
      <trkpt lat="45.92251" lon="6.52441">
        <ele>2348</ele>
        <time>2017-08-29T08:59:05Z</time>
      </trkpt>
      <trkpt lat="45.92251" lon="6.52441">
        <ele>2348</ele>
        <time>2017-08-29T08:59:06Z</time>
      </trkpt>
      <trkpt lat="45.92251" lon="6.52441">
        <ele>2348</ele>
        <time>2017-08-29T08:59:07Z</time>
      </trkpt>
      <trkpt lat="45.92251" lon="6.52441">
        <ele>2348</ele>
        <time>2017-08-29T08:59:08Z</time>
      </trkpt>
      <trkpt lat="45.92251" lon="6.52441">
        <ele>2348</ele>
        <time>2017-08-29T08:59:09Z</time>
      </trkpt>
      <trkpt lat="45.92251" lon="6.52441">
        <ele>2348</ele>
        <time>2017-08-29T08:59:10Z</time>
      </trkpt>
      <trkpt lat="45.92251" lon="6.52441">
        <ele>2348</ele>
        <time>2017-08-29T08:59:11Z</time>
      </trkpt>
      <trkpt lat="45.92251" lon="6.52441">
        <ele>2348</ele>
        <time>2017-08-29T08:59:12Z</time>
      </trkpt>
      <trkpt lat="45.92251" lon="6.52444">
        <ele>2348</ele>
        <time>2017-08-29T08:59:13Z</time>
      </trkpt>
      <trkpt lat="45.92251" lon="6.52444">
        <ele>2348</ele>
        <time>2017-08-29T08:59:14Z</time>
      </trkpt>
      <trkpt lat="45.92251" lon="6.52444">
        <ele>2347</ele>
        <time>2017-08-29T08:59:15Z</time>
      </trkpt>
      <trkpt lat="45.92251" lon="6.52444">
        <ele>2347</ele>
        <time>2017-08-29T08:59:16Z</time>
      </trkpt>
      <trkpt lat="45.9225" lon="6.52447">
        <ele>2346</ele>
        <time>2017-08-29T08:59:17Z</time>
      </trkpt>
      <trkpt lat="45.9225" lon="6.52447">
        <ele>2346</ele>
        <time>2017-08-29T08:59:18Z</time>
      </trkpt>
      <trkpt lat="45.9225" lon="6.52447">
        <ele>2345</ele>
        <time>2017-08-29T08:59:19Z</time>
      </trkpt>
      <trkpt lat="45.9225" lon="6.52447">
        <ele>2345</ele>
        <time>2017-08-29T08:59:20Z</time>
      </trkpt>
      <trkpt lat="45.9225" lon="6.52447">
        <ele>2345</ele>
        <time>2017-08-29T08:59:21Z</time>
      </trkpt>
      <trkpt lat="45.9225" lon="6.52447">
        <ele>2345</ele>
        <time>2017-08-29T08:59:22Z</time>
      </trkpt>
      <trkpt lat="45.9225" lon="6.52447">
        <ele>2344</ele>
        <time>2017-08-29T08:59:23Z</time>
      </trkpt>
      <trkpt lat="45.9225" lon="6.52449">
        <ele>2344</ele>
        <time>2017-08-29T08:59:24Z</time>
      </trkpt>
      <trkpt lat="45.9225" lon="6.52449">
        <ele>2344</ele>
        <time>2017-08-29T08:59:25Z</time>
      </trkpt>
      <trkpt lat="45.9225" lon="6.52449">
        <ele>2343</ele>
        <time>2017-08-29T08:59:26Z</time>
      </trkpt>
      <trkpt lat="45.9225" lon="6.52449">
        <ele>2342</ele>
        <time>2017-08-29T08:59:27Z</time>
      </trkpt>
      <trkpt lat="45.9225" lon="6.52449">
        <ele>2342</ele>
        <time>2017-08-29T08:59:28Z</time>
      </trkpt>
      <trkpt lat="45.9225" lon="6.52449">
        <ele>2342</ele>
        <time>2017-08-29T08:59:29Z</time>
      </trkpt>
      <trkpt lat="45.92252" lon="6.52451">
        <ele>2342</ele>
        <time>2017-08-29T08:59:30Z</time>
      </trkpt>
      <trkpt lat="45.92252" lon="6.5245">
        <ele>2342</ele>
        <time>2017-08-29T08:59:31Z</time>
      </trkpt>
      <trkpt lat="45.92251" lon="6.5245">
        <ele>2342</ele>
        <time>2017-08-29T08:59:32Z</time>
      </trkpt>
      <trkpt lat="45.92251" lon="6.52449">
        <ele>2342</ele>
        <time>2017-08-29T08:59:33Z</time>
      </trkpt>
      <trkpt lat="45.92251" lon="6.52448">
        <ele>2342</ele>
        <time>2017-08-29T08:59:34Z</time>
      </trkpt>
      <trkpt lat="45.92251" lon="6.52448">
        <ele>2341</ele>
        <time>2017-08-29T08:59:35Z</time>
      </trkpt>
      <trkpt lat="45.9225" lon="6.52447">
        <ele>2341</ele>
        <time>2017-08-29T08:59:36Z</time>
      </trkpt>
      <trkpt lat="45.9225" lon="6.52446">
        <ele>2341</ele>
        <time>2017-08-29T08:59:37Z</time>
      </trkpt>
      <trkpt lat="45.9225" lon="6.52446">
        <ele>2341</ele>
        <time>2017-08-29T08:59:38Z</time>
      </trkpt>
      <trkpt lat="45.9225" lon="6.52446">
        <ele>2340</ele>
        <time>2017-08-29T08:59:39Z</time>
      </trkpt>
      <trkpt lat="45.9225" lon="6.52446">
        <ele>2340</ele>
        <time>2017-08-29T08:59:40Z</time>
      </trkpt>
      <trkpt lat="45.9225" lon="6.52446">
        <ele>2341</ele>
        <time>2017-08-29T08:59:41Z</time>
      </trkpt>
      <trkpt lat="45.9225" lon="6.52446">
        <ele>2341</ele>
        <time>2017-08-29T08:59:42Z</time>
      </trkpt>
      <trkpt lat="45.92249" lon="6.52449">
        <ele>2341</ele>
        <time>2017-08-29T08:59:43Z</time>
      </trkpt>
      <trkpt lat="45.92249" lon="6.52449">
        <ele>2341</ele>
        <time>2017-08-29T08:59:44Z</time>
      </trkpt>
      <trkpt lat="45.92249" lon="6.52449">
        <ele>2341</ele>
        <time>2017-08-29T08:59:45Z</time>
      </trkpt>
      <trkpt lat="45.92249" lon="6.52449">
        <ele>2340</ele>
        <time>2017-08-29T08:59:46Z</time>
      </trkpt>
      <trkpt lat="45.92251" lon="6.52452">
        <ele>2340</ele>
        <time>2017-08-29T08:59:47Z</time>
      </trkpt>
      <trkpt lat="45.92251" lon="6.52452">
        <ele>2340</ele>
        <time>2017-08-29T08:59:48Z</time>
      </trkpt>
      <trkpt lat="45.92251" lon="6.52452">
        <ele>2340</ele>
        <time>2017-08-29T08:59:49Z</time>
      </trkpt>
      <trkpt lat="45.92253" lon="6.52454">
        <ele>2340</ele>
        <time>2017-08-29T08:59:50Z</time>
      </trkpt>
      <trkpt lat="45.92253" lon="6.52454">
        <ele>2340</ele>
        <time>2017-08-29T08:59:51Z</time>
      </trkpt>
      <trkpt lat="45.92253" lon="6.52454">
        <ele>2339</ele>
        <time>2017-08-29T08:59:52Z</time>
      </trkpt>
      <trkpt lat="45.92255" lon="6.52456">
        <ele>2339</ele>
        <time>2017-08-29T08:59:53Z</time>
      </trkpt>
      <trkpt lat="45.92255" lon="6.52456">
        <ele>2338</ele>
        <time>2017-08-29T08:59:54Z</time>
      </trkpt>
      <trkpt lat="45.92256" lon="6.52458">
        <ele>2338</ele>
        <time>2017-08-29T08:59:56Z</time>
      </trkpt>
      <trkpt lat="45.92256" lon="6.52458">
        <ele>2338</ele>
        <time>2017-08-29T08:59:57Z</time>
      </trkpt>
      <trkpt lat="45.92256" lon="6.52458">
        <ele>2337</ele>
        <time>2017-08-29T08:59:58Z</time>
      </trkpt>
      <trkpt lat="45.92256" lon="6.52458">
        <ele>2336</ele>
        <time>2017-08-29T08:59:59Z</time>
      </trkpt>
      <trkpt lat="45.92256" lon="6.52458">
        <ele>2336</ele>
        <time>2017-08-29T09:00:00Z</time>
      </trkpt>
      <trkpt lat="45.92255" lon="6.52461">
        <ele>2336</ele>
        <time>2017-08-29T09:00:01Z</time>
      </trkpt>
      <trkpt lat="45.92255" lon="6.52461">
        <ele>2336</ele>
        <time>2017-08-29T09:00:02Z</time>
      </trkpt>
      <trkpt lat="45.92255" lon="6.52461">
        <ele>2336</ele>
        <time>2017-08-29T09:00:03Z</time>
      </trkpt>
      <trkpt lat="45.92255" lon="6.52461">
        <ele>2336</ele>
        <time>2017-08-29T09:00:04Z</time>
      </trkpt>
      <trkpt lat="45.92255" lon="6.52461">
        <ele>2336</ele>
        <time>2017-08-29T09:00:05Z</time>
      </trkpt>
      <trkpt lat="45.92255" lon="6.52461">
        <ele>2336</ele>
        <time>2017-08-29T09:00:06Z</time>
      </trkpt>
      <trkpt lat="45.92255" lon="6.52461">
        <ele>2336</ele>
        <time>2017-08-29T09:00:07Z</time>
      </trkpt>
      <trkpt lat="45.92252" lon="6.52462">
        <ele>2336</ele>
        <time>2017-08-29T09:00:08Z</time>
      </trkpt>
      <trkpt lat="45.92252" lon="6.52463">
        <ele>2336</ele>
        <time>2017-08-29T09:00:09Z</time>
      </trkpt>
      <trkpt lat="45.92251" lon="6.52463">
        <ele>2336</ele>
        <time>2017-08-29T09:00:10Z</time>
      </trkpt>
      <trkpt lat="45.92251" lon="6.52464">
        <ele>2336</ele>
        <time>2017-08-29T09:00:11Z</time>
      </trkpt>
      <trkpt lat="45.9225" lon="6.52464">
        <ele>2336</ele>
        <time>2017-08-29T09:00:12Z</time>
      </trkpt>
      <trkpt lat="45.9225" lon="6.52465">
        <ele>2336</ele>
        <time>2017-08-29T09:00:13Z</time>
      </trkpt>
      <trkpt lat="45.92249" lon="6.52465">
        <ele>2336</ele>
        <time>2017-08-29T09:00:14Z</time>
      </trkpt>
      <trkpt lat="45.92249" lon="6.52465">
        <ele>2336</ele>
        <time>2017-08-29T09:00:15Z</time>
      </trkpt>
      <trkpt lat="45.92247" lon="6.52467">
        <ele>2336</ele>
        <time>2017-08-29T09:00:16Z</time>
      </trkpt>
      <trkpt lat="45.92245" lon="6.52469">
        <ele>2336</ele>
        <time>2017-08-29T09:00:17Z</time>
      </trkpt>
      <trkpt lat="45.92244" lon="6.5247">
        <ele>2336</ele>
        <time>2017-08-29T09:00:18Z</time>
      </trkpt>
      <trkpt lat="45.92243" lon="6.52472">
        <ele>2336</ele>
        <time>2017-08-29T09:00:19Z</time>
      </trkpt>
      <trkpt lat="45.92243" lon="6.52472">
        <ele>2335</ele>
        <time>2017-08-29T09:00:20Z</time>
      </trkpt>
      <trkpt lat="45.92241" lon="6.52476">
        <ele>2335</ele>
        <time>2017-08-29T09:00:21Z</time>
      </trkpt>
      <trkpt lat="45.92241" lon="6.52476">
        <ele>2335</ele>
        <time>2017-08-29T09:00:22Z</time>
      </trkpt>
      <trkpt lat="45.92238" lon="6.52479">
        <ele>2336</ele>
        <time>2017-08-29T09:00:23Z</time>
      </trkpt>
      <trkpt lat="45.92238" lon="6.52479">
        <ele>2336</ele>
        <time>2017-08-29T09:00:24Z</time>
      </trkpt>
      <trkpt lat="45.92237" lon="6.52481">
        <ele>2336</ele>
        <time>2017-08-29T09:00:25Z</time>
      </trkpt>
      <trkpt lat="45.92237" lon="6.52481">
        <ele>2336</ele>
        <time>2017-08-29T09:00:26Z</time>
      </trkpt>
      <trkpt lat="45.92237" lon="6.52483">
        <ele>2336</ele>
        <time>2017-08-29T09:00:27Z</time>
      </trkpt>
      <trkpt lat="45.92237" lon="6.52483">
        <ele>2336</ele>
        <time>2017-08-29T09:00:28Z</time>
      </trkpt>
      <trkpt lat="45.92234" lon="6.52487">
        <ele>2336</ele>
        <time>2017-08-29T09:00:29Z</time>
      </trkpt>
      <trkpt lat="45.92233" lon="6.52489">
        <ele>2336</ele>
        <time>2017-08-29T09:00:30Z</time>
      </trkpt>
      <trkpt lat="45.92233" lon="6.52489">
        <ele>2336</ele>
        <time>2017-08-29T09:00:31Z</time>
      </trkpt>
      <trkpt lat="45.92232" lon="6.52493">
        <ele>2336</ele>
        <time>2017-08-29T09:00:32Z</time>
      </trkpt>
      <trkpt lat="45.92231" lon="6.52496">
        <ele>2336</ele>
        <time>2017-08-29T09:00:33Z</time>
      </trkpt>
      <trkpt lat="45.92231" lon="6.52499">
        <ele>2336</ele>
        <time>2017-08-29T09:00:34Z</time>
      </trkpt>
      <trkpt lat="45.92231" lon="6.52499">
        <ele>2336</ele>
        <time>2017-08-29T09:00:35Z</time>
      </trkpt>
      <trkpt lat="45.92232" lon="6.52504">
        <ele>2336</ele>
        <time>2017-08-29T09:00:36Z</time>
      </trkpt>
      <trkpt lat="45.92232" lon="6.52506">
        <ele>2336</ele>
        <time>2017-08-29T09:00:37Z</time>
      </trkpt>
      <trkpt lat="45.92232" lon="6.52509">
        <ele>2336</ele>
        <time>2017-08-29T09:00:38Z</time>
      </trkpt>
      <trkpt lat="45.92232" lon="6.52512">
        <ele>2336</ele>
        <time>2017-08-29T09:00:39Z</time>
      </trkpt>
      <trkpt lat="45.92232" lon="6.52514">
        <ele>2335</ele>
        <time>2017-08-29T09:00:40Z</time>
      </trkpt>
      <trkpt lat="45.92231" lon="6.52517">
        <ele>2335</ele>
        <time>2017-08-29T09:00:41Z</time>
      </trkpt>
      <trkpt lat="45.92231" lon="6.52517">
        <ele>2335</ele>
        <time>2017-08-29T09:00:42Z</time>
      </trkpt>
      <trkpt lat="45.92231" lon="6.52521">
        <ele>2335</ele>
        <time>2017-08-29T09:00:43Z</time>
      </trkpt>
      <trkpt lat="45.92231" lon="6.52521">
        <ele>2335</ele>
        <time>2017-08-29T09:00:44Z</time>
      </trkpt>
      <trkpt lat="45.9223" lon="6.52524">
        <ele>2335</ele>
        <time>2017-08-29T09:00:45Z</time>
      </trkpt>
      <trkpt lat="45.9223" lon="6.52524">
        <ele>2335</ele>
        <time>2017-08-29T09:00:46Z</time>
      </trkpt>
      <trkpt lat="45.92229" lon="6.52528">
        <ele>2335</ele>
        <time>2017-08-29T09:00:47Z</time>
      </trkpt>
      <trkpt lat="45.92229" lon="6.52528">
        <ele>2335</ele>
        <time>2017-08-29T09:00:48Z</time>
      </trkpt>
      <trkpt lat="45.92228" lon="6.52531">
        <ele>2335</ele>
        <time>2017-08-29T09:00:49Z</time>
      </trkpt>
      <trkpt lat="45.92228" lon="6.52531">
        <ele>2335</ele>
        <time>2017-08-29T09:00:50Z</time>
      </trkpt>
      <trkpt lat="45.92228" lon="6.52534">
        <ele>2336</ele>
        <time>2017-08-29T09:00:51Z</time>
      </trkpt>
      <trkpt lat="45.92228" lon="6.52534">
        <ele>2336</ele>
        <time>2017-08-29T09:00:52Z</time>
      </trkpt>
      <trkpt lat="45.92228" lon="6.52538">
        <ele>2336</ele>
        <time>2017-08-29T09:00:53Z</time>
      </trkpt>
      <trkpt lat="45.92228" lon="6.52538">
        <ele>2337</ele>
        <time>2017-08-29T09:00:54Z</time>
      </trkpt>
      <trkpt lat="45.92228" lon="6.52541">
        <ele>2337</ele>
        <time>2017-08-29T09:00:55Z</time>
      </trkpt>
      <trkpt lat="45.92228" lon="6.52541">
        <ele>2337</ele>
        <time>2017-08-29T09:00:56Z</time>
      </trkpt>
      <trkpt lat="45.92227" lon="6.52546">
        <ele>2337</ele>
        <time>2017-08-29T09:00:57Z</time>
      </trkpt>
      <trkpt lat="45.92227" lon="6.52546">
        <ele>2337</ele>
        <time>2017-08-29T09:00:58Z</time>
      </trkpt>
      <trkpt lat="45.92227" lon="6.5255">
        <ele>2337</ele>
        <time>2017-08-29T09:00:59Z</time>
      </trkpt>
      <trkpt lat="45.92227" lon="6.5255">
        <ele>2337</ele>
        <time>2017-08-29T09:01:00Z</time>
      </trkpt>
      <trkpt lat="45.92227" lon="6.52553">
        <ele>2337</ele>
        <time>2017-08-29T09:01:01Z</time>
      </trkpt>
      <trkpt lat="45.92227" lon="6.52553">
        <ele>2337</ele>
        <time>2017-08-29T09:01:02Z</time>
      </trkpt>
      <trkpt lat="45.92228" lon="6.52556">
        <ele>2337</ele>
        <time>2017-08-29T09:01:03Z</time>
      </trkpt>
      <trkpt lat="45.92228" lon="6.52556">
        <ele>2337</ele>
        <time>2017-08-29T09:01:04Z</time>
      </trkpt>
      <trkpt lat="45.92228" lon="6.52559">
        <ele>2337</ele>
        <time>2017-08-29T09:01:05Z</time>
      </trkpt>
      <trkpt lat="45.92228" lon="6.52559">
        <ele>2337</ele>
        <time>2017-08-29T09:01:06Z</time>
      </trkpt>
      <trkpt lat="45.92228" lon="6.52559">
        <ele>2337</ele>
        <time>2017-08-29T09:01:07Z</time>
      </trkpt>
      <trkpt lat="45.92227" lon="6.52562">
        <ele>2337</ele>
        <time>2017-08-29T09:01:08Z</time>
      </trkpt>
      <trkpt lat="45.92227" lon="6.52562">
        <ele>2337</ele>
        <time>2017-08-29T09:01:09Z</time>
      </trkpt>
      <trkpt lat="45.92227" lon="6.52565">
        <ele>2338</ele>
        <time>2017-08-29T09:01:10Z</time>
      </trkpt>
      <trkpt lat="45.92227" lon="6.52565">
        <ele>2338</ele>
        <time>2017-08-29T09:01:11Z</time>
      </trkpt>
      <trkpt lat="45.92227" lon="6.52569">
        <ele>2337</ele>
        <time>2017-08-29T09:01:12Z</time>
      </trkpt>
      <trkpt lat="45.92227" lon="6.52569">
        <ele>2337</ele>
        <time>2017-08-29T09:01:13Z</time>
      </trkpt>
      <trkpt lat="45.92227" lon="6.52571">
        <ele>2337</ele>
        <time>2017-08-29T09:01:14Z</time>
      </trkpt>
      <trkpt lat="45.92227" lon="6.52571">
        <ele>2337</ele>
        <time>2017-08-29T09:01:15Z</time>
      </trkpt>
      <trkpt lat="45.92227" lon="6.52574">
        <ele>2337</ele>
        <time>2017-08-29T09:01:16Z</time>
      </trkpt>
      <trkpt lat="45.92227" lon="6.52574">
        <ele>2337</ele>
        <time>2017-08-29T09:01:17Z</time>
      </trkpt>
      <trkpt lat="45.92227" lon="6.52574">
        <ele>2338</ele>
        <time>2017-08-29T09:01:18Z</time>
      </trkpt>
      <trkpt lat="45.92228" lon="6.52577">
        <ele>2338</ele>
        <time>2017-08-29T09:01:19Z</time>
      </trkpt>
      <trkpt lat="45.92228" lon="6.52577">
        <ele>2338</ele>
        <time>2017-08-29T09:01:20Z</time>
      </trkpt>
      <trkpt lat="45.92227" lon="6.52581">
        <ele>2337</ele>
        <time>2017-08-29T09:01:21Z</time>
      </trkpt>
      <trkpt lat="45.92227" lon="6.52581">
        <ele>2337</ele>
        <time>2017-08-29T09:01:22Z</time>
      </trkpt>
      <trkpt lat="45.92228" lon="6.52584">
        <ele>2337</ele>
        <time>2017-08-29T09:01:23Z</time>
      </trkpt>
      <trkpt lat="45.92228" lon="6.52584">
        <ele>2337</ele>
        <time>2017-08-29T09:01:24Z</time>
      </trkpt>
      <trkpt lat="45.92229" lon="6.52586">
        <ele>2337</ele>
        <time>2017-08-29T09:01:25Z</time>
      </trkpt>
      <trkpt lat="45.92229" lon="6.52586">
        <ele>2337</ele>
        <time>2017-08-29T09:01:26Z</time>
      </trkpt>
      <trkpt lat="45.9223" lon="6.52589">
        <ele>2338</ele>
        <time>2017-08-29T09:01:27Z</time>
      </trkpt>
      <trkpt lat="45.9223" lon="6.52589">
        <ele>2338</ele>
        <time>2017-08-29T09:01:28Z</time>
      </trkpt>
      <trkpt lat="45.9223" lon="6.52592">
        <ele>2338</ele>
        <time>2017-08-29T09:01:29Z</time>
      </trkpt>
      <trkpt lat="45.9223" lon="6.52592">
        <ele>2339</ele>
        <time>2017-08-29T09:01:30Z</time>
      </trkpt>
      <trkpt lat="45.92231" lon="6.52595">
        <ele>2339</ele>
        <time>2017-08-29T09:01:31Z</time>
      </trkpt>
      <trkpt lat="45.92231" lon="6.52595">
        <ele>2339</ele>
        <time>2017-08-29T09:01:32Z</time>
      </trkpt>
      <trkpt lat="45.92232" lon="6.52598">
        <ele>2339</ele>
        <time>2017-08-29T09:01:33Z</time>
      </trkpt>
      <trkpt lat="45.92232" lon="6.52598">
        <ele>2340</ele>
        <time>2017-08-29T09:01:34Z</time>
      </trkpt>
      <trkpt lat="45.92232" lon="6.52598">
        <ele>2340</ele>
        <time>2017-08-29T09:01:35Z</time>
      </trkpt>
      <trkpt lat="45.92231" lon="6.52601">
        <ele>2340</ele>
        <time>2017-08-29T09:01:36Z</time>
      </trkpt>
      <trkpt lat="45.92231" lon="6.52601">
        <ele>2340</ele>
        <time>2017-08-29T09:01:37Z</time>
      </trkpt>
      <trkpt lat="45.92231" lon="6.52601">
        <ele>2340</ele>
        <time>2017-08-29T09:01:38Z</time>
      </trkpt>
      <trkpt lat="45.9223" lon="6.52603">
        <ele>2340</ele>
        <time>2017-08-29T09:01:39Z</time>
      </trkpt>
      <trkpt lat="45.9223" lon="6.52603">
        <ele>2340</ele>
        <time>2017-08-29T09:01:40Z</time>
      </trkpt>
      <trkpt lat="45.9223" lon="6.52603">
        <ele>2341</ele>
        <time>2017-08-29T09:01:41Z</time>
      </trkpt>
      <trkpt lat="45.92227" lon="6.52603">
        <ele>2341</ele>
        <time>2017-08-29T09:01:42Z</time>
      </trkpt>
      <trkpt lat="45.92227" lon="6.52603">
        <ele>2342</ele>
        <time>2017-08-29T09:01:43Z</time>
      </trkpt>
      <trkpt lat="45.92227" lon="6.52603">
        <ele>2342</ele>
        <time>2017-08-29T09:01:44Z</time>
      </trkpt>
      <trkpt lat="45.92227" lon="6.52603">
        <ele>2342</ele>
        <time>2017-08-29T09:01:45Z</time>
      </trkpt>
      <trkpt lat="45.92225" lon="6.52606">
        <ele>2343</ele>
        <time>2017-08-29T09:01:46Z</time>
      </trkpt>
      <trkpt lat="45.92225" lon="6.52606">
        <ele>2343</ele>
        <time>2017-08-29T09:01:47Z</time>
      </trkpt>
      <trkpt lat="45.92225" lon="6.52606">
        <ele>2343</ele>
        <time>2017-08-29T09:01:48Z</time>
      </trkpt>
      <trkpt lat="45.92225" lon="6.52609">
        <ele>2344</ele>
        <time>2017-08-29T09:01:49Z</time>
      </trkpt>
      <trkpt lat="45.92225" lon="6.52609">
        <ele>2344</ele>
        <time>2017-08-29T09:01:50Z</time>
      </trkpt>
      <trkpt lat="45.92225" lon="6.52612">
        <ele>2344</ele>
        <time>2017-08-29T09:01:51Z</time>
      </trkpt>
      <trkpt lat="45.92225" lon="6.52612">
        <ele>2344</ele>
        <time>2017-08-29T09:01:52Z</time>
      </trkpt>
      <trkpt lat="45.92225" lon="6.52612">
        <ele>2344</ele>
        <time>2017-08-29T09:01:53Z</time>
      </trkpt>
      <trkpt lat="45.92225" lon="6.52615">
        <ele>2344</ele>
        <time>2017-08-29T09:01:54Z</time>
      </trkpt>
      <trkpt lat="45.92225" lon="6.52615">
        <ele>2344</ele>
        <time>2017-08-29T09:01:55Z</time>
      </trkpt>
      <trkpt lat="45.92225" lon="6.52615">
        <ele>2345</ele>
        <time>2017-08-29T09:01:56Z</time>
      </trkpt>
      <trkpt lat="45.92225" lon="6.52618">
        <ele>2345</ele>
        <time>2017-08-29T09:01:57Z</time>
      </trkpt>
      <trkpt lat="45.92225" lon="6.52618">
        <ele>2345</ele>
        <time>2017-08-29T09:01:58Z</time>
      </trkpt>
      <trkpt lat="45.92225" lon="6.52618">
        <ele>2345</ele>
        <time>2017-08-29T09:01:59Z</time>
      </trkpt>
      <trkpt lat="45.92226" lon="6.52622">
        <ele>2346</ele>
        <time>2017-08-29T09:02:00Z</time>
      </trkpt>
      <trkpt lat="45.92226" lon="6.52622">
        <ele>2346</ele>
        <time>2017-08-29T09:02:01Z</time>
      </trkpt>
      <trkpt lat="45.92226" lon="6.52622">
        <ele>2347</ele>
        <time>2017-08-29T09:02:02Z</time>
      </trkpt>
      <trkpt lat="45.92227" lon="6.52624">
        <ele>2347</ele>
        <time>2017-08-29T09:02:03Z</time>
      </trkpt>
      <trkpt lat="45.92227" lon="6.52624">
        <ele>2347</ele>
        <time>2017-08-29T09:02:04Z</time>
      </trkpt>
      <trkpt lat="45.92227" lon="6.52624">
        <ele>2347</ele>
        <time>2017-08-29T09:02:05Z</time>
      </trkpt>
      <trkpt lat="45.92227" lon="6.52624">
        <ele>2347</ele>
        <time>2017-08-29T09:02:06Z</time>
      </trkpt>
      <trkpt lat="45.92227" lon="6.52624">
        <ele>2347</ele>
        <time>2017-08-29T09:02:07Z</time>
      </trkpt>
      <trkpt lat="45.92227" lon="6.52624">
        <ele>2347</ele>
        <time>2017-08-29T09:02:08Z</time>
      </trkpt>
      <trkpt lat="45.92228" lon="6.52627">
        <ele>2347</ele>
        <time>2017-08-29T09:02:09Z</time>
      </trkpt>
      <trkpt lat="45.92228" lon="6.52627">
        <ele>2347</ele>
        <time>2017-08-29T09:02:10Z</time>
      </trkpt>
      <trkpt lat="45.92228" lon="6.52627">
        <ele>2348</ele>
        <time>2017-08-29T09:02:11Z</time>
      </trkpt>
      <trkpt lat="45.92228" lon="6.52627">
        <ele>2348</ele>
        <time>2017-08-29T09:02:12Z</time>
      </trkpt>
      <trkpt lat="45.92228" lon="6.52627">
        <ele>2348</ele>
        <time>2017-08-29T09:02:13Z</time>
      </trkpt>
      <trkpt lat="45.92228" lon="6.5263">
        <ele>2348</ele>
        <time>2017-08-29T09:02:14Z</time>
      </trkpt>
      <trkpt lat="45.92228" lon="6.5263">
        <ele>2349</ele>
        <time>2017-08-29T09:02:15Z</time>
      </trkpt>
      <trkpt lat="45.92228" lon="6.5263">
        <ele>2349</ele>
        <time>2017-08-29T09:02:16Z</time>
      </trkpt>
      <trkpt lat="45.92228" lon="6.5263">
        <ele>2349</ele>
        <time>2017-08-29T09:02:17Z</time>
      </trkpt>
      <trkpt lat="45.92228" lon="6.5263">
        <ele>2348</ele>
        <time>2017-08-29T09:02:18Z</time>
      </trkpt>
      <trkpt lat="45.92228" lon="6.52633">
        <ele>2349</ele>
        <time>2017-08-29T09:02:19Z</time>
      </trkpt>
      <trkpt lat="45.92228" lon="6.52633">
        <ele>2349</ele>
        <time>2017-08-29T09:02:20Z</time>
      </trkpt>
      <trkpt lat="45.9223" lon="6.52635">
        <ele>2349</ele>
        <time>2017-08-29T09:02:21Z</time>
      </trkpt>
      <trkpt lat="45.9223" lon="6.52635">
        <ele>2349</ele>
        <time>2017-08-29T09:02:22Z</time>
      </trkpt>
      <trkpt lat="45.92231" lon="6.52637">
        <ele>2349</ele>
        <time>2017-08-29T09:02:23Z</time>
      </trkpt>
      <trkpt lat="45.92231" lon="6.52637">
        <ele>2350</ele>
        <time>2017-08-29T09:02:24Z</time>
      </trkpt>
      <trkpt lat="45.92231" lon="6.52637">
        <ele>2350</ele>
        <time>2017-08-29T09:02:25Z</time>
      </trkpt>
      <trkpt lat="45.92231" lon="6.52637">
        <ele>2350</ele>
        <time>2017-08-29T09:02:26Z</time>
      </trkpt>
      <trkpt lat="45.9223" lon="6.5264">
        <ele>2350</ele>
        <time>2017-08-29T09:02:27Z</time>
      </trkpt>
      <trkpt lat="45.9223" lon="6.5264">
        <ele>2351</ele>
        <time>2017-08-29T09:02:28Z</time>
      </trkpt>
      <trkpt lat="45.9223" lon="6.5264">
        <ele>2351</ele>
        <time>2017-08-29T09:02:29Z</time>
      </trkpt>
      <trkpt lat="45.9223" lon="6.52643">
        <ele>2351</ele>
        <time>2017-08-29T09:02:30Z</time>
      </trkpt>
      <trkpt lat="45.9223" lon="6.52643">
        <ele>2352</ele>
        <time>2017-08-29T09:02:31Z</time>
      </trkpt>
      <trkpt lat="45.9223" lon="6.52643">
        <ele>2352</ele>
        <time>2017-08-29T09:02:32Z</time>
      </trkpt>
      <trkpt lat="45.9223" lon="6.52643">
        <ele>2352</ele>
        <time>2017-08-29T09:02:33Z</time>
      </trkpt>
      <trkpt lat="45.92229" lon="6.52646">
        <ele>2352</ele>
        <time>2017-08-29T09:02:34Z</time>
      </trkpt>
      <trkpt lat="45.92229" lon="6.52646">
        <ele>2352</ele>
        <time>2017-08-29T09:02:35Z</time>
      </trkpt>
      <trkpt lat="45.92229" lon="6.52646">
        <ele>2352</ele>
        <time>2017-08-29T09:02:36Z</time>
      </trkpt>
      <trkpt lat="45.92228" lon="6.52648">
        <ele>2352</ele>
        <time>2017-08-29T09:02:37Z</time>
      </trkpt>
      <trkpt lat="45.92228" lon="6.52648">
        <ele>2353</ele>
        <time>2017-08-29T09:02:38Z</time>
      </trkpt>
      <trkpt lat="45.92228" lon="6.52648">
        <ele>2353</ele>
        <time>2017-08-29T09:02:39Z</time>
      </trkpt>
      <trkpt lat="45.92228" lon="6.52648">
        <ele>2353</ele>
        <time>2017-08-29T09:02:40Z</time>
      </trkpt>
      <trkpt lat="45.92227" lon="6.52651">
        <ele>2355</ele>
        <time>2017-08-29T09:02:41Z</time>
      </trkpt>
      <trkpt lat="45.92227" lon="6.52651">
        <ele>2355</ele>
        <time>2017-08-29T09:02:42Z</time>
      </trkpt>
      <trkpt lat="45.92227" lon="6.52651">
        <ele>2355</ele>
        <time>2017-08-29T09:02:43Z</time>
      </trkpt>
      <trkpt lat="45.92227" lon="6.52654">
        <ele>2355</ele>
        <time>2017-08-29T09:02:44Z</time>
      </trkpt>
      <trkpt lat="45.92227" lon="6.52654">
        <ele>2355</ele>
        <time>2017-08-29T09:02:45Z</time>
      </trkpt>
      <trkpt lat="45.92227" lon="6.52654">
        <ele>2355</ele>
        <time>2017-08-29T09:02:46Z</time>
      </trkpt>
      <trkpt lat="45.92227" lon="6.52654">
        <ele>2356</ele>
        <time>2017-08-29T09:02:47Z</time>
      </trkpt>
      <trkpt lat="45.92229" lon="6.52656">
        <ele>2357</ele>
        <time>2017-08-29T09:02:48Z</time>
      </trkpt>
      <trkpt lat="45.92229" lon="6.52656">
        <ele>2357</ele>
        <time>2017-08-29T09:02:49Z</time>
      </trkpt>
      <trkpt lat="45.92229" lon="6.52656">
        <ele>2357</ele>
        <time>2017-08-29T09:02:50Z</time>
      </trkpt>
      <trkpt lat="45.92229" lon="6.52656">
        <ele>2357</ele>
        <time>2017-08-29T09:02:51Z</time>
      </trkpt>
      <trkpt lat="45.92229" lon="6.52656">
        <ele>2357</ele>
        <time>2017-08-29T09:02:52Z</time>
      </trkpt>
      <trkpt lat="45.92229" lon="6.52656">
        <ele>2357</ele>
        <time>2017-08-29T09:02:53Z</time>
      </trkpt>
      <trkpt lat="45.92229" lon="6.52659">
        <ele>2357</ele>
        <time>2017-08-29T09:02:54Z</time>
      </trkpt>
      <trkpt lat="45.92229" lon="6.52659">
        <ele>2357</ele>
        <time>2017-08-29T09:02:55Z</time>
      </trkpt>
      <trkpt lat="45.92229" lon="6.52659">
        <ele>2357</ele>
        <time>2017-08-29T09:02:56Z</time>
      </trkpt>
      <trkpt lat="45.92229" lon="6.52659">
        <ele>2357</ele>
        <time>2017-08-29T09:02:57Z</time>
      </trkpt>
      <trkpt lat="45.92229" lon="6.52659">
        <ele>2358</ele>
        <time>2017-08-29T09:02:58Z</time>
      </trkpt>
      <trkpt lat="45.92229" lon="6.52659">
        <ele>2358</ele>
        <time>2017-08-29T09:02:59Z</time>
      </trkpt>
      <trkpt lat="45.92229" lon="6.52659">
        <ele>2358</ele>
        <time>2017-08-29T09:03:00Z</time>
      </trkpt>
      <trkpt lat="45.9223" lon="6.52662">
        <ele>2357</ele>
        <time>2017-08-29T09:03:01Z</time>
      </trkpt>
      <trkpt lat="45.9223" lon="6.52662">
        <ele>2357</ele>
        <time>2017-08-29T09:03:02Z</time>
      </trkpt>
      <trkpt lat="45.9223" lon="6.52662">
        <ele>2357</ele>
        <time>2017-08-29T09:03:03Z</time>
      </trkpt>
      <trkpt lat="45.9223" lon="6.52662">
        <ele>2357</ele>
        <time>2017-08-29T09:03:04Z</time>
      </trkpt>
      <trkpt lat="45.9223" lon="6.52662">
        <ele>2357</ele>
        <time>2017-08-29T09:03:05Z</time>
      </trkpt>
      <trkpt lat="45.9223" lon="6.52662">
        <ele>2357</ele>
        <time>2017-08-29T09:03:06Z</time>
      </trkpt>
      <trkpt lat="45.9223" lon="6.52662">
        <ele>2357</ele>
        <time>2017-08-29T09:03:07Z</time>
      </trkpt>
      <trkpt lat="45.9223" lon="6.52662">
        <ele>2357</ele>
        <time>2017-08-29T09:03:08Z</time>
      </trkpt>
      <trkpt lat="45.92233" lon="6.52663">
        <ele>2357</ele>
        <time>2017-08-29T09:03:09Z</time>
      </trkpt>
      <trkpt lat="45.92233" lon="6.52663">
        <ele>2357</ele>
        <time>2017-08-29T09:03:10Z</time>
      </trkpt>
      <trkpt lat="45.92233" lon="6.52663">
        <ele>2356</ele>
        <time>2017-08-29T09:03:11Z</time>
      </trkpt>
      <trkpt lat="45.92236" lon="6.52664">
        <ele>2356</ele>
        <time>2017-08-29T09:03:12Z</time>
      </trkpt>
      <trkpt lat="45.92236" lon="6.52664">
        <ele>2356</ele>
        <time>2017-08-29T09:03:13Z</time>
      </trkpt>
      <trkpt lat="45.92236" lon="6.52664">
        <ele>2356</ele>
        <time>2017-08-29T09:03:14Z</time>
      </trkpt>
      <trkpt lat="45.92237" lon="6.52666">
        <ele>2355</ele>
        <time>2017-08-29T09:03:15Z</time>
      </trkpt>
      <trkpt lat="45.92237" lon="6.52666">
        <ele>2355</ele>
        <time>2017-08-29T09:03:16Z</time>
      </trkpt>
      <trkpt lat="45.92237" lon="6.52666">
        <ele>2355</ele>
        <time>2017-08-29T09:03:17Z</time>
      </trkpt>
      <trkpt lat="45.92237" lon="6.52666">
        <ele>2355</ele>
        <time>2017-08-29T09:03:18Z</time>
      </trkpt>
      <trkpt lat="45.92237" lon="6.52666">
        <ele>2355</ele>
        <time>2017-08-29T09:03:19Z</time>
      </trkpt>
      <trkpt lat="45.92237" lon="6.52666">
        <ele>2355</ele>
        <time>2017-08-29T09:03:20Z</time>
      </trkpt>
      <trkpt lat="45.92237" lon="6.52666">
        <ele>2355</ele>
        <time>2017-08-29T09:03:21Z</time>
      </trkpt>
      <trkpt lat="45.92237" lon="6.52666">
        <ele>2355</ele>
        <time>2017-08-29T09:03:22Z</time>
      </trkpt>
      <trkpt lat="45.92237" lon="6.52669">
        <ele>2356</ele>
        <time>2017-08-29T09:03:23Z</time>
      </trkpt>
      <trkpt lat="45.92237" lon="6.52669">
        <ele>2356</ele>
        <time>2017-08-29T09:03:24Z</time>
      </trkpt>
      <trkpt lat="45.92237" lon="6.52669">
        <ele>2356</ele>
        <time>2017-08-29T09:03:25Z</time>
      </trkpt>
      <trkpt lat="45.92237" lon="6.52669">
        <ele>2356</ele>
        <time>2017-08-29T09:03:26Z</time>
      </trkpt>
      <trkpt lat="45.92237" lon="6.52669">
        <ele>2356</ele>
        <time>2017-08-29T09:03:27Z</time>
      </trkpt>
      <trkpt lat="45.92237" lon="6.52669">
        <ele>2356</ele>
        <time>2017-08-29T09:03:28Z</time>
      </trkpt>
      <trkpt lat="45.92237" lon="6.52669">
        <ele>2357</ele>
        <time>2017-08-29T09:03:29Z</time>
      </trkpt>
      <trkpt lat="45.92237" lon="6.52672">
        <ele>2358</ele>
        <time>2017-08-29T09:03:30Z</time>
      </trkpt>
      <trkpt lat="45.92237" lon="6.52672">
        <ele>2358</ele>
        <time>2017-08-29T09:03:31Z</time>
      </trkpt>
      <trkpt lat="45.92237" lon="6.52672">
        <ele>2358</ele>
        <time>2017-08-29T09:03:32Z</time>
      </trkpt>
      <trkpt lat="45.92237" lon="6.52672">
        <ele>2359</ele>
        <time>2017-08-29T09:03:33Z</time>
      </trkpt>
      <trkpt lat="45.92236" lon="6.52675">
        <ele>2359</ele>
        <time>2017-08-29T09:03:34Z</time>
      </trkpt>
      <trkpt lat="45.92236" lon="6.52675">
        <ele>2360</ele>
        <time>2017-08-29T09:03:35Z</time>
      </trkpt>
      <trkpt lat="45.92236" lon="6.52675">
        <ele>2360</ele>
        <time>2017-08-29T09:03:36Z</time>
      </trkpt>
      <trkpt lat="45.92236" lon="6.52675">
        <ele>2360</ele>
        <time>2017-08-29T09:03:37Z</time>
      </trkpt>
      <trkpt lat="45.92235" lon="6.52678">
        <ele>2360</ele>
        <time>2017-08-29T09:03:38Z</time>
      </trkpt>
      <trkpt lat="45.92235" lon="6.52678">
        <ele>2360</ele>
        <time>2017-08-29T09:03:39Z</time>
      </trkpt>
      <trkpt lat="45.92235" lon="6.52678">
        <ele>2361</ele>
        <time>2017-08-29T09:03:40Z</time>
      </trkpt>
      <trkpt lat="45.92235" lon="6.52678">
        <ele>2361</ele>
        <time>2017-08-29T09:03:41Z</time>
      </trkpt>
      <trkpt lat="45.92236" lon="6.52681">
        <ele>2361</ele>
        <time>2017-08-29T09:03:42Z</time>
      </trkpt>
      <trkpt lat="45.92236" lon="6.52681">
        <ele>2361</ele>
        <time>2017-08-29T09:03:43Z</time>
      </trkpt>
      <trkpt lat="45.92238" lon="6.52683">
        <ele>2361</ele>
        <time>2017-08-29T09:03:44Z</time>
      </trkpt>
      <trkpt lat="45.92238" lon="6.52683">
        <ele>2361</ele>
        <time>2017-08-29T09:03:45Z</time>
      </trkpt>
      <trkpt lat="45.92238" lon="6.52683">
        <ele>2361</ele>
        <time>2017-08-29T09:03:46Z</time>
      </trkpt>
      <trkpt lat="45.92238" lon="6.52686">
        <ele>2361</ele>
        <time>2017-08-29T09:03:47Z</time>
      </trkpt>
      <trkpt lat="45.92238" lon="6.52686">
        <ele>2362</ele>
        <time>2017-08-29T09:03:48Z</time>
      </trkpt>
      <trkpt lat="45.92238" lon="6.52686">
        <ele>2362</ele>
        <time>2017-08-29T09:03:49Z</time>
      </trkpt>
      <trkpt lat="45.92238" lon="6.52686">
        <ele>2363</ele>
        <time>2017-08-29T09:03:50Z</time>
      </trkpt>
      <trkpt lat="45.92239" lon="6.52689">
        <ele>2363</ele>
        <time>2017-08-29T09:03:51Z</time>
      </trkpt>
      <trkpt lat="45.92239" lon="6.52689">
        <ele>2363</ele>
        <time>2017-08-29T09:03:52Z</time>
      </trkpt>
      <trkpt lat="45.92239" lon="6.52689">
        <ele>2363</ele>
        <time>2017-08-29T09:03:53Z</time>
      </trkpt>
      <trkpt lat="45.9224" lon="6.5269">
        <ele>2364</ele>
        <time>2017-08-29T09:03:54Z</time>
      </trkpt>
      <trkpt lat="45.9224" lon="6.5269">
        <ele>2365</ele>
        <time>2017-08-29T09:03:55Z</time>
      </trkpt>
      <trkpt lat="45.92242" lon="6.52694">
        <ele>2365</ele>
        <time>2017-08-29T09:03:56Z</time>
      </trkpt>
      <trkpt lat="45.92242" lon="6.52694">
        <ele>2365</ele>
        <time>2017-08-29T09:03:57Z</time>
      </trkpt>
      <trkpt lat="45.92242" lon="6.52697">
        <ele>2364</ele>
        <time>2017-08-29T09:03:58Z</time>
      </trkpt>
      <trkpt lat="45.92242" lon="6.52697">
        <ele>2364</ele>
        <time>2017-08-29T09:03:59Z</time>
      </trkpt>
      <trkpt lat="45.92242" lon="6.52697">
        <ele>2364</ele>
        <time>2017-08-29T09:04:00Z</time>
      </trkpt>
      <trkpt lat="45.92242" lon="6.52701">
        <ele>2365</ele>
        <time>2017-08-29T09:04:01Z</time>
      </trkpt>
      <trkpt lat="45.92242" lon="6.52701">
        <ele>2365</ele>
        <time>2017-08-29T09:04:02Z</time>
      </trkpt>
      <trkpt lat="45.92242" lon="6.52701">
        <ele>2365</ele>
        <time>2017-08-29T09:04:03Z</time>
      </trkpt>
      <trkpt lat="45.92242" lon="6.52704">
        <ele>2365</ele>
        <time>2017-08-29T09:04:04Z</time>
      </trkpt>
      <trkpt lat="45.92242" lon="6.52704">
        <ele>2365</ele>
        <time>2017-08-29T09:04:05Z</time>
      </trkpt>
      <trkpt lat="45.92242" lon="6.52704">
        <ele>2366</ele>
        <time>2017-08-29T09:04:06Z</time>
      </trkpt>
      <trkpt lat="45.92243" lon="6.52708">
        <ele>2366</ele>
        <time>2017-08-29T09:04:07Z</time>
      </trkpt>
      <trkpt lat="45.92243" lon="6.52708">
        <ele>2366</ele>
        <time>2017-08-29T09:04:08Z</time>
      </trkpt>
      <trkpt lat="45.92243" lon="6.52708">
        <ele>2367</ele>
        <time>2017-08-29T09:04:09Z</time>
      </trkpt>
      <trkpt lat="45.92244" lon="6.52711">
        <ele>2367</ele>
        <time>2017-08-29T09:04:10Z</time>
      </trkpt>
      <trkpt lat="45.92244" lon="6.52711">
        <ele>2367</ele>
        <time>2017-08-29T09:04:11Z</time>
      </trkpt>
      <trkpt lat="45.92244" lon="6.52711">
        <ele>2368</ele>
        <time>2017-08-29T09:04:12Z</time>
      </trkpt>
      <trkpt lat="45.92244" lon="6.52711">
        <ele>2368</ele>
        <time>2017-08-29T09:04:13Z</time>
      </trkpt>
      <trkpt lat="45.92245" lon="6.52714">
        <ele>2369</ele>
        <time>2017-08-29T09:04:14Z</time>
      </trkpt>
      <trkpt lat="45.92245" lon="6.52714">
        <ele>2369</ele>
        <time>2017-08-29T09:04:15Z</time>
      </trkpt>
      <trkpt lat="45.92247" lon="6.52716">
        <ele>2369</ele>
        <time>2017-08-29T09:04:16Z</time>
      </trkpt>
      <trkpt lat="45.92247" lon="6.52716">
        <ele>2369</ele>
        <time>2017-08-29T09:04:17Z</time>
      </trkpt>
      <trkpt lat="45.92248" lon="6.52718">
        <ele>2369</ele>
        <time>2017-08-29T09:04:18Z</time>
      </trkpt>
      <trkpt lat="45.92248" lon="6.52718">
        <ele>2369</ele>
        <time>2017-08-29T09:04:19Z</time>
      </trkpt>
      <trkpt lat="45.9225" lon="6.52721">
        <ele>2369</ele>
        <time>2017-08-29T09:04:20Z</time>
      </trkpt>
      <trkpt lat="45.9225" lon="6.52721">
        <ele>2369</ele>
        <time>2017-08-29T09:04:21Z</time>
      </trkpt>
      <trkpt lat="45.9225" lon="6.52721">
        <ele>2369</ele>
        <time>2017-08-29T09:04:22Z</time>
      </trkpt>
      <trkpt lat="45.9225" lon="6.52721">
        <ele>2369</ele>
        <time>2017-08-29T09:04:23Z</time>
      </trkpt>
      <trkpt lat="45.9225" lon="6.52725">
        <ele>2369</ele>
        <time>2017-08-29T09:04:24Z</time>
      </trkpt>
      <trkpt lat="45.9225" lon="6.52725">
        <ele>2370</ele>
        <time>2017-08-29T09:04:25Z</time>
      </trkpt>
      <trkpt lat="45.9225" lon="6.52728">
        <ele>2370</ele>
        <time>2017-08-29T09:04:26Z</time>
      </trkpt>
      <trkpt lat="45.9225" lon="6.52728">
        <ele>2370</ele>
        <time>2017-08-29T09:04:27Z</time>
      </trkpt>
      <trkpt lat="45.9225" lon="6.52728">
        <ele>2370</ele>
        <time>2017-08-29T09:04:28Z</time>
      </trkpt>
      <trkpt lat="45.9225" lon="6.52728">
        <ele>2370</ele>
        <time>2017-08-29T09:04:29Z</time>
      </trkpt>
      <trkpt lat="45.9225" lon="6.52728">
        <ele>2370</ele>
        <time>2017-08-29T09:04:30Z</time>
      </trkpt>
      <trkpt lat="45.9225" lon="6.52728">
        <ele>2370</ele>
        <time>2017-08-29T09:04:31Z</time>
      </trkpt>
      <trkpt lat="45.9225" lon="6.52728">
        <ele>2371</ele>
        <time>2017-08-29T09:04:32Z</time>
      </trkpt>
      <trkpt lat="45.9225" lon="6.52728">
        <ele>2371</ele>
        <time>2017-08-29T09:04:33Z</time>
      </trkpt>
      <trkpt lat="45.9225" lon="6.52728">
        <ele>2371</ele>
        <time>2017-08-29T09:04:34Z</time>
      </trkpt>
      <trkpt lat="45.9225" lon="6.52728">
        <ele>2371</ele>
        <time>2017-08-29T09:04:35Z</time>
      </trkpt>
      <trkpt lat="45.9225" lon="6.52728">
        <ele>2371</ele>
        <time>2017-08-29T09:04:36Z</time>
      </trkpt>
      <trkpt lat="45.9225" lon="6.52728">
        <ele>2371</ele>
        <time>2017-08-29T09:04:37Z</time>
      </trkpt>
      <trkpt lat="45.9225" lon="6.52728">
        <ele>2371</ele>
        <time>2017-08-29T09:04:38Z</time>
      </trkpt>
      <trkpt lat="45.9225" lon="6.52728">
        <ele>2371</ele>
        <time>2017-08-29T09:04:39Z</time>
      </trkpt>
      <trkpt lat="45.9225" lon="6.52728">
        <ele>2371</ele>
        <time>2017-08-29T09:04:40Z</time>
      </trkpt>
      <trkpt lat="45.9225" lon="6.52728">
        <ele>2371</ele>
        <time>2017-08-29T09:04:41Z</time>
      </trkpt>
      <trkpt lat="45.9225" lon="6.52728">
        <ele>2371</ele>
        <time>2017-08-29T09:04:42Z</time>
      </trkpt>
      <trkpt lat="45.92252" lon="6.5273">
        <ele>2371</ele>
        <time>2017-08-29T09:04:43Z</time>
      </trkpt>
      <trkpt lat="45.92252" lon="6.5273">
        <ele>2371</ele>
        <time>2017-08-29T09:04:44Z</time>
      </trkpt>
      <trkpt lat="45.92254" lon="6.52731">
        <ele>2370</ele>
        <time>2017-08-29T09:04:45Z</time>
      </trkpt>
      <trkpt lat="45.92254" lon="6.52731">
        <ele>2370</ele>
        <time>2017-08-29T09:04:46Z</time>
      </trkpt>
      <trkpt lat="45.92256" lon="6.52732">
        <ele>2370</ele>
        <time>2017-08-29T09:04:47Z</time>
      </trkpt>
      <trkpt lat="45.92256" lon="6.52732">
        <ele>2370</ele>
        <time>2017-08-29T09:04:48Z</time>
      </trkpt>
      <trkpt lat="45.92258" lon="6.52735">
        <ele>2370</ele>
        <time>2017-08-29T09:04:49Z</time>
      </trkpt>
      <trkpt lat="45.92259" lon="6.52737">
        <ele>2369</ele>
        <time>2017-08-29T09:04:50Z</time>
      </trkpt>
      <trkpt lat="45.92261" lon="6.52738">
        <ele>2368</ele>
        <time>2017-08-29T09:04:51Z</time>
      </trkpt>
      <trkpt lat="45.92262" lon="6.5274">
        <ele>2368</ele>
        <time>2017-08-29T09:04:52Z</time>
      </trkpt>
      <trkpt lat="45.92262" lon="6.5274">
        <ele>2368</ele>
        <time>2017-08-29T09:04:53Z</time>
      </trkpt>
      <trkpt lat="45.92266" lon="6.52742">
        <ele>2368</ele>
        <time>2017-08-29T09:04:54Z</time>
      </trkpt>
      <trkpt lat="45.92268" lon="6.52743">
        <ele>2368</ele>
        <time>2017-08-29T09:04:55Z</time>
      </trkpt>
      <trkpt lat="45.92268" lon="6.52743">
        <ele>2368</ele>
        <time>2017-08-29T09:04:56Z</time>
      </trkpt>
      <trkpt lat="45.9227" lon="6.52745">
        <ele>2368</ele>
        <time>2017-08-29T09:04:57Z</time>
      </trkpt>
      <trkpt lat="45.9227" lon="6.52745">
        <ele>2368</ele>
        <time>2017-08-29T09:04:58Z</time>
      </trkpt>
      <trkpt lat="45.92272" lon="6.52747">
        <ele>2368</ele>
        <time>2017-08-29T09:04:59Z</time>
      </trkpt>
      <trkpt lat="45.92272" lon="6.52747">
        <ele>2368</ele>
        <time>2017-08-29T09:05:00Z</time>
      </trkpt>
      <trkpt lat="45.92275" lon="6.52749">
        <ele>2368</ele>
        <time>2017-08-29T09:05:01Z</time>
      </trkpt>
      <trkpt lat="45.92275" lon="6.52749">
        <ele>2368</ele>
        <time>2017-08-29T09:05:02Z</time>
      </trkpt>
      <trkpt lat="45.92277" lon="6.5275">
        <ele>2368</ele>
        <time>2017-08-29T09:05:03Z</time>
      </trkpt>
      <trkpt lat="45.92277" lon="6.5275">
        <ele>2369</ele>
        <time>2017-08-29T09:05:04Z</time>
      </trkpt>
      <trkpt lat="45.92279" lon="6.52752">
        <ele>2369</ele>
        <time>2017-08-29T09:05:05Z</time>
      </trkpt>
      <trkpt lat="45.92279" lon="6.52752">
        <ele>2369</ele>
        <time>2017-08-29T09:05:06Z</time>
      </trkpt>
      <trkpt lat="45.92279" lon="6.52752">
        <ele>2369</ele>
        <time>2017-08-29T09:05:07Z</time>
      </trkpt>
      <trkpt lat="45.92281" lon="6.52754">
        <ele>2370</ele>
        <time>2017-08-29T09:05:08Z</time>
      </trkpt>
      <trkpt lat="45.92281" lon="6.52754">
        <ele>2370</ele>
        <time>2017-08-29T09:05:09Z</time>
      </trkpt>
      <trkpt lat="45.92282" lon="6.52756">
        <ele>2370</ele>
        <time>2017-08-29T09:05:10Z</time>
      </trkpt>
      <trkpt lat="45.92282" lon="6.52756">
        <ele>2370</ele>
        <time>2017-08-29T09:05:11Z</time>
      </trkpt>
      <trkpt lat="45.92284" lon="6.52758">
        <ele>2370</ele>
        <time>2017-08-29T09:05:12Z</time>
      </trkpt>
      <trkpt lat="45.92284" lon="6.52758">
        <ele>2371</ele>
        <time>2017-08-29T09:05:13Z</time>
      </trkpt>
      <trkpt lat="45.92285" lon="6.5276">
        <ele>2371</ele>
        <time>2017-08-29T09:05:14Z</time>
      </trkpt>
      <trkpt lat="45.92285" lon="6.5276">
        <ele>2371</ele>
        <time>2017-08-29T09:05:15Z</time>
      </trkpt>
      <trkpt lat="45.92286" lon="6.52762">
        <ele>2371</ele>
        <time>2017-08-29T09:05:16Z</time>
      </trkpt>
      <trkpt lat="45.92286" lon="6.52762">
        <ele>2372</ele>
        <time>2017-08-29T09:05:17Z</time>
      </trkpt>
      <trkpt lat="45.92286" lon="6.52762">
        <ele>2372</ele>
        <time>2017-08-29T09:05:18Z</time>
      </trkpt>
      <trkpt lat="45.92288" lon="6.52765">
        <ele>2372</ele>
        <time>2017-08-29T09:05:19Z</time>
      </trkpt>
      <trkpt lat="45.92288" lon="6.52765">
        <ele>2372</ele>
        <time>2017-08-29T09:05:20Z</time>
      </trkpt>
      <trkpt lat="45.92288" lon="6.52765">
        <ele>2373</ele>
        <time>2017-08-29T09:05:21Z</time>
      </trkpt>
      <trkpt lat="45.92289" lon="6.52768">
        <ele>2373</ele>
        <time>2017-08-29T09:05:22Z</time>
      </trkpt>
      <trkpt lat="45.92289" lon="6.52768">
        <ele>2374</ele>
        <time>2017-08-29T09:05:23Z</time>
      </trkpt>
      <trkpt lat="45.92289" lon="6.52768">
        <ele>2374</ele>
        <time>2017-08-29T09:05:24Z</time>
      </trkpt>
      <trkpt lat="45.9229" lon="6.52772">
        <ele>2374</ele>
        <time>2017-08-29T09:05:25Z</time>
      </trkpt>
      <trkpt lat="45.9229" lon="6.52772">
        <ele>2374</ele>
        <time>2017-08-29T09:05:26Z</time>
      </trkpt>
      <trkpt lat="45.92291" lon="6.52774">
        <ele>2374</ele>
        <time>2017-08-29T09:05:27Z</time>
      </trkpt>
      <trkpt lat="45.92291" lon="6.52774">
        <ele>2374</ele>
        <time>2017-08-29T09:05:28Z</time>
      </trkpt>
      <trkpt lat="45.92291" lon="6.52774">
        <ele>2375</ele>
        <time>2017-08-29T09:05:29Z</time>
      </trkpt>
      <trkpt lat="45.92291" lon="6.52778">
        <ele>2375</ele>
        <time>2017-08-29T09:05:30Z</time>
      </trkpt>
      <trkpt lat="45.92291" lon="6.52778">
        <ele>2375</ele>
        <time>2017-08-29T09:05:31Z</time>
      </trkpt>
      <trkpt lat="45.92291" lon="6.52778">
        <ele>2375</ele>
        <time>2017-08-29T09:05:32Z</time>
      </trkpt>
      <trkpt lat="45.9229" lon="6.5278">
        <ele>2375</ele>
        <time>2017-08-29T09:05:33Z</time>
      </trkpt>
      <trkpt lat="45.9229" lon="6.5278">
        <ele>2376</ele>
        <time>2017-08-29T09:05:34Z</time>
      </trkpt>
      <trkpt lat="45.92287" lon="6.5278">
        <ele>2376</ele>
        <time>2017-08-29T09:05:35Z</time>
      </trkpt>
      <trkpt lat="45.92287" lon="6.5278">
        <ele>2376</ele>
        <time>2017-08-29T09:05:36Z</time>
      </trkpt>
      <trkpt lat="45.92285" lon="6.5278">
        <ele>2376</ele>
        <time>2017-08-29T09:05:37Z</time>
      </trkpt>
      <trkpt lat="45.92285" lon="6.5278">
        <ele>2376</ele>
        <time>2017-08-29T09:05:38Z</time>
      </trkpt>
      <trkpt lat="45.92284" lon="6.52783">
        <ele>2376</ele>
        <time>2017-08-29T09:05:39Z</time>
      </trkpt>
      <trkpt lat="45.92284" lon="6.52783">
        <ele>2376</ele>
        <time>2017-08-29T09:05:40Z</time>
      </trkpt>
      <trkpt lat="45.92284" lon="6.52783">
        <ele>2376</ele>
        <time>2017-08-29T09:05:41Z</time>
      </trkpt>
      <trkpt lat="45.92285" lon="6.52786">
        <ele>2376</ele>
        <time>2017-08-29T09:05:42Z</time>
      </trkpt>
      <trkpt lat="45.92285" lon="6.52786">
        <ele>2376</ele>
        <time>2017-08-29T09:05:43Z</time>
      </trkpt>
      <trkpt lat="45.92286" lon="6.52788">
        <ele>2378</ele>
        <time>2017-08-29T09:05:44Z</time>
      </trkpt>
      <trkpt lat="45.92286" lon="6.52788">
        <ele>2378</ele>
        <time>2017-08-29T09:05:45Z</time>
      </trkpt>
      <trkpt lat="45.92286" lon="6.52791">
        <ele>2378</ele>
        <time>2017-08-29T09:05:46Z</time>
      </trkpt>
      <trkpt lat="45.92286" lon="6.52791">
        <ele>2378</ele>
        <time>2017-08-29T09:05:47Z</time>
      </trkpt>
      <trkpt lat="45.92287" lon="6.52793">
        <ele>2379</ele>
        <time>2017-08-29T09:05:48Z</time>
      </trkpt>
      <trkpt lat="45.92287" lon="6.52793">
        <ele>2379</ele>
        <time>2017-08-29T09:05:49Z</time>
      </trkpt>
      <trkpt lat="45.92288" lon="6.52796">
        <ele>2379</ele>
        <time>2017-08-29T09:05:50Z</time>
      </trkpt>
      <trkpt lat="45.92288" lon="6.52796">
        <ele>2380</ele>
        <time>2017-08-29T09:05:51Z</time>
      </trkpt>
      <trkpt lat="45.92289" lon="6.52798">
        <ele>2380</ele>
        <time>2017-08-29T09:05:52Z</time>
      </trkpt>
      <trkpt lat="45.92289" lon="6.52798">
        <ele>2380</ele>
        <time>2017-08-29T09:05:53Z</time>
      </trkpt>
      <trkpt lat="45.92291" lon="6.528">
        <ele>2380</ele>
        <time>2017-08-29T09:05:54Z</time>
      </trkpt>
      <trkpt lat="45.92291" lon="6.528">
        <ele>2380</ele>
        <time>2017-08-29T09:05:55Z</time>
      </trkpt>
      <trkpt lat="45.92293" lon="6.52803">
        <ele>2381</ele>
        <time>2017-08-29T09:05:56Z</time>
      </trkpt>
      <trkpt lat="45.92293" lon="6.52803">
        <ele>2381</ele>
        <time>2017-08-29T09:05:57Z</time>
      </trkpt>
      <trkpt lat="45.92293" lon="6.52803">
        <ele>2381</ele>
        <time>2017-08-29T09:05:58Z</time>
      </trkpt>
      <trkpt lat="45.92294" lon="6.52806">
        <ele>2381</ele>
        <time>2017-08-29T09:05:59Z</time>
      </trkpt>
      <trkpt lat="45.92294" lon="6.52806">
        <ele>2382</ele>
        <time>2017-08-29T09:06:00Z</time>
      </trkpt>
      <trkpt lat="45.92294" lon="6.52806">
        <ele>2382</ele>
        <time>2017-08-29T09:06:01Z</time>
      </trkpt>
      <trkpt lat="45.92294" lon="6.52806">
        <ele>2383</ele>
        <time>2017-08-29T09:06:02Z</time>
      </trkpt>
      <trkpt lat="45.92295" lon="6.52808">
        <ele>2383</ele>
        <time>2017-08-29T09:06:03Z</time>
      </trkpt>
      <trkpt lat="45.92295" lon="6.52808">
        <ele>2383</ele>
        <time>2017-08-29T09:06:04Z</time>
      </trkpt>
      <trkpt lat="45.92295" lon="6.52808">
        <ele>2384</ele>
        <time>2017-08-29T09:06:05Z</time>
      </trkpt>
      <trkpt lat="45.92294" lon="6.52811">
        <ele>2384</ele>
        <time>2017-08-29T09:06:06Z</time>
      </trkpt>
      <trkpt lat="45.92294" lon="6.52811">
        <ele>2384</ele>
        <time>2017-08-29T09:06:07Z</time>
      </trkpt>
      <trkpt lat="45.92294" lon="6.52811">
        <ele>2385</ele>
        <time>2017-08-29T09:06:08Z</time>
      </trkpt>
      <trkpt lat="45.92294" lon="6.52811">
        <ele>2385</ele>
        <time>2017-08-29T09:06:09Z</time>
      </trkpt>
      <trkpt lat="45.92293" lon="6.52813">
        <ele>2385</ele>
        <time>2017-08-29T09:06:10Z</time>
      </trkpt>
      <trkpt lat="45.92293" lon="6.52813">
        <ele>2386</ele>
        <time>2017-08-29T09:06:11Z</time>
      </trkpt>
      <trkpt lat="45.92293" lon="6.52813">
        <ele>2386</ele>
        <time>2017-08-29T09:06:12Z</time>
      </trkpt>
      <trkpt lat="45.92292" lon="6.52816">
        <ele>2386</ele>
        <time>2017-08-29T09:06:13Z</time>
      </trkpt>
      <trkpt lat="45.92292" lon="6.52816">
        <ele>2386</ele>
        <time>2017-08-29T09:06:14Z</time>
      </trkpt>
      <trkpt lat="45.92292" lon="6.52816">
        <ele>2386</ele>
        <time>2017-08-29T09:06:15Z</time>
      </trkpt>
      <trkpt lat="45.92292" lon="6.52816">
        <ele>2386</ele>
        <time>2017-08-29T09:06:16Z</time>
      </trkpt>
      <trkpt lat="45.92291" lon="6.52818">
        <ele>2386</ele>
        <time>2017-08-29T09:06:17Z</time>
      </trkpt>
      <trkpt lat="45.92291" lon="6.52818">
        <ele>2387</ele>
        <time>2017-08-29T09:06:18Z</time>
      </trkpt>
      <trkpt lat="45.92291" lon="6.52818">
        <ele>2387</ele>
        <time>2017-08-29T09:06:19Z</time>
      </trkpt>
      <trkpt lat="45.92291" lon="6.52818">
        <ele>2387</ele>
        <time>2017-08-29T09:06:20Z</time>
      </trkpt>
      <trkpt lat="45.92291" lon="6.52818">
        <ele>2388</ele>
        <time>2017-08-29T09:06:21Z</time>
      </trkpt>
      <trkpt lat="45.92289" lon="6.52819">
        <ele>2388</ele>
        <time>2017-08-29T09:06:22Z</time>
      </trkpt>
      <trkpt lat="45.92289" lon="6.52819">
        <ele>2388</ele>
        <time>2017-08-29T09:06:23Z</time>
      </trkpt>
      <trkpt lat="45.92289" lon="6.52819">
        <ele>2388</ele>
        <time>2017-08-29T09:06:24Z</time>
      </trkpt>
      <trkpt lat="45.92289" lon="6.52819">
        <ele>2388</ele>
        <time>2017-08-29T09:06:25Z</time>
      </trkpt>
      <trkpt lat="45.92289" lon="6.52819">
        <ele>2388</ele>
        <time>2017-08-29T09:06:26Z</time>
      </trkpt>
      <trkpt lat="45.92289" lon="6.52819">
        <ele>2388</ele>
        <time>2017-08-29T09:06:27Z</time>
      </trkpt>
      <trkpt lat="45.92289" lon="6.52819">
        <ele>2388</ele>
        <time>2017-08-29T09:06:28Z</time>
      </trkpt>
      <trkpt lat="45.92289" lon="6.52819">
        <ele>2388</ele>
        <time>2017-08-29T09:06:29Z</time>
      </trkpt>
      <trkpt lat="45.92289" lon="6.52819">
        <ele>2389</ele>
        <time>2017-08-29T09:06:30Z</time>
      </trkpt>
      <trkpt lat="45.92289" lon="6.52819">
        <ele>2389</ele>
        <time>2017-08-29T09:06:31Z</time>
      </trkpt>
      <trkpt lat="45.92289" lon="6.52819">
        <ele>2389</ele>
        <time>2017-08-29T09:06:32Z</time>
      </trkpt>
      <trkpt lat="45.92289" lon="6.52819">
        <ele>2389</ele>
        <time>2017-08-29T09:06:33Z</time>
      </trkpt>
      <trkpt lat="45.92289" lon="6.52819">
        <ele>2389</ele>
        <time>2017-08-29T09:06:34Z</time>
      </trkpt>
      <trkpt lat="45.92289" lon="6.52819">
        <ele>2389</ele>
        <time>2017-08-29T09:06:35Z</time>
      </trkpt>
      <trkpt lat="45.92289" lon="6.52819">
        <ele>2389</ele>
        <time>2017-08-29T09:06:36Z</time>
      </trkpt>
      <trkpt lat="45.92289" lon="6.52819">
        <ele>2389</ele>
        <time>2017-08-29T09:06:37Z</time>
      </trkpt>
      <trkpt lat="45.92289" lon="6.52819">
        <ele>2389</ele>
        <time>2017-08-29T09:06:38Z</time>
      </trkpt>
      <trkpt lat="45.92289" lon="6.52819">
        <ele>2389</ele>
        <time>2017-08-29T09:06:39Z</time>
      </trkpt>
      <trkpt lat="45.92289" lon="6.52819">
        <ele>2389</ele>
        <time>2017-08-29T09:06:40Z</time>
      </trkpt>
      <trkpt lat="45.92289" lon="6.52819">
        <ele>2389</ele>
        <time>2017-08-29T09:06:41Z</time>
      </trkpt>
      <trkpt lat="45.92289" lon="6.52819">
        <ele>2389</ele>
        <time>2017-08-29T09:06:42Z</time>
      </trkpt>
      <trkpt lat="45.92289" lon="6.52819">
        <ele>2389</ele>
        <time>2017-08-29T09:06:43Z</time>
      </trkpt>
      <trkpt lat="45.92289" lon="6.52819">
        <ele>2389</ele>
        <time>2017-08-29T09:06:44Z</time>
      </trkpt>
      <trkpt lat="45.92289" lon="6.52819">
        <ele>2389</ele>
        <time>2017-08-29T09:06:45Z</time>
      </trkpt>
      <trkpt lat="45.92289" lon="6.52819">
        <ele>2389</ele>
        <time>2017-08-29T09:06:46Z</time>
      </trkpt>
      <trkpt lat="45.92289" lon="6.52819">
        <ele>2389</ele>
        <time>2017-08-29T09:06:47Z</time>
      </trkpt>
      <trkpt lat="45.92289" lon="6.52819">
        <ele>2389</ele>
        <time>2017-08-29T09:06:48Z</time>
      </trkpt>
      <trkpt lat="45.92289" lon="6.52819">
        <ele>2389</ele>
        <time>2017-08-29T09:06:49Z</time>
      </trkpt>
      <trkpt lat="45.92289" lon="6.52819">
        <ele>2389</ele>
        <time>2017-08-29T09:06:50Z</time>
      </trkpt>
      <trkpt lat="45.92289" lon="6.52819">
        <ele>2389</ele>
        <time>2017-08-29T09:06:51Z</time>
      </trkpt>
      <trkpt lat="45.92289" lon="6.52819">
        <ele>2389</ele>
        <time>2017-08-29T09:06:52Z</time>
      </trkpt>
      <trkpt lat="45.92289" lon="6.52819">
        <ele>2389</ele>
        <time>2017-08-29T09:06:53Z</time>
      </trkpt>
      <trkpt lat="45.92289" lon="6.52819">
        <ele>2389</ele>
        <time>2017-08-29T09:06:54Z</time>
      </trkpt>
      <trkpt lat="45.92289" lon="6.52819">
        <ele>2389</ele>
        <time>2017-08-29T09:06:55Z</time>
      </trkpt>
      <trkpt lat="45.92289" lon="6.52819">
        <ele>2389</ele>
        <time>2017-08-29T09:06:56Z</time>
      </trkpt>
      <trkpt lat="45.92289" lon="6.52819">
        <ele>2389</ele>
        <time>2017-08-29T09:06:57Z</time>
      </trkpt>
      <trkpt lat="45.92289" lon="6.52819">
        <ele>2389</ele>
        <time>2017-08-29T09:06:58Z</time>
      </trkpt>
      <trkpt lat="45.92289" lon="6.52819">
        <ele>2389</ele>
        <time>2017-08-29T09:06:59Z</time>
      </trkpt>
      <trkpt lat="45.9229" lon="6.52821">
        <ele>2389</ele>
        <time>2017-08-29T09:07:00Z</time>
      </trkpt>
      <trkpt lat="45.9229" lon="6.52821">
        <ele>2389</ele>
        <time>2017-08-29T09:07:01Z</time>
      </trkpt>
      <trkpt lat="45.9229" lon="6.52821">
        <ele>2389</ele>
        <time>2017-08-29T09:07:02Z</time>
      </trkpt>
      <trkpt lat="45.92292" lon="6.52823">
        <ele>2389</ele>
        <time>2017-08-29T09:07:03Z</time>
      </trkpt>
      <trkpt lat="45.92292" lon="6.52823">
        <ele>2389</ele>
        <time>2017-08-29T09:07:04Z</time>
      </trkpt>
      <trkpt lat="45.92292" lon="6.52823">
        <ele>2389</ele>
        <time>2017-08-29T09:07:05Z</time>
      </trkpt>
      <trkpt lat="45.92294" lon="6.52825">
        <ele>2389</ele>
        <time>2017-08-29T09:07:06Z</time>
      </trkpt>
      <trkpt lat="45.92294" lon="6.52825">
        <ele>2390</ele>
        <time>2017-08-29T09:07:07Z</time>
      </trkpt>
      <trkpt lat="45.92294" lon="6.52825">
        <ele>2390</ele>
        <time>2017-08-29T09:07:08Z</time>
      </trkpt>
      <trkpt lat="45.92295" lon="6.52828">
        <ele>2390</ele>
        <time>2017-08-29T09:07:09Z</time>
      </trkpt>
      <trkpt lat="45.92295" lon="6.52828">
        <ele>2391</ele>
        <time>2017-08-29T09:07:10Z</time>
      </trkpt>
      <trkpt lat="45.92295" lon="6.52828">
        <ele>2391</ele>
        <time>2017-08-29T09:07:11Z</time>
      </trkpt>
      <trkpt lat="45.92295" lon="6.52828">
        <ele>2392</ele>
        <time>2017-08-29T09:07:12Z</time>
      </trkpt>
      <trkpt lat="45.92297" lon="6.5283">
        <ele>2392</ele>
        <time>2017-08-29T09:07:13Z</time>
      </trkpt>
      <trkpt lat="45.92297" lon="6.5283">
        <ele>2392</ele>
        <time>2017-08-29T09:07:14Z</time>
      </trkpt>
      <trkpt lat="45.92297" lon="6.5283">
        <ele>2392</ele>
        <time>2017-08-29T09:07:15Z</time>
      </trkpt>
      <trkpt lat="45.92298" lon="6.52832">
        <ele>2392</ele>
        <time>2017-08-29T09:07:16Z</time>
      </trkpt>
      <trkpt lat="45.92298" lon="6.52832">
        <ele>2392</ele>
        <time>2017-08-29T09:07:17Z</time>
      </trkpt>
      <trkpt lat="45.92298" lon="6.52832">
        <ele>2392</ele>
        <time>2017-08-29T09:07:18Z</time>
      </trkpt>
      <trkpt lat="45.923" lon="6.52835">
        <ele>2392</ele>
        <time>2017-08-29T09:07:19Z</time>
      </trkpt>
      <trkpt lat="45.923" lon="6.52835">
        <ele>2392</ele>
        <time>2017-08-29T09:07:20Z</time>
      </trkpt>
      <trkpt lat="45.923" lon="6.52835">
        <ele>2392</ele>
        <time>2017-08-29T09:07:21Z</time>
      </trkpt>
      <trkpt lat="45.92301" lon="6.52837">
        <ele>2392</ele>
        <time>2017-08-29T09:07:22Z</time>
      </trkpt>
      <trkpt lat="45.92301" lon="6.52837">
        <ele>2393</ele>
        <time>2017-08-29T09:07:23Z</time>
      </trkpt>
      <trkpt lat="45.92303" lon="6.52839">
        <ele>2393</ele>
        <time>2017-08-29T09:07:24Z</time>
      </trkpt>
      <trkpt lat="45.92303" lon="6.52839">
        <ele>2393</ele>
        <time>2017-08-29T09:07:25Z</time>
      </trkpt>
      <trkpt lat="45.92304" lon="6.52842">
        <ele>2394</ele>
        <time>2017-08-29T09:07:26Z</time>
      </trkpt>
      <trkpt lat="45.92304" lon="6.52842">
        <ele>2394</ele>
        <time>2017-08-29T09:07:27Z</time>
      </trkpt>
      <trkpt lat="45.92304" lon="6.52845">
        <ele>2395</ele>
        <time>2017-08-29T09:07:28Z</time>
      </trkpt>
      <trkpt lat="45.92304" lon="6.52845">
        <ele>2395</ele>
        <time>2017-08-29T09:07:29Z</time>
      </trkpt>
      <trkpt lat="45.92306" lon="6.52847">
        <ele>2395</ele>
        <time>2017-08-29T09:07:30Z</time>
      </trkpt>
      <trkpt lat="45.92306" lon="6.52847">
        <ele>2395</ele>
        <time>2017-08-29T09:07:31Z</time>
      </trkpt>
      <trkpt lat="45.92306" lon="6.52847">
        <ele>2395</ele>
        <time>2017-08-29T09:07:32Z</time>
      </trkpt>
      <trkpt lat="45.92308" lon="6.52849">
        <ele>2396</ele>
        <time>2017-08-29T09:07:33Z</time>
      </trkpt>
      <trkpt lat="45.92308" lon="6.52849">
        <ele>2396</ele>
        <time>2017-08-29T09:07:34Z</time>
      </trkpt>
      <trkpt lat="45.92309" lon="6.52851">
        <ele>2396</ele>
        <time>2017-08-29T09:07:35Z</time>
      </trkpt>
      <trkpt lat="45.92309" lon="6.52851">
        <ele>2397</ele>
        <time>2017-08-29T09:07:36Z</time>
      </trkpt>
      <trkpt lat="45.9231" lon="6.52853">
        <ele>2397</ele>
        <time>2017-08-29T09:07:37Z</time>
      </trkpt>
      <trkpt lat="45.9231" lon="6.52853">
        <ele>2399</ele>
        <time>2017-08-29T09:07:38Z</time>
      </trkpt>
      <trkpt lat="45.92311" lon="6.52855">
        <ele>2399</ele>
        <time>2017-08-29T09:07:39Z</time>
      </trkpt>
      <trkpt lat="45.92311" lon="6.52855">
        <ele>2400</ele>
        <time>2017-08-29T09:07:40Z</time>
      </trkpt>
      <trkpt lat="45.92311" lon="6.52855">
        <ele>2400</ele>
        <time>2017-08-29T09:07:41Z</time>
      </trkpt>
      <trkpt lat="45.92312" lon="6.52858">
        <ele>2400</ele>
        <time>2017-08-29T09:07:42Z</time>
      </trkpt>
      <trkpt lat="45.92312" lon="6.52858">
        <ele>2400</ele>
        <time>2017-08-29T09:07:43Z</time>
      </trkpt>
      <trkpt lat="45.92312" lon="6.52858">
        <ele>2400</ele>
        <time>2017-08-29T09:07:44Z</time>
      </trkpt>
      <trkpt lat="45.92312" lon="6.52858">
        <ele>2400</ele>
        <time>2017-08-29T09:07:45Z</time>
      </trkpt>
      <trkpt lat="45.92313" lon="6.52861">
        <ele>2400</ele>
        <time>2017-08-29T09:07:46Z</time>
      </trkpt>
      <trkpt lat="45.92313" lon="6.52861">
        <ele>2401</ele>
        <time>2017-08-29T09:07:47Z</time>
      </trkpt>
      <trkpt lat="45.92313" lon="6.52861">
        <ele>2401</ele>
        <time>2017-08-29T09:07:48Z</time>
      </trkpt>
      <trkpt lat="45.92314" lon="6.52864">
        <ele>2401</ele>
        <time>2017-08-29T09:07:49Z</time>
      </trkpt>
      <trkpt lat="45.92314" lon="6.52864">
        <ele>2401</ele>
        <time>2017-08-29T09:07:50Z</time>
      </trkpt>
      <trkpt lat="45.92314" lon="6.52864">
        <ele>2402</ele>
        <time>2017-08-29T09:07:51Z</time>
      </trkpt>
      <trkpt lat="45.92315" lon="6.52867">
        <ele>2402</ele>
        <time>2017-08-29T09:07:52Z</time>
      </trkpt>
      <trkpt lat="45.92315" lon="6.52867">
        <ele>2402</ele>
        <time>2017-08-29T09:07:53Z</time>
      </trkpt>
      <trkpt lat="45.92315" lon="6.52867">
        <ele>2402</ele>
        <time>2017-08-29T09:07:54Z</time>
      </trkpt>
      <trkpt lat="45.92316" lon="6.5287">
        <ele>2402</ele>
        <time>2017-08-29T09:07:55Z</time>
      </trkpt>
      <trkpt lat="45.92316" lon="6.5287">
        <ele>2402</ele>
        <time>2017-08-29T09:07:56Z</time>
      </trkpt>
      <trkpt lat="45.92316" lon="6.5287">
        <ele>2403</ele>
        <time>2017-08-29T09:07:57Z</time>
      </trkpt>
      <trkpt lat="45.92317" lon="6.52873">
        <ele>2403</ele>
        <time>2017-08-29T09:07:58Z</time>
      </trkpt>
      <trkpt lat="45.92317" lon="6.52873">
        <ele>2403</ele>
        <time>2017-08-29T09:07:59Z</time>
      </trkpt>
      <trkpt lat="45.92317" lon="6.52873">
        <ele>2404</ele>
        <time>2017-08-29T09:08:00Z</time>
      </trkpt>
      <trkpt lat="45.92317" lon="6.52873">
        <ele>2405</ele>
        <time>2017-08-29T09:08:01Z</time>
      </trkpt>
      <trkpt lat="45.92317" lon="6.52873">
        <ele>2405</ele>
        <time>2017-08-29T09:08:02Z</time>
      </trkpt>
      <trkpt lat="45.92316" lon="6.52875">
        <ele>2405</ele>
        <time>2017-08-29T09:08:03Z</time>
      </trkpt>
      <trkpt lat="45.92316" lon="6.52875">
        <ele>2405</ele>
        <time>2017-08-29T09:08:04Z</time>
      </trkpt>
      <trkpt lat="45.92316" lon="6.52875">
        <ele>2405</ele>
        <time>2017-08-29T09:08:05Z</time>
      </trkpt>
      <trkpt lat="45.92317" lon="6.52878">
        <ele>2406</ele>
        <time>2017-08-29T09:08:06Z</time>
      </trkpt>
      <trkpt lat="45.92317" lon="6.52878">
        <ele>2406</ele>
        <time>2017-08-29T09:08:07Z</time>
      </trkpt>
      <trkpt lat="45.92318" lon="6.5288">
        <ele>2407</ele>
        <time>2017-08-29T09:08:08Z</time>
      </trkpt>
      <trkpt lat="45.92318" lon="6.5288">
        <ele>2407</ele>
        <time>2017-08-29T09:08:09Z</time>
      </trkpt>
      <trkpt lat="45.92319" lon="6.52882">
        <ele>2407</ele>
        <time>2017-08-29T09:08:10Z</time>
      </trkpt>
      <trkpt lat="45.92319" lon="6.52882">
        <ele>2407</ele>
        <time>2017-08-29T09:08:11Z</time>
      </trkpt>
      <trkpt lat="45.9232" lon="6.52885">
        <ele>2407</ele>
        <time>2017-08-29T09:08:12Z</time>
      </trkpt>
      <trkpt lat="45.9232" lon="6.52885">
        <ele>2407</ele>
        <time>2017-08-29T09:08:13Z</time>
      </trkpt>
      <trkpt lat="45.92321" lon="6.52887">
        <ele>2407</ele>
        <time>2017-08-29T09:08:14Z</time>
      </trkpt>
      <trkpt lat="45.92321" lon="6.52887">
        <ele>2407</ele>
        <time>2017-08-29T09:08:15Z</time>
      </trkpt>
      <trkpt lat="45.92322" lon="6.52889">
        <ele>2408</ele>
        <time>2017-08-29T09:08:16Z</time>
      </trkpt>
      <trkpt lat="45.92322" lon="6.52889">
        <ele>2408</ele>
        <time>2017-08-29T09:08:17Z</time>
      </trkpt>
      <trkpt lat="45.92324" lon="6.52892">
        <ele>2408</ele>
        <time>2017-08-29T09:08:18Z</time>
      </trkpt>
      <trkpt lat="45.92324" lon="6.52892">
        <ele>2408</ele>
        <time>2017-08-29T09:08:19Z</time>
      </trkpt>
      <trkpt lat="45.92324" lon="6.52895">
        <ele>2408</ele>
        <time>2017-08-29T09:08:20Z</time>
      </trkpt>
      <trkpt lat="45.92324" lon="6.52895">
        <ele>2409</ele>
        <time>2017-08-29T09:08:21Z</time>
      </trkpt>
      <trkpt lat="45.92324" lon="6.52895">
        <ele>2410</ele>
        <time>2017-08-29T09:08:22Z</time>
      </trkpt>
      <trkpt lat="45.92326" lon="6.52897">
        <ele>2410</ele>
        <time>2017-08-29T09:08:23Z</time>
      </trkpt>
      <trkpt lat="45.92326" lon="6.52897">
        <ele>2410</ele>
        <time>2017-08-29T09:08:24Z</time>
      </trkpt>
      <trkpt lat="45.92326" lon="6.52897">
        <ele>2410</ele>
        <time>2017-08-29T09:08:25Z</time>
      </trkpt>
      <trkpt lat="45.92328" lon="6.52901">
        <ele>2410</ele>
        <time>2017-08-29T09:08:26Z</time>
      </trkpt>
      <trkpt lat="45.92328" lon="6.52901">
        <ele>2410</ele>
        <time>2017-08-29T09:08:27Z</time>
      </trkpt>
      <trkpt lat="45.92328" lon="6.52901">
        <ele>2410</ele>
        <time>2017-08-29T09:08:28Z</time>
      </trkpt>
      <trkpt lat="45.92329" lon="6.52904">
        <ele>2411</ele>
        <time>2017-08-29T09:08:29Z</time>
      </trkpt>
      <trkpt lat="45.92329" lon="6.52904">
        <ele>2411</ele>
        <time>2017-08-29T09:08:30Z</time>
      </trkpt>
      <trkpt lat="45.92331" lon="6.52906">
        <ele>2411</ele>
        <time>2017-08-29T09:08:31Z</time>
      </trkpt>
      <trkpt lat="45.92331" lon="6.52906">
        <ele>2411</ele>
        <time>2017-08-29T09:08:32Z</time>
      </trkpt>
      <trkpt lat="45.92333" lon="6.52909">
        <ele>2411</ele>
        <time>2017-08-29T09:08:33Z</time>
      </trkpt>
      <trkpt lat="45.92333" lon="6.52909">
        <ele>2411</ele>
        <time>2017-08-29T09:08:34Z</time>
      </trkpt>
      <trkpt lat="45.92335" lon="6.52911">
        <ele>2411</ele>
        <time>2017-08-29T09:08:35Z</time>
      </trkpt>
      <trkpt lat="45.92335" lon="6.52911">
        <ele>2411</ele>
        <time>2017-08-29T09:08:36Z</time>
      </trkpt>
      <trkpt lat="45.92335" lon="6.52911">
        <ele>2412</ele>
        <time>2017-08-29T09:08:37Z</time>
      </trkpt>
      <trkpt lat="45.92337" lon="6.52914">
        <ele>2412</ele>
        <time>2017-08-29T09:08:38Z</time>
      </trkpt>
      <trkpt lat="45.92337" lon="6.52914">
        <ele>2412</ele>
        <time>2017-08-29T09:08:39Z</time>
      </trkpt>
      <trkpt lat="45.92337" lon="6.52914">
        <ele>2412</ele>
        <time>2017-08-29T09:08:40Z</time>
      </trkpt>
      <trkpt lat="45.92337" lon="6.52914">
        <ele>2412</ele>
        <time>2017-08-29T09:08:41Z</time>
      </trkpt>
      <trkpt lat="45.92337" lon="6.52914">
        <ele>2412</ele>
        <time>2017-08-29T09:08:42Z</time>
      </trkpt>
      <trkpt lat="45.92337" lon="6.52914">
        <ele>2412</ele>
        <time>2017-08-29T09:08:43Z</time>
      </trkpt>
      <trkpt lat="45.92337" lon="6.52914">
        <ele>2412</ele>
        <time>2017-08-29T09:08:44Z</time>
      </trkpt>
      <trkpt lat="45.92337" lon="6.52914">
        <ele>2412</ele>
        <time>2017-08-29T09:08:45Z</time>
      </trkpt>
      <trkpt lat="45.92337" lon="6.52914">
        <ele>2412</ele>
        <time>2017-08-29T09:08:46Z</time>
      </trkpt>
      <trkpt lat="45.92337" lon="6.52914">
        <ele>2412</ele>
        <time>2017-08-29T09:08:47Z</time>
      </trkpt>
      <trkpt lat="45.92337" lon="6.52914">
        <ele>2412</ele>
        <time>2017-08-29T09:08:48Z</time>
      </trkpt>
      <trkpt lat="45.92337" lon="6.52914">
        <ele>2412</ele>
        <time>2017-08-29T09:08:49Z</time>
      </trkpt>
      <trkpt lat="45.92337" lon="6.52914">
        <ele>2412</ele>
        <time>2017-08-29T09:08:50Z</time>
      </trkpt>
      <trkpt lat="45.92337" lon="6.52914">
        <ele>2412</ele>
        <time>2017-08-29T09:08:51Z</time>
      </trkpt>
      <trkpt lat="45.92337" lon="6.52914">
        <ele>2412</ele>
        <time>2017-08-29T09:08:52Z</time>
      </trkpt>
      <trkpt lat="45.92337" lon="6.52914">
        <ele>2412</ele>
        <time>2017-08-29T09:08:53Z</time>
      </trkpt>
      <trkpt lat="45.92337" lon="6.52914">
        <ele>2412</ele>
        <time>2017-08-29T09:08:54Z</time>
      </trkpt>
      <trkpt lat="45.92337" lon="6.52914">
        <ele>2412</ele>
        <time>2017-08-29T09:08:55Z</time>
      </trkpt>
      <trkpt lat="45.92337" lon="6.52914">
        <ele>2412</ele>
        <time>2017-08-29T09:08:56Z</time>
      </trkpt>
      <trkpt lat="45.92337" lon="6.52914">
        <ele>2412</ele>
        <time>2017-08-29T09:08:57Z</time>
      </trkpt>
      <trkpt lat="45.92337" lon="6.52914">
        <ele>2412</ele>
        <time>2017-08-29T09:08:58Z</time>
      </trkpt>
      <trkpt lat="45.92337" lon="6.52914">
        <ele>2412</ele>
        <time>2017-08-29T09:08:59Z</time>
      </trkpt>
      <trkpt lat="45.92337" lon="6.52914">
        <ele>2412</ele>
        <time>2017-08-29T09:09:00Z</time>
      </trkpt>
      <trkpt lat="45.92337" lon="6.52914">
        <ele>2412</ele>
        <time>2017-08-29T09:09:01Z</time>
      </trkpt>
      <trkpt lat="45.92337" lon="6.52914">
        <ele>2412</ele>
        <time>2017-08-29T09:09:02Z</time>
      </trkpt>
      <trkpt lat="45.92337" lon="6.52914">
        <ele>2412</ele>
        <time>2017-08-29T09:09:03Z</time>
      </trkpt>
      <trkpt lat="45.92337" lon="6.52914">
        <ele>2412</ele>
        <time>2017-08-29T09:09:04Z</time>
      </trkpt>
      <trkpt lat="45.92337" lon="6.52914">
        <ele>2412</ele>
        <time>2017-08-29T09:09:05Z</time>
      </trkpt>
      <trkpt lat="45.92337" lon="6.52914">
        <ele>2412</ele>
        <time>2017-08-29T09:09:06Z</time>
      </trkpt>
      <trkpt lat="45.92338" lon="6.52915">
        <ele>2412</ele>
        <time>2017-08-29T09:09:07Z</time>
      </trkpt>
      <trkpt lat="45.92338" lon="6.52915">
        <ele>2411</ele>
        <time>2017-08-29T09:09:08Z</time>
      </trkpt>
      <trkpt lat="45.92338" lon="6.52915">
        <ele>2411</ele>
        <time>2017-08-29T09:09:09Z</time>
      </trkpt>
      <trkpt lat="45.92341" lon="6.52916">
        <ele>2411</ele>
        <time>2017-08-29T09:09:10Z</time>
      </trkpt>
      <trkpt lat="45.92341" lon="6.52916">
        <ele>2411</ele>
        <time>2017-08-29T09:09:11Z</time>
      </trkpt>
      <trkpt lat="45.92342" lon="6.52917">
        <ele>2412</ele>
        <time>2017-08-29T09:09:12Z</time>
      </trkpt>
      <trkpt lat="45.92342" lon="6.52917">
        <ele>2412</ele>
        <time>2017-08-29T09:09:13Z</time>
      </trkpt>
      <trkpt lat="45.92342" lon="6.52917">
        <ele>2412</ele>
        <time>2017-08-29T09:09:14Z</time>
      </trkpt>
      <trkpt lat="45.92345" lon="6.52918">
        <ele>2412</ele>
        <time>2017-08-29T09:09:15Z</time>
      </trkpt>
      <trkpt lat="45.92345" lon="6.52918">
        <ele>2413</ele>
        <time>2017-08-29T09:09:16Z</time>
      </trkpt>
      <trkpt lat="45.92345" lon="6.52918">
        <ele>2413</ele>
        <time>2017-08-29T09:09:17Z</time>
      </trkpt>
      <trkpt lat="45.92347" lon="6.52919">
        <ele>2413</ele>
        <time>2017-08-29T09:09:18Z</time>
      </trkpt>
      <trkpt lat="45.92347" lon="6.52919">
        <ele>2414</ele>
        <time>2017-08-29T09:09:19Z</time>
      </trkpt>
      <trkpt lat="45.92347" lon="6.52919">
        <ele>2414</ele>
        <time>2017-08-29T09:09:20Z</time>
      </trkpt>
      <trkpt lat="45.92348" lon="6.52922">
        <ele>2414</ele>
        <time>2017-08-29T09:09:21Z</time>
      </trkpt>
      <trkpt lat="45.92348" lon="6.52922">
        <ele>2414</ele>
        <time>2017-08-29T09:09:22Z</time>
      </trkpt>
      <trkpt lat="45.92349" lon="6.52925">
        <ele>2414</ele>
        <time>2017-08-29T09:09:23Z</time>
      </trkpt>
      <trkpt lat="45.92349" lon="6.52925">
        <ele>2415</ele>
        <time>2017-08-29T09:09:24Z</time>
      </trkpt>
      <trkpt lat="45.92351" lon="6.52927">
        <ele>2415</ele>
        <time>2017-08-29T09:09:25Z</time>
      </trkpt>
      <trkpt lat="45.92351" lon="6.52927">
        <ele>2415</ele>
        <time>2017-08-29T09:09:26Z</time>
      </trkpt>
      <trkpt lat="45.92351" lon="6.52927">
        <ele>2415</ele>
        <time>2017-08-29T09:09:27Z</time>
      </trkpt>
      <trkpt lat="45.92351" lon="6.52931">
        <ele>2415</ele>
        <time>2017-08-29T09:09:28Z</time>
      </trkpt>
      <trkpt lat="45.92351" lon="6.52931">
        <ele>2415</ele>
        <time>2017-08-29T09:09:29Z</time>
      </trkpt>
      <trkpt lat="45.92352" lon="6.52934">
        <ele>2416</ele>
        <time>2017-08-29T09:09:30Z</time>
      </trkpt>
      <trkpt lat="45.92352" lon="6.52934">
        <ele>2416</ele>
        <time>2017-08-29T09:09:31Z</time>
      </trkpt>
      <trkpt lat="45.92353" lon="6.52937">
        <ele>2416</ele>
        <time>2017-08-29T09:09:32Z</time>
      </trkpt>
      <trkpt lat="45.92353" lon="6.52937">
        <ele>2417</ele>
        <time>2017-08-29T09:09:33Z</time>
      </trkpt>
      <trkpt lat="45.92353" lon="6.52937">
        <ele>2418</ele>
        <time>2017-08-29T09:09:34Z</time>
      </trkpt>
      <trkpt lat="45.92354" lon="6.52941">
        <ele>2418</ele>
        <time>2017-08-29T09:09:35Z</time>
      </trkpt>
      <trkpt lat="45.92354" lon="6.52941">
        <ele>2418</ele>
        <time>2017-08-29T09:09:36Z</time>
      </trkpt>
      <trkpt lat="45.92354" lon="6.52943">
        <ele>2418</ele>
        <time>2017-08-29T09:09:37Z</time>
      </trkpt>
      <trkpt lat="45.92354" lon="6.52943">
        <ele>2418</ele>
        <time>2017-08-29T09:09:38Z</time>
      </trkpt>
      <trkpt lat="45.92356" lon="6.52946">
        <ele>2418</ele>
        <time>2017-08-29T09:09:39Z</time>
      </trkpt>
      <trkpt lat="45.92356" lon="6.52946">
        <ele>2419</ele>
        <time>2017-08-29T09:09:40Z</time>
      </trkpt>
      <trkpt lat="45.92356" lon="6.52946">
        <ele>2419</ele>
        <time>2017-08-29T09:09:41Z</time>
      </trkpt>
      <trkpt lat="45.92357" lon="6.5295">
        <ele>2420</ele>
        <time>2017-08-29T09:09:42Z</time>
      </trkpt>
      <trkpt lat="45.92357" lon="6.5295">
        <ele>2420</ele>
        <time>2017-08-29T09:09:43Z</time>
      </trkpt>
      <trkpt lat="45.92359" lon="6.52952">
        <ele>2420</ele>
        <time>2017-08-29T09:09:44Z</time>
      </trkpt>
      <trkpt lat="45.92359" lon="6.52952">
        <ele>2420</ele>
        <time>2017-08-29T09:09:45Z</time>
      </trkpt>
      <trkpt lat="45.92359" lon="6.52952">
        <ele>2420</ele>
        <time>2017-08-29T09:09:46Z</time>
      </trkpt>
      <trkpt lat="45.92361" lon="6.52955">
        <ele>2420</ele>
        <time>2017-08-29T09:09:47Z</time>
      </trkpt>
      <trkpt lat="45.92361" lon="6.52955">
        <ele>2421</ele>
        <time>2017-08-29T09:09:48Z</time>
      </trkpt>
      <trkpt lat="45.92363" lon="6.52957">
        <ele>2421</ele>
        <time>2017-08-29T09:09:49Z</time>
      </trkpt>
      <trkpt lat="45.92363" lon="6.52957">
        <ele>2421</ele>
        <time>2017-08-29T09:09:50Z</time>
      </trkpt>
      <trkpt lat="45.92364" lon="6.52959">
        <ele>2421</ele>
        <time>2017-08-29T09:09:51Z</time>
      </trkpt>
      <trkpt lat="45.92364" lon="6.52959">
        <ele>2421</ele>
        <time>2017-08-29T09:09:52Z</time>
      </trkpt>
      <trkpt lat="45.92364" lon="6.52959">
        <ele>2421</ele>
        <time>2017-08-29T09:09:53Z</time>
      </trkpt>
      <trkpt lat="45.92366" lon="6.52962">
        <ele>2422</ele>
        <time>2017-08-29T09:09:54Z</time>
      </trkpt>
      <trkpt lat="45.92366" lon="6.52962">
        <ele>2422</ele>
        <time>2017-08-29T09:09:55Z</time>
      </trkpt>
      <trkpt lat="45.92367" lon="6.52965">
        <ele>2422</ele>
        <time>2017-08-29T09:09:56Z</time>
      </trkpt>
      <trkpt lat="45.92367" lon="6.52965">
        <ele>2422</ele>
        <time>2017-08-29T09:09:57Z</time>
      </trkpt>
      <trkpt lat="45.92368" lon="6.52968">
        <ele>2422</ele>
        <time>2017-08-29T09:09:58Z</time>
      </trkpt>
      <trkpt lat="45.92368" lon="6.52968">
        <ele>2422</ele>
        <time>2017-08-29T09:09:59Z</time>
      </trkpt>
      <trkpt lat="45.92369" lon="6.5297">
        <ele>2423</ele>
        <time>2017-08-29T09:10:00Z</time>
      </trkpt>
      <trkpt lat="45.92369" lon="6.5297">
        <ele>2423</ele>
        <time>2017-08-29T09:10:01Z</time>
      </trkpt>
      <trkpt lat="45.9237" lon="6.52973">
        <ele>2423</ele>
        <time>2017-08-29T09:10:02Z</time>
      </trkpt>
      <trkpt lat="45.9237" lon="6.52973">
        <ele>2423</ele>
        <time>2017-08-29T09:10:03Z</time>
      </trkpt>
      <trkpt lat="45.92371" lon="6.52975">
        <ele>2423</ele>
        <time>2017-08-29T09:10:04Z</time>
      </trkpt>
      <trkpt lat="45.92371" lon="6.52975">
        <ele>2423</ele>
        <time>2017-08-29T09:10:05Z</time>
      </trkpt>
      <trkpt lat="45.92371" lon="6.52975">
        <ele>2424</ele>
        <time>2017-08-29T09:10:06Z</time>
      </trkpt>
      <trkpt lat="45.92371" lon="6.52979">
        <ele>2424</ele>
        <time>2017-08-29T09:10:07Z</time>
      </trkpt>
      <trkpt lat="45.92371" lon="6.52979">
        <ele>2424</ele>
        <time>2017-08-29T09:10:08Z</time>
      </trkpt>
      <trkpt lat="45.92371" lon="6.52979">
        <ele>2424</ele>
        <time>2017-08-29T09:10:09Z</time>
      </trkpt>
      <trkpt lat="45.92372" lon="6.52981">
        <ele>2424</ele>
        <time>2017-08-29T09:10:10Z</time>
      </trkpt>
      <trkpt lat="45.92372" lon="6.52981">
        <ele>2424</ele>
        <time>2017-08-29T09:10:11Z</time>
      </trkpt>
      <trkpt lat="45.92372" lon="6.52981">
        <ele>2424</ele>
        <time>2017-08-29T09:10:12Z</time>
      </trkpt>
      <trkpt lat="45.92373" lon="6.52984">
        <ele>2426</ele>
        <time>2017-08-29T09:10:13Z</time>
      </trkpt>
      <trkpt lat="45.92373" lon="6.52984">
        <ele>2426</ele>
        <time>2017-08-29T09:10:14Z</time>
      </trkpt>
      <trkpt lat="45.92373" lon="6.52984">
        <ele>2426</ele>
        <time>2017-08-29T09:10:15Z</time>
      </trkpt>
      <trkpt lat="45.92374" lon="6.52987">
        <ele>2426</ele>
        <time>2017-08-29T09:10:16Z</time>
      </trkpt>
      <trkpt lat="45.92374" lon="6.52987">
        <ele>2427</ele>
        <time>2017-08-29T09:10:17Z</time>
      </trkpt>
      <trkpt lat="45.92374" lon="6.52987">
        <ele>2427</ele>
        <time>2017-08-29T09:10:18Z</time>
      </trkpt>
      <trkpt lat="45.92375" lon="6.5299">
        <ele>2427</ele>
        <time>2017-08-29T09:10:19Z</time>
      </trkpt>
      <trkpt lat="45.92375" lon="6.5299">
        <ele>2427</ele>
        <time>2017-08-29T09:10:20Z</time>
      </trkpt>
      <trkpt lat="45.92375" lon="6.5299">
        <ele>2428</ele>
        <time>2017-08-29T09:10:21Z</time>
      </trkpt>
      <trkpt lat="45.92376" lon="6.52993">
        <ele>2428</ele>
        <time>2017-08-29T09:10:22Z</time>
      </trkpt>
      <trkpt lat="45.92376" lon="6.52993">
        <ele>2429</ele>
        <time>2017-08-29T09:10:23Z</time>
      </trkpt>
      <trkpt lat="45.92376" lon="6.52993">
        <ele>2429</ele>
        <time>2017-08-29T09:10:24Z</time>
      </trkpt>
      <trkpt lat="45.92378" lon="6.52996">
        <ele>2429</ele>
        <time>2017-08-29T09:10:25Z</time>
      </trkpt>
      <trkpt lat="45.92378" lon="6.52996">
        <ele>2429</ele>
        <time>2017-08-29T09:10:26Z</time>
      </trkpt>
      <trkpt lat="45.9238" lon="6.52997">
        <ele>2430</ele>
        <time>2017-08-29T09:10:27Z</time>
      </trkpt>
      <trkpt lat="45.9238" lon="6.52997">
        <ele>2430</ele>
        <time>2017-08-29T09:10:28Z</time>
      </trkpt>
      <trkpt lat="45.92382" lon="6.52999">
        <ele>2430</ele>
        <time>2017-08-29T09:10:29Z</time>
      </trkpt>
      <trkpt lat="45.92382" lon="6.52999">
        <ele>2430</ele>
        <time>2017-08-29T09:10:30Z</time>
      </trkpt>
      <trkpt lat="45.92383" lon="6.53001">
        <ele>2430</ele>
        <time>2017-08-29T09:10:31Z</time>
      </trkpt>
      <trkpt lat="45.92383" lon="6.53001">
        <ele>2431</ele>
        <time>2017-08-29T09:10:32Z</time>
      </trkpt>
      <trkpt lat="45.92385" lon="6.53003">
        <ele>2431</ele>
        <time>2017-08-29T09:10:33Z</time>
      </trkpt>
      <trkpt lat="45.92385" lon="6.53003">
        <ele>2431</ele>
        <time>2017-08-29T09:10:34Z</time>
      </trkpt>
      <trkpt lat="45.92386" lon="6.53005">
        <ele>2431</ele>
        <time>2017-08-29T09:10:35Z</time>
      </trkpt>
      <trkpt lat="45.92386" lon="6.53005">
        <ele>2432</ele>
        <time>2017-08-29T09:10:36Z</time>
      </trkpt>
      <trkpt lat="45.92386" lon="6.53005">
        <ele>2432</ele>
        <time>2017-08-29T09:10:37Z</time>
      </trkpt>
      <trkpt lat="45.92387" lon="6.53008">
        <ele>2432</ele>
        <time>2017-08-29T09:10:38Z</time>
      </trkpt>
      <trkpt lat="45.92387" lon="6.53008">
        <ele>2432</ele>
        <time>2017-08-29T09:10:39Z</time>
      </trkpt>
      <trkpt lat="45.92387" lon="6.53008">
        <ele>2432</ele>
        <time>2017-08-29T09:10:40Z</time>
      </trkpt>
      <trkpt lat="45.92388" lon="6.53011">
        <ele>2432</ele>
        <time>2017-08-29T09:10:41Z</time>
      </trkpt>
      <trkpt lat="45.92388" lon="6.53011">
        <ele>2433</ele>
        <time>2017-08-29T09:10:42Z</time>
      </trkpt>
      <trkpt lat="45.92389" lon="6.53013">
        <ele>2433</ele>
        <time>2017-08-29T09:10:43Z</time>
      </trkpt>
      <trkpt lat="45.92389" lon="6.53013">
        <ele>2433</ele>
        <time>2017-08-29T09:10:44Z</time>
      </trkpt>
      <trkpt lat="45.92389" lon="6.53013">
        <ele>2433</ele>
        <time>2017-08-29T09:10:45Z</time>
      </trkpt>
      <trkpt lat="45.92389" lon="6.53017">
        <ele>2433</ele>
        <time>2017-08-29T09:10:46Z</time>
      </trkpt>
      <trkpt lat="45.92389" lon="6.53017">
        <ele>2434</ele>
        <time>2017-08-29T09:10:47Z</time>
      </trkpt>
      <trkpt lat="45.9239" lon="6.5302">
        <ele>2434</ele>
        <time>2017-08-29T09:10:48Z</time>
      </trkpt>
      <trkpt lat="45.9239" lon="6.5302">
        <ele>2434</ele>
        <time>2017-08-29T09:10:49Z</time>
      </trkpt>
      <trkpt lat="45.9239" lon="6.5302">
        <ele>2435</ele>
        <time>2017-08-29T09:10:50Z</time>
      </trkpt>
      <trkpt lat="45.92391" lon="6.53023">
        <ele>2436</ele>
        <time>2017-08-29T09:10:51Z</time>
      </trkpt>
      <trkpt lat="45.92391" lon="6.53023">
        <ele>2436</ele>
        <time>2017-08-29T09:10:52Z</time>
      </trkpt>
      <trkpt lat="45.92392" lon="6.53026">
        <ele>2436</ele>
        <time>2017-08-29T09:10:53Z</time>
      </trkpt>
      <trkpt lat="45.92392" lon="6.53026">
        <ele>2436</ele>
        <time>2017-08-29T09:10:54Z</time>
      </trkpt>
      <trkpt lat="45.92393" lon="6.53029">
        <ele>2436</ele>
        <time>2017-08-29T09:10:55Z</time>
      </trkpt>
      <trkpt lat="45.92393" lon="6.53029">
        <ele>2435</ele>
        <time>2017-08-29T09:10:56Z</time>
      </trkpt>
      <trkpt lat="45.92394" lon="6.53031">
        <ele>2436</ele>
        <time>2017-08-29T09:10:57Z</time>
      </trkpt>
      <trkpt lat="45.92394" lon="6.53031">
        <ele>2436</ele>
        <time>2017-08-29T09:10:58Z</time>
      </trkpt>
      <trkpt lat="45.92397" lon="6.53033">
        <ele>2436</ele>
        <time>2017-08-29T09:10:59Z</time>
      </trkpt>
      <trkpt lat="45.92397" lon="6.53033">
        <ele>2436</ele>
        <time>2017-08-29T09:11:00Z</time>
      </trkpt>
      <trkpt lat="45.92398" lon="6.53034">
        <ele>2437</ele>
        <time>2017-08-29T09:11:01Z</time>
      </trkpt>
      <trkpt lat="45.92398" lon="6.53034">
        <ele>2437</ele>
        <time>2017-08-29T09:11:02Z</time>
      </trkpt>
      <trkpt lat="45.92401" lon="6.53036">
        <ele>2437</ele>
        <time>2017-08-29T09:11:03Z</time>
      </trkpt>
      <trkpt lat="45.92401" lon="6.53036">
        <ele>2437</ele>
        <time>2017-08-29T09:11:04Z</time>
      </trkpt>
      <trkpt lat="45.92403" lon="6.53039">
        <ele>2437</ele>
        <time>2017-08-29T09:11:05Z</time>
      </trkpt>
      <trkpt lat="45.92405" lon="6.53042">
        <ele>2437</ele>
        <time>2017-08-29T09:11:06Z</time>
      </trkpt>
      <trkpt lat="45.92406" lon="6.53044">
        <ele>2437</ele>
        <time>2017-08-29T09:11:07Z</time>
      </trkpt>
      <trkpt lat="45.92407" lon="6.53046">
        <ele>2437</ele>
        <time>2017-08-29T09:11:08Z</time>
      </trkpt>
      <trkpt lat="45.92409" lon="6.53049">
        <ele>2437</ele>
        <time>2017-08-29T09:11:09Z</time>
      </trkpt>
      <trkpt lat="45.92409" lon="6.53049">
        <ele>2437</ele>
        <time>2017-08-29T09:11:10Z</time>
      </trkpt>
      <trkpt lat="45.92411" lon="6.53053">
        <ele>2437</ele>
        <time>2017-08-29T09:11:11Z</time>
      </trkpt>
      <trkpt lat="45.92413" lon="6.53054">
        <ele>2437</ele>
        <time>2017-08-29T09:11:12Z</time>
      </trkpt>
      <trkpt lat="45.92414" lon="6.53056">
        <ele>2437</ele>
        <time>2017-08-29T09:11:13Z</time>
      </trkpt>
      <trkpt lat="45.92415" lon="6.53058">
        <ele>2437</ele>
        <time>2017-08-29T09:11:14Z</time>
      </trkpt>
      <trkpt lat="45.92415" lon="6.53058">
        <ele>2437</ele>
        <time>2017-08-29T09:11:15Z</time>
      </trkpt>
      <trkpt lat="45.92418" lon="6.5306">
        <ele>2437</ele>
        <time>2017-08-29T09:11:16Z</time>
      </trkpt>
      <trkpt lat="45.92418" lon="6.5306">
        <ele>2437</ele>
        <time>2017-08-29T09:11:17Z</time>
      </trkpt>
      <trkpt lat="45.9242" lon="6.53061">
        <ele>2437</ele>
        <time>2017-08-29T09:11:18Z</time>
      </trkpt>
      <trkpt lat="45.9242" lon="6.53061">
        <ele>2437</ele>
        <time>2017-08-29T09:11:19Z</time>
      </trkpt>
      <trkpt lat="45.9242" lon="6.53061">
        <ele>2437</ele>
        <time>2017-08-29T09:11:20Z</time>
      </trkpt>
      <trkpt lat="45.9242" lon="6.53061">
        <ele>2437</ele>
        <time>2017-08-29T09:11:21Z</time>
      </trkpt>
      <trkpt lat="45.9242" lon="6.53061">
        <ele>2437</ele>
        <time>2017-08-29T09:11:22Z</time>
      </trkpt>
      <trkpt lat="45.9242" lon="6.53061">
        <ele>2437</ele>
        <time>2017-08-29T09:11:23Z</time>
      </trkpt>
      <trkpt lat="45.9242" lon="6.53061">
        <ele>2437</ele>
        <time>2017-08-29T09:11:24Z</time>
      </trkpt>
      <trkpt lat="45.9242" lon="6.53061">
        <ele>2437</ele>
        <time>2017-08-29T09:11:25Z</time>
      </trkpt>
      <trkpt lat="45.9242" lon="6.53061">
        <ele>2437</ele>
        <time>2017-08-29T09:11:26Z</time>
      </trkpt>
      <trkpt lat="45.92422" lon="6.53062">
        <ele>2437</ele>
        <time>2017-08-29T09:11:27Z</time>
      </trkpt>
      <trkpt lat="45.92422" lon="6.53062">
        <ele>2437</ele>
        <time>2017-08-29T09:11:28Z</time>
      </trkpt>
      <trkpt lat="45.92422" lon="6.53062">
        <ele>2437</ele>
        <time>2017-08-29T09:11:29Z</time>
      </trkpt>
      <trkpt lat="45.92422" lon="6.53062">
        <ele>2437</ele>
        <time>2017-08-29T09:11:30Z</time>
      </trkpt>
      <trkpt lat="45.92424" lon="6.53061">
        <ele>2437</ele>
        <time>2017-08-29T09:11:31Z</time>
      </trkpt>
      <trkpt lat="45.92424" lon="6.53061">
        <ele>2437</ele>
        <time>2017-08-29T09:11:32Z</time>
      </trkpt>
      <trkpt lat="45.92428" lon="6.53061">
        <ele>2437</ele>
        <time>2017-08-29T09:11:33Z</time>
      </trkpt>
      <trkpt lat="45.9243" lon="6.53061">
        <ele>2438</ele>
        <time>2017-08-29T09:11:34Z</time>
      </trkpt>
      <trkpt lat="45.9243" lon="6.53061">
        <ele>2438</ele>
        <time>2017-08-29T09:11:35Z</time>
      </trkpt>
      <trkpt lat="45.92432" lon="6.53062">
        <ele>2438</ele>
        <time>2017-08-29T09:11:36Z</time>
      </trkpt>
      <trkpt lat="45.92432" lon="6.53062">
        <ele>2438</ele>
        <time>2017-08-29T09:11:37Z</time>
      </trkpt>
      <trkpt lat="45.92434" lon="6.53062">
        <ele>2438</ele>
        <time>2017-08-29T09:11:38Z</time>
      </trkpt>
      <trkpt lat="45.92434" lon="6.53062">
        <ele>2438</ele>
        <time>2017-08-29T09:11:39Z</time>
      </trkpt>
      <trkpt lat="45.92436" lon="6.53061">
        <ele>2438</ele>
        <time>2017-08-29T09:11:40Z</time>
      </trkpt>
      <trkpt lat="45.92436" lon="6.53061">
        <ele>2438</ele>
        <time>2017-08-29T09:11:41Z</time>
      </trkpt>
      <trkpt lat="45.92439" lon="6.5306">
        <ele>2438</ele>
        <time>2017-08-29T09:11:42Z</time>
      </trkpt>
      <trkpt lat="45.92439" lon="6.5306">
        <ele>2437</ele>
        <time>2017-08-29T09:11:43Z</time>
      </trkpt>
      <trkpt lat="45.92442" lon="6.53058">
        <ele>2437</ele>
        <time>2017-08-29T09:11:44Z</time>
      </trkpt>
      <trkpt lat="45.92444" lon="6.53058">
        <ele>2437</ele>
        <time>2017-08-29T09:11:45Z</time>
      </trkpt>
      <trkpt lat="45.92446" lon="6.53057">
        <ele>2437</ele>
        <time>2017-08-29T09:11:46Z</time>
      </trkpt>
      <trkpt lat="45.92448" lon="6.53057">
        <ele>2437</ele>
        <time>2017-08-29T09:11:47Z</time>
      </trkpt>
      <trkpt lat="45.9245" lon="6.53057">
        <ele>2437</ele>
        <time>2017-08-29T09:11:48Z</time>
      </trkpt>
      <trkpt lat="45.9245" lon="6.53057">
        <ele>2437</ele>
        <time>2017-08-29T09:11:49Z</time>
      </trkpt>
      <trkpt lat="45.92453" lon="6.53057">
        <ele>2437</ele>
        <time>2017-08-29T09:11:50Z</time>
      </trkpt>
      <trkpt lat="45.92453" lon="6.53057">
        <ele>2437</ele>
        <time>2017-08-29T09:11:51Z</time>
      </trkpt>
      <trkpt lat="45.92455" lon="6.53057">
        <ele>2437</ele>
        <time>2017-08-29T09:11:52Z</time>
      </trkpt>
      <trkpt lat="45.92455" lon="6.53057">
        <ele>2437</ele>
        <time>2017-08-29T09:11:53Z</time>
      </trkpt>
      <trkpt lat="45.92458" lon="6.53058">
        <ele>2438</ele>
        <time>2017-08-29T09:11:54Z</time>
      </trkpt>
      <trkpt lat="45.92458" lon="6.53058">
        <ele>2438</ele>
        <time>2017-08-29T09:11:55Z</time>
      </trkpt>
      <trkpt lat="45.9246" lon="6.53059">
        <ele>2438</ele>
        <time>2017-08-29T09:11:56Z</time>
      </trkpt>
      <trkpt lat="45.9246" lon="6.53059">
        <ele>2438</ele>
        <time>2017-08-29T09:11:57Z</time>
      </trkpt>
      <trkpt lat="45.92462" lon="6.5306">
        <ele>2438</ele>
        <time>2017-08-29T09:11:58Z</time>
      </trkpt>
      <trkpt lat="45.92462" lon="6.5306">
        <ele>2438</ele>
        <time>2017-08-29T09:11:59Z</time>
      </trkpt>
      <trkpt lat="45.92464" lon="6.5306">
        <ele>2439</ele>
        <time>2017-08-29T09:12:00Z</time>
      </trkpt>
      <trkpt lat="45.92464" lon="6.5306">
        <ele>2439</ele>
        <time>2017-08-29T09:12:01Z</time>
      </trkpt>
      <trkpt lat="45.92467" lon="6.5306">
        <ele>2440</ele>
        <time>2017-08-29T09:12:02Z</time>
      </trkpt>
      <trkpt lat="45.92467" lon="6.5306">
        <ele>2440</ele>
        <time>2017-08-29T09:12:03Z</time>
      </trkpt>
      <trkpt lat="45.92469" lon="6.5306">
        <ele>2441</ele>
        <time>2017-08-29T09:12:04Z</time>
      </trkpt>
      <trkpt lat="45.92469" lon="6.5306">
        <ele>2441</ele>
        <time>2017-08-29T09:12:05Z</time>
      </trkpt>
      <trkpt lat="45.92471" lon="6.53061">
        <ele>2441</ele>
        <time>2017-08-29T09:12:06Z</time>
      </trkpt>
      <trkpt lat="45.92471" lon="6.53061">
        <ele>2442</ele>
        <time>2017-08-29T09:12:07Z</time>
      </trkpt>
      <trkpt lat="45.92473" lon="6.5306">
        <ele>2442</ele>
        <time>2017-08-29T09:12:08Z</time>
      </trkpt>
      <trkpt lat="45.92473" lon="6.5306">
        <ele>2442</ele>
        <time>2017-08-29T09:12:09Z</time>
      </trkpt>
      <trkpt lat="45.92473" lon="6.5306">
        <ele>2442</ele>
        <time>2017-08-29T09:12:10Z</time>
      </trkpt>
      <trkpt lat="45.92476" lon="6.53061">
        <ele>2442</ele>
        <time>2017-08-29T09:12:11Z</time>
      </trkpt>
      <trkpt lat="45.92476" lon="6.53061">
        <ele>2443</ele>
        <time>2017-08-29T09:12:12Z</time>
      </trkpt>
      <trkpt lat="45.92476" lon="6.53061">
        <ele>2443</ele>
        <time>2017-08-29T09:12:13Z</time>
      </trkpt>
      <trkpt lat="45.92478" lon="6.53061">
        <ele>2443</ele>
        <time>2017-08-29T09:12:14Z</time>
      </trkpt>
      <trkpt lat="45.92478" lon="6.53061">
        <ele>2443</ele>
        <time>2017-08-29T09:12:15Z</time>
      </trkpt>
      <trkpt lat="45.9248" lon="6.5306">
        <ele>2443</ele>
        <time>2017-08-29T09:12:16Z</time>
      </trkpt>
      <trkpt lat="45.9248" lon="6.5306">
        <ele>2443</ele>
        <time>2017-08-29T09:12:17Z</time>
      </trkpt>
      <trkpt lat="45.92482" lon="6.5306">
        <ele>2443</ele>
        <time>2017-08-29T09:12:18Z</time>
      </trkpt>
      <trkpt lat="45.92482" lon="6.5306">
        <ele>2444</ele>
        <time>2017-08-29T09:12:19Z</time>
      </trkpt>
      <trkpt lat="45.92484" lon="6.5306">
        <ele>2444</ele>
        <time>2017-08-29T09:12:20Z</time>
      </trkpt>
      <trkpt lat="45.92484" lon="6.5306">
        <ele>2444</ele>
        <time>2017-08-29T09:12:21Z</time>
      </trkpt>
      <trkpt lat="45.92484" lon="6.5306">
        <ele>2445</ele>
        <time>2017-08-29T09:12:22Z</time>
      </trkpt>
      <trkpt lat="45.92486" lon="6.53059">
        <ele>2445</ele>
        <time>2017-08-29T09:12:23Z</time>
      </trkpt>
      <trkpt lat="45.92486" lon="6.53059">
        <ele>2445</ele>
        <time>2017-08-29T09:12:24Z</time>
      </trkpt>
      <trkpt lat="45.92486" lon="6.53059">
        <ele>2445</ele>
        <time>2017-08-29T09:12:25Z</time>
      </trkpt>
      <trkpt lat="45.92488" lon="6.53057">
        <ele>2446</ele>
        <time>2017-08-29T09:12:26Z</time>
      </trkpt>
      <trkpt lat="45.92488" lon="6.53057">
        <ele>2446</ele>
        <time>2017-08-29T09:12:27Z</time>
      </trkpt>
      <trkpt lat="45.92489" lon="6.53053">
        <ele>2446</ele>
        <time>2017-08-29T09:12:28Z</time>
      </trkpt>
      <trkpt lat="45.92489" lon="6.53053">
        <ele>2447</ele>
        <time>2017-08-29T09:12:29Z</time>
      </trkpt>
      <trkpt lat="45.92489" lon="6.53053">
        <ele>2447</ele>
        <time>2017-08-29T09:12:30Z</time>
      </trkpt>
      <trkpt lat="45.92489" lon="6.5305">
        <ele>2447</ele>
        <time>2017-08-29T09:12:31Z</time>
      </trkpt>
      <trkpt lat="45.92489" lon="6.5305">
        <ele>2447</ele>
        <time>2017-08-29T09:12:32Z</time>
      </trkpt>
      <trkpt lat="45.9249" lon="6.53047">
        <ele>2447</ele>
        <time>2017-08-29T09:12:33Z</time>
      </trkpt>
      <trkpt lat="45.9249" lon="6.53047">
        <ele>2447</ele>
        <time>2017-08-29T09:12:34Z</time>
      </trkpt>
      <trkpt lat="45.9249" lon="6.53047">
        <ele>2447</ele>
        <time>2017-08-29T09:12:35Z</time>
      </trkpt>
      <trkpt lat="45.9249" lon="6.53047">
        <ele>2447</ele>
        <time>2017-08-29T09:12:36Z</time>
      </trkpt>
      <trkpt lat="45.9249" lon="6.53047">
        <ele>2448</ele>
        <time>2017-08-29T09:12:37Z</time>
      </trkpt>
      <trkpt lat="45.92491" lon="6.53045">
        <ele>2448</ele>
        <time>2017-08-29T09:12:38Z</time>
      </trkpt>
      <trkpt lat="45.92491" lon="6.53045">
        <ele>2448</ele>
        <time>2017-08-29T09:12:39Z</time>
      </trkpt>
      <trkpt lat="45.92491" lon="6.53045">
        <ele>2448</ele>
        <time>2017-08-29T09:12:40Z</time>
      </trkpt>
      <trkpt lat="45.92491" lon="6.53045">
        <ele>2448</ele>
        <time>2017-08-29T09:12:41Z</time>
      </trkpt>
      <trkpt lat="45.92491" lon="6.53045">
        <ele>2448</ele>
        <time>2017-08-29T09:12:42Z</time>
      </trkpt>
      <trkpt lat="45.92491" lon="6.53045">
        <ele>2448</ele>
        <time>2017-08-29T09:12:43Z</time>
      </trkpt>
      <trkpt lat="45.92491" lon="6.53045">
        <ele>2448</ele>
        <time>2017-08-29T09:12:44Z</time>
      </trkpt>
      <trkpt lat="45.92491" lon="6.53045">
        <ele>2448</ele>
        <time>2017-08-29T09:12:45Z</time>
      </trkpt>
      <trkpt lat="45.92491" lon="6.53045">
        <ele>2448</ele>
        <time>2017-08-29T09:12:46Z</time>
      </trkpt>
      <trkpt lat="45.92491" lon="6.53045">
        <ele>2447</ele>
        <time>2017-08-29T09:12:47Z</time>
      </trkpt>
      <trkpt lat="45.92491" lon="6.53045">
        <ele>2447</ele>
        <time>2017-08-29T09:12:48Z</time>
      </trkpt>
      <trkpt lat="45.92491" lon="6.53045">
        <ele>2447</ele>
        <time>2017-08-29T09:12:49Z</time>
      </trkpt>
      <trkpt lat="45.92491" lon="6.53045">
        <ele>2447</ele>
        <time>2017-08-29T09:12:50Z</time>
      </trkpt>
      <trkpt lat="45.92491" lon="6.53045">
        <ele>2447</ele>
        <time>2017-08-29T09:12:51Z</time>
      </trkpt>
      <trkpt lat="45.92491" lon="6.53045">
        <ele>2447</ele>
        <time>2017-08-29T09:12:52Z</time>
      </trkpt>
      <trkpt lat="45.92491" lon="6.53045">
        <ele>2447</ele>
        <time>2017-08-29T09:12:53Z</time>
      </trkpt>
      <trkpt lat="45.92491" lon="6.53045">
        <ele>2447</ele>
        <time>2017-08-29T09:12:54Z</time>
      </trkpt>
      <trkpt lat="45.92492" lon="6.53042">
        <ele>2447</ele>
        <time>2017-08-29T09:12:55Z</time>
      </trkpt>
      <trkpt lat="45.92492" lon="6.53042">
        <ele>2447</ele>
        <time>2017-08-29T09:12:56Z</time>
      </trkpt>
      <trkpt lat="45.92492" lon="6.53042">
        <ele>2447</ele>
        <time>2017-08-29T09:12:57Z</time>
      </trkpt>
      <trkpt lat="45.92494" lon="6.53039">
        <ele>2447</ele>
        <time>2017-08-29T09:12:58Z</time>
      </trkpt>
      <trkpt lat="45.92494" lon="6.53039">
        <ele>2447</ele>
        <time>2017-08-29T09:12:59Z</time>
      </trkpt>
      <trkpt lat="45.92494" lon="6.53039">
        <ele>2447</ele>
        <time>2017-08-29T09:13:00Z</time>
      </trkpt>
      <trkpt lat="45.92495" lon="6.53037">
        <ele>2447</ele>
        <time>2017-08-29T09:13:01Z</time>
      </trkpt>
      <trkpt lat="45.92495" lon="6.53037">
        <ele>2447</ele>
        <time>2017-08-29T09:13:02Z</time>
      </trkpt>
      <trkpt lat="45.92495" lon="6.53037">
        <ele>2447</ele>
        <time>2017-08-29T09:13:03Z</time>
      </trkpt>
      <trkpt lat="45.92497" lon="6.53034">
        <ele>2448</ele>
        <time>2017-08-29T09:13:04Z</time>
      </trkpt>
      <trkpt lat="45.92499" lon="6.53032">
        <ele>2448</ele>
        <time>2017-08-29T09:13:05Z</time>
      </trkpt>
      <trkpt lat="45.925" lon="6.5303">
        <ele>2448</ele>
        <time>2017-08-29T09:13:06Z</time>
      </trkpt>
      <trkpt lat="45.925" lon="6.5303">
        <ele>2449</ele>
        <time>2017-08-29T09:13:07Z</time>
      </trkpt>
      <trkpt lat="45.92502" lon="6.53027">
        <ele>2449</ele>
        <time>2017-08-29T09:13:08Z</time>
      </trkpt>
      <trkpt lat="45.92502" lon="6.53027">
        <ele>2450</ele>
        <time>2017-08-29T09:13:09Z</time>
      </trkpt>
      <trkpt lat="45.92505" lon="6.53024">
        <ele>2450</ele>
        <time>2017-08-29T09:13:10Z</time>
      </trkpt>
      <trkpt lat="45.92505" lon="6.53024">
        <ele>2450</ele>
        <time>2017-08-29T09:13:11Z</time>
      </trkpt>
      <trkpt lat="45.92507" lon="6.5302">
        <ele>2450</ele>
        <time>2017-08-29T09:13:12Z</time>
      </trkpt>
      <trkpt lat="45.92507" lon="6.5302">
        <ele>2450</ele>
        <time>2017-08-29T09:13:13Z</time>
      </trkpt>
      <trkpt lat="45.92509" lon="6.53017">
        <ele>2450</ele>
        <time>2017-08-29T09:13:14Z</time>
      </trkpt>
      <trkpt lat="45.92509" lon="6.53017">
        <ele>2450</ele>
        <time>2017-08-29T09:13:15Z</time>
      </trkpt>
      <trkpt lat="45.9251" lon="6.53012">
        <ele>2451</ele>
        <time>2017-08-29T09:13:16Z</time>
      </trkpt>
      <trkpt lat="45.9251" lon="6.53012">
        <ele>2451</ele>
        <time>2017-08-29T09:13:17Z</time>
      </trkpt>
      <trkpt lat="45.92512" lon="6.53008">
        <ele>2451</ele>
        <time>2017-08-29T09:13:18Z</time>
      </trkpt>
      <trkpt lat="45.92512" lon="6.53008">
        <ele>2452</ele>
        <time>2017-08-29T09:13:19Z</time>
      </trkpt>
      <trkpt lat="45.92514" lon="6.53005">
        <ele>2452</ele>
        <time>2017-08-29T09:13:20Z</time>
      </trkpt>
      <trkpt lat="45.92514" lon="6.53005">
        <ele>2452</ele>
        <time>2017-08-29T09:13:21Z</time>
      </trkpt>
      <trkpt lat="45.92515" lon="6.53001">
        <ele>2452</ele>
        <time>2017-08-29T09:13:22Z</time>
      </trkpt>
      <trkpt lat="45.92515" lon="6.53001">
        <ele>2452</ele>
        <time>2017-08-29T09:13:23Z</time>
      </trkpt>
      <trkpt lat="45.92517" lon="6.52998">
        <ele>2452</ele>
        <time>2017-08-29T09:13:24Z</time>
      </trkpt>
      <trkpt lat="45.92517" lon="6.52998">
        <ele>2453</ele>
        <time>2017-08-29T09:13:25Z</time>
      </trkpt>
      <trkpt lat="45.92518" lon="6.52995">
        <ele>2453</ele>
        <time>2017-08-29T09:13:26Z</time>
      </trkpt>
      <trkpt lat="45.92518" lon="6.52995">
        <ele>2453</ele>
        <time>2017-08-29T09:13:27Z</time>
      </trkpt>
      <trkpt lat="45.9252" lon="6.52993">
        <ele>2453</ele>
        <time>2017-08-29T09:13:28Z</time>
      </trkpt>
      <trkpt lat="45.9252" lon="6.52993">
        <ele>2453</ele>
        <time>2017-08-29T09:13:29Z</time>
      </trkpt>
      <trkpt lat="45.92522" lon="6.5299">
        <ele>2453</ele>
        <time>2017-08-29T09:13:30Z</time>
      </trkpt>
      <trkpt lat="45.92522" lon="6.5299">
        <ele>2454</ele>
        <time>2017-08-29T09:13:31Z</time>
      </trkpt>
      <trkpt lat="45.92522" lon="6.52988">
        <ele>2454</ele>
        <time>2017-08-29T09:13:32Z</time>
      </trkpt>
      <trkpt lat="45.92522" lon="6.52988">
        <ele>2454</ele>
        <time>2017-08-29T09:13:33Z</time>
      </trkpt>
      <trkpt lat="45.92524" lon="6.52984">
        <ele>2454</ele>
        <time>2017-08-29T09:13:34Z</time>
      </trkpt>
      <trkpt lat="45.92524" lon="6.52984">
        <ele>2454</ele>
        <time>2017-08-29T09:13:35Z</time>
      </trkpt>
      <trkpt lat="45.92524" lon="6.52981">
        <ele>2454</ele>
        <time>2017-08-29T09:13:36Z</time>
      </trkpt>
      <trkpt lat="45.92524" lon="6.52981">
        <ele>2454</ele>
        <time>2017-08-29T09:13:37Z</time>
      </trkpt>
      <trkpt lat="45.92525" lon="6.52978">
        <ele>2454</ele>
        <time>2017-08-29T09:13:38Z</time>
      </trkpt>
      <trkpt lat="45.92525" lon="6.52978">
        <ele>2454</ele>
        <time>2017-08-29T09:13:39Z</time>
      </trkpt>
      <trkpt lat="45.92526" lon="6.52975">
        <ele>2454</ele>
        <time>2017-08-29T09:13:40Z</time>
      </trkpt>
      <trkpt lat="45.92526" lon="6.52975">
        <ele>2454</ele>
        <time>2017-08-29T09:13:41Z</time>
      </trkpt>
      <trkpt lat="45.92527" lon="6.52972">
        <ele>2454</ele>
        <time>2017-08-29T09:13:42Z</time>
      </trkpt>
      <trkpt lat="45.92527" lon="6.52972">
        <ele>2454</ele>
        <time>2017-08-29T09:13:43Z</time>
      </trkpt>
      <trkpt lat="45.92527" lon="6.52972">
        <ele>2454</ele>
        <time>2017-08-29T09:13:44Z</time>
      </trkpt>
      <trkpt lat="45.92527" lon="6.52972">
        <ele>2455</ele>
        <time>2017-08-29T09:13:45Z</time>
      </trkpt>
      <trkpt lat="45.92527" lon="6.52972">
        <ele>2455</ele>
        <time>2017-08-29T09:13:46Z</time>
      </trkpt>
      <trkpt lat="45.92527" lon="6.52972">
        <ele>2455</ele>
        <time>2017-08-29T09:13:47Z</time>
      </trkpt>
      <trkpt lat="45.92527" lon="6.52972">
        <ele>2455</ele>
        <time>2017-08-29T09:13:48Z</time>
      </trkpt>
      <trkpt lat="45.92527" lon="6.52972">
        <ele>2455</ele>
        <time>2017-08-29T09:13:49Z</time>
      </trkpt>
      <trkpt lat="45.92527" lon="6.52972">
        <ele>2455</ele>
        <time>2017-08-29T09:13:50Z</time>
      </trkpt>
      <trkpt lat="45.92527" lon="6.52972">
        <ele>2455</ele>
        <time>2017-08-29T09:13:51Z</time>
      </trkpt>
      <trkpt lat="45.92527" lon="6.52972">
        <ele>2455</ele>
        <time>2017-08-29T09:13:52Z</time>
      </trkpt>
      <trkpt lat="45.92527" lon="6.52972">
        <ele>2456</ele>
        <time>2017-08-29T09:13:53Z</time>
      </trkpt>
      <trkpt lat="45.92527" lon="6.52972">
        <ele>2456</ele>
        <time>2017-08-29T09:13:54Z</time>
      </trkpt>
      <trkpt lat="45.92527" lon="6.52972">
        <ele>2456</ele>
        <time>2017-08-29T09:13:55Z</time>
      </trkpt>
      <trkpt lat="45.92527" lon="6.52972">
        <ele>2456</ele>
        <time>2017-08-29T09:13:56Z</time>
      </trkpt>
      <trkpt lat="45.92527" lon="6.52972">
        <ele>2456</ele>
        <time>2017-08-29T09:13:57Z</time>
      </trkpt>
      <trkpt lat="45.92527" lon="6.52972">
        <ele>2456</ele>
        <time>2017-08-29T09:13:58Z</time>
      </trkpt>
      <trkpt lat="45.92527" lon="6.52972">
        <ele>2456</ele>
        <time>2017-08-29T09:13:59Z</time>
      </trkpt>
      <trkpt lat="45.92527" lon="6.52972">
        <ele>2456</ele>
        <time>2017-08-29T09:14:00Z</time>
      </trkpt>
      <trkpt lat="45.92527" lon="6.52972">
        <ele>2456</ele>
        <time>2017-08-29T09:14:01Z</time>
      </trkpt>
      <trkpt lat="45.92527" lon="6.52972">
        <ele>2456</ele>
        <time>2017-08-29T09:14:02Z</time>
      </trkpt>
      <trkpt lat="45.92527" lon="6.52972">
        <ele>2456</ele>
        <time>2017-08-29T09:14:03Z</time>
      </trkpt>
      <trkpt lat="45.92527" lon="6.52972">
        <ele>2456</ele>
        <time>2017-08-29T09:14:04Z</time>
      </trkpt>
      <trkpt lat="45.92527" lon="6.52972">
        <ele>2456</ele>
        <time>2017-08-29T09:14:05Z</time>
      </trkpt>
      <trkpt lat="45.92527" lon="6.52972">
        <ele>2456</ele>
        <time>2017-08-29T09:14:06Z</time>
      </trkpt>
      <trkpt lat="45.92527" lon="6.52972">
        <ele>2456</ele>
        <time>2017-08-29T09:14:07Z</time>
      </trkpt>
      <trkpt lat="45.92527" lon="6.52972">
        <ele>2456</ele>
        <time>2017-08-29T09:14:08Z</time>
      </trkpt>
      <trkpt lat="45.92527" lon="6.52972">
        <ele>2456</ele>
        <time>2017-08-29T09:14:09Z</time>
      </trkpt>
      <trkpt lat="45.92527" lon="6.52972">
        <ele>2456</ele>
        <time>2017-08-29T09:14:10Z</time>
      </trkpt>
      <trkpt lat="45.92527" lon="6.52972">
        <ele>2456</ele>
        <time>2017-08-29T09:14:11Z</time>
      </trkpt>
      <trkpt lat="45.92527" lon="6.52972">
        <ele>2456</ele>
        <time>2017-08-29T09:14:12Z</time>
      </trkpt>
      <trkpt lat="45.92527" lon="6.52972">
        <ele>2456</ele>
        <time>2017-08-29T09:14:13Z</time>
      </trkpt>
      <trkpt lat="45.92527" lon="6.52972">
        <ele>2456</ele>
        <time>2017-08-29T09:14:14Z</time>
      </trkpt>
      <trkpt lat="45.92527" lon="6.52972">
        <ele>2456</ele>
        <time>2017-08-29T09:14:15Z</time>
      </trkpt>
      <trkpt lat="45.92528" lon="6.5297">
        <ele>2455</ele>
        <time>2017-08-29T09:14:16Z</time>
      </trkpt>
      <trkpt lat="45.92528" lon="6.5297">
        <ele>2455</ele>
        <time>2017-08-29T09:14:17Z</time>
      </trkpt>
      <trkpt lat="45.92528" lon="6.52966">
        <ele>2455</ele>
        <time>2017-08-29T09:14:18Z</time>
      </trkpt>
      <trkpt lat="45.92528" lon="6.52966">
        <ele>2455</ele>
        <time>2017-08-29T09:14:19Z</time>
      </trkpt>
      <trkpt lat="45.92529" lon="6.52961">
        <ele>2455</ele>
        <time>2017-08-29T09:14:20Z</time>
      </trkpt>
      <trkpt lat="45.92529" lon="6.52961">
        <ele>2455</ele>
        <time>2017-08-29T09:14:21Z</time>
      </trkpt>
      <trkpt lat="45.9253" lon="6.52957">
        <ele>2455</ele>
        <time>2017-08-29T09:14:22Z</time>
      </trkpt>
      <trkpt lat="45.9253" lon="6.52957">
        <ele>2455</ele>
        <time>2017-08-29T09:14:23Z</time>
      </trkpt>
      <trkpt lat="45.92531" lon="6.52953">
        <ele>2456</ele>
        <time>2017-08-29T09:14:24Z</time>
      </trkpt>
      <trkpt lat="45.92531" lon="6.52953">
        <ele>2457</ele>
        <time>2017-08-29T09:14:25Z</time>
      </trkpt>
      <trkpt lat="45.92533" lon="6.52949">
        <ele>2457</ele>
        <time>2017-08-29T09:14:26Z</time>
      </trkpt>
      <trkpt lat="45.92534" lon="6.52947">
        <ele>2457</ele>
        <time>2017-08-29T09:14:27Z</time>
      </trkpt>
      <trkpt lat="45.92534" lon="6.52947">
        <ele>2457</ele>
        <time>2017-08-29T09:14:28Z</time>
      </trkpt>
      <trkpt lat="45.92536" lon="6.52943">
        <ele>2457</ele>
        <time>2017-08-29T09:14:29Z</time>
      </trkpt>
      <trkpt lat="45.92536" lon="6.52943">
        <ele>2457</ele>
        <time>2017-08-29T09:14:30Z</time>
      </trkpt>
      <trkpt lat="45.92537" lon="6.52939">
        <ele>2458</ele>
        <time>2017-08-29T09:14:31Z</time>
      </trkpt>
      <trkpt lat="45.92537" lon="6.52939">
        <ele>2458</ele>
        <time>2017-08-29T09:14:32Z</time>
      </trkpt>
      <trkpt lat="45.92538" lon="6.52934">
        <ele>2458</ele>
        <time>2017-08-29T09:14:33Z</time>
      </trkpt>
      <trkpt lat="45.92538" lon="6.52934">
        <ele>2458</ele>
        <time>2017-08-29T09:14:34Z</time>
      </trkpt>
      <trkpt lat="45.92538" lon="6.52929">
        <ele>2459</ele>
        <time>2017-08-29T09:14:35Z</time>
      </trkpt>
      <trkpt lat="45.92539" lon="6.52926">
        <ele>2459</ele>
        <time>2017-08-29T09:14:36Z</time>
      </trkpt>
      <trkpt lat="45.92539" lon="6.52924">
        <ele>2459</ele>
        <time>2017-08-29T09:14:37Z</time>
      </trkpt>
      <trkpt lat="45.9254" lon="6.52921">
        <ele>2459</ele>
        <time>2017-08-29T09:14:38Z</time>
      </trkpt>
      <trkpt lat="45.92541" lon="6.52918">
        <ele>2459</ele>
        <time>2017-08-29T09:14:39Z</time>
      </trkpt>
      <trkpt lat="45.92541" lon="6.52918">
        <ele>2459</ele>
        <time>2017-08-29T09:14:40Z</time>
      </trkpt>
      <trkpt lat="45.92542" lon="6.52914">
        <ele>2461</ele>
        <time>2017-08-29T09:14:41Z</time>
      </trkpt>
      <trkpt lat="45.92542" lon="6.52914">
        <ele>2461</ele>
        <time>2017-08-29T09:14:42Z</time>
      </trkpt>
      <trkpt lat="45.92543" lon="6.5291">
        <ele>2461</ele>
        <time>2017-08-29T09:14:43Z</time>
      </trkpt>
      <trkpt lat="45.92543" lon="6.5291">
        <ele>2461</ele>
        <time>2017-08-29T09:14:44Z</time>
      </trkpt>
      <trkpt lat="45.92544" lon="6.52907">
        <ele>2461</ele>
        <time>2017-08-29T09:14:45Z</time>
      </trkpt>
      <trkpt lat="45.92544" lon="6.52907">
        <ele>2461</ele>
        <time>2017-08-29T09:14:46Z</time>
      </trkpt>
      <trkpt lat="45.92546" lon="6.52903">
        <ele>2461</ele>
        <time>2017-08-29T09:14:47Z</time>
      </trkpt>
      <trkpt lat="45.92546" lon="6.52903">
        <ele>2461</ele>
        <time>2017-08-29T09:14:48Z</time>
      </trkpt>
      <trkpt lat="45.92547" lon="6.529">
        <ele>2461</ele>
        <time>2017-08-29T09:14:49Z</time>
      </trkpt>
      <trkpt lat="45.92547" lon="6.529">
        <ele>2461</ele>
        <time>2017-08-29T09:14:50Z</time>
      </trkpt>
      <trkpt lat="45.92548" lon="6.52895">
        <ele>2462</ele>
        <time>2017-08-29T09:14:51Z</time>
      </trkpt>
      <trkpt lat="45.92548" lon="6.52895">
        <ele>2462</ele>
        <time>2017-08-29T09:14:52Z</time>
      </trkpt>
      <trkpt lat="45.92549" lon="6.52891">
        <ele>2462</ele>
        <time>2017-08-29T09:14:53Z</time>
      </trkpt>
      <trkpt lat="45.9255" lon="6.52889">
        <ele>2462</ele>
        <time>2017-08-29T09:14:54Z</time>
      </trkpt>
      <trkpt lat="45.9255" lon="6.52886">
        <ele>2462</ele>
        <time>2017-08-29T09:14:55Z</time>
      </trkpt>
      <trkpt lat="45.9255" lon="6.52886">
        <ele>2462</ele>
        <time>2017-08-29T09:14:56Z</time>
      </trkpt>
      <trkpt lat="45.92551" lon="6.52881">
        <ele>2462</ele>
        <time>2017-08-29T09:14:57Z</time>
      </trkpt>
      <trkpt lat="45.92551" lon="6.52878">
        <ele>2462</ele>
        <time>2017-08-29T09:14:58Z</time>
      </trkpt>
      <trkpt lat="45.92551" lon="6.52875">
        <ele>2461</ele>
        <time>2017-08-29T09:14:59Z</time>
      </trkpt>
      <trkpt lat="45.92552" lon="6.52872">
        <ele>2461</ele>
        <time>2017-08-29T09:15:00Z</time>
      </trkpt>
      <trkpt lat="45.92552" lon="6.52869">
        <ele>2461</ele>
        <time>2017-08-29T09:15:01Z</time>
      </trkpt>
      <trkpt lat="45.92552" lon="6.52866">
        <ele>2462</ele>
        <time>2017-08-29T09:15:02Z</time>
      </trkpt>
      <trkpt lat="45.92553" lon="6.52863">
        <ele>2462</ele>
        <time>2017-08-29T09:15:03Z</time>
      </trkpt>
      <trkpt lat="45.92553" lon="6.52861">
        <ele>2462</ele>
        <time>2017-08-29T09:15:04Z</time>
      </trkpt>
      <trkpt lat="45.92553" lon="6.52861">
        <ele>2462</ele>
        <time>2017-08-29T09:15:05Z</time>
      </trkpt>
      <trkpt lat="45.92554" lon="6.52856">
        <ele>2462</ele>
        <time>2017-08-29T09:15:06Z</time>
      </trkpt>
      <trkpt lat="45.92555" lon="6.52854">
        <ele>2462</ele>
        <time>2017-08-29T09:15:07Z</time>
      </trkpt>
      <trkpt lat="45.92555" lon="6.52854">
        <ele>2463</ele>
        <time>2017-08-29T09:15:08Z</time>
      </trkpt>
      <trkpt lat="45.92556" lon="6.52849">
        <ele>2463</ele>
        <time>2017-08-29T09:15:09Z</time>
      </trkpt>
      <trkpt lat="45.92556" lon="6.52849">
        <ele>2463</ele>
        <time>2017-08-29T09:15:10Z</time>
      </trkpt>
      <trkpt lat="45.92558" lon="6.52845">
        <ele>2463</ele>
        <time>2017-08-29T09:15:11Z</time>
      </trkpt>
      <trkpt lat="45.92558" lon="6.52845">
        <ele>2463</ele>
        <time>2017-08-29T09:15:12Z</time>
      </trkpt>
      <trkpt lat="45.9256" lon="6.52841">
        <ele>2463</ele>
        <time>2017-08-29T09:15:13Z</time>
      </trkpt>
      <trkpt lat="45.9256" lon="6.52841">
        <ele>2463</ele>
        <time>2017-08-29T09:15:14Z</time>
      </trkpt>
      <trkpt lat="45.92561" lon="6.52837">
        <ele>2463</ele>
        <time>2017-08-29T09:15:15Z</time>
      </trkpt>
      <trkpt lat="45.92562" lon="6.52834">
        <ele>2463</ele>
        <time>2017-08-29T09:15:16Z</time>
      </trkpt>
      <trkpt lat="45.92563" lon="6.52832">
        <ele>2463</ele>
        <time>2017-08-29T09:15:17Z</time>
      </trkpt>
      <trkpt lat="45.92563" lon="6.52829">
        <ele>2463</ele>
        <time>2017-08-29T09:15:18Z</time>
      </trkpt>
      <trkpt lat="45.92563" lon="6.52829">
        <ele>2463</ele>
        <time>2017-08-29T09:15:19Z</time>
      </trkpt>
      <trkpt lat="45.92565" lon="6.52824">
        <ele>2463</ele>
        <time>2017-08-29T09:15:20Z</time>
      </trkpt>
      <trkpt lat="45.92565" lon="6.52824">
        <ele>2463</ele>
        <time>2017-08-29T09:15:21Z</time>
      </trkpt>
      <trkpt lat="45.92566" lon="6.5282">
        <ele>2464</ele>
        <time>2017-08-29T09:15:22Z</time>
      </trkpt>
      <trkpt lat="45.92566" lon="6.5282">
        <ele>2464</ele>
        <time>2017-08-29T09:15:23Z</time>
      </trkpt>
      <trkpt lat="45.92568" lon="6.52816">
        <ele>2464</ele>
        <time>2017-08-29T09:15:24Z</time>
      </trkpt>
      <trkpt lat="45.92568" lon="6.52816">
        <ele>2464</ele>
        <time>2017-08-29T09:15:25Z</time>
      </trkpt>
      <trkpt lat="45.9257" lon="6.52813">
        <ele>2464</ele>
        <time>2017-08-29T09:15:26Z</time>
      </trkpt>
      <trkpt lat="45.92571" lon="6.52811">
        <ele>2464</ele>
        <time>2017-08-29T09:15:27Z</time>
      </trkpt>
      <trkpt lat="45.92572" lon="6.52808">
        <ele>2464</ele>
        <time>2017-08-29T09:15:28Z</time>
      </trkpt>
      <trkpt lat="45.92573" lon="6.52805">
        <ele>2464</ele>
        <time>2017-08-29T09:15:29Z</time>
      </trkpt>
      <trkpt lat="45.92573" lon="6.52805">
        <ele>2464</ele>
        <time>2017-08-29T09:15:30Z</time>
      </trkpt>
      <trkpt lat="45.92575" lon="6.52801">
        <ele>2464</ele>
        <time>2017-08-29T09:15:31Z</time>
      </trkpt>
      <trkpt lat="45.92575" lon="6.52801">
        <ele>2464</ele>
        <time>2017-08-29T09:15:32Z</time>
      </trkpt>
      <trkpt lat="45.92576" lon="6.52796">
        <ele>2464</ele>
        <time>2017-08-29T09:15:33Z</time>
      </trkpt>
      <trkpt lat="45.92577" lon="6.52794">
        <ele>2464</ele>
        <time>2017-08-29T09:15:34Z</time>
      </trkpt>
      <trkpt lat="45.92578" lon="6.52791">
        <ele>2464</ele>
        <time>2017-08-29T09:15:35Z</time>
      </trkpt>
      <trkpt lat="45.92578" lon="6.52791">
        <ele>2465</ele>
        <time>2017-08-29T09:15:36Z</time>
      </trkpt>
      <trkpt lat="45.92579" lon="6.52787">
        <ele>2465</ele>
        <time>2017-08-29T09:15:37Z</time>
      </trkpt>
      <trkpt lat="45.92579" lon="6.52787">
        <ele>2465</ele>
        <time>2017-08-29T09:15:38Z</time>
      </trkpt>
      <trkpt lat="45.9258" lon="6.52783">
        <ele>2465</ele>
        <time>2017-08-29T09:15:39Z</time>
      </trkpt>
      <trkpt lat="45.92581" lon="6.5278">
        <ele>2465</ele>
        <time>2017-08-29T09:15:40Z</time>
      </trkpt>
      <trkpt lat="45.92582" lon="6.52778">
        <ele>2465</ele>
        <time>2017-08-29T09:15:41Z</time>
      </trkpt>
      <trkpt lat="45.92584" lon="6.52776">
        <ele>2465</ele>
        <time>2017-08-29T09:15:42Z</time>
      </trkpt>
      <trkpt lat="45.92584" lon="6.52776">
        <ele>2465</ele>
        <time>2017-08-29T09:15:43Z</time>
      </trkpt>
      <trkpt lat="45.92586" lon="6.52772">
        <ele>2465</ele>
        <time>2017-08-29T09:15:44Z</time>
      </trkpt>
      <trkpt lat="45.92586" lon="6.52772">
        <ele>2465</ele>
        <time>2017-08-29T09:15:45Z</time>
      </trkpt>
      <trkpt lat="45.92588" lon="6.52769">
        <ele>2465</ele>
        <time>2017-08-29T09:15:46Z</time>
      </trkpt>
      <trkpt lat="45.92588" lon="6.52769">
        <ele>2465</ele>
        <time>2017-08-29T09:15:47Z</time>
      </trkpt>
      <trkpt lat="45.92589" lon="6.52765">
        <ele>2465</ele>
        <time>2017-08-29T09:15:48Z</time>
      </trkpt>
      <trkpt lat="45.92589" lon="6.52765">
        <ele>2466</ele>
        <time>2017-08-29T09:15:49Z</time>
      </trkpt>
      <trkpt lat="45.9259" lon="6.52762">
        <ele>2466</ele>
        <time>2017-08-29T09:15:50Z</time>
      </trkpt>
      <trkpt lat="45.9259" lon="6.52762">
        <ele>2467</ele>
        <time>2017-08-29T09:15:51Z</time>
      </trkpt>
      <trkpt lat="45.92591" lon="6.52759">
        <ele>2467</ele>
        <time>2017-08-29T09:15:52Z</time>
      </trkpt>
      <trkpt lat="45.92591" lon="6.52759">
        <ele>2467</ele>
        <time>2017-08-29T09:15:53Z</time>
      </trkpt>
      <trkpt lat="45.92592" lon="6.52755">
        <ele>2467</ele>
        <time>2017-08-29T09:15:54Z</time>
      </trkpt>
      <trkpt lat="45.92592" lon="6.52755">
        <ele>2467</ele>
        <time>2017-08-29T09:15:55Z</time>
      </trkpt>
      <trkpt lat="45.92593" lon="6.5275">
        <ele>2467</ele>
        <time>2017-08-29T09:15:56Z</time>
      </trkpt>
      <trkpt lat="45.92594" lon="6.52747">
        <ele>2468</ele>
        <time>2017-08-29T09:15:57Z</time>
      </trkpt>
      <trkpt lat="45.92594" lon="6.52745">
        <ele>2468</ele>
        <time>2017-08-29T09:15:58Z</time>
      </trkpt>
      <trkpt lat="45.92595" lon="6.52742">
        <ele>2468</ele>
        <time>2017-08-29T09:15:59Z</time>
      </trkpt>
      <trkpt lat="45.92595" lon="6.52742">
        <ele>2468</ele>
        <time>2017-08-29T09:16:00Z</time>
      </trkpt>
      <trkpt lat="45.92597" lon="6.52738">
        <ele>2468</ele>
        <time>2017-08-29T09:16:01Z</time>
      </trkpt>
      <trkpt lat="45.92597" lon="6.52738">
        <ele>2468</ele>
        <time>2017-08-29T09:16:02Z</time>
      </trkpt>
      <trkpt lat="45.92598" lon="6.52735">
        <ele>2468</ele>
        <time>2017-08-29T09:16:03Z</time>
      </trkpt>
      <trkpt lat="45.92598" lon="6.52735">
        <ele>2469</ele>
        <time>2017-08-29T09:16:04Z</time>
      </trkpt>
      <trkpt lat="45.926" lon="6.52731">
        <ele>2469</ele>
        <time>2017-08-29T09:16:05Z</time>
      </trkpt>
      <trkpt lat="45.926" lon="6.52731">
        <ele>2469</ele>
        <time>2017-08-29T09:16:06Z</time>
      </trkpt>
      <trkpt lat="45.92601" lon="6.52728">
        <ele>2469</ele>
        <time>2017-08-29T09:16:07Z</time>
      </trkpt>
      <trkpt lat="45.92601" lon="6.52728">
        <ele>2470</ele>
        <time>2017-08-29T09:16:08Z</time>
      </trkpt>
      <trkpt lat="45.92602" lon="6.52725">
        <ele>2470</ele>
        <time>2017-08-29T09:16:09Z</time>
      </trkpt>
      <trkpt lat="45.92602" lon="6.52725">
        <ele>2470</ele>
        <time>2017-08-29T09:16:10Z</time>
      </trkpt>
      <trkpt lat="45.92602" lon="6.52725">
        <ele>2470</ele>
        <time>2017-08-29T09:16:11Z</time>
      </trkpt>
      <trkpt lat="45.92604" lon="6.52722">
        <ele>2470</ele>
        <time>2017-08-29T09:16:12Z</time>
      </trkpt>
      <trkpt lat="45.92604" lon="6.52722">
        <ele>2470</ele>
        <time>2017-08-29T09:16:13Z</time>
      </trkpt>
      <trkpt lat="45.92605" lon="6.5272">
        <ele>2471</ele>
        <time>2017-08-29T09:16:14Z</time>
      </trkpt>
      <trkpt lat="45.92605" lon="6.5272">
        <ele>2471</ele>
        <time>2017-08-29T09:16:15Z</time>
      </trkpt>
      <trkpt lat="45.92607" lon="6.52718">
        <ele>2471</ele>
        <time>2017-08-29T09:16:16Z</time>
      </trkpt>
      <trkpt lat="45.92607" lon="6.52718">
        <ele>2472</ele>
        <time>2017-08-29T09:16:17Z</time>
      </trkpt>
      <trkpt lat="45.92608" lon="6.52716">
        <ele>2472</ele>
        <time>2017-08-29T09:16:18Z</time>
      </trkpt>
      <trkpt lat="45.92608" lon="6.52716">
        <ele>2472</ele>
        <time>2017-08-29T09:16:19Z</time>
      </trkpt>
      <trkpt lat="45.92608" lon="6.52716">
        <ele>2472</ele>
        <time>2017-08-29T09:16:20Z</time>
      </trkpt>
      <trkpt lat="45.9261" lon="6.52713">
        <ele>2472</ele>
        <time>2017-08-29T09:16:21Z</time>
      </trkpt>
      <trkpt lat="45.9261" lon="6.52713">
        <ele>2472</ele>
        <time>2017-08-29T09:16:22Z</time>
      </trkpt>
      <trkpt lat="45.9261" lon="6.52713">
        <ele>2472</ele>
        <time>2017-08-29T09:16:23Z</time>
      </trkpt>
      <trkpt lat="45.92611" lon="6.52711">
        <ele>2473</ele>
        <time>2017-08-29T09:16:24Z</time>
      </trkpt>
      <trkpt lat="45.92611" lon="6.52711">
        <ele>2474</ele>
        <time>2017-08-29T09:16:25Z</time>
      </trkpt>
      <trkpt lat="45.92611" lon="6.52711">
        <ele>2474</ele>
        <time>2017-08-29T09:16:26Z</time>
      </trkpt>
      <trkpt lat="45.92612" lon="6.52708">
        <ele>2474</ele>
        <time>2017-08-29T09:16:27Z</time>
      </trkpt>
      <trkpt lat="45.92612" lon="6.52708">
        <ele>2475</ele>
        <time>2017-08-29T09:16:28Z</time>
      </trkpt>
      <trkpt lat="45.92612" lon="6.52708">
        <ele>2475</ele>
        <time>2017-08-29T09:16:29Z</time>
      </trkpt>
      <trkpt lat="45.92613" lon="6.52706">
        <ele>2475</ele>
        <time>2017-08-29T09:16:30Z</time>
      </trkpt>
      <trkpt lat="45.92613" lon="6.52706">
        <ele>2475</ele>
        <time>2017-08-29T09:16:31Z</time>
      </trkpt>
      <trkpt lat="45.92613" lon="6.52706">
        <ele>2476</ele>
        <time>2017-08-29T09:16:32Z</time>
      </trkpt>
      <trkpt lat="45.92615" lon="6.52703">
        <ele>2476</ele>
        <time>2017-08-29T09:16:33Z</time>
      </trkpt>
      <trkpt lat="45.92615" lon="6.52703">
        <ele>2476</ele>
        <time>2017-08-29T09:16:34Z</time>
      </trkpt>
      <trkpt lat="45.92615" lon="6.52703">
        <ele>2476</ele>
        <time>2017-08-29T09:16:35Z</time>
      </trkpt>
      <trkpt lat="45.92615" lon="6.52703">
        <ele>2477</ele>
        <time>2017-08-29T09:16:36Z</time>
      </trkpt>
      <trkpt lat="45.92616" lon="6.52702">
        <ele>2477</ele>
        <time>2017-08-29T09:16:37Z</time>
      </trkpt>
      <trkpt lat="45.92616" lon="6.52702">
        <ele>2477</ele>
        <time>2017-08-29T09:16:38Z</time>
      </trkpt>
      <trkpt lat="45.92616" lon="6.52702">
        <ele>2477</ele>
        <time>2017-08-29T09:16:39Z</time>
      </trkpt>
      <trkpt lat="45.92618" lon="6.52699">
        <ele>2477</ele>
        <time>2017-08-29T09:16:40Z</time>
      </trkpt>
      <trkpt lat="45.92618" lon="6.52699">
        <ele>2477</ele>
        <time>2017-08-29T09:16:41Z</time>
      </trkpt>
      <trkpt lat="45.92618" lon="6.52699">
        <ele>2477</ele>
        <time>2017-08-29T09:16:42Z</time>
      </trkpt>
      <trkpt lat="45.92619" lon="6.52696">
        <ele>2478</ele>
        <time>2017-08-29T09:16:43Z</time>
      </trkpt>
      <trkpt lat="45.92619" lon="6.52696">
        <ele>2478</ele>
        <time>2017-08-29T09:16:44Z</time>
      </trkpt>
      <trkpt lat="45.92619" lon="6.52696">
        <ele>2478</ele>
        <time>2017-08-29T09:16:45Z</time>
      </trkpt>
      <trkpt lat="45.92619" lon="6.52696">
        <ele>2479</ele>
        <time>2017-08-29T09:16:46Z</time>
      </trkpt>
      <trkpt lat="45.92621" lon="6.52696">
        <ele>2479</ele>
        <time>2017-08-29T09:16:47Z</time>
      </trkpt>
      <trkpt lat="45.92621" lon="6.52696">
        <ele>2479</ele>
        <time>2017-08-29T09:16:48Z</time>
      </trkpt>
      <trkpt lat="45.92621" lon="6.52696">
        <ele>2479</ele>
        <time>2017-08-29T09:16:49Z</time>
      </trkpt>
      <trkpt lat="45.92621" lon="6.52696">
        <ele>2479</ele>
        <time>2017-08-29T09:16:50Z</time>
      </trkpt>
      <trkpt lat="45.92622" lon="6.52694">
        <ele>2481</ele>
        <time>2017-08-29T09:16:51Z</time>
      </trkpt>
      <trkpt lat="45.92622" lon="6.52694">
        <ele>2481</ele>
        <time>2017-08-29T09:16:52Z</time>
      </trkpt>
      <trkpt lat="45.92622" lon="6.52694">
        <ele>2481</ele>
        <time>2017-08-29T09:16:53Z</time>
      </trkpt>
      <trkpt lat="45.92622" lon="6.52694">
        <ele>2482</ele>
        <time>2017-08-29T09:16:54Z</time>
      </trkpt>
      <trkpt lat="45.92623" lon="6.52691">
        <ele>2482</ele>
        <time>2017-08-29T09:16:55Z</time>
      </trkpt>
      <trkpt lat="45.92623" lon="6.52691">
        <ele>2483</ele>
        <time>2017-08-29T09:16:56Z</time>
      </trkpt>
      <trkpt lat="45.92623" lon="6.52691">
        <ele>2483</ele>
        <time>2017-08-29T09:16:57Z</time>
      </trkpt>
      <trkpt lat="45.92623" lon="6.52691">
        <ele>2483</ele>
        <time>2017-08-29T09:16:58Z</time>
      </trkpt>
      <trkpt lat="45.92623" lon="6.52691">
        <ele>2483</ele>
        <time>2017-08-29T09:16:59Z</time>
      </trkpt>
      <trkpt lat="45.92624" lon="6.52688">
        <ele>2483</ele>
        <time>2017-08-29T09:17:00Z</time>
      </trkpt>
      <trkpt lat="45.92624" lon="6.52688">
        <ele>2483</ele>
        <time>2017-08-29T09:17:01Z</time>
      </trkpt>
      <trkpt lat="45.92624" lon="6.52688">
        <ele>2483</ele>
        <time>2017-08-29T09:17:02Z</time>
      </trkpt>
      <trkpt lat="45.92624" lon="6.52688">
        <ele>2484</ele>
        <time>2017-08-29T09:17:03Z</time>
      </trkpt>
      <trkpt lat="45.92625" lon="6.52686">
        <ele>2484</ele>
        <time>2017-08-29T09:17:04Z</time>
      </trkpt>
      <trkpt lat="45.92625" lon="6.52686">
        <ele>2484</ele>
        <time>2017-08-29T09:17:05Z</time>
      </trkpt>
      <trkpt lat="45.92625" lon="6.52686">
        <ele>2484</ele>
        <time>2017-08-29T09:17:06Z</time>
      </trkpt>
      <trkpt lat="45.92626" lon="6.52684">
        <ele>2485</ele>
        <time>2017-08-29T09:17:07Z</time>
      </trkpt>
      <trkpt lat="45.92626" lon="6.52684">
        <ele>2485</ele>
        <time>2017-08-29T09:17:08Z</time>
      </trkpt>
      <trkpt lat="45.92626" lon="6.52684">
        <ele>2485</ele>
        <time>2017-08-29T09:17:09Z</time>
      </trkpt>
      <trkpt lat="45.92627" lon="6.52681">
        <ele>2486</ele>
        <time>2017-08-29T09:17:10Z</time>
      </trkpt>
      <trkpt lat="45.92627" lon="6.52681">
        <ele>2486</ele>
        <time>2017-08-29T09:17:11Z</time>
      </trkpt>
      <trkpt lat="45.92627" lon="6.52681">
        <ele>2486</ele>
        <time>2017-08-29T09:17:12Z</time>
      </trkpt>
      <trkpt lat="45.92628" lon="6.52679">
        <ele>2486</ele>
        <time>2017-08-29T09:17:13Z</time>
      </trkpt>
      <trkpt lat="45.92628" lon="6.52679">
        <ele>2486</ele>
        <time>2017-08-29T09:17:14Z</time>
      </trkpt>
      <trkpt lat="45.92628" lon="6.52679">
        <ele>2486</ele>
        <time>2017-08-29T09:17:15Z</time>
      </trkpt>
      <trkpt lat="45.9263" lon="6.52676">
        <ele>2486</ele>
        <time>2017-08-29T09:17:16Z</time>
      </trkpt>
      <trkpt lat="45.9263" lon="6.52676">
        <ele>2486</ele>
        <time>2017-08-29T09:17:17Z</time>
      </trkpt>
      <trkpt lat="45.9263" lon="6.52674">
        <ele>2487</ele>
        <time>2017-08-29T09:17:18Z</time>
      </trkpt>
      <trkpt lat="45.9263" lon="6.52674">
        <ele>2487</ele>
        <time>2017-08-29T09:17:19Z</time>
      </trkpt>
      <trkpt lat="45.9263" lon="6.52674">
        <ele>2487</ele>
        <time>2017-08-29T09:17:20Z</time>
      </trkpt>
      <trkpt lat="45.92631" lon="6.52671">
        <ele>2487</ele>
        <time>2017-08-29T09:17:21Z</time>
      </trkpt>
      <trkpt lat="45.92631" lon="6.52671">
        <ele>2487</ele>
        <time>2017-08-29T09:17:22Z</time>
      </trkpt>
      <trkpt lat="45.92631" lon="6.52671">
        <ele>2487</ele>
        <time>2017-08-29T09:17:23Z</time>
      </trkpt>
      <trkpt lat="45.92632" lon="6.52669">
        <ele>2488</ele>
        <time>2017-08-29T09:17:24Z</time>
      </trkpt>
      <trkpt lat="45.92632" lon="6.52669">
        <ele>2488</ele>
        <time>2017-08-29T09:17:25Z</time>
      </trkpt>
      <trkpt lat="45.92632" lon="6.52669">
        <ele>2488</ele>
        <time>2017-08-29T09:17:26Z</time>
      </trkpt>
      <trkpt lat="45.92634" lon="6.52667">
        <ele>2488</ele>
        <time>2017-08-29T09:17:27Z</time>
      </trkpt>
      <trkpt lat="45.92634" lon="6.52667">
        <ele>2488</ele>
        <time>2017-08-29T09:17:28Z</time>
      </trkpt>
      <trkpt lat="45.92634" lon="6.52667">
        <ele>2489</ele>
        <time>2017-08-29T09:17:29Z</time>
      </trkpt>
      <trkpt lat="45.92635" lon="6.52664">
        <ele>2489</ele>
        <time>2017-08-29T09:17:30Z</time>
      </trkpt>
      <trkpt lat="45.92635" lon="6.52664">
        <ele>2489</ele>
        <time>2017-08-29T09:17:31Z</time>
      </trkpt>
      <trkpt lat="45.92635" lon="6.52664">
        <ele>2489</ele>
        <time>2017-08-29T09:17:32Z</time>
      </trkpt>
      <trkpt lat="45.92635" lon="6.52664">
        <ele>2491</ele>
        <time>2017-08-29T09:17:33Z</time>
      </trkpt>
      <trkpt lat="45.92635" lon="6.52664">
        <ele>2491</ele>
        <time>2017-08-29T09:17:34Z</time>
      </trkpt>
      <trkpt lat="45.92636" lon="6.52662">
        <ele>2491</ele>
        <time>2017-08-29T09:17:35Z</time>
      </trkpt>
      <trkpt lat="45.92636" lon="6.52662">
        <ele>2491</ele>
        <time>2017-08-29T09:17:36Z</time>
      </trkpt>
      <trkpt lat="45.92636" lon="6.52662">
        <ele>2491</ele>
        <time>2017-08-29T09:17:37Z</time>
      </trkpt>
      <trkpt lat="45.92636" lon="6.52662">
        <ele>2492</ele>
        <time>2017-08-29T09:17:38Z</time>
      </trkpt>
      <trkpt lat="45.92637" lon="6.52659">
        <ele>2492</ele>
        <time>2017-08-29T09:17:39Z</time>
      </trkpt>
      <trkpt lat="45.92637" lon="6.52659">
        <ele>2492</ele>
        <time>2017-08-29T09:17:40Z</time>
      </trkpt>
      <trkpt lat="45.92637" lon="6.52659">
        <ele>2493</ele>
        <time>2017-08-29T09:17:41Z</time>
      </trkpt>
      <trkpt lat="45.92637" lon="6.52659">
        <ele>2493</ele>
        <time>2017-08-29T09:17:42Z</time>
      </trkpt>
      <trkpt lat="45.92639" lon="6.52656">
        <ele>2493</ele>
        <time>2017-08-29T09:17:43Z</time>
      </trkpt>
      <trkpt lat="45.92639" lon="6.52656">
        <ele>2494</ele>
        <time>2017-08-29T09:17:44Z</time>
      </trkpt>
      <trkpt lat="45.92639" lon="6.52656">
        <ele>2494</ele>
        <time>2017-08-29T09:17:45Z</time>
      </trkpt>
      <trkpt lat="45.9264" lon="6.52653">
        <ele>2494</ele>
        <time>2017-08-29T09:17:46Z</time>
      </trkpt>
      <trkpt lat="45.9264" lon="6.52653">
        <ele>2494</ele>
        <time>2017-08-29T09:17:47Z</time>
      </trkpt>
      <trkpt lat="45.92641" lon="6.5265">
        <ele>2494</ele>
        <time>2017-08-29T09:17:48Z</time>
      </trkpt>
      <trkpt lat="45.92641" lon="6.5265">
        <ele>2495</ele>
        <time>2017-08-29T09:17:49Z</time>
      </trkpt>
      <trkpt lat="45.92643" lon="6.52647">
        <ele>2495</ele>
        <time>2017-08-29T09:17:50Z</time>
      </trkpt>
      <trkpt lat="45.92643" lon="6.52647">
        <ele>2495</ele>
        <time>2017-08-29T09:17:51Z</time>
      </trkpt>
      <trkpt lat="45.92644" lon="6.52644">
        <ele>2495</ele>
        <time>2017-08-29T09:17:52Z</time>
      </trkpt>
      <trkpt lat="45.92644" lon="6.52644">
        <ele>2496</ele>
        <time>2017-08-29T09:17:53Z</time>
      </trkpt>
      <trkpt lat="45.92645" lon="6.5264">
        <ele>2496</ele>
        <time>2017-08-29T09:17:54Z</time>
      </trkpt>
      <trkpt lat="45.92645" lon="6.5264">
        <ele>2496</ele>
        <time>2017-08-29T09:17:55Z</time>
      </trkpt>
      <trkpt lat="45.92647" lon="6.52636">
        <ele>2496</ele>
        <time>2017-08-29T09:17:56Z</time>
      </trkpt>
      <trkpt lat="45.92647" lon="6.52636">
        <ele>2496</ele>
        <time>2017-08-29T09:17:57Z</time>
      </trkpt>
      <trkpt lat="45.92648" lon="6.52632">
        <ele>2496</ele>
        <time>2017-08-29T09:17:58Z</time>
      </trkpt>
      <trkpt lat="45.92648" lon="6.52632">
        <ele>2496</ele>
        <time>2017-08-29T09:17:59Z</time>
      </trkpt>
      <trkpt lat="45.9265" lon="6.52628">
        <ele>2496</ele>
        <time>2017-08-29T09:18:00Z</time>
      </trkpt>
      <trkpt lat="45.9265" lon="6.52628">
        <ele>2496</ele>
        <time>2017-08-29T09:18:01Z</time>
      </trkpt>
      <trkpt lat="45.92651" lon="6.52626">
        <ele>2497</ele>
        <time>2017-08-29T09:18:02Z</time>
      </trkpt>
      <trkpt lat="45.92651" lon="6.52626">
        <ele>2497</ele>
        <time>2017-08-29T09:18:03Z</time>
      </trkpt>
      <trkpt lat="45.92651" lon="6.52626">
        <ele>2499</ele>
        <time>2017-08-29T09:18:04Z</time>
      </trkpt>
      <trkpt lat="45.92653" lon="6.52623">
        <ele>2499</ele>
        <time>2017-08-29T09:18:05Z</time>
      </trkpt>
      <trkpt lat="45.92653" lon="6.52623">
        <ele>2499</ele>
        <time>2017-08-29T09:18:06Z</time>
      </trkpt>
      <trkpt lat="45.92654" lon="6.52621">
        <ele>2499</ele>
        <time>2017-08-29T09:18:07Z</time>
      </trkpt>
      <trkpt lat="45.92654" lon="6.52621">
        <ele>2499</ele>
        <time>2017-08-29T09:18:08Z</time>
      </trkpt>
      <trkpt lat="45.92655" lon="6.52618">
        <ele>2499</ele>
        <time>2017-08-29T09:18:09Z</time>
      </trkpt>
      <trkpt lat="45.92655" lon="6.52618">
        <ele>2499</ele>
        <time>2017-08-29T09:18:10Z</time>
      </trkpt>
      <trkpt lat="45.92656" lon="6.52615">
        <ele>2499</ele>
        <time>2017-08-29T09:18:11Z</time>
      </trkpt>
      <trkpt lat="45.92656" lon="6.52615">
        <ele>2499</ele>
        <time>2017-08-29T09:18:12Z</time>
      </trkpt>
      <trkpt lat="45.92656" lon="6.52615">
        <ele>2500</ele>
        <time>2017-08-29T09:18:13Z</time>
      </trkpt>
      <trkpt lat="45.92657" lon="6.52612">
        <ele>2500</ele>
        <time>2017-08-29T09:18:14Z</time>
      </trkpt>
      <trkpt lat="45.92657" lon="6.52612">
        <ele>2500</ele>
        <time>2017-08-29T09:18:15Z</time>
      </trkpt>
      <trkpt lat="45.92658" lon="6.52609">
        <ele>2500</ele>
        <time>2017-08-29T09:18:16Z</time>
      </trkpt>
      <trkpt lat="45.92661" lon="6.52604">
        <ele>2500</ele>
        <time>2017-08-29T09:18:17Z</time>
      </trkpt>
      <trkpt lat="45.92663" lon="6.52599">
        <ele>2500</ele>
        <time>2017-08-29T09:18:18Z</time>
      </trkpt>
      <trkpt lat="45.92666" lon="6.52594">
        <ele>2500</ele>
        <time>2017-08-29T09:18:19Z</time>
      </trkpt>
      <trkpt lat="45.92668" lon="6.52589">
        <ele>2500</ele>
        <time>2017-08-29T09:18:20Z</time>
      </trkpt>
      <trkpt lat="45.92671" lon="6.52584">
        <ele>2506</ele>
        <time>2017-08-29T09:35:27Z</time>
      </trkpt>
      <trkpt lat="45.92673" lon="6.52579">
        <ele>2506</ele>
        <time>2017-08-29T09:35:28Z</time>
      </trkpt>
      <trkpt lat="45.92674" lon="6.52579">
        <ele>2506</ele>
        <time>2017-08-29T09:35:29Z</time>
      </trkpt>
      <trkpt lat="45.92674" lon="6.52579">
        <ele>2500</ele>
        <time>2017-08-29T09:35:30Z</time>
      </trkpt>
      <trkpt lat="45.92674" lon="6.52579">
        <ele>2499</ele>
        <time>2017-08-29T09:35:31Z</time>
      </trkpt>
      <trkpt lat="45.92674" lon="6.52576">
        <ele>2501</ele>
        <time>2017-08-29T09:35:32Z</time>
      </trkpt>
      <trkpt lat="45.92674" lon="6.52576">
        <ele>2501</ele>
        <time>2017-08-29T09:35:33Z</time>
      </trkpt>
      <trkpt lat="45.92674" lon="6.52576">
        <ele>2501</ele>
        <time>2017-08-29T09:35:34Z</time>
      </trkpt>
      <trkpt lat="45.92675" lon="6.52573">
        <ele>2501</ele>
        <time>2017-08-29T09:35:35Z</time>
      </trkpt>
      <trkpt lat="45.92675" lon="6.52573">
        <ele>2499</ele>
        <time>2017-08-29T09:35:36Z</time>
      </trkpt>
      <trkpt lat="45.92675" lon="6.52573">
        <ele>2499</ele>
        <time>2017-08-29T09:35:37Z</time>
      </trkpt>
      <trkpt lat="45.92677" lon="6.5257">
        <ele>2499</ele>
        <time>2017-08-29T09:35:38Z</time>
      </trkpt>
      <trkpt lat="45.92677" lon="6.5257">
        <ele>2499</ele>
        <time>2017-08-29T09:35:39Z</time>
      </trkpt>
      <trkpt lat="45.92679" lon="6.52567">
        <ele>2499</ele>
        <time>2017-08-29T09:35:40Z</time>
      </trkpt>
      <trkpt lat="45.92679" lon="6.52567">
        <ele>2500</ele>
        <time>2017-08-29T09:35:41Z</time>
      </trkpt>
      <trkpt lat="45.92681" lon="6.52564">
        <ele>2498</ele>
        <time>2017-08-29T09:35:42Z</time>
      </trkpt>
      <trkpt lat="45.92681" lon="6.52564">
        <ele>2498</ele>
        <time>2017-08-29T09:35:43Z</time>
      </trkpt>
      <trkpt lat="45.92683" lon="6.52561">
        <ele>2498</ele>
        <time>2017-08-29T09:35:44Z</time>
      </trkpt>
      <trkpt lat="45.92683" lon="6.52561">
        <ele>2498</ele>
        <time>2017-08-29T09:35:45Z</time>
      </trkpt>
      <trkpt lat="45.92684" lon="6.52558">
        <ele>2497</ele>
        <time>2017-08-29T09:35:46Z</time>
      </trkpt>
      <trkpt lat="45.92684" lon="6.52558">
        <ele>2497</ele>
        <time>2017-08-29T09:35:47Z</time>
      </trkpt>
      <trkpt lat="45.92684" lon="6.52558">
        <ele>2497</ele>
        <time>2017-08-29T09:35:48Z</time>
      </trkpt>
      <trkpt lat="45.92685" lon="6.52555">
        <ele>2496</ele>
        <time>2017-08-29T09:35:49Z</time>
      </trkpt>
      <trkpt lat="45.92685" lon="6.52555">
        <ele>2495</ele>
        <time>2017-08-29T09:35:50Z</time>
      </trkpt>
      <trkpt lat="45.92685" lon="6.52555">
        <ele>2495</ele>
        <time>2017-08-29T09:35:51Z</time>
      </trkpt>
      <trkpt lat="45.92686" lon="6.52551">
        <ele>2494</ele>
        <time>2017-08-29T09:35:52Z</time>
      </trkpt>
      <trkpt lat="45.92686" lon="6.52551">
        <ele>2494</ele>
        <time>2017-08-29T09:35:53Z</time>
      </trkpt>
      <trkpt lat="45.92686" lon="6.52551">
        <ele>2494</ele>
        <time>2017-08-29T09:35:54Z</time>
      </trkpt>
      <trkpt lat="45.92686" lon="6.52549">
        <ele>2494</ele>
        <time>2017-08-29T09:35:55Z</time>
      </trkpt>
      <trkpt lat="45.92686" lon="6.52549">
        <ele>2493</ele>
        <time>2017-08-29T09:35:56Z</time>
      </trkpt>
      <trkpt lat="45.92686" lon="6.52549">
        <ele>2493</ele>
        <time>2017-08-29T09:35:57Z</time>
      </trkpt>
      <trkpt lat="45.92687" lon="6.52545">
        <ele>2493</ele>
        <time>2017-08-29T09:35:58Z</time>
      </trkpt>
      <trkpt lat="45.92687" lon="6.52545">
        <ele>2493</ele>
        <time>2017-08-29T09:35:59Z</time>
      </trkpt>
      <trkpt lat="45.92688" lon="6.52543">
        <ele>2492</ele>
        <time>2017-08-29T09:36:00Z</time>
      </trkpt>
      <trkpt lat="45.92688" lon="6.52543">
        <ele>2491</ele>
        <time>2017-08-29T09:36:01Z</time>
      </trkpt>
      <trkpt lat="45.92688" lon="6.52543">
        <ele>2491</ele>
        <time>2017-08-29T09:36:02Z</time>
      </trkpt>
      <trkpt lat="45.9269" lon="6.5254">
        <ele>2491</ele>
        <time>2017-08-29T09:36:03Z</time>
      </trkpt>
      <trkpt lat="45.9269" lon="6.5254">
        <ele>2490</ele>
        <time>2017-08-29T09:36:04Z</time>
      </trkpt>
      <trkpt lat="45.9269" lon="6.5254">
        <ele>2490</ele>
        <time>2017-08-29T09:36:05Z</time>
      </trkpt>
      <trkpt lat="45.92691" lon="6.52538">
        <ele>2490</ele>
        <time>2017-08-29T09:36:06Z</time>
      </trkpt>
      <trkpt lat="45.92691" lon="6.52538">
        <ele>2490</ele>
        <time>2017-08-29T09:36:07Z</time>
      </trkpt>
      <trkpt lat="45.92692" lon="6.52535">
        <ele>2490</ele>
        <time>2017-08-29T09:36:08Z</time>
      </trkpt>
      <trkpt lat="45.92692" lon="6.52535">
        <ele>2489</ele>
        <time>2017-08-29T09:36:09Z</time>
      </trkpt>
      <trkpt lat="45.92692" lon="6.52535">
        <ele>2489</ele>
        <time>2017-08-29T09:36:10Z</time>
      </trkpt>
      <trkpt lat="45.92693" lon="6.52532">
        <ele>2489</ele>
        <time>2017-08-29T09:36:11Z</time>
      </trkpt>
      <trkpt lat="45.92693" lon="6.52532">
        <ele>2488</ele>
        <time>2017-08-29T09:36:12Z</time>
      </trkpt>
      <trkpt lat="45.92693" lon="6.52532">
        <ele>2488</ele>
        <time>2017-08-29T09:36:13Z</time>
      </trkpt>
      <trkpt lat="45.92693" lon="6.52532">
        <ele>2488</ele>
        <time>2017-08-29T09:36:14Z</time>
      </trkpt>
      <trkpt lat="45.92694" lon="6.5253">
        <ele>2488</ele>
        <time>2017-08-29T09:36:15Z</time>
      </trkpt>
      <trkpt lat="45.92694" lon="6.5253">
        <ele>2487</ele>
        <time>2017-08-29T09:36:16Z</time>
      </trkpt>
      <trkpt lat="45.92695" lon="6.52527">
        <ele>2486</ele>
        <time>2017-08-29T09:36:17Z</time>
      </trkpt>
      <trkpt lat="45.92695" lon="6.52527">
        <ele>2485</ele>
        <time>2017-08-29T09:36:18Z</time>
      </trkpt>
      <trkpt lat="45.92695" lon="6.52527">
        <ele>2485</ele>
        <time>2017-08-29T09:36:19Z</time>
      </trkpt>
      <trkpt lat="45.92697" lon="6.52525">
        <ele>2485</ele>
        <time>2017-08-29T09:36:20Z</time>
      </trkpt>
      <trkpt lat="45.92697" lon="6.52525">
        <ele>2485</ele>
        <time>2017-08-29T09:36:21Z</time>
      </trkpt>
      <trkpt lat="45.92698" lon="6.52523">
        <ele>2484</ele>
        <time>2017-08-29T09:36:22Z</time>
      </trkpt>
      <trkpt lat="45.92698" lon="6.52523">
        <ele>2484</ele>
        <time>2017-08-29T09:36:23Z</time>
      </trkpt>
      <trkpt lat="45.92698" lon="6.52523">
        <ele>2483</ele>
        <time>2017-08-29T09:36:24Z</time>
      </trkpt>
      <trkpt lat="45.92699" lon="6.5252">
        <ele>2483</ele>
        <time>2017-08-29T09:36:25Z</time>
      </trkpt>
      <trkpt lat="45.92699" lon="6.5252">
        <ele>2483</ele>
        <time>2017-08-29T09:36:26Z</time>
      </trkpt>
      <trkpt lat="45.92699" lon="6.5252">
        <ele>2482</ele>
        <time>2017-08-29T09:36:27Z</time>
      </trkpt>
      <trkpt lat="45.92701" lon="6.52517">
        <ele>2481</ele>
        <time>2017-08-29T09:36:28Z</time>
      </trkpt>
      <trkpt lat="45.92701" lon="6.52517">
        <ele>2481</ele>
        <time>2017-08-29T09:36:29Z</time>
      </trkpt>
      <trkpt lat="45.92703" lon="6.52518">
        <ele>2481</ele>
        <time>2017-08-29T09:36:30Z</time>
      </trkpt>
      <trkpt lat="45.92703" lon="6.52518">
        <ele>2481</ele>
        <time>2017-08-29T09:36:31Z</time>
      </trkpt>
      <trkpt lat="45.92703" lon="6.52518">
        <ele>2481</ele>
        <time>2017-08-29T09:36:32Z</time>
      </trkpt>
      <trkpt lat="45.92703" lon="6.52518">
        <ele>2481</ele>
        <time>2017-08-29T09:36:33Z</time>
      </trkpt>
      <trkpt lat="45.92703" lon="6.52518">
        <ele>2481</ele>
        <time>2017-08-29T09:36:34Z</time>
      </trkpt>
      <trkpt lat="45.92703" lon="6.52518">
        <ele>2481</ele>
        <time>2017-08-29T09:36:35Z</time>
      </trkpt>
      <trkpt lat="45.92703" lon="6.52518">
        <ele>2481</ele>
        <time>2017-08-29T09:36:36Z</time>
      </trkpt>
      <trkpt lat="45.92703" lon="6.52515">
        <ele>2481</ele>
        <time>2017-08-29T09:36:37Z</time>
      </trkpt>
      <trkpt lat="45.92703" lon="6.52515">
        <ele>2481</ele>
        <time>2017-08-29T09:36:38Z</time>
      </trkpt>
      <trkpt lat="45.92705" lon="6.52513">
        <ele>2480</ele>
        <time>2017-08-29T09:36:39Z</time>
      </trkpt>
      <trkpt lat="45.92705" lon="6.52513">
        <ele>2480</ele>
        <time>2017-08-29T09:36:40Z</time>
      </trkpt>
      <trkpt lat="45.92705" lon="6.52513">
        <ele>2480</ele>
        <time>2017-08-29T09:36:41Z</time>
      </trkpt>
      <trkpt lat="45.92706" lon="6.5251">
        <ele>2480</ele>
        <time>2017-08-29T09:36:42Z</time>
      </trkpt>
      <trkpt lat="45.92706" lon="6.5251">
        <ele>2480</ele>
        <time>2017-08-29T09:36:43Z</time>
      </trkpt>
      <trkpt lat="45.92706" lon="6.5251">
        <ele>2479</ele>
        <time>2017-08-29T09:36:44Z</time>
      </trkpt>
      <trkpt lat="45.92705" lon="6.52507">
        <ele>2479</ele>
        <time>2017-08-29T09:36:45Z</time>
      </trkpt>
      <trkpt lat="45.92705" lon="6.52507">
        <ele>2478</ele>
        <time>2017-08-29T09:36:46Z</time>
      </trkpt>
      <trkpt lat="45.92705" lon="6.52507">
        <ele>2477</ele>
        <time>2017-08-29T09:36:47Z</time>
      </trkpt>
      <trkpt lat="45.92705" lon="6.52504">
        <ele>2477</ele>
        <time>2017-08-29T09:36:48Z</time>
      </trkpt>
      <trkpt lat="45.92705" lon="6.52504">
        <ele>2477</ele>
        <time>2017-08-29T09:36:49Z</time>
      </trkpt>
      <trkpt lat="45.92705" lon="6.52504">
        <ele>2477</ele>
        <time>2017-08-29T09:36:50Z</time>
      </trkpt>
      <trkpt lat="45.92706" lon="6.52501">
        <ele>2477</ele>
        <time>2017-08-29T09:36:51Z</time>
      </trkpt>
      <trkpt lat="45.92706" lon="6.52501">
        <ele>2476</ele>
        <time>2017-08-29T09:36:52Z</time>
      </trkpt>
      <trkpt lat="45.92706" lon="6.52501">
        <ele>2475</ele>
        <time>2017-08-29T09:36:53Z</time>
      </trkpt>
      <trkpt lat="45.92707" lon="6.52499">
        <ele>2475</ele>
        <time>2017-08-29T09:36:54Z</time>
      </trkpt>
      <trkpt lat="45.92707" lon="6.52499">
        <ele>2475</ele>
        <time>2017-08-29T09:36:55Z</time>
      </trkpt>
      <trkpt lat="45.92708" lon="6.52496">
        <ele>2475</ele>
        <time>2017-08-29T09:36:56Z</time>
      </trkpt>
      <trkpt lat="45.92708" lon="6.52496">
        <ele>2475</ele>
        <time>2017-08-29T09:36:57Z</time>
      </trkpt>
      <trkpt lat="45.9271" lon="6.52494">
        <ele>2474</ele>
        <time>2017-08-29T09:36:58Z</time>
      </trkpt>
      <trkpt lat="45.9271" lon="6.52494">
        <ele>2474</ele>
        <time>2017-08-29T09:36:59Z</time>
      </trkpt>
      <trkpt lat="45.92711" lon="6.52491">
        <ele>2473</ele>
        <time>2017-08-29T09:37:00Z</time>
      </trkpt>
      <trkpt lat="45.92711" lon="6.52491">
        <ele>2473</ele>
        <time>2017-08-29T09:37:01Z</time>
      </trkpt>
      <trkpt lat="45.92712" lon="6.52489">
        <ele>2473</ele>
        <time>2017-08-29T09:37:03Z</time>
      </trkpt>
      <trkpt lat="45.92712" lon="6.52489">
        <ele>2473</ele>
        <time>2017-08-29T09:37:04Z</time>
      </trkpt>
      <trkpt lat="45.92712" lon="6.52489">
        <ele>2472</ele>
        <time>2017-08-29T09:37:05Z</time>
      </trkpt>
      <trkpt lat="45.92712" lon="6.52489">
        <ele>2473</ele>
        <time>2017-08-29T09:37:06Z</time>
      </trkpt>
      <trkpt lat="45.92712" lon="6.52489">
        <ele>2473</ele>
        <time>2017-08-29T09:37:07Z</time>
      </trkpt>
      <trkpt lat="45.92713" lon="6.52485">
        <ele>2473</ele>
        <time>2017-08-29T09:37:08Z</time>
      </trkpt>
      <trkpt lat="45.92713" lon="6.52485">
        <ele>2473</ele>
        <time>2017-08-29T09:37:09Z</time>
      </trkpt>
      <trkpt lat="45.92715" lon="6.52484">
        <ele>2473</ele>
        <time>2017-08-29T09:37:10Z</time>
      </trkpt>
      <trkpt lat="45.92715" lon="6.52484">
        <ele>2473</ele>
        <time>2017-08-29T09:37:11Z</time>
      </trkpt>
      <trkpt lat="45.92715" lon="6.52484">
        <ele>2473</ele>
        <time>2017-08-29T09:37:12Z</time>
      </trkpt>
      <trkpt lat="45.92717" lon="6.52481">
        <ele>2473</ele>
        <time>2017-08-29T09:37:13Z</time>
      </trkpt>
      <trkpt lat="45.92717" lon="6.52481">
        <ele>2473</ele>
        <time>2017-08-29T09:37:14Z</time>
      </trkpt>
      <trkpt lat="45.92719" lon="6.5248">
        <ele>2473</ele>
        <time>2017-08-29T09:37:15Z</time>
      </trkpt>
      <trkpt lat="45.92719" lon="6.5248">
        <ele>2473</ele>
        <time>2017-08-29T09:37:16Z</time>
      </trkpt>
      <trkpt lat="45.92721" lon="6.52477">
        <ele>2473</ele>
        <time>2017-08-29T09:37:17Z</time>
      </trkpt>
      <trkpt lat="45.92721" lon="6.52477">
        <ele>2473</ele>
        <time>2017-08-29T09:37:18Z</time>
      </trkpt>
      <trkpt lat="45.92723" lon="6.52477">
        <ele>2474</ele>
        <time>2017-08-29T09:37:19Z</time>
      </trkpt>
      <trkpt lat="45.92723" lon="6.52477">
        <ele>2474</ele>
        <time>2017-08-29T09:37:20Z</time>
      </trkpt>
      <trkpt lat="45.92725" lon="6.52474">
        <ele>2474</ele>
        <time>2017-08-29T09:37:21Z</time>
      </trkpt>
      <trkpt lat="45.92725" lon="6.52474">
        <ele>2474</ele>
        <time>2017-08-29T09:37:22Z</time>
      </trkpt>
      <trkpt lat="45.92726" lon="6.52472">
        <ele>2474</ele>
        <time>2017-08-29T09:37:23Z</time>
      </trkpt>
      <trkpt lat="45.92726" lon="6.52472">
        <ele>2474</ele>
        <time>2017-08-29T09:37:24Z</time>
      </trkpt>
      <trkpt lat="45.92726" lon="6.52469">
        <ele>2473</ele>
        <time>2017-08-29T09:37:25Z</time>
      </trkpt>
      <trkpt lat="45.92726" lon="6.52469">
        <ele>2473</ele>
        <time>2017-08-29T09:37:26Z</time>
      </trkpt>
      <trkpt lat="45.92726" lon="6.52469">
        <ele>2473</ele>
        <time>2017-08-29T09:37:27Z</time>
      </trkpt>
      <trkpt lat="45.92727" lon="6.52466">
        <ele>2472</ele>
        <time>2017-08-29T09:37:28Z</time>
      </trkpt>
      <trkpt lat="45.92727" lon="6.52466">
        <ele>2471</ele>
        <time>2017-08-29T09:37:29Z</time>
      </trkpt>
      <trkpt lat="45.92727" lon="6.52466">
        <ele>2471</ele>
        <time>2017-08-29T09:37:30Z</time>
      </trkpt>
      <trkpt lat="45.92727" lon="6.52466">
        <ele>2471</ele>
        <time>2017-08-29T09:37:31Z</time>
      </trkpt>
      <trkpt lat="45.92727" lon="6.52466">
        <ele>2471</ele>
        <time>2017-08-29T09:37:32Z</time>
      </trkpt>
      <trkpt lat="45.92727" lon="6.52466">
        <ele>2471</ele>
        <time>2017-08-29T09:37:33Z</time>
      </trkpt>
      <trkpt lat="45.92729" lon="6.52464">
        <ele>2471</ele>
        <time>2017-08-29T09:37:34Z</time>
      </trkpt>
      <trkpt lat="45.92729" lon="6.52464">
        <ele>2470</ele>
        <time>2017-08-29T09:37:35Z</time>
      </trkpt>
      <trkpt lat="45.92729" lon="6.52464">
        <ele>2470</ele>
        <time>2017-08-29T09:37:36Z</time>
      </trkpt>
      <trkpt lat="45.92729" lon="6.52464">
        <ele>2470</ele>
        <time>2017-08-29T09:37:37Z</time>
      </trkpt>
      <trkpt lat="45.92729" lon="6.52464">
        <ele>2470</ele>
        <time>2017-08-29T09:37:38Z</time>
      </trkpt>
      <trkpt lat="45.92729" lon="6.52464">
        <ele>2470</ele>
        <time>2017-08-29T09:37:39Z</time>
      </trkpt>
      <trkpt lat="45.92729" lon="6.52464">
        <ele>2470</ele>
        <time>2017-08-29T09:37:40Z</time>
      </trkpt>
      <trkpt lat="45.92729" lon="6.52464">
        <ele>2470</ele>
        <time>2017-08-29T09:37:41Z</time>
      </trkpt>
      <trkpt lat="45.92729" lon="6.52464">
        <ele>2470</ele>
        <time>2017-08-29T09:37:42Z</time>
      </trkpt>
      <trkpt lat="45.92729" lon="6.52464">
        <ele>2470</ele>
        <time>2017-08-29T09:37:43Z</time>
      </trkpt>
      <trkpt lat="45.92729" lon="6.52464">
        <ele>2470</ele>
        <time>2017-08-29T09:37:44Z</time>
      </trkpt>
      <trkpt lat="45.92729" lon="6.52464">
        <ele>2470</ele>
        <time>2017-08-29T09:37:45Z</time>
      </trkpt>
      <trkpt lat="45.92729" lon="6.52464">
        <ele>2469</ele>
        <time>2017-08-29T09:37:46Z</time>
      </trkpt>
      <trkpt lat="45.92729" lon="6.52464">
        <ele>2469</ele>
        <time>2017-08-29T09:37:47Z</time>
      </trkpt>
      <trkpt lat="45.92728" lon="6.52461">
        <ele>2469</ele>
        <time>2017-08-29T09:37:48Z</time>
      </trkpt>
      <trkpt lat="45.92728" lon="6.52461">
        <ele>2469</ele>
        <time>2017-08-29T09:37:49Z</time>
      </trkpt>
      <trkpt lat="45.92728" lon="6.52461">
        <ele>2469</ele>
        <time>2017-08-29T09:37:50Z</time>
      </trkpt>
      <trkpt lat="45.92728" lon="6.52461">
        <ele>2469</ele>
        <time>2017-08-29T09:37:51Z</time>
      </trkpt>
      <trkpt lat="45.92727" lon="6.52458">
        <ele>2469</ele>
        <time>2017-08-29T09:37:52Z</time>
      </trkpt>
      <trkpt lat="45.92727" lon="6.52458">
        <ele>2468</ele>
        <time>2017-08-29T09:37:53Z</time>
      </trkpt>
      <trkpt lat="45.92727" lon="6.52458">
        <ele>2467</ele>
        <time>2017-08-29T09:37:54Z</time>
      </trkpt>
      <trkpt lat="45.92727" lon="6.52458">
        <ele>2467</ele>
        <time>2017-08-29T09:37:55Z</time>
      </trkpt>
      <trkpt lat="45.92727" lon="6.52455">
        <ele>2467</ele>
        <time>2017-08-29T09:37:56Z</time>
      </trkpt>
      <trkpt lat="45.92727" lon="6.52455">
        <ele>2466</ele>
        <time>2017-08-29T09:37:57Z</time>
      </trkpt>
      <trkpt lat="45.92727" lon="6.52455">
        <ele>2465</ele>
        <time>2017-08-29T09:37:58Z</time>
      </trkpt>
      <trkpt lat="45.92727" lon="6.52455">
        <ele>2466</ele>
        <time>2017-08-29T09:37:59Z</time>
      </trkpt>
      <trkpt lat="45.92727" lon="6.52455">
        <ele>2466</ele>
        <time>2017-08-29T09:38:00Z</time>
      </trkpt>
      <trkpt lat="45.92726" lon="6.52453">
        <ele>2466</ele>
        <time>2017-08-29T09:38:01Z</time>
      </trkpt>
      <trkpt lat="45.92726" lon="6.52453">
        <ele>2466</ele>
        <time>2017-08-29T09:38:02Z</time>
      </trkpt>
      <trkpt lat="45.92726" lon="6.52453">
        <ele>2465</ele>
        <time>2017-08-29T09:38:03Z</time>
      </trkpt>
      <trkpt lat="45.92725" lon="6.5245">
        <ele>2465</ele>
        <time>2017-08-29T09:38:04Z</time>
      </trkpt>
      <trkpt lat="45.92725" lon="6.5245">
        <ele>2464</ele>
        <time>2017-08-29T09:38:05Z</time>
      </trkpt>
      <trkpt lat="45.92725" lon="6.5245">
        <ele>2463</ele>
        <time>2017-08-29T09:38:06Z</time>
      </trkpt>
      <trkpt lat="45.92724" lon="6.52448">
        <ele>2463</ele>
        <time>2017-08-29T09:38:07Z</time>
      </trkpt>
      <trkpt lat="45.92724" lon="6.52448">
        <ele>2462</ele>
        <time>2017-08-29T09:38:08Z</time>
      </trkpt>
      <trkpt lat="45.92724" lon="6.52448">
        <ele>2462</ele>
        <time>2017-08-29T09:38:09Z</time>
      </trkpt>
      <trkpt lat="45.92724" lon="6.52448">
        <ele>2462</ele>
        <time>2017-08-29T09:38:10Z</time>
      </trkpt>
      <trkpt lat="45.92723" lon="6.52444">
        <ele>2462</ele>
        <time>2017-08-29T09:38:11Z</time>
      </trkpt>
      <trkpt lat="45.92723" lon="6.52444">
        <ele>2461</ele>
        <time>2017-08-29T09:38:12Z</time>
      </trkpt>
      <trkpt lat="45.92723" lon="6.52442">
        <ele>2461</ele>
        <time>2017-08-29T09:38:13Z</time>
      </trkpt>
      <trkpt lat="45.92723" lon="6.52442">
        <ele>2461</ele>
        <time>2017-08-29T09:38:14Z</time>
      </trkpt>
      <trkpt lat="45.92723" lon="6.52442">
        <ele>2460</ele>
        <time>2017-08-29T09:38:15Z</time>
      </trkpt>
      <trkpt lat="45.92723" lon="6.52442">
        <ele>2460</ele>
        <time>2017-08-29T09:38:16Z</time>
      </trkpt>
      <trkpt lat="45.92721" lon="6.52439">
        <ele>2460</ele>
        <time>2017-08-29T09:38:17Z</time>
      </trkpt>
      <trkpt lat="45.92721" lon="6.52439">
        <ele>2460</ele>
        <time>2017-08-29T09:38:18Z</time>
      </trkpt>
      <trkpt lat="45.92721" lon="6.52439">
        <ele>2459</ele>
        <time>2017-08-29T09:38:19Z</time>
      </trkpt>
      <trkpt lat="45.92721" lon="6.52439">
        <ele>2459</ele>
        <time>2017-08-29T09:38:20Z</time>
      </trkpt>
      <trkpt lat="45.92721" lon="6.52439">
        <ele>2459</ele>
        <time>2017-08-29T09:38:21Z</time>
      </trkpt>
      <trkpt lat="45.92721" lon="6.52439">
        <ele>2458</ele>
        <time>2017-08-29T09:38:22Z</time>
      </trkpt>
      <trkpt lat="45.92721" lon="6.52439">
        <ele>2457</ele>
        <time>2017-08-29T09:38:23Z</time>
      </trkpt>
      <trkpt lat="45.9272" lon="6.52436">
        <ele>2458</ele>
        <time>2017-08-29T09:38:24Z</time>
      </trkpt>
      <trkpt lat="45.9272" lon="6.52436">
        <ele>2458</ele>
        <time>2017-08-29T09:38:25Z</time>
      </trkpt>
      <trkpt lat="45.9272" lon="6.52433">
        <ele>2457</ele>
        <time>2017-08-29T09:38:26Z</time>
      </trkpt>
      <trkpt lat="45.9272" lon="6.52433">
        <ele>2456</ele>
        <time>2017-08-29T09:38:27Z</time>
      </trkpt>
      <trkpt lat="45.9272" lon="6.52433">
        <ele>2455</ele>
        <time>2017-08-29T09:38:28Z</time>
      </trkpt>
      <trkpt lat="45.9272" lon="6.5243">
        <ele>2455</ele>
        <time>2017-08-29T09:38:29Z</time>
      </trkpt>
      <trkpt lat="45.9272" lon="6.5243">
        <ele>2455</ele>
        <time>2017-08-29T09:38:30Z</time>
      </trkpt>
      <trkpt lat="45.9272" lon="6.5243">
        <ele>2455</ele>
        <time>2017-08-29T09:38:31Z</time>
      </trkpt>
      <trkpt lat="45.9272" lon="6.5243">
        <ele>2454</ele>
        <time>2017-08-29T09:38:32Z</time>
      </trkpt>
      <trkpt lat="45.9272" lon="6.5243">
        <ele>2454</ele>
        <time>2017-08-29T09:38:33Z</time>
      </trkpt>
      <trkpt lat="45.9272" lon="6.5243">
        <ele>2454</ele>
        <time>2017-08-29T09:38:34Z</time>
      </trkpt>
      <trkpt lat="45.92719" lon="6.52428">
        <ele>2454</ele>
        <time>2017-08-29T09:38:35Z</time>
      </trkpt>
      <trkpt lat="45.92719" lon="6.52428">
        <ele>2454</ele>
        <time>2017-08-29T09:38:36Z</time>
      </trkpt>
      <trkpt lat="45.92719" lon="6.52428">
        <ele>2454</ele>
        <time>2017-08-29T09:38:37Z</time>
      </trkpt>
      <trkpt lat="45.92719" lon="6.52428">
        <ele>2454</ele>
        <time>2017-08-29T09:38:38Z</time>
      </trkpt>
      <trkpt lat="45.92718" lon="6.52424">
        <ele>2454</ele>
        <time>2017-08-29T09:38:39Z</time>
      </trkpt>
      <trkpt lat="45.92718" lon="6.52424">
        <ele>2453</ele>
        <time>2017-08-29T09:38:40Z</time>
      </trkpt>
      <trkpt lat="45.92718" lon="6.52424">
        <ele>2452</ele>
        <time>2017-08-29T09:38:41Z</time>
      </trkpt>
      <trkpt lat="45.92718" lon="6.52422">
        <ele>2452</ele>
        <time>2017-08-29T09:38:42Z</time>
      </trkpt>
      <trkpt lat="45.92718" lon="6.52422">
        <ele>2451</ele>
        <time>2017-08-29T09:38:43Z</time>
      </trkpt>
      <trkpt lat="45.92718" lon="6.52422">
        <ele>2450</ele>
        <time>2017-08-29T09:38:44Z</time>
      </trkpt>
      <trkpt lat="45.92718" lon="6.52422">
        <ele>2450</ele>
        <time>2017-08-29T09:38:45Z</time>
      </trkpt>
      <trkpt lat="45.92718" lon="6.52422">
        <ele>2450</ele>
        <time>2017-08-29T09:38:46Z</time>
      </trkpt>
      <trkpt lat="45.92718" lon="6.52422">
        <ele>2449</ele>
        <time>2017-08-29T09:38:47Z</time>
      </trkpt>
      <trkpt lat="45.92718" lon="6.52422">
        <ele>2450</ele>
        <time>2017-08-29T09:38:48Z</time>
      </trkpt>
      <trkpt lat="45.92718" lon="6.52422">
        <ele>2450</ele>
        <time>2017-08-29T09:38:49Z</time>
      </trkpt>
      <trkpt lat="45.92716" lon="6.52419">
        <ele>2449</ele>
        <time>2017-08-29T09:38:50Z</time>
      </trkpt>
      <trkpt lat="45.92716" lon="6.52419">
        <ele>2449</ele>
        <time>2017-08-29T09:38:51Z</time>
      </trkpt>
      <trkpt lat="45.92716" lon="6.52419">
        <ele>2449</ele>
        <time>2017-08-29T09:38:52Z</time>
      </trkpt>
      <trkpt lat="45.92716" lon="6.52419">
        <ele>2448</ele>
        <time>2017-08-29T09:38:53Z</time>
      </trkpt>
      <trkpt lat="45.92716" lon="6.52419">
        <ele>2448</ele>
        <time>2017-08-29T09:38:54Z</time>
      </trkpt>
      <trkpt lat="45.92716" lon="6.52419">
        <ele>2448</ele>
        <time>2017-08-29T09:38:55Z</time>
      </trkpt>
      <trkpt lat="45.92716" lon="6.52419">
        <ele>2448</ele>
        <time>2017-08-29T09:38:56Z</time>
      </trkpt>
      <trkpt lat="45.92715" lon="6.52416">
        <ele>2448</ele>
        <time>2017-08-29T09:38:57Z</time>
      </trkpt>
      <trkpt lat="45.92715" lon="6.52416">
        <ele>2448</ele>
        <time>2017-08-29T09:38:58Z</time>
      </trkpt>
      <trkpt lat="45.92715" lon="6.52416">
        <ele>2448</ele>
        <time>2017-08-29T09:38:59Z</time>
      </trkpt>
      <trkpt lat="45.92715" lon="6.52414">
        <ele>2447</ele>
        <time>2017-08-29T09:39:00Z</time>
      </trkpt>
      <trkpt lat="45.92715" lon="6.52414">
        <ele>2446</ele>
        <time>2017-08-29T09:39:01Z</time>
      </trkpt>
      <trkpt lat="45.92715" lon="6.52414">
        <ele>2446</ele>
        <time>2017-08-29T09:39:02Z</time>
      </trkpt>
      <trkpt lat="45.92715" lon="6.52411">
        <ele>2446</ele>
        <time>2017-08-29T09:39:03Z</time>
      </trkpt>
      <trkpt lat="45.92715" lon="6.52411">
        <ele>2446</ele>
        <time>2017-08-29T09:39:04Z</time>
      </trkpt>
      <trkpt lat="45.92715" lon="6.52411">
        <ele>2446</ele>
        <time>2017-08-29T09:39:05Z</time>
      </trkpt>
      <trkpt lat="45.92716" lon="6.52408">
        <ele>2445</ele>
        <time>2017-08-29T09:39:06Z</time>
      </trkpt>
      <trkpt lat="45.92716" lon="6.52408">
        <ele>2445</ele>
        <time>2017-08-29T09:39:07Z</time>
      </trkpt>
      <trkpt lat="45.92716" lon="6.52408">
        <ele>2445</ele>
        <time>2017-08-29T09:39:08Z</time>
      </trkpt>
      <trkpt lat="45.92716" lon="6.52408">
        <ele>2444</ele>
        <time>2017-08-29T09:39:09Z</time>
      </trkpt>
      <trkpt lat="45.92716" lon="6.52408">
        <ele>2444</ele>
        <time>2017-08-29T09:39:10Z</time>
      </trkpt>
      <trkpt lat="45.92714" lon="6.52406">
        <ele>2443</ele>
        <time>2017-08-29T09:39:11Z</time>
      </trkpt>
      <trkpt lat="45.92714" lon="6.52406">
        <ele>2443</ele>
        <time>2017-08-29T09:39:12Z</time>
      </trkpt>
      <trkpt lat="45.92714" lon="6.52406">
        <ele>2442</ele>
        <time>2017-08-29T09:39:13Z</time>
      </trkpt>
      <trkpt lat="45.92714" lon="6.52406">
        <ele>2442</ele>
        <time>2017-08-29T09:39:14Z</time>
      </trkpt>
      <trkpt lat="45.92712" lon="6.52403">
        <ele>2442</ele>
        <time>2017-08-29T09:39:15Z</time>
      </trkpt>
      <trkpt lat="45.92712" lon="6.52403">
        <ele>2441</ele>
        <time>2017-08-29T09:39:16Z</time>
      </trkpt>
      <trkpt lat="45.92712" lon="6.524">
        <ele>2441</ele>
        <time>2017-08-29T09:39:17Z</time>
      </trkpt>
      <trkpt lat="45.92712" lon="6.524">
        <ele>2440</ele>
        <time>2017-08-29T09:39:18Z</time>
      </trkpt>
      <trkpt lat="45.92712" lon="6.524">
        <ele>2439</ele>
        <time>2017-08-29T09:39:19Z</time>
      </trkpt>
      <trkpt lat="45.92713" lon="6.52396">
        <ele>2439</ele>
        <time>2017-08-29T09:39:20Z</time>
      </trkpt>
      <trkpt lat="45.92713" lon="6.52396">
        <ele>2439</ele>
        <time>2017-08-29T09:39:21Z</time>
      </trkpt>
      <trkpt lat="45.92713" lon="6.52396">
        <ele>2438</ele>
        <time>2017-08-29T09:39:22Z</time>
      </trkpt>
      <trkpt lat="45.92713" lon="6.52396">
        <ele>2438</ele>
        <time>2017-08-29T09:39:23Z</time>
      </trkpt>
      <trkpt lat="45.92713" lon="6.52396">
        <ele>2438</ele>
        <time>2017-08-29T09:39:24Z</time>
      </trkpt>
      <trkpt lat="45.92712" lon="6.52393">
        <ele>2437</ele>
        <time>2017-08-29T09:39:25Z</time>
      </trkpt>
      <trkpt lat="45.92712" lon="6.52393">
        <ele>2437</ele>
        <time>2017-08-29T09:39:26Z</time>
      </trkpt>
      <trkpt lat="45.92712" lon="6.52393">
        <ele>2437</ele>
        <time>2017-08-29T09:39:27Z</time>
      </trkpt>
      <trkpt lat="45.92712" lon="6.52393">
        <ele>2436</ele>
        <time>2017-08-29T09:39:28Z</time>
      </trkpt>
      <trkpt lat="45.92711" lon="6.52391">
        <ele>2436</ele>
        <time>2017-08-29T09:39:29Z</time>
      </trkpt>
      <trkpt lat="45.92711" lon="6.52391">
        <ele>2436</ele>
        <time>2017-08-29T09:39:30Z</time>
      </trkpt>
      <trkpt lat="45.9271" lon="6.52389">
        <ele>2434</ele>
        <time>2017-08-29T09:39:31Z</time>
      </trkpt>
      <trkpt lat="45.9271" lon="6.52389">
        <ele>2435</ele>
        <time>2017-08-29T09:39:32Z</time>
      </trkpt>
      <trkpt lat="45.92707" lon="6.52389">
        <ele>2435</ele>
        <time>2017-08-29T09:39:33Z</time>
      </trkpt>
      <trkpt lat="45.92707" lon="6.52389">
        <ele>2433</ele>
        <time>2017-08-29T09:39:34Z</time>
      </trkpt>
      <trkpt lat="45.92707" lon="6.52389">
        <ele>2433</ele>
        <time>2017-08-29T09:39:35Z</time>
      </trkpt>
      <trkpt lat="45.92707" lon="6.52389">
        <ele>2434</ele>
        <time>2017-08-29T09:39:36Z</time>
      </trkpt>
      <trkpt lat="45.92707" lon="6.52389">
        <ele>2432</ele>
        <time>2017-08-29T09:39:37Z</time>
      </trkpt>
      <trkpt lat="45.92707" lon="6.52389">
        <ele>2432</ele>
        <time>2017-08-29T09:39:38Z</time>
      </trkpt>
      <trkpt lat="45.92707" lon="6.52389">
        <ele>2432</ele>
        <time>2017-08-29T09:39:39Z</time>
      </trkpt>
      <trkpt lat="45.92707" lon="6.52389">
        <ele>2433</ele>
        <time>2017-08-29T09:39:40Z</time>
      </trkpt>
      <trkpt lat="45.92707" lon="6.52389">
        <ele>2434</ele>
        <time>2017-08-29T09:39:41Z</time>
      </trkpt>
      <trkpt lat="45.92707" lon="6.52389">
        <ele>2434</ele>
        <time>2017-08-29T09:39:42Z</time>
      </trkpt>
      <trkpt lat="45.92707" lon="6.52389">
        <ele>2434</ele>
        <time>2017-08-29T09:39:43Z</time>
      </trkpt>
      <trkpt lat="45.92707" lon="6.52389">
        <ele>2433</ele>
        <time>2017-08-29T09:39:44Z</time>
      </trkpt>
      <trkpt lat="45.92707" lon="6.52389">
        <ele>2433</ele>
        <time>2017-08-29T09:39:45Z</time>
      </trkpt>
      <trkpt lat="45.92706" lon="6.52391">
        <ele>2432</ele>
        <time>2017-08-29T09:39:46Z</time>
      </trkpt>
      <trkpt lat="45.92706" lon="6.52391">
        <ele>2432</ele>
        <time>2017-08-29T09:39:47Z</time>
      </trkpt>
      <trkpt lat="45.92706" lon="6.52391">
        <ele>2431</ele>
        <time>2017-08-29T09:39:48Z</time>
      </trkpt>
      <trkpt lat="45.92706" lon="6.52391">
        <ele>2431</ele>
        <time>2017-08-29T09:39:49Z</time>
      </trkpt>
      <trkpt lat="45.92706" lon="6.52391">
        <ele>2431</ele>
        <time>2017-08-29T09:39:50Z</time>
      </trkpt>
      <trkpt lat="45.92703" lon="6.52391">
        <ele>2431</ele>
        <time>2017-08-29T09:39:51Z</time>
      </trkpt>
      <trkpt lat="45.92703" lon="6.52391">
        <ele>2430</ele>
        <time>2017-08-29T09:39:52Z</time>
      </trkpt>
      <trkpt lat="45.92703" lon="6.52391">
        <ele>2430</ele>
        <time>2017-08-29T09:39:53Z</time>
      </trkpt>
      <trkpt lat="45.92701" lon="6.52391">
        <ele>2430</ele>
        <time>2017-08-29T09:39:54Z</time>
      </trkpt>
      <trkpt lat="45.92701" lon="6.52391">
        <ele>2430</ele>
        <time>2017-08-29T09:39:55Z</time>
      </trkpt>
      <trkpt lat="45.92701" lon="6.52391">
        <ele>2430</ele>
        <time>2017-08-29T09:39:56Z</time>
      </trkpt>
      <trkpt lat="45.92701" lon="6.52389">
        <ele>2430</ele>
        <time>2017-08-29T09:39:57Z</time>
      </trkpt>
      <trkpt lat="45.92701" lon="6.52389">
        <ele>2429</ele>
        <time>2017-08-29T09:39:58Z</time>
      </trkpt>
      <trkpt lat="45.92701" lon="6.52389">
        <ele>2429</ele>
        <time>2017-08-29T09:39:59Z</time>
      </trkpt>
      <trkpt lat="45.92699" lon="6.52386">
        <ele>2428</ele>
        <time>2017-08-29T09:40:00Z</time>
      </trkpt>
      <trkpt lat="45.92699" lon="6.52386">
        <ele>2426</ele>
        <time>2017-08-29T09:40:01Z</time>
      </trkpt>
      <trkpt lat="45.92697" lon="6.52383">
        <ele>2426</ele>
        <time>2017-08-29T09:40:02Z</time>
      </trkpt>
      <trkpt lat="45.92697" lon="6.52383">
        <ele>2425</ele>
        <time>2017-08-29T09:40:03Z</time>
      </trkpt>
      <trkpt lat="45.92697" lon="6.52383">
        <ele>2425</ele>
        <time>2017-08-29T09:40:04Z</time>
      </trkpt>
      <trkpt lat="45.92697" lon="6.52383">
        <ele>2424</ele>
        <time>2017-08-29T09:40:05Z</time>
      </trkpt>
      <trkpt lat="45.92697" lon="6.52383">
        <ele>2425</ele>
        <time>2017-08-29T09:40:06Z</time>
      </trkpt>
      <trkpt lat="45.92697" lon="6.52383">
        <ele>2425</ele>
        <time>2017-08-29T09:40:07Z</time>
      </trkpt>
      <trkpt lat="45.92697" lon="6.52383">
        <ele>2426</ele>
        <time>2017-08-29T09:40:08Z</time>
      </trkpt>
      <trkpt lat="45.92698" lon="6.52379">
        <ele>2426</ele>
        <time>2017-08-29T09:40:09Z</time>
      </trkpt>
      <trkpt lat="45.92698" lon="6.52379">
        <ele>2426</ele>
        <time>2017-08-29T09:40:10Z</time>
      </trkpt>
      <trkpt lat="45.92698" lon="6.52379">
        <ele>2424</ele>
        <time>2017-08-29T09:40:11Z</time>
      </trkpt>
      <trkpt lat="45.92698" lon="6.52377">
        <ele>2423</ele>
        <time>2017-08-29T09:40:12Z</time>
      </trkpt>
      <trkpt lat="45.92698" lon="6.52377">
        <ele>2423</ele>
        <time>2017-08-29T09:40:13Z</time>
      </trkpt>
      <trkpt lat="45.92698" lon="6.52377">
        <ele>2423</ele>
        <time>2017-08-29T09:40:14Z</time>
      </trkpt>
      <trkpt lat="45.92698" lon="6.52377">
        <ele>2423</ele>
        <time>2017-08-29T09:40:15Z</time>
      </trkpt>
      <trkpt lat="45.92698" lon="6.52377">
        <ele>2424</ele>
        <time>2017-08-29T09:40:16Z</time>
      </trkpt>
      <trkpt lat="45.92698" lon="6.52377">
        <ele>2424</ele>
        <time>2017-08-29T09:40:17Z</time>
      </trkpt>
      <trkpt lat="45.92699" lon="6.52373">
        <ele>2422</ele>
        <time>2017-08-29T09:40:18Z</time>
      </trkpt>
      <trkpt lat="45.92699" lon="6.52373">
        <ele>2422</ele>
        <time>2017-08-29T09:40:19Z</time>
      </trkpt>
      <trkpt lat="45.92699" lon="6.52373">
        <ele>2423</ele>
        <time>2017-08-29T09:40:20Z</time>
      </trkpt>
      <trkpt lat="45.92699" lon="6.52373">
        <ele>2423</ele>
        <time>2017-08-29T09:40:21Z</time>
      </trkpt>
      <trkpt lat="45.92699" lon="6.52373">
        <ele>2421</ele>
        <time>2017-08-29T09:40:22Z</time>
      </trkpt>
      <trkpt lat="45.92699" lon="6.52371">
        <ele>2421</ele>
        <time>2017-08-29T09:40:23Z</time>
      </trkpt>
      <trkpt lat="45.92699" lon="6.52371">
        <ele>2422</ele>
        <time>2017-08-29T09:40:24Z</time>
      </trkpt>
      <trkpt lat="45.92699" lon="6.52371">
        <ele>2422</ele>
        <time>2017-08-29T09:40:25Z</time>
      </trkpt>
      <trkpt lat="45.92699" lon="6.52371">
        <ele>2420</ele>
        <time>2017-08-29T09:40:26Z</time>
      </trkpt>
      <trkpt lat="45.92699" lon="6.52367">
        <ele>2420</ele>
        <time>2017-08-29T09:40:27Z</time>
      </trkpt>
      <trkpt lat="45.92699" lon="6.52367">
        <ele>2421</ele>
        <time>2017-08-29T09:40:28Z</time>
      </trkpt>
      <trkpt lat="45.92699" lon="6.52367">
        <ele>2419</ele>
        <time>2017-08-29T09:40:29Z</time>
      </trkpt>
      <trkpt lat="45.92699" lon="6.52367">
        <ele>2419</ele>
        <time>2017-08-29T09:40:30Z</time>
      </trkpt>
      <trkpt lat="45.92699" lon="6.52365">
        <ele>2418</ele>
        <time>2017-08-29T09:40:31Z</time>
      </trkpt>
      <trkpt lat="45.92699" lon="6.52365">
        <ele>2418</ele>
        <time>2017-08-29T09:40:32Z</time>
      </trkpt>
      <trkpt lat="45.92699" lon="6.52365">
        <ele>2418</ele>
        <time>2017-08-29T09:40:33Z</time>
      </trkpt>
      <trkpt lat="45.92699" lon="6.52365">
        <ele>2418</ele>
        <time>2017-08-29T09:40:34Z</time>
      </trkpt>
      <trkpt lat="45.92699" lon="6.52365">
        <ele>2418</ele>
        <time>2017-08-29T09:40:35Z</time>
      </trkpt>
      <trkpt lat="45.92699" lon="6.52365">
        <ele>2419</ele>
        <time>2017-08-29T09:40:36Z</time>
      </trkpt>
      <trkpt lat="45.92699" lon="6.52362">
        <ele>2419</ele>
        <time>2017-08-29T09:40:37Z</time>
      </trkpt>
      <trkpt lat="45.92699" lon="6.52362">
        <ele>2417</ele>
        <time>2017-08-29T09:40:38Z</time>
      </trkpt>
      <trkpt lat="45.92699" lon="6.52362">
        <ele>2417</ele>
        <time>2017-08-29T09:40:39Z</time>
      </trkpt>
      <trkpt lat="45.92699" lon="6.52362">
        <ele>2418</ele>
        <time>2017-08-29T09:40:40Z</time>
      </trkpt>
      <trkpt lat="45.92699" lon="6.52362">
        <ele>2418</ele>
        <time>2017-08-29T09:40:41Z</time>
      </trkpt>
      <trkpt lat="45.92699" lon="6.52362">
        <ele>2418</ele>
        <time>2017-08-29T09:40:42Z</time>
      </trkpt>
      <trkpt lat="45.927" lon="6.52359">
        <ele>2418</ele>
        <time>2017-08-29T09:40:43Z</time>
      </trkpt>
      <trkpt lat="45.927" lon="6.52359">
        <ele>2418</ele>
        <time>2017-08-29T09:40:44Z</time>
      </trkpt>
      <trkpt lat="45.927" lon="6.52359">
        <ele>2418</ele>
        <time>2017-08-29T09:40:45Z</time>
      </trkpt>
      <trkpt lat="45.92701" lon="6.52356">
        <ele>2418</ele>
        <time>2017-08-29T09:40:46Z</time>
      </trkpt>
      <trkpt lat="45.92701" lon="6.52356">
        <ele>2418</ele>
        <time>2017-08-29T09:40:47Z</time>
      </trkpt>
      <trkpt lat="45.92701" lon="6.52353">
        <ele>2416</ele>
        <time>2017-08-29T09:40:48Z</time>
      </trkpt>
      <trkpt lat="45.92701" lon="6.52353">
        <ele>2416</ele>
        <time>2017-08-29T09:40:49Z</time>
      </trkpt>
      <trkpt lat="45.92701" lon="6.52353">
        <ele>2415</ele>
        <time>2017-08-29T09:40:50Z</time>
      </trkpt>
      <trkpt lat="45.92701" lon="6.52353">
        <ele>2415</ele>
        <time>2017-08-29T09:40:51Z</time>
      </trkpt>
      <trkpt lat="45.92699" lon="6.5235">
        <ele>2415</ele>
        <time>2017-08-29T09:40:52Z</time>
      </trkpt>
      <trkpt lat="45.92699" lon="6.5235">
        <ele>2414</ele>
        <time>2017-08-29T09:40:53Z</time>
      </trkpt>
      <trkpt lat="45.92699" lon="6.5235">
        <ele>2413</ele>
        <time>2017-08-29T09:40:54Z</time>
      </trkpt>
      <trkpt lat="45.92701" lon="6.52348">
        <ele>2413</ele>
        <time>2017-08-29T09:40:55Z</time>
      </trkpt>
      <trkpt lat="45.92701" lon="6.52348">
        <ele>2413</ele>
        <time>2017-08-29T09:40:56Z</time>
      </trkpt>
      <trkpt lat="45.92701" lon="6.52348">
        <ele>2413</ele>
        <time>2017-08-29T09:40:57Z</time>
      </trkpt>
      <trkpt lat="45.92701" lon="6.52348">
        <ele>2413</ele>
        <time>2017-08-29T09:40:58Z</time>
      </trkpt>
      <trkpt lat="45.92701" lon="6.52348">
        <ele>2413</ele>
        <time>2017-08-29T09:40:59Z</time>
      </trkpt>
      <trkpt lat="45.927" lon="6.52345">
        <ele>2413</ele>
        <time>2017-08-29T09:41:00Z</time>
      </trkpt>
      <trkpt lat="45.927" lon="6.52345">
        <ele>2412</ele>
        <time>2017-08-29T09:41:01Z</time>
      </trkpt>
      <trkpt lat="45.927" lon="6.52345">
        <ele>2412</ele>
        <time>2017-08-29T09:41:02Z</time>
      </trkpt>
      <trkpt lat="45.927" lon="6.52345">
        <ele>2411</ele>
        <time>2017-08-29T09:41:03Z</time>
      </trkpt>
      <trkpt lat="45.92699" lon="6.52343">
        <ele>2411</ele>
        <time>2017-08-29T09:41:04Z</time>
      </trkpt>
      <trkpt lat="45.92699" lon="6.52343">
        <ele>2410</ele>
        <time>2017-08-29T09:41:05Z</time>
      </trkpt>
      <trkpt lat="45.92699" lon="6.52343">
        <ele>2409</ele>
        <time>2017-08-29T09:41:06Z</time>
      </trkpt>
      <trkpt lat="45.92697" lon="6.52342">
        <ele>2409</ele>
        <time>2017-08-29T09:41:07Z</time>
      </trkpt>
      <trkpt lat="45.92697" lon="6.52342">
        <ele>2409</ele>
        <time>2017-08-29T09:41:08Z</time>
      </trkpt>
      <trkpt lat="45.92697" lon="6.52342">
        <ele>2409</ele>
        <time>2017-08-29T09:41:09Z</time>
      </trkpt>
      <trkpt lat="45.92696" lon="6.52338">
        <ele>2408</ele>
        <time>2017-08-29T09:41:10Z</time>
      </trkpt>
      <trkpt lat="45.92696" lon="6.52338">
        <ele>2408</ele>
        <time>2017-08-29T09:41:11Z</time>
      </trkpt>
      <trkpt lat="45.92697" lon="6.52336">
        <ele>2407</ele>
        <time>2017-08-29T09:41:12Z</time>
      </trkpt>
      <trkpt lat="45.92697" lon="6.52336">
        <ele>2406</ele>
        <time>2017-08-29T09:41:13Z</time>
      </trkpt>
      <trkpt lat="45.92697" lon="6.52336">
        <ele>2406</ele>
        <time>2017-08-29T09:41:14Z</time>
      </trkpt>
      <trkpt lat="45.92699" lon="6.52334">
        <ele>2406</ele>
        <time>2017-08-29T09:41:15Z</time>
      </trkpt>
      <trkpt lat="45.92699" lon="6.52334">
        <ele>2406</ele>
        <time>2017-08-29T09:41:16Z</time>
      </trkpt>
      <trkpt lat="45.92699" lon="6.52334">
        <ele>2406</ele>
        <time>2017-08-29T09:41:17Z</time>
      </trkpt>
      <trkpt lat="45.92697" lon="6.52333">
        <ele>2406</ele>
        <time>2017-08-29T09:41:18Z</time>
      </trkpt>
      <trkpt lat="45.92697" lon="6.52333">
        <ele>2405</ele>
        <time>2017-08-29T09:41:19Z</time>
      </trkpt>
      <trkpt lat="45.92697" lon="6.52333">
        <ele>2405</ele>
        <time>2017-08-29T09:41:20Z</time>
      </trkpt>
      <trkpt lat="45.92696" lon="6.5233">
        <ele>2404</ele>
        <time>2017-08-29T09:41:21Z</time>
      </trkpt>
      <trkpt lat="45.92696" lon="6.5233">
        <ele>2404</ele>
        <time>2017-08-29T09:41:22Z</time>
      </trkpt>
      <trkpt lat="45.92694" lon="6.52328">
        <ele>2404</ele>
        <time>2017-08-29T09:41:23Z</time>
      </trkpt>
      <trkpt lat="45.92694" lon="6.52328">
        <ele>2404</ele>
        <time>2017-08-29T09:41:24Z</time>
      </trkpt>
      <trkpt lat="45.92691" lon="6.52327">
        <ele>2404</ele>
        <time>2017-08-29T09:41:25Z</time>
      </trkpt>
      <trkpt lat="45.92691" lon="6.52327">
        <ele>2403</ele>
        <time>2017-08-29T09:41:26Z</time>
      </trkpt>
      <trkpt lat="45.92691" lon="6.52327">
        <ele>2403</ele>
        <time>2017-08-29T09:41:27Z</time>
      </trkpt>
      <trkpt lat="45.92691" lon="6.52327">
        <ele>2402</ele>
        <time>2017-08-29T09:41:28Z</time>
      </trkpt>
      <trkpt lat="45.92691" lon="6.52327">
        <ele>2402</ele>
        <time>2017-08-29T09:41:29Z</time>
      </trkpt>
      <trkpt lat="45.92691" lon="6.52327">
        <ele>2402</ele>
        <time>2017-08-29T09:41:30Z</time>
      </trkpt>
      <trkpt lat="45.92691" lon="6.52327">
        <ele>2402</ele>
        <time>2017-08-29T09:41:31Z</time>
      </trkpt>
      <trkpt lat="45.92691" lon="6.52327">
        <ele>2401</ele>
        <time>2017-08-29T09:41:32Z</time>
      </trkpt>
      <trkpt lat="45.92691" lon="6.52327">
        <ele>2401</ele>
        <time>2017-08-29T09:41:33Z</time>
      </trkpt>
      <trkpt lat="45.92691" lon="6.52327">
        <ele>2401</ele>
        <time>2017-08-29T09:41:34Z</time>
      </trkpt>
      <trkpt lat="45.92691" lon="6.52327">
        <ele>2401</ele>
        <time>2017-08-29T09:41:35Z</time>
      </trkpt>
      <trkpt lat="45.92691" lon="6.52327">
        <ele>2401</ele>
        <time>2017-08-29T09:41:36Z</time>
      </trkpt>
      <trkpt lat="45.92691" lon="6.52327">
        <ele>2401</ele>
        <time>2017-08-29T09:41:37Z</time>
      </trkpt>
      <trkpt lat="45.92691" lon="6.52327">
        <ele>2401</ele>
        <time>2017-08-29T09:41:38Z</time>
      </trkpt>
      <trkpt lat="45.92692" lon="6.52324">
        <ele>2401</ele>
        <time>2017-08-29T09:41:39Z</time>
      </trkpt>
      <trkpt lat="45.92692" lon="6.52324">
        <ele>2401</ele>
        <time>2017-08-29T09:41:40Z</time>
      </trkpt>
      <trkpt lat="45.92692" lon="6.52324">
        <ele>2401</ele>
        <time>2017-08-29T09:41:41Z</time>
      </trkpt>
      <trkpt lat="45.92692" lon="6.52324">
        <ele>2400</ele>
        <time>2017-08-29T09:41:42Z</time>
      </trkpt>
      <trkpt lat="45.92692" lon="6.52324">
        <ele>2400</ele>
        <time>2017-08-29T09:41:43Z</time>
      </trkpt>
      <trkpt lat="45.92691" lon="6.52321">
        <ele>2399</ele>
        <time>2017-08-29T09:41:44Z</time>
      </trkpt>
      <trkpt lat="45.92691" lon="6.52321">
        <ele>2399</ele>
        <time>2017-08-29T09:41:45Z</time>
      </trkpt>
      <trkpt lat="45.92689" lon="6.52319">
        <ele>2398</ele>
        <time>2017-08-29T09:41:46Z</time>
      </trkpt>
      <trkpt lat="45.92689" lon="6.52319">
        <ele>2398</ele>
        <time>2017-08-29T09:41:47Z</time>
      </trkpt>
      <trkpt lat="45.92688" lon="6.52316">
        <ele>2397</ele>
        <time>2017-08-29T09:41:48Z</time>
      </trkpt>
      <trkpt lat="45.92688" lon="6.52316">
        <ele>2397</ele>
        <time>2017-08-29T09:41:49Z</time>
      </trkpt>
      <trkpt lat="45.92689" lon="6.52313">
        <ele>2397</ele>
        <time>2017-08-29T09:41:50Z</time>
      </trkpt>
      <trkpt lat="45.92689" lon="6.52313">
        <ele>2396</ele>
        <time>2017-08-29T09:41:51Z</time>
      </trkpt>
      <trkpt lat="45.9269" lon="6.52311">
        <ele>2396</ele>
        <time>2017-08-29T09:41:52Z</time>
      </trkpt>
      <trkpt lat="45.9269" lon="6.52311">
        <ele>2396</ele>
        <time>2017-08-29T09:41:53Z</time>
      </trkpt>
      <trkpt lat="45.9269" lon="6.52311">
        <ele>2396</ele>
        <time>2017-08-29T09:41:54Z</time>
      </trkpt>
      <trkpt lat="45.9269" lon="6.52311">
        <ele>2395</ele>
        <time>2017-08-29T09:41:55Z</time>
      </trkpt>
      <trkpt lat="45.9269" lon="6.52311">
        <ele>2395</ele>
        <time>2017-08-29T09:41:56Z</time>
      </trkpt>
      <trkpt lat="45.92691" lon="6.52308">
        <ele>2394</ele>
        <time>2017-08-29T09:41:57Z</time>
      </trkpt>
      <trkpt lat="45.92691" lon="6.52308">
        <ele>2394</ele>
        <time>2017-08-29T09:41:58Z</time>
      </trkpt>
      <trkpt lat="45.92691" lon="6.52308">
        <ele>2394</ele>
        <time>2017-08-29T09:41:59Z</time>
      </trkpt>
      <trkpt lat="45.92691" lon="6.52308">
        <ele>2393</ele>
        <time>2017-08-29T09:42:00Z</time>
      </trkpt>
      <trkpt lat="45.92691" lon="6.52308">
        <ele>2393</ele>
        <time>2017-08-29T09:42:01Z</time>
      </trkpt>
      <trkpt lat="45.92691" lon="6.52308">
        <ele>2393</ele>
        <time>2017-08-29T09:42:02Z</time>
      </trkpt>
      <trkpt lat="45.92689" lon="6.52305">
        <ele>2392</ele>
        <time>2017-08-29T09:42:03Z</time>
      </trkpt>
      <trkpt lat="45.92689" lon="6.52305">
        <ele>2392</ele>
        <time>2017-08-29T09:42:04Z</time>
      </trkpt>
      <trkpt lat="45.9269" lon="6.52303">
        <ele>2392</ele>
        <time>2017-08-29T09:42:05Z</time>
      </trkpt>
      <trkpt lat="45.9269" lon="6.52303">
        <ele>2391</ele>
        <time>2017-08-29T09:42:06Z</time>
      </trkpt>
      <trkpt lat="45.9269" lon="6.523">
        <ele>2391</ele>
        <time>2017-08-29T09:42:07Z</time>
      </trkpt>
      <trkpt lat="45.9269" lon="6.523">
        <ele>2391</ele>
        <time>2017-08-29T09:42:08Z</time>
      </trkpt>
      <trkpt lat="45.9269" lon="6.523">
        <ele>2391</ele>
        <time>2017-08-29T09:42:09Z</time>
      </trkpt>
      <trkpt lat="45.9269" lon="6.523">
        <ele>2390</ele>
        <time>2017-08-29T09:42:10Z</time>
      </trkpt>
      <trkpt lat="45.9269" lon="6.52297">
        <ele>2389</ele>
        <time>2017-08-29T09:42:11Z</time>
      </trkpt>
      <trkpt lat="45.9269" lon="6.52297">
        <ele>2389</ele>
        <time>2017-08-29T09:42:12Z</time>
      </trkpt>
      <trkpt lat="45.9269" lon="6.52297">
        <ele>2389</ele>
        <time>2017-08-29T09:42:13Z</time>
      </trkpt>
      <trkpt lat="45.92689" lon="6.52295">
        <ele>2388</ele>
        <time>2017-08-29T09:42:14Z</time>
      </trkpt>
      <trkpt lat="45.92689" lon="6.52295">
        <ele>2387</ele>
        <time>2017-08-29T09:42:15Z</time>
      </trkpt>
      <trkpt lat="45.92689" lon="6.52295">
        <ele>2387</ele>
        <time>2017-08-29T09:42:16Z</time>
      </trkpt>
      <trkpt lat="45.92689" lon="6.52295">
        <ele>2387</ele>
        <time>2017-08-29T09:42:17Z</time>
      </trkpt>
      <trkpt lat="45.92689" lon="6.52295">
        <ele>2387</ele>
        <time>2017-08-29T09:42:18Z</time>
      </trkpt>
      <trkpt lat="45.92689" lon="6.52295">
        <ele>2387</ele>
        <time>2017-08-29T09:42:19Z</time>
      </trkpt>
      <trkpt lat="45.92689" lon="6.52292">
        <ele>2386</ele>
        <time>2017-08-29T09:42:20Z</time>
      </trkpt>
      <trkpt lat="45.92689" lon="6.52292">
        <ele>2386</ele>
        <time>2017-08-29T09:42:21Z</time>
      </trkpt>
      <trkpt lat="45.92689" lon="6.52292">
        <ele>2386</ele>
        <time>2017-08-29T09:42:22Z</time>
      </trkpt>
      <trkpt lat="45.92687" lon="6.52291">
        <ele>2385</ele>
        <time>2017-08-29T09:42:23Z</time>
      </trkpt>
      <trkpt lat="45.92687" lon="6.52291">
        <ele>2385</ele>
        <time>2017-08-29T09:42:24Z</time>
      </trkpt>
      <trkpt lat="45.92687" lon="6.52291">
        <ele>2385</ele>
        <time>2017-08-29T09:42:25Z</time>
      </trkpt>
      <trkpt lat="45.92685" lon="6.52289">
        <ele>2384</ele>
        <time>2017-08-29T09:42:26Z</time>
      </trkpt>
      <trkpt lat="45.92685" lon="6.52289">
        <ele>2384</ele>
        <time>2017-08-29T09:42:27Z</time>
      </trkpt>
      <trkpt lat="45.92683" lon="6.52287">
        <ele>2383</ele>
        <time>2017-08-29T09:42:28Z</time>
      </trkpt>
      <trkpt lat="45.92683" lon="6.52287">
        <ele>2383</ele>
        <time>2017-08-29T09:42:29Z</time>
      </trkpt>
      <trkpt lat="45.92681" lon="6.52285">
        <ele>2383</ele>
        <time>2017-08-29T09:42:30Z</time>
      </trkpt>
      <trkpt lat="45.92681" lon="6.52285">
        <ele>2383</ele>
        <time>2017-08-29T09:42:31Z</time>
      </trkpt>
      <trkpt lat="45.92679" lon="6.52282">
        <ele>2382</ele>
        <time>2017-08-29T09:42:32Z</time>
      </trkpt>
      <trkpt lat="45.92679" lon="6.52282">
        <ele>2381</ele>
        <time>2017-08-29T09:42:33Z</time>
      </trkpt>
      <trkpt lat="45.92678" lon="6.52279">
        <ele>2380</ele>
        <time>2017-08-29T09:42:34Z</time>
      </trkpt>
      <trkpt lat="45.92678" lon="6.52279">
        <ele>2380</ele>
        <time>2017-08-29T09:42:35Z</time>
      </trkpt>
      <trkpt lat="45.92676" lon="6.52276">
        <ele>2379</ele>
        <time>2017-08-29T09:42:36Z</time>
      </trkpt>
      <trkpt lat="45.92676" lon="6.52276">
        <ele>2377</ele>
        <time>2017-08-29T09:42:37Z</time>
      </trkpt>
      <trkpt lat="45.92676" lon="6.52273">
        <ele>2377</ele>
        <time>2017-08-29T09:42:38Z</time>
      </trkpt>
      <trkpt lat="45.92676" lon="6.52273">
        <ele>2376</ele>
        <time>2017-08-29T09:42:39Z</time>
      </trkpt>
      <trkpt lat="45.92674" lon="6.5227">
        <ele>2375</ele>
        <time>2017-08-29T09:42:40Z</time>
      </trkpt>
      <trkpt lat="45.92674" lon="6.5227">
        <ele>2375</ele>
        <time>2017-08-29T09:42:41Z</time>
      </trkpt>
      <trkpt lat="45.92672" lon="6.52267">
        <ele>2374</ele>
        <time>2017-08-29T09:42:42Z</time>
      </trkpt>
      <trkpt lat="45.92672" lon="6.52267">
        <ele>2373</ele>
        <time>2017-08-29T09:42:43Z</time>
      </trkpt>
      <trkpt lat="45.9267" lon="6.52264">
        <ele>2372</ele>
        <time>2017-08-29T09:42:44Z</time>
      </trkpt>
      <trkpt lat="45.9267" lon="6.52264">
        <ele>2372</ele>
        <time>2017-08-29T09:42:45Z</time>
      </trkpt>
      <trkpt lat="45.9267" lon="6.52264">
        <ele>2372</ele>
        <time>2017-08-29T09:42:46Z</time>
      </trkpt>
      <trkpt lat="45.9267" lon="6.52264">
        <ele>2372</ele>
        <time>2017-08-29T09:42:47Z</time>
      </trkpt>
      <trkpt lat="45.9267" lon="6.52264">
        <ele>2371</ele>
        <time>2017-08-29T09:42:48Z</time>
      </trkpt>
      <trkpt lat="45.9267" lon="6.52264">
        <ele>2371</ele>
        <time>2017-08-29T09:42:49Z</time>
      </trkpt>
      <trkpt lat="45.9267" lon="6.52264">
        <ele>2371</ele>
        <time>2017-08-29T09:42:50Z</time>
      </trkpt>
      <trkpt lat="45.92669" lon="6.52261">
        <ele>2371</ele>
        <time>2017-08-29T09:42:51Z</time>
      </trkpt>
      <trkpt lat="45.92669" lon="6.52261">
        <ele>2371</ele>
        <time>2017-08-29T09:42:52Z</time>
      </trkpt>
      <trkpt lat="45.9267" lon="6.52257">
        <ele>2371</ele>
        <time>2017-08-29T09:42:53Z</time>
      </trkpt>
      <trkpt lat="45.9267" lon="6.52257">
        <ele>2370</ele>
        <time>2017-08-29T09:42:54Z</time>
      </trkpt>
      <trkpt lat="45.92671" lon="6.52253">
        <ele>2369</ele>
        <time>2017-08-29T09:42:55Z</time>
      </trkpt>
      <trkpt lat="45.92671" lon="6.52253">
        <ele>2369</ele>
        <time>2017-08-29T09:42:56Z</time>
      </trkpt>
      <trkpt lat="45.92671" lon="6.52249">
        <ele>2368</ele>
        <time>2017-08-29T09:42:57Z</time>
      </trkpt>
      <trkpt lat="45.92671" lon="6.52249">
        <ele>2368</ele>
        <time>2017-08-29T09:42:58Z</time>
      </trkpt>
      <trkpt lat="45.9267" lon="6.52245">
        <ele>2368</ele>
        <time>2017-08-29T09:42:59Z</time>
      </trkpt>
      <trkpt lat="45.9267" lon="6.52245">
        <ele>2367</ele>
        <time>2017-08-29T09:43:00Z</time>
      </trkpt>
      <trkpt lat="45.9267" lon="6.52242">
        <ele>2365</ele>
        <time>2017-08-29T09:43:01Z</time>
      </trkpt>
      <trkpt lat="45.9267" lon="6.52242">
        <ele>2365</ele>
        <time>2017-08-29T09:43:02Z</time>
      </trkpt>
      <trkpt lat="45.92668" lon="6.52239">
        <ele>2364</ele>
        <time>2017-08-29T09:43:03Z</time>
      </trkpt>
      <trkpt lat="45.92668" lon="6.52239">
        <ele>2363</ele>
        <time>2017-08-29T09:43:04Z</time>
      </trkpt>
      <trkpt lat="45.92667" lon="6.52236">
        <ele>2363</ele>
        <time>2017-08-29T09:43:05Z</time>
      </trkpt>
      <trkpt lat="45.92667" lon="6.52236">
        <ele>2362</ele>
        <time>2017-08-29T09:43:06Z</time>
      </trkpt>
      <trkpt lat="45.92666" lon="6.52233">
        <ele>2361</ele>
        <time>2017-08-29T09:43:07Z</time>
      </trkpt>
      <trkpt lat="45.92666" lon="6.52233">
        <ele>2361</ele>
        <time>2017-08-29T09:43:08Z</time>
      </trkpt>
      <trkpt lat="45.92664" lon="6.52231">
        <ele>2361</ele>
        <time>2017-08-29T09:43:09Z</time>
      </trkpt>
      <trkpt lat="45.92664" lon="6.52231">
        <ele>2360</ele>
        <time>2017-08-29T09:43:10Z</time>
      </trkpt>
      <trkpt lat="45.92662" lon="6.52229">
        <ele>2359</ele>
        <time>2017-08-29T09:43:11Z</time>
      </trkpt>
      <trkpt lat="45.92662" lon="6.52229">
        <ele>2359</ele>
        <time>2017-08-29T09:43:12Z</time>
      </trkpt>
      <trkpt lat="45.92659" lon="6.52227">
        <ele>2358</ele>
        <time>2017-08-29T09:43:13Z</time>
      </trkpt>
      <trkpt lat="45.92659" lon="6.52227">
        <ele>2357</ele>
        <time>2017-08-29T09:43:14Z</time>
      </trkpt>
      <trkpt lat="45.92657" lon="6.52225">
        <ele>2357</ele>
        <time>2017-08-29T09:43:15Z</time>
      </trkpt>
      <trkpt lat="45.92657" lon="6.52225">
        <ele>2357</ele>
        <time>2017-08-29T09:43:16Z</time>
      </trkpt>
      <trkpt lat="45.92657" lon="6.52223">
        <ele>2356</ele>
        <time>2017-08-29T09:43:17Z</time>
      </trkpt>
      <trkpt lat="45.92657" lon="6.52223">
        <ele>2355</ele>
        <time>2017-08-29T09:43:18Z</time>
      </trkpt>
      <trkpt lat="45.92657" lon="6.52223">
        <ele>2355</ele>
        <time>2017-08-29T09:43:19Z</time>
      </trkpt>
      <trkpt lat="45.92657" lon="6.52223">
        <ele>2355</ele>
        <time>2017-08-29T09:43:20Z</time>
      </trkpt>
      <trkpt lat="45.92654" lon="6.52223">
        <ele>2354</ele>
        <time>2017-08-29T09:43:21Z</time>
      </trkpt>
      <trkpt lat="45.92654" lon="6.52223">
        <ele>2354</ele>
        <time>2017-08-29T09:43:22Z</time>
      </trkpt>
      <trkpt lat="45.92652" lon="6.52223">
        <ele>2354</ele>
        <time>2017-08-29T09:43:23Z</time>
      </trkpt>
      <trkpt lat="45.92652" lon="6.52223">
        <ele>2354</ele>
        <time>2017-08-29T09:43:24Z</time>
      </trkpt>
      <trkpt lat="45.92651" lon="6.52225">
        <ele>2353</ele>
        <time>2017-08-29T09:43:25Z</time>
      </trkpt>
      <trkpt lat="45.92651" lon="6.52225">
        <ele>2353</ele>
        <time>2017-08-29T09:43:26Z</time>
      </trkpt>
      <trkpt lat="45.92649" lon="6.52226">
        <ele>2351</ele>
        <time>2017-08-29T09:43:27Z</time>
      </trkpt>
      <trkpt lat="45.92649" lon="6.52226">
        <ele>2350</ele>
        <time>2017-08-29T09:43:28Z</time>
      </trkpt>
      <trkpt lat="45.92646" lon="6.52225">
        <ele>2350</ele>
        <time>2017-08-29T09:43:29Z</time>
      </trkpt>
      <trkpt lat="45.92646" lon="6.52225">
        <ele>2350</ele>
        <time>2017-08-29T09:43:30Z</time>
      </trkpt>
      <trkpt lat="45.92644" lon="6.52223">
        <ele>2349</ele>
        <time>2017-08-29T09:43:31Z</time>
      </trkpt>
      <trkpt lat="45.92644" lon="6.52223">
        <ele>2348</ele>
        <time>2017-08-29T09:43:32Z</time>
      </trkpt>
      <trkpt lat="45.92642" lon="6.52221">
        <ele>2348</ele>
        <time>2017-08-29T09:43:33Z</time>
      </trkpt>
      <trkpt lat="45.9264" lon="6.52221">
        <ele>2347</ele>
        <time>2017-08-29T09:43:34Z</time>
      </trkpt>
      <trkpt lat="45.92638" lon="6.52221">
        <ele>2346</ele>
        <time>2017-08-29T09:43:35Z</time>
      </trkpt>
      <trkpt lat="45.92638" lon="6.52221">
        <ele>2345</ele>
        <time>2017-08-29T09:43:36Z</time>
      </trkpt>
      <trkpt lat="45.92635" lon="6.52222">
        <ele>2344</ele>
        <time>2017-08-29T09:43:37Z</time>
      </trkpt>
      <trkpt lat="45.92635" lon="6.52222">
        <ele>2344</ele>
        <time>2017-08-29T09:43:38Z</time>
      </trkpt>
      <trkpt lat="45.92632" lon="6.52224">
        <ele>2344</ele>
        <time>2017-08-29T09:43:39Z</time>
      </trkpt>
      <trkpt lat="45.92632" lon="6.52224">
        <ele>2343</ele>
        <time>2017-08-29T09:43:40Z</time>
      </trkpt>
      <trkpt lat="45.9263" lon="6.52224">
        <ele>2342</ele>
        <time>2017-08-29T09:43:41Z</time>
      </trkpt>
      <trkpt lat="45.9263" lon="6.52224">
        <ele>2342</ele>
        <time>2017-08-29T09:43:42Z</time>
      </trkpt>
      <trkpt lat="45.9263" lon="6.52224">
        <ele>2342</ele>
        <time>2017-08-29T09:43:43Z</time>
      </trkpt>
      <trkpt lat="45.92629" lon="6.52221">
        <ele>2342</ele>
        <time>2017-08-29T09:43:44Z</time>
      </trkpt>
      <trkpt lat="45.92629" lon="6.52221">
        <ele>2341</ele>
        <time>2017-08-29T09:43:45Z</time>
      </trkpt>
      <trkpt lat="45.92629" lon="6.52221">
        <ele>2340</ele>
        <time>2017-08-29T09:43:46Z</time>
      </trkpt>
      <trkpt lat="45.92627" lon="6.52219">
        <ele>2339</ele>
        <time>2017-08-29T09:43:47Z</time>
      </trkpt>
      <trkpt lat="45.92627" lon="6.52219">
        <ele>2338</ele>
        <time>2017-08-29T09:43:48Z</time>
      </trkpt>
      <trkpt lat="45.92627" lon="6.52219">
        <ele>2338</ele>
        <time>2017-08-29T09:43:49Z</time>
      </trkpt>
      <trkpt lat="45.92624" lon="6.52216">
        <ele>2338</ele>
        <time>2017-08-29T09:43:50Z</time>
      </trkpt>
      <trkpt lat="45.92624" lon="6.52216">
        <ele>2337</ele>
        <time>2017-08-29T09:43:51Z</time>
      </trkpt>
      <trkpt lat="45.92624" lon="6.52216">
        <ele>2336</ele>
        <time>2017-08-29T09:43:52Z</time>
      </trkpt>
      <trkpt lat="45.92622" lon="6.52213">
        <ele>2335</ele>
        <time>2017-08-29T09:43:53Z</time>
      </trkpt>
      <trkpt lat="45.92622" lon="6.52213">
        <ele>2334</ele>
        <time>2017-08-29T09:43:54Z</time>
      </trkpt>
      <trkpt lat="45.9262" lon="6.52211">
        <ele>2334</ele>
        <time>2017-08-29T09:43:55Z</time>
      </trkpt>
      <trkpt lat="45.9262" lon="6.52211">
        <ele>2333</ele>
        <time>2017-08-29T09:43:56Z</time>
      </trkpt>
      <trkpt lat="45.9262" lon="6.52211">
        <ele>2333</ele>
        <time>2017-08-29T09:43:57Z</time>
      </trkpt>
      <trkpt lat="45.9262" lon="6.52207">
        <ele>2332</ele>
        <time>2017-08-29T09:43:58Z</time>
      </trkpt>
      <trkpt lat="45.9262" lon="6.52207">
        <ele>2331</ele>
        <time>2017-08-29T09:43:59Z</time>
      </trkpt>
      <trkpt lat="45.9262" lon="6.52207">
        <ele>2331</ele>
        <time>2017-08-29T09:44:00Z</time>
      </trkpt>
      <trkpt lat="45.9262" lon="6.52204">
        <ele>2331</ele>
        <time>2017-08-29T09:44:01Z</time>
      </trkpt>
      <trkpt lat="45.9262" lon="6.52204">
        <ele>2331</ele>
        <time>2017-08-29T09:44:02Z</time>
      </trkpt>
      <trkpt lat="45.9262" lon="6.52204">
        <ele>2331</ele>
        <time>2017-08-29T09:44:03Z</time>
      </trkpt>
      <trkpt lat="45.9262" lon="6.52204">
        <ele>2330</ele>
        <time>2017-08-29T09:44:04Z</time>
      </trkpt>
      <trkpt lat="45.9262" lon="6.52204">
        <ele>2329</ele>
        <time>2017-08-29T09:44:05Z</time>
      </trkpt>
      <trkpt lat="45.9262" lon="6.52204">
        <ele>2329</ele>
        <time>2017-08-29T09:44:06Z</time>
      </trkpt>
      <trkpt lat="45.9262" lon="6.52204">
        <ele>2329</ele>
        <time>2017-08-29T09:44:07Z</time>
      </trkpt>
      <trkpt lat="45.9262" lon="6.52201">
        <ele>2329</ele>
        <time>2017-08-29T09:44:08Z</time>
      </trkpt>
      <trkpt lat="45.9262" lon="6.52201">
        <ele>2329</ele>
        <time>2017-08-29T09:44:09Z</time>
      </trkpt>
      <trkpt lat="45.9262" lon="6.52201">
        <ele>2329</ele>
        <time>2017-08-29T09:44:10Z</time>
      </trkpt>
      <trkpt lat="45.92617" lon="6.52201">
        <ele>2328</ele>
        <time>2017-08-29T09:44:11Z</time>
      </trkpt>
      <trkpt lat="45.92617" lon="6.52201">
        <ele>2328</ele>
        <time>2017-08-29T09:44:12Z</time>
      </trkpt>
      <trkpt lat="45.92617" lon="6.52201">
        <ele>2327</ele>
        <time>2017-08-29T09:44:13Z</time>
      </trkpt>
      <trkpt lat="45.92617" lon="6.52201">
        <ele>2327</ele>
        <time>2017-08-29T09:44:14Z</time>
      </trkpt>
      <trkpt lat="45.92617" lon="6.52201">
        <ele>2327</ele>
        <time>2017-08-29T09:44:15Z</time>
      </trkpt>
      <trkpt lat="45.92617" lon="6.52201">
        <ele>2327</ele>
        <time>2017-08-29T09:44:16Z</time>
      </trkpt>
      <trkpt lat="45.92617" lon="6.52201">
        <ele>2327</ele>
        <time>2017-08-29T09:44:17Z</time>
      </trkpt>
      <trkpt lat="45.92617" lon="6.52201">
        <ele>2327</ele>
        <time>2017-08-29T09:44:18Z</time>
      </trkpt>
      <trkpt lat="45.92617" lon="6.52201">
        <ele>2327</ele>
        <time>2017-08-29T09:44:19Z</time>
      </trkpt>
      <trkpt lat="45.92617" lon="6.52201">
        <ele>2327</ele>
        <time>2017-08-29T09:44:20Z</time>
      </trkpt>
      <trkpt lat="45.92617" lon="6.52201">
        <ele>2327</ele>
        <time>2017-08-29T09:44:21Z</time>
      </trkpt>
      <trkpt lat="45.92617" lon="6.52201">
        <ele>2327</ele>
        <time>2017-08-29T09:44:22Z</time>
      </trkpt>
      <trkpt lat="45.92617" lon="6.52201">
        <ele>2327</ele>
        <time>2017-08-29T09:44:23Z</time>
      </trkpt>
      <trkpt lat="45.92617" lon="6.52201">
        <ele>2327</ele>
        <time>2017-08-29T09:44:24Z</time>
      </trkpt>
      <trkpt lat="45.92617" lon="6.52201">
        <ele>2325</ele>
        <time>2017-08-29T09:44:25Z</time>
      </trkpt>
      <trkpt lat="45.92615" lon="6.522">
        <ele>2325</ele>
        <time>2017-08-29T09:44:26Z</time>
      </trkpt>
      <trkpt lat="45.92615" lon="6.522">
        <ele>2324</ele>
        <time>2017-08-29T09:44:27Z</time>
      </trkpt>
      <trkpt lat="45.92615" lon="6.522">
        <ele>2324</ele>
        <time>2017-08-29T09:44:28Z</time>
      </trkpt>
      <trkpt lat="45.92612" lon="6.522">
        <ele>2324</ele>
        <time>2017-08-29T09:44:29Z</time>
      </trkpt>
      <trkpt lat="45.92612" lon="6.522">
        <ele>2323</ele>
        <time>2017-08-29T09:44:30Z</time>
      </trkpt>
      <trkpt lat="45.92612" lon="6.522">
        <ele>2323</ele>
        <time>2017-08-29T09:44:31Z</time>
      </trkpt>
      <trkpt lat="45.92612" lon="6.522">
        <ele>2323</ele>
        <time>2017-08-29T09:44:32Z</time>
      </trkpt>
      <trkpt lat="45.92612" lon="6.522">
        <ele>2323</ele>
        <time>2017-08-29T09:44:33Z</time>
      </trkpt>
      <trkpt lat="45.92612" lon="6.522">
        <ele>2323</ele>
        <time>2017-08-29T09:44:34Z</time>
      </trkpt>
      <trkpt lat="45.92612" lon="6.522">
        <ele>2323</ele>
        <time>2017-08-29T09:44:35Z</time>
      </trkpt>
      <trkpt lat="45.92612" lon="6.522">
        <ele>2323</ele>
        <time>2017-08-29T09:44:36Z</time>
      </trkpt>
      <trkpt lat="45.92612" lon="6.522">
        <ele>2323</ele>
        <time>2017-08-29T09:44:37Z</time>
      </trkpt>
      <trkpt lat="45.92612" lon="6.522">
        <ele>2323</ele>
        <time>2017-08-29T09:44:38Z</time>
      </trkpt>
      <trkpt lat="45.92611" lon="6.52202">
        <ele>2323</ele>
        <time>2017-08-29T09:44:39Z</time>
      </trkpt>
      <trkpt lat="45.92611" lon="6.52202">
        <ele>2323</ele>
        <time>2017-08-29T09:44:40Z</time>
      </trkpt>
      <trkpt lat="45.92611" lon="6.52202">
        <ele>2323</ele>
        <time>2017-08-29T09:44:41Z</time>
      </trkpt>
      <trkpt lat="45.92611" lon="6.52202">
        <ele>2322</ele>
        <time>2017-08-29T09:44:42Z</time>
      </trkpt>
      <trkpt lat="45.92611" lon="6.52202">
        <ele>2322</ele>
        <time>2017-08-29T09:44:43Z</time>
      </trkpt>
      <trkpt lat="45.92611" lon="6.52202">
        <ele>2322</ele>
        <time>2017-08-29T09:44:44Z</time>
      </trkpt>
      <trkpt lat="45.92611" lon="6.52202">
        <ele>2322</ele>
        <time>2017-08-29T09:44:45Z</time>
      </trkpt>
      <trkpt lat="45.9261" lon="6.52205">
        <ele>2321</ele>
        <time>2017-08-29T09:44:46Z</time>
      </trkpt>
      <trkpt lat="45.9261" lon="6.52205">
        <ele>2321</ele>
        <time>2017-08-29T09:44:47Z</time>
      </trkpt>
      <trkpt lat="45.9261" lon="6.52205">
        <ele>2321</ele>
        <time>2017-08-29T09:44:48Z</time>
      </trkpt>
      <trkpt lat="45.92611" lon="6.52208">
        <ele>2321</ele>
        <time>2017-08-29T09:44:49Z</time>
      </trkpt>
      <trkpt lat="45.92611" lon="6.52208">
        <ele>2321</ele>
        <time>2017-08-29T09:44:50Z</time>
      </trkpt>
      <trkpt lat="45.92611" lon="6.52208">
        <ele>2320</ele>
        <time>2017-08-29T09:44:51Z</time>
      </trkpt>
      <trkpt lat="45.92611" lon="6.52208">
        <ele>2320</ele>
        <time>2017-08-29T09:44:52Z</time>
      </trkpt>
      <trkpt lat="45.92611" lon="6.52208">
        <ele>2320</ele>
        <time>2017-08-29T09:44:53Z</time>
      </trkpt>
      <trkpt lat="45.9261" lon="6.5221">
        <ele>2320</ele>
        <time>2017-08-29T09:44:54Z</time>
      </trkpt>
      <trkpt lat="45.9261" lon="6.5221">
        <ele>2319</ele>
        <time>2017-08-29T09:44:55Z</time>
      </trkpt>
      <trkpt lat="45.9261" lon="6.5221">
        <ele>2319</ele>
        <time>2017-08-29T09:44:56Z</time>
      </trkpt>
      <trkpt lat="45.9261" lon="6.5221">
        <ele>2319</ele>
        <time>2017-08-29T09:44:57Z</time>
      </trkpt>
      <trkpt lat="45.9261" lon="6.5221">
        <ele>2319</ele>
        <time>2017-08-29T09:44:58Z</time>
      </trkpt>
      <trkpt lat="45.9261" lon="6.5221">
        <ele>2319</ele>
        <time>2017-08-29T09:44:59Z</time>
      </trkpt>
      <trkpt lat="45.92609" lon="6.52213">
        <ele>2319</ele>
        <time>2017-08-29T09:45:00Z</time>
      </trkpt>
      <trkpt lat="45.92609" lon="6.52213">
        <ele>2319</ele>
        <time>2017-08-29T09:45:01Z</time>
      </trkpt>
      <trkpt lat="45.92609" lon="6.52213">
        <ele>2318</ele>
        <time>2017-08-29T09:45:02Z</time>
      </trkpt>
      <trkpt lat="45.92609" lon="6.52213">
        <ele>2317</ele>
        <time>2017-08-29T09:45:03Z</time>
      </trkpt>
      <trkpt lat="45.92608" lon="6.52216">
        <ele>2317</ele>
        <time>2017-08-29T09:45:04Z</time>
      </trkpt>
      <trkpt lat="45.92608" lon="6.52216">
        <ele>2317</ele>
        <time>2017-08-29T09:45:05Z</time>
      </trkpt>
      <trkpt lat="45.92608" lon="6.52216">
        <ele>2316</ele>
        <time>2017-08-29T09:45:06Z</time>
      </trkpt>
      <trkpt lat="45.92608" lon="6.52216">
        <ele>2316</ele>
        <time>2017-08-29T09:45:07Z</time>
      </trkpt>
      <trkpt lat="45.92608" lon="6.52216">
        <ele>2316</ele>
        <time>2017-08-29T09:45:08Z</time>
      </trkpt>
      <trkpt lat="45.92606" lon="6.52217">
        <ele>2316</ele>
        <time>2017-08-29T09:45:09Z</time>
      </trkpt>
      <trkpt lat="45.92606" lon="6.52217">
        <ele>2316</ele>
        <time>2017-08-29T09:45:10Z</time>
      </trkpt>
      <trkpt lat="45.92606" lon="6.52217">
        <ele>2316</ele>
        <time>2017-08-29T09:45:11Z</time>
      </trkpt>
      <trkpt lat="45.92606" lon="6.52217">
        <ele>2316</ele>
        <time>2017-08-29T09:45:12Z</time>
      </trkpt>
      <trkpt lat="45.92606" lon="6.52217">
        <ele>2316</ele>
        <time>2017-08-29T09:45:13Z</time>
      </trkpt>
      <trkpt lat="45.92606" lon="6.52217">
        <ele>2315</ele>
        <time>2017-08-29T09:45:14Z</time>
      </trkpt>
      <trkpt lat="45.92606" lon="6.52217">
        <ele>2315</ele>
        <time>2017-08-29T09:45:15Z</time>
      </trkpt>
      <trkpt lat="45.92606" lon="6.52217">
        <ele>2315</ele>
        <time>2017-08-29T09:45:16Z</time>
      </trkpt>
      <trkpt lat="45.92606" lon="6.5222">
        <ele>2315</ele>
        <time>2017-08-29T09:45:17Z</time>
      </trkpt>
      <trkpt lat="45.92606" lon="6.5222">
        <ele>2315</ele>
        <time>2017-08-29T09:45:18Z</time>
      </trkpt>
      <trkpt lat="45.92606" lon="6.5222">
        <ele>2315</ele>
        <time>2017-08-29T09:45:19Z</time>
      </trkpt>
      <trkpt lat="45.92606" lon="6.5222">
        <ele>2315</ele>
        <time>2017-08-29T09:45:20Z</time>
      </trkpt>
      <trkpt lat="45.92606" lon="6.5222">
        <ele>2314</ele>
        <time>2017-08-29T09:45:21Z</time>
      </trkpt>
      <trkpt lat="45.92606" lon="6.5222">
        <ele>2314</ele>
        <time>2017-08-29T09:45:22Z</time>
      </trkpt>
      <trkpt lat="45.92604" lon="6.52221">
        <ele>2314</ele>
        <time>2017-08-29T09:45:23Z</time>
      </trkpt>
      <trkpt lat="45.92604" lon="6.52221">
        <ele>2314</ele>
        <time>2017-08-29T09:45:24Z</time>
      </trkpt>
      <trkpt lat="45.92604" lon="6.52221">
        <ele>2313</ele>
        <time>2017-08-29T09:45:25Z</time>
      </trkpt>
      <trkpt lat="45.92604" lon="6.52221">
        <ele>2313</ele>
        <time>2017-08-29T09:45:26Z</time>
      </trkpt>
      <trkpt lat="45.92604" lon="6.52221">
        <ele>2313</ele>
        <time>2017-08-29T09:45:27Z</time>
      </trkpt>
      <trkpt lat="45.92604" lon="6.52221">
        <ele>2313</ele>
        <time>2017-08-29T09:45:28Z</time>
      </trkpt>
      <trkpt lat="45.92604" lon="6.52221">
        <ele>2313</ele>
        <time>2017-08-29T09:45:29Z</time>
      </trkpt>
      <trkpt lat="45.92604" lon="6.52221">
        <ele>2313</ele>
        <time>2017-08-29T09:45:30Z</time>
      </trkpt>
      <trkpt lat="45.92604" lon="6.52221">
        <ele>2313</ele>
        <time>2017-08-29T09:45:31Z</time>
      </trkpt>
      <trkpt lat="45.92604" lon="6.52221">
        <ele>2313</ele>
        <time>2017-08-29T09:45:32Z</time>
      </trkpt>
      <trkpt lat="45.92604" lon="6.52221">
        <ele>2312</ele>
        <time>2017-08-29T09:45:33Z</time>
      </trkpt>
      <trkpt lat="45.92604" lon="6.52221">
        <ele>2312</ele>
        <time>2017-08-29T09:45:34Z</time>
      </trkpt>
      <trkpt lat="45.92604" lon="6.52221">
        <ele>2311</ele>
        <time>2017-08-29T09:45:35Z</time>
      </trkpt>
      <trkpt lat="45.92602" lon="6.52222">
        <ele>2311</ele>
        <time>2017-08-29T09:45:36Z</time>
      </trkpt>
      <trkpt lat="45.92602" lon="6.52222">
        <ele>2311</ele>
        <time>2017-08-29T09:45:37Z</time>
      </trkpt>
      <trkpt lat="45.92602" lon="6.52222">
        <ele>2311</ele>
        <time>2017-08-29T09:45:38Z</time>
      </trkpt>
      <trkpt lat="45.926" lon="6.5222">
        <ele>2311</ele>
        <time>2017-08-29T09:45:39Z</time>
      </trkpt>
      <trkpt lat="45.926" lon="6.5222">
        <ele>2310</ele>
        <time>2017-08-29T09:45:40Z</time>
      </trkpt>
      <trkpt lat="45.926" lon="6.5222">
        <ele>2310</ele>
        <time>2017-08-29T09:45:41Z</time>
      </trkpt>
      <trkpt lat="45.92599" lon="6.52217">
        <ele>2309</ele>
        <time>2017-08-29T09:45:42Z</time>
      </trkpt>
      <trkpt lat="45.92599" lon="6.52217">
        <ele>2309</ele>
        <time>2017-08-29T09:45:43Z</time>
      </trkpt>
      <trkpt lat="45.92599" lon="6.52217">
        <ele>2309</ele>
        <time>2017-08-29T09:45:44Z</time>
      </trkpt>
      <trkpt lat="45.92599" lon="6.52215">
        <ele>2308</ele>
        <time>2017-08-29T09:45:45Z</time>
      </trkpt>
      <trkpt lat="45.92599" lon="6.52215">
        <ele>2308</ele>
        <time>2017-08-29T09:45:46Z</time>
      </trkpt>
      <trkpt lat="45.92599" lon="6.52215">
        <ele>2308</ele>
        <time>2017-08-29T09:45:47Z</time>
      </trkpt>
      <trkpt lat="45.92599" lon="6.52215">
        <ele>2307</ele>
        <time>2017-08-29T09:45:48Z</time>
      </trkpt>
      <trkpt lat="45.92599" lon="6.52215">
        <ele>2307</ele>
        <time>2017-08-29T09:45:49Z</time>
      </trkpt>
      <trkpt lat="45.92598" lon="6.52212">
        <ele>2307</ele>
        <time>2017-08-29T09:45:50Z</time>
      </trkpt>
      <trkpt lat="45.92598" lon="6.52212">
        <ele>2307</ele>
        <time>2017-08-29T09:45:51Z</time>
      </trkpt>
      <trkpt lat="45.92598" lon="6.52212">
        <ele>2307</ele>
        <time>2017-08-29T09:45:52Z</time>
      </trkpt>
      <trkpt lat="45.92597" lon="6.52209">
        <ele>2306</ele>
        <time>2017-08-29T09:45:53Z</time>
      </trkpt>
      <trkpt lat="45.92597" lon="6.52209">
        <ele>2306</ele>
        <time>2017-08-29T09:45:54Z</time>
      </trkpt>
      <trkpt lat="45.92597" lon="6.52209">
        <ele>2305</ele>
        <time>2017-08-29T09:45:55Z</time>
      </trkpt>
      <trkpt lat="45.92597" lon="6.52207">
        <ele>2305</ele>
        <time>2017-08-29T09:45:56Z</time>
      </trkpt>
      <trkpt lat="45.92597" lon="6.52207">
        <ele>2305</ele>
        <time>2017-08-29T09:45:57Z</time>
      </trkpt>
      <trkpt lat="45.92597" lon="6.52207">
        <ele>2305</ele>
        <time>2017-08-29T09:45:58Z</time>
      </trkpt>
      <trkpt lat="45.92597" lon="6.52207">
        <ele>2305</ele>
        <time>2017-08-29T09:45:59Z</time>
      </trkpt>
      <trkpt lat="45.92597" lon="6.52207">
        <ele>2305</ele>
        <time>2017-08-29T09:46:00Z</time>
      </trkpt>
      <trkpt lat="45.92597" lon="6.52207">
        <ele>2304</ele>
        <time>2017-08-29T09:46:01Z</time>
      </trkpt>
      <trkpt lat="45.92597" lon="6.52207">
        <ele>2304</ele>
        <time>2017-08-29T09:46:02Z</time>
      </trkpt>
      <trkpt lat="45.92597" lon="6.52207">
        <ele>2304</ele>
        <time>2017-08-29T09:46:03Z</time>
      </trkpt>
      <trkpt lat="45.92597" lon="6.52204">
        <ele>2304</ele>
        <time>2017-08-29T09:46:04Z</time>
      </trkpt>
      <trkpt lat="45.92597" lon="6.52204">
        <ele>2303</ele>
        <time>2017-08-29T09:46:05Z</time>
      </trkpt>
      <trkpt lat="45.92597" lon="6.52204">
        <ele>2303</ele>
        <time>2017-08-29T09:46:06Z</time>
      </trkpt>
      <trkpt lat="45.92597" lon="6.52204">
        <ele>2302</ele>
        <time>2017-08-29T09:46:07Z</time>
      </trkpt>
      <trkpt lat="45.92597" lon="6.52204">
        <ele>2302</ele>
        <time>2017-08-29T09:46:08Z</time>
      </trkpt>
      <trkpt lat="45.92595" lon="6.52203">
        <ele>2302</ele>
        <time>2017-08-29T09:46:09Z</time>
      </trkpt>
      <trkpt lat="45.92595" lon="6.52203">
        <ele>2301</ele>
        <time>2017-08-29T09:46:10Z</time>
      </trkpt>
      <trkpt lat="45.92595" lon="6.52203">
        <ele>2301</ele>
        <time>2017-08-29T09:46:11Z</time>
      </trkpt>
      <trkpt lat="45.92595" lon="6.52203">
        <ele>2299</ele>
        <time>2017-08-29T09:46:12Z</time>
      </trkpt>
      <trkpt lat="45.92595" lon="6.52203">
        <ele>2299</ele>
        <time>2017-08-29T09:46:13Z</time>
      </trkpt>
      <trkpt lat="45.92594" lon="6.522">
        <ele>2299</ele>
        <time>2017-08-29T09:46:14Z</time>
      </trkpt>
      <trkpt lat="45.92594" lon="6.522">
        <ele>2299</ele>
        <time>2017-08-29T09:46:15Z</time>
      </trkpt>
      <trkpt lat="45.92594" lon="6.522">
        <ele>2299</ele>
        <time>2017-08-29T09:46:16Z</time>
      </trkpt>
      <trkpt lat="45.92594" lon="6.52198">
        <ele>2298</ele>
        <time>2017-08-29T09:46:17Z</time>
      </trkpt>
      <trkpt lat="45.92594" lon="6.52198">
        <ele>2298</ele>
        <time>2017-08-29T09:46:18Z</time>
      </trkpt>
      <trkpt lat="45.92594" lon="6.52198">
        <ele>2298</ele>
        <time>2017-08-29T09:46:19Z</time>
      </trkpt>
      <trkpt lat="45.92593" lon="6.52195">
        <ele>2297</ele>
        <time>2017-08-29T09:46:20Z</time>
      </trkpt>
      <trkpt lat="45.92593" lon="6.52195">
        <ele>2297</ele>
        <time>2017-08-29T09:46:21Z</time>
      </trkpt>
      <trkpt lat="45.92593" lon="6.52195">
        <ele>2296</ele>
        <time>2017-08-29T09:46:22Z</time>
      </trkpt>
      <trkpt lat="45.92593" lon="6.52195">
        <ele>2295</ele>
        <time>2017-08-29T09:46:23Z</time>
      </trkpt>
      <trkpt lat="45.92591" lon="6.52193">
        <ele>2295</ele>
        <time>2017-08-29T09:46:24Z</time>
      </trkpt>
      <trkpt lat="45.92591" lon="6.52193">
        <ele>2295</ele>
        <time>2017-08-29T09:46:25Z</time>
      </trkpt>
      <trkpt lat="45.92591" lon="6.52193">
        <ele>2294</ele>
        <time>2017-08-29T09:46:26Z</time>
      </trkpt>
      <trkpt lat="45.92591" lon="6.52193">
        <ele>2294</ele>
        <time>2017-08-29T09:46:27Z</time>
      </trkpt>
      <trkpt lat="45.92591" lon="6.52193">
        <ele>2294</ele>
        <time>2017-08-29T09:46:28Z</time>
      </trkpt>
      <trkpt lat="45.92589" lon="6.52193">
        <ele>2293</ele>
        <time>2017-08-29T09:46:29Z</time>
      </trkpt>
      <trkpt lat="45.92589" lon="6.52193">
        <ele>2293</ele>
        <time>2017-08-29T09:46:30Z</time>
      </trkpt>
      <trkpt lat="45.92589" lon="6.52193">
        <ele>2292</ele>
        <time>2017-08-29T09:46:31Z</time>
      </trkpt>
      <trkpt lat="45.92589" lon="6.52193">
        <ele>2292</ele>
        <time>2017-08-29T09:46:32Z</time>
      </trkpt>
      <trkpt lat="45.92589" lon="6.52193">
        <ele>2292</ele>
        <time>2017-08-29T09:46:33Z</time>
      </trkpt>
      <trkpt lat="45.92589" lon="6.52193">
        <ele>2292</ele>
        <time>2017-08-29T09:46:34Z</time>
      </trkpt>
      <trkpt lat="45.92589" lon="6.52193">
        <ele>2292</ele>
        <time>2017-08-29T09:46:35Z</time>
      </trkpt>
      <trkpt lat="45.92589" lon="6.52193">
        <ele>2292</ele>
        <time>2017-08-29T09:46:36Z</time>
      </trkpt>
      <trkpt lat="45.92589" lon="6.52193">
        <ele>2292</ele>
        <time>2017-08-29T09:46:37Z</time>
      </trkpt>
      <trkpt lat="45.92587" lon="6.52191">
        <ele>2292</ele>
        <time>2017-08-29T09:46:38Z</time>
      </trkpt>
      <trkpt lat="45.92587" lon="6.52191">
        <ele>2291</ele>
        <time>2017-08-29T09:46:39Z</time>
      </trkpt>
      <trkpt lat="45.92587" lon="6.52191">
        <ele>2291</ele>
        <time>2017-08-29T09:46:40Z</time>
      </trkpt>
      <trkpt lat="45.92587" lon="6.52191">
        <ele>2291</ele>
        <time>2017-08-29T09:46:41Z</time>
      </trkpt>
      <trkpt lat="45.92585" lon="6.52189">
        <ele>2290</ele>
        <time>2017-08-29T09:46:42Z</time>
      </trkpt>
      <trkpt lat="45.92585" lon="6.52189">
        <ele>2289</ele>
        <time>2017-08-29T09:46:43Z</time>
      </trkpt>
      <trkpt lat="45.92584" lon="6.52187">
        <ele>2289</ele>
        <time>2017-08-29T09:46:44Z</time>
      </trkpt>
      <trkpt lat="45.92584" lon="6.52187">
        <ele>2288</ele>
        <time>2017-08-29T09:46:45Z</time>
      </trkpt>
      <trkpt lat="45.92584" lon="6.52187">
        <ele>2288</ele>
        <time>2017-08-29T09:46:46Z</time>
      </trkpt>
      <trkpt lat="45.92584" lon="6.52187">
        <ele>2288</ele>
        <time>2017-08-29T09:46:47Z</time>
      </trkpt>
      <trkpt lat="45.92584" lon="6.52187">
        <ele>2288</ele>
        <time>2017-08-29T09:46:48Z</time>
      </trkpt>
      <trkpt lat="45.92584" lon="6.52187">
        <ele>2288</ele>
        <time>2017-08-29T09:46:49Z</time>
      </trkpt>
      <trkpt lat="45.92584" lon="6.52187">
        <ele>2288</ele>
        <time>2017-08-29T09:46:50Z</time>
      </trkpt>
      <trkpt lat="45.92582" lon="6.52187">
        <ele>2287</ele>
        <time>2017-08-29T09:46:52Z</time>
      </trkpt>
      <trkpt lat="45.92582" lon="6.52187">
        <ele>2287</ele>
        <time>2017-08-29T09:46:53Z</time>
      </trkpt>
      <trkpt lat="45.92582" lon="6.52187">
        <ele>2287</ele>
        <time>2017-08-29T09:46:54Z</time>
      </trkpt>
      <trkpt lat="45.92581" lon="6.52184">
        <ele>2286</ele>
        <time>2017-08-29T09:46:55Z</time>
      </trkpt>
      <trkpt lat="45.92581" lon="6.52184">
        <ele>2286</ele>
        <time>2017-08-29T09:46:56Z</time>
      </trkpt>
      <trkpt lat="45.92581" lon="6.52184">
        <ele>2285</ele>
        <time>2017-08-29T09:46:57Z</time>
      </trkpt>
      <trkpt lat="45.92581" lon="6.52184">
        <ele>2285</ele>
        <time>2017-08-29T09:46:58Z</time>
      </trkpt>
      <trkpt lat="45.92581" lon="6.52181">
        <ele>2285</ele>
        <time>2017-08-29T09:46:59Z</time>
      </trkpt>
      <trkpt lat="45.92581" lon="6.52181">
        <ele>2284</ele>
        <time>2017-08-29T09:47:00Z</time>
      </trkpt>
      <trkpt lat="45.92581" lon="6.52181">
        <ele>2283</ele>
        <time>2017-08-29T09:47:01Z</time>
      </trkpt>
      <trkpt lat="45.92581" lon="6.52178">
        <ele>2283</ele>
        <time>2017-08-29T09:47:02Z</time>
      </trkpt>
      <trkpt lat="45.92581" lon="6.52178">
        <ele>2283</ele>
        <time>2017-08-29T09:47:03Z</time>
      </trkpt>
      <trkpt lat="45.92581" lon="6.52178">
        <ele>2283</ele>
        <time>2017-08-29T09:47:04Z</time>
      </trkpt>
      <trkpt lat="45.92581" lon="6.52178">
        <ele>2283</ele>
        <time>2017-08-29T09:47:05Z</time>
      </trkpt>
      <trkpt lat="45.92581" lon="6.52178">
        <ele>2283</ele>
        <time>2017-08-29T09:47:06Z</time>
      </trkpt>
      <trkpt lat="45.92581" lon="6.52178">
        <ele>2283</ele>
        <time>2017-08-29T09:47:07Z</time>
      </trkpt>
      <trkpt lat="45.92581" lon="6.52178">
        <ele>2283</ele>
        <time>2017-08-29T09:47:08Z</time>
      </trkpt>
      <trkpt lat="45.92581" lon="6.52178">
        <ele>2283</ele>
        <time>2017-08-29T09:47:09Z</time>
      </trkpt>
      <trkpt lat="45.92581" lon="6.52178">
        <ele>2283</ele>
        <time>2017-08-29T09:47:10Z</time>
      </trkpt>
      <trkpt lat="45.92583" lon="6.52179">
        <ele>2282</ele>
        <time>2017-08-29T09:47:11Z</time>
      </trkpt>
      <trkpt lat="45.92583" lon="6.52179">
        <ele>2282</ele>
        <time>2017-08-29T09:47:12Z</time>
      </trkpt>
      <trkpt lat="45.92583" lon="6.52179">
        <ele>2283</ele>
        <time>2017-08-29T09:47:13Z</time>
      </trkpt>
      <trkpt lat="45.92583" lon="6.52179">
        <ele>2283</ele>
        <time>2017-08-29T09:47:14Z</time>
      </trkpt>
      <trkpt lat="45.92583" lon="6.52179">
        <ele>2283</ele>
        <time>2017-08-29T09:47:15Z</time>
      </trkpt>
      <trkpt lat="45.92583" lon="6.52179">
        <ele>2283</ele>
        <time>2017-08-29T09:47:16Z</time>
      </trkpt>
      <trkpt lat="45.92583" lon="6.52179">
        <ele>2283</ele>
        <time>2017-08-29T09:47:17Z</time>
      </trkpt>
      <trkpt lat="45.92583" lon="6.52179">
        <ele>2283</ele>
        <time>2017-08-29T09:47:18Z</time>
      </trkpt>
      <trkpt lat="45.92583" lon="6.52179">
        <ele>2283</ele>
        <time>2017-08-29T09:47:19Z</time>
      </trkpt>
      <trkpt lat="45.92583" lon="6.52179">
        <ele>2282</ele>
        <time>2017-08-29T09:47:20Z</time>
      </trkpt>
      <trkpt lat="45.92583" lon="6.52179">
        <ele>2282</ele>
        <time>2017-08-29T09:47:21Z</time>
      </trkpt>
      <trkpt lat="45.92583" lon="6.52179">
        <ele>2282</ele>
        <time>2017-08-29T09:47:22Z</time>
      </trkpt>
      <trkpt lat="45.92583" lon="6.52179">
        <ele>2282</ele>
        <time>2017-08-29T09:47:23Z</time>
      </trkpt>
      <trkpt lat="45.92583" lon="6.52179">
        <ele>2282</ele>
        <time>2017-08-29T09:47:24Z</time>
      </trkpt>
      <trkpt lat="45.92583" lon="6.52179">
        <ele>2282</ele>
        <time>2017-08-29T09:47:25Z</time>
      </trkpt>
      <trkpt lat="45.92583" lon="6.52179">
        <ele>2282</ele>
        <time>2017-08-29T09:47:26Z</time>
      </trkpt>
      <trkpt lat="45.92583" lon="6.52179">
        <ele>2282</ele>
        <time>2017-08-29T09:47:27Z</time>
      </trkpt>
      <trkpt lat="45.92583" lon="6.52179">
        <ele>2282</ele>
        <time>2017-08-29T09:47:28Z</time>
      </trkpt>
      <trkpt lat="45.92583" lon="6.52179">
        <ele>2282</ele>
        <time>2017-08-29T09:47:29Z</time>
      </trkpt>
      <trkpt lat="45.92583" lon="6.52179">
        <ele>2282</ele>
        <time>2017-08-29T09:47:30Z</time>
      </trkpt>
      <trkpt lat="45.92583" lon="6.52179">
        <ele>2282</ele>
        <time>2017-08-29T09:47:31Z</time>
      </trkpt>
      <trkpt lat="45.92583" lon="6.52179">
        <ele>2282</ele>
        <time>2017-08-29T09:47:32Z</time>
      </trkpt>
      <trkpt lat="45.92583" lon="6.52179">
        <ele>2282</ele>
        <time>2017-08-29T09:47:33Z</time>
      </trkpt>
      <trkpt lat="45.92583" lon="6.52179">
        <ele>2282</ele>
        <time>2017-08-29T09:47:34Z</time>
      </trkpt>
      <trkpt lat="45.92583" lon="6.52179">
        <ele>2282</ele>
        <time>2017-08-29T09:47:35Z</time>
      </trkpt>
      <trkpt lat="45.92583" lon="6.52179">
        <ele>2282</ele>
        <time>2017-08-29T09:47:36Z</time>
      </trkpt>
      <trkpt lat="45.92583" lon="6.52179">
        <ele>2282</ele>
        <time>2017-08-29T09:47:37Z</time>
      </trkpt>
      <trkpt lat="45.92583" lon="6.52179">
        <ele>2282</ele>
        <time>2017-08-29T09:47:38Z</time>
      </trkpt>
      <trkpt lat="45.92583" lon="6.52179">
        <ele>2282</ele>
        <time>2017-08-29T09:47:39Z</time>
      </trkpt>
      <trkpt lat="45.92583" lon="6.52179">
        <ele>2282</ele>
        <time>2017-08-29T09:47:40Z</time>
      </trkpt>
      <trkpt lat="45.92583" lon="6.52179">
        <ele>2282</ele>
        <time>2017-08-29T09:47:41Z</time>
      </trkpt>
      <trkpt lat="45.92583" lon="6.52179">
        <ele>2282</ele>
        <time>2017-08-29T09:47:42Z</time>
      </trkpt>
      <trkpt lat="45.92584" lon="6.5218">
        <ele>2282</ele>
        <time>2017-08-29T09:47:43Z</time>
      </trkpt>
      <trkpt lat="45.92584" lon="6.5218">
        <ele>2282</ele>
        <time>2017-08-29T09:47:44Z</time>
      </trkpt>
      <trkpt lat="45.92584" lon="6.5218">
        <ele>2283</ele>
        <time>2017-08-29T09:47:45Z</time>
      </trkpt>
      <trkpt lat="45.92584" lon="6.5218">
        <ele>2283</ele>
        <time>2017-08-29T09:47:46Z</time>
      </trkpt>
      <trkpt lat="45.92584" lon="6.5218">
        <ele>2283</ele>
        <time>2017-08-29T09:47:47Z</time>
      </trkpt>
      <trkpt lat="45.92584" lon="6.5218">
        <ele>2283</ele>
        <time>2017-08-29T09:47:48Z</time>
      </trkpt>
      <trkpt lat="45.92584" lon="6.5218">
        <ele>2283</ele>
        <time>2017-08-29T09:47:49Z</time>
      </trkpt>
      <trkpt lat="45.92584" lon="6.5218">
        <ele>2283</ele>
        <time>2017-08-29T09:47:50Z</time>
      </trkpt>
      <trkpt lat="45.92584" lon="6.5218">
        <ele>2283</ele>
        <time>2017-08-29T09:47:51Z</time>
      </trkpt>
      <trkpt lat="45.92584" lon="6.5218">
        <ele>2283</ele>
        <time>2017-08-29T09:47:52Z</time>
      </trkpt>
      <trkpt lat="45.92584" lon="6.5218">
        <ele>2283</ele>
        <time>2017-08-29T09:47:53Z</time>
      </trkpt>
      <trkpt lat="45.92584" lon="6.5218">
        <ele>2283</ele>
        <time>2017-08-29T09:47:54Z</time>
      </trkpt>
      <trkpt lat="45.92584" lon="6.5218">
        <ele>2283</ele>
        <time>2017-08-29T09:47:55Z</time>
      </trkpt>
      <trkpt lat="45.92584" lon="6.5218">
        <ele>2283</ele>
        <time>2017-08-29T09:47:56Z</time>
      </trkpt>
      <trkpt lat="45.92584" lon="6.5218">
        <ele>2283</ele>
        <time>2017-08-29T09:47:57Z</time>
      </trkpt>
      <trkpt lat="45.92584" lon="6.5218">
        <ele>2283</ele>
        <time>2017-08-29T09:47:58Z</time>
      </trkpt>
      <trkpt lat="45.92584" lon="6.5218">
        <ele>2283</ele>
        <time>2017-08-29T09:47:59Z</time>
      </trkpt>
      <trkpt lat="45.92584" lon="6.5218">
        <ele>2282</ele>
        <time>2017-08-29T09:48:00Z</time>
      </trkpt>
      <trkpt lat="45.92584" lon="6.5218">
        <ele>2282</ele>
        <time>2017-08-29T09:48:01Z</time>
      </trkpt>
      <trkpt lat="45.92584" lon="6.5218">
        <ele>2282</ele>
        <time>2017-08-29T09:48:02Z</time>
      </trkpt>
      <trkpt lat="45.92584" lon="6.5218">
        <ele>2282</ele>
        <time>2017-08-29T09:48:03Z</time>
      </trkpt>
      <trkpt lat="45.92584" lon="6.5218">
        <ele>2282</ele>
        <time>2017-08-29T09:48:04Z</time>
      </trkpt>
      <trkpt lat="45.92584" lon="6.5218">
        <ele>2283</ele>
        <time>2017-08-29T09:48:05Z</time>
      </trkpt>
      <trkpt lat="45.92584" lon="6.5218">
        <ele>2283</ele>
        <time>2017-08-29T09:48:06Z</time>
      </trkpt>
      <trkpt lat="45.92584" lon="6.5218">
        <ele>2283</ele>
        <time>2017-08-29T09:48:07Z</time>
      </trkpt>
      <trkpt lat="45.92584" lon="6.5218">
        <ele>2283</ele>
        <time>2017-08-29T09:48:08Z</time>
      </trkpt>
      <trkpt lat="45.92584" lon="6.5218">
        <ele>2283</ele>
        <time>2017-08-29T09:48:09Z</time>
      </trkpt>
      <trkpt lat="45.92584" lon="6.5218">
        <ele>2283</ele>
        <time>2017-08-29T09:48:10Z</time>
      </trkpt>
      <trkpt lat="45.92584" lon="6.5218">
        <ele>2282</ele>
        <time>2017-08-29T09:48:11Z</time>
      </trkpt>
      <trkpt lat="45.92584" lon="6.5218">
        <ele>2282</ele>
        <time>2017-08-29T09:48:12Z</time>
      </trkpt>
      <trkpt lat="45.92584" lon="6.5218">
        <ele>2282</ele>
        <time>2017-08-29T09:48:13Z</time>
      </trkpt>
      <trkpt lat="45.92584" lon="6.5218">
        <ele>2283</ele>
        <time>2017-08-29T09:48:14Z</time>
      </trkpt>
      <trkpt lat="45.92584" lon="6.5218">
        <ele>2283</ele>
        <time>2017-08-29T09:48:15Z</time>
      </trkpt>
      <trkpt lat="45.92584" lon="6.5218">
        <ele>2283</ele>
        <time>2017-08-29T09:48:16Z</time>
      </trkpt>
      <trkpt lat="45.92584" lon="6.5218">
        <ele>2283</ele>
        <time>2017-08-29T09:48:17Z</time>
      </trkpt>
      <trkpt lat="45.92584" lon="6.5218">
        <ele>2283</ele>
        <time>2017-08-29T09:48:18Z</time>
      </trkpt>
      <trkpt lat="45.92584" lon="6.5218">
        <ele>2283</ele>
        <time>2017-08-29T09:48:19Z</time>
      </trkpt>
      <trkpt lat="45.92584" lon="6.5218">
        <ele>2283</ele>
        <time>2017-08-29T09:48:20Z</time>
      </trkpt>
      <trkpt lat="45.92584" lon="6.5218">
        <ele>2283</ele>
        <time>2017-08-29T09:48:21Z</time>
      </trkpt>
      <trkpt lat="45.92584" lon="6.52183">
        <ele>2283</ele>
        <time>2017-08-29T09:48:22Z</time>
      </trkpt>
      <trkpt lat="45.92584" lon="6.52183">
        <ele>2283</ele>
        <time>2017-08-29T09:48:23Z</time>
      </trkpt>
      <trkpt lat="45.92581" lon="6.52185">
        <ele>2282</ele>
        <time>2017-08-29T09:48:24Z</time>
      </trkpt>
      <trkpt lat="45.92581" lon="6.52185">
        <ele>2282</ele>
        <time>2017-08-29T09:48:25Z</time>
      </trkpt>
      <trkpt lat="45.92579" lon="6.52187">
        <ele>2281</ele>
        <time>2017-08-29T09:48:26Z</time>
      </trkpt>
      <trkpt lat="45.92579" lon="6.52187">
        <ele>2281</ele>
        <time>2017-08-29T09:48:27Z</time>
      </trkpt>
      <trkpt lat="45.92577" lon="6.52189">
        <ele>2281</ele>
        <time>2017-08-29T09:48:28Z</time>
      </trkpt>
      <trkpt lat="45.92577" lon="6.52189">
        <ele>2279</ele>
        <time>2017-08-29T09:48:29Z</time>
      </trkpt>
      <trkpt lat="45.92574" lon="6.52192">
        <ele>2278</ele>
        <time>2017-08-29T09:48:30Z</time>
      </trkpt>
      <trkpt lat="45.92574" lon="6.52192">
        <ele>2278</ele>
        <time>2017-08-29T09:48:31Z</time>
      </trkpt>
      <trkpt lat="45.92572" lon="6.52193">
        <ele>2278</ele>
        <time>2017-08-29T09:48:32Z</time>
      </trkpt>
      <trkpt lat="45.92572" lon="6.52193">
        <ele>2279</ele>
        <time>2017-08-29T09:48:33Z</time>
      </trkpt>
      <trkpt lat="45.9257" lon="6.52193">
        <ele>2279</ele>
        <time>2017-08-29T09:48:34Z</time>
      </trkpt>
      <trkpt lat="45.9257" lon="6.52193">
        <ele>2279</ele>
        <time>2017-08-29T09:48:35Z</time>
      </trkpt>
      <trkpt lat="45.92567" lon="6.52192">
        <ele>2279</ele>
        <time>2017-08-29T09:48:36Z</time>
      </trkpt>
      <trkpt lat="45.92567" lon="6.52192">
        <ele>2279</ele>
        <time>2017-08-29T09:48:37Z</time>
      </trkpt>
      <trkpt lat="45.92564" lon="6.52189">
        <ele>2279</ele>
        <time>2017-08-29T09:48:38Z</time>
      </trkpt>
      <trkpt lat="45.92562" lon="6.52187">
        <ele>2279</ele>
        <time>2017-08-29T09:48:39Z</time>
      </trkpt>
      <trkpt lat="45.9256" lon="6.52186">
        <ele>2279</ele>
        <time>2017-08-29T09:48:40Z</time>
      </trkpt>
      <trkpt lat="45.92558" lon="6.52184">
        <ele>2279</ele>
        <time>2017-08-29T09:48:41Z</time>
      </trkpt>
      <trkpt lat="45.92556" lon="6.52183">
        <ele>2279</ele>
        <time>2017-08-29T09:48:42Z</time>
      </trkpt>
      <trkpt lat="45.92556" lon="6.52183">
        <ele>2279</ele>
        <time>2017-08-29T09:48:43Z</time>
      </trkpt>
      <trkpt lat="45.92553" lon="6.52181">
        <ele>2278</ele>
        <time>2017-08-29T09:48:44Z</time>
      </trkpt>
      <trkpt lat="45.92551" lon="6.5218">
        <ele>2278</ele>
        <time>2017-08-29T09:48:45Z</time>
      </trkpt>
      <trkpt lat="45.9255" lon="6.52178">
        <ele>2277.6</ele>
        <time>2017-08-29T09:48:46Z</time>
      </trkpt>
      <trkpt lat="45.92548" lon="6.52177">
        <ele>2277</ele>
        <time>2017-08-29T09:48:47Z</time>
      </trkpt>
      <trkpt lat="45.92548" lon="6.52177">
        <ele>2276</ele>
        <time>2017-08-29T09:48:48Z</time>
      </trkpt>
      <trkpt lat="45.92546" lon="6.52174">
        <ele>2275</ele>
        <time>2017-08-29T09:48:49Z</time>
      </trkpt>
      <trkpt lat="45.92546" lon="6.52174">
        <ele>2275</ele>
        <time>2017-08-29T09:48:50Z</time>
      </trkpt>
      <trkpt lat="45.92544" lon="6.52172">
        <ele>2275</ele>
        <time>2017-08-29T09:48:51Z</time>
      </trkpt>
      <trkpt lat="45.92544" lon="6.52172">
        <ele>2273</ele>
        <time>2017-08-29T09:48:52Z</time>
      </trkpt>
      <trkpt lat="45.92544" lon="6.52172">
        <ele>2273</ele>
        <time>2017-08-29T09:48:53Z</time>
      </trkpt>
      <trkpt lat="45.92544" lon="6.52172">
        <ele>2273</ele>
        <time>2017-08-29T09:48:54Z</time>
      </trkpt>
      <trkpt lat="45.92544" lon="6.52172">
        <ele>2273</ele>
        <time>2017-08-29T09:48:55Z</time>
      </trkpt>
      <trkpt lat="45.92544" lon="6.52172">
        <ele>2273</ele>
        <time>2017-08-29T09:48:56Z</time>
      </trkpt>
      <trkpt lat="45.92544" lon="6.52172">
        <ele>2273</ele>
        <time>2017-08-29T09:48:57Z</time>
      </trkpt>
      <trkpt lat="45.92544" lon="6.52175">
        <ele>2273</ele>
        <time>2017-08-29T09:48:58Z</time>
      </trkpt>
      <trkpt lat="45.92544" lon="6.52175">
        <ele>2273</ele>
        <time>2017-08-29T09:48:59Z</time>
      </trkpt>
      <trkpt lat="45.92542" lon="6.52175">
        <ele>2273</ele>
        <time>2017-08-29T09:49:00Z</time>
      </trkpt>
      <trkpt lat="45.92542" lon="6.52175">
        <ele>2273</ele>
        <time>2017-08-29T09:49:01Z</time>
      </trkpt>
      <trkpt lat="45.92539" lon="6.52174">
        <ele>2273</ele>
        <time>2017-08-29T09:49:02Z</time>
      </trkpt>
      <trkpt lat="45.92539" lon="6.52174">
        <ele>2272</ele>
        <time>2017-08-29T09:49:03Z</time>
      </trkpt>
      <trkpt lat="45.92537" lon="6.52175">
        <ele>2271</ele>
        <time>2017-08-29T09:49:04Z</time>
      </trkpt>
      <trkpt lat="45.92537" lon="6.52175">
        <ele>2271</ele>
        <time>2017-08-29T09:49:05Z</time>
      </trkpt>
      <trkpt lat="45.92537" lon="6.52175">
        <ele>2271</ele>
        <time>2017-08-29T09:49:06Z</time>
      </trkpt>
      <trkpt lat="45.92537" lon="6.52175">
        <ele>2271</ele>
        <time>2017-08-29T09:49:07Z</time>
      </trkpt>
      <trkpt lat="45.92537" lon="6.52175">
        <ele>2271</ele>
        <time>2017-08-29T09:49:08Z</time>
      </trkpt>
      <trkpt lat="45.92537" lon="6.52175">
        <ele>2270</ele>
        <time>2017-08-29T09:49:09Z</time>
      </trkpt>
      <trkpt lat="45.92537" lon="6.52175">
        <ele>2270</ele>
        <time>2017-08-29T09:49:10Z</time>
      </trkpt>
      <trkpt lat="45.92537" lon="6.52175">
        <ele>2270</ele>
        <time>2017-08-29T09:49:11Z</time>
      </trkpt>
      <trkpt lat="45.92537" lon="6.52175">
        <ele>2270</ele>
        <time>2017-08-29T09:49:12Z</time>
      </trkpt>
      <trkpt lat="45.92537" lon="6.52175">
        <ele>2270</ele>
        <time>2017-08-29T09:49:13Z</time>
      </trkpt>
      <trkpt lat="45.92537" lon="6.52175">
        <ele>2270</ele>
        <time>2017-08-29T09:49:14Z</time>
      </trkpt>
      <trkpt lat="45.92537" lon="6.52175">
        <ele>2270</ele>
        <time>2017-08-29T09:49:15Z</time>
      </trkpt>
      <trkpt lat="45.92538" lon="6.52172">
        <ele>2270</ele>
        <time>2017-08-29T09:49:16Z</time>
      </trkpt>
      <trkpt lat="45.92538" lon="6.52172">
        <ele>2270</ele>
        <time>2017-08-29T09:49:17Z</time>
      </trkpt>
      <trkpt lat="45.92538" lon="6.52168">
        <ele>2270</ele>
        <time>2017-08-29T09:49:18Z</time>
      </trkpt>
      <trkpt lat="45.92538" lon="6.52168">
        <ele>2270</ele>
        <time>2017-08-29T09:49:19Z</time>
      </trkpt>
      <trkpt lat="45.92538" lon="6.52164">
        <ele>2269</ele>
        <time>2017-08-29T09:49:20Z</time>
      </trkpt>
      <trkpt lat="45.92538" lon="6.52164">
        <ele>2269</ele>
        <time>2017-08-29T09:49:21Z</time>
      </trkpt>
      <trkpt lat="45.92538" lon="6.5216">
        <ele>2268</ele>
        <time>2017-08-29T09:49:22Z</time>
      </trkpt>
      <trkpt lat="45.92538" lon="6.5216">
        <ele>2268</ele>
        <time>2017-08-29T09:49:23Z</time>
      </trkpt>
      <trkpt lat="45.92539" lon="6.52157">
        <ele>2268</ele>
        <time>2017-08-29T09:49:24Z</time>
      </trkpt>
      <trkpt lat="45.92539" lon="6.52157">
        <ele>2267</ele>
        <time>2017-08-29T09:49:25Z</time>
      </trkpt>
      <trkpt lat="45.92539" lon="6.52157">
        <ele>2266</ele>
        <time>2017-08-29T09:49:26Z</time>
      </trkpt>
      <trkpt lat="45.9254" lon="6.52155">
        <ele>2266</ele>
        <time>2017-08-29T09:49:27Z</time>
      </trkpt>
      <trkpt lat="45.9254" lon="6.52155">
        <ele>2265</ele>
        <time>2017-08-29T09:49:28Z</time>
      </trkpt>
      <trkpt lat="45.92541" lon="6.52152">
        <ele>2265</ele>
        <time>2017-08-29T09:49:29Z</time>
      </trkpt>
      <trkpt lat="45.92541" lon="6.52152">
        <ele>2265</ele>
        <time>2017-08-29T09:49:30Z</time>
      </trkpt>
      <trkpt lat="45.92541" lon="6.52152">
        <ele>2264</ele>
        <time>2017-08-29T09:49:31Z</time>
      </trkpt>
      <trkpt lat="45.92542" lon="6.52148">
        <ele>2264</ele>
        <time>2017-08-29T09:49:32Z</time>
      </trkpt>
      <trkpt lat="45.92542" lon="6.52148">
        <ele>2263</ele>
        <time>2017-08-29T09:49:33Z</time>
      </trkpt>
      <trkpt lat="45.92542" lon="6.52148">
        <ele>2263</ele>
        <time>2017-08-29T09:49:34Z</time>
      </trkpt>
      <trkpt lat="45.92539" lon="6.52146">
        <ele>2263</ele>
        <time>2017-08-29T09:49:35Z</time>
      </trkpt>
      <trkpt lat="45.92539" lon="6.52146">
        <ele>2263</ele>
        <time>2017-08-29T09:49:36Z</time>
      </trkpt>
      <trkpt lat="45.92538" lon="6.52142">
        <ele>2262</ele>
        <time>2017-08-29T09:49:37Z</time>
      </trkpt>
      <trkpt lat="45.92538" lon="6.52142">
        <ele>2261</ele>
        <time>2017-08-29T09:49:38Z</time>
      </trkpt>
      <trkpt lat="45.92538" lon="6.52139">
        <ele>2261</ele>
        <time>2017-08-29T09:49:39Z</time>
      </trkpt>
      <trkpt lat="45.92538" lon="6.52139">
        <ele>2261</ele>
        <time>2017-08-29T09:49:40Z</time>
      </trkpt>
      <trkpt lat="45.92538" lon="6.52139">
        <ele>2260</ele>
        <time>2017-08-29T09:49:41Z</time>
      </trkpt>
      <trkpt lat="45.92536" lon="6.52136">
        <ele>2259</ele>
        <time>2017-08-29T09:49:42Z</time>
      </trkpt>
      <trkpt lat="45.92536" lon="6.52136">
        <ele>2259</ele>
        <time>2017-08-29T09:49:43Z</time>
      </trkpt>
      <trkpt lat="45.92534" lon="6.52133">
        <ele>2259</ele>
        <time>2017-08-29T09:49:44Z</time>
      </trkpt>
      <trkpt lat="45.92534" lon="6.52133">
        <ele>2257</ele>
        <time>2017-08-29T09:49:45Z</time>
      </trkpt>
      <trkpt lat="45.92534" lon="6.5213">
        <ele>2256</ele>
        <time>2017-08-29T09:49:46Z</time>
      </trkpt>
      <trkpt lat="45.92534" lon="6.5213">
        <ele>2256</ele>
        <time>2017-08-29T09:49:47Z</time>
      </trkpt>
      <trkpt lat="45.92532" lon="6.52128">
        <ele>2256</ele>
        <time>2017-08-29T09:49:48Z</time>
      </trkpt>
      <trkpt lat="45.92532" lon="6.52128">
        <ele>2256</ele>
        <time>2017-08-29T09:49:49Z</time>
      </trkpt>
      <trkpt lat="45.92531" lon="6.52127">
        <ele>2256</ele>
        <time>2017-08-29T09:49:50Z</time>
      </trkpt>
      <trkpt lat="45.92531" lon="6.52127">
        <ele>2255</ele>
        <time>2017-08-29T09:49:51Z</time>
      </trkpt>
      <trkpt lat="45.92531" lon="6.52127">
        <ele>2255</ele>
        <time>2017-08-29T09:49:52Z</time>
      </trkpt>
      <trkpt lat="45.92531" lon="6.52123">
        <ele>2255</ele>
        <time>2017-08-29T09:49:53Z</time>
      </trkpt>
      <trkpt lat="45.92531" lon="6.52123">
        <ele>2254</ele>
        <time>2017-08-29T09:49:54Z</time>
      </trkpt>
      <trkpt lat="45.92531" lon="6.52123">
        <ele>2253</ele>
        <time>2017-08-29T09:49:55Z</time>
      </trkpt>
      <trkpt lat="45.9253" lon="6.5212">
        <ele>2253</ele>
        <time>2017-08-29T09:49:56Z</time>
      </trkpt>
      <trkpt lat="45.9253" lon="6.5212">
        <ele>2253</ele>
        <time>2017-08-29T09:49:57Z</time>
      </trkpt>
      <trkpt lat="45.9253" lon="6.5212">
        <ele>2252</ele>
        <time>2017-08-29T09:49:58Z</time>
      </trkpt>
      <trkpt lat="45.9253" lon="6.5212">
        <ele>2251</ele>
        <time>2017-08-29T09:49:59Z</time>
      </trkpt>
      <trkpt lat="45.9253" lon="6.5212">
        <ele>2250</ele>
        <time>2017-08-29T09:50:00Z</time>
      </trkpt>
      <trkpt lat="45.92529" lon="6.52118">
        <ele>2250</ele>
        <time>2017-08-29T09:50:01Z</time>
      </trkpt>
      <trkpt lat="45.92529" lon="6.52117">
        <ele>2250</ele>
        <time>2017-08-29T09:50:02Z</time>
      </trkpt>
      <trkpt lat="45.92529" lon="6.52116">
        <ele>2250</ele>
        <time>2017-08-29T09:50:03Z</time>
      </trkpt>
      <trkpt lat="45.92528" lon="6.52115">
        <ele>2249</ele>
        <time>2017-08-29T09:50:04Z</time>
      </trkpt>
      <trkpt lat="45.92528" lon="6.52114">
        <ele>2249</ele>
        <time>2017-08-29T09:50:05Z</time>
      </trkpt>
      <trkpt lat="45.92528" lon="6.52112">
        <ele>2249</ele>
        <time>2017-08-29T09:50:06Z</time>
      </trkpt>
      <trkpt lat="45.92528" lon="6.52111">
        <ele>2247</ele>
        <time>2017-08-29T09:50:07Z</time>
      </trkpt>
      <trkpt lat="45.92528" lon="6.5211">
        <ele>2247</ele>
        <time>2017-08-29T09:50:08Z</time>
      </trkpt>
      <trkpt lat="45.92528" lon="6.52109">
        <ele>2247</ele>
        <time>2017-08-29T09:50:09Z</time>
      </trkpt>
      <trkpt lat="45.92528" lon="6.52108">
        <ele>2246</ele>
        <time>2017-08-29T09:50:10Z</time>
      </trkpt>
      <trkpt lat="45.92527" lon="6.52107">
        <ele>2246</ele>
        <time>2017-08-29T09:50:11Z</time>
      </trkpt>
      <trkpt lat="45.92527" lon="6.52106">
        <ele>2246</ele>
        <time>2017-08-29T09:50:12Z</time>
      </trkpt>
      <trkpt lat="45.92527" lon="6.52104">
        <ele>2244</ele>
        <time>2017-08-29T09:50:13Z</time>
      </trkpt>
      <trkpt lat="45.92526" lon="6.52104">
        <ele>2243</ele>
        <time>2017-08-29T09:50:14Z</time>
      </trkpt>
      <trkpt lat="45.92526" lon="6.52103">
        <ele>2243</ele>
        <time>2017-08-29T09:50:15Z</time>
      </trkpt>
      <trkpt lat="45.92525" lon="6.52103">
        <ele>2243</ele>
        <time>2017-08-29T09:50:16Z</time>
      </trkpt>
      <trkpt lat="45.92524" lon="6.52102">
        <ele>2242</ele>
        <time>2017-08-29T09:50:17Z</time>
      </trkpt>
      <trkpt lat="45.92523" lon="6.52102">
        <ele>2242</ele>
        <time>2017-08-29T09:50:18Z</time>
      </trkpt>
      <trkpt lat="45.92523" lon="6.52101">
        <ele>2242</ele>
        <time>2017-08-29T09:50:19Z</time>
      </trkpt>
      <trkpt lat="45.92522" lon="6.52101">
        <ele>2241</ele>
        <time>2017-08-29T09:50:20Z</time>
      </trkpt>
      <trkpt lat="45.92521" lon="6.521">
        <ele>2241</ele>
        <time>2017-08-29T09:50:21Z</time>
      </trkpt>
      <trkpt lat="45.9252" lon="6.52099">
        <ele>2241</ele>
        <time>2017-08-29T09:50:22Z</time>
      </trkpt>
      <trkpt lat="45.9252" lon="6.52099">
        <ele>2241</ele>
        <time>2017-08-29T09:50:23Z</time>
      </trkpt>
      <trkpt lat="45.92519" lon="6.52098">
        <ele>2240</ele>
        <time>2017-08-29T09:50:24Z</time>
      </trkpt>
      <trkpt lat="45.92519" lon="6.52098">
        <ele>2240</ele>
        <time>2017-08-29T09:50:25Z</time>
      </trkpt>
      <trkpt lat="45.92517" lon="6.52096">
        <ele>2240</ele>
        <time>2017-08-29T09:50:26Z</time>
      </trkpt>
      <trkpt lat="45.92517" lon="6.52096">
        <ele>2240</ele>
        <time>2017-08-29T09:50:27Z</time>
      </trkpt>
      <trkpt lat="45.92514" lon="6.52094">
        <ele>2240</ele>
        <time>2017-08-29T09:50:28Z</time>
      </trkpt>
      <trkpt lat="45.92514" lon="6.52094">
        <ele>2240</ele>
        <time>2017-08-29T09:50:29Z</time>
      </trkpt>
      <trkpt lat="45.92512" lon="6.52094">
        <ele>2240</ele>
        <time>2017-08-29T09:50:30Z</time>
      </trkpt>
      <trkpt lat="45.92512" lon="6.52094">
        <ele>2240</ele>
        <time>2017-08-29T09:50:31Z</time>
      </trkpt>
      <trkpt lat="45.92512" lon="6.52094">
        <ele>2240</ele>
        <time>2017-08-29T09:50:32Z</time>
      </trkpt>
      <trkpt lat="45.92512" lon="6.52094">
        <ele>2240</ele>
        <time>2017-08-29T09:50:33Z</time>
      </trkpt>
      <trkpt lat="45.92514" lon="6.52096">
        <ele>2240</ele>
        <time>2017-08-29T09:50:34Z</time>
      </trkpt>
      <trkpt lat="45.92514" lon="6.52096">
        <ele>2240</ele>
        <time>2017-08-29T09:50:35Z</time>
      </trkpt>
      <trkpt lat="45.92512" lon="6.52098">
        <ele>2240</ele>
        <time>2017-08-29T09:50:36Z</time>
      </trkpt>
      <trkpt lat="45.92512" lon="6.52098">
        <ele>2239</ele>
        <time>2017-08-29T09:50:37Z</time>
      </trkpt>
      <trkpt lat="45.9251" lon="6.52102">
        <ele>2238</ele>
        <time>2017-08-29T09:50:38Z</time>
      </trkpt>
      <trkpt lat="45.92509" lon="6.52104">
        <ele>2238</ele>
        <time>2017-08-29T09:50:39Z</time>
      </trkpt>
      <trkpt lat="45.92508" lon="6.52106">
        <ele>2237</ele>
        <time>2017-08-29T09:50:40Z</time>
      </trkpt>
      <trkpt lat="45.92507" lon="6.52108">
        <ele>2237</ele>
        <time>2017-08-29T09:50:41Z</time>
      </trkpt>
      <trkpt lat="45.92506" lon="6.52109">
        <ele>2236</ele>
        <time>2017-08-29T09:50:42Z</time>
      </trkpt>
      <trkpt lat="45.92504" lon="6.5211">
        <ele>2235</ele>
        <time>2017-08-29T09:50:43Z</time>
      </trkpt>
      <trkpt lat="45.92503" lon="6.52111">
        <ele>2235</ele>
        <time>2017-08-29T09:50:44Z</time>
      </trkpt>
      <trkpt lat="45.92501" lon="6.52112">
        <ele>2235</ele>
        <time>2017-08-29T09:50:45Z</time>
      </trkpt>
      <trkpt lat="45.925" lon="6.52113">
        <ele>2234</ele>
        <time>2017-08-29T09:50:46Z</time>
      </trkpt>
      <trkpt lat="45.92499" lon="6.52115">
        <ele>2233</ele>
        <time>2017-08-29T09:50:47Z</time>
      </trkpt>
      <trkpt lat="45.92497" lon="6.52116">
        <ele>2233</ele>
        <time>2017-08-29T09:50:48Z</time>
      </trkpt>
      <trkpt lat="45.92496" lon="6.52117">
        <ele>2233</ele>
        <time>2017-08-29T09:50:49Z</time>
      </trkpt>
      <trkpt lat="45.92495" lon="6.52118">
        <ele>2232</ele>
        <time>2017-08-29T09:50:50Z</time>
      </trkpt>
      <trkpt lat="45.92494" lon="6.5212">
        <ele>2231</ele>
        <time>2017-08-29T09:50:51Z</time>
      </trkpt>
      <trkpt lat="45.92492" lon="6.52121">
        <ele>2231</ele>
        <time>2017-08-29T09:50:52Z</time>
      </trkpt>
      <trkpt lat="45.92491" lon="6.52122">
        <ele>2231</ele>
        <time>2017-08-29T09:50:53Z</time>
      </trkpt>
      <trkpt lat="45.9249" lon="6.52122">
        <ele>2231</ele>
        <time>2017-08-29T09:50:54Z</time>
      </trkpt>
      <trkpt lat="45.92489" lon="6.52122">
        <ele>2230</ele>
        <time>2017-08-29T09:50:55Z</time>
      </trkpt>
      <trkpt lat="45.92487" lon="6.52123">
        <ele>2230</ele>
        <time>2017-08-29T09:50:56Z</time>
      </trkpt>
      <trkpt lat="45.92486" lon="6.52123">
        <ele>2229</ele>
        <time>2017-08-29T09:50:57Z</time>
      </trkpt>
      <trkpt lat="45.92485" lon="6.52123">
        <ele>2228</ele>
        <time>2017-08-29T09:50:58Z</time>
      </trkpt>
      <trkpt lat="45.92484" lon="6.52123">
        <ele>2228</ele>
        <time>2017-08-29T09:50:59Z</time>
      </trkpt>
      <trkpt lat="45.92482" lon="6.52123">
        <ele>2228</ele>
        <time>2017-08-29T09:51:00Z</time>
      </trkpt>
      <trkpt lat="45.92481" lon="6.52124">
        <ele>2226</ele>
        <time>2017-08-29T09:51:01Z</time>
      </trkpt>
      <trkpt lat="45.9248" lon="6.52122">
        <ele>2226</ele>
        <time>2017-08-29T09:51:02Z</time>
      </trkpt>
      <trkpt lat="45.92479" lon="6.5212">
        <ele>2226</ele>
        <time>2017-08-29T09:51:03Z</time>
      </trkpt>
      <trkpt lat="45.92478" lon="6.52118">
        <ele>2225</ele>
        <time>2017-08-29T09:51:04Z</time>
      </trkpt>
      <trkpt lat="45.92477" lon="6.52117">
        <ele>2225</ele>
        <time>2017-08-29T09:51:05Z</time>
      </trkpt>
      <trkpt lat="45.92476" lon="6.52115">
        <ele>2225</ele>
        <time>2017-08-29T09:51:06Z</time>
      </trkpt>
      <trkpt lat="45.92475" lon="6.52113">
        <ele>2225</ele>
        <time>2017-08-29T09:51:07Z</time>
      </trkpt>
      <trkpt lat="45.92475" lon="6.52113">
        <ele>2225</ele>
        <time>2017-08-29T09:51:08Z</time>
      </trkpt>
      <trkpt lat="45.92473" lon="6.5211">
        <ele>2224</ele>
        <time>2017-08-29T09:51:09Z</time>
      </trkpt>
      <trkpt lat="45.92471" lon="6.52108">
        <ele>2224</ele>
        <time>2017-08-29T09:51:10Z</time>
      </trkpt>
      <trkpt lat="45.9247" lon="6.52106">
        <ele>2224</ele>
        <time>2017-08-29T09:51:11Z</time>
      </trkpt>
      <trkpt lat="45.92469" lon="6.52104">
        <ele>2224</ele>
        <time>2017-08-29T09:51:12Z</time>
      </trkpt>
      <trkpt lat="45.92468" lon="6.52103">
        <ele>2224</ele>
        <time>2017-08-29T09:51:13Z</time>
      </trkpt>
      <trkpt lat="45.92466" lon="6.52101">
        <ele>2224</ele>
        <time>2017-08-29T09:51:14Z</time>
      </trkpt>
      <trkpt lat="45.92465" lon="6.52099">
        <ele>2224</ele>
        <time>2017-08-29T09:51:15Z</time>
      </trkpt>
      <trkpt lat="45.92464" lon="6.52097">
        <ele>2224</ele>
        <time>2017-08-29T09:51:16Z</time>
      </trkpt>
      <trkpt lat="45.92462" lon="6.52094">
        <ele>2223</ele>
        <time>2017-08-29T09:51:17Z</time>
      </trkpt>
      <trkpt lat="45.9246" lon="6.52092">
        <ele>2223</ele>
        <time>2017-08-29T09:51:18Z</time>
      </trkpt>
      <trkpt lat="45.92459" lon="6.52089">
        <ele>2223</ele>
        <time>2017-08-29T09:51:19Z</time>
      </trkpt>
      <trkpt lat="45.92457" lon="6.52087">
        <ele>2223</ele>
        <time>2017-08-29T09:51:20Z</time>
      </trkpt>
      <trkpt lat="45.92456" lon="6.52085">
        <ele>2221</ele>
        <time>2017-08-29T09:51:21Z</time>
      </trkpt>
      <trkpt lat="45.92455" lon="6.52083">
        <ele>2221</ele>
        <time>2017-08-29T09:51:22Z</time>
      </trkpt>
      <trkpt lat="45.92454" lon="6.52081">
        <ele>2220</ele>
        <time>2017-08-29T09:51:23Z</time>
      </trkpt>
      <trkpt lat="45.92452" lon="6.52079">
        <ele>2220</ele>
        <time>2017-08-29T09:51:24Z</time>
      </trkpt>
      <trkpt lat="45.92451" lon="6.52078">
        <ele>2220</ele>
        <time>2017-08-29T09:51:25Z</time>
      </trkpt>
      <trkpt lat="45.9245" lon="6.52076">
        <ele>2219</ele>
        <time>2017-08-29T09:51:26Z</time>
      </trkpt>
      <trkpt lat="45.92449" lon="6.52075">
        <ele>2218</ele>
        <time>2017-08-29T09:51:27Z</time>
      </trkpt>
      <trkpt lat="45.92448" lon="6.52073">
        <ele>2217</ele>
        <time>2017-08-29T09:51:28Z</time>
      </trkpt>
      <trkpt lat="45.92446" lon="6.52069">
        <ele>2217</ele>
        <time>2017-08-29T09:51:29Z</time>
      </trkpt>
      <trkpt lat="45.92446" lon="6.52066">
        <ele>2216</ele>
        <time>2017-08-29T09:51:30Z</time>
      </trkpt>
      <trkpt lat="45.92447" lon="6.52062">
        <ele>2215</ele>
        <time>2017-08-29T09:51:31Z</time>
      </trkpt>
      <trkpt lat="45.92448" lon="6.52059">
        <ele>2215</ele>
        <time>2017-08-29T09:51:32Z</time>
      </trkpt>
      <trkpt lat="45.92448" lon="6.52056">
        <ele>2215</ele>
        <time>2017-08-29T09:51:33Z</time>
      </trkpt>
      <trkpt lat="45.92449" lon="6.52052">
        <ele>2215</ele>
        <time>2017-08-29T09:51:34Z</time>
      </trkpt>
      <trkpt lat="45.9245" lon="6.52051">
        <ele>2215</ele>
        <time>2017-08-29T09:51:35Z</time>
      </trkpt>
      <trkpt lat="45.92451" lon="6.52049">
        <ele>2214</ele>
        <time>2017-08-29T09:51:36Z</time>
      </trkpt>
      <trkpt lat="45.92452" lon="6.52047">
        <ele>2213</ele>
        <time>2017-08-29T09:51:37Z</time>
      </trkpt>
      <trkpt lat="45.92453" lon="6.52046">
        <ele>2213</ele>
        <time>2017-08-29T09:51:38Z</time>
      </trkpt>
      <trkpt lat="45.92456" lon="6.52039">
        <ele>2213</ele>
        <time>2017-08-29T09:51:39Z</time>
      </trkpt>
      <trkpt lat="45.92456" lon="6.52038">
        <ele>2212</ele>
        <time>2017-08-29T09:51:40Z</time>
      </trkpt>
      <trkpt lat="45.92457" lon="6.52036">
        <ele>2212</ele>
        <time>2017-08-29T09:51:41Z</time>
      </trkpt>
      <trkpt lat="45.92457" lon="6.52034">
        <ele>2212</ele>
        <time>2017-08-29T09:51:42Z</time>
      </trkpt>
      <trkpt lat="45.92457" lon="6.52033">
        <ele>2211</ele>
        <time>2017-08-29T09:51:43Z</time>
      </trkpt>
      <trkpt lat="45.92458" lon="6.52031">
        <ele>2211</ele>
        <time>2017-08-29T09:51:44Z</time>
      </trkpt>
      <trkpt lat="45.92458" lon="6.52029">
        <ele>2211</ele>
        <time>2017-08-29T09:51:45Z</time>
      </trkpt>
      <trkpt lat="45.92458" lon="6.52028">
        <ele>2210</ele>
        <time>2017-08-29T09:51:46Z</time>
      </trkpt>
      <trkpt lat="45.92459" lon="6.52026">
        <ele>2209</ele>
        <time>2017-08-29T09:51:47Z</time>
      </trkpt>
      <trkpt lat="45.9246" lon="6.52025">
        <ele>2208</ele>
        <time>2017-08-29T09:51:48Z</time>
      </trkpt>
      <trkpt lat="45.9246" lon="6.52023">
        <ele>2208</ele>
        <time>2017-08-29T09:51:49Z</time>
      </trkpt>
      <trkpt lat="45.92461" lon="6.52022">
        <ele>2208</ele>
        <time>2017-08-29T09:51:50Z</time>
      </trkpt>
      <trkpt lat="45.92462" lon="6.52021">
        <ele>2207</ele>
        <time>2017-08-29T09:51:51Z</time>
      </trkpt>
      <trkpt lat="45.92462" lon="6.52019">
        <ele>2207</ele>
        <time>2017-08-29T09:51:52Z</time>
      </trkpt>
      <trkpt lat="45.92463" lon="6.52018">
        <ele>2206</ele>
        <time>2017-08-29T09:51:53Z</time>
      </trkpt>
      <trkpt lat="45.92464" lon="6.52016">
        <ele>2206</ele>
        <time>2017-08-29T09:51:54Z</time>
      </trkpt>
      <trkpt lat="45.92464" lon="6.52015">
        <ele>2206</ele>
        <time>2017-08-29T09:51:55Z</time>
      </trkpt>
      <trkpt lat="45.92466" lon="6.52013">
        <ele>2206</ele>
        <time>2017-08-29T09:51:56Z</time>
      </trkpt>
      <trkpt lat="45.92467" lon="6.52011">
        <ele>2206</ele>
        <time>2017-08-29T09:51:57Z</time>
      </trkpt>
      <trkpt lat="45.92468" lon="6.52009">
        <ele>2204</ele>
        <time>2017-08-29T09:51:58Z</time>
      </trkpt>
      <trkpt lat="45.92469" lon="6.52008">
        <ele>2203</ele>
        <time>2017-08-29T09:51:59Z</time>
      </trkpt>
      <trkpt lat="45.92471" lon="6.52006">
        <ele>2203</ele>
        <time>2017-08-29T09:52:00Z</time>
      </trkpt>
      <trkpt lat="45.92471" lon="6.52004">
        <ele>2202</ele>
        <time>2017-08-29T09:52:01Z</time>
      </trkpt>
      <trkpt lat="45.92472" lon="6.52003">
        <ele>2202</ele>
        <time>2017-08-29T09:52:02Z</time>
      </trkpt>
      <trkpt lat="45.92472" lon="6.52001">
        <ele>2202</ele>
        <time>2017-08-29T09:52:03Z</time>
      </trkpt>
      <trkpt lat="45.92472" lon="6.52">
        <ele>2201</ele>
        <time>2017-08-29T09:52:04Z</time>
      </trkpt>
      <trkpt lat="45.92473" lon="6.51998">
        <ele>2201</ele>
        <time>2017-08-29T09:52:05Z</time>
      </trkpt>
      <trkpt lat="45.92475" lon="6.51991">
        <ele>2201</ele>
        <time>2017-08-29T09:52:06Z</time>
      </trkpt>
      <trkpt lat="45.92475" lon="6.51989">
        <ele>2201</ele>
        <time>2017-08-29T09:52:07Z</time>
      </trkpt>
      <trkpt lat="45.92476" lon="6.51987">
        <ele>2201</ele>
        <time>2017-08-29T09:52:08Z</time>
      </trkpt>
      <trkpt lat="45.92476" lon="6.51986">
        <ele>2200</ele>
        <time>2017-08-29T09:52:09Z</time>
      </trkpt>
      <trkpt lat="45.92477" lon="6.51984">
        <ele>2199</ele>
        <time>2017-08-29T09:52:10Z</time>
      </trkpt>
      <trkpt lat="45.92478" lon="6.51976">
        <ele>2199</ele>
        <time>2017-08-29T09:52:11Z</time>
      </trkpt>
      <trkpt lat="45.92479" lon="6.51975">
        <ele>2199</ele>
        <time>2017-08-29T09:52:12Z</time>
      </trkpt>
      <trkpt lat="45.92479" lon="6.51974">
        <ele>2198</ele>
        <time>2017-08-29T09:52:13Z</time>
      </trkpt>
      <trkpt lat="45.92479" lon="6.51973">
        <ele>2198</ele>
        <time>2017-08-29T09:52:14Z</time>
      </trkpt>
      <trkpt lat="45.9248" lon="6.51972">
        <ele>2198</ele>
        <time>2017-08-29T09:52:15Z</time>
      </trkpt>
      <trkpt lat="45.9248" lon="6.5197">
        <ele>2198</ele>
        <time>2017-08-29T09:52:16Z</time>
      </trkpt>
      <trkpt lat="45.9248" lon="6.51969">
        <ele>2198</ele>
        <time>2017-08-29T09:52:17Z</time>
      </trkpt>
      <trkpt lat="45.9248" lon="6.51968">
        <ele>2198</ele>
        <time>2017-08-29T09:52:18Z</time>
      </trkpt>
      <trkpt lat="45.92481" lon="6.51967">
        <ele>2197</ele>
        <time>2017-08-29T09:52:19Z</time>
      </trkpt>
      <trkpt lat="45.92481" lon="6.51966">
        <ele>2197</ele>
        <time>2017-08-29T09:52:20Z</time>
      </trkpt>
      <trkpt lat="45.92481" lon="6.51964">
        <ele>2197</ele>
        <time>2017-08-29T09:52:21Z</time>
      </trkpt>
      <trkpt lat="45.92481" lon="6.51963">
        <ele>2197</ele>
        <time>2017-08-29T09:52:22Z</time>
      </trkpt>
      <trkpt lat="45.92482" lon="6.51961">
        <ele>2197</ele>
        <time>2017-08-29T09:52:23Z</time>
      </trkpt>
      <trkpt lat="45.92482" lon="6.51958">
        <ele>2195</ele>
        <time>2017-08-29T09:52:24Z</time>
      </trkpt>
      <trkpt lat="45.92483" lon="6.51955">
        <ele>2194</ele>
        <time>2017-08-29T09:52:25Z</time>
      </trkpt>
      <trkpt lat="45.92483" lon="6.51953">
        <ele>2194</ele>
        <time>2017-08-29T09:52:26Z</time>
      </trkpt>
      <trkpt lat="45.92484" lon="6.5195">
        <ele>2194</ele>
        <time>2017-08-29T09:52:27Z</time>
      </trkpt>
      <trkpt lat="45.92484" lon="6.51948">
        <ele>2193</ele>
        <time>2017-08-29T09:52:28Z</time>
      </trkpt>
      <trkpt lat="45.92484" lon="6.51946">
        <ele>2193</ele>
        <time>2017-08-29T09:52:29Z</time>
      </trkpt>
      <trkpt lat="45.92484" lon="6.51944">
        <ele>2193</ele>
        <time>2017-08-29T09:52:30Z</time>
      </trkpt>
      <trkpt lat="45.92484" lon="6.51942">
        <ele>2192</ele>
        <time>2017-08-29T09:52:31Z</time>
      </trkpt>
      <trkpt lat="45.92484" lon="6.5194">
        <ele>2191</ele>
        <time>2017-08-29T09:52:32Z</time>
      </trkpt>
      <trkpt lat="45.92484" lon="6.51937">
        <ele>2191</ele>
        <time>2017-08-29T09:52:33Z</time>
      </trkpt>
      <trkpt lat="45.92484" lon="6.51936">
        <ele>2191</ele>
        <time>2017-08-29T09:52:34Z</time>
      </trkpt>
      <trkpt lat="45.92485" lon="6.51934">
        <ele>2191</ele>
        <time>2017-08-29T09:52:35Z</time>
      </trkpt>
      <trkpt lat="45.92485" lon="6.51933">
        <ele>2190</ele>
        <time>2017-08-29T09:52:36Z</time>
      </trkpt>
      <trkpt lat="45.92485" lon="6.51932">
        <ele>2189</ele>
        <time>2017-08-29T09:52:37Z</time>
      </trkpt>
      <trkpt lat="45.92485" lon="6.5193">
        <ele>2188</ele>
        <time>2017-08-29T09:52:38Z</time>
      </trkpt>
      <trkpt lat="45.92486" lon="6.51923">
        <ele>2188</ele>
        <time>2017-08-29T09:52:39Z</time>
      </trkpt>
      <trkpt lat="45.92487" lon="6.51921">
        <ele>2187</ele>
        <time>2017-08-29T09:52:40Z</time>
      </trkpt>
      <trkpt lat="45.92487" lon="6.5192">
        <ele>2187</ele>
        <time>2017-08-29T09:52:41Z</time>
      </trkpt>
      <trkpt lat="45.92487" lon="6.51918">
        <ele>2186</ele>
        <time>2017-08-29T09:52:42Z</time>
      </trkpt>
      <trkpt lat="45.92487" lon="6.51917">
        <ele>2185</ele>
        <time>2017-08-29T09:52:43Z</time>
      </trkpt>
      <trkpt lat="45.92487" lon="6.51915">
        <ele>2185</ele>
        <time>2017-08-29T09:52:44Z</time>
      </trkpt>
      <trkpt lat="45.92488" lon="6.51908">
        <ele>2185</ele>
        <time>2017-08-29T09:52:45Z</time>
      </trkpt>
      <trkpt lat="45.92488" lon="6.51905">
        <ele>2184</ele>
        <time>2017-08-29T09:52:46Z</time>
      </trkpt>
      <trkpt lat="45.92488" lon="6.51903">
        <ele>2184</ele>
        <time>2017-08-29T09:52:47Z</time>
      </trkpt>
      <trkpt lat="45.92488" lon="6.51901">
        <ele>2183</ele>
        <time>2017-08-29T09:52:48Z</time>
      </trkpt>
      <trkpt lat="45.92489" lon="6.51898">
        <ele>2182</ele>
        <time>2017-08-29T09:52:49Z</time>
      </trkpt>
      <trkpt lat="45.92489" lon="6.51896">
        <ele>2181</ele>
        <time>2017-08-29T09:52:50Z</time>
      </trkpt>
      <trkpt lat="45.92489" lon="6.51893">
        <ele>2181</ele>
        <time>2017-08-29T09:52:51Z</time>
      </trkpt>
      <trkpt lat="45.92489" lon="6.51891">
        <ele>2181</ele>
        <time>2017-08-29T09:52:52Z</time>
      </trkpt>
      <trkpt lat="45.9249" lon="6.51888">
        <ele>2180</ele>
        <time>2017-08-29T09:52:53Z</time>
      </trkpt>
      <trkpt lat="45.92491" lon="6.51886">
        <ele>2180</ele>
        <time>2017-08-29T09:52:54Z</time>
      </trkpt>
      <trkpt lat="45.92491" lon="6.51884">
        <ele>2179</ele>
        <time>2017-08-29T09:52:55Z</time>
      </trkpt>
      <trkpt lat="45.92492" lon="6.51881">
        <ele>2178</ele>
        <time>2017-08-29T09:52:56Z</time>
      </trkpt>
      <trkpt lat="45.92493" lon="6.5188">
        <ele>2178</ele>
        <time>2017-08-29T09:52:57Z</time>
      </trkpt>
      <trkpt lat="45.92493" lon="6.51879">
        <ele>2178</ele>
        <time>2017-08-29T09:52:58Z</time>
      </trkpt>
      <trkpt lat="45.92494" lon="6.51878">
        <ele>2178</ele>
        <time>2017-08-29T09:52:59Z</time>
      </trkpt>
      <trkpt lat="45.92495" lon="6.51877">
        <ele>2177</ele>
        <time>2017-08-29T09:53:00Z</time>
      </trkpt>
      <trkpt lat="45.92496" lon="6.51876">
        <ele>2176</ele>
        <time>2017-08-29T09:53:01Z</time>
      </trkpt>
      <trkpt lat="45.925" lon="6.51871">
        <ele>2176</ele>
        <time>2017-08-29T09:53:02Z</time>
      </trkpt>
      <trkpt lat="45.92502" lon="6.5187">
        <ele>2176</ele>
        <time>2017-08-29T09:53:03Z</time>
      </trkpt>
      <trkpt lat="45.92503" lon="6.51869">
        <ele>2176</ele>
        <time>2017-08-29T09:53:04Z</time>
      </trkpt>
      <trkpt lat="45.92504" lon="6.51868">
        <ele>2175</ele>
        <time>2017-08-29T09:53:05Z</time>
      </trkpt>
      <trkpt lat="45.92506" lon="6.51867">
        <ele>2174</ele>
        <time>2017-08-29T09:53:06Z</time>
      </trkpt>
      <trkpt lat="45.92507" lon="6.51866">
        <ele>2174</ele>
        <time>2017-08-29T09:53:07Z</time>
      </trkpt>
      <trkpt lat="45.92509" lon="6.51864">
        <ele>2173</ele>
        <time>2017-08-29T09:53:08Z</time>
      </trkpt>
      <trkpt lat="45.92509" lon="6.51863">
        <ele>2173</ele>
        <time>2017-08-29T09:53:09Z</time>
      </trkpt>
      <trkpt lat="45.9251" lon="6.51862">
        <ele>2173</ele>
        <time>2017-08-29T09:53:10Z</time>
      </trkpt>
      <trkpt lat="45.92511" lon="6.5186">
        <ele>2172</ele>
        <time>2017-08-29T09:53:11Z</time>
      </trkpt>
      <trkpt lat="45.92512" lon="6.51859">
        <ele>2171</ele>
        <time>2017-08-29T09:53:12Z</time>
      </trkpt>
      <trkpt lat="45.92512" lon="6.51858">
        <ele>2171</ele>
        <time>2017-08-29T09:53:13Z</time>
      </trkpt>
      <trkpt lat="45.92513" lon="6.51856">
        <ele>2171</ele>
        <time>2017-08-29T09:53:14Z</time>
      </trkpt>
      <trkpt lat="45.92514" lon="6.51855">
        <ele>2168</ele>
        <time>2017-08-29T09:53:15Z</time>
      </trkpt>
      <trkpt lat="45.92514" lon="6.51853">
        <ele>2167</ele>
        <time>2017-08-29T09:53:16Z</time>
      </trkpt>
      <trkpt lat="45.92515" lon="6.51851">
        <ele>2167</ele>
        <time>2017-08-29T09:53:17Z</time>
      </trkpt>
      <trkpt lat="45.92516" lon="6.51849">
        <ele>2167</ele>
        <time>2017-08-29T09:53:18Z</time>
      </trkpt>
      <trkpt lat="45.92517" lon="6.51848">
        <ele>2166</ele>
        <time>2017-08-29T09:53:19Z</time>
      </trkpt>
      <trkpt lat="45.92518" lon="6.51846">
        <ele>2166</ele>
        <time>2017-08-29T09:53:20Z</time>
      </trkpt>
      <trkpt lat="45.92518" lon="6.51844">
        <ele>2165</ele>
        <time>2017-08-29T09:53:21Z</time>
      </trkpt>
      <trkpt lat="45.92519" lon="6.51842">
        <ele>2164</ele>
        <time>2017-08-29T09:53:22Z</time>
      </trkpt>
      <trkpt lat="45.92519" lon="6.5184">
        <ele>2164</ele>
        <time>2017-08-29T09:53:23Z</time>
      </trkpt>
      <trkpt lat="45.92519" lon="6.51839">
        <ele>2164</ele>
        <time>2017-08-29T09:53:24Z</time>
      </trkpt>
      <trkpt lat="45.92519" lon="6.51837">
        <ele>2163</ele>
        <time>2017-08-29T09:53:25Z</time>
      </trkpt>
      <trkpt lat="45.92519" lon="6.51836">
        <ele>2163</ele>
        <time>2017-08-29T09:53:26Z</time>
      </trkpt>
      <trkpt lat="45.92519" lon="6.51834">
        <ele>2163</ele>
        <time>2017-08-29T09:53:27Z</time>
      </trkpt>
      <trkpt lat="45.92518" lon="6.51827">
        <ele>2162</ele>
        <time>2017-08-29T09:53:28Z</time>
      </trkpt>
      <trkpt lat="45.92518" lon="6.51824">
        <ele>2161</ele>
        <time>2017-08-29T09:53:29Z</time>
      </trkpt>
      <trkpt lat="45.92518" lon="6.51821">
        <ele>2161</ele>
        <time>2017-08-29T09:53:30Z</time>
      </trkpt>
      <trkpt lat="45.92518" lon="6.51818">
        <ele>2161</ele>
        <time>2017-08-29T09:53:31Z</time>
      </trkpt>
      <trkpt lat="45.92518" lon="6.51816">
        <ele>2161</ele>
        <time>2017-08-29T09:53:32Z</time>
      </trkpt>
      <trkpt lat="45.92518" lon="6.51813">
        <ele>2160</ele>
        <time>2017-08-29T09:53:33Z</time>
      </trkpt>
      <trkpt lat="45.92518" lon="6.51813">
        <ele>2160</ele>
        <time>2017-08-29T09:53:34Z</time>
      </trkpt>
      <trkpt lat="45.92518" lon="6.51813">
        <ele>2160</ele>
        <time>2017-08-29T09:53:35Z</time>
      </trkpt>
      <trkpt lat="45.92518" lon="6.51813">
        <ele>2160</ele>
        <time>2017-08-29T09:53:36Z</time>
      </trkpt>
      <trkpt lat="45.92518" lon="6.51813">
        <ele>2159</ele>
        <time>2017-08-29T09:53:37Z</time>
      </trkpt>
      <trkpt lat="45.92519" lon="6.51813">
        <ele>2159</ele>
        <time>2017-08-29T09:53:38Z</time>
      </trkpt>
      <trkpt lat="45.92519" lon="6.51813">
        <ele>2159</ele>
        <time>2017-08-29T09:53:39Z</time>
      </trkpt>
      <trkpt lat="45.92519" lon="6.51814">
        <ele>2159</ele>
        <time>2017-08-29T09:53:40Z</time>
      </trkpt>
      <trkpt lat="45.92519" lon="6.51814">
        <ele>2159</ele>
        <time>2017-08-29T09:53:41Z</time>
      </trkpt>
      <trkpt lat="45.92519" lon="6.51814">
        <ele>2159</ele>
        <time>2017-08-29T09:53:42Z</time>
      </trkpt>
      <trkpt lat="45.92519" lon="6.51814">
        <ele>2159</ele>
        <time>2017-08-29T09:53:43Z</time>
      </trkpt>
      <trkpt lat="45.9252" lon="6.51814">
        <ele>2159</ele>
        <time>2017-08-29T09:53:44Z</time>
      </trkpt>
      <trkpt lat="45.9252" lon="6.51814">
        <ele>2159</ele>
        <time>2017-08-29T09:53:45Z</time>
      </trkpt>
      <trkpt lat="45.9252" lon="6.51814">
        <ele>2159</ele>
        <time>2017-08-29T09:53:46Z</time>
      </trkpt>
      <trkpt lat="45.9252" lon="6.51815">
        <ele>2159</ele>
        <time>2017-08-29T09:53:47Z</time>
      </trkpt>
      <trkpt lat="45.9252" lon="6.51815">
        <ele>2159</ele>
        <time>2017-08-29T09:53:48Z</time>
      </trkpt>
      <trkpt lat="45.92521" lon="6.51815">
        <ele>2159</ele>
        <time>2017-08-29T09:53:49Z</time>
      </trkpt>
      <trkpt lat="45.92521" lon="6.51815">
        <ele>2159</ele>
        <time>2017-08-29T09:53:50Z</time>
      </trkpt>
      <trkpt lat="45.92521" lon="6.51815">
        <ele>2159</ele>
        <time>2017-08-29T09:53:51Z</time>
      </trkpt>
      <trkpt lat="45.92521" lon="6.51815">
        <ele>2159</ele>
        <time>2017-08-29T09:53:52Z</time>
      </trkpt>
      <trkpt lat="45.92521" lon="6.51815">
        <ele>2159</ele>
        <time>2017-08-29T09:53:53Z</time>
      </trkpt>
      <trkpt lat="45.92521" lon="6.51816">
        <ele>2159</ele>
        <time>2017-08-29T09:53:54Z</time>
      </trkpt>
      <trkpt lat="45.92522" lon="6.51816">
        <ele>2159</ele>
        <time>2017-08-29T09:53:55Z</time>
      </trkpt>
      <trkpt lat="45.92522" lon="6.51816">
        <ele>2159</ele>
        <time>2017-08-29T09:53:56Z</time>
      </trkpt>
      <trkpt lat="45.92522" lon="6.51816">
        <ele>2159</ele>
        <time>2017-08-29T09:53:57Z</time>
      </trkpt>
      <trkpt lat="45.92522" lon="6.51816">
        <ele>2159</ele>
        <time>2017-08-29T09:53:58Z</time>
      </trkpt>
      <trkpt lat="45.92522" lon="6.51816">
        <ele>2158</ele>
        <time>2017-08-29T09:53:59Z</time>
      </trkpt>
      <trkpt lat="45.92522" lon="6.51816">
        <ele>2158</ele>
        <time>2017-08-29T09:54:00Z</time>
      </trkpt>
      <trkpt lat="45.92522" lon="6.51816">
        <ele>2159</ele>
        <time>2017-08-29T09:54:01Z</time>
      </trkpt>
      <trkpt lat="45.92522" lon="6.51816">
        <ele>2159</ele>
        <time>2017-08-29T09:54:02Z</time>
      </trkpt>
      <trkpt lat="45.92522" lon="6.51816">
        <ele>2159</ele>
        <time>2017-08-29T09:54:03Z</time>
      </trkpt>
      <trkpt lat="45.92522" lon="6.51816">
        <ele>2159</ele>
        <time>2017-08-29T09:54:04Z</time>
      </trkpt>
      <trkpt lat="45.92522" lon="6.51816">
        <ele>2159</ele>
        <time>2017-08-29T09:54:05Z</time>
      </trkpt>
      <trkpt lat="45.92522" lon="6.51816">
        <ele>2159</ele>
        <time>2017-08-29T09:54:06Z</time>
      </trkpt>
      <trkpt lat="45.92522" lon="6.51816">
        <ele>2159</ele>
        <time>2017-08-29T09:54:07Z</time>
      </trkpt>
      <trkpt lat="45.92522" lon="6.51816">
        <ele>2159</ele>
        <time>2017-08-29T09:54:08Z</time>
      </trkpt>
      <trkpt lat="45.92522" lon="6.51816">
        <ele>2159</ele>
        <time>2017-08-29T09:54:09Z</time>
      </trkpt>
      <trkpt lat="45.92522" lon="6.51816">
        <ele>2159</ele>
        <time>2017-08-29T09:54:10Z</time>
      </trkpt>
      <trkpt lat="45.92522" lon="6.51816">
        <ele>2159</ele>
        <time>2017-08-29T09:54:11Z</time>
      </trkpt>
      <trkpt lat="45.92522" lon="6.51816">
        <ele>2159</ele>
        <time>2017-08-29T09:54:12Z</time>
      </trkpt>
      <trkpt lat="45.92522" lon="6.51816">
        <ele>2159</ele>
        <time>2017-08-29T09:54:13Z</time>
      </trkpt>
      <trkpt lat="45.92522" lon="6.51816">
        <ele>2159</ele>
        <time>2017-08-29T09:54:14Z</time>
      </trkpt>
      <trkpt lat="45.92522" lon="6.51816">
        <ele>2159</ele>
        <time>2017-08-29T09:54:15Z</time>
      </trkpt>
      <trkpt lat="45.92522" lon="6.51816">
        <ele>2159</ele>
        <time>2017-08-29T09:54:16Z</time>
      </trkpt>
      <trkpt lat="45.92522" lon="6.51816">
        <ele>2159</ele>
        <time>2017-08-29T09:54:17Z</time>
      </trkpt>
      <trkpt lat="45.92522" lon="6.51816">
        <ele>2159</ele>
        <time>2017-08-29T09:54:18Z</time>
      </trkpt>
      <trkpt lat="45.92522" lon="6.51816">
        <ele>2159</ele>
        <time>2017-08-29T09:54:19Z</time>
      </trkpt>
      <trkpt lat="45.92522" lon="6.51816">
        <ele>2159</ele>
        <time>2017-08-29T09:54:20Z</time>
      </trkpt>
      <trkpt lat="45.92522" lon="6.51816">
        <ele>2159</ele>
        <time>2017-08-29T09:54:21Z</time>
      </trkpt>
      <trkpt lat="45.92522" lon="6.51816">
        <ele>2159</ele>
        <time>2017-08-29T09:54:22Z</time>
      </trkpt>
      <trkpt lat="45.92522" lon="6.51816">
        <ele>2159</ele>
        <time>2017-08-29T09:54:23Z</time>
      </trkpt>
      <trkpt lat="45.92522" lon="6.51816">
        <ele>2159</ele>
        <time>2017-08-29T09:54:24Z</time>
      </trkpt>
      <trkpt lat="45.92522" lon="6.51816">
        <ele>2159</ele>
        <time>2017-08-29T09:54:25Z</time>
      </trkpt>
      <trkpt lat="45.92522" lon="6.51816">
        <ele>2159</ele>
        <time>2017-08-29T09:54:26Z</time>
      </trkpt>
      <trkpt lat="45.92522" lon="6.51816">
        <ele>2159</ele>
        <time>2017-08-29T09:54:27Z</time>
      </trkpt>
      <trkpt lat="45.92522" lon="6.51816">
        <ele>2159</ele>
        <time>2017-08-29T09:54:28Z</time>
      </trkpt>
      <trkpt lat="45.92522" lon="6.51816">
        <ele>2159</ele>
        <time>2017-08-29T09:54:29Z</time>
      </trkpt>
      <trkpt lat="45.92522" lon="6.51816">
        <ele>2159</ele>
        <time>2017-08-29T09:54:30Z</time>
      </trkpt>
      <trkpt lat="45.92522" lon="6.51816">
        <ele>2159</ele>
        <time>2017-08-29T09:54:31Z</time>
      </trkpt>
      <trkpt lat="45.92522" lon="6.51816">
        <ele>2158</ele>
        <time>2017-08-29T09:54:32Z</time>
      </trkpt>
      <trkpt lat="45.92522" lon="6.51816">
        <ele>2158</ele>
        <time>2017-08-29T09:54:33Z</time>
      </trkpt>
      <trkpt lat="45.92522" lon="6.51816">
        <ele>2158</ele>
        <time>2017-08-29T09:54:34Z</time>
      </trkpt>
      <trkpt lat="45.92522" lon="6.51816">
        <ele>2158</ele>
        <time>2017-08-29T09:54:35Z</time>
      </trkpt>
      <trkpt lat="45.92522" lon="6.51816">
        <ele>2158</ele>
        <time>2017-08-29T09:54:36Z</time>
      </trkpt>
      <trkpt lat="45.92522" lon="6.51816">
        <ele>2158</ele>
        <time>2017-08-29T09:54:37Z</time>
      </trkpt>
      <trkpt lat="45.92522" lon="6.51816">
        <ele>2158</ele>
        <time>2017-08-29T09:54:38Z</time>
      </trkpt>
      <trkpt lat="45.92522" lon="6.51816">
        <ele>2158</ele>
        <time>2017-08-29T09:54:39Z</time>
      </trkpt>
      <trkpt lat="45.92522" lon="6.51816">
        <ele>2158</ele>
        <time>2017-08-29T09:54:40Z</time>
      </trkpt>
      <trkpt lat="45.92522" lon="6.51816">
        <ele>2158</ele>
        <time>2017-08-29T09:54:41Z</time>
      </trkpt>
      <trkpt lat="45.92522" lon="6.51816">
        <ele>2158</ele>
        <time>2017-08-29T09:54:42Z</time>
      </trkpt>
      <trkpt lat="45.92522" lon="6.51816">
        <ele>2158</ele>
        <time>2017-08-29T09:54:43Z</time>
      </trkpt>
      <trkpt lat="45.92522" lon="6.51816">
        <ele>2158</ele>
        <time>2017-08-29T09:54:44Z</time>
      </trkpt>
      <trkpt lat="45.92522" lon="6.51816">
        <ele>2158</ele>
        <time>2017-08-29T09:54:45Z</time>
      </trkpt>
      <trkpt lat="45.92522" lon="6.51816">
        <ele>2158</ele>
        <time>2017-08-29T09:54:46Z</time>
      </trkpt>
      <trkpt lat="45.92522" lon="6.51813">
        <ele>2158</ele>
        <time>2017-08-29T09:54:47Z</time>
      </trkpt>
      <trkpt lat="45.92522" lon="6.51813">
        <ele>2158</ele>
        <time>2017-08-29T09:54:48Z</time>
      </trkpt>
      <trkpt lat="45.92522" lon="6.51813">
        <ele>2158</ele>
        <time>2017-08-29T09:54:49Z</time>
      </trkpt>
      <trkpt lat="45.92523" lon="6.51811">
        <ele>2158</ele>
        <time>2017-08-29T09:54:50Z</time>
      </trkpt>
      <trkpt lat="45.92523" lon="6.51811">
        <ele>2157</ele>
        <time>2017-08-29T09:54:51Z</time>
      </trkpt>
      <trkpt lat="45.92523" lon="6.51811">
        <ele>2156</ele>
        <time>2017-08-29T09:54:52Z</time>
      </trkpt>
      <trkpt lat="45.92523" lon="6.51811">
        <ele>2155</ele>
        <time>2017-08-29T09:54:53Z</time>
      </trkpt>
      <trkpt lat="45.92524" lon="6.51809">
        <ele>2155</ele>
        <time>2017-08-29T09:54:54Z</time>
      </trkpt>
      <trkpt lat="45.92524" lon="6.51809">
        <ele>2155</ele>
        <time>2017-08-29T09:54:55Z</time>
      </trkpt>
      <trkpt lat="45.92525" lon="6.51806">
        <ele>2155</ele>
        <time>2017-08-29T09:54:56Z</time>
      </trkpt>
      <trkpt lat="45.92525" lon="6.51806">
        <ele>2155</ele>
        <time>2017-08-29T09:54:57Z</time>
      </trkpt>
      <trkpt lat="45.92525" lon="6.51803">
        <ele>2155</ele>
        <time>2017-08-29T09:54:58Z</time>
      </trkpt>
      <trkpt lat="45.92525" lon="6.51803">
        <ele>2154</ele>
        <time>2017-08-29T09:54:59Z</time>
      </trkpt>
      <trkpt lat="45.92526" lon="6.518">
        <ele>2154</ele>
        <time>2017-08-29T09:55:00Z</time>
      </trkpt>
      <trkpt lat="45.92526" lon="6.518">
        <ele>2154</ele>
        <time>2017-08-29T09:55:01Z</time>
      </trkpt>
      <trkpt lat="45.92526" lon="6.518">
        <ele>2153</ele>
        <time>2017-08-29T09:55:02Z</time>
      </trkpt>
      <trkpt lat="45.92526" lon="6.518">
        <ele>2153</ele>
        <time>2017-08-29T09:55:03Z</time>
      </trkpt>
      <trkpt lat="45.92528" lon="6.51799">
        <ele>2152</ele>
        <time>2017-08-29T09:55:04Z</time>
      </trkpt>
      <trkpt lat="45.92528" lon="6.51799">
        <ele>2152</ele>
        <time>2017-08-29T09:55:05Z</time>
      </trkpt>
      <trkpt lat="45.92528" lon="6.51799">
        <ele>2151</ele>
        <time>2017-08-29T09:55:06Z</time>
      </trkpt>
      <trkpt lat="45.9253" lon="6.51798">
        <ele>2151</ele>
        <time>2017-08-29T09:55:07Z</time>
      </trkpt>
      <trkpt lat="45.9253" lon="6.51798">
        <ele>2150</ele>
        <time>2017-08-29T09:55:08Z</time>
      </trkpt>
      <trkpt lat="45.92533" lon="6.51798">
        <ele>2149</ele>
        <time>2017-08-29T09:55:09Z</time>
      </trkpt>
      <trkpt lat="45.92533" lon="6.51798">
        <ele>2149</ele>
        <time>2017-08-29T09:55:10Z</time>
      </trkpt>
      <trkpt lat="45.92535" lon="6.51799">
        <ele>2149</ele>
        <time>2017-08-29T09:55:11Z</time>
      </trkpt>
      <trkpt lat="45.92535" lon="6.51799">
        <ele>2149</ele>
        <time>2017-08-29T09:55:12Z</time>
      </trkpt>
      <trkpt lat="45.92538" lon="6.51798">
        <ele>2148</ele>
        <time>2017-08-29T09:55:13Z</time>
      </trkpt>
      <trkpt lat="45.9254" lon="6.51798">
        <ele>2147</ele>
        <time>2017-08-29T09:55:14Z</time>
      </trkpt>
      <trkpt lat="45.92542" lon="6.51797">
        <ele>2147</ele>
        <time>2017-08-29T09:55:15Z</time>
      </trkpt>
      <trkpt lat="45.92544" lon="6.51796">
        <ele>2146</ele>
        <time>2017-08-29T09:55:16Z</time>
      </trkpt>
      <trkpt lat="45.92545" lon="6.51795">
        <ele>2146</ele>
        <time>2017-08-29T09:55:17Z</time>
      </trkpt>
      <trkpt lat="45.92547" lon="6.51793">
        <ele>2145</ele>
        <time>2017-08-29T09:55:18Z</time>
      </trkpt>
      <trkpt lat="45.92549" lon="6.51791">
        <ele>2143</ele>
        <time>2017-08-29T09:55:19Z</time>
      </trkpt>
      <trkpt lat="45.92551" lon="6.51789">
        <ele>2142</ele>
        <time>2017-08-29T09:55:20Z</time>
      </trkpt>
      <trkpt lat="45.92552" lon="6.51787">
        <ele>2141</ele>
        <time>2017-08-29T09:55:21Z</time>
      </trkpt>
      <trkpt lat="45.92554" lon="6.51785">
        <ele>2140</ele>
        <time>2017-08-29T09:55:22Z</time>
      </trkpt>
      <trkpt lat="45.92556" lon="6.51783">
        <ele>2140</ele>
        <time>2017-08-29T09:55:23Z</time>
      </trkpt>
      <trkpt lat="45.92558" lon="6.51782">
        <ele>2140</ele>
        <time>2017-08-29T09:55:24Z</time>
      </trkpt>
      <trkpt lat="45.92558" lon="6.51782">
        <ele>2140</ele>
        <time>2017-08-29T09:55:25Z</time>
      </trkpt>
      <trkpt lat="45.92561" lon="6.51779">
        <ele>2140</ele>
        <time>2017-08-29T09:55:26Z</time>
      </trkpt>
      <trkpt lat="45.92563" lon="6.51779">
        <ele>2140</ele>
        <time>2017-08-29T09:55:27Z</time>
      </trkpt>
      <trkpt lat="45.92565" lon="6.51779">
        <ele>2139</ele>
        <time>2017-08-29T09:55:28Z</time>
      </trkpt>
      <trkpt lat="45.92567" lon="6.51779">
        <ele>2138</ele>
        <time>2017-08-29T09:55:29Z</time>
      </trkpt>
      <trkpt lat="45.92569" lon="6.51779">
        <ele>2137</ele>
        <time>2017-08-29T09:55:30Z</time>
      </trkpt>
      <trkpt lat="45.92571" lon="6.51778">
        <ele>2137</ele>
        <time>2017-08-29T09:55:31Z</time>
      </trkpt>
      <trkpt lat="45.92573" lon="6.51778">
        <ele>2136</ele>
        <time>2017-08-29T09:55:32Z</time>
      </trkpt>
      <trkpt lat="45.92575" lon="6.51778">
        <ele>2136</ele>
        <time>2017-08-29T09:55:33Z</time>
      </trkpt>
      <trkpt lat="45.92577" lon="6.51777">
        <ele>2136</ele>
        <time>2017-08-29T09:55:34Z</time>
      </trkpt>
      <trkpt lat="45.92578" lon="6.51778">
        <ele>2136</ele>
        <time>2017-08-29T09:55:35Z</time>
      </trkpt>
      <trkpt lat="45.9258" lon="6.51779">
        <ele>2135</ele>
        <time>2017-08-29T09:55:36Z</time>
      </trkpt>
      <trkpt lat="45.92582" lon="6.5178">
        <ele>2134</ele>
        <time>2017-08-29T09:55:37Z</time>
      </trkpt>
      <trkpt lat="45.92584" lon="6.51781">
        <ele>2133</ele>
        <time>2017-08-29T09:55:38Z</time>
      </trkpt>
      <trkpt lat="45.92586" lon="6.51783">
        <ele>2133</ele>
        <time>2017-08-29T09:55:39Z</time>
      </trkpt>
      <trkpt lat="45.92588" lon="6.51783">
        <ele>2133</ele>
        <time>2017-08-29T09:55:40Z</time>
      </trkpt>
      <trkpt lat="45.9259" lon="6.51784">
        <ele>2133</ele>
        <time>2017-08-29T09:55:41Z</time>
      </trkpt>
      <trkpt lat="45.92592" lon="6.51785">
        <ele>2133</ele>
        <time>2017-08-29T09:55:42Z</time>
      </trkpt>
      <trkpt lat="45.92594" lon="6.51786">
        <ele>2132</ele>
        <time>2017-08-29T09:55:43Z</time>
      </trkpt>
      <trkpt lat="45.92596" lon="6.51787">
        <ele>2131</ele>
        <time>2017-08-29T09:55:44Z</time>
      </trkpt>
      <trkpt lat="45.92598" lon="6.51788">
        <ele>2131</ele>
        <time>2017-08-29T09:55:45Z</time>
      </trkpt>
      <trkpt lat="45.92598" lon="6.51788">
        <ele>2129</ele>
        <time>2017-08-29T09:55:46Z</time>
      </trkpt>
      <trkpt lat="45.926" lon="6.51789">
        <ele>2128</ele>
        <time>2017-08-29T09:55:47Z</time>
      </trkpt>
      <trkpt lat="45.926" lon="6.51789">
        <ele>2128</ele>
        <time>2017-08-29T09:55:48Z</time>
      </trkpt>
      <trkpt lat="45.92603" lon="6.5179">
        <ele>2128</ele>
        <time>2017-08-29T09:55:49Z</time>
      </trkpt>
      <trkpt lat="45.92603" lon="6.5179">
        <ele>2128</ele>
        <time>2017-08-29T09:55:50Z</time>
      </trkpt>
      <trkpt lat="45.92603" lon="6.5179">
        <ele>2127</ele>
        <time>2017-08-29T09:55:51Z</time>
      </trkpt>
      <trkpt lat="45.92603" lon="6.5179">
        <ele>2127</ele>
        <time>2017-08-29T09:55:52Z</time>
      </trkpt>
      <trkpt lat="45.92603" lon="6.5179">
        <ele>2126</ele>
        <time>2017-08-29T09:55:53Z</time>
      </trkpt>
      <trkpt lat="45.92603" lon="6.5179">
        <ele>2126</ele>
        <time>2017-08-29T09:55:54Z</time>
      </trkpt>
      <trkpt lat="45.92603" lon="6.51786">
        <ele>2126</ele>
        <time>2017-08-29T09:55:55Z</time>
      </trkpt>
      <trkpt lat="45.92601" lon="6.51784">
        <ele>2126</ele>
        <time>2017-08-29T09:55:56Z</time>
      </trkpt>
      <trkpt lat="45.92601" lon="6.51784">
        <ele>2125</ele>
        <time>2017-08-29T09:55:57Z</time>
      </trkpt>
      <trkpt lat="45.92601" lon="6.51784">
        <ele>2125</ele>
        <time>2017-08-29T09:55:58Z</time>
      </trkpt>
      <trkpt lat="45.926" lon="6.51782">
        <ele>2125</ele>
        <time>2017-08-29T09:55:59Z</time>
      </trkpt>
      <trkpt lat="45.926" lon="6.51783">
        <ele>2125</ele>
        <time>2017-08-29T09:56:00Z</time>
      </trkpt>
      <trkpt lat="45.92601" lon="6.51783">
        <ele>2123</ele>
        <time>2017-08-29T09:56:01Z</time>
      </trkpt>
      <trkpt lat="45.92601" lon="6.51784">
        <ele>2123</ele>
        <time>2017-08-29T09:56:02Z</time>
      </trkpt>
      <trkpt lat="45.92602" lon="6.51784">
        <ele>2123</ele>
        <time>2017-08-29T09:56:03Z</time>
      </trkpt>
      <trkpt lat="45.92602" lon="6.51785">
        <ele>2123</ele>
        <time>2017-08-29T09:56:04Z</time>
      </trkpt>
      <trkpt lat="45.92603" lon="6.51785">
        <ele>2122</ele>
        <time>2017-08-29T09:56:05Z</time>
      </trkpt>
      <trkpt lat="45.92603" lon="6.51786">
        <ele>2122</ele>
        <time>2017-08-29T09:56:06Z</time>
      </trkpt>
      <trkpt lat="45.92603" lon="6.51787">
        <ele>2121</ele>
        <time>2017-08-29T09:56:07Z</time>
      </trkpt>
      <trkpt lat="45.92604" lon="6.51787">
        <ele>2121</ele>
        <time>2017-08-29T09:56:08Z</time>
      </trkpt>
      <trkpt lat="45.92604" lon="6.51788">
        <ele>2120</ele>
        <time>2017-08-29T09:56:09Z</time>
      </trkpt>
      <trkpt lat="45.92605" lon="6.51788">
        <ele>2119</ele>
        <time>2017-08-29T09:56:10Z</time>
      </trkpt>
      <trkpt lat="45.92605" lon="6.51789">
        <ele>2119</ele>
        <time>2017-08-29T09:56:11Z</time>
      </trkpt>
      <trkpt lat="45.92605" lon="6.51789">
        <ele>2119</ele>
        <time>2017-08-29T09:56:12Z</time>
      </trkpt>
      <trkpt lat="45.92605" lon="6.51789">
        <ele>2119</ele>
        <time>2017-08-29T09:56:13Z</time>
      </trkpt>
      <trkpt lat="45.92608" lon="6.51788">
        <ele>2119</ele>
        <time>2017-08-29T09:56:14Z</time>
      </trkpt>
      <trkpt lat="45.92608" lon="6.51788">
        <ele>2117</ele>
        <time>2017-08-29T09:56:15Z</time>
      </trkpt>
      <trkpt lat="45.92611" lon="6.51787">
        <ele>2117</ele>
        <time>2017-08-29T09:56:16Z</time>
      </trkpt>
      <trkpt lat="45.92611" lon="6.51787">
        <ele>2117</ele>
        <time>2017-08-29T09:56:17Z</time>
      </trkpt>
      <trkpt lat="45.92611" lon="6.51787">
        <ele>2117</ele>
        <time>2017-08-29T09:56:18Z</time>
      </trkpt>
      <trkpt lat="45.92611" lon="6.51787">
        <ele>2116</ele>
        <time>2017-08-29T09:56:19Z</time>
      </trkpt>
      <trkpt lat="45.92611" lon="6.51783">
        <ele>2115</ele>
        <time>2017-08-29T09:56:20Z</time>
      </trkpt>
      <trkpt lat="45.92611" lon="6.51783">
        <ele>2115</ele>
        <time>2017-08-29T09:56:21Z</time>
      </trkpt>
      <trkpt lat="45.92614" lon="6.51783">
        <ele>2115</ele>
        <time>2017-08-29T09:56:22Z</time>
      </trkpt>
      <trkpt lat="45.92614" lon="6.51783">
        <ele>2115</ele>
        <time>2017-08-29T09:56:23Z</time>
      </trkpt>
      <trkpt lat="45.92614" lon="6.51783">
        <ele>2115</ele>
        <time>2017-08-29T09:56:24Z</time>
      </trkpt>
      <trkpt lat="45.92615" lon="6.51784">
        <ele>2114</ele>
        <time>2017-08-29T09:56:25Z</time>
      </trkpt>
      <trkpt lat="45.92615" lon="6.51784">
        <ele>2114</ele>
        <time>2017-08-29T09:56:26Z</time>
      </trkpt>
      <trkpt lat="45.92615" lon="6.51784">
        <ele>2113</ele>
        <time>2017-08-29T09:56:27Z</time>
      </trkpt>
      <trkpt lat="45.92615" lon="6.51784">
        <ele>2113</ele>
        <time>2017-08-29T09:56:28Z</time>
      </trkpt>
      <trkpt lat="45.92617" lon="6.51786">
        <ele>2112</ele>
        <time>2017-08-29T09:56:29Z</time>
      </trkpt>
      <trkpt lat="45.92617" lon="6.51785">
        <ele>2112</ele>
        <time>2017-08-29T09:56:30Z</time>
      </trkpt>
      <trkpt lat="45.92617" lon="6.51784">
        <ele>2112</ele>
        <time>2017-08-29T09:56:31Z</time>
      </trkpt>
      <trkpt lat="45.92617" lon="6.51783">
        <ele>2112</ele>
        <time>2017-08-29T09:56:32Z</time>
      </trkpt>
      <trkpt lat="45.92617" lon="6.51782">
        <ele>2111</ele>
        <time>2017-08-29T09:56:33Z</time>
      </trkpt>
      <trkpt lat="45.92617" lon="6.51781">
        <ele>2111</ele>
        <time>2017-08-29T09:56:34Z</time>
      </trkpt>
      <trkpt lat="45.92617" lon="6.51779">
        <ele>2110</ele>
        <time>2017-08-29T09:56:35Z</time>
      </trkpt>
      <trkpt lat="45.92617" lon="6.51778">
        <ele>2110</ele>
        <time>2017-08-29T09:56:36Z</time>
      </trkpt>
      <trkpt lat="45.92616" lon="6.51771">
        <ele>2109</ele>
        <time>2017-08-29T09:56:37Z</time>
      </trkpt>
      <trkpt lat="45.92616" lon="6.51769">
        <ele>2109</ele>
        <time>2017-08-29T09:56:38Z</time>
      </trkpt>
      <trkpt lat="45.92617" lon="6.51767">
        <ele>2109</ele>
        <time>2017-08-29T09:56:39Z</time>
      </trkpt>
      <trkpt lat="45.92617" lon="6.51764">
        <ele>2108</ele>
        <time>2017-08-29T09:56:40Z</time>
      </trkpt>
      <trkpt lat="45.92618" lon="6.51762">
        <ele>2108</ele>
        <time>2017-08-29T09:56:41Z</time>
      </trkpt>
      <trkpt lat="45.92618" lon="6.5176">
        <ele>2108</ele>
        <time>2017-08-29T09:56:42Z</time>
      </trkpt>
      <trkpt lat="45.92618" lon="6.5176">
        <ele>2107</ele>
        <time>2017-08-29T09:56:43Z</time>
      </trkpt>
      <trkpt lat="45.9262" lon="6.5176">
        <ele>2107</ele>
        <time>2017-08-29T09:56:44Z</time>
      </trkpt>
      <trkpt lat="45.92622" lon="6.51762">
        <ele>2106</ele>
        <time>2017-08-29T09:56:45Z</time>
      </trkpt>
      <trkpt lat="45.92624" lon="6.51765">
        <ele>2105</ele>
        <time>2017-08-29T09:56:46Z</time>
      </trkpt>
      <trkpt lat="45.92625" lon="6.51766">
        <ele>2104</ele>
        <time>2017-08-29T09:56:47Z</time>
      </trkpt>
      <trkpt lat="45.92626" lon="6.51768">
        <ele>2104</ele>
        <time>2017-08-29T09:56:48Z</time>
      </trkpt>
      <trkpt lat="45.92628" lon="6.5177">
        <ele>2104</ele>
        <time>2017-08-29T09:56:49Z</time>
      </trkpt>
      <trkpt lat="45.92631" lon="6.51772">
        <ele>2103</ele>
        <time>2017-08-29T09:56:50Z</time>
      </trkpt>
      <trkpt lat="45.92634" lon="6.51774">
        <ele>2103</ele>
        <time>2017-08-29T09:56:51Z</time>
      </trkpt>
      <trkpt lat="45.92636" lon="6.51775">
        <ele>2103</ele>
        <time>2017-08-29T09:56:52Z</time>
      </trkpt>
      <trkpt lat="45.92639" lon="6.51776">
        <ele>2103</ele>
        <time>2017-08-29T09:56:53Z</time>
      </trkpt>
      <trkpt lat="45.92641" lon="6.51778">
        <ele>2102</ele>
        <time>2017-08-29T09:56:54Z</time>
      </trkpt>
      <trkpt lat="45.92644" lon="6.51781">
        <ele>2102</ele>
        <time>2017-08-29T09:56:55Z</time>
      </trkpt>
      <trkpt lat="45.92647" lon="6.51783">
        <ele>2102</ele>
        <time>2017-08-29T09:56:56Z</time>
      </trkpt>
      <trkpt lat="45.92649" lon="6.51786">
        <ele>2101</ele>
        <time>2017-08-29T09:56:57Z</time>
      </trkpt>
      <trkpt lat="45.92651" lon="6.51788">
        <ele>2101</ele>
        <time>2017-08-29T09:56:58Z</time>
      </trkpt>
      <trkpt lat="45.92654" lon="6.51791">
        <ele>2100</ele>
        <time>2017-08-29T09:56:59Z</time>
      </trkpt>
      <trkpt lat="45.92656" lon="6.51793">
        <ele>2100</ele>
        <time>2017-08-29T09:57:00Z</time>
      </trkpt>
      <trkpt lat="45.92658" lon="6.51795">
        <ele>2100</ele>
        <time>2017-08-29T09:57:01Z</time>
      </trkpt>
      <trkpt lat="45.92661" lon="6.51799">
        <ele>2099</ele>
        <time>2017-08-29T09:57:02Z</time>
      </trkpt>
      <trkpt lat="45.92663" lon="6.51802">
        <ele>2098</ele>
        <time>2017-08-29T09:57:03Z</time>
      </trkpt>
      <trkpt lat="45.92665" lon="6.51803">
        <ele>2099</ele>
        <time>2017-08-29T09:57:04Z</time>
      </trkpt>
      <trkpt lat="45.92667" lon="6.51804">
        <ele>2099</ele>
        <time>2017-08-29T09:57:05Z</time>
      </trkpt>
      <trkpt lat="45.92668" lon="6.51806">
        <ele>2099</ele>
        <time>2017-08-29T09:57:06Z</time>
      </trkpt>
      <trkpt lat="45.9267" lon="6.51807">
        <ele>2099</ele>
        <time>2017-08-29T09:57:07Z</time>
      </trkpt>
      <trkpt lat="45.92674" lon="6.51811">
        <ele>2099</ele>
        <time>2017-08-29T09:57:08Z</time>
      </trkpt>
      <trkpt lat="45.92676" lon="6.51812">
        <ele>2099</ele>
        <time>2017-08-29T09:57:09Z</time>
      </trkpt>
      <trkpt lat="45.92677" lon="6.51812">
        <ele>2099</ele>
        <time>2017-08-29T09:57:10Z</time>
      </trkpt>
      <trkpt lat="45.92678" lon="6.51813">
        <ele>2099</ele>
        <time>2017-08-29T09:57:11Z</time>
      </trkpt>
      <trkpt lat="45.92679" lon="6.51814">
        <ele>2099</ele>
        <time>2017-08-29T09:57:12Z</time>
      </trkpt>
      <trkpt lat="45.92684" lon="6.51817">
        <ele>2099</ele>
        <time>2017-08-29T09:57:13Z</time>
      </trkpt>
      <trkpt lat="45.92685" lon="6.51818">
        <ele>2099</ele>
        <time>2017-08-29T09:57:14Z</time>
      </trkpt>
      <trkpt lat="45.92687" lon="6.51819">
        <ele>2099</ele>
        <time>2017-08-29T09:57:15Z</time>
      </trkpt>
      <trkpt lat="45.92688" lon="6.5182">
        <ele>2099</ele>
        <time>2017-08-29T09:57:16Z</time>
      </trkpt>
      <trkpt lat="45.92689" lon="6.5182">
        <ele>2099</ele>
        <time>2017-08-29T09:57:17Z</time>
      </trkpt>
      <trkpt lat="45.92694" lon="6.51823">
        <ele>2099</ele>
        <time>2017-08-29T09:57:18Z</time>
      </trkpt>
      <trkpt lat="45.92696" lon="6.51825">
        <ele>2098</ele>
        <time>2017-08-29T09:57:19Z</time>
      </trkpt>
      <trkpt lat="45.92699" lon="6.51826">
        <ele>2098</ele>
        <time>2017-08-29T09:57:20Z</time>
      </trkpt>
      <trkpt lat="45.92701" lon="6.51828">
        <ele>2098</ele>
        <time>2017-08-29T09:57:21Z</time>
      </trkpt>
      <trkpt lat="45.92703" lon="6.51829">
        <ele>2097</ele>
        <time>2017-08-29T09:57:22Z</time>
      </trkpt>
      <trkpt lat="45.92704" lon="6.5183">
        <ele>2097</ele>
        <time>2017-08-29T09:57:23Z</time>
      </trkpt>
      <trkpt lat="45.92704" lon="6.5183">
        <ele>2097</ele>
        <time>2017-08-29T09:57:24Z</time>
      </trkpt>
      <trkpt lat="45.92705" lon="6.5183">
        <ele>2097</ele>
        <time>2017-08-29T09:57:25Z</time>
      </trkpt>
      <trkpt lat="45.92706" lon="6.51831">
        <ele>2097</ele>
        <time>2017-08-29T09:57:26Z</time>
      </trkpt>
      <trkpt lat="45.92706" lon="6.51831">
        <ele>2097</ele>
        <time>2017-08-29T09:57:27Z</time>
      </trkpt>
      <trkpt lat="45.92707" lon="6.51832">
        <ele>2095</ele>
        <time>2017-08-29T09:57:28Z</time>
      </trkpt>
      <trkpt lat="45.92707" lon="6.51832">
        <ele>2094</ele>
        <time>2017-08-29T09:57:29Z</time>
      </trkpt>
      <trkpt lat="45.92712" lon="6.51835">
        <ele>2094</ele>
        <time>2017-08-29T09:57:30Z</time>
      </trkpt>
      <trkpt lat="45.92713" lon="6.51835">
        <ele>2094</ele>
        <time>2017-08-29T09:57:31Z</time>
      </trkpt>
      <trkpt lat="45.92713" lon="6.51834">
        <ele>2093</ele>
        <time>2017-08-29T09:57:32Z</time>
      </trkpt>
      <trkpt lat="45.92714" lon="6.51833">
        <ele>2091</ele>
        <time>2017-08-29T09:57:33Z</time>
      </trkpt>
      <trkpt lat="45.92714" lon="6.51832">
        <ele>2091</ele>
        <time>2017-08-29T09:57:34Z</time>
      </trkpt>
      <trkpt lat="45.92715" lon="6.51832">
        <ele>2090</ele>
        <time>2017-08-29T09:57:35Z</time>
      </trkpt>
      <trkpt lat="45.92716" lon="6.51831">
        <ele>2090</ele>
        <time>2017-08-29T09:57:36Z</time>
      </trkpt>
      <trkpt lat="45.92716" lon="6.5183">
        <ele>2089</ele>
        <time>2017-08-29T09:57:37Z</time>
      </trkpt>
      <trkpt lat="45.92717" lon="6.51829">
        <ele>2089</ele>
        <time>2017-08-29T09:57:38Z</time>
      </trkpt>
      <trkpt lat="45.92718" lon="6.51829">
        <ele>2089</ele>
        <time>2017-08-29T09:57:39Z</time>
      </trkpt>
      <trkpt lat="45.92718" lon="6.51828">
        <ele>2088</ele>
        <time>2017-08-29T09:57:40Z</time>
      </trkpt>
      <trkpt lat="45.92719" lon="6.51827">
        <ele>2088</ele>
        <time>2017-08-29T09:57:41Z</time>
      </trkpt>
      <trkpt lat="45.92719" lon="6.51826">
        <ele>2087</ele>
        <time>2017-08-29T09:57:42Z</time>
      </trkpt>
      <trkpt lat="45.92719" lon="6.51824">
        <ele>2086</ele>
        <time>2017-08-29T09:57:43Z</time>
      </trkpt>
      <trkpt lat="45.92719" lon="6.51823">
        <ele>2086</ele>
        <time>2017-08-29T09:57:44Z</time>
      </trkpt>
      <trkpt lat="45.92719" lon="6.51822">
        <ele>2086</ele>
        <time>2017-08-29T09:57:45Z</time>
      </trkpt>
      <trkpt lat="45.92719" lon="6.5182">
        <ele>2086</ele>
        <time>2017-08-29T09:57:46Z</time>
      </trkpt>
      <trkpt lat="45.92719" lon="6.5182">
        <ele>2085</ele>
        <time>2017-08-29T09:57:47Z</time>
      </trkpt>
      <trkpt lat="45.92719" lon="6.51819">
        <ele>2085</ele>
        <time>2017-08-29T09:57:48Z</time>
      </trkpt>
      <trkpt lat="45.9272" lon="6.51819">
        <ele>2085</ele>
        <time>2017-08-29T09:57:49Z</time>
      </trkpt>
      <trkpt lat="45.9272" lon="6.51818">
        <ele>2085</ele>
        <time>2017-08-29T09:57:50Z</time>
      </trkpt>
      <trkpt lat="45.92721" lon="6.51818">
        <ele>2084</ele>
        <time>2017-08-29T09:57:51Z</time>
      </trkpt>
      <trkpt lat="45.92721" lon="6.51817">
        <ele>2083</ele>
        <time>2017-08-29T09:57:52Z</time>
      </trkpt>
      <trkpt lat="45.92722" lon="6.51816">
        <ele>2082</ele>
        <time>2017-08-29T09:57:53Z</time>
      </trkpt>
      <trkpt lat="45.92722" lon="6.51816">
        <ele>2082</ele>
        <time>2017-08-29T09:57:54Z</time>
      </trkpt>
      <trkpt lat="45.92723" lon="6.51815">
        <ele>2082</ele>
        <time>2017-08-29T09:57:55Z</time>
      </trkpt>
      <trkpt lat="45.92723" lon="6.51815">
        <ele>2082</ele>
        <time>2017-08-29T09:57:56Z</time>
      </trkpt>
      <trkpt lat="45.92724" lon="6.51814">
        <ele>2082</ele>
        <time>2017-08-29T09:57:57Z</time>
      </trkpt>
      <trkpt lat="45.92724" lon="6.51814">
        <ele>2082</ele>
        <time>2017-08-29T09:57:58Z</time>
      </trkpt>
      <trkpt lat="45.92724" lon="6.51813">
        <ele>2081</ele>
        <time>2017-08-29T09:57:59Z</time>
      </trkpt>
      <trkpt lat="45.92725" lon="6.51813">
        <ele>2080</ele>
        <time>2017-08-29T09:58:00Z</time>
      </trkpt>
      <trkpt lat="45.92725" lon="6.51812">
        <ele>2079</ele>
        <time>2017-08-29T09:58:01Z</time>
      </trkpt>
      <trkpt lat="45.92726" lon="6.51812">
        <ele>2079</ele>
        <time>2017-08-29T09:58:02Z</time>
      </trkpt>
      <trkpt lat="45.92727" lon="6.51811">
        <ele>2078</ele>
        <time>2017-08-29T09:58:03Z</time>
      </trkpt>
      <trkpt lat="45.92729" lon="6.51811">
        <ele>2077</ele>
        <time>2017-08-29T09:58:04Z</time>
      </trkpt>
      <trkpt lat="45.92731" lon="6.5181">
        <ele>2077</ele>
        <time>2017-08-29T09:58:05Z</time>
      </trkpt>
      <trkpt lat="45.92732" lon="6.51809">
        <ele>2077</ele>
        <time>2017-08-29T09:58:06Z</time>
      </trkpt>
      <trkpt lat="45.92734" lon="6.51809">
        <ele>2076</ele>
        <time>2017-08-29T09:58:07Z</time>
      </trkpt>
      <trkpt lat="45.92736" lon="6.51808">
        <ele>2075</ele>
        <time>2017-08-29T09:58:08Z</time>
      </trkpt>
      <trkpt lat="45.92738" lon="6.51809">
        <ele>2074</ele>
        <time>2017-08-29T09:58:09Z</time>
      </trkpt>
      <trkpt lat="45.9274" lon="6.5181">
        <ele>2073</ele>
        <time>2017-08-29T09:58:10Z</time>
      </trkpt>
      <trkpt lat="45.92743" lon="6.51811">
        <ele>2073</ele>
        <time>2017-08-29T09:58:11Z</time>
      </trkpt>
      <trkpt lat="45.92745" lon="6.51812">
        <ele>2073</ele>
        <time>2017-08-29T09:58:12Z</time>
      </trkpt>
      <trkpt lat="45.92745" lon="6.51811">
        <ele>2072</ele>
        <time>2017-08-29T09:58:13Z</time>
      </trkpt>
      <trkpt lat="45.92744" lon="6.51809">
        <ele>2072</ele>
        <time>2017-08-29T09:58:14Z</time>
      </trkpt>
      <trkpt lat="45.92744" lon="6.51808">
        <ele>2071</ele>
        <time>2017-08-29T09:58:15Z</time>
      </trkpt>
      <trkpt lat="45.92744" lon="6.51807">
        <ele>2070</ele>
        <time>2017-08-29T09:58:16Z</time>
      </trkpt>
      <trkpt lat="45.92744" lon="6.51806">
        <ele>2070</ele>
        <time>2017-08-29T09:58:17Z</time>
      </trkpt>
      <trkpt lat="45.92743" lon="6.51804">
        <ele>2069</ele>
        <time>2017-08-29T09:58:18Z</time>
      </trkpt>
      <trkpt lat="45.92743" lon="6.51803">
        <ele>2068</ele>
        <time>2017-08-29T09:58:19Z</time>
      </trkpt>
      <trkpt lat="45.92743" lon="6.51802">
        <ele>2068</ele>
        <time>2017-08-29T09:58:20Z</time>
      </trkpt>
      <trkpt lat="45.92742" lon="6.51801">
        <ele>2067</ele>
        <time>2017-08-29T09:58:21Z</time>
      </trkpt>
      <trkpt lat="45.92742" lon="6.51799">
        <ele>2067</ele>
        <time>2017-08-29T09:58:22Z</time>
      </trkpt>
      <trkpt lat="45.92742" lon="6.51798">
        <ele>2065</ele>
        <time>2017-08-29T09:58:23Z</time>
      </trkpt>
      <trkpt lat="45.92741" lon="6.51797">
        <ele>2064</ele>
        <time>2017-08-29T09:58:24Z</time>
      </trkpt>
      <trkpt lat="45.92741" lon="6.51796">
        <ele>2064</ele>
        <time>2017-08-29T09:58:25Z</time>
      </trkpt>
      <trkpt lat="45.9274" lon="6.51795">
        <ele>2063</ele>
        <time>2017-08-29T09:58:26Z</time>
      </trkpt>
      <trkpt lat="45.92739" lon="6.51793">
        <ele>2062</ele>
        <time>2017-08-29T09:58:27Z</time>
      </trkpt>
      <trkpt lat="45.92739" lon="6.51792">
        <ele>2062</ele>
        <time>2017-08-29T09:58:28Z</time>
      </trkpt>
      <trkpt lat="45.92735" lon="6.51786">
        <ele>2062</ele>
        <time>2017-08-29T09:58:29Z</time>
      </trkpt>
      <trkpt lat="45.92735" lon="6.51786">
        <ele>2061</ele>
        <time>2017-08-29T09:58:30Z</time>
      </trkpt>
      <trkpt lat="45.92735" lon="6.51782">
        <ele>2060</ele>
        <time>2017-08-29T09:58:31Z</time>
      </trkpt>
      <trkpt lat="45.92735" lon="6.51782">
        <ele>2059</ele>
        <time>2017-08-29T09:58:32Z</time>
      </trkpt>
      <trkpt lat="45.92734" lon="6.51777">
        <ele>2058</ele>
        <time>2017-08-29T09:58:33Z</time>
      </trkpt>
      <trkpt lat="45.92734" lon="6.51777">
        <ele>2058</ele>
        <time>2017-08-29T09:58:34Z</time>
      </trkpt>
      <trkpt lat="45.92732" lon="6.51773">
        <ele>2058</ele>
        <time>2017-08-29T09:58:35Z</time>
      </trkpt>
      <trkpt lat="45.92733" lon="6.51772">
        <ele>2058</ele>
        <time>2017-08-29T09:58:36Z</time>
      </trkpt>
      <trkpt lat="45.92733" lon="6.5177">
        <ele>2058</ele>
        <time>2017-08-29T09:58:37Z</time>
      </trkpt>
      <trkpt lat="45.92734" lon="6.51768">
        <ele>2057</ele>
        <time>2017-08-29T09:58:38Z</time>
      </trkpt>
      <trkpt lat="45.92735" lon="6.51766">
        <ele>2056</ele>
        <time>2017-08-29T09:58:39Z</time>
      </trkpt>
      <trkpt lat="45.92735" lon="6.51765">
        <ele>2056</ele>
        <time>2017-08-29T09:58:40Z</time>
      </trkpt>
      <trkpt lat="45.92736" lon="6.51763">
        <ele>2056</ele>
        <time>2017-08-29T09:58:41Z</time>
      </trkpt>
      <trkpt lat="45.92737" lon="6.51761">
        <ele>2055</ele>
        <time>2017-08-29T09:58:42Z</time>
      </trkpt>
      <trkpt lat="45.92737" lon="6.5176">
        <ele>2054</ele>
        <time>2017-08-29T09:58:43Z</time>
      </trkpt>
      <trkpt lat="45.92737" lon="6.51759">
        <ele>2054</ele>
        <time>2017-08-29T09:58:44Z</time>
      </trkpt>
      <trkpt lat="45.92737" lon="6.51758">
        <ele>2053</ele>
        <time>2017-08-29T09:58:45Z</time>
      </trkpt>
      <trkpt lat="45.92737" lon="6.51757">
        <ele>2053</ele>
        <time>2017-08-29T09:58:46Z</time>
      </trkpt>
      <trkpt lat="45.92737" lon="6.51756">
        <ele>2053</ele>
        <time>2017-08-29T09:58:47Z</time>
      </trkpt>
      <trkpt lat="45.92738" lon="6.51755">
        <ele>2053</ele>
        <time>2017-08-29T09:58:48Z</time>
      </trkpt>
      <trkpt lat="45.92738" lon="6.51754">
        <ele>2052</ele>
        <time>2017-08-29T09:58:49Z</time>
      </trkpt>
      <trkpt lat="45.92738" lon="6.51753">
        <ele>2051</ele>
        <time>2017-08-29T09:58:50Z</time>
      </trkpt>
      <trkpt lat="45.92738" lon="6.51752">
        <ele>2051</ele>
        <time>2017-08-29T09:58:51Z</time>
      </trkpt>
      <trkpt lat="45.92738" lon="6.51751">
        <ele>2051</ele>
        <time>2017-08-29T09:58:52Z</time>
      </trkpt>
      <trkpt lat="45.92738" lon="6.51749">
        <ele>2050</ele>
        <time>2017-08-29T09:58:53Z</time>
      </trkpt>
      <trkpt lat="45.92739" lon="6.51748">
        <ele>2050</ele>
        <time>2017-08-29T09:58:54Z</time>
      </trkpt>
      <trkpt lat="45.92738" lon="6.51747">
        <ele>2050</ele>
        <time>2017-08-29T09:58:55Z</time>
      </trkpt>
      <trkpt lat="45.92737" lon="6.51745">
        <ele>2050</ele>
        <time>2017-08-29T09:58:56Z</time>
      </trkpt>
      <trkpt lat="45.92736" lon="6.51744">
        <ele>2049</ele>
        <time>2017-08-29T09:58:57Z</time>
      </trkpt>
      <trkpt lat="45.92735" lon="6.51742">
        <ele>2048</ele>
        <time>2017-08-29T09:58:58Z</time>
      </trkpt>
      <trkpt lat="45.92735" lon="6.51741">
        <ele>2047</ele>
        <time>2017-08-29T09:58:59Z</time>
      </trkpt>
      <trkpt lat="45.92734" lon="6.51739">
        <ele>2046</ele>
        <time>2017-08-29T09:59:00Z</time>
      </trkpt>
      <trkpt lat="45.92733" lon="6.51737">
        <ele>2046</ele>
        <time>2017-08-29T09:59:01Z</time>
      </trkpt>
      <trkpt lat="45.92733" lon="6.51736">
        <ele>2046</ele>
        <time>2017-08-29T09:59:02Z</time>
      </trkpt>
      <trkpt lat="45.92732" lon="6.51734">
        <ele>2046</ele>
        <time>2017-08-29T09:59:03Z</time>
      </trkpt>
      <trkpt lat="45.92732" lon="6.51733">
        <ele>2045</ele>
        <time>2017-08-29T09:59:04Z</time>
      </trkpt>
      <trkpt lat="45.92732" lon="6.51731">
        <ele>2044</ele>
        <time>2017-08-29T09:59:05Z</time>
      </trkpt>
      <trkpt lat="45.92732" lon="6.5173">
        <ele>2043</ele>
        <time>2017-08-29T09:59:06Z</time>
      </trkpt>
      <trkpt lat="45.92731" lon="6.51728">
        <ele>2043</ele>
        <time>2017-08-29T09:59:07Z</time>
      </trkpt>
      <trkpt lat="45.92731" lon="6.51727">
        <ele>2043</ele>
        <time>2017-08-29T09:59:08Z</time>
      </trkpt>
      <trkpt lat="45.92731" lon="6.51727">
        <ele>2042</ele>
        <time>2017-08-29T09:59:09Z</time>
      </trkpt>
      <trkpt lat="45.92733" lon="6.51725">
        <ele>2041</ele>
        <time>2017-08-29T09:59:10Z</time>
      </trkpt>
      <trkpt lat="45.92733" lon="6.51724">
        <ele>2041</ele>
        <time>2017-08-29T09:59:11Z</time>
      </trkpt>
      <trkpt lat="45.92734" lon="6.51723">
        <ele>2041</ele>
        <time>2017-08-29T09:59:12Z</time>
      </trkpt>
      <trkpt lat="45.92734" lon="6.51722">
        <ele>2039</ele>
        <time>2017-08-29T09:59:13Z</time>
      </trkpt>
      <trkpt lat="45.92734" lon="6.51721">
        <ele>2039</ele>
        <time>2017-08-29T09:59:14Z</time>
      </trkpt>
      <trkpt lat="45.92734" lon="6.5172">
        <ele>2038</ele>
        <time>2017-08-29T09:59:15Z</time>
      </trkpt>
      <trkpt lat="45.92735" lon="6.51719">
        <ele>2037</ele>
        <time>2017-08-29T09:59:16Z</time>
      </trkpt>
      <trkpt lat="45.92735" lon="6.51718">
        <ele>2037</ele>
        <time>2017-08-29T09:59:17Z</time>
      </trkpt>
      <trkpt lat="45.92735" lon="6.51716">
        <ele>2037</ele>
        <time>2017-08-29T09:59:18Z</time>
      </trkpt>
      <trkpt lat="45.92735" lon="6.51715">
        <ele>2037</ele>
        <time>2017-08-29T09:59:19Z</time>
      </trkpt>
      <trkpt lat="45.92736" lon="6.51714">
        <ele>2036</ele>
        <time>2017-08-29T09:59:20Z</time>
      </trkpt>
      <trkpt lat="45.92736" lon="6.51713">
        <ele>2036</ele>
        <time>2017-08-29T09:59:21Z</time>
      </trkpt>
      <trkpt lat="45.92736" lon="6.51712">
        <ele>2035</ele>
        <time>2017-08-29T09:59:22Z</time>
      </trkpt>
      <trkpt lat="45.92736" lon="6.51711">
        <ele>2035</ele>
        <time>2017-08-29T09:59:23Z</time>
      </trkpt>
      <trkpt lat="45.92735" lon="6.5171">
        <ele>2035</ele>
        <time>2017-08-29T09:59:24Z</time>
      </trkpt>
      <trkpt lat="45.92735" lon="6.51709">
        <ele>2035</ele>
        <time>2017-08-29T09:59:25Z</time>
      </trkpt>
      <trkpt lat="45.92735" lon="6.51708">
        <ele>2035</ele>
        <time>2017-08-29T09:59:26Z</time>
      </trkpt>
      <trkpt lat="45.92734" lon="6.51707">
        <ele>2034</ele>
        <time>2017-08-29T09:59:27Z</time>
      </trkpt>
      <trkpt lat="45.92734" lon="6.51705">
        <ele>2033</ele>
        <time>2017-08-29T09:59:28Z</time>
      </trkpt>
      <trkpt lat="45.92734" lon="6.51704">
        <ele>2032</ele>
        <time>2017-08-29T09:59:29Z</time>
      </trkpt>
      <trkpt lat="45.92733" lon="6.51703">
        <ele>2032</ele>
        <time>2017-08-29T09:59:30Z</time>
      </trkpt>
      <trkpt lat="45.92733" lon="6.51702">
        <ele>2032</ele>
        <time>2017-08-29T09:59:31Z</time>
      </trkpt>
      <trkpt lat="45.92733" lon="6.51701">
        <ele>2032</ele>
        <time>2017-08-29T09:59:32Z</time>
      </trkpt>
      <trkpt lat="45.92732" lon="6.517">
        <ele>2032</ele>
        <time>2017-08-29T09:59:33Z</time>
      </trkpt>
      <trkpt lat="45.92732" lon="6.51699">
        <ele>2031</ele>
        <time>2017-08-29T09:59:34Z</time>
      </trkpt>
      <trkpt lat="45.92733" lon="6.51698">
        <ele>2030</ele>
        <time>2017-08-29T09:59:35Z</time>
      </trkpt>
      <trkpt lat="45.92733" lon="6.51697">
        <ele>2030</ele>
        <time>2017-08-29T09:59:36Z</time>
      </trkpt>
      <trkpt lat="45.92734" lon="6.51697">
        <ele>2030</ele>
        <time>2017-08-29T09:59:37Z</time>
      </trkpt>
      <trkpt lat="45.92734" lon="6.51696">
        <ele>2029</ele>
        <time>2017-08-29T09:59:38Z</time>
      </trkpt>
      <trkpt lat="45.92734" lon="6.51695">
        <ele>2028</ele>
        <time>2017-08-29T09:59:39Z</time>
      </trkpt>
      <trkpt lat="45.92735" lon="6.51694">
        <ele>2027</ele>
        <time>2017-08-29T09:59:40Z</time>
      </trkpt>
      <trkpt lat="45.92735" lon="6.51693">
        <ele>2027</ele>
        <time>2017-08-29T09:59:41Z</time>
      </trkpt>
      <trkpt lat="45.92737" lon="6.51687">
        <ele>2027</ele>
        <time>2017-08-29T09:59:42Z</time>
      </trkpt>
      <trkpt lat="45.92739" lon="6.51684">
        <ele>2026</ele>
        <time>2017-08-29T09:59:43Z</time>
      </trkpt>
      <trkpt lat="45.9274" lon="6.51682">
        <ele>2025</ele>
        <time>2017-08-29T09:59:44Z</time>
      </trkpt>
      <trkpt lat="45.92742" lon="6.51679">
        <ele>2025</ele>
        <time>2017-08-29T09:59:45Z</time>
      </trkpt>
      <trkpt lat="45.92743" lon="6.51676">
        <ele>2024</ele>
        <time>2017-08-29T09:59:46Z</time>
      </trkpt>
      <trkpt lat="45.92745" lon="6.51674">
        <ele>2024</ele>
        <time>2017-08-29T09:59:47Z</time>
      </trkpt>
      <trkpt lat="45.92747" lon="6.51672">
        <ele>2023</ele>
        <time>2017-08-29T09:59:48Z</time>
      </trkpt>
      <trkpt lat="45.92749" lon="6.5167">
        <ele>2022</ele>
        <time>2017-08-29T09:59:49Z</time>
      </trkpt>
      <trkpt lat="45.92751" lon="6.51668">
        <ele>2022</ele>
        <time>2017-08-29T09:59:50Z</time>
      </trkpt>
      <trkpt lat="45.92752" lon="6.51667">
        <ele>2021</ele>
        <time>2017-08-29T09:59:51Z</time>
      </trkpt>
      <trkpt lat="45.92753" lon="6.51666">
        <ele>2021</ele>
        <time>2017-08-29T09:59:52Z</time>
      </trkpt>
      <trkpt lat="45.92754" lon="6.51665">
        <ele>2021</ele>
        <time>2017-08-29T09:59:53Z</time>
      </trkpt>
      <trkpt lat="45.92755" lon="6.51663">
        <ele>2020</ele>
        <time>2017-08-29T09:59:54Z</time>
      </trkpt>
      <trkpt lat="45.92759" lon="6.51658">
        <ele>2020</ele>
        <time>2017-08-29T09:59:55Z</time>
      </trkpt>
      <trkpt lat="45.92761" lon="6.51657">
        <ele>2020</ele>
        <time>2017-08-29T09:59:56Z</time>
      </trkpt>
      <trkpt lat="45.92762" lon="6.51655">
        <ele>2019</ele>
        <time>2017-08-29T09:59:57Z</time>
      </trkpt>
      <trkpt lat="45.92764" lon="6.51654">
        <ele>2018</ele>
        <time>2017-08-29T09:59:58Z</time>
      </trkpt>
      <trkpt lat="45.92765" lon="6.51652">
        <ele>2018</ele>
        <time>2017-08-29T09:59:59Z</time>
      </trkpt>
      <trkpt lat="45.92767" lon="6.51651">
        <ele>2018</ele>
        <time>2017-08-29T10:00:00Z</time>
      </trkpt>
      <trkpt lat="45.92768" lon="6.5165">
        <ele>2018</ele>
        <time>2017-08-29T10:00:01Z</time>
      </trkpt>
      <trkpt lat="45.92769" lon="6.51649">
        <ele>2018</ele>
        <time>2017-08-29T10:00:02Z</time>
      </trkpt>
      <trkpt lat="45.9277" lon="6.51648">
        <ele>2016</ele>
        <time>2017-08-29T10:00:03Z</time>
      </trkpt>
      <trkpt lat="45.92771" lon="6.51647">
        <ele>2015</ele>
        <time>2017-08-29T10:00:04Z</time>
      </trkpt>
      <trkpt lat="45.92776" lon="6.51644">
        <ele>2015</ele>
        <time>2017-08-29T10:00:05Z</time>
      </trkpt>
      <trkpt lat="45.92777" lon="6.51643">
        <ele>2015</ele>
        <time>2017-08-29T10:00:06Z</time>
      </trkpt>
      <trkpt lat="45.92778" lon="6.51641">
        <ele>2015</ele>
        <time>2017-08-29T10:00:07Z</time>
      </trkpt>
      <trkpt lat="45.92779" lon="6.5164">
        <ele>2015</ele>
        <time>2017-08-29T10:00:08Z</time>
      </trkpt>
      <trkpt lat="45.9278" lon="6.51639">
        <ele>2015</ele>
        <time>2017-08-29T10:00:09Z</time>
      </trkpt>
      <trkpt lat="45.92784" lon="6.51633">
        <ele>2015</ele>
        <time>2017-08-29T10:00:10Z</time>
      </trkpt>
      <trkpt lat="45.92785" lon="6.51632">
        <ele>2015</ele>
        <time>2017-08-29T10:00:11Z</time>
      </trkpt>
      <trkpt lat="45.92787" lon="6.5163">
        <ele>2013</ele>
        <time>2017-08-29T10:00:12Z</time>
      </trkpt>
      <trkpt lat="45.92788" lon="6.51628">
        <ele>2012</ele>
        <time>2017-08-29T10:00:13Z</time>
      </trkpt>
      <trkpt lat="45.92792" lon="6.51623">
        <ele>2011</ele>
        <time>2017-08-29T10:00:14Z</time>
      </trkpt>
      <trkpt lat="45.92794" lon="6.51621">
        <ele>2011</ele>
        <time>2017-08-29T10:00:15Z</time>
      </trkpt>
      <trkpt lat="45.92796" lon="6.51619">
        <ele>2011</ele>
        <time>2017-08-29T10:00:16Z</time>
      </trkpt>
      <trkpt lat="45.92798" lon="6.51617">
        <ele>2011</ele>
        <time>2017-08-29T10:00:17Z</time>
      </trkpt>
      <trkpt lat="45.928" lon="6.51616">
        <ele>2011</ele>
        <time>2017-08-29T10:00:18Z</time>
      </trkpt>
      <trkpt lat="45.92801" lon="6.51616">
        <ele>2010</ele>
        <time>2017-08-29T10:00:19Z</time>
      </trkpt>
      <trkpt lat="45.92802" lon="6.51617">
        <ele>2010</ele>
        <time>2017-08-29T10:00:20Z</time>
      </trkpt>
      <trkpt lat="45.92804" lon="6.51618">
        <ele>2010</ele>
        <time>2017-08-29T10:00:21Z</time>
      </trkpt>
      <trkpt lat="45.92805" lon="6.51619">
        <ele>2010</ele>
        <time>2017-08-29T10:00:22Z</time>
      </trkpt>
      <trkpt lat="45.92806" lon="6.5162">
        <ele>2010</ele>
        <time>2017-08-29T10:00:23Z</time>
      </trkpt>
      <trkpt lat="45.92811" lon="6.51625">
        <ele>2010</ele>
        <time>2017-08-29T10:00:24Z</time>
      </trkpt>
      <trkpt lat="45.92813" lon="6.51626">
        <ele>2009</ele>
        <time>2017-08-29T10:00:25Z</time>
      </trkpt>
      <trkpt lat="45.92814" lon="6.51628">
        <ele>2008</ele>
        <time>2017-08-29T10:00:26Z</time>
      </trkpt>
      <trkpt lat="45.92816" lon="6.51629">
        <ele>2008</ele>
        <time>2017-08-29T10:00:27Z</time>
      </trkpt>
      <trkpt lat="45.92821" lon="6.51633">
        <ele>2007</ele>
        <time>2017-08-29T10:00:28Z</time>
      </trkpt>
      <trkpt lat="45.92823" lon="6.51635">
        <ele>2006</ele>
        <time>2017-08-29T10:00:29Z</time>
      </trkpt>
      <trkpt lat="45.92825" lon="6.51637">
        <ele>2006</ele>
        <time>2017-08-29T10:00:30Z</time>
      </trkpt>
      <trkpt lat="45.92826" lon="6.51639">
        <ele>2005</ele>
        <time>2017-08-29T10:00:31Z</time>
      </trkpt>
      <trkpt lat="45.92828" lon="6.51641">
        <ele>2004</ele>
        <time>2017-08-29T10:00:32Z</time>
      </trkpt>
      <trkpt lat="45.9283" lon="6.51642">
        <ele>2004</ele>
        <time>2017-08-29T10:00:33Z</time>
      </trkpt>
      <trkpt lat="45.92832" lon="6.51644">
        <ele>2004</ele>
        <time>2017-08-29T10:00:34Z</time>
      </trkpt>
      <trkpt lat="45.92835" lon="6.51646">
        <ele>2004</ele>
        <time>2017-08-29T10:00:35Z</time>
      </trkpt>
      <trkpt lat="45.92836" lon="6.51648">
        <ele>2004</ele>
        <time>2017-08-29T10:00:36Z</time>
      </trkpt>
      <trkpt lat="45.92838" lon="6.5165">
        <ele>2003</ele>
        <time>2017-08-29T10:00:37Z</time>
      </trkpt>
      <trkpt lat="45.9284" lon="6.51652">
        <ele>2003</ele>
        <time>2017-08-29T10:00:38Z</time>
      </trkpt>
      <trkpt lat="45.92842" lon="6.51654">
        <ele>2002</ele>
        <time>2017-08-29T10:00:39Z</time>
      </trkpt>
      <trkpt lat="45.92844" lon="6.51655">
        <ele>2002</ele>
        <time>2017-08-29T10:00:40Z</time>
      </trkpt>
      <trkpt lat="45.92845" lon="6.51657">
        <ele>2002</ele>
        <time>2017-08-29T10:00:41Z</time>
      </trkpt>
      <trkpt lat="45.92846" lon="6.51661">
        <ele>2002</ele>
        <time>2017-08-29T10:00:42Z</time>
      </trkpt>
      <trkpt lat="45.92846" lon="6.51664">
        <ele>2001</ele>
        <time>2017-08-29T10:00:43Z</time>
      </trkpt>
      <trkpt lat="45.92846" lon="6.51664">
        <ele>2002</ele>
        <time>2017-08-29T10:00:44Z</time>
      </trkpt>
      <trkpt lat="45.92846" lon="6.51667">
        <ele>2002</ele>
        <time>2017-08-29T10:00:45Z</time>
      </trkpt>
      <trkpt lat="45.92846" lon="6.51667">
        <ele>2002</ele>
        <time>2017-08-29T10:00:46Z</time>
      </trkpt>
      <trkpt lat="45.92846" lon="6.51667">
        <ele>2002</ele>
        <time>2017-08-29T10:00:47Z</time>
      </trkpt>
      <trkpt lat="45.92848" lon="6.51669">
        <ele>2001</ele>
        <time>2017-08-29T10:00:48Z</time>
      </trkpt>
      <trkpt lat="45.92848" lon="6.51669">
        <ele>2001</ele>
        <time>2017-08-29T10:00:49Z</time>
      </trkpt>
      <trkpt lat="45.92848" lon="6.51669">
        <ele>1999</ele>
        <time>2017-08-29T10:00:50Z</time>
      </trkpt>
      <trkpt lat="45.9285" lon="6.5167">
        <ele>1998</ele>
        <time>2017-08-29T10:00:51Z</time>
      </trkpt>
      <trkpt lat="45.9285" lon="6.5167">
        <ele>1998</ele>
        <time>2017-08-29T10:00:52Z</time>
      </trkpt>
      <trkpt lat="45.92853" lon="6.51671">
        <ele>1998</ele>
        <time>2017-08-29T10:00:53Z</time>
      </trkpt>
      <trkpt lat="45.92853" lon="6.51671">
        <ele>1998</ele>
        <time>2017-08-29T10:00:54Z</time>
      </trkpt>
      <trkpt lat="45.92856" lon="6.5167">
        <ele>1997</ele>
        <time>2017-08-29T10:00:55Z</time>
      </trkpt>
      <trkpt lat="45.92856" lon="6.5167">
        <ele>1997</ele>
        <time>2017-08-29T10:00:56Z</time>
      </trkpt>
      <trkpt lat="45.92859" lon="6.5167">
        <ele>1996</ele>
        <time>2017-08-29T10:00:57Z</time>
      </trkpt>
      <trkpt lat="45.92861" lon="6.5167">
        <ele>1995</ele>
        <time>2017-08-29T10:00:58Z</time>
      </trkpt>
      <trkpt lat="45.92863" lon="6.51671">
        <ele>1995</ele>
        <time>2017-08-29T10:00:59Z</time>
      </trkpt>
      <trkpt lat="45.92865" lon="6.51672">
        <ele>1995</ele>
        <time>2017-08-29T10:01:00Z</time>
      </trkpt>
      <trkpt lat="45.92868" lon="6.51673">
        <ele>1993</ele>
        <time>2017-08-29T10:01:01Z</time>
      </trkpt>
      <trkpt lat="45.9287" lon="6.51674">
        <ele>1993</ele>
        <time>2017-08-29T10:01:02Z</time>
      </trkpt>
      <trkpt lat="45.92872" lon="6.51674">
        <ele>1993</ele>
        <time>2017-08-29T10:01:03Z</time>
      </trkpt>
      <trkpt lat="45.92874" lon="6.51674">
        <ele>1993</ele>
        <time>2017-08-29T10:01:04Z</time>
      </trkpt>
      <trkpt lat="45.92876" lon="6.51675">
        <ele>1992</ele>
        <time>2017-08-29T10:01:05Z</time>
      </trkpt>
      <trkpt lat="45.92876" lon="6.51675">
        <ele>1991</ele>
        <time>2017-08-29T10:01:06Z</time>
      </trkpt>
      <trkpt lat="45.92879" lon="6.51675">
        <ele>1990</ele>
        <time>2017-08-29T10:01:07Z</time>
      </trkpt>
      <trkpt lat="45.92879" lon="6.51675">
        <ele>1990</ele>
        <time>2017-08-29T10:01:08Z</time>
      </trkpt>
      <trkpt lat="45.92881" lon="6.51673">
        <ele>1990</ele>
        <time>2017-08-29T10:01:09Z</time>
      </trkpt>
      <trkpt lat="45.92881" lon="6.51673">
        <ele>1989</ele>
        <time>2017-08-29T10:01:10Z</time>
      </trkpt>
      <trkpt lat="45.92882" lon="6.5167">
        <ele>1989</ele>
        <time>2017-08-29T10:01:11Z</time>
      </trkpt>
      <trkpt lat="45.92882" lon="6.5167">
        <ele>1989</ele>
        <time>2017-08-29T10:01:12Z</time>
      </trkpt>
      <trkpt lat="45.92885" lon="6.5167">
        <ele>1987</ele>
        <time>2017-08-29T10:01:13Z</time>
      </trkpt>
      <trkpt lat="45.92885" lon="6.51669">
        <ele>1986</ele>
        <time>2017-08-29T10:01:14Z</time>
      </trkpt>
      <trkpt lat="45.92885" lon="6.51669">
        <ele>1986</ele>
        <time>2017-08-29T10:01:15Z</time>
      </trkpt>
      <trkpt lat="45.92885" lon="6.51668">
        <ele>1986</ele>
        <time>2017-08-29T10:01:16Z</time>
      </trkpt>
      <trkpt lat="45.92884" lon="6.51667">
        <ele>1985</ele>
        <time>2017-08-29T10:01:17Z</time>
      </trkpt>
      <trkpt lat="45.92884" lon="6.51666">
        <ele>1985</ele>
        <time>2017-08-29T10:01:18Z</time>
      </trkpt>
      <trkpt lat="45.92884" lon="6.51665">
        <ele>1985</ele>
        <time>2017-08-29T10:01:19Z</time>
      </trkpt>
      <trkpt lat="45.92884" lon="6.51664">
        <ele>1985</ele>
        <time>2017-08-29T10:01:20Z</time>
      </trkpt>
      <trkpt lat="45.92884" lon="6.51663">
        <ele>1984</ele>
        <time>2017-08-29T10:01:21Z</time>
      </trkpt>
      <trkpt lat="45.92884" lon="6.51663">
        <ele>1983</ele>
        <time>2017-08-29T10:01:22Z</time>
      </trkpt>
      <trkpt lat="45.92883" lon="6.51655">
        <ele>1983</ele>
        <time>2017-08-29T10:01:23Z</time>
      </trkpt>
      <trkpt lat="45.92882" lon="6.51653">
        <ele>1982</ele>
        <time>2017-08-29T10:01:24Z</time>
      </trkpt>
      <trkpt lat="45.92882" lon="6.51651">
        <ele>1982</ele>
        <time>2017-08-29T10:01:25Z</time>
      </trkpt>
      <trkpt lat="45.92881" lon="6.51648">
        <ele>1982</ele>
        <time>2017-08-29T10:01:26Z</time>
      </trkpt>
      <trkpt lat="45.9288" lon="6.51646">
        <ele>1982</ele>
        <time>2017-08-29T10:01:27Z</time>
      </trkpt>
      <trkpt lat="45.9288" lon="6.51644">
        <ele>1981</ele>
        <time>2017-08-29T10:01:28Z</time>
      </trkpt>
      <trkpt lat="45.92879" lon="6.51642">
        <ele>1980</ele>
        <time>2017-08-29T10:01:29Z</time>
      </trkpt>
      <trkpt lat="45.92878" lon="6.51639">
        <ele>1979</ele>
        <time>2017-08-29T10:01:30Z</time>
      </trkpt>
      <trkpt lat="45.92876" lon="6.51636">
        <ele>1978</ele>
        <time>2017-08-29T10:01:31Z</time>
      </trkpt>
      <trkpt lat="45.92875" lon="6.51633">
        <ele>1978</ele>
        <time>2017-08-29T10:01:32Z</time>
      </trkpt>
      <trkpt lat="45.92874" lon="6.5163">
        <ele>1978</ele>
        <time>2017-08-29T10:01:33Z</time>
      </trkpt>
      <trkpt lat="45.92873" lon="6.51629">
        <ele>1977</ele>
        <time>2017-08-29T10:01:34Z</time>
      </trkpt>
      <trkpt lat="45.92872" lon="6.51628">
        <ele>1976</ele>
        <time>2017-08-29T10:01:35Z</time>
      </trkpt>
      <trkpt lat="45.92871" lon="6.51626">
        <ele>1976</ele>
        <time>2017-08-29T10:01:36Z</time>
      </trkpt>
      <trkpt lat="45.9287" lon="6.51625">
        <ele>1975</ele>
        <time>2017-08-29T10:01:37Z</time>
      </trkpt>
      <trkpt lat="45.92867" lon="6.51619">
        <ele>1974</ele>
        <time>2017-08-29T10:01:38Z</time>
      </trkpt>
      <trkpt lat="45.92866" lon="6.51617">
        <ele>1974</ele>
        <time>2017-08-29T10:01:39Z</time>
      </trkpt>
      <trkpt lat="45.92865" lon="6.51615">
        <ele>1974</ele>
        <time>2017-08-29T10:01:40Z</time>
      </trkpt>
      <trkpt lat="45.92864" lon="6.51612">
        <ele>1974</ele>
        <time>2017-08-29T10:01:41Z</time>
      </trkpt>
      <trkpt lat="45.92863" lon="6.5161">
        <ele>1973</ele>
        <time>2017-08-29T10:01:42Z</time>
      </trkpt>
      <trkpt lat="45.92862" lon="6.51608">
        <ele>1972</ele>
        <time>2017-08-29T10:01:43Z</time>
      </trkpt>
      <trkpt lat="45.92861" lon="6.51606">
        <ele>1971</ele>
        <time>2017-08-29T10:01:44Z</time>
      </trkpt>
      <trkpt lat="45.92861" lon="6.51603">
        <ele>1971</ele>
        <time>2017-08-29T10:01:45Z</time>
      </trkpt>
      <trkpt lat="45.9286" lon="6.51601">
        <ele>1971</ele>
        <time>2017-08-29T10:01:46Z</time>
      </trkpt>
      <trkpt lat="45.9286" lon="6.51599">
        <ele>1970</ele>
        <time>2017-08-29T10:01:47Z</time>
      </trkpt>
      <trkpt lat="45.9286" lon="6.51597">
        <ele>1969</ele>
        <time>2017-08-29T10:01:48Z</time>
      </trkpt>
      <trkpt lat="45.92859" lon="6.51595">
        <ele>1969</ele>
        <time>2017-08-29T10:01:49Z</time>
      </trkpt>
      <trkpt lat="45.92859" lon="6.51592">
        <ele>1968</ele>
        <time>2017-08-29T10:01:50Z</time>
      </trkpt>
      <trkpt lat="45.92858" lon="6.51589">
        <ele>1967</ele>
        <time>2017-08-29T10:01:51Z</time>
      </trkpt>
      <trkpt lat="45.92858" lon="6.51586">
        <ele>1967</ele>
        <time>2017-08-29T10:01:52Z</time>
      </trkpt>
      <trkpt lat="45.92858" lon="6.51584">
        <ele>1966</ele>
        <time>2017-08-29T10:01:53Z</time>
      </trkpt>
      <trkpt lat="45.92858" lon="6.51583">
        <ele>1965</ele>
        <time>2017-08-29T10:01:54Z</time>
      </trkpt>
      <trkpt lat="45.92858" lon="6.51581">
        <ele>1965</ele>
        <time>2017-08-29T10:01:55Z</time>
      </trkpt>
      <trkpt lat="45.92858" lon="6.51579">
        <ele>1964</ele>
        <time>2017-08-29T10:01:56Z</time>
      </trkpt>
      <trkpt lat="45.92857" lon="6.51572">
        <ele>1963</ele>
        <time>2017-08-29T10:01:57Z</time>
      </trkpt>
      <trkpt lat="45.92857" lon="6.5157">
        <ele>1963</ele>
        <time>2017-08-29T10:01:58Z</time>
      </trkpt>
      <trkpt lat="45.92857" lon="6.51568">
        <ele>1963</ele>
        <time>2017-08-29T10:01:59Z</time>
      </trkpt>
      <trkpt lat="45.92856" lon="6.51566">
        <ele>1963</ele>
        <time>2017-08-29T10:02:00Z</time>
      </trkpt>
      <trkpt lat="45.92856" lon="6.51564">
        <ele>1962</ele>
        <time>2017-08-29T10:02:01Z</time>
      </trkpt>
      <trkpt lat="45.92854" lon="6.51557">
        <ele>1962</ele>
        <time>2017-08-29T10:02:02Z</time>
      </trkpt>
      <trkpt lat="45.92853" lon="6.51555">
        <ele>1961</ele>
        <time>2017-08-29T10:02:03Z</time>
      </trkpt>
      <trkpt lat="45.92852" lon="6.51553">
        <ele>1960</ele>
        <time>2017-08-29T10:02:04Z</time>
      </trkpt>
      <trkpt lat="45.92851" lon="6.51551">
        <ele>1960</ele>
        <time>2017-08-29T10:02:05Z</time>
      </trkpt>
      <trkpt lat="45.9285" lon="6.51549">
        <ele>1958</ele>
        <time>2017-08-29T10:02:06Z</time>
      </trkpt>
      <trkpt lat="45.92849" lon="6.51547">
        <ele>1958</ele>
        <time>2017-08-29T10:02:07Z</time>
      </trkpt>
      <trkpt lat="45.92848" lon="6.51545">
        <ele>1958</ele>
        <time>2017-08-29T10:02:08Z</time>
      </trkpt>
      <trkpt lat="45.92847" lon="6.51543">
        <ele>1957</ele>
        <time>2017-08-29T10:02:09Z</time>
      </trkpt>
      <trkpt lat="45.92846" lon="6.51541">
        <ele>1956</ele>
        <time>2017-08-29T10:02:10Z</time>
      </trkpt>
      <trkpt lat="45.92845" lon="6.51539">
        <ele>1956</ele>
        <time>2017-08-29T10:02:11Z</time>
      </trkpt>
      <trkpt lat="45.92844" lon="6.51537">
        <ele>1956</ele>
        <time>2017-08-29T10:02:12Z</time>
      </trkpt>
      <trkpt lat="45.92843" lon="6.51534">
        <ele>1955</ele>
        <time>2017-08-29T10:02:13Z</time>
      </trkpt>
      <trkpt lat="45.92842" lon="6.51533">
        <ele>1955</ele>
        <time>2017-08-29T10:02:14Z</time>
      </trkpt>
      <trkpt lat="45.92842" lon="6.51531">
        <ele>1954</ele>
        <time>2017-08-29T10:02:15Z</time>
      </trkpt>
      <trkpt lat="45.92841" lon="6.51529">
        <ele>1954</ele>
        <time>2017-08-29T10:02:16Z</time>
      </trkpt>
      <trkpt lat="45.9284" lon="6.51528">
        <ele>1954</ele>
        <time>2017-08-29T10:02:17Z</time>
      </trkpt>
      <trkpt lat="45.92838" lon="6.51521">
        <ele>1954</ele>
        <time>2017-08-29T10:02:18Z</time>
      </trkpt>
      <trkpt lat="45.92837" lon="6.51519">
        <ele>1954</ele>
        <time>2017-08-29T10:02:19Z</time>
      </trkpt>
      <trkpt lat="45.92837" lon="6.51517">
        <ele>1954</ele>
        <time>2017-08-29T10:02:20Z</time>
      </trkpt>
      <trkpt lat="45.92836" lon="6.51514">
        <ele>1954</ele>
        <time>2017-08-29T10:02:21Z</time>
      </trkpt>
      <trkpt lat="45.92836" lon="6.51512">
        <ele>1954</ele>
        <time>2017-08-29T10:02:22Z</time>
      </trkpt>
      <trkpt lat="45.92835" lon="6.5151">
        <ele>1953</ele>
        <time>2017-08-29T10:02:23Z</time>
      </trkpt>
      <trkpt lat="45.92835" lon="6.51508">
        <ele>1953</ele>
        <time>2017-08-29T10:02:24Z</time>
      </trkpt>
      <trkpt lat="45.92834" lon="6.51507">
        <ele>1952</ele>
        <time>2017-08-29T10:02:25Z</time>
      </trkpt>
      <trkpt lat="45.92833" lon="6.51506">
        <ele>1952</ele>
        <time>2017-08-29T10:02:26Z</time>
      </trkpt>
      <trkpt lat="45.92832" lon="6.51505">
        <ele>1951</ele>
        <time>2017-08-29T10:02:27Z</time>
      </trkpt>
      <trkpt lat="45.92831" lon="6.51505">
        <ele>1950</ele>
        <time>2017-08-29T10:02:28Z</time>
      </trkpt>
      <trkpt lat="45.9283" lon="6.51504">
        <ele>1950</ele>
        <time>2017-08-29T10:02:29Z</time>
      </trkpt>
      <trkpt lat="45.92829" lon="6.51503">
        <ele>1950</ele>
        <time>2017-08-29T10:02:30Z</time>
      </trkpt>
      <trkpt lat="45.92828" lon="6.51502">
        <ele>1949</ele>
        <time>2017-08-29T10:02:31Z</time>
      </trkpt>
      <trkpt lat="45.92828" lon="6.51501">
        <ele>1949</ele>
        <time>2017-08-29T10:02:32Z</time>
      </trkpt>
      <trkpt lat="45.92827" lon="6.51501">
        <ele>1949</ele>
        <time>2017-08-29T10:02:33Z</time>
      </trkpt>
      <trkpt lat="45.92827" lon="6.51501">
        <ele>1948</ele>
        <time>2017-08-29T10:02:34Z</time>
      </trkpt>
      <trkpt lat="45.92826" lon="6.51497">
        <ele>1947</ele>
        <time>2017-08-29T10:02:35Z</time>
      </trkpt>
      <trkpt lat="45.92826" lon="6.51497">
        <ele>1947</ele>
        <time>2017-08-29T10:02:36Z</time>
      </trkpt>
      <trkpt lat="45.92827" lon="6.51493">
        <ele>1947</ele>
        <time>2017-08-29T10:02:37Z</time>
      </trkpt>
      <trkpt lat="45.92827" lon="6.51493">
        <ele>1947</ele>
        <time>2017-08-29T10:02:38Z</time>
      </trkpt>
      <trkpt lat="45.92829" lon="6.51489">
        <ele>1946</ele>
        <time>2017-08-29T10:02:39Z</time>
      </trkpt>
      <trkpt lat="45.92829" lon="6.51489">
        <ele>1945</ele>
        <time>2017-08-29T10:02:40Z</time>
      </trkpt>
      <trkpt lat="45.92829" lon="6.51486">
        <ele>1945</ele>
        <time>2017-08-29T10:02:41Z</time>
      </trkpt>
      <trkpt lat="45.9283" lon="6.51484">
        <ele>1944</ele>
        <time>2017-08-29T10:02:42Z</time>
      </trkpt>
      <trkpt lat="45.9283" lon="6.51481">
        <ele>1944</ele>
        <time>2017-08-29T10:02:43Z</time>
      </trkpt>
      <trkpt lat="45.92833" lon="6.51481">
        <ele>1943</ele>
        <time>2017-08-29T10:02:44Z</time>
      </trkpt>
      <trkpt lat="45.92834" lon="6.51481">
        <ele>1943</ele>
        <time>2017-08-29T10:02:45Z</time>
      </trkpt>
      <trkpt lat="45.92836" lon="6.51481">
        <ele>1942</ele>
        <time>2017-08-29T10:02:46Z</time>
      </trkpt>
      <trkpt lat="45.92837" lon="6.5148">
        <ele>1941</ele>
        <time>2017-08-29T10:02:47Z</time>
      </trkpt>
      <trkpt lat="45.92838" lon="6.5148">
        <ele>1941</ele>
        <time>2017-08-29T10:02:48Z</time>
      </trkpt>
      <trkpt lat="45.9284" lon="6.5148">
        <ele>1941</ele>
        <time>2017-08-29T10:02:49Z</time>
      </trkpt>
      <trkpt lat="45.92841" lon="6.5148">
        <ele>1941</ele>
        <time>2017-08-29T10:02:50Z</time>
      </trkpt>
      <trkpt lat="45.92843" lon="6.51479">
        <ele>1940</ele>
        <time>2017-08-29T10:02:51Z</time>
      </trkpt>
      <trkpt lat="45.92845" lon="6.5148">
        <ele>1940</ele>
        <time>2017-08-29T10:02:52Z</time>
      </trkpt>
      <trkpt lat="45.92846" lon="6.51482">
        <ele>1939</ele>
        <time>2017-08-29T10:02:53Z</time>
      </trkpt>
      <trkpt lat="45.92846" lon="6.51482">
        <ele>1939</ele>
        <time>2017-08-29T10:02:54Z</time>
      </trkpt>
      <trkpt lat="45.92848" lon="6.51479">
        <ele>1939</ele>
        <time>2017-08-29T10:02:55Z</time>
      </trkpt>
      <trkpt lat="45.92848" lon="6.51477">
        <ele>1938</ele>
        <time>2017-08-29T10:02:56Z</time>
      </trkpt>
      <trkpt lat="45.92848" lon="6.51475">
        <ele>1938</ele>
        <time>2017-08-29T10:02:57Z</time>
      </trkpt>
      <trkpt lat="45.92849" lon="6.51473">
        <ele>1937</ele>
        <time>2017-08-29T10:02:58Z</time>
      </trkpt>
      <trkpt lat="45.92849" lon="6.51471">
        <ele>1936</ele>
        <time>2017-08-29T10:02:59Z</time>
      </trkpt>
      <trkpt lat="45.92849" lon="6.51469">
        <ele>1935</ele>
        <time>2017-08-29T10:03:00Z</time>
      </trkpt>
      <trkpt lat="45.92849" lon="6.51468">
        <ele>1933</ele>
        <time>2017-08-29T10:03:01Z</time>
      </trkpt>
      <trkpt lat="45.9285" lon="6.51466">
        <ele>1933</ele>
        <time>2017-08-29T10:03:02Z</time>
      </trkpt>
      <trkpt lat="45.9285" lon="6.51464">
        <ele>1933</ele>
        <time>2017-08-29T10:03:03Z</time>
      </trkpt>
      <trkpt lat="45.9285" lon="6.51462">
        <ele>1932</ele>
        <time>2017-08-29T10:03:04Z</time>
      </trkpt>
      <trkpt lat="45.92851" lon="6.5146">
        <ele>1931</ele>
        <time>2017-08-29T10:03:05Z</time>
      </trkpt>
      <trkpt lat="45.92851" lon="6.51458">
        <ele>1931</ele>
        <time>2017-08-29T10:03:06Z</time>
      </trkpt>
      <trkpt lat="45.92851" lon="6.51456">
        <ele>1930</ele>
        <time>2017-08-29T10:03:07Z</time>
      </trkpt>
      <trkpt lat="45.92851" lon="6.51454">
        <ele>1929</ele>
        <time>2017-08-29T10:03:08Z</time>
      </trkpt>
      <trkpt lat="45.92852" lon="6.51453">
        <ele>1928</ele>
        <time>2017-08-29T10:03:09Z</time>
      </trkpt>
      <trkpt lat="45.92853" lon="6.51451">
        <ele>1928</ele>
        <time>2017-08-29T10:03:10Z</time>
      </trkpt>
      <trkpt lat="45.92854" lon="6.51449">
        <ele>1927</ele>
        <time>2017-08-29T10:03:11Z</time>
      </trkpt>
      <trkpt lat="45.92855" lon="6.51447">
        <ele>1927</ele>
        <time>2017-08-29T10:03:12Z</time>
      </trkpt>
      <trkpt lat="45.92856" lon="6.51446">
        <ele>1926</ele>
        <time>2017-08-29T10:03:13Z</time>
      </trkpt>
      <trkpt lat="45.92857" lon="6.51444">
        <ele>1925</ele>
        <time>2017-08-29T10:03:14Z</time>
      </trkpt>
      <trkpt lat="45.92858" lon="6.51442">
        <ele>1924</ele>
        <time>2017-08-29T10:03:15Z</time>
      </trkpt>
      <trkpt lat="45.92859" lon="6.51441">
        <ele>1923</ele>
        <time>2017-08-29T10:03:16Z</time>
      </trkpt>
      <trkpt lat="45.9286" lon="6.51439">
        <ele>1922</ele>
        <time>2017-08-29T10:03:17Z</time>
      </trkpt>
      <trkpt lat="45.92861" lon="6.51438">
        <ele>1921</ele>
        <time>2017-08-29T10:03:18Z</time>
      </trkpt>
      <trkpt lat="45.92862" lon="6.51436">
        <ele>1920</ele>
        <time>2017-08-29T10:03:19Z</time>
      </trkpt>
      <trkpt lat="45.92863" lon="6.51434">
        <ele>1919</ele>
        <time>2017-08-29T10:03:20Z</time>
      </trkpt>
      <trkpt lat="45.92864" lon="6.51433">
        <ele>1919</ele>
        <time>2017-08-29T10:03:21Z</time>
      </trkpt>
      <trkpt lat="45.92865" lon="6.51431">
        <ele>1917</ele>
        <time>2017-08-29T10:03:22Z</time>
      </trkpt>
      <trkpt lat="45.92865" lon="6.51429">
        <ele>1916</ele>
        <time>2017-08-29T10:03:23Z</time>
      </trkpt>
      <trkpt lat="45.92866" lon="6.51426">
        <ele>1916</ele>
        <time>2017-08-29T10:03:24Z</time>
      </trkpt>
      <trkpt lat="45.92867" lon="6.51424">
        <ele>1916</ele>
        <time>2017-08-29T10:03:25Z</time>
      </trkpt>
      <trkpt lat="45.92868" lon="6.51421">
        <ele>1915</ele>
        <time>2017-08-29T10:03:26Z</time>
      </trkpt>
      <trkpt lat="45.92869" lon="6.51419">
        <ele>1914</ele>
        <time>2017-08-29T10:03:27Z</time>
      </trkpt>
      <trkpt lat="45.92869" lon="6.51416">
        <ele>1914</ele>
        <time>2017-08-29T10:03:28Z</time>
      </trkpt>
      <trkpt lat="45.9287" lon="6.51414">
        <ele>1912</ele>
        <time>2017-08-29T10:03:29Z</time>
      </trkpt>
      <trkpt lat="45.9287" lon="6.51411">
        <ele>1911</ele>
        <time>2017-08-29T10:03:30Z</time>
      </trkpt>
      <trkpt lat="45.92871" lon="6.51408">
        <ele>1911</ele>
        <time>2017-08-29T10:03:31Z</time>
      </trkpt>
      <trkpt lat="45.92872" lon="6.51406">
        <ele>1910</ele>
        <time>2017-08-29T10:03:32Z</time>
      </trkpt>
      <trkpt lat="45.92873" lon="6.51404">
        <ele>1910</ele>
        <time>2017-08-29T10:03:33Z</time>
      </trkpt>
      <trkpt lat="45.92874" lon="6.51403">
        <ele>1910</ele>
        <time>2017-08-29T10:03:34Z</time>
      </trkpt>
      <trkpt lat="45.92875" lon="6.51401">
        <ele>1909</ele>
        <time>2017-08-29T10:03:35Z</time>
      </trkpt>
      <trkpt lat="45.92876" lon="6.514">
        <ele>1908</ele>
        <time>2017-08-29T10:03:36Z</time>
      </trkpt>
      <trkpt lat="45.92878" lon="6.51398">
        <ele>1907</ele>
        <time>2017-08-29T10:03:37Z</time>
      </trkpt>
      <trkpt lat="45.92879" lon="6.51396">
        <ele>1907</ele>
        <time>2017-08-29T10:03:38Z</time>
      </trkpt>
      <trkpt lat="45.92879" lon="6.51394">
        <ele>1907</ele>
        <time>2017-08-29T10:03:39Z</time>
      </trkpt>
      <trkpt lat="45.92879" lon="6.51392">
        <ele>1905</ele>
        <time>2017-08-29T10:03:40Z</time>
      </trkpt>
      <trkpt lat="45.92879" lon="6.5139">
        <ele>1904</ele>
        <time>2017-08-29T10:03:41Z</time>
      </trkpt>
      <trkpt lat="45.9288" lon="6.51388">
        <ele>1904</ele>
        <time>2017-08-29T10:03:42Z</time>
      </trkpt>
      <trkpt lat="45.9288" lon="6.51386">
        <ele>1903</ele>
        <time>2017-08-29T10:03:43Z</time>
      </trkpt>
      <trkpt lat="45.9288" lon="6.51383">
        <ele>1903</ele>
        <time>2017-08-29T10:03:44Z</time>
      </trkpt>
      <trkpt lat="45.9288" lon="6.51381">
        <ele>1903</ele>
        <time>2017-08-29T10:03:45Z</time>
      </trkpt>
      <trkpt lat="45.92881" lon="6.51378">
        <ele>1902</ele>
        <time>2017-08-29T10:03:46Z</time>
      </trkpt>
      <trkpt lat="45.92882" lon="6.51376">
        <ele>1902</ele>
        <time>2017-08-29T10:03:47Z</time>
      </trkpt>
      <trkpt lat="45.92882" lon="6.51373">
        <ele>1901</ele>
        <time>2017-08-29T10:03:48Z</time>
      </trkpt>
      <trkpt lat="45.92883" lon="6.51371">
        <ele>1900</ele>
        <time>2017-08-29T10:03:49Z</time>
      </trkpt>
      <trkpt lat="45.92884" lon="6.51369">
        <ele>1900</ele>
        <time>2017-08-29T10:03:50Z</time>
      </trkpt>
      <trkpt lat="45.92886" lon="6.51368">
        <ele>1900</ele>
        <time>2017-08-29T10:03:51Z</time>
      </trkpt>
      <trkpt lat="45.92888" lon="6.51366">
        <ele>1899</ele>
        <time>2017-08-29T10:03:52Z</time>
      </trkpt>
      <trkpt lat="45.92889" lon="6.51365">
        <ele>1899</ele>
        <time>2017-08-29T10:03:53Z</time>
      </trkpt>
      <trkpt lat="45.92891" lon="6.51363">
        <ele>1898</ele>
        <time>2017-08-29T10:03:54Z</time>
      </trkpt>
      <trkpt lat="45.92891" lon="6.51361">
        <ele>1898</ele>
        <time>2017-08-29T10:03:55Z</time>
      </trkpt>
      <trkpt lat="45.92892" lon="6.51359">
        <ele>1897</ele>
        <time>2017-08-29T10:03:56Z</time>
      </trkpt>
      <trkpt lat="45.92892" lon="6.51357">
        <ele>1896</ele>
        <time>2017-08-29T10:03:57Z</time>
      </trkpt>
      <trkpt lat="45.92893" lon="6.51355">
        <ele>1895</ele>
        <time>2017-08-29T10:03:58Z</time>
      </trkpt>
      <trkpt lat="45.92894" lon="6.51353">
        <ele>1895</ele>
        <time>2017-08-29T10:03:59Z</time>
      </trkpt>
      <trkpt lat="45.92894" lon="6.51351">
        <ele>1893</ele>
        <time>2017-08-29T10:04:00Z</time>
      </trkpt>
      <trkpt lat="45.92895" lon="6.51348">
        <ele>1892</ele>
        <time>2017-08-29T10:04:01Z</time>
      </trkpt>
      <trkpt lat="45.92895" lon="6.51346">
        <ele>1892</ele>
        <time>2017-08-29T10:04:02Z</time>
      </trkpt>
      <trkpt lat="45.92896" lon="6.51344">
        <ele>1892</ele>
        <time>2017-08-29T10:04:03Z</time>
      </trkpt>
      <trkpt lat="45.92897" lon="6.51342">
        <ele>1892</ele>
        <time>2017-08-29T10:04:04Z</time>
      </trkpt>
      <trkpt lat="45.92897" lon="6.5134">
        <ele>1891</ele>
        <time>2017-08-29T10:04:05Z</time>
      </trkpt>
      <trkpt lat="45.92898" lon="6.51337">
        <ele>1890</ele>
        <time>2017-08-29T10:04:06Z</time>
      </trkpt>
      <trkpt lat="45.92899" lon="6.51337">
        <ele>1890</ele>
        <time>2017-08-29T10:04:07Z</time>
      </trkpt>
      <trkpt lat="45.92901" lon="6.51336">
        <ele>1889</ele>
        <time>2017-08-29T10:04:08Z</time>
      </trkpt>
      <trkpt lat="45.92902" lon="6.51335">
        <ele>1888</ele>
        <time>2017-08-29T10:04:09Z</time>
      </trkpt>
      <trkpt lat="45.92903" lon="6.51334">
        <ele>1887</ele>
        <time>2017-08-29T10:04:10Z</time>
      </trkpt>
      <trkpt lat="45.92905" lon="6.51333">
        <ele>1887</ele>
        <time>2017-08-29T10:04:11Z</time>
      </trkpt>
      <trkpt lat="45.92906" lon="6.51332">
        <ele>1886</ele>
        <time>2017-08-29T10:04:12Z</time>
      </trkpt>
      <trkpt lat="45.92906" lon="6.51332">
        <ele>1886</ele>
        <time>2017-08-29T10:04:13Z</time>
      </trkpt>
      <trkpt lat="45.92906" lon="6.51332">
        <ele>1885</ele>
        <time>2017-08-29T10:04:14Z</time>
      </trkpt>
      <trkpt lat="45.92906" lon="6.51332">
        <ele>1885</ele>
        <time>2017-08-29T10:04:15Z</time>
      </trkpt>
      <trkpt lat="45.92908" lon="6.51319">
        <ele>1884.4</ele>
        <time>2017-08-29T10:04:17Z</time>
      </trkpt>
      <trkpt lat="45.9291" lon="6.51319">
        <ele>1884</ele>
        <time>2017-08-29T10:04:18Z</time>
      </trkpt>
      <trkpt lat="45.92912" lon="6.51318">
        <ele>1884</ele>
        <time>2017-08-29T10:04:19Z</time>
      </trkpt>
      <trkpt lat="45.92914" lon="6.51318">
        <ele>1882</ele>
        <time>2017-08-29T10:04:20Z</time>
      </trkpt>
      <trkpt lat="45.92915" lon="6.51316">
        <ele>1881</ele>
        <time>2017-08-29T10:04:21Z</time>
      </trkpt>
      <trkpt lat="45.92917" lon="6.51314">
        <ele>1881</ele>
        <time>2017-08-29T10:04:22Z</time>
      </trkpt>
      <trkpt lat="45.92919" lon="6.51313">
        <ele>1880</ele>
        <time>2017-08-29T10:04:23Z</time>
      </trkpt>
      <trkpt lat="45.92921" lon="6.51312">
        <ele>1880</ele>
        <time>2017-08-29T10:04:24Z</time>
      </trkpt>
      <trkpt lat="45.92923" lon="6.5131">
        <ele>1880</ele>
        <time>2017-08-29T10:04:25Z</time>
      </trkpt>
      <trkpt lat="45.92925" lon="6.51308">
        <ele>1879</ele>
        <time>2017-08-29T10:04:26Z</time>
      </trkpt>
      <trkpt lat="45.92927" lon="6.51306">
        <ele>1879</ele>
        <time>2017-08-29T10:04:27Z</time>
      </trkpt>
      <trkpt lat="45.92928" lon="6.51304">
        <ele>1878</ele>
        <time>2017-08-29T10:04:28Z</time>
      </trkpt>
      <trkpt lat="45.9293" lon="6.51301">
        <ele>1877</ele>
        <time>2017-08-29T10:04:29Z</time>
      </trkpt>
      <trkpt lat="45.92931" lon="6.51297">
        <ele>1876</ele>
        <time>2017-08-29T10:04:30Z</time>
      </trkpt>
      <trkpt lat="45.92931" lon="6.51293">
        <ele>1876</ele>
        <time>2017-08-29T10:04:31Z</time>
      </trkpt>
      <trkpt lat="45.92932" lon="6.51289">
        <ele>1875</ele>
        <time>2017-08-29T10:04:32Z</time>
      </trkpt>
      <trkpt lat="45.92932" lon="6.51286">
        <ele>1875</ele>
        <time>2017-08-29T10:04:33Z</time>
      </trkpt>
      <trkpt lat="45.92934" lon="6.51282">
        <ele>1874</ele>
        <time>2017-08-29T10:04:34Z</time>
      </trkpt>
      <trkpt lat="45.92935" lon="6.51279">
        <ele>1874</ele>
        <time>2017-08-29T10:04:35Z</time>
      </trkpt>
      <trkpt lat="45.92936" lon="6.51276">
        <ele>1873</ele>
        <time>2017-08-29T10:04:36Z</time>
      </trkpt>
      <trkpt lat="45.92937" lon="6.51272">
        <ele>1873</ele>
        <time>2017-08-29T10:04:37Z</time>
      </trkpt>
      <trkpt lat="45.92939" lon="6.51268">
        <ele>1871</ele>
        <time>2017-08-29T10:04:38Z</time>
      </trkpt>
      <trkpt lat="45.9294" lon="6.51265">
        <ele>1870</ele>
        <time>2017-08-29T10:04:39Z</time>
      </trkpt>
      <trkpt lat="45.92942" lon="6.51263">
        <ele>1870</ele>
        <time>2017-08-29T10:04:40Z</time>
      </trkpt>
      <trkpt lat="45.92943" lon="6.5126">
        <ele>1869</ele>
        <time>2017-08-29T10:04:41Z</time>
      </trkpt>
      <trkpt lat="45.92945" lon="6.51256">
        <ele>1869</ele>
        <time>2017-08-29T10:04:42Z</time>
      </trkpt>
      <trkpt lat="45.92947" lon="6.51253">
        <ele>1868</ele>
        <time>2017-08-29T10:04:43Z</time>
      </trkpt>
      <trkpt lat="45.92948" lon="6.51249">
        <ele>1868</ele>
        <time>2017-08-29T10:04:44Z</time>
      </trkpt>
      <trkpt lat="45.92949" lon="6.51245">
        <ele>1868</ele>
        <time>2017-08-29T10:04:45Z</time>
      </trkpt>
      <trkpt lat="45.92951" lon="6.51243">
        <ele>1867</ele>
        <time>2017-08-29T10:04:46Z</time>
      </trkpt>
      <trkpt lat="45.92953" lon="6.51241">
        <ele>1866</ele>
        <time>2017-08-29T10:04:47Z</time>
      </trkpt>
      <trkpt lat="45.92955" lon="6.51239">
        <ele>1865</ele>
        <time>2017-08-29T10:04:48Z</time>
      </trkpt>
      <trkpt lat="45.92957" lon="6.51236">
        <ele>1864</ele>
        <time>2017-08-29T10:04:49Z</time>
      </trkpt>
      <trkpt lat="45.92959" lon="6.51233">
        <ele>1864</ele>
        <time>2017-08-29T10:04:50Z</time>
      </trkpt>
      <trkpt lat="45.9296" lon="6.51229">
        <ele>1863</ele>
        <time>2017-08-29T10:04:51Z</time>
      </trkpt>
      <trkpt lat="45.92962" lon="6.51226">
        <ele>1863</ele>
        <time>2017-08-29T10:04:52Z</time>
      </trkpt>
      <trkpt lat="45.92964" lon="6.51222">
        <ele>1861</ele>
        <time>2017-08-29T10:04:53Z</time>
      </trkpt>
      <trkpt lat="45.92966" lon="6.51219">
        <ele>1860</ele>
        <time>2017-08-29T10:04:54Z</time>
      </trkpt>
      <trkpt lat="45.92968" lon="6.51216">
        <ele>1860</ele>
        <time>2017-08-29T10:04:55Z</time>
      </trkpt>
      <trkpt lat="45.9297" lon="6.51214">
        <ele>1860</ele>
        <time>2017-08-29T10:04:56Z</time>
      </trkpt>
      <trkpt lat="45.92972" lon="6.51212">
        <ele>1860</ele>
        <time>2017-08-29T10:04:57Z</time>
      </trkpt>
      <trkpt lat="45.92973" lon="6.5121">
        <ele>1859</ele>
        <time>2017-08-29T10:04:58Z</time>
      </trkpt>
      <trkpt lat="45.92975" lon="6.51208">
        <ele>1858</ele>
        <time>2017-08-29T10:04:59Z</time>
      </trkpt>
      <trkpt lat="45.92977" lon="6.51205">
        <ele>1857</ele>
        <time>2017-08-29T10:05:00Z</time>
      </trkpt>
      <trkpt lat="45.92978" lon="6.51203">
        <ele>1856</ele>
        <time>2017-08-29T10:05:01Z</time>
      </trkpt>
      <trkpt lat="45.92978" lon="6.51203">
        <ele>1856</ele>
        <time>2017-08-29T10:05:02Z</time>
      </trkpt>
      <trkpt lat="45.92978" lon="6.51198">
        <ele>1856</ele>
        <time>2017-08-29T10:05:03Z</time>
      </trkpt>
      <trkpt lat="45.92979" lon="6.51195">
        <ele>1856</ele>
        <time>2017-08-29T10:05:04Z</time>
      </trkpt>
      <trkpt lat="45.92978" lon="6.51192">
        <ele>1855</ele>
        <time>2017-08-29T10:05:05Z</time>
      </trkpt>
      <trkpt lat="45.92979" lon="6.5119">
        <ele>1854</ele>
        <time>2017-08-29T10:05:06Z</time>
      </trkpt>
      <trkpt lat="45.92979" lon="6.51187">
        <ele>1854</ele>
        <time>2017-08-29T10:05:07Z</time>
      </trkpt>
      <trkpt lat="45.9298" lon="6.51184">
        <ele>1854</ele>
        <time>2017-08-29T10:05:08Z</time>
      </trkpt>
      <trkpt lat="45.92981" lon="6.51182">
        <ele>1852</ele>
        <time>2017-08-29T10:05:09Z</time>
      </trkpt>
      <trkpt lat="45.92982" lon="6.5118">
        <ele>1851</ele>
        <time>2017-08-29T10:05:10Z</time>
      </trkpt>
      <trkpt lat="45.92983" lon="6.51177">
        <ele>1850</ele>
        <time>2017-08-29T10:05:11Z</time>
      </trkpt>
      <trkpt lat="45.92983" lon="6.51175">
        <ele>1849</ele>
        <time>2017-08-29T10:05:12Z</time>
      </trkpt>
      <trkpt lat="45.92984" lon="6.5117">
        <ele>1848.4</ele>
        <time>2017-08-29T10:05:14Z</time>
      </trkpt>
      <trkpt lat="45.92985" lon="6.51167">
        <ele>1848</ele>
        <time>2017-08-29T10:05:15Z</time>
      </trkpt>
      <trkpt lat="45.92985" lon="6.51164">
        <ele>1847</ele>
        <time>2017-08-29T10:05:16Z</time>
      </trkpt>
      <trkpt lat="45.92985" lon="6.51161">
        <ele>1846</ele>
        <time>2017-08-29T10:05:17Z</time>
      </trkpt>
      <trkpt lat="45.92985" lon="6.51158">
        <ele>1845</ele>
        <time>2017-08-29T10:05:18Z</time>
      </trkpt>
      <trkpt lat="45.92985" lon="6.51155">
        <ele>1844</ele>
        <time>2017-08-29T10:05:19Z</time>
      </trkpt>
      <trkpt lat="45.92985" lon="6.51151">
        <ele>1844</ele>
        <time>2017-08-29T10:05:20Z</time>
      </trkpt>
      <trkpt lat="45.92985" lon="6.51148">
        <ele>1844</ele>
        <time>2017-08-29T10:05:21Z</time>
      </trkpt>
      <trkpt lat="45.92985" lon="6.51145">
        <ele>1843</ele>
        <time>2017-08-29T10:05:22Z</time>
      </trkpt>
      <trkpt lat="45.92986" lon="6.51142">
        <ele>1843</ele>
        <time>2017-08-29T10:05:23Z</time>
      </trkpt>
      <trkpt lat="45.92986" lon="6.51139">
        <ele>1842</ele>
        <time>2017-08-29T10:05:24Z</time>
      </trkpt>
      <trkpt lat="45.92985" lon="6.51135">
        <ele>1842</ele>
        <time>2017-08-29T10:05:25Z</time>
      </trkpt>
      <trkpt lat="45.92985" lon="6.51132">
        <ele>1841</ele>
        <time>2017-08-29T10:05:26Z</time>
      </trkpt>
      <trkpt lat="45.92984" lon="6.51129">
        <ele>1840</ele>
        <time>2017-08-29T10:05:27Z</time>
      </trkpt>
      <trkpt lat="45.92983" lon="6.51125">
        <ele>1839</ele>
        <time>2017-08-29T10:05:28Z</time>
      </trkpt>
      <trkpt lat="45.92982" lon="6.51121">
        <ele>1839</ele>
        <time>2017-08-29T10:05:29Z</time>
      </trkpt>
      <trkpt lat="45.92981" lon="6.51117">
        <ele>1838</ele>
        <time>2017-08-29T10:05:30Z</time>
      </trkpt>
      <trkpt lat="45.9298" lon="6.51114">
        <ele>1837</ele>
        <time>2017-08-29T10:05:31Z</time>
      </trkpt>
      <trkpt lat="45.92978" lon="6.51112">
        <ele>1837</ele>
        <time>2017-08-29T10:05:32Z</time>
      </trkpt>
      <trkpt lat="45.92978" lon="6.51112">
        <ele>1837</ele>
        <time>2017-08-29T10:05:33Z</time>
      </trkpt>
      <trkpt lat="45.92976" lon="6.51108">
        <ele>1837</ele>
        <time>2017-08-29T10:05:34Z</time>
      </trkpt>
      <trkpt lat="45.92976" lon="6.51108">
        <ele>1836</ele>
        <time>2017-08-29T10:05:35Z</time>
      </trkpt>
      <trkpt lat="45.92976" lon="6.51108">
        <ele>1836</ele>
        <time>2017-08-29T10:05:36Z</time>
      </trkpt>
      <trkpt lat="45.92976" lon="6.51108">
        <ele>1836</ele>
        <time>2017-08-29T10:05:37Z</time>
      </trkpt>
      <trkpt lat="45.92975" lon="6.5111">
        <ele>1837</ele>
        <time>2017-08-29T10:05:38Z</time>
      </trkpt>
      <trkpt lat="45.92975" lon="6.5111">
        <ele>1837</ele>
        <time>2017-08-29T10:05:39Z</time>
      </trkpt>
      <trkpt lat="45.92975" lon="6.5111">
        <ele>1837</ele>
        <time>2017-08-29T10:05:40Z</time>
      </trkpt>
      <trkpt lat="45.92973" lon="6.5111">
        <ele>1837</ele>
        <time>2017-08-29T10:05:41Z</time>
      </trkpt>
      <trkpt lat="45.92973" lon="6.5111">
        <ele>1837</ele>
        <time>2017-08-29T10:05:42Z</time>
      </trkpt>
      <trkpt lat="45.92973" lon="6.5111">
        <ele>1837</ele>
        <time>2017-08-29T10:05:43Z</time>
      </trkpt>
      <trkpt lat="45.9297" lon="6.51109">
        <ele>1837</ele>
        <time>2017-08-29T10:05:44Z</time>
      </trkpt>
      <trkpt lat="45.9297" lon="6.51109">
        <ele>1837</ele>
        <time>2017-08-29T10:05:45Z</time>
      </trkpt>
      <trkpt lat="45.92968" lon="6.51108">
        <ele>1837</ele>
        <time>2017-08-29T10:05:46Z</time>
      </trkpt>
      <trkpt lat="45.92968" lon="6.51108">
        <ele>1837</ele>
        <time>2017-08-29T10:05:47Z</time>
      </trkpt>
      <trkpt lat="45.92966" lon="6.51106">
        <ele>1837</ele>
        <time>2017-08-29T10:05:48Z</time>
      </trkpt>
      <trkpt lat="45.92966" lon="6.51106">
        <ele>1837</ele>
        <time>2017-08-29T10:05:49Z</time>
      </trkpt>
      <trkpt lat="45.92964" lon="6.51103">
        <ele>1837</ele>
        <time>2017-08-29T10:05:50Z</time>
      </trkpt>
      <trkpt lat="45.92964" lon="6.51103">
        <ele>1837</ele>
        <time>2017-08-29T10:05:51Z</time>
      </trkpt>
      <trkpt lat="45.92962" lon="6.511">
        <ele>1837</ele>
        <time>2017-08-29T10:05:52Z</time>
      </trkpt>
      <trkpt lat="45.92962" lon="6.511">
        <ele>1837</ele>
        <time>2017-08-29T10:05:53Z</time>
      </trkpt>
      <trkpt lat="45.9296" lon="6.51098">
        <ele>1838</ele>
        <time>2017-08-29T10:05:54Z</time>
      </trkpt>
      <trkpt lat="45.9296" lon="6.51098">
        <ele>1838</ele>
        <time>2017-08-29T10:05:55Z</time>
      </trkpt>
      <trkpt lat="45.92958" lon="6.51094">
        <ele>1838</ele>
        <time>2017-08-29T10:05:56Z</time>
      </trkpt>
      <trkpt lat="45.92958" lon="6.51094">
        <ele>1838</ele>
        <time>2017-08-29T10:05:57Z</time>
      </trkpt>
      <trkpt lat="45.92956" lon="6.51092">
        <ele>1838</ele>
        <time>2017-08-29T10:05:58Z</time>
      </trkpt>
      <trkpt lat="45.92956" lon="6.51092">
        <ele>1838</ele>
        <time>2017-08-29T10:05:59Z</time>
      </trkpt>
      <trkpt lat="45.92955" lon="6.51088">
        <ele>1838</ele>
        <time>2017-08-29T10:06:00Z</time>
      </trkpt>
      <trkpt lat="45.92955" lon="6.51088">
        <ele>1838</ele>
        <time>2017-08-29T10:06:01Z</time>
      </trkpt>
      <trkpt lat="45.92953" lon="6.51085">
        <ele>1838</ele>
        <time>2017-08-29T10:06:02Z</time>
      </trkpt>
      <trkpt lat="45.92953" lon="6.51085">
        <ele>1838</ele>
        <time>2017-08-29T10:06:03Z</time>
      </trkpt>
      <trkpt lat="45.92951" lon="6.51082">
        <ele>1838</ele>
        <time>2017-08-29T10:06:04Z</time>
      </trkpt>
      <trkpt lat="45.92951" lon="6.51082">
        <ele>1839</ele>
        <time>2017-08-29T10:06:05Z</time>
      </trkpt>
      <trkpt lat="45.92949" lon="6.51079">
        <ele>1839</ele>
        <time>2017-08-29T10:06:06Z</time>
      </trkpt>
      <trkpt lat="45.92949" lon="6.51079">
        <ele>1839</ele>
        <time>2017-08-29T10:06:07Z</time>
      </trkpt>
      <trkpt lat="45.92946" lon="6.51078">
        <ele>1839</ele>
        <time>2017-08-29T10:06:08Z</time>
      </trkpt>
      <trkpt lat="45.92946" lon="6.51078">
        <ele>1839</ele>
        <time>2017-08-29T10:06:09Z</time>
      </trkpt>
      <trkpt lat="45.92944" lon="6.51076">
        <ele>1839</ele>
        <time>2017-08-29T10:06:10Z</time>
      </trkpt>
      <trkpt lat="45.92944" lon="6.51076">
        <ele>1839</ele>
        <time>2017-08-29T10:06:11Z</time>
      </trkpt>
      <trkpt lat="45.92941" lon="6.51074">
        <ele>1839</ele>
        <time>2017-08-29T10:06:12Z</time>
      </trkpt>
      <trkpt lat="45.92941" lon="6.51074">
        <ele>1840</ele>
        <time>2017-08-29T10:06:13Z</time>
      </trkpt>
      <trkpt lat="45.92939" lon="6.51072">
        <ele>1840</ele>
        <time>2017-08-29T10:06:14Z</time>
      </trkpt>
      <trkpt lat="45.92939" lon="6.51072">
        <ele>1840</ele>
        <time>2017-08-29T10:06:15Z</time>
      </trkpt>
      <trkpt lat="45.92937" lon="6.51069">
        <ele>1840</ele>
        <time>2017-08-29T10:06:16Z</time>
      </trkpt>
      <trkpt lat="45.92937" lon="6.51069">
        <ele>1840</ele>
        <time>2017-08-29T10:06:17Z</time>
      </trkpt>
      <trkpt lat="45.92935" lon="6.51065">
        <ele>1840</ele>
        <time>2017-08-29T10:06:18Z</time>
      </trkpt>
      <trkpt lat="45.92935" lon="6.51065">
        <ele>1840</ele>
        <time>2017-08-29T10:06:19Z</time>
      </trkpt>
      <trkpt lat="45.92934" lon="6.51061">
        <ele>1840</ele>
        <time>2017-08-29T10:06:20Z</time>
      </trkpt>
      <trkpt lat="45.92934" lon="6.51061">
        <ele>1840</ele>
        <time>2017-08-29T10:06:21Z</time>
      </trkpt>
      <trkpt lat="45.92932" lon="6.51057">
        <ele>1840</ele>
        <time>2017-08-29T10:06:22Z</time>
      </trkpt>
      <trkpt lat="45.92932" lon="6.51057">
        <ele>1840</ele>
        <time>2017-08-29T10:06:23Z</time>
      </trkpt>
      <trkpt lat="45.92931" lon="6.51054">
        <ele>1840</ele>
        <time>2017-08-29T10:06:24Z</time>
      </trkpt>
      <trkpt lat="45.92931" lon="6.51054">
        <ele>1840</ele>
        <time>2017-08-29T10:06:25Z</time>
      </trkpt>
      <trkpt lat="45.92929" lon="6.5105">
        <ele>1840</ele>
        <time>2017-08-29T10:06:26Z</time>
      </trkpt>
      <trkpt lat="45.92929" lon="6.5105">
        <ele>1840</ele>
        <time>2017-08-29T10:06:27Z</time>
      </trkpt>
      <trkpt lat="45.92928" lon="6.51047">
        <ele>1840</ele>
        <time>2017-08-29T10:06:28Z</time>
      </trkpt>
      <trkpt lat="45.92928" lon="6.51047">
        <ele>1840</ele>
        <time>2017-08-29T10:06:29Z</time>
      </trkpt>
      <trkpt lat="45.92927" lon="6.51044">
        <ele>1840</ele>
        <time>2017-08-29T10:06:30Z</time>
      </trkpt>
      <trkpt lat="45.92927" lon="6.51044">
        <ele>1840</ele>
        <time>2017-08-29T10:06:31Z</time>
      </trkpt>
      <trkpt lat="45.92926" lon="6.5104">
        <ele>1840</ele>
        <time>2017-08-29T10:06:32Z</time>
      </trkpt>
      <trkpt lat="45.92926" lon="6.5104">
        <ele>1841</ele>
        <time>2017-08-29T10:06:33Z</time>
      </trkpt>
      <trkpt lat="45.92925" lon="6.51037">
        <ele>1841</ele>
        <time>2017-08-29T10:06:34Z</time>
      </trkpt>
      <trkpt lat="45.92925" lon="6.51037">
        <ele>1841</ele>
        <time>2017-08-29T10:06:35Z</time>
      </trkpt>
      <trkpt lat="45.92924" lon="6.51034">
        <ele>1842</ele>
        <time>2017-08-29T10:06:36Z</time>
      </trkpt>
      <trkpt lat="45.92924" lon="6.51034">
        <ele>1842</ele>
        <time>2017-08-29T10:06:37Z</time>
      </trkpt>
      <trkpt lat="45.92923" lon="6.51031">
        <ele>1842</ele>
        <time>2017-08-29T10:06:38Z</time>
      </trkpt>
      <trkpt lat="45.92923" lon="6.51031">
        <ele>1842</ele>
        <time>2017-08-29T10:06:39Z</time>
      </trkpt>
      <trkpt lat="45.92922" lon="6.51028">
        <ele>1842</ele>
        <time>2017-08-29T10:06:40Z</time>
      </trkpt>
      <trkpt lat="45.92922" lon="6.51028">
        <ele>1842</ele>
        <time>2017-08-29T10:06:41Z</time>
      </trkpt>
      <trkpt lat="45.92919" lon="6.51026">
        <ele>1842</ele>
        <time>2017-08-29T10:06:42Z</time>
      </trkpt>
      <trkpt lat="45.92919" lon="6.51026">
        <ele>1842</ele>
        <time>2017-08-29T10:06:43Z</time>
      </trkpt>
      <trkpt lat="45.92917" lon="6.51025">
        <ele>1843</ele>
        <time>2017-08-29T10:06:44Z</time>
      </trkpt>
      <trkpt lat="45.92917" lon="6.51025">
        <ele>1843</ele>
        <time>2017-08-29T10:06:45Z</time>
      </trkpt>
      <trkpt lat="45.92914" lon="6.51023">
        <ele>1843</ele>
        <time>2017-08-29T10:06:46Z</time>
      </trkpt>
      <trkpt lat="45.92914" lon="6.51023">
        <ele>1844</ele>
        <time>2017-08-29T10:06:47Z</time>
      </trkpt>
      <trkpt lat="45.92912" lon="6.51021">
        <ele>1844</ele>
        <time>2017-08-29T10:06:48Z</time>
      </trkpt>
      <trkpt lat="45.92912" lon="6.51021">
        <ele>1844</ele>
        <time>2017-08-29T10:06:49Z</time>
      </trkpt>
      <trkpt lat="45.92912" lon="6.51021">
        <ele>1844</ele>
        <time>2017-08-29T10:06:50Z</time>
      </trkpt>
      <trkpt lat="45.9291" lon="6.51019">
        <ele>1843</ele>
        <time>2017-08-29T10:06:51Z</time>
      </trkpt>
      <trkpt lat="45.9291" lon="6.51019">
        <ele>1842</ele>
        <time>2017-08-29T10:06:52Z</time>
      </trkpt>
      <trkpt lat="45.92908" lon="6.51017">
        <ele>1842</ele>
        <time>2017-08-29T10:06:53Z</time>
      </trkpt>
      <trkpt lat="45.92908" lon="6.51017">
        <ele>1842</ele>
        <time>2017-08-29T10:06:54Z</time>
      </trkpt>
      <trkpt lat="45.92906" lon="6.51015">
        <ele>1842</ele>
        <time>2017-08-29T10:06:55Z</time>
      </trkpt>
      <trkpt lat="45.92906" lon="6.51015">
        <ele>1842</ele>
        <time>2017-08-29T10:06:56Z</time>
      </trkpt>
      <trkpt lat="45.92905" lon="6.51011">
        <ele>1842</ele>
        <time>2017-08-29T10:06:57Z</time>
      </trkpt>
      <trkpt lat="45.92904" lon="6.51009">
        <ele>1842</ele>
        <time>2017-08-29T10:06:58Z</time>
      </trkpt>
      <trkpt lat="45.92904" lon="6.51006">
        <ele>1841</ele>
        <time>2017-08-29T10:06:59Z</time>
      </trkpt>
      <trkpt lat="45.92903" lon="6.51003">
        <ele>1841</ele>
        <time>2017-08-29T10:07:00Z</time>
      </trkpt>
      <trkpt lat="45.92903" lon="6.51001">
        <ele>1840</ele>
        <time>2017-08-29T10:07:01Z</time>
      </trkpt>
      <trkpt lat="45.92903" lon="6.51001">
        <ele>1840</ele>
        <time>2017-08-29T10:07:02Z</time>
      </trkpt>
      <trkpt lat="45.92903" lon="6.50996">
        <ele>1840</ele>
        <time>2017-08-29T10:07:03Z</time>
      </trkpt>
      <trkpt lat="45.92903" lon="6.50993">
        <ele>1840</ele>
        <time>2017-08-29T10:07:04Z</time>
      </trkpt>
      <trkpt lat="45.92904" lon="6.5099">
        <ele>1840</ele>
        <time>2017-08-29T10:07:05Z</time>
      </trkpt>
      <trkpt lat="45.92904" lon="6.50988">
        <ele>1839</ele>
        <time>2017-08-29T10:07:06Z</time>
      </trkpt>
      <trkpt lat="45.92904" lon="6.50985">
        <ele>1838</ele>
        <time>2017-08-29T10:07:07Z</time>
      </trkpt>
      <trkpt lat="45.92904" lon="6.50982">
        <ele>1838</ele>
        <time>2017-08-29T10:07:08Z</time>
      </trkpt>
      <trkpt lat="45.92904" lon="6.50982">
        <ele>1838</ele>
        <time>2017-08-29T10:07:09Z</time>
      </trkpt>
      <trkpt lat="45.92904" lon="6.50978">
        <ele>1838</ele>
        <time>2017-08-29T10:07:10Z</time>
      </trkpt>
      <trkpt lat="45.92904" lon="6.50978">
        <ele>1838</ele>
        <time>2017-08-29T10:07:11Z</time>
      </trkpt>
      <trkpt lat="45.92904" lon="6.50974">
        <ele>1838</ele>
        <time>2017-08-29T10:07:12Z</time>
      </trkpt>
      <trkpt lat="45.92904" lon="6.50974">
        <ele>1837</ele>
        <time>2017-08-29T10:07:13Z</time>
      </trkpt>
      <trkpt lat="45.92904" lon="6.50974">
        <ele>1837</ele>
        <time>2017-08-29T10:07:14Z</time>
      </trkpt>
      <trkpt lat="45.92907" lon="6.50973">
        <ele>1837</ele>
        <time>2017-08-29T10:07:15Z</time>
      </trkpt>
      <trkpt lat="45.92907" lon="6.50973">
        <ele>1837</ele>
        <time>2017-08-29T10:07:16Z</time>
      </trkpt>
      <trkpt lat="45.92908" lon="6.50972">
        <ele>1837</ele>
        <time>2017-08-29T10:07:17Z</time>
      </trkpt>
      <trkpt lat="45.92908" lon="6.50972">
        <ele>1837</ele>
        <time>2017-08-29T10:07:18Z</time>
      </trkpt>
      <trkpt lat="45.92909" lon="6.50967">
        <ele>1836</ele>
        <time>2017-08-29T10:07:19Z</time>
      </trkpt>
      <trkpt lat="45.92909" lon="6.50967">
        <ele>1835</ele>
        <time>2017-08-29T10:07:20Z</time>
      </trkpt>
      <trkpt lat="45.92908" lon="6.50963">
        <ele>1835</ele>
        <time>2017-08-29T10:07:21Z</time>
      </trkpt>
      <trkpt lat="45.92908" lon="6.50963">
        <ele>1835</ele>
        <time>2017-08-29T10:07:22Z</time>
      </trkpt>
      <trkpt lat="45.92907" lon="6.50959">
        <ele>1835</ele>
        <time>2017-08-29T10:07:23Z</time>
      </trkpt>
      <trkpt lat="45.92907" lon="6.50959">
        <ele>1835</ele>
        <time>2017-08-29T10:07:24Z</time>
      </trkpt>
      <trkpt lat="45.92907" lon="6.50954">
        <ele>1834</ele>
        <time>2017-08-29T10:07:25Z</time>
      </trkpt>
      <trkpt lat="45.92907" lon="6.50954">
        <ele>1833</ele>
        <time>2017-08-29T10:07:26Z</time>
      </trkpt>
      <trkpt lat="45.92906" lon="6.5095">
        <ele>1833</ele>
        <time>2017-08-29T10:07:27Z</time>
      </trkpt>
      <trkpt lat="45.92906" lon="6.5095">
        <ele>1833</ele>
        <time>2017-08-29T10:07:28Z</time>
      </trkpt>
      <trkpt lat="45.92904" lon="6.50946">
        <ele>1831</ele>
        <time>2017-08-29T10:07:29Z</time>
      </trkpt>
      <trkpt lat="45.92904" lon="6.50946">
        <ele>1830</ele>
        <time>2017-08-29T10:07:30Z</time>
      </trkpt>
      <trkpt lat="45.92903" lon="6.50942">
        <ele>1830</ele>
        <time>2017-08-29T10:07:31Z</time>
      </trkpt>
      <trkpt lat="45.92903" lon="6.50942">
        <ele>1830</ele>
        <time>2017-08-29T10:07:32Z</time>
      </trkpt>
      <trkpt lat="45.92901" lon="6.50939">
        <ele>1830</ele>
        <time>2017-08-29T10:07:33Z</time>
      </trkpt>
      <trkpt lat="45.92901" lon="6.50939">
        <ele>1830</ele>
        <time>2017-08-29T10:07:34Z</time>
      </trkpt>
      <trkpt lat="45.92899" lon="6.50935">
        <ele>1830</ele>
        <time>2017-08-29T10:07:35Z</time>
      </trkpt>
      <trkpt lat="45.92899" lon="6.50935">
        <ele>1830</ele>
        <time>2017-08-29T10:07:36Z</time>
      </trkpt>
      <trkpt lat="45.92898" lon="6.50931">
        <ele>1829</ele>
        <time>2017-08-29T10:07:37Z</time>
      </trkpt>
      <trkpt lat="45.92898" lon="6.50928">
        <ele>1829</ele>
        <time>2017-08-29T10:07:38Z</time>
      </trkpt>
      <trkpt lat="45.92898" lon="6.50928">
        <ele>1829</ele>
        <time>2017-08-29T10:07:39Z</time>
      </trkpt>
      <trkpt lat="45.92898" lon="6.50923">
        <ele>1828</ele>
        <time>2017-08-29T10:07:40Z</time>
      </trkpt>
      <trkpt lat="45.92898" lon="6.50923">
        <ele>1828</ele>
        <time>2017-08-29T10:07:41Z</time>
      </trkpt>
      <trkpt lat="45.92897" lon="6.50918">
        <ele>1828</ele>
        <time>2017-08-29T10:07:42Z</time>
      </trkpt>
      <trkpt lat="45.92897" lon="6.50918">
        <ele>1828</ele>
        <time>2017-08-29T10:07:43Z</time>
      </trkpt>
      <trkpt lat="45.92896" lon="6.50915">
        <ele>1827</ele>
        <time>2017-08-29T10:07:44Z</time>
      </trkpt>
      <trkpt lat="45.92896" lon="6.50915">
        <ele>1826</ele>
        <time>2017-08-29T10:07:45Z</time>
      </trkpt>
      <trkpt lat="45.92894" lon="6.50911">
        <ele>1826</ele>
        <time>2017-08-29T10:07:46Z</time>
      </trkpt>
      <trkpt lat="45.92894" lon="6.50908">
        <ele>1826</ele>
        <time>2017-08-29T10:07:47Z</time>
      </trkpt>
      <trkpt lat="45.92893" lon="6.50905">
        <ele>1825</ele>
        <time>2017-08-29T10:07:48Z</time>
      </trkpt>
      <trkpt lat="45.92893" lon="6.50902">
        <ele>1824</ele>
        <time>2017-08-29T10:07:49Z</time>
      </trkpt>
      <trkpt lat="45.92894" lon="6.50899">
        <ele>1824</ele>
        <time>2017-08-29T10:07:50Z</time>
      </trkpt>
      <trkpt lat="45.92894" lon="6.50896">
        <ele>1824</ele>
        <time>2017-08-29T10:07:51Z</time>
      </trkpt>
      <trkpt lat="45.92894" lon="6.50896">
        <ele>1824</ele>
        <time>2017-08-29T10:07:52Z</time>
      </trkpt>
      <trkpt lat="45.92895" lon="6.50892">
        <ele>1824</ele>
        <time>2017-08-29T10:07:53Z</time>
      </trkpt>
      <trkpt lat="45.92895" lon="6.50892">
        <ele>1824</ele>
        <time>2017-08-29T10:07:54Z</time>
      </trkpt>
      <trkpt lat="45.92897" lon="6.5089">
        <ele>1824</ele>
        <time>2017-08-29T10:07:55Z</time>
      </trkpt>
      <trkpt lat="45.92897" lon="6.5089">
        <ele>1824</ele>
        <time>2017-08-29T10:07:56Z</time>
      </trkpt>
      <trkpt lat="45.92898" lon="6.50886">
        <ele>1824</ele>
        <time>2017-08-29T10:07:57Z</time>
      </trkpt>
      <trkpt lat="45.92898" lon="6.50886">
        <ele>1824</ele>
        <time>2017-08-29T10:07:58Z</time>
      </trkpt>
      <trkpt lat="45.929" lon="6.50883">
        <ele>1824</ele>
        <time>2017-08-29T10:07:59Z</time>
      </trkpt>
      <trkpt lat="45.929" lon="6.50883">
        <ele>1824</ele>
        <time>2017-08-29T10:08:00Z</time>
      </trkpt>
      <trkpt lat="45.92902" lon="6.5088">
        <ele>1824</ele>
        <time>2017-08-29T10:08:01Z</time>
      </trkpt>
      <trkpt lat="45.92902" lon="6.5088">
        <ele>1824</ele>
        <time>2017-08-29T10:08:02Z</time>
      </trkpt>
      <trkpt lat="45.92902" lon="6.50877">
        <ele>1824</ele>
        <time>2017-08-29T10:08:03Z</time>
      </trkpt>
      <trkpt lat="45.92902" lon="6.50877">
        <ele>1824</ele>
        <time>2017-08-29T10:08:04Z</time>
      </trkpt>
      <trkpt lat="45.92903" lon="6.50875">
        <ele>1824</ele>
        <time>2017-08-29T10:08:05Z</time>
      </trkpt>
      <trkpt lat="45.92903" lon="6.50875">
        <ele>1824</ele>
        <time>2017-08-29T10:08:06Z</time>
      </trkpt>
      <trkpt lat="45.92906" lon="6.50874">
        <ele>1824</ele>
        <time>2017-08-29T10:08:07Z</time>
      </trkpt>
      <trkpt lat="45.92906" lon="6.50874">
        <ele>1824</ele>
        <time>2017-08-29T10:08:08Z</time>
      </trkpt>
      <trkpt lat="45.92908" lon="6.50874">
        <ele>1824</ele>
        <time>2017-08-29T10:08:09Z</time>
      </trkpt>
      <trkpt lat="45.92908" lon="6.50874">
        <ele>1824</ele>
        <time>2017-08-29T10:08:10Z</time>
      </trkpt>
      <trkpt lat="45.92908" lon="6.50874">
        <ele>1825</ele>
        <time>2017-08-29T10:08:11Z</time>
      </trkpt>
      <trkpt lat="45.9291" lon="6.50873">
        <ele>1825</ele>
        <time>2017-08-29T10:08:12Z</time>
      </trkpt>
      <trkpt lat="45.9291" lon="6.50873">
        <ele>1825</ele>
        <time>2017-08-29T10:08:13Z</time>
      </trkpt>
      <trkpt lat="45.9291" lon="6.50873">
        <ele>1825</ele>
        <time>2017-08-29T10:08:14Z</time>
      </trkpt>
      <trkpt lat="45.9291" lon="6.50873">
        <ele>1825</ele>
        <time>2017-08-29T10:08:15Z</time>
      </trkpt>
      <trkpt lat="45.9291" lon="6.50873">
        <ele>1825</ele>
        <time>2017-08-29T10:08:16Z</time>
      </trkpt>
      <trkpt lat="45.9291" lon="6.50873">
        <ele>1826</ele>
        <time>2017-08-29T10:08:17Z</time>
      </trkpt>
      <trkpt lat="45.9291" lon="6.50873">
        <ele>1826</ele>
        <time>2017-08-29T10:08:18Z</time>
      </trkpt>
      <trkpt lat="45.9291" lon="6.50873">
        <ele>1826</ele>
        <time>2017-08-29T10:08:19Z</time>
      </trkpt>
      <trkpt lat="45.9291" lon="6.50873">
        <ele>1826</ele>
        <time>2017-08-29T10:08:20Z</time>
      </trkpt>
      <trkpt lat="45.9291" lon="6.50873">
        <ele>1826</ele>
        <time>2017-08-29T10:08:21Z</time>
      </trkpt>
      <trkpt lat="45.9291" lon="6.50873">
        <ele>1826</ele>
        <time>2017-08-29T10:08:22Z</time>
      </trkpt>
      <trkpt lat="45.9291" lon="6.50873">
        <ele>1826</ele>
        <time>2017-08-29T10:08:23Z</time>
      </trkpt>
      <trkpt lat="45.9291" lon="6.50873">
        <ele>1826</ele>
        <time>2017-08-29T10:08:24Z</time>
      </trkpt>
      <trkpt lat="45.9291" lon="6.50873">
        <ele>1826</ele>
        <time>2017-08-29T10:08:25Z</time>
      </trkpt>
      <trkpt lat="45.9291" lon="6.50873">
        <ele>1826</ele>
        <time>2017-08-29T10:08:26Z</time>
      </trkpt>
      <trkpt lat="45.9291" lon="6.50873">
        <ele>1826</ele>
        <time>2017-08-29T10:08:27Z</time>
      </trkpt>
      <trkpt lat="45.9291" lon="6.50873">
        <ele>1826</ele>
        <time>2017-08-29T10:08:28Z</time>
      </trkpt>
      <trkpt lat="45.9291" lon="6.50873">
        <ele>1826</ele>
        <time>2017-08-29T10:08:29Z</time>
      </trkpt>
      <trkpt lat="45.92912" lon="6.50873">
        <ele>1825</ele>
        <time>2017-08-29T10:08:30Z</time>
      </trkpt>
      <trkpt lat="45.92912" lon="6.50873">
        <ele>1825</ele>
        <time>2017-08-29T10:08:31Z</time>
      </trkpt>
      <trkpt lat="45.92912" lon="6.50873">
        <ele>1825</ele>
        <time>2017-08-29T10:08:32Z</time>
      </trkpt>
      <trkpt lat="45.92912" lon="6.50873">
        <ele>1826</ele>
        <time>2017-08-29T10:08:33Z</time>
      </trkpt>
      <trkpt lat="45.92912" lon="6.50873">
        <ele>1826</ele>
        <time>2017-08-29T10:08:34Z</time>
      </trkpt>
      <trkpt lat="45.92912" lon="6.50873">
        <ele>1826</ele>
        <time>2017-08-29T10:08:35Z</time>
      </trkpt>
      <trkpt lat="45.92912" lon="6.50873">
        <ele>1826</ele>
        <time>2017-08-29T10:08:36Z</time>
      </trkpt>
      <trkpt lat="45.92912" lon="6.50873">
        <ele>1826</ele>
        <time>2017-08-29T10:08:37Z</time>
      </trkpt>
      <trkpt lat="45.92912" lon="6.50873">
        <ele>1826</ele>
        <time>2017-08-29T10:08:38Z</time>
      </trkpt>
      <trkpt lat="45.92912" lon="6.50873">
        <ele>1826</ele>
        <time>2017-08-29T10:08:39Z</time>
      </trkpt>
      <trkpt lat="45.92912" lon="6.50873">
        <ele>1826</ele>
        <time>2017-08-29T10:08:40Z</time>
      </trkpt>
      <trkpt lat="45.92912" lon="6.50873">
        <ele>1826</ele>
        <time>2017-08-29T10:08:41Z</time>
      </trkpt>
      <trkpt lat="45.92912" lon="6.50873">
        <ele>1826</ele>
        <time>2017-08-29T10:08:42Z</time>
      </trkpt>
      <trkpt lat="45.92912" lon="6.50873">
        <ele>1826</ele>
        <time>2017-08-29T10:08:43Z</time>
      </trkpt>
      <trkpt lat="45.92912" lon="6.50873">
        <ele>1826</ele>
        <time>2017-08-29T10:08:44Z</time>
      </trkpt>
      <trkpt lat="45.92912" lon="6.50873">
        <ele>1826</ele>
        <time>2017-08-29T10:08:45Z</time>
      </trkpt>
      <trkpt lat="45.92912" lon="6.50873">
        <ele>1826</ele>
        <time>2017-08-29T10:08:46Z</time>
      </trkpt>
      <trkpt lat="45.92912" lon="6.50873">
        <ele>1825</ele>
        <time>2017-08-29T10:08:47Z</time>
      </trkpt>
      <trkpt lat="45.92912" lon="6.50873">
        <ele>1825</ele>
        <time>2017-08-29T10:08:48Z</time>
      </trkpt>
      <trkpt lat="45.92912" lon="6.50873">
        <ele>1825</ele>
        <time>2017-08-29T10:08:49Z</time>
      </trkpt>
      <trkpt lat="45.92912" lon="6.50873">
        <ele>1825</ele>
        <time>2017-08-29T10:08:50Z</time>
      </trkpt>
      <trkpt lat="45.92912" lon="6.50873">
        <ele>1825</ele>
        <time>2017-08-29T10:08:51Z</time>
      </trkpt>
      <trkpt lat="45.92912" lon="6.50873">
        <ele>1825</ele>
        <time>2017-08-29T10:08:52Z</time>
      </trkpt>
      <trkpt lat="45.92912" lon="6.50873">
        <ele>1825</ele>
        <time>2017-08-29T10:08:53Z</time>
      </trkpt>
      <trkpt lat="45.92912" lon="6.50873">
        <ele>1826</ele>
        <time>2017-08-29T10:08:54Z</time>
      </trkpt>
      <trkpt lat="45.92912" lon="6.50873">
        <ele>1826</ele>
        <time>2017-08-29T10:08:55Z</time>
      </trkpt>
      <trkpt lat="45.92912" lon="6.50873">
        <ele>1826</ele>
        <time>2017-08-29T10:08:56Z</time>
      </trkpt>
      <trkpt lat="45.92912" lon="6.50873">
        <ele>1826</ele>
        <time>2017-08-29T10:08:57Z</time>
      </trkpt>
      <trkpt lat="45.92912" lon="6.50873">
        <ele>1826</ele>
        <time>2017-08-29T10:08:58Z</time>
      </trkpt>
      <trkpt lat="45.92912" lon="6.50873">
        <ele>1826</ele>
        <time>2017-08-29T10:08:59Z</time>
      </trkpt>
      <trkpt lat="45.92912" lon="6.50873">
        <ele>1826</ele>
        <time>2017-08-29T10:09:00Z</time>
      </trkpt>
      <trkpt lat="45.92912" lon="6.50873">
        <ele>1826</ele>
        <time>2017-08-29T10:09:01Z</time>
      </trkpt>
      <trkpt lat="45.92912" lon="6.50873">
        <ele>1826</ele>
        <time>2017-08-29T10:09:02Z</time>
      </trkpt>
      <trkpt lat="45.92912" lon="6.50873">
        <ele>1826</ele>
        <time>2017-08-29T10:09:03Z</time>
      </trkpt>
      <trkpt lat="45.92913" lon="6.50875">
        <ele>1825</ele>
        <time>2017-08-29T10:09:04Z</time>
      </trkpt>
      <trkpt lat="45.92913" lon="6.50875">
        <ele>1825</ele>
        <time>2017-08-29T10:09:05Z</time>
      </trkpt>
      <trkpt lat="45.92913" lon="6.50875">
        <ele>1825</ele>
        <time>2017-08-29T10:09:06Z</time>
      </trkpt>
      <trkpt lat="45.92913" lon="6.50875">
        <ele>1826</ele>
        <time>2017-08-29T10:09:07Z</time>
      </trkpt>
      <trkpt lat="45.92913" lon="6.50875">
        <ele>1826</ele>
        <time>2017-08-29T10:09:08Z</time>
      </trkpt>
      <trkpt lat="45.92913" lon="6.50875">
        <ele>1826</ele>
        <time>2017-08-29T10:09:09Z</time>
      </trkpt>
      <trkpt lat="45.92913" lon="6.50875">
        <ele>1826</ele>
        <time>2017-08-29T10:09:10Z</time>
      </trkpt>
      <trkpt lat="45.92913" lon="6.50875">
        <ele>1826</ele>
        <time>2017-08-29T10:09:11Z</time>
      </trkpt>
      <trkpt lat="45.92913" lon="6.50875">
        <ele>1826</ele>
        <time>2017-08-29T10:09:12Z</time>
      </trkpt>
      <trkpt lat="45.92913" lon="6.50875">
        <ele>1826</ele>
        <time>2017-08-29T10:09:13Z</time>
      </trkpt>
      <trkpt lat="45.92913" lon="6.50875">
        <ele>1826</ele>
        <time>2017-08-29T10:09:14Z</time>
      </trkpt>
      <trkpt lat="45.92913" lon="6.50875">
        <ele>1826</ele>
        <time>2017-08-29T10:09:15Z</time>
      </trkpt>
      <trkpt lat="45.92913" lon="6.50875">
        <ele>1826</ele>
        <time>2017-08-29T10:09:16Z</time>
      </trkpt>
      <trkpt lat="45.92913" lon="6.50875">
        <ele>1826</ele>
        <time>2017-08-29T10:09:17Z</time>
      </trkpt>
      <trkpt lat="45.92913" lon="6.50875">
        <ele>1826</ele>
        <time>2017-08-29T10:09:18Z</time>
      </trkpt>
      <trkpt lat="45.92912" lon="6.50872">
        <ele>1826</ele>
        <time>2017-08-29T10:09:19Z</time>
      </trkpt>
      <trkpt lat="45.92912" lon="6.50872">
        <ele>1826</ele>
        <time>2017-08-29T10:09:20Z</time>
      </trkpt>
      <trkpt lat="45.92912" lon="6.50872">
        <ele>1826</ele>
        <time>2017-08-29T10:09:21Z</time>
      </trkpt>
      <trkpt lat="45.92912" lon="6.50872">
        <ele>1826</ele>
        <time>2017-08-29T10:09:22Z</time>
      </trkpt>
      <trkpt lat="45.92912" lon="6.50872">
        <ele>1826</ele>
        <time>2017-08-29T10:09:23Z</time>
      </trkpt>
      <trkpt lat="45.92912" lon="6.50872">
        <ele>1826</ele>
        <time>2017-08-29T10:09:24Z</time>
      </trkpt>
      <trkpt lat="45.92912" lon="6.50872">
        <ele>1826</ele>
        <time>2017-08-29T10:09:25Z</time>
      </trkpt>
      <trkpt lat="45.92912" lon="6.50872">
        <ele>1826</ele>
        <time>2017-08-29T10:09:26Z</time>
      </trkpt>
      <trkpt lat="45.92911" lon="6.5087">
        <ele>1826</ele>
        <time>2017-08-29T10:09:27Z</time>
      </trkpt>
      <trkpt lat="45.92911" lon="6.5087">
        <ele>1826</ele>
        <time>2017-08-29T10:09:28Z</time>
      </trkpt>
      <trkpt lat="45.92913" lon="6.50866">
        <ele>1825</ele>
        <time>2017-08-29T10:09:29Z</time>
      </trkpt>
      <trkpt lat="45.92913" lon="6.50866">
        <ele>1824</ele>
        <time>2017-08-29T10:09:30Z</time>
      </trkpt>
      <trkpt lat="45.92915" lon="6.50864">
        <ele>1824</ele>
        <time>2017-08-29T10:09:31Z</time>
      </trkpt>
      <trkpt lat="45.92915" lon="6.50864">
        <ele>1823</ele>
        <time>2017-08-29T10:09:32Z</time>
      </trkpt>
      <trkpt lat="45.92916" lon="6.50862">
        <ele>1823</ele>
        <time>2017-08-29T10:09:33Z</time>
      </trkpt>
      <trkpt lat="45.92916" lon="6.50862">
        <ele>1823</ele>
        <time>2017-08-29T10:09:34Z</time>
      </trkpt>
      <trkpt lat="45.92918" lon="6.5086">
        <ele>1823</ele>
        <time>2017-08-29T10:09:35Z</time>
      </trkpt>
      <trkpt lat="45.92918" lon="6.5086">
        <ele>1822</ele>
        <time>2017-08-29T10:09:36Z</time>
      </trkpt>
      <trkpt lat="45.92919" lon="6.50859">
        <ele>1821</ele>
        <time>2017-08-29T10:09:37Z</time>
      </trkpt>
      <trkpt lat="45.92919" lon="6.50859">
        <ele>1820</ele>
        <time>2017-08-29T10:09:38Z</time>
      </trkpt>
      <trkpt lat="45.92921" lon="6.50858">
        <ele>1820</ele>
        <time>2017-08-29T10:09:39Z</time>
      </trkpt>
      <trkpt lat="45.92921" lon="6.50858">
        <ele>1819</ele>
        <time>2017-08-29T10:09:40Z</time>
      </trkpt>
      <trkpt lat="45.92923" lon="6.50856">
        <ele>1819</ele>
        <time>2017-08-29T10:09:41Z</time>
      </trkpt>
      <trkpt lat="45.92923" lon="6.50856">
        <ele>1818</ele>
        <time>2017-08-29T10:09:42Z</time>
      </trkpt>
      <trkpt lat="45.92923" lon="6.50856">
        <ele>1818</ele>
        <time>2017-08-29T10:09:43Z</time>
      </trkpt>
      <trkpt lat="45.92923" lon="6.50856">
        <ele>1817</ele>
        <time>2017-08-29T10:09:44Z</time>
      </trkpt>
      <trkpt lat="45.92923" lon="6.50856">
        <ele>1817</ele>
        <time>2017-08-29T10:09:45Z</time>
      </trkpt>
      <trkpt lat="45.92923" lon="6.50856">
        <ele>1817</ele>
        <time>2017-08-29T10:09:46Z</time>
      </trkpt>
      <trkpt lat="45.92923" lon="6.50856">
        <ele>1816</ele>
        <time>2017-08-29T10:09:47Z</time>
      </trkpt>
      <trkpt lat="45.92923" lon="6.50853">
        <ele>1815</ele>
        <time>2017-08-29T10:09:48Z</time>
      </trkpt>
      <trkpt lat="45.92923" lon="6.50853">
        <ele>1815</ele>
        <time>2017-08-29T10:09:49Z</time>
      </trkpt>
      <trkpt lat="45.92923" lon="6.50853">
        <ele>1815</ele>
        <time>2017-08-29T10:09:50Z</time>
      </trkpt>
      <trkpt lat="45.92923" lon="6.50853">
        <ele>1815</ele>
        <time>2017-08-29T10:09:51Z</time>
      </trkpt>
      <trkpt lat="45.92921" lon="6.50851">
        <ele>1815</ele>
        <time>2017-08-29T10:09:52Z</time>
      </trkpt>
      <trkpt lat="45.92921" lon="6.50851">
        <ele>1814</ele>
        <time>2017-08-29T10:09:53Z</time>
      </trkpt>
      <trkpt lat="45.92921" lon="6.50851">
        <ele>1813</ele>
        <time>2017-08-29T10:09:54Z</time>
      </trkpt>
      <trkpt lat="45.92922" lon="6.50848">
        <ele>1812</ele>
        <time>2017-08-29T10:09:55Z</time>
      </trkpt>
      <trkpt lat="45.92922" lon="6.50848">
        <ele>1812</ele>
        <time>2017-08-29T10:09:56Z</time>
      </trkpt>
      <trkpt lat="45.92922" lon="6.50848">
        <ele>1812</ele>
        <time>2017-08-29T10:09:57Z</time>
      </trkpt>
      <trkpt lat="45.92925" lon="6.50849">
        <ele>1812</ele>
        <time>2017-08-29T10:09:58Z</time>
      </trkpt>
      <trkpt lat="45.92925" lon="6.50849">
        <ele>1812</ele>
        <time>2017-08-29T10:09:59Z</time>
      </trkpt>
      <trkpt lat="45.92925" lon="6.50849">
        <ele>1812</ele>
        <time>2017-08-29T10:10:00Z</time>
      </trkpt>
      <trkpt lat="45.92927" lon="6.50849">
        <ele>1810</ele>
        <time>2017-08-29T10:10:01Z</time>
      </trkpt>
      <trkpt lat="45.92927" lon="6.50849">
        <ele>1810</ele>
        <time>2017-08-29T10:10:02Z</time>
      </trkpt>
      <trkpt lat="45.92927" lon="6.50849">
        <ele>1810</ele>
        <time>2017-08-29T10:10:03Z</time>
      </trkpt>
      <trkpt lat="45.92929" lon="6.50849">
        <ele>1810</ele>
        <time>2017-08-29T10:10:04Z</time>
      </trkpt>
      <trkpt lat="45.92929" lon="6.50849">
        <ele>1810</ele>
        <time>2017-08-29T10:10:05Z</time>
      </trkpt>
      <trkpt lat="45.92929" lon="6.50849">
        <ele>1810</ele>
        <time>2017-08-29T10:10:06Z</time>
      </trkpt>
      <trkpt lat="45.92931" lon="6.50849">
        <ele>1810</ele>
        <time>2017-08-29T10:10:07Z</time>
      </trkpt>
      <trkpt lat="45.92931" lon="6.50849">
        <ele>1810</ele>
        <time>2017-08-29T10:10:08Z</time>
      </trkpt>
      <trkpt lat="45.92931" lon="6.50849">
        <ele>1810</ele>
        <time>2017-08-29T10:10:09Z</time>
      </trkpt>
      <trkpt lat="45.92932" lon="6.50847">
        <ele>1810</ele>
        <time>2017-08-29T10:10:10Z</time>
      </trkpt>
      <trkpt lat="45.92932" lon="6.50847">
        <ele>1809</ele>
        <time>2017-08-29T10:10:11Z</time>
      </trkpt>
      <trkpt lat="45.92934" lon="6.50846">
        <ele>1809</ele>
        <time>2017-08-29T10:10:12Z</time>
      </trkpt>
      <trkpt lat="45.92934" lon="6.50846">
        <ele>1809</ele>
        <time>2017-08-29T10:10:13Z</time>
      </trkpt>
      <trkpt lat="45.92936" lon="6.50847">
        <ele>1808</ele>
        <time>2017-08-29T10:10:14Z</time>
      </trkpt>
      <trkpt lat="45.92936" lon="6.50847">
        <ele>1808</ele>
        <time>2017-08-29T10:10:15Z</time>
      </trkpt>
      <trkpt lat="45.92938" lon="6.50847">
        <ele>1807</ele>
        <time>2017-08-29T10:10:16Z</time>
      </trkpt>
      <trkpt lat="45.92938" lon="6.50847">
        <ele>1807</ele>
        <time>2017-08-29T10:10:17Z</time>
      </trkpt>
      <trkpt lat="45.92938" lon="6.50847">
        <ele>1807</ele>
        <time>2017-08-29T10:10:18Z</time>
      </trkpt>
      <trkpt lat="45.92941" lon="6.50846">
        <ele>1807</ele>
        <time>2017-08-29T10:10:19Z</time>
      </trkpt>
      <trkpt lat="45.92941" lon="6.50846">
        <ele>1806</ele>
        <time>2017-08-29T10:10:20Z</time>
      </trkpt>
      <trkpt lat="45.92941" lon="6.50846">
        <ele>1805</ele>
        <time>2017-08-29T10:10:21Z</time>
      </trkpt>
      <trkpt lat="45.92941" lon="6.50846">
        <ele>1805</ele>
        <time>2017-08-29T10:10:22Z</time>
      </trkpt>
      <trkpt lat="45.92941" lon="6.50846">
        <ele>1805</ele>
        <time>2017-08-29T10:10:23Z</time>
      </trkpt>
      <trkpt lat="45.92941" lon="6.50846">
        <ele>1805</ele>
        <time>2017-08-29T10:10:24Z</time>
      </trkpt>
      <trkpt lat="45.92941" lon="6.50846">
        <ele>1805</ele>
        <time>2017-08-29T10:10:25Z</time>
      </trkpt>
      <trkpt lat="45.92941" lon="6.50846">
        <ele>1805</ele>
        <time>2017-08-29T10:10:26Z</time>
      </trkpt>
      <trkpt lat="45.92941" lon="6.50846">
        <ele>1805</ele>
        <time>2017-08-29T10:10:27Z</time>
      </trkpt>
      <trkpt lat="45.92943" lon="6.50846">
        <ele>1805</ele>
        <time>2017-08-29T10:10:28Z</time>
      </trkpt>
      <trkpt lat="45.92943" lon="6.50846">
        <ele>1805</ele>
        <time>2017-08-29T10:10:29Z</time>
      </trkpt>
      <trkpt lat="45.92945" lon="6.50846">
        <ele>1805</ele>
        <time>2017-08-29T10:10:30Z</time>
      </trkpt>
      <trkpt lat="45.92945" lon="6.50846">
        <ele>1805</ele>
        <time>2017-08-29T10:10:31Z</time>
      </trkpt>
      <trkpt lat="45.92945" lon="6.50846">
        <ele>1804</ele>
        <time>2017-08-29T10:10:32Z</time>
      </trkpt>
      <trkpt lat="45.92947" lon="6.50845">
        <ele>1804</ele>
        <time>2017-08-29T10:10:33Z</time>
      </trkpt>
      <trkpt lat="45.92947" lon="6.50845">
        <ele>1804</ele>
        <time>2017-08-29T10:10:34Z</time>
      </trkpt>
      <trkpt lat="45.92947" lon="6.50845">
        <ele>1803</ele>
        <time>2017-08-29T10:10:35Z</time>
      </trkpt>
      <trkpt lat="45.92947" lon="6.50845">
        <ele>1803</ele>
        <time>2017-08-29T10:10:36Z</time>
      </trkpt>
      <trkpt lat="45.9295" lon="6.50845">
        <ele>1802</ele>
        <time>2017-08-29T10:10:37Z</time>
      </trkpt>
      <trkpt lat="45.9295" lon="6.50845">
        <ele>1802</ele>
        <time>2017-08-29T10:10:38Z</time>
      </trkpt>
      <trkpt lat="45.92952" lon="6.50846">
        <ele>1802</ele>
        <time>2017-08-29T10:10:39Z</time>
      </trkpt>
      <trkpt lat="45.92952" lon="6.50846">
        <ele>1801</ele>
        <time>2017-08-29T10:10:40Z</time>
      </trkpt>
      <trkpt lat="45.92954" lon="6.50847">
        <ele>1801</ele>
        <time>2017-08-29T10:10:41Z</time>
      </trkpt>
      <trkpt lat="45.92954" lon="6.50847">
        <ele>1801</ele>
        <time>2017-08-29T10:10:42Z</time>
      </trkpt>
      <trkpt lat="45.92954" lon="6.50847">
        <ele>1800</ele>
        <time>2017-08-29T10:10:43Z</time>
      </trkpt>
      <trkpt lat="45.92956" lon="6.50847">
        <ele>1800</ele>
        <time>2017-08-29T10:10:44Z</time>
      </trkpt>
      <trkpt lat="45.92956" lon="6.50847">
        <ele>1800</ele>
        <time>2017-08-29T10:10:45Z</time>
      </trkpt>
      <trkpt lat="45.92956" lon="6.50847">
        <ele>1799</ele>
        <time>2017-08-29T10:10:46Z</time>
      </trkpt>
      <trkpt lat="45.92959" lon="6.50847">
        <ele>1799</ele>
        <time>2017-08-29T10:10:47Z</time>
      </trkpt>
      <trkpt lat="45.92959" lon="6.50847">
        <ele>1798</ele>
        <time>2017-08-29T10:10:48Z</time>
      </trkpt>
      <trkpt lat="45.92961" lon="6.50846">
        <ele>1798</ele>
        <time>2017-08-29T10:10:49Z</time>
      </trkpt>
      <trkpt lat="45.92961" lon="6.50846">
        <ele>1798</ele>
        <time>2017-08-29T10:10:50Z</time>
      </trkpt>
      <trkpt lat="45.92963" lon="6.50844">
        <ele>1798</ele>
        <time>2017-08-29T10:10:51Z</time>
      </trkpt>
      <trkpt lat="45.92963" lon="6.50844">
        <ele>1797</ele>
        <time>2017-08-29T10:10:52Z</time>
      </trkpt>
      <trkpt lat="45.92963" lon="6.50844">
        <ele>1796</ele>
        <time>2017-08-29T10:10:53Z</time>
      </trkpt>
      <trkpt lat="45.92965" lon="6.50842">
        <ele>1795</ele>
        <time>2017-08-29T10:10:54Z</time>
      </trkpt>
      <trkpt lat="45.92965" lon="6.50842">
        <ele>1794</ele>
        <time>2017-08-29T10:10:55Z</time>
      </trkpt>
      <trkpt lat="45.92965" lon="6.50842">
        <ele>1794</ele>
        <time>2017-08-29T10:10:56Z</time>
      </trkpt>
      <trkpt lat="45.92965" lon="6.50842">
        <ele>1794</ele>
        <time>2017-08-29T10:10:57Z</time>
      </trkpt>
      <trkpt lat="45.92965" lon="6.50838">
        <ele>1794</ele>
        <time>2017-08-29T10:10:58Z</time>
      </trkpt>
      <trkpt lat="45.92965" lon="6.50838">
        <ele>1793</ele>
        <time>2017-08-29T10:10:59Z</time>
      </trkpt>
      <trkpt lat="45.92965" lon="6.50838">
        <ele>1792</ele>
        <time>2017-08-29T10:11:00Z</time>
      </trkpt>
      <trkpt lat="45.92966" lon="6.50835">
        <ele>1792</ele>
        <time>2017-08-29T10:11:01Z</time>
      </trkpt>
      <trkpt lat="45.92966" lon="6.50835">
        <ele>1792</ele>
        <time>2017-08-29T10:11:02Z</time>
      </trkpt>
      <trkpt lat="45.92966" lon="6.50835">
        <ele>1792</ele>
        <time>2017-08-29T10:11:03Z</time>
      </trkpt>
      <trkpt lat="45.92966" lon="6.50835">
        <ele>1792</ele>
        <time>2017-08-29T10:11:04Z</time>
      </trkpt>
      <trkpt lat="45.92965" lon="6.50833">
        <ele>1792</ele>
        <time>2017-08-29T10:11:05Z</time>
      </trkpt>
      <trkpt lat="45.92965" lon="6.50833">
        <ele>1792</ele>
        <time>2017-08-29T10:11:06Z</time>
      </trkpt>
      <trkpt lat="45.92964" lon="6.50831">
        <ele>1791</ele>
        <time>2017-08-29T10:11:07Z</time>
      </trkpt>
      <trkpt lat="45.92964" lon="6.50831">
        <ele>1790</ele>
        <time>2017-08-29T10:11:08Z</time>
      </trkpt>
      <trkpt lat="45.92963" lon="6.50829">
        <ele>1790</ele>
        <time>2017-08-29T10:11:09Z</time>
      </trkpt>
      <trkpt lat="45.92963" lon="6.50829">
        <ele>1789</ele>
        <time>2017-08-29T10:11:10Z</time>
      </trkpt>
      <trkpt lat="45.92963" lon="6.50829">
        <ele>1789</ele>
        <time>2017-08-29T10:11:11Z</time>
      </trkpt>
      <trkpt lat="45.92963" lon="6.50825">
        <ele>1789</ele>
        <time>2017-08-29T10:11:12Z</time>
      </trkpt>
      <trkpt lat="45.92963" lon="6.50825">
        <ele>1788</ele>
        <time>2017-08-29T10:11:13Z</time>
      </trkpt>
      <trkpt lat="45.92965" lon="6.50823">
        <ele>1788</ele>
        <time>2017-08-29T10:11:14Z</time>
      </trkpt>
      <trkpt lat="45.92965" lon="6.50823">
        <ele>1787</ele>
        <time>2017-08-29T10:11:15Z</time>
      </trkpt>
      <trkpt lat="45.92967" lon="6.50821">
        <ele>1787</ele>
        <time>2017-08-29T10:11:16Z</time>
      </trkpt>
      <trkpt lat="45.92967" lon="6.50821">
        <ele>1785</ele>
        <time>2017-08-29T10:11:17Z</time>
      </trkpt>
      <trkpt lat="45.92967" lon="6.50821">
        <ele>1784</ele>
        <time>2017-08-29T10:11:18Z</time>
      </trkpt>
      <trkpt lat="45.92967" lon="6.50821">
        <ele>1784</ele>
        <time>2017-08-29T10:11:19Z</time>
      </trkpt>
      <trkpt lat="45.92967" lon="6.50821">
        <ele>1784</ele>
        <time>2017-08-29T10:11:20Z</time>
      </trkpt>
      <trkpt lat="45.92968" lon="6.50819">
        <ele>1784</ele>
        <time>2017-08-29T10:11:21Z</time>
      </trkpt>
      <trkpt lat="45.92968" lon="6.50819">
        <ele>1784</ele>
        <time>2017-08-29T10:11:22Z</time>
      </trkpt>
      <trkpt lat="45.92968" lon="6.50819">
        <ele>1784</ele>
        <time>2017-08-29T10:11:23Z</time>
      </trkpt>
      <trkpt lat="45.92969" lon="6.50816">
        <ele>1783</ele>
        <time>2017-08-29T10:11:24Z</time>
      </trkpt>
      <trkpt lat="45.92969" lon="6.50816">
        <ele>1783</ele>
        <time>2017-08-29T10:11:25Z</time>
      </trkpt>
      <trkpt lat="45.92969" lon="6.50816">
        <ele>1782</ele>
        <time>2017-08-29T10:11:26Z</time>
      </trkpt>
      <trkpt lat="45.9297" lon="6.50814">
        <ele>1781</ele>
        <time>2017-08-29T10:11:27Z</time>
      </trkpt>
      <trkpt lat="45.9297" lon="6.50814">
        <ele>1781</ele>
        <time>2017-08-29T10:11:28Z</time>
      </trkpt>
      <trkpt lat="45.9297" lon="6.50814">
        <ele>1781</ele>
        <time>2017-08-29T10:11:29Z</time>
      </trkpt>
      <trkpt lat="45.9297" lon="6.50814">
        <ele>1780</ele>
        <time>2017-08-29T10:11:30Z</time>
      </trkpt>
      <trkpt lat="45.92972" lon="6.50812">
        <ele>1779</ele>
        <time>2017-08-29T10:11:31Z</time>
      </trkpt>
      <trkpt lat="45.92972" lon="6.50812">
        <ele>1779</ele>
        <time>2017-08-29T10:11:32Z</time>
      </trkpt>
      <trkpt lat="45.92972" lon="6.50812">
        <ele>1778</ele>
        <time>2017-08-29T10:11:33Z</time>
      </trkpt>
      <trkpt lat="45.92972" lon="6.50812">
        <ele>1778</ele>
        <time>2017-08-29T10:11:34Z</time>
      </trkpt>
      <trkpt lat="45.92973" lon="6.50809">
        <ele>1778</ele>
        <time>2017-08-29T10:11:35Z</time>
      </trkpt>
      <trkpt lat="45.92973" lon="6.50809">
        <ele>1778</ele>
        <time>2017-08-29T10:11:36Z</time>
      </trkpt>
      <trkpt lat="45.92973" lon="6.50809">
        <ele>1777</ele>
        <time>2017-08-29T10:11:37Z</time>
      </trkpt>
      <trkpt lat="45.92975" lon="6.50807">
        <ele>1777</ele>
        <time>2017-08-29T10:11:38Z</time>
      </trkpt>
      <trkpt lat="45.92975" lon="6.50807">
        <ele>1776</ele>
        <time>2017-08-29T10:11:39Z</time>
      </trkpt>
      <trkpt lat="45.92975" lon="6.50807">
        <ele>1776</ele>
        <time>2017-08-29T10:11:40Z</time>
      </trkpt>
      <trkpt lat="45.92975" lon="6.50807">
        <ele>1775</ele>
        <time>2017-08-29T10:11:41Z</time>
      </trkpt>
      <trkpt lat="45.92975" lon="6.50807">
        <ele>1775</ele>
        <time>2017-08-29T10:11:42Z</time>
      </trkpt>
      <trkpt lat="45.92976" lon="6.50804">
        <ele>1775</ele>
        <time>2017-08-29T10:11:43Z</time>
      </trkpt>
      <trkpt lat="45.92976" lon="6.50804">
        <ele>1774</ele>
        <time>2017-08-29T10:11:44Z</time>
      </trkpt>
      <trkpt lat="45.92978" lon="6.50803">
        <ele>1774</ele>
        <time>2017-08-29T10:11:45Z</time>
      </trkpt>
      <trkpt lat="45.92978" lon="6.50803">
        <ele>1774</ele>
        <time>2017-08-29T10:11:46Z</time>
      </trkpt>
      <trkpt lat="45.92978" lon="6.50803">
        <ele>1773</ele>
        <time>2017-08-29T10:11:47Z</time>
      </trkpt>
      <trkpt lat="45.92979" lon="6.50802">
        <ele>1773</ele>
        <time>2017-08-29T10:11:48Z</time>
      </trkpt>
      <trkpt lat="45.92979" lon="6.50802">
        <ele>1772</ele>
        <time>2017-08-29T10:11:49Z</time>
      </trkpt>
      <trkpt lat="45.92979" lon="6.50802">
        <ele>1771</ele>
        <time>2017-08-29T10:11:50Z</time>
      </trkpt>
      <trkpt lat="45.92981" lon="6.508">
        <ele>1771</ele>
        <time>2017-08-29T10:11:51Z</time>
      </trkpt>
      <trkpt lat="45.92981" lon="6.508">
        <ele>1770</ele>
        <time>2017-08-29T10:11:52Z</time>
      </trkpt>
      <trkpt lat="45.92983" lon="6.50798">
        <ele>1769</ele>
        <time>2017-08-29T10:11:53Z</time>
      </trkpt>
      <trkpt lat="45.92983" lon="6.50798">
        <ele>1769</ele>
        <time>2017-08-29T10:11:54Z</time>
      </trkpt>
      <trkpt lat="45.92983" lon="6.50798">
        <ele>1769</ele>
        <time>2017-08-29T10:11:55Z</time>
      </trkpt>
      <trkpt lat="45.92983" lon="6.50798">
        <ele>1769</ele>
        <time>2017-08-29T10:11:56Z</time>
      </trkpt>
      <trkpt lat="45.92983" lon="6.50798">
        <ele>1769</ele>
        <time>2017-08-29T10:11:57Z</time>
      </trkpt>
      <trkpt lat="45.92985" lon="6.50797">
        <ele>1769</ele>
        <time>2017-08-29T10:11:58Z</time>
      </trkpt>
      <trkpt lat="45.92985" lon="6.50797">
        <ele>1768</ele>
        <time>2017-08-29T10:11:59Z</time>
      </trkpt>
      <trkpt lat="45.92985" lon="6.50797">
        <ele>1768</ele>
        <time>2017-08-29T10:12:00Z</time>
      </trkpt>
      <trkpt lat="45.92985" lon="6.50797">
        <ele>1766</ele>
        <time>2017-08-29T10:12:01Z</time>
      </trkpt>
      <trkpt lat="45.92986" lon="6.50795">
        <ele>1766</ele>
        <time>2017-08-29T10:12:02Z</time>
      </trkpt>
      <trkpt lat="45.92986" lon="6.50795">
        <ele>1766</ele>
        <time>2017-08-29T10:12:03Z</time>
      </trkpt>
      <trkpt lat="45.92988" lon="6.50794">
        <ele>1765</ele>
        <time>2017-08-29T10:12:04Z</time>
      </trkpt>
      <trkpt lat="45.92988" lon="6.50794">
        <ele>1765</ele>
        <time>2017-08-29T10:12:05Z</time>
      </trkpt>
      <trkpt lat="45.92988" lon="6.50794">
        <ele>1764</ele>
        <time>2017-08-29T10:12:06Z</time>
      </trkpt>
      <trkpt lat="45.9299" lon="6.50793">
        <ele>1764</ele>
        <time>2017-08-29T10:12:07Z</time>
      </trkpt>
      <trkpt lat="45.9299" lon="6.50793">
        <ele>1764</ele>
        <time>2017-08-29T10:12:08Z</time>
      </trkpt>
      <trkpt lat="45.9299" lon="6.50793">
        <ele>1763</ele>
        <time>2017-08-29T10:12:09Z</time>
      </trkpt>
      <trkpt lat="45.92992" lon="6.50792">
        <ele>1763</ele>
        <time>2017-08-29T10:12:10Z</time>
      </trkpt>
      <trkpt lat="45.92992" lon="6.50792">
        <ele>1762</ele>
        <time>2017-08-29T10:12:11Z</time>
      </trkpt>
      <trkpt lat="45.92992" lon="6.50792">
        <ele>1762</ele>
        <time>2017-08-29T10:12:12Z</time>
      </trkpt>
      <trkpt lat="45.92992" lon="6.50789">
        <ele>1762</ele>
        <time>2017-08-29T10:12:13Z</time>
      </trkpt>
      <trkpt lat="45.92992" lon="6.50789">
        <ele>1762</ele>
        <time>2017-08-29T10:12:14Z</time>
      </trkpt>
      <trkpt lat="45.92994" lon="6.50788">
        <ele>1761</ele>
        <time>2017-08-29T10:12:15Z</time>
      </trkpt>
      <trkpt lat="45.92994" lon="6.50788">
        <ele>1761</ele>
        <time>2017-08-29T10:12:16Z</time>
      </trkpt>
      <trkpt lat="45.92996" lon="6.50786">
        <ele>1760</ele>
        <time>2017-08-29T10:12:17Z</time>
      </trkpt>
      <trkpt lat="45.92996" lon="6.50786">
        <ele>1759</ele>
        <time>2017-08-29T10:12:18Z</time>
      </trkpt>
      <trkpt lat="45.92996" lon="6.50786">
        <ele>1759</ele>
        <time>2017-08-29T10:12:19Z</time>
      </trkpt>
      <trkpt lat="45.92996" lon="6.50786">
        <ele>1759</ele>
        <time>2017-08-29T10:12:20Z</time>
      </trkpt>
      <trkpt lat="45.92996" lon="6.50783">
        <ele>1759</ele>
        <time>2017-08-29T10:12:21Z</time>
      </trkpt>
      <trkpt lat="45.92996" lon="6.50783">
        <ele>1759</ele>
        <time>2017-08-29T10:12:22Z</time>
      </trkpt>
      <trkpt lat="45.92996" lon="6.50783">
        <ele>1759</ele>
        <time>2017-08-29T10:12:23Z</time>
      </trkpt>
      <trkpt lat="45.92996" lon="6.50783">
        <ele>1758</ele>
        <time>2017-08-29T10:12:24Z</time>
      </trkpt>
      <trkpt lat="45.92997" lon="6.5078">
        <ele>1758</ele>
        <time>2017-08-29T10:12:25Z</time>
      </trkpt>
      <trkpt lat="45.92997" lon="6.5078">
        <ele>1758</ele>
        <time>2017-08-29T10:12:26Z</time>
      </trkpt>
      <trkpt lat="45.92997" lon="6.5078">
        <ele>1757</ele>
        <time>2017-08-29T10:12:27Z</time>
      </trkpt>
      <trkpt lat="45.92997" lon="6.5078">
        <ele>1756</ele>
        <time>2017-08-29T10:12:28Z</time>
      </trkpt>
      <trkpt lat="45.92996" lon="6.50777">
        <ele>1756</ele>
        <time>2017-08-29T10:12:29Z</time>
      </trkpt>
      <trkpt lat="45.92996" lon="6.50777">
        <ele>1756</ele>
        <time>2017-08-29T10:12:30Z</time>
      </trkpt>
      <trkpt lat="45.92996" lon="6.50777">
        <ele>1755</ele>
        <time>2017-08-29T10:12:31Z</time>
      </trkpt>
      <trkpt lat="45.92996" lon="6.50777">
        <ele>1755</ele>
        <time>2017-08-29T10:12:32Z</time>
      </trkpt>
      <trkpt lat="45.92996" lon="6.50777">
        <ele>1754</ele>
        <time>2017-08-29T10:12:33Z</time>
      </trkpt>
      <trkpt lat="45.92996" lon="6.50777">
        <ele>1753</ele>
        <time>2017-08-29T10:12:34Z</time>
      </trkpt>
      <trkpt lat="45.92996" lon="6.50777">
        <ele>1753</ele>
        <time>2017-08-29T10:12:35Z</time>
      </trkpt>
      <trkpt lat="45.92997" lon="6.50775">
        <ele>1753</ele>
        <time>2017-08-29T10:12:36Z</time>
      </trkpt>
      <trkpt lat="45.92997" lon="6.50775">
        <ele>1752</ele>
        <time>2017-08-29T10:12:37Z</time>
      </trkpt>
      <trkpt lat="45.92997" lon="6.50775">
        <ele>1752</ele>
        <time>2017-08-29T10:12:38Z</time>
      </trkpt>
      <trkpt lat="45.92997" lon="6.50775">
        <ele>1752</ele>
        <time>2017-08-29T10:12:39Z</time>
      </trkpt>
      <trkpt lat="45.92997" lon="6.50775">
        <ele>1752</ele>
        <time>2017-08-29T10:12:40Z</time>
      </trkpt>
      <trkpt lat="45.92997" lon="6.50775">
        <ele>1752</ele>
        <time>2017-08-29T10:12:41Z</time>
      </trkpt>
      <trkpt lat="45.92999" lon="6.50774">
        <ele>1752</ele>
        <time>2017-08-29T10:12:42Z</time>
      </trkpt>
      <trkpt lat="45.92999" lon="6.50774">
        <ele>1751</ele>
        <time>2017-08-29T10:12:43Z</time>
      </trkpt>
      <trkpt lat="45.92999" lon="6.50774">
        <ele>1751</ele>
        <time>2017-08-29T10:12:44Z</time>
      </trkpt>
      <trkpt lat="45.92999" lon="6.50774">
        <ele>1751</ele>
        <time>2017-08-29T10:12:45Z</time>
      </trkpt>
      <trkpt lat="45.92999" lon="6.50774">
        <ele>1750</ele>
        <time>2017-08-29T10:12:46Z</time>
      </trkpt>
      <trkpt lat="45.93001" lon="6.50774">
        <ele>1749</ele>
        <time>2017-08-29T10:12:47Z</time>
      </trkpt>
      <trkpt lat="45.93001" lon="6.50774">
        <ele>1749</ele>
        <time>2017-08-29T10:12:48Z</time>
      </trkpt>
      <trkpt lat="45.93003" lon="6.50772">
        <ele>1749</ele>
        <time>2017-08-29T10:12:49Z</time>
      </trkpt>
      <trkpt lat="45.93003" lon="6.50772">
        <ele>1749</ele>
        <time>2017-08-29T10:12:50Z</time>
      </trkpt>
      <trkpt lat="45.93003" lon="6.50772">
        <ele>1749</ele>
        <time>2017-08-29T10:12:51Z</time>
      </trkpt>
      <trkpt lat="45.93003" lon="6.50772">
        <ele>1749</ele>
        <time>2017-08-29T10:12:52Z</time>
      </trkpt>
      <trkpt lat="45.93003" lon="6.50772">
        <ele>1748</ele>
        <time>2017-08-29T10:12:53Z</time>
      </trkpt>
      <trkpt lat="45.93003" lon="6.50772">
        <ele>1748</ele>
        <time>2017-08-29T10:12:54Z</time>
      </trkpt>
      <trkpt lat="45.93003" lon="6.50772">
        <ele>1748</ele>
        <time>2017-08-29T10:12:55Z</time>
      </trkpt>
      <trkpt lat="45.93003" lon="6.50772">
        <ele>1748</ele>
        <time>2017-08-29T10:12:56Z</time>
      </trkpt>
      <trkpt lat="45.93003" lon="6.50772">
        <ele>1748</ele>
        <time>2017-08-29T10:12:57Z</time>
      </trkpt>
      <trkpt lat="45.93003" lon="6.50772">
        <ele>1748</ele>
        <time>2017-08-29T10:12:58Z</time>
      </trkpt>
      <trkpt lat="45.93003" lon="6.50772">
        <ele>1748</ele>
        <time>2017-08-29T10:12:59Z</time>
      </trkpt>
      <trkpt lat="45.93002" lon="6.5077">
        <ele>1748</ele>
        <time>2017-08-29T10:13:00Z</time>
      </trkpt>
      <trkpt lat="45.93002" lon="6.5077">
        <ele>1747</ele>
        <time>2017-08-29T10:13:01Z</time>
      </trkpt>
      <trkpt lat="45.93002" lon="6.5077">
        <ele>1747</ele>
        <time>2017-08-29T10:13:02Z</time>
      </trkpt>
      <trkpt lat="45.93002" lon="6.5077">
        <ele>1746</ele>
        <time>2017-08-29T10:13:03Z</time>
      </trkpt>
      <trkpt lat="45.93004" lon="6.50767">
        <ele>1745</ele>
        <time>2017-08-29T10:13:04Z</time>
      </trkpt>
      <trkpt lat="45.93004" lon="6.50767">
        <ele>1745</ele>
        <time>2017-08-29T10:13:05Z</time>
      </trkpt>
      <trkpt lat="45.93004" lon="6.50767">
        <ele>1745</ele>
        <time>2017-08-29T10:13:06Z</time>
      </trkpt>
      <trkpt lat="45.93004" lon="6.50763">
        <ele>1744</ele>
        <time>2017-08-29T10:13:07Z</time>
      </trkpt>
      <trkpt lat="45.93004" lon="6.50763">
        <ele>1744</ele>
        <time>2017-08-29T10:13:08Z</time>
      </trkpt>
      <trkpt lat="45.93004" lon="6.50763">
        <ele>1744</ele>
        <time>2017-08-29T10:13:09Z</time>
      </trkpt>
      <trkpt lat="45.93004" lon="6.50763">
        <ele>1744</ele>
        <time>2017-08-29T10:13:10Z</time>
      </trkpt>
      <trkpt lat="45.93004" lon="6.50763">
        <ele>1744</ele>
        <time>2017-08-29T10:13:11Z</time>
      </trkpt>
      <trkpt lat="45.93004" lon="6.50763">
        <ele>1742</ele>
        <time>2017-08-29T10:13:12Z</time>
      </trkpt>
      <trkpt lat="45.93004" lon="6.50763">
        <ele>1741</ele>
        <time>2017-08-29T10:13:13Z</time>
      </trkpt>
      <trkpt lat="45.93004" lon="6.50763">
        <ele>1741</ele>
        <time>2017-08-29T10:13:14Z</time>
      </trkpt>
      <trkpt lat="45.93004" lon="6.50763">
        <ele>1741</ele>
        <time>2017-08-29T10:13:15Z</time>
      </trkpt>
      <trkpt lat="45.93005" lon="6.5076">
        <ele>1741</ele>
        <time>2017-08-29T10:13:16Z</time>
      </trkpt>
      <trkpt lat="45.93005" lon="6.5076">
        <ele>1741</ele>
        <time>2017-08-29T10:13:17Z</time>
      </trkpt>
      <trkpt lat="45.93005" lon="6.5076">
        <ele>1741</ele>
        <time>2017-08-29T10:13:18Z</time>
      </trkpt>
      <trkpt lat="45.93006" lon="6.50756">
        <ele>1741</ele>
        <time>2017-08-29T10:13:19Z</time>
      </trkpt>
      <trkpt lat="45.93006" lon="6.50756">
        <ele>1740</ele>
        <time>2017-08-29T10:13:20Z</time>
      </trkpt>
      <trkpt lat="45.93006" lon="6.50756">
        <ele>1739</ele>
        <time>2017-08-29T10:13:21Z</time>
      </trkpt>
      <trkpt lat="45.93006" lon="6.50756">
        <ele>1739</ele>
        <time>2017-08-29T10:13:22Z</time>
      </trkpt>
      <trkpt lat="45.93008" lon="6.50755">
        <ele>1739</ele>
        <time>2017-08-29T10:13:23Z</time>
      </trkpt>
      <trkpt lat="45.93008" lon="6.50755">
        <ele>1739</ele>
        <time>2017-08-29T10:13:24Z</time>
      </trkpt>
      <trkpt lat="45.93008" lon="6.50755">
        <ele>1739</ele>
        <time>2017-08-29T10:13:25Z</time>
      </trkpt>
      <trkpt lat="45.93008" lon="6.50755">
        <ele>1739</ele>
        <time>2017-08-29T10:13:26Z</time>
      </trkpt>
      <trkpt lat="45.93008" lon="6.50755">
        <ele>1738</ele>
        <time>2017-08-29T10:13:27Z</time>
      </trkpt>
      <trkpt lat="45.93006" lon="6.50753">
        <ele>1738</ele>
        <time>2017-08-29T10:13:28Z</time>
      </trkpt>
      <trkpt lat="45.93006" lon="6.50753">
        <ele>1738</ele>
        <time>2017-08-29T10:13:29Z</time>
      </trkpt>
      <trkpt lat="45.93005" lon="6.5075">
        <ele>1738</ele>
        <time>2017-08-29T10:13:30Z</time>
      </trkpt>
      <trkpt lat="45.93005" lon="6.5075">
        <ele>1738</ele>
        <time>2017-08-29T10:13:31Z</time>
      </trkpt>
      <trkpt lat="45.93006" lon="6.50747">
        <ele>1737</ele>
        <time>2017-08-29T10:13:32Z</time>
      </trkpt>
      <trkpt lat="45.93006" lon="6.50747">
        <ele>1737</ele>
        <time>2017-08-29T10:13:33Z</time>
      </trkpt>
      <trkpt lat="45.93006" lon="6.50747">
        <ele>1737</ele>
        <time>2017-08-29T10:13:34Z</time>
      </trkpt>
      <trkpt lat="45.93006" lon="6.50744">
        <ele>1736</ele>
        <time>2017-08-29T10:13:35Z</time>
      </trkpt>
      <trkpt lat="45.93006" lon="6.50744">
        <ele>1735</ele>
        <time>2017-08-29T10:13:36Z</time>
      </trkpt>
      <trkpt lat="45.93006" lon="6.50744">
        <ele>1735</ele>
        <time>2017-08-29T10:13:37Z</time>
      </trkpt>
      <trkpt lat="45.93008" lon="6.50742">
        <ele>1734</ele>
        <time>2017-08-29T10:13:38Z</time>
      </trkpt>
      <trkpt lat="45.93008" lon="6.50742">
        <ele>1734</ele>
        <time>2017-08-29T10:13:39Z</time>
      </trkpt>
      <trkpt lat="45.93011" lon="6.5074">
        <ele>1734</ele>
        <time>2017-08-29T10:13:40Z</time>
      </trkpt>
      <trkpt lat="45.93011" lon="6.5074">
        <ele>1734</ele>
        <time>2017-08-29T10:13:41Z</time>
      </trkpt>
      <trkpt lat="45.93013" lon="6.50739">
        <ele>1733</ele>
        <time>2017-08-29T10:13:42Z</time>
      </trkpt>
      <trkpt lat="45.93013" lon="6.50739">
        <ele>1733</ele>
        <time>2017-08-29T10:13:43Z</time>
      </trkpt>
      <trkpt lat="45.93014" lon="6.50737">
        <ele>1733</ele>
        <time>2017-08-29T10:13:44Z</time>
      </trkpt>
      <trkpt lat="45.93014" lon="6.50737">
        <ele>1732</ele>
        <time>2017-08-29T10:13:45Z</time>
      </trkpt>
      <trkpt lat="45.93014" lon="6.50734">
        <ele>1732</ele>
        <time>2017-08-29T10:13:46Z</time>
      </trkpt>
      <trkpt lat="45.93014" lon="6.50734">
        <ele>1731</ele>
        <time>2017-08-29T10:13:47Z</time>
      </trkpt>
      <trkpt lat="45.93015" lon="6.50732">
        <ele>1731</ele>
        <time>2017-08-29T10:13:48Z</time>
      </trkpt>
      <trkpt lat="45.93015" lon="6.50732">
        <ele>1730</ele>
        <time>2017-08-29T10:13:49Z</time>
      </trkpt>
      <trkpt lat="45.93017" lon="6.5073">
        <ele>1729</ele>
        <time>2017-08-29T10:13:50Z</time>
      </trkpt>
      <trkpt lat="45.93017" lon="6.5073">
        <ele>1729</ele>
        <time>2017-08-29T10:13:51Z</time>
      </trkpt>
      <trkpt lat="45.93017" lon="6.5073">
        <ele>1729</ele>
        <time>2017-08-29T10:13:52Z</time>
      </trkpt>
      <trkpt lat="45.93017" lon="6.5073">
        <ele>1729</ele>
        <time>2017-08-29T10:13:53Z</time>
      </trkpt>
      <trkpt lat="45.93019" lon="6.50728">
        <ele>1728</ele>
        <time>2017-08-29T10:13:54Z</time>
      </trkpt>
      <trkpt lat="45.93019" lon="6.50728">
        <ele>1727</ele>
        <time>2017-08-29T10:13:55Z</time>
      </trkpt>
      <trkpt lat="45.93019" lon="6.50728">
        <ele>1727</ele>
        <time>2017-08-29T10:13:56Z</time>
      </trkpt>
      <trkpt lat="45.93019" lon="6.50728">
        <ele>1727</ele>
        <time>2017-08-29T10:13:57Z</time>
      </trkpt>
      <trkpt lat="45.93019" lon="6.50728">
        <ele>1727</ele>
        <time>2017-08-29T10:13:58Z</time>
      </trkpt>
      <trkpt lat="45.93019" lon="6.50725">
        <ele>1727</ele>
        <time>2017-08-29T10:13:59Z</time>
      </trkpt>
      <trkpt lat="45.93019" lon="6.50725">
        <ele>1727</ele>
        <time>2017-08-29T10:14:00Z</time>
      </trkpt>
      <trkpt lat="45.93019" lon="6.50725">
        <ele>1725</ele>
        <time>2017-08-29T10:14:01Z</time>
      </trkpt>
      <trkpt lat="45.93021" lon="6.50723">
        <ele>1725</ele>
        <time>2017-08-29T10:14:02Z</time>
      </trkpt>
      <trkpt lat="45.93021" lon="6.50723">
        <ele>1725</ele>
        <time>2017-08-29T10:14:03Z</time>
      </trkpt>
      <trkpt lat="45.93021" lon="6.50723">
        <ele>1726</ele>
        <time>2017-08-29T10:14:04Z</time>
      </trkpt>
      <trkpt lat="45.93023" lon="6.50722">
        <ele>1726</ele>
        <time>2017-08-29T10:14:05Z</time>
      </trkpt>
      <trkpt lat="45.93023" lon="6.50722">
        <ele>1726</ele>
        <time>2017-08-29T10:14:06Z</time>
      </trkpt>
      <trkpt lat="45.93024" lon="6.50719">
        <ele>1726</ele>
        <time>2017-08-29T10:14:07Z</time>
      </trkpt>
      <trkpt lat="45.93024" lon="6.50719">
        <ele>1726</ele>
        <time>2017-08-29T10:14:08Z</time>
      </trkpt>
      <trkpt lat="45.93025" lon="6.50716">
        <ele>1726</ele>
        <time>2017-08-29T10:14:09Z</time>
      </trkpt>
      <trkpt lat="45.93025" lon="6.50716">
        <ele>1725</ele>
        <time>2017-08-29T10:14:10Z</time>
      </trkpt>
      <trkpt lat="45.93026" lon="6.50714">
        <ele>1724</ele>
        <time>2017-08-29T10:14:11Z</time>
      </trkpt>
      <trkpt lat="45.93026" lon="6.50714">
        <ele>1724</ele>
        <time>2017-08-29T10:14:12Z</time>
      </trkpt>
      <trkpt lat="45.93029" lon="6.50713">
        <ele>1724</ele>
        <time>2017-08-29T10:14:13Z</time>
      </trkpt>
      <trkpt lat="45.93029" lon="6.50713">
        <ele>1724</ele>
        <time>2017-08-29T10:14:14Z</time>
      </trkpt>
      <trkpt lat="45.93032" lon="6.50712">
        <ele>1724</ele>
        <time>2017-08-29T10:14:15Z</time>
      </trkpt>
      <trkpt lat="45.93034" lon="6.50713">
        <ele>1723</ele>
        <time>2017-08-29T10:14:16Z</time>
      </trkpt>
      <trkpt lat="45.93035" lon="6.50715">
        <ele>1723</ele>
        <time>2017-08-29T10:14:17Z</time>
      </trkpt>
      <trkpt lat="45.93035" lon="6.50715">
        <ele>1722</ele>
        <time>2017-08-29T10:14:18Z</time>
      </trkpt>
      <trkpt lat="45.93038" lon="6.50717">
        <ele>1721</ele>
        <time>2017-08-29T10:14:19Z</time>
      </trkpt>
      <trkpt lat="45.93038" lon="6.50717">
        <ele>1721</ele>
        <time>2017-08-29T10:14:20Z</time>
      </trkpt>
      <trkpt lat="45.9304" lon="6.50716">
        <ele>1721</ele>
        <time>2017-08-29T10:14:21Z</time>
      </trkpt>
      <trkpt lat="45.9304" lon="6.50716">
        <ele>1721</ele>
        <time>2017-08-29T10:14:22Z</time>
      </trkpt>
      <trkpt lat="45.93039" lon="6.50712">
        <ele>1721</ele>
        <time>2017-08-29T10:14:23Z</time>
      </trkpt>
      <trkpt lat="45.93039" lon="6.50712">
        <ele>1720</ele>
        <time>2017-08-29T10:14:24Z</time>
      </trkpt>
      <trkpt lat="45.93038" lon="6.50708">
        <ele>1720</ele>
        <time>2017-08-29T10:14:25Z</time>
      </trkpt>
      <trkpt lat="45.93037" lon="6.50705">
        <ele>1720</ele>
        <time>2017-08-29T10:14:26Z</time>
      </trkpt>
      <trkpt lat="45.93036" lon="6.50702">
        <ele>1719</ele>
        <time>2017-08-29T10:14:27Z</time>
      </trkpt>
      <trkpt lat="45.93034" lon="6.50699">
        <ele>1719</ele>
        <time>2017-08-29T10:14:28Z</time>
      </trkpt>
      <trkpt lat="45.93033" lon="6.50696">
        <ele>1719</ele>
        <time>2017-08-29T10:14:29Z</time>
      </trkpt>
      <trkpt lat="45.93032" lon="6.50693">
        <ele>1718</ele>
        <time>2017-08-29T10:14:30Z</time>
      </trkpt>
      <trkpt lat="45.9303" lon="6.5069">
        <ele>1718</ele>
        <time>2017-08-29T10:14:31Z</time>
      </trkpt>
      <trkpt lat="45.93029" lon="6.50687">
        <ele>1718</ele>
        <time>2017-08-29T10:14:32Z</time>
      </trkpt>
      <trkpt lat="45.93027" lon="6.50683">
        <ele>1717</ele>
        <time>2017-08-29T10:14:33Z</time>
      </trkpt>
      <trkpt lat="45.93025" lon="6.5068">
        <ele>1717</ele>
        <time>2017-08-29T10:14:34Z</time>
      </trkpt>
      <trkpt lat="45.93023" lon="6.50677">
        <ele>1716</ele>
        <time>2017-08-29T10:14:35Z</time>
      </trkpt>
      <trkpt lat="45.93022" lon="6.50674">
        <ele>1716</ele>
        <time>2017-08-29T10:14:36Z</time>
      </trkpt>
      <trkpt lat="45.9302" lon="6.5067">
        <ele>1716</ele>
        <time>2017-08-29T10:14:37Z</time>
      </trkpt>
      <trkpt lat="45.93018" lon="6.50667">
        <ele>1715</ele>
        <time>2017-08-29T10:14:38Z</time>
      </trkpt>
      <trkpt lat="45.93015" lon="6.50665">
        <ele>1715</ele>
        <time>2017-08-29T10:14:39Z</time>
      </trkpt>
      <trkpt lat="45.93013" lon="6.50662">
        <ele>1715</ele>
        <time>2017-08-29T10:14:40Z</time>
      </trkpt>
      <trkpt lat="45.93011" lon="6.5066">
        <ele>1715</ele>
        <time>2017-08-29T10:14:41Z</time>
      </trkpt>
      <trkpt lat="45.93008" lon="6.50657">
        <ele>1714</ele>
        <time>2017-08-29T10:14:42Z</time>
      </trkpt>
      <trkpt lat="45.93006" lon="6.50655">
        <ele>1714</ele>
        <time>2017-08-29T10:14:43Z</time>
      </trkpt>
      <trkpt lat="45.93003" lon="6.50652">
        <ele>1714</ele>
        <time>2017-08-29T10:14:44Z</time>
      </trkpt>
      <trkpt lat="45.93001" lon="6.5065">
        <ele>1714</ele>
        <time>2017-08-29T10:14:45Z</time>
      </trkpt>
      <trkpt lat="45.92999" lon="6.50647">
        <ele>1713</ele>
        <time>2017-08-29T10:14:46Z</time>
      </trkpt>
      <trkpt lat="45.92997" lon="6.50645">
        <ele>1712</ele>
        <time>2017-08-29T10:14:47Z</time>
      </trkpt>
      <trkpt lat="45.92994" lon="6.50642">
        <ele>1712</ele>
        <time>2017-08-29T10:14:48Z</time>
      </trkpt>
      <trkpt lat="45.92992" lon="6.5064">
        <ele>1712</ele>
        <time>2017-08-29T10:14:49Z</time>
      </trkpt>
      <trkpt lat="45.9299" lon="6.50637">
        <ele>1712</ele>
        <time>2017-08-29T10:14:50Z</time>
      </trkpt>
      <trkpt lat="45.92987" lon="6.50635">
        <ele>1712</ele>
        <time>2017-08-29T10:14:51Z</time>
      </trkpt>
      <trkpt lat="45.92985" lon="6.50633">
        <ele>1712</ele>
        <time>2017-08-29T10:14:52Z</time>
      </trkpt>
      <trkpt lat="45.92983" lon="6.50631">
        <ele>1712</ele>
        <time>2017-08-29T10:14:53Z</time>
      </trkpt>
      <trkpt lat="45.9298" lon="6.50629">
        <ele>1711</ele>
        <time>2017-08-29T10:14:54Z</time>
      </trkpt>
      <trkpt lat="45.92978" lon="6.50627">
        <ele>1711</ele>
        <time>2017-08-29T10:14:55Z</time>
      </trkpt>
      <trkpt lat="45.92975" lon="6.50624">
        <ele>1711</ele>
        <time>2017-08-29T10:14:56Z</time>
      </trkpt>
      <trkpt lat="45.92973" lon="6.50621">
        <ele>1711</ele>
        <time>2017-08-29T10:14:57Z</time>
      </trkpt>
      <trkpt lat="45.92971" lon="6.50619">
        <ele>1711</ele>
        <time>2017-08-29T10:14:58Z</time>
      </trkpt>
      <trkpt lat="45.92969" lon="6.50616">
        <ele>1710</ele>
        <time>2017-08-29T10:14:59Z</time>
      </trkpt>
      <trkpt lat="45.92967" lon="6.50613">
        <ele>1710</ele>
        <time>2017-08-29T10:15:00Z</time>
      </trkpt>
      <trkpt lat="45.92965" lon="6.5061">
        <ele>1710</ele>
        <time>2017-08-29T10:15:01Z</time>
      </trkpt>
      <trkpt lat="45.92963" lon="6.50608">
        <ele>1709</ele>
        <time>2017-08-29T10:15:02Z</time>
      </trkpt>
      <trkpt lat="45.92961" lon="6.50606">
        <ele>1708</ele>
        <time>2017-08-29T10:15:03Z</time>
      </trkpt>
      <trkpt lat="45.92959" lon="6.50604">
        <ele>1708</ele>
        <time>2017-08-29T10:15:04Z</time>
      </trkpt>
      <trkpt lat="45.92956" lon="6.50601">
        <ele>1708</ele>
        <time>2017-08-29T10:15:05Z</time>
      </trkpt>
      <trkpt lat="45.92954" lon="6.50599">
        <ele>1708</ele>
        <time>2017-08-29T10:15:06Z</time>
      </trkpt>
      <trkpt lat="45.92952" lon="6.50598">
        <ele>1708</ele>
        <time>2017-08-29T10:15:07Z</time>
      </trkpt>
      <trkpt lat="45.9295" lon="6.50596">
        <ele>1708</ele>
        <time>2017-08-29T10:15:08Z</time>
      </trkpt>
      <trkpt lat="45.92948" lon="6.50593">
        <ele>1708</ele>
        <time>2017-08-29T10:15:09Z</time>
      </trkpt>
      <trkpt lat="45.92947" lon="6.5059">
        <ele>1708</ele>
        <time>2017-08-29T10:15:10Z</time>
      </trkpt>
      <trkpt lat="45.92946" lon="6.50587">
        <ele>1708</ele>
        <time>2017-08-29T10:15:11Z</time>
      </trkpt>
      <trkpt lat="45.92945" lon="6.50584">
        <ele>1708</ele>
        <time>2017-08-29T10:15:12Z</time>
      </trkpt>
      <trkpt lat="45.92945" lon="6.5058">
        <ele>1708</ele>
        <time>2017-08-29T10:15:13Z</time>
      </trkpt>
      <trkpt lat="45.92944" lon="6.50577">
        <ele>1708</ele>
        <time>2017-08-29T10:15:14Z</time>
      </trkpt>
      <trkpt lat="45.92944" lon="6.50575">
        <ele>1708</ele>
        <time>2017-08-29T10:15:15Z</time>
      </trkpt>
      <trkpt lat="45.92943" lon="6.50572">
        <ele>1708</ele>
        <time>2017-08-29T10:15:16Z</time>
      </trkpt>
      <trkpt lat="45.92942" lon="6.5057">
        <ele>1708</ele>
        <time>2017-08-29T10:15:17Z</time>
      </trkpt>
      <trkpt lat="45.92942" lon="6.50567">
        <ele>1709</ele>
        <time>2017-08-29T10:15:18Z</time>
      </trkpt>
      <trkpt lat="45.92941" lon="6.50564">
        <ele>1709</ele>
        <time>2017-08-29T10:15:19Z</time>
      </trkpt>
      <trkpt lat="45.9294" lon="6.50562">
        <ele>1709</ele>
        <time>2017-08-29T10:15:20Z</time>
      </trkpt>
      <trkpt lat="45.9294" lon="6.50562">
        <ele>1709</ele>
        <time>2017-08-29T10:15:21Z</time>
      </trkpt>
      <trkpt lat="45.92939" lon="6.50557">
        <ele>1709</ele>
        <time>2017-08-29T10:15:22Z</time>
      </trkpt>
      <trkpt lat="45.92939" lon="6.50557">
        <ele>1709</ele>
        <time>2017-08-29T10:15:23Z</time>
      </trkpt>
      <trkpt lat="45.92937" lon="6.50552">
        <ele>1709</ele>
        <time>2017-08-29T10:15:24Z</time>
      </trkpt>
      <trkpt lat="45.92937" lon="6.50552">
        <ele>1710</ele>
        <time>2017-08-29T10:15:25Z</time>
      </trkpt>
      <trkpt lat="45.92936" lon="6.50548">
        <ele>1710</ele>
        <time>2017-08-29T10:15:26Z</time>
      </trkpt>
      <trkpt lat="45.92936" lon="6.50548">
        <ele>1711</ele>
        <time>2017-08-29T10:15:27Z</time>
      </trkpt>
      <trkpt lat="45.92936" lon="6.50543">
        <ele>1711</ele>
        <time>2017-08-29T10:15:28Z</time>
      </trkpt>
      <trkpt lat="45.92936" lon="6.50543">
        <ele>1711</ele>
        <time>2017-08-29T10:15:29Z</time>
      </trkpt>
      <trkpt lat="45.92935" lon="6.5054">
        <ele>1711</ele>
        <time>2017-08-29T10:15:30Z</time>
      </trkpt>
      <trkpt lat="45.92935" lon="6.5054">
        <ele>1711</ele>
        <time>2017-08-29T10:15:31Z</time>
      </trkpt>
      <trkpt lat="45.92935" lon="6.5054">
        <ele>1711</ele>
        <time>2017-08-29T10:15:32Z</time>
      </trkpt>
      <trkpt lat="45.92935" lon="6.5054">
        <ele>1712</ele>
        <time>2017-08-29T10:15:33Z</time>
      </trkpt>
      <trkpt lat="45.92933" lon="6.50536">
        <ele>1712</ele>
        <time>2017-08-29T10:15:34Z</time>
      </trkpt>
      <trkpt lat="45.92933" lon="6.50536">
        <ele>1712</ele>
        <time>2017-08-29T10:15:35Z</time>
      </trkpt>
      <trkpt lat="45.9293" lon="6.50535">
        <ele>1712</ele>
        <time>2017-08-29T10:15:36Z</time>
      </trkpt>
      <trkpt lat="45.9293" lon="6.50535">
        <ele>1712</ele>
        <time>2017-08-29T10:15:37Z</time>
      </trkpt>
      <trkpt lat="45.92928" lon="6.50534">
        <ele>1712</ele>
        <time>2017-08-29T10:15:38Z</time>
      </trkpt>
      <trkpt lat="45.92926" lon="6.50532">
        <ele>1712</ele>
        <time>2017-08-29T10:15:39Z</time>
      </trkpt>
      <trkpt lat="45.92925" lon="6.50531">
        <ele>1712</ele>
        <time>2017-08-29T10:15:40Z</time>
      </trkpt>
      <trkpt lat="45.92923" lon="6.50529">
        <ele>1712</ele>
        <time>2017-08-29T10:15:41Z</time>
      </trkpt>
      <trkpt lat="45.92923" lon="6.50529">
        <ele>1712</ele>
        <time>2017-08-29T10:15:42Z</time>
      </trkpt>
      <trkpt lat="45.92921" lon="6.50525">
        <ele>1712</ele>
        <time>2017-08-29T10:15:43Z</time>
      </trkpt>
      <trkpt lat="45.92921" lon="6.50525">
        <ele>1711</ele>
        <time>2017-08-29T10:15:44Z</time>
      </trkpt>
      <trkpt lat="45.92919" lon="6.50522">
        <ele>1711</ele>
        <time>2017-08-29T10:15:45Z</time>
      </trkpt>
      <trkpt lat="45.92919" lon="6.50522">
        <ele>1711</ele>
        <time>2017-08-29T10:15:46Z</time>
      </trkpt>
      <trkpt lat="45.92916" lon="6.50519">
        <ele>1711</ele>
        <time>2017-08-29T10:15:47Z</time>
      </trkpt>
      <trkpt lat="45.92916" lon="6.50519">
        <ele>1711</ele>
        <time>2017-08-29T10:15:48Z</time>
      </trkpt>
      <trkpt lat="45.92914" lon="6.50517">
        <ele>1711</ele>
        <time>2017-08-29T10:15:49Z</time>
      </trkpt>
      <trkpt lat="45.92914" lon="6.50517">
        <ele>1711</ele>
        <time>2017-08-29T10:15:50Z</time>
      </trkpt>
      <trkpt lat="45.92912" lon="6.50513">
        <ele>1711</ele>
        <time>2017-08-29T10:15:51Z</time>
      </trkpt>
      <trkpt lat="45.92912" lon="6.50513">
        <ele>1711</ele>
        <time>2017-08-29T10:15:52Z</time>
      </trkpt>
      <trkpt lat="45.92911" lon="6.50509">
        <ele>1711</ele>
        <time>2017-08-29T10:15:53Z</time>
      </trkpt>
      <trkpt lat="45.92911" lon="6.50509">
        <ele>1711</ele>
        <time>2017-08-29T10:15:54Z</time>
      </trkpt>
      <trkpt lat="45.92909" lon="6.50506">
        <ele>1710</ele>
        <time>2017-08-29T10:15:55Z</time>
      </trkpt>
      <trkpt lat="45.92909" lon="6.50506">
        <ele>1710</ele>
        <time>2017-08-29T10:15:56Z</time>
      </trkpt>
      <trkpt lat="45.92908" lon="6.50504">
        <ele>1710</ele>
        <time>2017-08-29T10:15:57Z</time>
      </trkpt>
      <trkpt lat="45.92908" lon="6.50504">
        <ele>1710</ele>
        <time>2017-08-29T10:15:58Z</time>
      </trkpt>
      <trkpt lat="45.92906" lon="6.50501">
        <ele>1710</ele>
        <time>2017-08-29T10:15:59Z</time>
      </trkpt>
      <trkpt lat="45.92906" lon="6.50501">
        <ele>1710</ele>
        <time>2017-08-29T10:16:00Z</time>
      </trkpt>
      <trkpt lat="45.92903" lon="6.50499">
        <ele>1710</ele>
        <time>2017-08-29T10:16:01Z</time>
      </trkpt>
      <trkpt lat="45.92903" lon="6.50499">
        <ele>1710</ele>
        <time>2017-08-29T10:16:02Z</time>
      </trkpt>
      <trkpt lat="45.929" lon="6.50497">
        <ele>1710</ele>
        <time>2017-08-29T10:16:03Z</time>
      </trkpt>
      <trkpt lat="45.929" lon="6.50497">
        <ele>1710</ele>
        <time>2017-08-29T10:16:04Z</time>
      </trkpt>
      <trkpt lat="45.92898" lon="6.50496">
        <ele>1709</ele>
        <time>2017-08-29T10:16:05Z</time>
      </trkpt>
      <trkpt lat="45.92898" lon="6.50496">
        <ele>1709</ele>
        <time>2017-08-29T10:16:06Z</time>
      </trkpt>
      <trkpt lat="45.92895" lon="6.50494">
        <ele>1709</ele>
        <time>2017-08-29T10:16:07Z</time>
      </trkpt>
      <trkpt lat="45.92895" lon="6.50494">
        <ele>1709</ele>
        <time>2017-08-29T10:16:08Z</time>
      </trkpt>
      <trkpt lat="45.92892" lon="6.50491">
        <ele>1709</ele>
        <time>2017-08-29T10:16:09Z</time>
      </trkpt>
      <trkpt lat="45.92892" lon="6.50491">
        <ele>1709</ele>
        <time>2017-08-29T10:16:10Z</time>
      </trkpt>
      <trkpt lat="45.9289" lon="6.50489">
        <ele>1709</ele>
        <time>2017-08-29T10:16:11Z</time>
      </trkpt>
      <trkpt lat="45.9289" lon="6.50489">
        <ele>1709</ele>
        <time>2017-08-29T10:16:12Z</time>
      </trkpt>
      <trkpt lat="45.92887" lon="6.50488">
        <ele>1709</ele>
        <time>2017-08-29T10:16:13Z</time>
      </trkpt>
      <trkpt lat="45.92887" lon="6.50488">
        <ele>1709</ele>
        <time>2017-08-29T10:16:14Z</time>
      </trkpt>
      <trkpt lat="45.92885" lon="6.50488">
        <ele>1709</ele>
        <time>2017-08-29T10:16:15Z</time>
      </trkpt>
      <trkpt lat="45.92885" lon="6.50488">
        <ele>1709</ele>
        <time>2017-08-29T10:16:16Z</time>
      </trkpt>
      <trkpt lat="45.92885" lon="6.50488">
        <ele>1709</ele>
        <time>2017-08-29T10:16:17Z</time>
      </trkpt>
      <trkpt lat="45.92885" lon="6.50488">
        <ele>1709</ele>
        <time>2017-08-29T10:16:18Z</time>
      </trkpt>
      <trkpt lat="45.92885" lon="6.50488">
        <ele>1709</ele>
        <time>2017-08-29T10:16:19Z</time>
      </trkpt>
      <trkpt lat="45.92885" lon="6.50488">
        <ele>1709</ele>
        <time>2017-08-29T10:16:20Z</time>
      </trkpt>
      <trkpt lat="45.92885" lon="6.50488">
        <ele>1709</ele>
        <time>2017-08-29T10:16:21Z</time>
      </trkpt>
      <trkpt lat="45.92885" lon="6.50488">
        <ele>1709</ele>
        <time>2017-08-29T10:16:22Z</time>
      </trkpt>
      <trkpt lat="45.92885" lon="6.50488">
        <ele>1709</ele>
        <time>2017-08-29T10:16:23Z</time>
      </trkpt>
      <trkpt lat="45.92885" lon="6.50488">
        <ele>1709</ele>
        <time>2017-08-29T10:16:24Z</time>
      </trkpt>
      <trkpt lat="45.92885" lon="6.50488">
        <ele>1709</ele>
        <time>2017-08-29T10:16:25Z</time>
      </trkpt>
      <trkpt lat="45.92885" lon="6.50488">
        <ele>1709</ele>
        <time>2017-08-29T10:16:26Z</time>
      </trkpt>
      <trkpt lat="45.92885" lon="6.50488">
        <ele>1709</ele>
        <time>2017-08-29T10:16:27Z</time>
      </trkpt>
      <trkpt lat="45.92885" lon="6.50488">
        <ele>1709</ele>
        <time>2017-08-29T10:16:28Z</time>
      </trkpt>
      <trkpt lat="45.92885" lon="6.50488">
        <ele>1708</ele>
        <time>2017-08-29T10:16:29Z</time>
      </trkpt>
      <trkpt lat="45.92885" lon="6.50488">
        <ele>1708</ele>
        <time>2017-08-29T10:16:30Z</time>
      </trkpt>
      <trkpt lat="45.92885" lon="6.50488">
        <ele>1708</ele>
        <time>2017-08-29T10:16:31Z</time>
      </trkpt>
      <trkpt lat="45.92883" lon="6.50488">
        <ele>1708</ele>
        <time>2017-08-29T10:16:32Z</time>
      </trkpt>
      <trkpt lat="45.92883" lon="6.50488">
        <ele>1708</ele>
        <time>2017-08-29T10:16:33Z</time>
      </trkpt>
      <trkpt lat="45.92883" lon="6.50488">
        <ele>1708</ele>
        <time>2017-08-29T10:16:34Z</time>
      </trkpt>
      <trkpt lat="45.92879" lon="6.50488">
        <ele>1708</ele>
        <time>2017-08-29T10:16:35Z</time>
      </trkpt>
      <trkpt lat="45.92877" lon="6.50489">
        <ele>1708</ele>
        <time>2017-08-29T10:16:36Z</time>
      </trkpt>
      <trkpt lat="45.92874" lon="6.50489">
        <ele>1707</ele>
        <time>2017-08-29T10:16:37Z</time>
      </trkpt>
      <trkpt lat="45.92872" lon="6.50489">
        <ele>1707</ele>
        <time>2017-08-29T10:16:38Z</time>
      </trkpt>
      <trkpt lat="45.92869" lon="6.50489">
        <ele>1707</ele>
        <time>2017-08-29T10:16:39Z</time>
      </trkpt>
      <trkpt lat="45.92867" lon="6.50489">
        <ele>1707</ele>
        <time>2017-08-29T10:16:40Z</time>
      </trkpt>
      <trkpt lat="45.92865" lon="6.50489">
        <ele>1706</ele>
        <time>2017-08-29T10:16:41Z</time>
      </trkpt>
      <trkpt lat="45.92863" lon="6.5049">
        <ele>1705</ele>
        <time>2017-08-29T10:16:42Z</time>
      </trkpt>
      <trkpt lat="45.92863" lon="6.5049">
        <ele>1705</ele>
        <time>2017-08-29T10:16:43Z</time>
      </trkpt>
      <trkpt lat="45.9286" lon="6.50489">
        <ele>1705</ele>
        <time>2017-08-29T10:16:44Z</time>
      </trkpt>
      <trkpt lat="45.9286" lon="6.50489">
        <ele>1704</ele>
        <time>2017-08-29T10:16:45Z</time>
      </trkpt>
      <trkpt lat="45.92858" lon="6.50485">
        <ele>1704</ele>
        <time>2017-08-29T10:16:46Z</time>
      </trkpt>
      <trkpt lat="45.92858" lon="6.50485">
        <ele>1703</ele>
        <time>2017-08-29T10:16:47Z</time>
      </trkpt>
      <trkpt lat="45.92855" lon="6.50483">
        <ele>1703</ele>
        <time>2017-08-29T10:16:48Z</time>
      </trkpt>
      <trkpt lat="45.92853" lon="6.50482">
        <ele>1703</ele>
        <time>2017-08-29T10:16:49Z</time>
      </trkpt>
      <trkpt lat="45.92853" lon="6.50482">
        <ele>1702</ele>
        <time>2017-08-29T10:16:50Z</time>
      </trkpt>
      <trkpt lat="45.92851" lon="6.50479">
        <ele>1702</ele>
        <time>2017-08-29T10:16:51Z</time>
      </trkpt>
      <trkpt lat="45.92851" lon="6.50479">
        <ele>1701</ele>
        <time>2017-08-29T10:16:52Z</time>
      </trkpt>
      <trkpt lat="45.92849" lon="6.50476">
        <ele>1700</ele>
        <time>2017-08-29T10:16:53Z</time>
      </trkpt>
      <trkpt lat="45.92849" lon="6.50476">
        <ele>1700</ele>
        <time>2017-08-29T10:16:54Z</time>
      </trkpt>
      <trkpt lat="45.92847" lon="6.50473">
        <ele>1700</ele>
        <time>2017-08-29T10:16:55Z</time>
      </trkpt>
      <trkpt lat="45.92845" lon="6.5047">
        <ele>1700</ele>
        <time>2017-08-29T10:16:56Z</time>
      </trkpt>
      <trkpt lat="45.92845" lon="6.50468">
        <ele>1699</ele>
        <time>2017-08-29T10:16:57Z</time>
      </trkpt>
      <trkpt lat="45.92845" lon="6.50468">
        <ele>1699</ele>
        <time>2017-08-29T10:16:58Z</time>
      </trkpt>
      <trkpt lat="45.92843" lon="6.50465">
        <ele>1698</ele>
        <time>2017-08-29T10:16:59Z</time>
      </trkpt>
      <trkpt lat="45.92843" lon="6.50465">
        <ele>1697</ele>
        <time>2017-08-29T10:17:00Z</time>
      </trkpt>
      <trkpt lat="45.92841" lon="6.50462">
        <ele>1697</ele>
        <time>2017-08-29T10:17:01Z</time>
      </trkpt>
      <trkpt lat="45.92841" lon="6.50462">
        <ele>1697</ele>
        <time>2017-08-29T10:17:02Z</time>
      </trkpt>
      <trkpt lat="45.92838" lon="6.50459">
        <ele>1697</ele>
        <time>2017-08-29T10:17:03Z</time>
      </trkpt>
      <trkpt lat="45.92837" lon="6.50457">
        <ele>1697</ele>
        <time>2017-08-29T10:17:04Z</time>
      </trkpt>
      <trkpt lat="45.92836" lon="6.50454">
        <ele>1696</ele>
        <time>2017-08-29T10:17:05Z</time>
      </trkpt>
      <trkpt lat="45.92836" lon="6.50451">
        <ele>1696</ele>
        <time>2017-08-29T10:17:06Z</time>
      </trkpt>
      <trkpt lat="45.92836" lon="6.50448">
        <ele>1696</ele>
        <time>2017-08-29T10:17:07Z</time>
      </trkpt>
      <trkpt lat="45.92837" lon="6.50446">
        <ele>1696</ele>
        <time>2017-08-29T10:17:08Z</time>
      </trkpt>
      <trkpt lat="45.92837" lon="6.50443">
        <ele>1696</ele>
        <time>2017-08-29T10:17:09Z</time>
      </trkpt>
      <trkpt lat="45.92837" lon="6.5044">
        <ele>1695</ele>
        <time>2017-08-29T10:17:10Z</time>
      </trkpt>
      <trkpt lat="45.92837" lon="6.50437">
        <ele>1694</ele>
        <time>2017-08-29T10:17:11Z</time>
      </trkpt>
      <trkpt lat="45.92837" lon="6.50434">
        <ele>1694</ele>
        <time>2017-08-29T10:17:12Z</time>
      </trkpt>
      <trkpt lat="45.92838" lon="6.50432">
        <ele>1693</ele>
        <time>2017-08-29T10:17:13Z</time>
      </trkpt>
      <trkpt lat="45.9284" lon="6.5043">
        <ele>1692</ele>
        <time>2017-08-29T10:17:14Z</time>
      </trkpt>
      <trkpt lat="45.92842" lon="6.50428">
        <ele>1692</ele>
        <time>2017-08-29T10:17:15Z</time>
      </trkpt>
      <trkpt lat="45.92844" lon="6.50426">
        <ele>1691</ele>
        <time>2017-08-29T10:17:16Z</time>
      </trkpt>
      <trkpt lat="45.92845" lon="6.50425">
        <ele>1691</ele>
        <time>2017-08-29T10:17:17Z</time>
      </trkpt>
      <trkpt lat="45.92847" lon="6.50424">
        <ele>1690</ele>
        <time>2017-08-29T10:17:18Z</time>
      </trkpt>
      <trkpt lat="45.92849" lon="6.50423">
        <ele>1689</ele>
        <time>2017-08-29T10:17:19Z</time>
      </trkpt>
      <trkpt lat="45.92849" lon="6.50423">
        <ele>1689</ele>
        <time>2017-08-29T10:17:20Z</time>
      </trkpt>
      <trkpt lat="45.92852" lon="6.50422">
        <ele>1688</ele>
        <time>2017-08-29T10:17:21Z</time>
      </trkpt>
      <trkpt lat="45.92854" lon="6.50422">
        <ele>1688</ele>
        <time>2017-08-29T10:17:22Z</time>
      </trkpt>
      <trkpt lat="45.92857" lon="6.50422">
        <ele>1686</ele>
        <time>2017-08-29T10:17:23Z</time>
      </trkpt>
      <trkpt lat="45.92858" lon="6.50421">
        <ele>1685</ele>
        <time>2017-08-29T10:17:24Z</time>
      </trkpt>
      <trkpt lat="45.9286" lon="6.50419">
        <ele>1685</ele>
        <time>2017-08-29T10:17:25Z</time>
      </trkpt>
      <trkpt lat="45.92862" lon="6.50416">
        <ele>1685</ele>
        <time>2017-08-29T10:17:26Z</time>
      </trkpt>
      <trkpt lat="45.92864" lon="6.50414">
        <ele>1684</ele>
        <time>2017-08-29T10:17:27Z</time>
      </trkpt>
      <trkpt lat="45.92866" lon="6.50411">
        <ele>1684</ele>
        <time>2017-08-29T10:17:28Z</time>
      </trkpt>
      <trkpt lat="45.92868" lon="6.50409">
        <ele>1684</ele>
        <time>2017-08-29T10:17:29Z</time>
      </trkpt>
      <trkpt lat="45.92871" lon="6.50409">
        <ele>1684</ele>
        <time>2017-08-29T10:17:30Z</time>
      </trkpt>
      <trkpt lat="45.92873" lon="6.5041">
        <ele>1684</ele>
        <time>2017-08-29T10:17:31Z</time>
      </trkpt>
      <trkpt lat="45.92875" lon="6.5041">
        <ele>1684</ele>
        <time>2017-08-29T10:17:32Z</time>
      </trkpt>
      <trkpt lat="45.92875" lon="6.5041">
        <ele>1684</ele>
        <time>2017-08-29T10:17:33Z</time>
      </trkpt>
      <trkpt lat="45.92877" lon="6.50409">
        <ele>1683</ele>
        <time>2017-08-29T10:17:34Z</time>
      </trkpt>
      <trkpt lat="45.92877" lon="6.50409">
        <ele>1683</ele>
        <time>2017-08-29T10:17:35Z</time>
      </trkpt>
      <trkpt lat="45.92879" lon="6.50406">
        <ele>1683</ele>
        <time>2017-08-29T10:17:36Z</time>
      </trkpt>
      <trkpt lat="45.92879" lon="6.50406">
        <ele>1682</ele>
        <time>2017-08-29T10:17:37Z</time>
      </trkpt>
      <trkpt lat="45.92881" lon="6.50403">
        <ele>1681</ele>
        <time>2017-08-29T10:17:38Z</time>
      </trkpt>
      <trkpt lat="45.92881" lon="6.50403">
        <ele>1681</ele>
        <time>2017-08-29T10:17:39Z</time>
      </trkpt>
      <trkpt lat="45.92883" lon="6.504">
        <ele>1681</ele>
        <time>2017-08-29T10:17:40Z</time>
      </trkpt>
      <trkpt lat="45.92883" lon="6.504">
        <ele>1680</ele>
        <time>2017-08-29T10:17:41Z</time>
      </trkpt>
      <trkpt lat="45.92886" lon="6.50398">
        <ele>1679</ele>
        <time>2017-08-29T10:17:42Z</time>
      </trkpt>
      <trkpt lat="45.92886" lon="6.50398">
        <ele>1679</ele>
        <time>2017-08-29T10:17:43Z</time>
      </trkpt>
      <trkpt lat="45.92886" lon="6.50398">
        <ele>1679</ele>
        <time>2017-08-29T10:17:44Z</time>
      </trkpt>
      <trkpt lat="45.92888" lon="6.50395">
        <ele>1678</ele>
        <time>2017-08-29T10:17:45Z</time>
      </trkpt>
      <trkpt lat="45.92888" lon="6.50395">
        <ele>1678</ele>
        <time>2017-08-29T10:17:46Z</time>
      </trkpt>
      <trkpt lat="45.9289" lon="6.50394">
        <ele>1678</ele>
        <time>2017-08-29T10:17:47Z</time>
      </trkpt>
      <trkpt lat="45.9289" lon="6.50394">
        <ele>1677</ele>
        <time>2017-08-29T10:17:48Z</time>
      </trkpt>
      <trkpt lat="45.92892" lon="6.50392">
        <ele>1676</ele>
        <time>2017-08-29T10:17:49Z</time>
      </trkpt>
      <trkpt lat="45.92892" lon="6.50392">
        <ele>1675</ele>
        <time>2017-08-29T10:17:50Z</time>
      </trkpt>
      <trkpt lat="45.92894" lon="6.50389">
        <ele>1675</ele>
        <time>2017-08-29T10:17:51Z</time>
      </trkpt>
      <trkpt lat="45.92895" lon="6.50387">
        <ele>1674</ele>
        <time>2017-08-29T10:17:52Z</time>
      </trkpt>
      <trkpt lat="45.92894" lon="6.50384">
        <ele>1673</ele>
        <time>2017-08-29T10:17:53Z</time>
      </trkpt>
      <trkpt lat="45.92894" lon="6.50384">
        <ele>1673</ele>
        <time>2017-08-29T10:17:54Z</time>
      </trkpt>
      <trkpt lat="45.92892" lon="6.50381">
        <ele>1673</ele>
        <time>2017-08-29T10:17:55Z</time>
      </trkpt>
      <trkpt lat="45.92892" lon="6.50381">
        <ele>1671</ele>
        <time>2017-08-29T10:17:56Z</time>
      </trkpt>
      <trkpt lat="45.92889" lon="6.50377">
        <ele>1670</ele>
        <time>2017-08-29T10:17:57Z</time>
      </trkpt>
      <trkpt lat="45.92888" lon="6.50375">
        <ele>1670</ele>
        <time>2017-08-29T10:17:58Z</time>
      </trkpt>
      <trkpt lat="45.92886" lon="6.50373">
        <ele>1670</ele>
        <time>2017-08-29T10:17:59Z</time>
      </trkpt>
      <trkpt lat="45.92885" lon="6.50371">
        <ele>1670</ele>
        <time>2017-08-29T10:18:00Z</time>
      </trkpt>
      <trkpt lat="45.92884" lon="6.50369">
        <ele>1669</ele>
        <time>2017-08-29T10:18:01Z</time>
      </trkpt>
      <trkpt lat="45.92883" lon="6.50366">
        <ele>1669</ele>
        <time>2017-08-29T10:18:02Z</time>
      </trkpt>
      <trkpt lat="45.92881" lon="6.50363">
        <ele>1669</ele>
        <time>2017-08-29T10:18:03Z</time>
      </trkpt>
      <trkpt lat="45.9288" lon="6.50361">
        <ele>1669</ele>
        <time>2017-08-29T10:18:04Z</time>
      </trkpt>
      <trkpt lat="45.92878" lon="6.50358">
        <ele>1668</ele>
        <time>2017-08-29T10:18:05Z</time>
      </trkpt>
      <trkpt lat="45.92876" lon="6.50355">
        <ele>1667</ele>
        <time>2017-08-29T10:18:06Z</time>
      </trkpt>
      <trkpt lat="45.92875" lon="6.50352">
        <ele>1667</ele>
        <time>2017-08-29T10:18:07Z</time>
      </trkpt>
      <trkpt lat="45.92873" lon="6.5035">
        <ele>1666</ele>
        <time>2017-08-29T10:18:08Z</time>
      </trkpt>
      <trkpt lat="45.92872" lon="6.50347">
        <ele>1666</ele>
        <time>2017-08-29T10:18:09Z</time>
      </trkpt>
      <trkpt lat="45.92871" lon="6.50344">
        <ele>1666</ele>
        <time>2017-08-29T10:18:10Z</time>
      </trkpt>
      <trkpt lat="45.92871" lon="6.50341">
        <ele>1666</ele>
        <time>2017-08-29T10:18:11Z</time>
      </trkpt>
      <trkpt lat="45.9287" lon="6.50338">
        <ele>1666</ele>
        <time>2017-08-29T10:18:12Z</time>
      </trkpt>
      <trkpt lat="45.92869" lon="6.50336">
        <ele>1665</ele>
        <time>2017-08-29T10:18:13Z</time>
      </trkpt>
      <trkpt lat="45.92868" lon="6.50334">
        <ele>1665</ele>
        <time>2017-08-29T10:18:14Z</time>
      </trkpt>
      <trkpt lat="45.92868" lon="6.50334">
        <ele>1665</ele>
        <time>2017-08-29T10:18:15Z</time>
      </trkpt>
      <trkpt lat="45.92866" lon="6.50331">
        <ele>1664</ele>
        <time>2017-08-29T10:18:16Z</time>
      </trkpt>
      <trkpt lat="45.92866" lon="6.50331">
        <ele>1664</ele>
        <time>2017-08-29T10:18:17Z</time>
      </trkpt>
      <trkpt lat="45.92864" lon="6.50328">
        <ele>1663</ele>
        <time>2017-08-29T10:18:18Z</time>
      </trkpt>
      <trkpt lat="45.92864" lon="6.50328">
        <ele>1663</ele>
        <time>2017-08-29T10:18:19Z</time>
      </trkpt>
      <trkpt lat="45.92863" lon="6.50325">
        <ele>1663</ele>
        <time>2017-08-29T10:18:20Z</time>
      </trkpt>
      <trkpt lat="45.92863" lon="6.50325">
        <ele>1662</ele>
        <time>2017-08-29T10:18:21Z</time>
      </trkpt>
      <trkpt lat="45.9286" lon="6.50324">
        <ele>1662</ele>
        <time>2017-08-29T10:18:22Z</time>
      </trkpt>
      <trkpt lat="45.92858" lon="6.50323">
        <ele>1661</ele>
        <time>2017-08-29T10:18:23Z</time>
      </trkpt>
      <trkpt lat="45.92856" lon="6.50323">
        <ele>1661</ele>
        <time>2017-08-29T10:18:24Z</time>
      </trkpt>
      <trkpt lat="45.92856" lon="6.50323">
        <ele>1661</ele>
        <time>2017-08-29T10:18:25Z</time>
      </trkpt>
      <trkpt lat="45.92854" lon="6.50319">
        <ele>1660</ele>
        <time>2017-08-29T10:18:26Z</time>
      </trkpt>
      <trkpt lat="45.92854" lon="6.50316">
        <ele>1659</ele>
        <time>2017-08-29T10:18:27Z</time>
      </trkpt>
      <trkpt lat="45.92854" lon="6.50316">
        <ele>1659</ele>
        <time>2017-08-29T10:18:28Z</time>
      </trkpt>
      <trkpt lat="45.92853" lon="6.50312">
        <ele>1659</ele>
        <time>2017-08-29T10:18:29Z</time>
      </trkpt>
      <trkpt lat="45.92853" lon="6.50312">
        <ele>1659</ele>
        <time>2017-08-29T10:18:30Z</time>
      </trkpt>
      <trkpt lat="45.92852" lon="6.50307">
        <ele>1658</ele>
        <time>2017-08-29T10:18:31Z</time>
      </trkpt>
      <trkpt lat="45.92852" lon="6.50307">
        <ele>1657</ele>
        <time>2017-08-29T10:18:32Z</time>
      </trkpt>
      <trkpt lat="45.92852" lon="6.50304">
        <ele>1657</ele>
        <time>2017-08-29T10:18:33Z</time>
      </trkpt>
      <trkpt lat="45.92852" lon="6.50304">
        <ele>1655</ele>
        <time>2017-08-29T10:18:34Z</time>
      </trkpt>
      <trkpt lat="45.92851" lon="6.50299">
        <ele>1654</ele>
        <time>2017-08-29T10:18:35Z</time>
      </trkpt>
      <trkpt lat="45.92851" lon="6.50299">
        <ele>1654</ele>
        <time>2017-08-29T10:18:36Z</time>
      </trkpt>
      <trkpt lat="45.92849" lon="6.50296">
        <ele>1654</ele>
        <time>2017-08-29T10:18:37Z</time>
      </trkpt>
      <trkpt lat="45.92849" lon="6.50296">
        <ele>1654</ele>
        <time>2017-08-29T10:18:38Z</time>
      </trkpt>
      <trkpt lat="45.92846" lon="6.50295">
        <ele>1654</ele>
        <time>2017-08-29T10:18:39Z</time>
      </trkpt>
      <trkpt lat="45.92846" lon="6.50295">
        <ele>1654</ele>
        <time>2017-08-29T10:18:40Z</time>
      </trkpt>
      <trkpt lat="45.92844" lon="6.50291">
        <ele>1654</ele>
        <time>2017-08-29T10:18:41Z</time>
      </trkpt>
      <trkpt lat="45.92844" lon="6.50291">
        <ele>1653</ele>
        <time>2017-08-29T10:18:42Z</time>
      </trkpt>
      <trkpt lat="45.92841" lon="6.50289">
        <ele>1652</ele>
        <time>2017-08-29T10:18:43Z</time>
      </trkpt>
      <trkpt lat="45.92839" lon="6.50289">
        <ele>1651</ele>
        <time>2017-08-29T10:18:44Z</time>
      </trkpt>
      <trkpt lat="45.92837" lon="6.5029">
        <ele>1651</ele>
        <time>2017-08-29T10:18:45Z</time>
      </trkpt>
      <trkpt lat="45.92835" lon="6.50291">
        <ele>1651</ele>
        <time>2017-08-29T10:18:46Z</time>
      </trkpt>
      <trkpt lat="45.92833" lon="6.50291">
        <ele>1650</ele>
        <time>2017-08-29T10:18:47Z</time>
      </trkpt>
      <trkpt lat="45.92831" lon="6.5029">
        <ele>1650</ele>
        <time>2017-08-29T10:18:48Z</time>
      </trkpt>
      <trkpt lat="45.92829" lon="6.50288">
        <ele>1649</ele>
        <time>2017-08-29T10:18:49Z</time>
      </trkpt>
      <trkpt lat="45.92827" lon="6.50287">
        <ele>1649</ele>
        <time>2017-08-29T10:18:50Z</time>
      </trkpt>
      <trkpt lat="45.92825" lon="6.50286">
        <ele>1649</ele>
        <time>2017-08-29T10:18:51Z</time>
      </trkpt>
      <trkpt lat="45.92825" lon="6.50286">
        <ele>1649</ele>
        <time>2017-08-29T10:18:52Z</time>
      </trkpt>
      <trkpt lat="45.92823" lon="6.50283">
        <ele>1649</ele>
        <time>2017-08-29T10:18:53Z</time>
      </trkpt>
      <trkpt lat="45.92823" lon="6.50283">
        <ele>1648</ele>
        <time>2017-08-29T10:18:54Z</time>
      </trkpt>
      <trkpt lat="45.92822" lon="6.50279">
        <ele>1648</ele>
        <time>2017-08-29T10:18:55Z</time>
      </trkpt>
      <trkpt lat="45.92822" lon="6.50279">
        <ele>1647</ele>
        <time>2017-08-29T10:18:56Z</time>
      </trkpt>
      <trkpt lat="45.92819" lon="6.50276">
        <ele>1646</ele>
        <time>2017-08-29T10:18:57Z</time>
      </trkpt>
      <trkpt lat="45.92819" lon="6.50276">
        <ele>1646</ele>
        <time>2017-08-29T10:18:58Z</time>
      </trkpt>
      <trkpt lat="45.92817" lon="6.50272">
        <ele>1646</ele>
        <time>2017-08-29T10:18:59Z</time>
      </trkpt>
      <trkpt lat="45.92816" lon="6.5027">
        <ele>1646</ele>
        <time>2017-08-29T10:19:00Z</time>
      </trkpt>
      <trkpt lat="45.92816" lon="6.5027">
        <ele>1645</ele>
        <time>2017-08-29T10:19:01Z</time>
      </trkpt>
      <trkpt lat="45.92815" lon="6.50267">
        <ele>1645</ele>
        <time>2017-08-29T10:19:02Z</time>
      </trkpt>
      <trkpt lat="45.92815" lon="6.50267">
        <ele>1644</ele>
        <time>2017-08-29T10:19:03Z</time>
      </trkpt>
      <trkpt lat="45.92816" lon="6.50262">
        <ele>1643</ele>
        <time>2017-08-29T10:19:04Z</time>
      </trkpt>
      <trkpt lat="45.92817" lon="6.5026">
        <ele>1642</ele>
        <time>2017-08-29T10:19:05Z</time>
      </trkpt>
      <trkpt lat="45.92817" lon="6.5026">
        <ele>1641</ele>
        <time>2017-08-29T10:19:06Z</time>
      </trkpt>
      <trkpt lat="45.92817" lon="6.50255">
        <ele>1641</ele>
        <time>2017-08-29T10:19:07Z</time>
      </trkpt>
      <trkpt lat="45.92817" lon="6.50255">
        <ele>1641</ele>
        <time>2017-08-29T10:19:08Z</time>
      </trkpt>
      <trkpt lat="45.92816" lon="6.5025">
        <ele>1641</ele>
        <time>2017-08-29T10:19:09Z</time>
      </trkpt>
      <trkpt lat="45.92817" lon="6.50247">
        <ele>1640</ele>
        <time>2017-08-29T10:19:10Z</time>
      </trkpt>
      <trkpt lat="45.92816" lon="6.50244">
        <ele>1640</ele>
        <time>2017-08-29T10:19:11Z</time>
      </trkpt>
      <trkpt lat="45.92816" lon="6.50242">
        <ele>1638</ele>
        <time>2017-08-29T10:19:12Z</time>
      </trkpt>
      <trkpt lat="45.92816" lon="6.50239">
        <ele>1637</ele>
        <time>2017-08-29T10:19:13Z</time>
      </trkpt>
      <trkpt lat="45.92816" lon="6.50236">
        <ele>1637</ele>
        <time>2017-08-29T10:19:14Z</time>
      </trkpt>
      <trkpt lat="45.92816" lon="6.50233">
        <ele>1637</ele>
        <time>2017-08-29T10:19:15Z</time>
      </trkpt>
      <trkpt lat="45.92814" lon="6.5023">
        <ele>1636</ele>
        <time>2017-08-29T10:19:16Z</time>
      </trkpt>
      <trkpt lat="45.92813" lon="6.50229">
        <ele>1635</ele>
        <time>2017-08-29T10:19:17Z</time>
      </trkpt>
      <trkpt lat="45.9281" lon="6.50227">
        <ele>1635</ele>
        <time>2017-08-29T10:19:18Z</time>
      </trkpt>
      <trkpt lat="45.92808" lon="6.50225">
        <ele>1635</ele>
        <time>2017-08-29T10:19:19Z</time>
      </trkpt>
      <trkpt lat="45.92807" lon="6.50222">
        <ele>1635</ele>
        <time>2017-08-29T10:19:20Z</time>
      </trkpt>
      <trkpt lat="45.92806" lon="6.5022">
        <ele>1634</ele>
        <time>2017-08-29T10:19:21Z</time>
      </trkpt>
      <trkpt lat="45.92805" lon="6.50218">
        <ele>1634</ele>
        <time>2017-08-29T10:19:22Z</time>
      </trkpt>
      <trkpt lat="45.92804" lon="6.50215">
        <ele>1634</ele>
        <time>2017-08-29T10:19:23Z</time>
      </trkpt>
      <trkpt lat="45.92804" lon="6.50215">
        <ele>1634</ele>
        <time>2017-08-29T10:19:24Z</time>
      </trkpt>
      <trkpt lat="45.92803" lon="6.50211">
        <ele>1633</ele>
        <time>2017-08-29T10:19:25Z</time>
      </trkpt>
      <trkpt lat="45.92803" lon="6.50211">
        <ele>1632</ele>
        <time>2017-08-29T10:19:26Z</time>
      </trkpt>
      <trkpt lat="45.92801" lon="6.50208">
        <ele>1632</ele>
        <time>2017-08-29T10:19:27Z</time>
      </trkpt>
      <trkpt lat="45.92801" lon="6.50208">
        <ele>1632</ele>
        <time>2017-08-29T10:19:28Z</time>
      </trkpt>
      <trkpt lat="45.92799" lon="6.50205">
        <ele>1631</ele>
        <time>2017-08-29T10:19:29Z</time>
      </trkpt>
      <trkpt lat="45.92799" lon="6.50205">
        <ele>1631</ele>
        <time>2017-08-29T10:19:30Z</time>
      </trkpt>
      <trkpt lat="45.92797" lon="6.50201">
        <ele>1631</ele>
        <time>2017-08-29T10:19:31Z</time>
      </trkpt>
      <trkpt lat="45.92797" lon="6.50201">
        <ele>1630</ele>
        <time>2017-08-29T10:19:32Z</time>
      </trkpt>
      <trkpt lat="45.92795" lon="6.50199">
        <ele>1630</ele>
        <time>2017-08-29T10:19:33Z</time>
      </trkpt>
      <trkpt lat="45.92794" lon="6.50198">
        <ele>1630</ele>
        <time>2017-08-29T10:19:34Z</time>
      </trkpt>
      <trkpt lat="45.92792" lon="6.50196">
        <ele>1630</ele>
        <time>2017-08-29T10:19:35Z</time>
      </trkpt>
      <trkpt lat="45.9279" lon="6.50195">
        <ele>1629</ele>
        <time>2017-08-29T10:19:36Z</time>
      </trkpt>
      <trkpt lat="45.92789" lon="6.50193">
        <ele>1629</ele>
        <time>2017-08-29T10:19:37Z</time>
      </trkpt>
      <trkpt lat="45.92787" lon="6.50192">
        <ele>1629</ele>
        <time>2017-08-29T10:19:38Z</time>
      </trkpt>
      <trkpt lat="45.92787" lon="6.50192">
        <ele>1629</ele>
        <time>2017-08-29T10:19:39Z</time>
      </trkpt>
      <trkpt lat="45.92784" lon="6.50189">
        <ele>1629</ele>
        <time>2017-08-29T10:19:40Z</time>
      </trkpt>
      <trkpt lat="45.92783" lon="6.50187">
        <ele>1628</ele>
        <time>2017-08-29T10:19:41Z</time>
      </trkpt>
      <trkpt lat="45.92782" lon="6.50185">
        <ele>1628</ele>
        <time>2017-08-29T10:19:42Z</time>
      </trkpt>
      <trkpt lat="45.92782" lon="6.50185">
        <ele>1628</ele>
        <time>2017-08-29T10:19:43Z</time>
      </trkpt>
      <trkpt lat="45.9278" lon="6.50182">
        <ele>1627</ele>
        <time>2017-08-29T10:19:44Z</time>
      </trkpt>
      <trkpt lat="45.9278" lon="6.50182">
        <ele>1626</ele>
        <time>2017-08-29T10:19:45Z</time>
      </trkpt>
      <trkpt lat="45.92778" lon="6.50179">
        <ele>1626</ele>
        <time>2017-08-29T10:19:46Z</time>
      </trkpt>
      <trkpt lat="45.92778" lon="6.50179">
        <ele>1626</ele>
        <time>2017-08-29T10:19:47Z</time>
      </trkpt>
      <trkpt lat="45.92776" lon="6.50175">
        <ele>1625</ele>
        <time>2017-08-29T10:19:48Z</time>
      </trkpt>
      <trkpt lat="45.92776" lon="6.50175">
        <ele>1625</ele>
        <time>2017-08-29T10:19:49Z</time>
      </trkpt>
      <trkpt lat="45.92773" lon="6.50172">
        <ele>1625</ele>
        <time>2017-08-29T10:19:50Z</time>
      </trkpt>
      <trkpt lat="45.92771" lon="6.50171">
        <ele>1625</ele>
        <time>2017-08-29T10:19:51Z</time>
      </trkpt>
      <trkpt lat="45.92769" lon="6.50169">
        <ele>1625</ele>
        <time>2017-08-29T10:19:52Z</time>
      </trkpt>
      <trkpt lat="45.92767" lon="6.50166">
        <ele>1624</ele>
        <time>2017-08-29T10:19:53Z</time>
      </trkpt>
      <trkpt lat="45.92766" lon="6.50164">
        <ele>1624</ele>
        <time>2017-08-29T10:19:54Z</time>
      </trkpt>
      <trkpt lat="45.92765" lon="6.50161">
        <ele>1624</ele>
        <time>2017-08-29T10:19:55Z</time>
      </trkpt>
      <trkpt lat="45.92764" lon="6.50158">
        <ele>1624</ele>
        <time>2017-08-29T10:19:56Z</time>
      </trkpt>
      <trkpt lat="45.92764" lon="6.50158">
        <ele>1624</ele>
        <time>2017-08-29T10:19:57Z</time>
      </trkpt>
      <trkpt lat="45.92762" lon="6.50155">
        <ele>1623</ele>
        <time>2017-08-29T10:19:58Z</time>
      </trkpt>
      <trkpt lat="45.92761" lon="6.50152">
        <ele>1623</ele>
        <time>2017-08-29T10:19:59Z</time>
      </trkpt>
      <trkpt lat="45.92759" lon="6.5015">
        <ele>1623</ele>
        <time>2017-08-29T10:20:00Z</time>
      </trkpt>
      <trkpt lat="45.92758" lon="6.50148">
        <ele>1622</ele>
        <time>2017-08-29T10:20:01Z</time>
      </trkpt>
      <trkpt lat="45.92756" lon="6.50146">
        <ele>1622</ele>
        <time>2017-08-29T10:20:02Z</time>
      </trkpt>
      <trkpt lat="45.92755" lon="6.50144">
        <ele>1622</ele>
        <time>2017-08-29T10:20:03Z</time>
      </trkpt>
      <trkpt lat="45.92753" lon="6.50142">
        <ele>1622</ele>
        <time>2017-08-29T10:20:04Z</time>
      </trkpt>
      <trkpt lat="45.92752" lon="6.5014">
        <ele>1621</ele>
        <time>2017-08-29T10:20:05Z</time>
      </trkpt>
      <trkpt lat="45.92752" lon="6.5014">
        <ele>1621</ele>
        <time>2017-08-29T10:20:06Z</time>
      </trkpt>
      <trkpt lat="45.9275" lon="6.50136">
        <ele>1621</ele>
        <time>2017-08-29T10:20:07Z</time>
      </trkpt>
      <trkpt lat="45.92749" lon="6.50134">
        <ele>1621</ele>
        <time>2017-08-29T10:20:08Z</time>
      </trkpt>
      <trkpt lat="45.92748" lon="6.5013">
        <ele>1620</ele>
        <time>2017-08-29T10:20:09Z</time>
      </trkpt>
      <trkpt lat="45.92747" lon="6.50128">
        <ele>1620</ele>
        <time>2017-08-29T10:20:10Z</time>
      </trkpt>
      <trkpt lat="45.92746" lon="6.50125">
        <ele>1620</ele>
        <time>2017-08-29T10:20:11Z</time>
      </trkpt>
      <trkpt lat="45.92744" lon="6.50123">
        <ele>1620</ele>
        <time>2017-08-29T10:20:12Z</time>
      </trkpt>
      <trkpt lat="45.92743" lon="6.5012">
        <ele>1620</ele>
        <time>2017-08-29T10:20:13Z</time>
      </trkpt>
      <trkpt lat="45.92742" lon="6.50117">
        <ele>1620</ele>
        <time>2017-08-29T10:20:14Z</time>
      </trkpt>
      <trkpt lat="45.92741" lon="6.50115">
        <ele>1619</ele>
        <time>2017-08-29T10:20:15Z</time>
      </trkpt>
      <trkpt lat="45.9274" lon="6.50113">
        <ele>1619</ele>
        <time>2017-08-29T10:20:16Z</time>
      </trkpt>
      <trkpt lat="45.92739" lon="6.50111">
        <ele>1619</ele>
        <time>2017-08-29T10:20:17Z</time>
      </trkpt>
      <trkpt lat="45.92737" lon="6.50109">
        <ele>1618</ele>
        <time>2017-08-29T10:20:18Z</time>
      </trkpt>
      <trkpt lat="45.92735" lon="6.50106">
        <ele>1618</ele>
        <time>2017-08-29T10:20:19Z</time>
      </trkpt>
      <trkpt lat="45.92733" lon="6.50104">
        <ele>1618</ele>
        <time>2017-08-29T10:20:20Z</time>
      </trkpt>
      <trkpt lat="45.92732" lon="6.50102">
        <ele>1618</ele>
        <time>2017-08-29T10:20:21Z</time>
      </trkpt>
      <trkpt lat="45.9273" lon="6.50101">
        <ele>1618</ele>
        <time>2017-08-29T10:20:22Z</time>
      </trkpt>
      <trkpt lat="45.9273" lon="6.50101">
        <ele>1618</ele>
        <time>2017-08-29T10:20:23Z</time>
      </trkpt>
      <trkpt lat="45.92727" lon="6.501">
        <ele>1617</ele>
        <time>2017-08-29T10:20:24Z</time>
      </trkpt>
      <trkpt lat="45.92727" lon="6.501">
        <ele>1617</ele>
        <time>2017-08-29T10:20:25Z</time>
      </trkpt>
      <trkpt lat="45.92724" lon="6.50101">
        <ele>1617</ele>
        <time>2017-08-29T10:20:26Z</time>
      </trkpt>
      <trkpt lat="45.92724" lon="6.50101">
        <ele>1617</ele>
        <time>2017-08-29T10:20:27Z</time>
      </trkpt>
      <trkpt lat="45.92721" lon="6.501">
        <ele>1616</ele>
        <time>2017-08-29T10:20:28Z</time>
      </trkpt>
      <trkpt lat="45.92719" lon="6.501">
        <ele>1615</ele>
        <time>2017-08-29T10:20:29Z</time>
      </trkpt>
      <trkpt lat="45.92716" lon="6.50101">
        <ele>1615</ele>
        <time>2017-08-29T10:20:30Z</time>
      </trkpt>
      <trkpt lat="45.92714" lon="6.50102">
        <ele>1615</ele>
        <time>2017-08-29T10:20:31Z</time>
      </trkpt>
      <trkpt lat="45.92711" lon="6.50103">
        <ele>1615</ele>
        <time>2017-08-29T10:20:32Z</time>
      </trkpt>
      <trkpt lat="45.92709" lon="6.50104">
        <ele>1615</ele>
        <time>2017-08-29T10:20:33Z</time>
      </trkpt>
      <trkpt lat="45.92706" lon="6.50104">
        <ele>1615</ele>
        <time>2017-08-29T10:20:34Z</time>
      </trkpt>
      <trkpt lat="45.92704" lon="6.50103">
        <ele>1614</ele>
        <time>2017-08-29T10:20:35Z</time>
      </trkpt>
      <trkpt lat="45.92702" lon="6.50101">
        <ele>1614</ele>
        <time>2017-08-29T10:20:36Z</time>
      </trkpt>
      <trkpt lat="45.92701" lon="6.50099">
        <ele>1614</ele>
        <time>2017-08-29T10:20:37Z</time>
      </trkpt>
      <trkpt lat="45.927" lon="6.50096">
        <ele>1614</ele>
        <time>2017-08-29T10:20:38Z</time>
      </trkpt>
      <trkpt lat="45.927" lon="6.50093">
        <ele>1614</ele>
        <time>2017-08-29T10:20:39Z</time>
      </trkpt>
      <trkpt lat="45.92699" lon="6.50089">
        <ele>1614</ele>
        <time>2017-08-29T10:20:40Z</time>
      </trkpt>
      <trkpt lat="45.92699" lon="6.50086">
        <ele>1614</ele>
        <time>2017-08-29T10:20:41Z</time>
      </trkpt>
      <trkpt lat="45.92698" lon="6.50084">
        <ele>1613</ele>
        <time>2017-08-29T10:20:42Z</time>
      </trkpt>
      <trkpt lat="45.92698" lon="6.50081">
        <ele>1612</ele>
        <time>2017-08-29T10:20:43Z</time>
      </trkpt>
      <trkpt lat="45.92697" lon="6.50079">
        <ele>1611</ele>
        <time>2017-08-29T10:20:44Z</time>
      </trkpt>
      <trkpt lat="45.92697" lon="6.50075">
        <ele>1610</ele>
        <time>2017-08-29T10:20:45Z</time>
      </trkpt>
      <trkpt lat="45.92697" lon="6.50072">
        <ele>1610</ele>
        <time>2017-08-29T10:20:46Z</time>
      </trkpt>
      <trkpt lat="45.92697" lon="6.5007">
        <ele>1608</ele>
        <time>2017-08-29T10:20:47Z</time>
      </trkpt>
      <trkpt lat="45.92698" lon="6.50067">
        <ele>1607</ele>
        <time>2017-08-29T10:20:48Z</time>
      </trkpt>
      <trkpt lat="45.92699" lon="6.50065">
        <ele>1607</ele>
        <time>2017-08-29T10:20:49Z</time>
      </trkpt>
      <trkpt lat="45.92699" lon="6.50065">
        <ele>1607</ele>
        <time>2017-08-29T10:20:50Z</time>
      </trkpt>
      <trkpt lat="45.92701" lon="6.5006">
        <ele>1607</ele>
        <time>2017-08-29T10:20:51Z</time>
      </trkpt>
      <trkpt lat="45.92701" lon="6.50058">
        <ele>1607</ele>
        <time>2017-08-29T10:20:52Z</time>
      </trkpt>
      <trkpt lat="45.92701" lon="6.50058">
        <ele>1607</ele>
        <time>2017-08-29T10:20:53Z</time>
      </trkpt>
      <trkpt lat="45.927" lon="6.50053">
        <ele>1606</ele>
        <time>2017-08-29T10:20:54Z</time>
      </trkpt>
      <trkpt lat="45.927" lon="6.50053">
        <ele>1605</ele>
        <time>2017-08-29T10:20:55Z</time>
      </trkpt>
      <trkpt lat="45.92698" lon="6.50049">
        <ele>1604</ele>
        <time>2017-08-29T10:20:56Z</time>
      </trkpt>
      <trkpt lat="45.92696" lon="6.50047">
        <ele>1604</ele>
        <time>2017-08-29T10:20:57Z</time>
      </trkpt>
      <trkpt lat="45.92695" lon="6.50045">
        <ele>1604</ele>
        <time>2017-08-29T10:20:58Z</time>
      </trkpt>
      <trkpt lat="45.92694" lon="6.50043">
        <ele>1602</ele>
        <time>2017-08-29T10:20:59Z</time>
      </trkpt>
      <trkpt lat="45.92693" lon="6.5004">
        <ele>1601</ele>
        <time>2017-08-29T10:21:00Z</time>
      </trkpt>
      <trkpt lat="45.92691" lon="6.50038">
        <ele>1601</ele>
        <time>2017-08-29T10:21:01Z</time>
      </trkpt>
      <trkpt lat="45.9269" lon="6.50036">
        <ele>1601</ele>
        <time>2017-08-29T10:21:02Z</time>
      </trkpt>
      <trkpt lat="45.92689" lon="6.50033">
        <ele>1600</ele>
        <time>2017-08-29T10:21:03Z</time>
      </trkpt>
      <trkpt lat="45.92688" lon="6.50031">
        <ele>1600</ele>
        <time>2017-08-29T10:21:04Z</time>
      </trkpt>
      <trkpt lat="45.92688" lon="6.50028">
        <ele>1600</ele>
        <time>2017-08-29T10:21:05Z</time>
      </trkpt>
      <trkpt lat="45.92688" lon="6.50025">
        <ele>1599</ele>
        <time>2017-08-29T10:21:06Z</time>
      </trkpt>
      <trkpt lat="45.92688" lon="6.50022">
        <ele>1598</ele>
        <time>2017-08-29T10:21:07Z</time>
      </trkpt>
      <trkpt lat="45.92688" lon="6.50019">
        <ele>1598</ele>
        <time>2017-08-29T10:21:08Z</time>
      </trkpt>
      <trkpt lat="45.92688" lon="6.50015">
        <ele>1597</ele>
        <time>2017-08-29T10:21:09Z</time>
      </trkpt>
      <trkpt lat="45.92688" lon="6.50012">
        <ele>1597</ele>
        <time>2017-08-29T10:21:10Z</time>
      </trkpt>
      <trkpt lat="45.92688" lon="6.50009">
        <ele>1597</ele>
        <time>2017-08-29T10:21:11Z</time>
      </trkpt>
      <trkpt lat="45.92689" lon="6.50005">
        <ele>1596</ele>
        <time>2017-08-29T10:21:12Z</time>
      </trkpt>
      <trkpt lat="45.92689" lon="6.50002">
        <ele>1596</ele>
        <time>2017-08-29T10:21:13Z</time>
      </trkpt>
      <trkpt lat="45.92689" lon="6.49999">
        <ele>1596</ele>
        <time>2017-08-29T10:21:14Z</time>
      </trkpt>
      <trkpt lat="45.92689" lon="6.49996">
        <ele>1595</ele>
        <time>2017-08-29T10:21:15Z</time>
      </trkpt>
      <trkpt lat="45.92689" lon="6.49993">
        <ele>1594</ele>
        <time>2017-08-29T10:21:16Z</time>
      </trkpt>
      <trkpt lat="45.92688" lon="6.4999">
        <ele>1594</ele>
        <time>2017-08-29T10:21:17Z</time>
      </trkpt>
      <trkpt lat="45.92688" lon="6.49987">
        <ele>1594</ele>
        <time>2017-08-29T10:21:18Z</time>
      </trkpt>
      <trkpt lat="45.92687" lon="6.49983">
        <ele>1593</ele>
        <time>2017-08-29T10:21:19Z</time>
      </trkpt>
      <trkpt lat="45.92687" lon="6.49979">
        <ele>1593</ele>
        <time>2017-08-29T10:21:20Z</time>
      </trkpt>
      <trkpt lat="45.92687" lon="6.49976">
        <ele>1592</ele>
        <time>2017-08-29T10:21:21Z</time>
      </trkpt>
      <trkpt lat="45.92686" lon="6.49973">
        <ele>1592</ele>
        <time>2017-08-29T10:21:22Z</time>
      </trkpt>
      <trkpt lat="45.92686" lon="6.4997">
        <ele>1591</ele>
        <time>2017-08-29T10:21:23Z</time>
      </trkpt>
      <trkpt lat="45.92685" lon="6.49966">
        <ele>1591</ele>
        <time>2017-08-29T10:21:24Z</time>
      </trkpt>
      <trkpt lat="45.92684" lon="6.49963">
        <ele>1589</ele>
        <time>2017-08-29T10:21:25Z</time>
      </trkpt>
      <trkpt lat="45.92683" lon="6.49961">
        <ele>1588</ele>
        <time>2017-08-29T10:21:26Z</time>
      </trkpt>
      <trkpt lat="45.92682" lon="6.49958">
        <ele>1588</ele>
        <time>2017-08-29T10:21:27Z</time>
      </trkpt>
      <trkpt lat="45.92683" lon="6.49955">
        <ele>1588</ele>
        <time>2017-08-29T10:21:28Z</time>
      </trkpt>
      <trkpt lat="45.92682" lon="6.49952">
        <ele>1588</ele>
        <time>2017-08-29T10:21:29Z</time>
      </trkpt>
      <trkpt lat="45.92682" lon="6.4995">
        <ele>1587</ele>
        <time>2017-08-29T10:21:30Z</time>
      </trkpt>
      <trkpt lat="45.92682" lon="6.49947">
        <ele>1587</ele>
        <time>2017-08-29T10:21:31Z</time>
      </trkpt>
      <trkpt lat="45.92682" lon="6.49944">
        <ele>1586</ele>
        <time>2017-08-29T10:21:32Z</time>
      </trkpt>
      <trkpt lat="45.92682" lon="6.49944">
        <ele>1586</ele>
        <time>2017-08-29T10:21:33Z</time>
      </trkpt>
      <trkpt lat="45.92682" lon="6.49939">
        <ele>1585</ele>
        <time>2017-08-29T10:21:34Z</time>
      </trkpt>
      <trkpt lat="45.92682" lon="6.49939">
        <ele>1585</ele>
        <time>2017-08-29T10:21:35Z</time>
      </trkpt>
      <trkpt lat="45.92683" lon="6.49936">
        <ele>1584</ele>
        <time>2017-08-29T10:21:36Z</time>
      </trkpt>
      <trkpt lat="45.92683" lon="6.49936">
        <ele>1584</ele>
        <time>2017-08-29T10:21:37Z</time>
      </trkpt>
      <trkpt lat="45.92684" lon="6.49931">
        <ele>1584</ele>
        <time>2017-08-29T10:21:38Z</time>
      </trkpt>
      <trkpt lat="45.92684" lon="6.49931">
        <ele>1583</ele>
        <time>2017-08-29T10:21:39Z</time>
      </trkpt>
      <trkpt lat="45.92685" lon="6.49928">
        <ele>1582</ele>
        <time>2017-08-29T10:21:40Z</time>
      </trkpt>
      <trkpt lat="45.92685" lon="6.49925">
        <ele>1582</ele>
        <time>2017-08-29T10:21:41Z</time>
      </trkpt>
      <trkpt lat="45.92685" lon="6.49923">
        <ele>1581</ele>
        <time>2017-08-29T10:21:42Z</time>
      </trkpt>
      <trkpt lat="45.92685" lon="6.4992">
        <ele>1581</ele>
        <time>2017-08-29T10:21:43Z</time>
      </trkpt>
      <trkpt lat="45.92685" lon="6.4992">
        <ele>1580</ele>
        <time>2017-08-29T10:21:44Z</time>
      </trkpt>
      <trkpt lat="45.92686" lon="6.49915">
        <ele>1579</ele>
        <time>2017-08-29T10:21:45Z</time>
      </trkpt>
      <trkpt lat="45.92686" lon="6.49912">
        <ele>1579</ele>
        <time>2017-08-29T10:21:46Z</time>
      </trkpt>
      <trkpt lat="45.92687" lon="6.49909">
        <ele>1579</ele>
        <time>2017-08-29T10:21:47Z</time>
      </trkpt>
      <trkpt lat="45.92687" lon="6.49906">
        <ele>1579</ele>
        <time>2017-08-29T10:21:48Z</time>
      </trkpt>
      <trkpt lat="45.92686" lon="6.49902">
        <ele>1578</ele>
        <time>2017-08-29T10:21:49Z</time>
      </trkpt>
      <trkpt lat="45.92686" lon="6.49898">
        <ele>1577</ele>
        <time>2017-08-29T10:21:50Z</time>
      </trkpt>
      <trkpt lat="45.92686" lon="6.49895">
        <ele>1577</ele>
        <time>2017-08-29T10:21:51Z</time>
      </trkpt>
      <trkpt lat="45.92685" lon="6.49891">
        <ele>1577</ele>
        <time>2017-08-29T10:21:52Z</time>
      </trkpt>
      <trkpt lat="45.92685" lon="6.49887">
        <ele>1577</ele>
        <time>2017-08-29T10:21:53Z</time>
      </trkpt>
      <trkpt lat="45.92684" lon="6.49884">
        <ele>1576</ele>
        <time>2017-08-29T10:21:54Z</time>
      </trkpt>
      <trkpt lat="45.92684" lon="6.4988">
        <ele>1575</ele>
        <time>2017-08-29T10:21:55Z</time>
      </trkpt>
      <trkpt lat="45.92683" lon="6.49877">
        <ele>1575</ele>
        <time>2017-08-29T10:21:56Z</time>
      </trkpt>
      <trkpt lat="45.92683" lon="6.49875">
        <ele>1575</ele>
        <time>2017-08-29T10:21:57Z</time>
      </trkpt>
      <trkpt lat="45.92682" lon="6.49872">
        <ele>1575</ele>
        <time>2017-08-29T10:21:58Z</time>
      </trkpt>
      <trkpt lat="45.92682" lon="6.49869">
        <ele>1575</ele>
        <time>2017-08-29T10:21:59Z</time>
      </trkpt>
      <trkpt lat="45.92682" lon="6.49869">
        <ele>1575</ele>
        <time>2017-08-29T10:22:00Z</time>
      </trkpt>
      <trkpt lat="45.92681" lon="6.49864">
        <ele>1574</ele>
        <time>2017-08-29T10:22:01Z</time>
      </trkpt>
      <trkpt lat="45.92681" lon="6.49864">
        <ele>1574</ele>
        <time>2017-08-29T10:22:02Z</time>
      </trkpt>
      <trkpt lat="45.92681" lon="6.49859">
        <ele>1573</ele>
        <time>2017-08-29T10:22:03Z</time>
      </trkpt>
      <trkpt lat="45.92681" lon="6.49859">
        <ele>1573</ele>
        <time>2017-08-29T10:22:04Z</time>
      </trkpt>
      <trkpt lat="45.92682" lon="6.49854">
        <ele>1573</ele>
        <time>2017-08-29T10:22:05Z</time>
      </trkpt>
      <trkpt lat="45.92682" lon="6.49852">
        <ele>1573</ele>
        <time>2017-08-29T10:22:06Z</time>
      </trkpt>
      <trkpt lat="45.92682" lon="6.49852">
        <ele>1573</ele>
        <time>2017-08-29T10:22:07Z</time>
      </trkpt>
      <trkpt lat="45.92683" lon="6.49847">
        <ele>1573</ele>
        <time>2017-08-29T10:22:08Z</time>
      </trkpt>
      <trkpt lat="45.92683" lon="6.49847">
        <ele>1572</ele>
        <time>2017-08-29T10:22:09Z</time>
      </trkpt>
      <trkpt lat="45.92683" lon="6.49843">
        <ele>1572</ele>
        <time>2017-08-29T10:22:10Z</time>
      </trkpt>
      <trkpt lat="45.92683" lon="6.49843">
        <ele>1572</ele>
        <time>2017-08-29T10:22:11Z</time>
      </trkpt>
      <trkpt lat="45.92683" lon="6.49838">
        <ele>1572</ele>
        <time>2017-08-29T10:22:12Z</time>
      </trkpt>
      <trkpt lat="45.92683" lon="6.49838">
        <ele>1572</ele>
        <time>2017-08-29T10:22:13Z</time>
      </trkpt>
      <trkpt lat="45.92682" lon="6.49836">
        <ele>1572</ele>
        <time>2017-08-29T10:22:14Z</time>
      </trkpt>
      <trkpt lat="45.92682" lon="6.49836">
        <ele>1572</ele>
        <time>2017-08-29T10:22:15Z</time>
      </trkpt>
      <trkpt lat="45.9268" lon="6.49832">
        <ele>1571</ele>
        <time>2017-08-29T10:22:16Z</time>
      </trkpt>
      <trkpt lat="45.9268" lon="6.49832">
        <ele>1571</ele>
        <time>2017-08-29T10:22:17Z</time>
      </trkpt>
      <trkpt lat="45.92679" lon="6.49829">
        <ele>1571</ele>
        <time>2017-08-29T10:22:18Z</time>
      </trkpt>
      <trkpt lat="45.92679" lon="6.49829">
        <ele>1570</ele>
        <time>2017-08-29T10:22:19Z</time>
      </trkpt>
      <trkpt lat="45.92677" lon="6.49824">
        <ele>1570</ele>
        <time>2017-08-29T10:22:20Z</time>
      </trkpt>
      <trkpt lat="45.92677" lon="6.49821">
        <ele>1570</ele>
        <time>2017-08-29T10:22:21Z</time>
      </trkpt>
      <trkpt lat="45.92676" lon="6.49817">
        <ele>1569</ele>
        <time>2017-08-29T10:22:22Z</time>
      </trkpt>
      <trkpt lat="45.92675" lon="6.49813">
        <ele>1568</ele>
        <time>2017-08-29T10:22:23Z</time>
      </trkpt>
      <trkpt lat="45.92674" lon="6.4981">
        <ele>1567</ele>
        <time>2017-08-29T10:22:24Z</time>
      </trkpt>
      <trkpt lat="45.92673" lon="6.49807">
        <ele>1567</ele>
        <time>2017-08-29T10:22:25Z</time>
      </trkpt>
      <trkpt lat="45.92673" lon="6.49804">
        <ele>1567</ele>
        <time>2017-08-29T10:22:26Z</time>
      </trkpt>
      <trkpt lat="45.92672" lon="6.49801">
        <ele>1567</ele>
        <time>2017-08-29T10:22:27Z</time>
      </trkpt>
      <trkpt lat="45.92671" lon="6.49798">
        <ele>1567</ele>
        <time>2017-08-29T10:22:28Z</time>
      </trkpt>
      <trkpt lat="45.92671" lon="6.49798">
        <ele>1566</ele>
        <time>2017-08-29T10:22:29Z</time>
      </trkpt>
      <trkpt lat="45.92669" lon="6.49794">
        <ele>1565</ele>
        <time>2017-08-29T10:22:30Z</time>
      </trkpt>
      <trkpt lat="45.92668" lon="6.49791">
        <ele>1565</ele>
        <time>2017-08-29T10:22:31Z</time>
      </trkpt>
      <trkpt lat="45.92668" lon="6.49789">
        <ele>1565</ele>
        <time>2017-08-29T10:22:32Z</time>
      </trkpt>
      <trkpt lat="45.92668" lon="6.49789">
        <ele>1564</ele>
        <time>2017-08-29T10:22:33Z</time>
      </trkpt>
      <trkpt lat="45.92666" lon="6.49786">
        <ele>1564</ele>
        <time>2017-08-29T10:22:34Z</time>
      </trkpt>
      <trkpt lat="45.92666" lon="6.49786">
        <ele>1564</ele>
        <time>2017-08-29T10:22:35Z</time>
      </trkpt>
      <trkpt lat="45.92665" lon="6.49783">
        <ele>1564</ele>
        <time>2017-08-29T10:22:36Z</time>
      </trkpt>
      <trkpt lat="45.92665" lon="6.49781">
        <ele>1564</ele>
        <time>2017-08-29T10:22:37Z</time>
      </trkpt>
      <trkpt lat="45.92665" lon="6.49778">
        <ele>1563</ele>
        <time>2017-08-29T10:22:38Z</time>
      </trkpt>
      <trkpt lat="45.92665" lon="6.49778">
        <ele>1562</ele>
        <time>2017-08-29T10:22:39Z</time>
      </trkpt>
      <trkpt lat="45.92665" lon="6.49773">
        <ele>1562</ele>
        <time>2017-08-29T10:22:40Z</time>
      </trkpt>
      <trkpt lat="45.92665" lon="6.4977">
        <ele>1562</ele>
        <time>2017-08-29T10:22:41Z</time>
      </trkpt>
      <trkpt lat="45.92665" lon="6.49766">
        <ele>1561</ele>
        <time>2017-08-29T10:22:42Z</time>
      </trkpt>
      <trkpt lat="45.92664" lon="6.49763">
        <ele>1561</ele>
        <time>2017-08-29T10:22:43Z</time>
      </trkpt>
      <trkpt lat="45.92663" lon="6.4976">
        <ele>1561</ele>
        <time>2017-08-29T10:22:44Z</time>
      </trkpt>
      <trkpt lat="45.92663" lon="6.49758">
        <ele>1560</ele>
        <time>2017-08-29T10:22:45Z</time>
      </trkpt>
      <trkpt lat="45.92663" lon="6.49758">
        <ele>1560</ele>
        <time>2017-08-29T10:22:46Z</time>
      </trkpt>
      <trkpt lat="45.92662" lon="6.49754">
        <ele>1560</ele>
        <time>2017-08-29T10:22:47Z</time>
      </trkpt>
      <trkpt lat="45.92662" lon="6.49754">
        <ele>1559</ele>
        <time>2017-08-29T10:22:48Z</time>
      </trkpt>
      <trkpt lat="45.92661" lon="6.4975">
        <ele>1559</ele>
        <time>2017-08-29T10:22:49Z</time>
      </trkpt>
      <trkpt lat="45.9266" lon="6.49748">
        <ele>1558</ele>
        <time>2017-08-29T10:22:50Z</time>
      </trkpt>
      <trkpt lat="45.92658" lon="6.49745">
        <ele>1558</ele>
        <time>2017-08-29T10:22:51Z</time>
      </trkpt>
      <trkpt lat="45.92656" lon="6.49743">
        <ele>1558</ele>
        <time>2017-08-29T10:22:52Z</time>
      </trkpt>
      <trkpt lat="45.92655" lon="6.49742">
        <ele>1558</ele>
        <time>2017-08-29T10:22:53Z</time>
      </trkpt>
      <trkpt lat="45.92655" lon="6.49742">
        <ele>1558</ele>
        <time>2017-08-29T10:22:54Z</time>
      </trkpt>
      <trkpt lat="45.92652" lon="6.49739">
        <ele>1558</ele>
        <time>2017-08-29T10:22:55Z</time>
      </trkpt>
      <trkpt lat="45.92651" lon="6.49737">
        <ele>1557</ele>
        <time>2017-08-29T10:22:56Z</time>
      </trkpt>
      <trkpt lat="45.92649" lon="6.49735">
        <ele>1557</ele>
        <time>2017-08-29T10:22:57Z</time>
      </trkpt>
      <trkpt lat="45.92648" lon="6.49732">
        <ele>1556</ele>
        <time>2017-08-29T10:22:58Z</time>
      </trkpt>
      <trkpt lat="45.92647" lon="6.4973">
        <ele>1556</ele>
        <time>2017-08-29T10:22:59Z</time>
      </trkpt>
      <trkpt lat="45.92647" lon="6.49727">
        <ele>1556</ele>
        <time>2017-08-29T10:23:00Z</time>
      </trkpt>
      <trkpt lat="45.92647" lon="6.49727">
        <ele>1556</ele>
        <time>2017-08-29T10:23:01Z</time>
      </trkpt>
      <trkpt lat="45.92645" lon="6.49723">
        <ele>1556</ele>
        <time>2017-08-29T10:23:02Z</time>
      </trkpt>
      <trkpt lat="45.92645" lon="6.49723">
        <ele>1555</ele>
        <time>2017-08-29T10:23:03Z</time>
      </trkpt>
      <trkpt lat="45.92643" lon="6.49719">
        <ele>1555</ele>
        <time>2017-08-29T10:23:04Z</time>
      </trkpt>
      <trkpt lat="45.92642" lon="6.49717">
        <ele>1555</ele>
        <time>2017-08-29T10:23:05Z</time>
      </trkpt>
      <trkpt lat="45.92641" lon="6.49714">
        <ele>1555</ele>
        <time>2017-08-29T10:23:06Z</time>
      </trkpt>
      <trkpt lat="45.9264" lon="6.49711">
        <ele>1554</ele>
        <time>2017-08-29T10:23:07Z</time>
      </trkpt>
      <trkpt lat="45.92639" lon="6.49708">
        <ele>1554</ele>
        <time>2017-08-29T10:23:08Z</time>
      </trkpt>
      <trkpt lat="45.92638" lon="6.49706">
        <ele>1554</ele>
        <time>2017-08-29T10:23:09Z</time>
      </trkpt>
      <trkpt lat="45.92638" lon="6.49706">
        <ele>1553</ele>
        <time>2017-08-29T10:23:10Z</time>
      </trkpt>
      <trkpt lat="45.92636" lon="6.49702">
        <ele>1553</ele>
        <time>2017-08-29T10:23:11Z</time>
      </trkpt>
      <trkpt lat="45.92636" lon="6.49699">
        <ele>1553</ele>
        <time>2017-08-29T10:23:12Z</time>
      </trkpt>
      <trkpt lat="45.92635" lon="6.49696">
        <ele>1553</ele>
        <time>2017-08-29T10:23:13Z</time>
      </trkpt>
      <trkpt lat="45.92634" lon="6.49694">
        <ele>1553</ele>
        <time>2017-08-29T10:23:14Z</time>
      </trkpt>
      <trkpt lat="45.92634" lon="6.49691">
        <ele>1553</ele>
        <time>2017-08-29T10:23:15Z</time>
      </trkpt>
      <trkpt lat="45.92633" lon="6.49689">
        <ele>1553</ele>
        <time>2017-08-29T10:23:16Z</time>
      </trkpt>
      <trkpt lat="45.92633" lon="6.49686">
        <ele>1552</ele>
        <time>2017-08-29T10:23:17Z</time>
      </trkpt>
      <trkpt lat="45.92633" lon="6.49682">
        <ele>1552</ele>
        <time>2017-08-29T10:23:18Z</time>
      </trkpt>
      <trkpt lat="45.92632" lon="6.49679">
        <ele>1552</ele>
        <time>2017-08-29T10:23:19Z</time>
      </trkpt>
      <trkpt lat="45.92632" lon="6.49677">
        <ele>1551</ele>
        <time>2017-08-29T10:23:20Z</time>
      </trkpt>
      <trkpt lat="45.92632" lon="6.49674">
        <ele>1551</ele>
        <time>2017-08-29T10:23:21Z</time>
      </trkpt>
      <trkpt lat="45.92631" lon="6.49672">
        <ele>1551</ele>
        <time>2017-08-29T10:23:22Z</time>
      </trkpt>
      <trkpt lat="45.92631" lon="6.49669">
        <ele>1550</ele>
        <time>2017-08-29T10:23:23Z</time>
      </trkpt>
      <trkpt lat="45.92631" lon="6.49666">
        <ele>1550</ele>
        <time>2017-08-29T10:23:24Z</time>
      </trkpt>
      <trkpt lat="45.92631" lon="6.49663">
        <ele>1550</ele>
        <time>2017-08-29T10:23:25Z</time>
      </trkpt>
      <trkpt lat="45.92631" lon="6.4966">
        <ele>1549</ele>
        <time>2017-08-29T10:23:26Z</time>
      </trkpt>
      <trkpt lat="45.92631" lon="6.49657">
        <ele>1549</ele>
        <time>2017-08-29T10:23:27Z</time>
      </trkpt>
      <trkpt lat="45.92631" lon="6.49655">
        <ele>1549</ele>
        <time>2017-08-29T10:23:28Z</time>
      </trkpt>
      <trkpt lat="45.92631" lon="6.49651">
        <ele>1549</ele>
        <time>2017-08-29T10:23:29Z</time>
      </trkpt>
      <trkpt lat="45.92631" lon="6.49648">
        <ele>1549</ele>
        <time>2017-08-29T10:23:30Z</time>
      </trkpt>
      <trkpt lat="45.92632" lon="6.49645">
        <ele>1548</ele>
        <time>2017-08-29T10:23:31Z</time>
      </trkpt>
      <trkpt lat="45.92633" lon="6.49643">
        <ele>1548</ele>
        <time>2017-08-29T10:23:32Z</time>
      </trkpt>
      <trkpt lat="45.92633" lon="6.4964">
        <ele>1548</ele>
        <time>2017-08-29T10:23:33Z</time>
      </trkpt>
      <trkpt lat="45.92634" lon="6.49637">
        <ele>1548</ele>
        <time>2017-08-29T10:23:34Z</time>
      </trkpt>
      <trkpt lat="45.92636" lon="6.49634">
        <ele>1548</ele>
        <time>2017-08-29T10:23:35Z</time>
      </trkpt>
      <trkpt lat="45.92637" lon="6.49632">
        <ele>1548</ele>
        <time>2017-08-29T10:23:36Z</time>
      </trkpt>
      <trkpt lat="45.92637" lon="6.49629">
        <ele>1547</ele>
        <time>2017-08-29T10:23:37Z</time>
      </trkpt>
      <trkpt lat="45.92638" lon="6.49626">
        <ele>1547</ele>
        <time>2017-08-29T10:23:38Z</time>
      </trkpt>
      <trkpt lat="45.92639" lon="6.49623">
        <ele>1546</ele>
        <time>2017-08-29T10:23:39Z</time>
      </trkpt>
      <trkpt lat="45.92641" lon="6.4962">
        <ele>1545</ele>
        <time>2017-08-29T10:23:40Z</time>
      </trkpt>
      <trkpt lat="45.92641" lon="6.49617">
        <ele>1545</ele>
        <time>2017-08-29T10:23:41Z</time>
      </trkpt>
      <trkpt lat="45.92642" lon="6.49614">
        <ele>1545</ele>
        <time>2017-08-29T10:23:42Z</time>
      </trkpt>
      <trkpt lat="45.92642" lon="6.49611">
        <ele>1545</ele>
        <time>2017-08-29T10:23:43Z</time>
      </trkpt>
      <trkpt lat="45.92642" lon="6.49609">
        <ele>1545</ele>
        <time>2017-08-29T10:23:44Z</time>
      </trkpt>
      <trkpt lat="45.92642" lon="6.49606">
        <ele>1545</ele>
        <time>2017-08-29T10:23:45Z</time>
      </trkpt>
      <trkpt lat="45.92641" lon="6.49603">
        <ele>1545</ele>
        <time>2017-08-29T10:23:46Z</time>
      </trkpt>
      <trkpt lat="45.92641" lon="6.49601">
        <ele>1544</ele>
        <time>2017-08-29T10:23:47Z</time>
      </trkpt>
      <trkpt lat="45.9264" lon="6.49598">
        <ele>1544</ele>
        <time>2017-08-29T10:23:48Z</time>
      </trkpt>
      <trkpt lat="45.9264" lon="6.49595">
        <ele>1543</ele>
        <time>2017-08-29T10:23:49Z</time>
      </trkpt>
      <trkpt lat="45.92641" lon="6.49592">
        <ele>1543</ele>
        <time>2017-08-29T10:23:50Z</time>
      </trkpt>
      <trkpt lat="45.92641" lon="6.49589">
        <ele>1542</ele>
        <time>2017-08-29T10:23:51Z</time>
      </trkpt>
      <trkpt lat="45.92641" lon="6.49589">
        <ele>1542</ele>
        <time>2017-08-29T10:23:52Z</time>
      </trkpt>
      <trkpt lat="45.92642" lon="6.49584">
        <ele>1541</ele>
        <time>2017-08-29T10:23:53Z</time>
      </trkpt>
      <trkpt lat="45.92642" lon="6.49582">
        <ele>1541</ele>
        <time>2017-08-29T10:23:54Z</time>
      </trkpt>
      <trkpt lat="45.92642" lon="6.49582">
        <ele>1541</ele>
        <time>2017-08-29T10:23:55Z</time>
      </trkpt>
      <trkpt lat="45.92643" lon="6.49578">
        <ele>1541</ele>
        <time>2017-08-29T10:23:56Z</time>
      </trkpt>
      <trkpt lat="45.92643" lon="6.49578">
        <ele>1540</ele>
        <time>2017-08-29T10:23:57Z</time>
      </trkpt>
      <trkpt lat="45.92644" lon="6.49576">
        <ele>1540</ele>
        <time>2017-08-29T10:23:58Z</time>
      </trkpt>
      <trkpt lat="45.92645" lon="6.49573">
        <ele>1540</ele>
        <time>2017-08-29T10:23:59Z</time>
      </trkpt>
      <trkpt lat="45.92645" lon="6.4957">
        <ele>1540</ele>
        <time>2017-08-29T10:24:00Z</time>
      </trkpt>
      <trkpt lat="45.92646" lon="6.49567">
        <ele>1540</ele>
        <time>2017-08-29T10:24:01Z</time>
      </trkpt>
      <trkpt lat="45.92647" lon="6.49564">
        <ele>1540</ele>
        <time>2017-08-29T10:24:02Z</time>
      </trkpt>
      <trkpt lat="45.92647" lon="6.49561">
        <ele>1539</ele>
        <time>2017-08-29T10:24:03Z</time>
      </trkpt>
      <trkpt lat="45.92647" lon="6.49558">
        <ele>1539</ele>
        <time>2017-08-29T10:24:04Z</time>
      </trkpt>
      <trkpt lat="45.92646" lon="6.49555">
        <ele>1540</ele>
        <time>2017-08-29T10:24:05Z</time>
      </trkpt>
      <trkpt lat="45.92646" lon="6.49552">
        <ele>1540</ele>
        <time>2017-08-29T10:24:06Z</time>
      </trkpt>
      <trkpt lat="45.92647" lon="6.4955">
        <ele>1540</ele>
        <time>2017-08-29T10:24:07Z</time>
      </trkpt>
      <trkpt lat="45.92647" lon="6.49547">
        <ele>1540</ele>
        <time>2017-08-29T10:24:08Z</time>
      </trkpt>
      <trkpt lat="45.92647" lon="6.49544">
        <ele>1540</ele>
        <time>2017-08-29T10:24:09Z</time>
      </trkpt>
      <trkpt lat="45.92648" lon="6.49542">
        <ele>1540</ele>
        <time>2017-08-29T10:24:10Z</time>
      </trkpt>
      <trkpt lat="45.92648" lon="6.49539">
        <ele>1540</ele>
        <time>2017-08-29T10:24:11Z</time>
      </trkpt>
      <trkpt lat="45.92647" lon="6.49536">
        <ele>1539</ele>
        <time>2017-08-29T10:24:12Z</time>
      </trkpt>
      <trkpt lat="45.92647" lon="6.49536">
        <ele>1540</ele>
        <time>2017-08-29T10:24:13Z</time>
      </trkpt>
      <trkpt lat="45.92647" lon="6.49531">
        <ele>1540</ele>
        <time>2017-08-29T10:24:14Z</time>
      </trkpt>
      <trkpt lat="45.92647" lon="6.49528">
        <ele>1540</ele>
        <time>2017-08-29T10:24:15Z</time>
      </trkpt>
      <trkpt lat="45.92647" lon="6.49525">
        <ele>1540</ele>
        <time>2017-08-29T10:24:16Z</time>
      </trkpt>
      <trkpt lat="45.92648" lon="6.49522">
        <ele>1540</ele>
        <time>2017-08-29T10:24:17Z</time>
      </trkpt>
      <trkpt lat="45.92648" lon="6.49519">
        <ele>1540</ele>
        <time>2017-08-29T10:24:18Z</time>
      </trkpt>
      <trkpt lat="45.92649" lon="6.49516">
        <ele>1540</ele>
        <time>2017-08-29T10:24:19Z</time>
      </trkpt>
      <trkpt lat="45.92649" lon="6.49513">
        <ele>1540</ele>
        <time>2017-08-29T10:24:20Z</time>
      </trkpt>
      <trkpt lat="45.9265" lon="6.4951">
        <ele>1540</ele>
        <time>2017-08-29T10:24:21Z</time>
      </trkpt>
      <trkpt lat="45.92651" lon="6.49507">
        <ele>1540</ele>
        <time>2017-08-29T10:24:22Z</time>
      </trkpt>
      <trkpt lat="45.92652" lon="6.49504">
        <ele>1540</ele>
        <time>2017-08-29T10:24:23Z</time>
      </trkpt>
      <trkpt lat="45.92653" lon="6.49501">
        <ele>1540</ele>
        <time>2017-08-29T10:24:24Z</time>
      </trkpt>
      <trkpt lat="45.92653" lon="6.49498">
        <ele>1539</ele>
        <time>2017-08-29T10:24:25Z</time>
      </trkpt>
      <trkpt lat="45.92654" lon="6.49495">
        <ele>1539</ele>
        <time>2017-08-29T10:24:26Z</time>
      </trkpt>
      <trkpt lat="45.92654" lon="6.49493">
        <ele>1539</ele>
        <time>2017-08-29T10:24:27Z</time>
      </trkpt>
      <trkpt lat="45.92655" lon="6.4949">
        <ele>1539</ele>
        <time>2017-08-29T10:24:28Z</time>
      </trkpt>
      <trkpt lat="45.92657" lon="6.49488">
        <ele>1539</ele>
        <time>2017-08-29T10:24:29Z</time>
      </trkpt>
      <trkpt lat="45.92658" lon="6.49486">
        <ele>1539</ele>
        <time>2017-08-29T10:24:30Z</time>
      </trkpt>
      <trkpt lat="45.9266" lon="6.49484">
        <ele>1539</ele>
        <time>2017-08-29T10:24:31Z</time>
      </trkpt>
      <trkpt lat="45.92662" lon="6.49482">
        <ele>1539</ele>
        <time>2017-08-29T10:24:32Z</time>
      </trkpt>
      <trkpt lat="45.92664" lon="6.4948">
        <ele>1539</ele>
        <time>2017-08-29T10:24:33Z</time>
      </trkpt>
      <trkpt lat="45.92667" lon="6.49479">
        <ele>1539</ele>
        <time>2017-08-29T10:24:34Z</time>
      </trkpt>
      <trkpt lat="45.92669" lon="6.49477">
        <ele>1537</ele>
        <time>2017-08-29T10:24:35Z</time>
      </trkpt>
      <trkpt lat="45.92671" lon="6.49474">
        <ele>1536</ele>
        <time>2017-08-29T10:24:36Z</time>
      </trkpt>
      <trkpt lat="45.92672" lon="6.49471">
        <ele>1536</ele>
        <time>2017-08-29T10:24:37Z</time>
      </trkpt>
      <trkpt lat="45.92674" lon="6.49469">
        <ele>1536</ele>
        <time>2017-08-29T10:24:38Z</time>
      </trkpt>
      <trkpt lat="45.92676" lon="6.49467">
        <ele>1536</ele>
        <time>2017-08-29T10:24:39Z</time>
      </trkpt>
      <trkpt lat="45.92677" lon="6.49465">
        <ele>1536</ele>
        <time>2017-08-29T10:24:40Z</time>
      </trkpt>
      <trkpt lat="45.92679" lon="6.49463">
        <ele>1536</ele>
        <time>2017-08-29T10:24:41Z</time>
      </trkpt>
      <trkpt lat="45.92681" lon="6.49461">
        <ele>1536</ele>
        <time>2017-08-29T10:24:42Z</time>
      </trkpt>
      <trkpt lat="45.92683" lon="6.4946">
        <ele>1536</ele>
        <time>2017-08-29T10:24:43Z</time>
      </trkpt>
      <trkpt lat="45.92685" lon="6.49458">
        <ele>1536</ele>
        <time>2017-08-29T10:24:44Z</time>
      </trkpt>
      <trkpt lat="45.92687" lon="6.49457">
        <ele>1536</ele>
        <time>2017-08-29T10:24:45Z</time>
      </trkpt>
      <trkpt lat="45.92689" lon="6.49456">
        <ele>1536</ele>
        <time>2017-08-29T10:24:46Z</time>
      </trkpt>
      <trkpt lat="45.92691" lon="6.49457">
        <ele>1536</ele>
        <time>2017-08-29T10:24:47Z</time>
      </trkpt>
      <trkpt lat="45.92693" lon="6.49456">
        <ele>1536</ele>
        <time>2017-08-29T10:24:48Z</time>
      </trkpt>
      <trkpt lat="45.92696" lon="6.49457">
        <ele>1536</ele>
        <time>2017-08-29T10:24:49Z</time>
      </trkpt>
      <trkpt lat="45.92698" lon="6.49458">
        <ele>1536</ele>
        <time>2017-08-29T10:24:50Z</time>
      </trkpt>
      <trkpt lat="45.927" lon="6.49459">
        <ele>1536</ele>
        <time>2017-08-29T10:24:51Z</time>
      </trkpt>
      <trkpt lat="45.92702" lon="6.4946">
        <ele>1536</ele>
        <time>2017-08-29T10:24:52Z</time>
      </trkpt>
      <trkpt lat="45.92704" lon="6.49461">
        <ele>1536</ele>
        <time>2017-08-29T10:24:53Z</time>
      </trkpt>
      <trkpt lat="45.92706" lon="6.49463">
        <ele>1536</ele>
        <time>2017-08-29T10:24:54Z</time>
      </trkpt>
      <trkpt lat="45.92709" lon="6.49464">
        <ele>1535</ele>
        <time>2017-08-29T10:24:55Z</time>
      </trkpt>
      <trkpt lat="45.92711" lon="6.49466">
        <ele>1535</ele>
        <time>2017-08-29T10:24:56Z</time>
      </trkpt>
      <trkpt lat="45.92713" lon="6.49468">
        <ele>1535</ele>
        <time>2017-08-29T10:24:57Z</time>
      </trkpt>
      <trkpt lat="45.92715" lon="6.49469">
        <ele>1535</ele>
        <time>2017-08-29T10:24:58Z</time>
      </trkpt>
      <trkpt lat="45.92718" lon="6.49471">
        <ele>1535</ele>
        <time>2017-08-29T10:24:59Z</time>
      </trkpt>
      <trkpt lat="45.9272" lon="6.49472">
        <ele>1536</ele>
        <time>2017-08-29T10:25:00Z</time>
      </trkpt>
      <trkpt lat="45.92722" lon="6.49472">
        <ele>1536</ele>
        <time>2017-08-29T10:25:01Z</time>
      </trkpt>
      <trkpt lat="45.92725" lon="6.49473">
        <ele>1536</ele>
        <time>2017-08-29T10:25:02Z</time>
      </trkpt>
      <trkpt lat="45.92727" lon="6.49474">
        <ele>1536</ele>
        <time>2017-08-29T10:25:03Z</time>
      </trkpt>
      <trkpt lat="45.9273" lon="6.49475">
        <ele>1536</ele>
        <time>2017-08-29T10:25:04Z</time>
      </trkpt>
      <trkpt lat="45.92733" lon="6.49477">
        <ele>1536</ele>
        <time>2017-08-29T10:25:05Z</time>
      </trkpt>
      <trkpt lat="45.92735" lon="6.49479">
        <ele>1536</ele>
        <time>2017-08-29T10:25:06Z</time>
      </trkpt>
      <trkpt lat="45.92737" lon="6.49481">
        <ele>1536</ele>
        <time>2017-08-29T10:25:07Z</time>
      </trkpt>
      <trkpt lat="45.92739" lon="6.49482">
        <ele>1535</ele>
        <time>2017-08-29T10:25:08Z</time>
      </trkpt>
      <trkpt lat="45.92741" lon="6.49484">
        <ele>1535</ele>
        <time>2017-08-29T10:25:09Z</time>
      </trkpt>
      <trkpt lat="45.92743" lon="6.49485">
        <ele>1535</ele>
        <time>2017-08-29T10:25:10Z</time>
      </trkpt>
      <trkpt lat="45.92745" lon="6.49486">
        <ele>1535</ele>
        <time>2017-08-29T10:25:11Z</time>
      </trkpt>
      <trkpt lat="45.92748" lon="6.49486">
        <ele>1535</ele>
        <time>2017-08-29T10:25:12Z</time>
      </trkpt>
      <trkpt lat="45.9275" lon="6.49487">
        <ele>1535</ele>
        <time>2017-08-29T10:25:13Z</time>
      </trkpt>
      <trkpt lat="45.92752" lon="6.49488">
        <ele>1534</ele>
        <time>2017-08-29T10:25:14Z</time>
      </trkpt>
      <trkpt lat="45.92752" lon="6.49488">
        <ele>1535</ele>
        <time>2017-08-29T10:25:15Z</time>
      </trkpt>
      <trkpt lat="45.92754" lon="6.49489">
        <ele>1535</ele>
        <time>2017-08-29T10:25:16Z</time>
      </trkpt>
      <trkpt lat="45.92754" lon="6.49489">
        <ele>1535</ele>
        <time>2017-08-29T10:25:17Z</time>
      </trkpt>
      <trkpt lat="45.92756" lon="6.49487">
        <ele>1535</ele>
        <time>2017-08-29T10:25:18Z</time>
      </trkpt>
      <trkpt lat="45.92756" lon="6.49487">
        <ele>1535</ele>
        <time>2017-08-29T10:25:19Z</time>
      </trkpt>
      <trkpt lat="45.92758" lon="6.49485">
        <ele>1535</ele>
        <time>2017-08-29T10:25:20Z</time>
      </trkpt>
      <trkpt lat="45.92758" lon="6.49485">
        <ele>1535</ele>
        <time>2017-08-29T10:25:21Z</time>
      </trkpt>
      <trkpt lat="45.9276" lon="6.49483">
        <ele>1535</ele>
        <time>2017-08-29T10:25:22Z</time>
      </trkpt>
      <trkpt lat="45.9276" lon="6.49483">
        <ele>1535</ele>
        <time>2017-08-29T10:25:23Z</time>
      </trkpt>
      <trkpt lat="45.92762" lon="6.4948">
        <ele>1535</ele>
        <time>2017-08-29T10:25:24Z</time>
      </trkpt>
      <trkpt lat="45.92762" lon="6.4948">
        <ele>1535</ele>
        <time>2017-08-29T10:25:25Z</time>
      </trkpt>
      <trkpt lat="45.92762" lon="6.49477">
        <ele>1535</ele>
        <time>2017-08-29T10:25:26Z</time>
      </trkpt>
      <trkpt lat="45.92762" lon="6.49477">
        <ele>1535</ele>
        <time>2017-08-29T10:25:27Z</time>
      </trkpt>
      <trkpt lat="45.92762" lon="6.49477">
        <ele>1535</ele>
        <time>2017-08-29T10:25:28Z</time>
      </trkpt>
      <trkpt lat="45.92762" lon="6.49477">
        <ele>1535</ele>
        <time>2017-08-29T10:25:29Z</time>
      </trkpt>
      <trkpt lat="45.92762" lon="6.49477">
        <ele>1535</ele>
        <time>2017-08-29T10:25:30Z</time>
      </trkpt>
      <trkpt lat="45.92762" lon="6.49477">
        <ele>1535</ele>
        <time>2017-08-29T10:25:31Z</time>
      </trkpt>
      <trkpt lat="45.92762" lon="6.49477">
        <ele>1535</ele>
        <time>2017-08-29T10:25:32Z</time>
      </trkpt>
      <trkpt lat="45.92762" lon="6.49477">
        <ele>1535</ele>
        <time>2017-08-29T10:25:33Z</time>
      </trkpt>
      <trkpt lat="45.92762" lon="6.49477">
        <ele>1535</ele>
        <time>2017-08-29T10:25:34Z</time>
      </trkpt>
      <trkpt lat="45.92762" lon="6.49477">
        <ele>1535</ele>
        <time>2017-08-29T10:25:35Z</time>
      </trkpt>
      <trkpt lat="45.92762" lon="6.49477">
        <ele>1535</ele>
        <time>2017-08-29T10:25:36Z</time>
      </trkpt>
      <trkpt lat="45.92762" lon="6.49477">
        <ele>1535</ele>
        <time>2017-08-29T10:25:37Z</time>
      </trkpt>
      <trkpt lat="45.92763" lon="6.49473">
        <ele>1535</ele>
        <time>2017-08-29T10:25:38Z</time>
      </trkpt>
      <trkpt lat="45.92763" lon="6.49473">
        <ele>1535</ele>
        <time>2017-08-29T10:25:39Z</time>
      </trkpt>
      <trkpt lat="45.92763" lon="6.49469">
        <ele>1535</ele>
        <time>2017-08-29T10:25:40Z</time>
      </trkpt>
      <trkpt lat="45.92763" lon="6.49469">
        <ele>1535</ele>
        <time>2017-08-29T10:25:41Z</time>
      </trkpt>
      <trkpt lat="45.92761" lon="6.49465">
        <ele>1535</ele>
        <time>2017-08-29T10:25:42Z</time>
      </trkpt>
      <trkpt lat="45.92759" lon="6.49463">
        <ele>1535</ele>
        <time>2017-08-29T10:25:43Z</time>
      </trkpt>
      <trkpt lat="45.92758" lon="6.49461">
        <ele>1536</ele>
        <time>2017-08-29T10:25:44Z</time>
      </trkpt>
      <trkpt lat="45.92756" lon="6.49459">
        <ele>1536</ele>
        <time>2017-08-29T10:25:45Z</time>
      </trkpt>
      <trkpt lat="45.92755" lon="6.49456">
        <ele>1536</ele>
        <time>2017-08-29T10:25:46Z</time>
      </trkpt>
      <trkpt lat="45.92753" lon="6.49453">
        <ele>1536</ele>
        <time>2017-08-29T10:25:47Z</time>
      </trkpt>
      <trkpt lat="45.92751" lon="6.4945">
        <ele>1536</ele>
        <time>2017-08-29T10:25:48Z</time>
      </trkpt>
      <trkpt lat="45.92749" lon="6.49447">
        <ele>1536</ele>
        <time>2017-08-29T10:25:49Z</time>
      </trkpt>
      <trkpt lat="45.92748" lon="6.49444">
        <ele>1536</ele>
        <time>2017-08-29T10:25:50Z</time>
      </trkpt>
      <trkpt lat="45.92746" lon="6.4944">
        <ele>1536</ele>
        <time>2017-08-29T10:25:51Z</time>
      </trkpt>
      <trkpt lat="45.92744" lon="6.49437">
        <ele>1536</ele>
        <time>2017-08-29T10:25:52Z</time>
      </trkpt>
      <trkpt lat="45.92743" lon="6.49434">
        <ele>1535</ele>
        <time>2017-08-29T10:25:53Z</time>
      </trkpt>
      <trkpt lat="45.92742" lon="6.4943">
        <ele>1535</ele>
        <time>2017-08-29T10:25:54Z</time>
      </trkpt>
      <trkpt lat="45.9274" lon="6.49427">
        <ele>1535</ele>
        <time>2017-08-29T10:25:55Z</time>
      </trkpt>
      <trkpt lat="45.92739" lon="6.49423">
        <ele>1535</ele>
        <time>2017-08-29T10:25:56Z</time>
      </trkpt>
      <trkpt lat="45.92738" lon="6.4942">
        <ele>1535</ele>
        <time>2017-08-29T10:25:57Z</time>
      </trkpt>
      <trkpt lat="45.92737" lon="6.49416">
        <ele>1535</ele>
        <time>2017-08-29T10:25:58Z</time>
      </trkpt>
      <trkpt lat="45.92736" lon="6.49413">
        <ele>1535</ele>
        <time>2017-08-29T10:25:59Z</time>
      </trkpt>
      <trkpt lat="45.92735" lon="6.49409">
        <ele>1535</ele>
        <time>2017-08-29T10:26:00Z</time>
      </trkpt>
      <trkpt lat="45.92734" lon="6.49406">
        <ele>1535</ele>
        <time>2017-08-29T10:26:01Z</time>
      </trkpt>
      <trkpt lat="45.92733" lon="6.49402">
        <ele>1535</ele>
        <time>2017-08-29T10:26:02Z</time>
      </trkpt>
      <trkpt lat="45.92731" lon="6.49398">
        <ele>1535</ele>
        <time>2017-08-29T10:26:03Z</time>
      </trkpt>
      <trkpt lat="45.9273" lon="6.49395">
        <ele>1535</ele>
        <time>2017-08-29T10:26:04Z</time>
      </trkpt>
      <trkpt lat="45.92729" lon="6.49392">
        <ele>1535</ele>
        <time>2017-08-29T10:26:05Z</time>
      </trkpt>
      <trkpt lat="45.92728" lon="6.49389">
        <ele>1535</ele>
        <time>2017-08-29T10:26:06Z</time>
      </trkpt>
      <trkpt lat="45.92727" lon="6.49386">
        <ele>1535</ele>
        <time>2017-08-29T10:26:07Z</time>
      </trkpt>
      <trkpt lat="45.92726" lon="6.49383">
        <ele>1535</ele>
        <time>2017-08-29T10:26:08Z</time>
      </trkpt>
      <trkpt lat="45.92724" lon="6.4938">
        <ele>1535</ele>
        <time>2017-08-29T10:26:09Z</time>
      </trkpt>
      <trkpt lat="45.92723" lon="6.49377">
        <ele>1535</ele>
        <time>2017-08-29T10:26:10Z</time>
      </trkpt>
      <trkpt lat="45.92721" lon="6.49373">
        <ele>1534</ele>
        <time>2017-08-29T10:26:11Z</time>
      </trkpt>
      <trkpt lat="45.9272" lon="6.4937">
        <ele>1534</ele>
        <time>2017-08-29T10:26:12Z</time>
      </trkpt>
      <trkpt lat="45.92719" lon="6.49366">
        <ele>1534</ele>
        <time>2017-08-29T10:26:13Z</time>
      </trkpt>
      <trkpt lat="45.92717" lon="6.49362">
        <ele>1534</ele>
        <time>2017-08-29T10:26:14Z</time>
      </trkpt>
      <trkpt lat="45.92715" lon="6.49357">
        <ele>1533</ele>
        <time>2017-08-29T10:26:15Z</time>
      </trkpt>
      <trkpt lat="45.92713" lon="6.49352">
        <ele>1533</ele>
        <time>2017-08-29T10:26:16Z</time>
      </trkpt>
      <trkpt lat="45.92712" lon="6.49347">
        <ele>1533</ele>
        <time>2017-08-29T10:26:17Z</time>
      </trkpt>
      <trkpt lat="45.9271" lon="6.49343">
        <ele>1533</ele>
        <time>2017-08-29T10:26:18Z</time>
      </trkpt>
      <trkpt lat="45.92709" lon="6.49339">
        <ele>1533</ele>
        <time>2017-08-29T10:26:19Z</time>
      </trkpt>
      <trkpt lat="45.92708" lon="6.49335">
        <ele>1532</ele>
        <time>2017-08-29T10:26:20Z</time>
      </trkpt>
      <trkpt lat="45.92707" lon="6.49331">
        <ele>1531</ele>
        <time>2017-08-29T10:26:21Z</time>
      </trkpt>
      <trkpt lat="45.92707" lon="6.49329">
        <ele>1531</ele>
        <time>2017-08-29T10:26:22Z</time>
      </trkpt>
      <trkpt lat="45.92706" lon="6.49326">
        <ele>1531</ele>
        <time>2017-08-29T10:26:23Z</time>
      </trkpt>
      <trkpt lat="45.92706" lon="6.49324">
        <ele>1531</ele>
        <time>2017-08-29T10:26:24Z</time>
      </trkpt>
      <trkpt lat="45.92704" lon="6.49316">
        <ele>1531</ele>
        <time>2017-08-29T10:26:25Z</time>
      </trkpt>
      <trkpt lat="45.92704" lon="6.49314">
        <ele>1530</ele>
        <time>2017-08-29T10:26:26Z</time>
      </trkpt>
      <trkpt lat="45.92703" lon="6.49311">
        <ele>1530</ele>
        <time>2017-08-29T10:26:27Z</time>
      </trkpt>
      <trkpt lat="45.92702" lon="6.49309">
        <ele>1530</ele>
        <time>2017-08-29T10:26:28Z</time>
      </trkpt>
      <trkpt lat="45.927" lon="6.49302">
        <ele>1530</ele>
        <time>2017-08-29T10:26:29Z</time>
      </trkpt>
      <trkpt lat="45.92699" lon="6.49298">
        <ele>1530</ele>
        <time>2017-08-29T10:26:30Z</time>
      </trkpt>
      <trkpt lat="45.92697" lon="6.49296">
        <ele>1530</ele>
        <time>2017-08-29T10:26:31Z</time>
      </trkpt>
      <trkpt lat="45.92696" lon="6.49294">
        <ele>1530</ele>
        <time>2017-08-29T10:26:32Z</time>
      </trkpt>
      <trkpt lat="45.92693" lon="6.49292">
        <ele>1529</ele>
        <time>2017-08-29T10:26:33Z</time>
      </trkpt>
      <trkpt lat="45.92691" lon="6.4929">
        <ele>1529</ele>
        <time>2017-08-29T10:26:34Z</time>
      </trkpt>
      <trkpt lat="45.92689" lon="6.49287">
        <ele>1528</ele>
        <time>2017-08-29T10:26:35Z</time>
      </trkpt>
      <trkpt lat="45.92688" lon="6.49285">
        <ele>1527</ele>
        <time>2017-08-29T10:26:36Z</time>
      </trkpt>
      <trkpt lat="45.92686" lon="6.49283">
        <ele>1528</ele>
        <time>2017-08-29T10:26:37Z</time>
      </trkpt>
      <trkpt lat="45.92685" lon="6.49281">
        <ele>1528</ele>
        <time>2017-08-29T10:26:38Z</time>
      </trkpt>
      <trkpt lat="45.92683" lon="6.49279">
        <ele>1528</ele>
        <time>2017-08-29T10:26:39Z</time>
      </trkpt>
      <trkpt lat="45.92681" lon="6.49277">
        <ele>1528</ele>
        <time>2017-08-29T10:26:40Z</time>
      </trkpt>
      <trkpt lat="45.92679" lon="6.49276">
        <ele>1528</ele>
        <time>2017-08-29T10:26:41Z</time>
      </trkpt>
      <trkpt lat="45.92677" lon="6.49275">
        <ele>1528</ele>
        <time>2017-08-29T10:26:42Z</time>
      </trkpt>
      <trkpt lat="45.92675" lon="6.49274">
        <ele>1528</ele>
        <time>2017-08-29T10:26:43Z</time>
      </trkpt>
      <trkpt lat="45.92672" lon="6.49273">
        <ele>1528</ele>
        <time>2017-08-29T10:26:44Z</time>
      </trkpt>
      <trkpt lat="45.92669" lon="6.49271">
        <ele>1528</ele>
        <time>2017-08-29T10:26:45Z</time>
      </trkpt>
      <trkpt lat="45.92667" lon="6.4927">
        <ele>1528</ele>
        <time>2017-08-29T10:26:46Z</time>
      </trkpt>
      <trkpt lat="45.92665" lon="6.49269">
        <ele>1528</ele>
        <time>2017-08-29T10:26:47Z</time>
      </trkpt>
      <trkpt lat="45.92662" lon="6.49269">
        <ele>1528</ele>
        <time>2017-08-29T10:26:48Z</time>
      </trkpt>
      <trkpt lat="45.9266" lon="6.49267">
        <ele>1528</ele>
        <time>2017-08-29T10:26:49Z</time>
      </trkpt>
      <trkpt lat="45.92657" lon="6.49266">
        <ele>1528</ele>
        <time>2017-08-29T10:26:50Z</time>
      </trkpt>
      <trkpt lat="45.92655" lon="6.49264">
        <ele>1528</ele>
        <time>2017-08-29T10:26:51Z</time>
      </trkpt>
      <trkpt lat="45.92653" lon="6.49263">
        <ele>1528</ele>
        <time>2017-08-29T10:26:52Z</time>
      </trkpt>
      <trkpt lat="45.92651" lon="6.49262">
        <ele>1528</ele>
        <time>2017-08-29T10:26:53Z</time>
      </trkpt>
      <trkpt lat="45.92648" lon="6.4926">
        <ele>1529</ele>
        <time>2017-08-29T10:26:54Z</time>
      </trkpt>
      <trkpt lat="45.92646" lon="6.4926">
        <ele>1529</ele>
        <time>2017-08-29T10:26:55Z</time>
      </trkpt>
      <trkpt lat="45.92644" lon="6.49259">
        <ele>1529</ele>
        <time>2017-08-29T10:26:56Z</time>
      </trkpt>
      <trkpt lat="45.92641" lon="6.49259">
        <ele>1529</ele>
        <time>2017-08-29T10:26:57Z</time>
      </trkpt>
      <trkpt lat="45.92639" lon="6.49258">
        <ele>1529</ele>
        <time>2017-08-29T10:26:58Z</time>
      </trkpt>
      <trkpt lat="45.92637" lon="6.49257">
        <ele>1529</ele>
        <time>2017-08-29T10:26:59Z</time>
      </trkpt>
      <trkpt lat="45.92635" lon="6.49256">
        <ele>1529</ele>
        <time>2017-08-29T10:27:00Z</time>
      </trkpt>
      <trkpt lat="45.92634" lon="6.49254">
        <ele>1530</ele>
        <time>2017-08-29T10:27:01Z</time>
      </trkpt>
      <trkpt lat="45.92632" lon="6.49252">
        <ele>1530</ele>
        <time>2017-08-29T10:27:02Z</time>
      </trkpt>
      <trkpt lat="45.9263" lon="6.49249">
        <ele>1530</ele>
        <time>2017-08-29T10:27:03Z</time>
      </trkpt>
      <trkpt lat="45.92629" lon="6.49246">
        <ele>1530</ele>
        <time>2017-08-29T10:27:04Z</time>
      </trkpt>
      <trkpt lat="45.92627" lon="6.49244">
        <ele>1530</ele>
        <time>2017-08-29T10:27:05Z</time>
      </trkpt>
      <trkpt lat="45.92626" lon="6.49242">
        <ele>1530</ele>
        <time>2017-08-29T10:27:06Z</time>
      </trkpt>
      <trkpt lat="45.92624" lon="6.49239">
        <ele>1530</ele>
        <time>2017-08-29T10:27:07Z</time>
      </trkpt>
      <trkpt lat="45.92623" lon="6.49237">
        <ele>1530</ele>
        <time>2017-08-29T10:27:08Z</time>
      </trkpt>
      <trkpt lat="45.92621" lon="6.49236">
        <ele>1529</ele>
        <time>2017-08-29T10:27:09Z</time>
      </trkpt>
      <trkpt lat="45.92619" lon="6.49234">
        <ele>1529</ele>
        <time>2017-08-29T10:27:10Z</time>
      </trkpt>
      <trkpt lat="45.92617" lon="6.49232">
        <ele>1530</ele>
        <time>2017-08-29T10:27:11Z</time>
      </trkpt>
      <trkpt lat="45.92616" lon="6.49231">
        <ele>1530</ele>
        <time>2017-08-29T10:27:12Z</time>
      </trkpt>
      <trkpt lat="45.92614" lon="6.49229">
        <ele>1530</ele>
        <time>2017-08-29T10:27:13Z</time>
      </trkpt>
      <trkpt lat="45.92612" lon="6.49228">
        <ele>1530</ele>
        <time>2017-08-29T10:27:14Z</time>
      </trkpt>
      <trkpt lat="45.92612" lon="6.49228">
        <ele>1530</ele>
        <time>2017-08-29T10:27:15Z</time>
      </trkpt>
      <trkpt lat="45.92609" lon="6.49227">
        <ele>1530</ele>
        <time>2017-08-29T10:27:16Z</time>
      </trkpt>
      <trkpt lat="45.92607" lon="6.49226">
        <ele>1530</ele>
        <time>2017-08-29T10:27:17Z</time>
      </trkpt>
      <trkpt lat="45.92605" lon="6.49226">
        <ele>1530</ele>
        <time>2017-08-29T10:27:18Z</time>
      </trkpt>
      <trkpt lat="45.92605" lon="6.49226">
        <ele>1530</ele>
        <time>2017-08-29T10:27:19Z</time>
      </trkpt>
      <trkpt lat="45.92602" lon="6.49224">
        <ele>1530</ele>
        <time>2017-08-29T10:27:20Z</time>
      </trkpt>
      <trkpt lat="45.926" lon="6.49224">
        <ele>1530</ele>
        <time>2017-08-29T10:27:21Z</time>
      </trkpt>
      <trkpt lat="45.92598" lon="6.49224">
        <ele>1530</ele>
        <time>2017-08-29T10:27:22Z</time>
      </trkpt>
      <trkpt lat="45.92596" lon="6.49223">
        <ele>1529</ele>
        <time>2017-08-29T10:27:23Z</time>
      </trkpt>
      <trkpt lat="45.92594" lon="6.49223">
        <ele>1529</ele>
        <time>2017-08-29T10:27:24Z</time>
      </trkpt>
      <trkpt lat="45.92592" lon="6.49222">
        <ele>1529</ele>
        <time>2017-08-29T10:27:25Z</time>
      </trkpt>
      <trkpt lat="45.9259" lon="6.49221">
        <ele>1530</ele>
        <time>2017-08-29T10:27:26Z</time>
      </trkpt>
      <trkpt lat="45.9259" lon="6.49221">
        <ele>1531</ele>
        <time>2017-08-29T10:27:27Z</time>
      </trkpt>
      <trkpt lat="45.92586" lon="6.49221">
        <ele>1531</ele>
        <time>2017-08-29T10:27:28Z</time>
      </trkpt>
      <trkpt lat="45.92585" lon="6.49221">
        <ele>1531</ele>
        <time>2017-08-29T10:27:29Z</time>
      </trkpt>
      <trkpt lat="45.92585" lon="6.49221">
        <ele>1530</ele>
        <time>2017-08-29T10:27:30Z</time>
      </trkpt>
      <trkpt lat="45.92581" lon="6.4922">
        <ele>1531</ele>
        <time>2017-08-29T10:27:31Z</time>
      </trkpt>
      <trkpt lat="45.92579" lon="6.4922">
        <ele>1531</ele>
        <time>2017-08-29T10:27:32Z</time>
      </trkpt>
      <trkpt lat="45.92577" lon="6.4922">
        <ele>1531</ele>
        <time>2017-08-29T10:27:33Z</time>
      </trkpt>
      <trkpt lat="45.92577" lon="6.4922">
        <ele>1531</ele>
        <time>2017-08-29T10:27:34Z</time>
      </trkpt>
      <trkpt lat="45.92574" lon="6.4922">
        <ele>1531</ele>
        <time>2017-08-29T10:27:35Z</time>
      </trkpt>
      <trkpt lat="45.92572" lon="6.49219">
        <ele>1531</ele>
        <time>2017-08-29T10:27:36Z</time>
      </trkpt>
      <trkpt lat="45.9257" lon="6.49219">
        <ele>1531</ele>
        <time>2017-08-29T10:27:37Z</time>
      </trkpt>
      <trkpt lat="45.92568" lon="6.49218">
        <ele>1530</ele>
        <time>2017-08-29T10:27:38Z</time>
      </trkpt>
      <trkpt lat="45.92566" lon="6.49218">
        <ele>1530</ele>
        <time>2017-08-29T10:27:39Z</time>
      </trkpt>
      <trkpt lat="45.92564" lon="6.49217">
        <ele>1530</ele>
        <time>2017-08-29T10:27:40Z</time>
      </trkpt>
      <trkpt lat="45.92562" lon="6.49217">
        <ele>1530</ele>
        <time>2017-08-29T10:27:41Z</time>
      </trkpt>
      <trkpt lat="45.9256" lon="6.49217">
        <ele>1530</ele>
        <time>2017-08-29T10:27:42Z</time>
      </trkpt>
      <trkpt lat="45.92558" lon="6.49216">
        <ele>1530</ele>
        <time>2017-08-29T10:27:43Z</time>
      </trkpt>
      <trkpt lat="45.92556" lon="6.49216">
        <ele>1530</ele>
        <time>2017-08-29T10:27:44Z</time>
      </trkpt>
      <trkpt lat="45.92554" lon="6.49215">
        <ele>1530</ele>
        <time>2017-08-29T10:27:45Z</time>
      </trkpt>
      <trkpt lat="45.92552" lon="6.49215">
        <ele>1530</ele>
        <time>2017-08-29T10:27:46Z</time>
      </trkpt>
      <trkpt lat="45.92552" lon="6.49215">
        <ele>1531</ele>
        <time>2017-08-29T10:27:47Z</time>
      </trkpt>
      <trkpt lat="45.92548" lon="6.49214">
        <ele>1530</ele>
        <time>2017-08-29T10:27:48Z</time>
      </trkpt>
      <trkpt lat="45.92546" lon="6.49214">
        <ele>1530</ele>
        <time>2017-08-29T10:27:49Z</time>
      </trkpt>
      <trkpt lat="45.92545" lon="6.49214">
        <ele>1530</ele>
        <time>2017-08-29T10:27:50Z</time>
      </trkpt>
      <trkpt lat="45.92543" lon="6.49213">
        <ele>1530</ele>
        <time>2017-08-29T10:27:51Z</time>
      </trkpt>
      <trkpt lat="45.92541" lon="6.49212">
        <ele>1531</ele>
        <time>2017-08-29T10:27:52Z</time>
      </trkpt>
      <trkpt lat="45.92539" lon="6.49212">
        <ele>1531</ele>
        <time>2017-08-29T10:27:53Z</time>
      </trkpt>
      <trkpt lat="45.92537" lon="6.49211">
        <ele>1531</ele>
        <time>2017-08-29T10:27:54Z</time>
      </trkpt>
      <trkpt lat="45.92535" lon="6.49211">
        <ele>1531</ele>
        <time>2017-08-29T10:27:55Z</time>
      </trkpt>
      <trkpt lat="45.92533" lon="6.4921">
        <ele>1531</ele>
        <time>2017-08-29T10:27:56Z</time>
      </trkpt>
      <trkpt lat="45.92531" lon="6.49209">
        <ele>1532</ele>
        <time>2017-08-29T10:27:57Z</time>
      </trkpt>
      <trkpt lat="45.92529" lon="6.49208">
        <ele>1531</ele>
        <time>2017-08-29T10:27:58Z</time>
      </trkpt>
      <trkpt lat="45.92527" lon="6.49206">
        <ele>1531</ele>
        <time>2017-08-29T10:27:59Z</time>
      </trkpt>
      <trkpt lat="45.92525" lon="6.49206">
        <ele>1531</ele>
        <time>2017-08-29T10:28:00Z</time>
      </trkpt>
      <trkpt lat="45.92522" lon="6.49205">
        <ele>1531</ele>
        <time>2017-08-29T10:28:01Z</time>
      </trkpt>
      <trkpt lat="45.9252" lon="6.49203">
        <ele>1531</ele>
        <time>2017-08-29T10:28:02Z</time>
      </trkpt>
      <trkpt lat="45.92517" lon="6.49202">
        <ele>1531</ele>
        <time>2017-08-29T10:28:03Z</time>
      </trkpt>
      <trkpt lat="45.92515" lon="6.49201">
        <ele>1531</ele>
        <time>2017-08-29T10:28:04Z</time>
      </trkpt>
      <trkpt lat="45.92512" lon="6.49201">
        <ele>1531</ele>
        <time>2017-08-29T10:28:05Z</time>
      </trkpt>
      <trkpt lat="45.9251" lon="6.492">
        <ele>1531</ele>
        <time>2017-08-29T10:28:06Z</time>
      </trkpt>
      <trkpt lat="45.92507" lon="6.49199">
        <ele>1531</ele>
        <time>2017-08-29T10:28:07Z</time>
      </trkpt>
      <trkpt lat="45.92505" lon="6.49198">
        <ele>1530</ele>
        <time>2017-08-29T10:28:08Z</time>
      </trkpt>
      <trkpt lat="45.92502" lon="6.49196">
        <ele>1530</ele>
        <time>2017-08-29T10:28:09Z</time>
      </trkpt>
      <trkpt lat="45.925" lon="6.49195">
        <ele>1530</ele>
        <time>2017-08-29T10:28:10Z</time>
      </trkpt>
      <trkpt lat="45.92498" lon="6.49194">
        <ele>1530</ele>
        <time>2017-08-29T10:28:11Z</time>
      </trkpt>
      <trkpt lat="45.92496" lon="6.49193">
        <ele>1530</ele>
        <time>2017-08-29T10:28:12Z</time>
      </trkpt>
      <trkpt lat="45.92494" lon="6.49192">
        <ele>1530</ele>
        <time>2017-08-29T10:28:13Z</time>
      </trkpt>
      <trkpt lat="45.92492" lon="6.4919">
        <ele>1531</ele>
        <time>2017-08-29T10:28:14Z</time>
      </trkpt>
      <trkpt lat="45.9249" lon="6.49189">
        <ele>1531</ele>
        <time>2017-08-29T10:28:15Z</time>
      </trkpt>
      <trkpt lat="45.92488" lon="6.49188">
        <ele>1532</ele>
        <time>2017-08-29T10:28:16Z</time>
      </trkpt>
      <trkpt lat="45.92487" lon="6.49186">
        <ele>1532</ele>
        <time>2017-08-29T10:28:17Z</time>
      </trkpt>
      <trkpt lat="45.92485" lon="6.49184">
        <ele>1531</ele>
        <time>2017-08-29T10:28:18Z</time>
      </trkpt>
      <trkpt lat="45.92484" lon="6.49183">
        <ele>1531</ele>
        <time>2017-08-29T10:28:19Z</time>
      </trkpt>
      <trkpt lat="45.92484" lon="6.49183">
        <ele>1531</ele>
        <time>2017-08-29T10:28:20Z</time>
      </trkpt>
      <trkpt lat="45.92481" lon="6.49179">
        <ele>1531</ele>
        <time>2017-08-29T10:28:21Z</time>
      </trkpt>
      <trkpt lat="45.9248" lon="6.49177">
        <ele>1531</ele>
        <time>2017-08-29T10:28:22Z</time>
      </trkpt>
      <trkpt lat="45.92478" lon="6.49175">
        <ele>1531</ele>
        <time>2017-08-29T10:28:23Z</time>
      </trkpt>
      <trkpt lat="45.92476" lon="6.49173">
        <ele>1531</ele>
        <time>2017-08-29T10:28:24Z</time>
      </trkpt>
      <trkpt lat="45.92474" lon="6.49171">
        <ele>1532</ele>
        <time>2017-08-29T10:28:25Z</time>
      </trkpt>
      <trkpt lat="45.92473" lon="6.49168">
        <ele>1532</ele>
        <time>2017-08-29T10:28:26Z</time>
      </trkpt>
      <trkpt lat="45.92471" lon="6.49166">
        <ele>1532</ele>
        <time>2017-08-29T10:28:27Z</time>
      </trkpt>
      <trkpt lat="45.9247" lon="6.49164">
        <ele>1532</ele>
        <time>2017-08-29T10:28:28Z</time>
      </trkpt>
      <trkpt lat="45.92469" lon="6.49162">
        <ele>1531</ele>
        <time>2017-08-29T10:28:29Z</time>
      </trkpt>
      <trkpt lat="45.92467" lon="6.49159">
        <ele>1531</ele>
        <time>2017-08-29T10:28:30Z</time>
      </trkpt>
      <trkpt lat="45.92466" lon="6.49157">
        <ele>1531</ele>
        <time>2017-08-29T10:28:31Z</time>
      </trkpt>
      <trkpt lat="45.92464" lon="6.49154">
        <ele>1531</ele>
        <time>2017-08-29T10:28:32Z</time>
      </trkpt>
      <trkpt lat="45.92463" lon="6.49152">
        <ele>1531</ele>
        <time>2017-08-29T10:28:33Z</time>
      </trkpt>
      <trkpt lat="45.92461" lon="6.49149">
        <ele>1531</ele>
        <time>2017-08-29T10:28:34Z</time>
      </trkpt>
      <trkpt lat="45.9246" lon="6.49146">
        <ele>1531</ele>
        <time>2017-08-29T10:28:35Z</time>
      </trkpt>
      <trkpt lat="45.92458" lon="6.49143">
        <ele>1531</ele>
        <time>2017-08-29T10:28:36Z</time>
      </trkpt>
      <trkpt lat="45.92456" lon="6.4914">
        <ele>1531</ele>
        <time>2017-08-29T10:28:37Z</time>
      </trkpt>
      <trkpt lat="45.92455" lon="6.49138">
        <ele>1531</ele>
        <time>2017-08-29T10:28:38Z</time>
      </trkpt>
      <trkpt lat="45.92453" lon="6.49135">
        <ele>1531</ele>
        <time>2017-08-29T10:28:39Z</time>
      </trkpt>
      <trkpt lat="45.92451" lon="6.49132">
        <ele>1529</ele>
        <time>2017-08-29T10:28:40Z</time>
      </trkpt>
      <trkpt lat="45.9245" lon="6.49129">
        <ele>1529</ele>
        <time>2017-08-29T10:28:41Z</time>
      </trkpt>
      <trkpt lat="45.92448" lon="6.49125">
        <ele>1528</ele>
        <time>2017-08-29T10:28:42Z</time>
      </trkpt>
      <trkpt lat="45.92446" lon="6.49121">
        <ele>1527</ele>
        <time>2017-08-29T10:28:43Z</time>
      </trkpt>
      <trkpt lat="45.92444" lon="6.49119">
        <ele>1527</ele>
        <time>2017-08-29T10:28:44Z</time>
      </trkpt>
      <trkpt lat="45.92442" lon="6.49116">
        <ele>1527</ele>
        <time>2017-08-29T10:28:45Z</time>
      </trkpt>
      <trkpt lat="45.9244" lon="6.49114">
        <ele>1526</ele>
        <time>2017-08-29T10:28:46Z</time>
      </trkpt>
      <trkpt lat="45.92437" lon="6.49112">
        <ele>1526</ele>
        <time>2017-08-29T10:28:47Z</time>
      </trkpt>
      <trkpt lat="45.92434" lon="6.4911">
        <ele>1525</ele>
        <time>2017-08-29T10:28:48Z</time>
      </trkpt>
      <trkpt lat="45.92432" lon="6.4911">
        <ele>1524</ele>
        <time>2017-08-29T10:28:49Z</time>
      </trkpt>
      <trkpt lat="45.92429" lon="6.49109">
        <ele>1524</ele>
        <time>2017-08-29T10:28:50Z</time>
      </trkpt>
      <trkpt lat="45.92426" lon="6.49109">
        <ele>1524</ele>
        <time>2017-08-29T10:28:51Z</time>
      </trkpt>
      <trkpt lat="45.92423" lon="6.49108">
        <ele>1524</ele>
        <time>2017-08-29T10:28:52Z</time>
      </trkpt>
      <trkpt lat="45.92421" lon="6.49109">
        <ele>1523</ele>
        <time>2017-08-29T10:28:53Z</time>
      </trkpt>
      <trkpt lat="45.92418" lon="6.49109">
        <ele>1523</ele>
        <time>2017-08-29T10:28:54Z</time>
      </trkpt>
      <trkpt lat="45.92415" lon="6.4911">
        <ele>1522</ele>
        <time>2017-08-29T10:28:55Z</time>
      </trkpt>
      <trkpt lat="45.92413" lon="6.4911">
        <ele>1522</ele>
        <time>2017-08-29T10:28:56Z</time>
      </trkpt>
      <trkpt lat="45.9241" lon="6.49111">
        <ele>1521</ele>
        <time>2017-08-29T10:28:57Z</time>
      </trkpt>
      <trkpt lat="45.92407" lon="6.49112">
        <ele>1521</ele>
        <time>2017-08-29T10:28:58Z</time>
      </trkpt>
      <trkpt lat="45.92405" lon="6.49111">
        <ele>1521</ele>
        <time>2017-08-29T10:28:59Z</time>
      </trkpt>
      <trkpt lat="45.92402" lon="6.49111">
        <ele>1521</ele>
        <time>2017-08-29T10:29:00Z</time>
      </trkpt>
      <trkpt lat="45.924" lon="6.49111">
        <ele>1521</ele>
        <time>2017-08-29T10:29:01Z</time>
      </trkpt>
      <trkpt lat="45.92397" lon="6.49111">
        <ele>1519</ele>
        <time>2017-08-29T10:29:02Z</time>
      </trkpt>
      <trkpt lat="45.92395" lon="6.49112">
        <ele>1518</ele>
        <time>2017-08-29T10:29:03Z</time>
      </trkpt>
      <trkpt lat="45.92392" lon="6.49112">
        <ele>1518</ele>
        <time>2017-08-29T10:29:04Z</time>
      </trkpt>
      <trkpt lat="45.92389" lon="6.49113">
        <ele>1517</ele>
        <time>2017-08-29T10:29:05Z</time>
      </trkpt>
      <trkpt lat="45.92386" lon="6.49114">
        <ele>1517</ele>
        <time>2017-08-29T10:29:06Z</time>
      </trkpt>
      <trkpt lat="45.92383" lon="6.49114">
        <ele>1516</ele>
        <time>2017-08-29T10:29:07Z</time>
      </trkpt>
      <trkpt lat="45.9238" lon="6.49114">
        <ele>1516</ele>
        <time>2017-08-29T10:29:08Z</time>
      </trkpt>
      <trkpt lat="45.92376" lon="6.49114">
        <ele>1515</ele>
        <time>2017-08-29T10:29:09Z</time>
      </trkpt>
      <trkpt lat="45.92373" lon="6.49113">
        <ele>1515</ele>
        <time>2017-08-29T10:29:10Z</time>
      </trkpt>
      <trkpt lat="45.9237" lon="6.49112">
        <ele>1515</ele>
        <time>2017-08-29T10:29:11Z</time>
      </trkpt>
      <trkpt lat="45.92367" lon="6.4911">
        <ele>1514</ele>
        <time>2017-08-29T10:29:12Z</time>
      </trkpt>
      <trkpt lat="45.92365" lon="6.49109">
        <ele>1513</ele>
        <time>2017-08-29T10:29:13Z</time>
      </trkpt>
      <trkpt lat="45.92362" lon="6.49106">
        <ele>1512</ele>
        <time>2017-08-29T10:29:14Z</time>
      </trkpt>
      <trkpt lat="45.9236" lon="6.49105">
        <ele>1511</ele>
        <time>2017-08-29T10:29:15Z</time>
      </trkpt>
      <trkpt lat="45.92358" lon="6.49103">
        <ele>1511</ele>
        <time>2017-08-29T10:29:16Z</time>
      </trkpt>
      <trkpt lat="45.92356" lon="6.49101">
        <ele>1510</ele>
        <time>2017-08-29T10:29:17Z</time>
      </trkpt>
      <trkpt lat="45.92354" lon="6.491">
        <ele>1510</ele>
        <time>2017-08-29T10:29:18Z</time>
      </trkpt>
      <trkpt lat="45.92353" lon="6.49098">
        <ele>1510</ele>
        <time>2017-08-29T10:29:19Z</time>
      </trkpt>
      <trkpt lat="45.92352" lon="6.49097">
        <ele>1509</ele>
        <time>2017-08-29T10:29:20Z</time>
      </trkpt>
      <trkpt lat="45.92347" lon="6.49092">
        <ele>1508</ele>
        <time>2017-08-29T10:29:21Z</time>
      </trkpt>
      <trkpt lat="45.92346" lon="6.49089">
        <ele>1508</ele>
        <time>2017-08-29T10:29:22Z</time>
      </trkpt>
      <trkpt lat="45.92344" lon="6.49086">
        <ele>1508</ele>
        <time>2017-08-29T10:29:23Z</time>
      </trkpt>
      <trkpt lat="45.92342" lon="6.49084">
        <ele>1508</ele>
        <time>2017-08-29T10:29:24Z</time>
      </trkpt>
      <trkpt lat="45.92339" lon="6.49081">
        <ele>1507</ele>
        <time>2017-08-29T10:29:25Z</time>
      </trkpt>
      <trkpt lat="45.92337" lon="6.49078">
        <ele>1507</ele>
        <time>2017-08-29T10:29:26Z</time>
      </trkpt>
      <trkpt lat="45.92335" lon="6.49075">
        <ele>1507</ele>
        <time>2017-08-29T10:29:27Z</time>
      </trkpt>
      <trkpt lat="45.92333" lon="6.49072">
        <ele>1507</ele>
        <time>2017-08-29T10:29:28Z</time>
      </trkpt>
      <trkpt lat="45.9233" lon="6.49071">
        <ele>1507</ele>
        <time>2017-08-29T10:29:29Z</time>
      </trkpt>
      <trkpt lat="45.92327" lon="6.49069">
        <ele>1507</ele>
        <time>2017-08-29T10:29:30Z</time>
      </trkpt>
      <trkpt lat="45.92325" lon="6.49068">
        <ele>1506</ele>
        <time>2017-08-29T10:29:31Z</time>
      </trkpt>
      <trkpt lat="45.92323" lon="6.49067">
        <ele>1505</ele>
        <time>2017-08-29T10:29:32Z</time>
      </trkpt>
      <trkpt lat="45.9232" lon="6.49065">
        <ele>1505</ele>
        <time>2017-08-29T10:29:33Z</time>
      </trkpt>
      <trkpt lat="45.92317" lon="6.49064">
        <ele>1504</ele>
        <time>2017-08-29T10:29:34Z</time>
      </trkpt>
      <trkpt lat="45.92314" lon="6.49063">
        <ele>1504</ele>
        <time>2017-08-29T10:29:35Z</time>
      </trkpt>
      <trkpt lat="45.92312" lon="6.49062">
        <ele>1504</ele>
        <time>2017-08-29T10:29:36Z</time>
      </trkpt>
      <trkpt lat="45.92309" lon="6.49062">
        <ele>1503</ele>
        <time>2017-08-29T10:29:37Z</time>
      </trkpt>
      <trkpt lat="45.92306" lon="6.49061">
        <ele>1503</ele>
        <time>2017-08-29T10:29:38Z</time>
      </trkpt>
      <trkpt lat="45.92304" lon="6.4906">
        <ele>1502</ele>
        <time>2017-08-29T10:29:39Z</time>
      </trkpt>
      <trkpt lat="45.92301" lon="6.49059">
        <ele>1501</ele>
        <time>2017-08-29T10:29:40Z</time>
      </trkpt>
      <trkpt lat="45.92298" lon="6.49057">
        <ele>1501</ele>
        <time>2017-08-29T10:29:41Z</time>
      </trkpt>
      <trkpt lat="45.92296" lon="6.49056">
        <ele>1501</ele>
        <time>2017-08-29T10:29:42Z</time>
      </trkpt>
      <trkpt lat="45.92293" lon="6.49053">
        <ele>1501</ele>
        <time>2017-08-29T10:29:43Z</time>
      </trkpt>
      <trkpt lat="45.92291" lon="6.49051">
        <ele>1500</ele>
        <time>2017-08-29T10:29:44Z</time>
      </trkpt>
      <trkpt lat="45.92288" lon="6.49049">
        <ele>1500</ele>
        <time>2017-08-29T10:29:45Z</time>
      </trkpt>
      <trkpt lat="45.92286" lon="6.49047">
        <ele>1500</ele>
        <time>2017-08-29T10:29:46Z</time>
      </trkpt>
      <trkpt lat="45.92284" lon="6.49045">
        <ele>1499</ele>
        <time>2017-08-29T10:29:47Z</time>
      </trkpt>
      <trkpt lat="45.92282" lon="6.49042">
        <ele>1499</ele>
        <time>2017-08-29T10:29:48Z</time>
      </trkpt>
      <trkpt lat="45.9228" lon="6.49039">
        <ele>1499</ele>
        <time>2017-08-29T10:29:49Z</time>
      </trkpt>
      <trkpt lat="45.92278" lon="6.49037">
        <ele>1499</ele>
        <time>2017-08-29T10:29:50Z</time>
      </trkpt>
      <trkpt lat="45.92276" lon="6.49033">
        <ele>1498</ele>
        <time>2017-08-29T10:29:51Z</time>
      </trkpt>
      <trkpt lat="45.92273" lon="6.49031">
        <ele>1497</ele>
        <time>2017-08-29T10:29:52Z</time>
      </trkpt>
      <trkpt lat="45.92271" lon="6.49027">
        <ele>1497</ele>
        <time>2017-08-29T10:29:53Z</time>
      </trkpt>
      <trkpt lat="45.9227" lon="6.49024">
        <ele>1497</ele>
        <time>2017-08-29T10:29:54Z</time>
      </trkpt>
      <trkpt lat="45.92268" lon="6.49021">
        <ele>1496</ele>
        <time>2017-08-29T10:29:55Z</time>
      </trkpt>
      <trkpt lat="45.92265" lon="6.49017">
        <ele>1496</ele>
        <time>2017-08-29T10:29:56Z</time>
      </trkpt>
      <trkpt lat="45.92263" lon="6.49014">
        <ele>1496</ele>
        <time>2017-08-29T10:29:57Z</time>
      </trkpt>
      <trkpt lat="45.92261" lon="6.49011">
        <ele>1495</ele>
        <time>2017-08-29T10:29:58Z</time>
      </trkpt>
      <trkpt lat="45.92259" lon="6.49008">
        <ele>1494</ele>
        <time>2017-08-29T10:29:59Z</time>
      </trkpt>
      <trkpt lat="45.92257" lon="6.49006">
        <ele>1494</ele>
        <time>2017-08-29T10:30:00Z</time>
      </trkpt>
      <trkpt lat="45.92255" lon="6.49003">
        <ele>1494</ele>
        <time>2017-08-29T10:30:01Z</time>
      </trkpt>
      <trkpt lat="45.92253" lon="6.48999">
        <ele>1493</ele>
        <time>2017-08-29T10:30:02Z</time>
      </trkpt>
      <trkpt lat="45.92251" lon="6.48996">
        <ele>1493</ele>
        <time>2017-08-29T10:30:03Z</time>
      </trkpt>
      <trkpt lat="45.92249" lon="6.48993">
        <ele>1493</ele>
        <time>2017-08-29T10:30:04Z</time>
      </trkpt>
      <trkpt lat="45.92247" lon="6.4899">
        <ele>1492</ele>
        <time>2017-08-29T10:30:05Z</time>
      </trkpt>
      <trkpt lat="45.92244" lon="6.48987">
        <ele>1492</ele>
        <time>2017-08-29T10:30:06Z</time>
      </trkpt>
      <trkpt lat="45.92242" lon="6.48986">
        <ele>1492</ele>
        <time>2017-08-29T10:30:07Z</time>
      </trkpt>
      <trkpt lat="45.9224" lon="6.48983">
        <ele>1492</ele>
        <time>2017-08-29T10:30:08Z</time>
      </trkpt>
      <trkpt lat="45.92239" lon="6.48981">
        <ele>1492</ele>
        <time>2017-08-29T10:30:09Z</time>
      </trkpt>
      <trkpt lat="45.92237" lon="6.48978">
        <ele>1492</ele>
        <time>2017-08-29T10:30:10Z</time>
      </trkpt>
      <trkpt lat="45.92235" lon="6.48974">
        <ele>1492</ele>
        <time>2017-08-29T10:30:11Z</time>
      </trkpt>
      <trkpt lat="45.92234" lon="6.48971">
        <ele>1490</ele>
        <time>2017-08-29T10:30:12Z</time>
      </trkpt>
      <trkpt lat="45.92233" lon="6.48968">
        <ele>1489</ele>
        <time>2017-08-29T10:30:13Z</time>
      </trkpt>
      <trkpt lat="45.92231" lon="6.48965">
        <ele>1489</ele>
        <time>2017-08-29T10:30:14Z</time>
      </trkpt>
      <trkpt lat="45.9223" lon="6.48962">
        <ele>1488</ele>
        <time>2017-08-29T10:30:15Z</time>
      </trkpt>
      <trkpt lat="45.92228" lon="6.48957">
        <ele>1488</ele>
        <time>2017-08-29T10:30:16Z</time>
      </trkpt>
      <trkpt lat="45.92226" lon="6.48954">
        <ele>1488</ele>
        <time>2017-08-29T10:30:17Z</time>
      </trkpt>
      <trkpt lat="45.92225" lon="6.48952">
        <ele>1487</ele>
        <time>2017-08-29T10:30:18Z</time>
      </trkpt>
      <trkpt lat="45.92223" lon="6.48949">
        <ele>1487</ele>
        <time>2017-08-29T10:30:19Z</time>
      </trkpt>
      <trkpt lat="45.92222" lon="6.48947">
        <ele>1487</ele>
        <time>2017-08-29T10:30:20Z</time>
      </trkpt>
      <trkpt lat="45.9222" lon="6.48945">
        <ele>1487</ele>
        <time>2017-08-29T10:30:21Z</time>
      </trkpt>
      <trkpt lat="45.92217" lon="6.48942">
        <ele>1486</ele>
        <time>2017-08-29T10:30:22Z</time>
      </trkpt>
      <trkpt lat="45.92215" lon="6.4894">
        <ele>1486</ele>
        <time>2017-08-29T10:30:23Z</time>
      </trkpt>
      <trkpt lat="45.92213" lon="6.48938">
        <ele>1486</ele>
        <time>2017-08-29T10:30:24Z</time>
      </trkpt>
      <trkpt lat="45.92211" lon="6.48935">
        <ele>1486</ele>
        <time>2017-08-29T10:30:25Z</time>
      </trkpt>
      <trkpt lat="45.9221" lon="6.48933">
        <ele>1485</ele>
        <time>2017-08-29T10:30:26Z</time>
      </trkpt>
      <trkpt lat="45.92208" lon="6.4893">
        <ele>1484</ele>
        <time>2017-08-29T10:30:27Z</time>
      </trkpt>
      <trkpt lat="45.92206" lon="6.48927">
        <ele>1484</ele>
        <time>2017-08-29T10:30:28Z</time>
      </trkpt>
      <trkpt lat="45.92203" lon="6.48925">
        <ele>1484</ele>
        <time>2017-08-29T10:30:29Z</time>
      </trkpt>
      <trkpt lat="45.92201" lon="6.48922">
        <ele>1484</ele>
        <time>2017-08-29T10:30:30Z</time>
      </trkpt>
      <trkpt lat="45.92199" lon="6.48919">
        <ele>1484</ele>
        <time>2017-08-29T10:30:31Z</time>
      </trkpt>
      <trkpt lat="45.92196" lon="6.48917">
        <ele>1484</ele>
        <time>2017-08-29T10:30:32Z</time>
      </trkpt>
      <trkpt lat="45.92194" lon="6.48915">
        <ele>1483</ele>
        <time>2017-08-29T10:30:33Z</time>
      </trkpt>
      <trkpt lat="45.92192" lon="6.48912">
        <ele>1483</ele>
        <time>2017-08-29T10:30:34Z</time>
      </trkpt>
      <trkpt lat="45.9219" lon="6.4891">
        <ele>1483</ele>
        <time>2017-08-29T10:30:35Z</time>
      </trkpt>
      <trkpt lat="45.92188" lon="6.48908">
        <ele>1483</ele>
        <time>2017-08-29T10:30:36Z</time>
      </trkpt>
      <trkpt lat="45.92186" lon="6.48905">
        <ele>1483</ele>
        <time>2017-08-29T10:30:37Z</time>
      </trkpt>
      <trkpt lat="45.92184" lon="6.48903">
        <ele>1483</ele>
        <time>2017-08-29T10:30:38Z</time>
      </trkpt>
      <trkpt lat="45.92181" lon="6.48901">
        <ele>1483</ele>
        <time>2017-08-29T10:30:39Z</time>
      </trkpt>
      <trkpt lat="45.9218" lon="6.48898">
        <ele>1483</ele>
        <time>2017-08-29T10:30:40Z</time>
      </trkpt>
      <trkpt lat="45.92177" lon="6.48895">
        <ele>1483</ele>
        <time>2017-08-29T10:30:41Z</time>
      </trkpt>
      <trkpt lat="45.92175" lon="6.48893">
        <ele>1483</ele>
        <time>2017-08-29T10:30:42Z</time>
      </trkpt>
      <trkpt lat="45.92174" lon="6.48891">
        <ele>1483</ele>
        <time>2017-08-29T10:30:43Z</time>
      </trkpt>
      <trkpt lat="45.92172" lon="6.48889">
        <ele>1482</ele>
        <time>2017-08-29T10:30:44Z</time>
      </trkpt>
      <trkpt lat="45.9217" lon="6.48887">
        <ele>1482</ele>
        <time>2017-08-29T10:30:45Z</time>
      </trkpt>
      <trkpt lat="45.92168" lon="6.48886">
        <ele>1482</ele>
        <time>2017-08-29T10:30:46Z</time>
      </trkpt>
      <trkpt lat="45.92166" lon="6.48885">
        <ele>1482</ele>
        <time>2017-08-29T10:30:47Z</time>
      </trkpt>
      <trkpt lat="45.92164" lon="6.48884">
        <ele>1481</ele>
        <time>2017-08-29T10:30:48Z</time>
      </trkpt>
      <trkpt lat="45.92162" lon="6.48881">
        <ele>1481</ele>
        <time>2017-08-29T10:30:49Z</time>
      </trkpt>
      <trkpt lat="45.92161" lon="6.48878">
        <ele>1481</ele>
        <time>2017-08-29T10:30:50Z</time>
      </trkpt>
      <trkpt lat="45.92161" lon="6.48875">
        <ele>1481</ele>
        <time>2017-08-29T10:30:51Z</time>
      </trkpt>
      <trkpt lat="45.92161" lon="6.48872">
        <ele>1481</ele>
        <time>2017-08-29T10:30:52Z</time>
      </trkpt>
      <trkpt lat="45.92162" lon="6.48869">
        <ele>1481</ele>
        <time>2017-08-29T10:30:53Z</time>
      </trkpt>
      <trkpt lat="45.92162" lon="6.48865">
        <ele>1481</ele>
        <time>2017-08-29T10:30:54Z</time>
      </trkpt>
      <trkpt lat="45.92163" lon="6.48862">
        <ele>1481</ele>
        <time>2017-08-29T10:30:55Z</time>
      </trkpt>
      <trkpt lat="45.92164" lon="6.48859">
        <ele>1481</ele>
        <time>2017-08-29T10:30:56Z</time>
      </trkpt>
      <trkpt lat="45.92164" lon="6.48856">
        <ele>1482</ele>
        <time>2017-08-29T10:30:57Z</time>
      </trkpt>
      <trkpt lat="45.92165" lon="6.48853">
        <ele>1482</ele>
        <time>2017-08-29T10:30:58Z</time>
      </trkpt>
      <trkpt lat="45.92166" lon="6.4885">
        <ele>1482</ele>
        <time>2017-08-29T10:30:59Z</time>
      </trkpt>
      <trkpt lat="45.92167" lon="6.48847">
        <ele>1481</ele>
        <time>2017-08-29T10:31:00Z</time>
      </trkpt>
      <trkpt lat="45.92168" lon="6.48845">
        <ele>1481</ele>
        <time>2017-08-29T10:31:01Z</time>
      </trkpt>
      <trkpt lat="45.92169" lon="6.48843">
        <ele>1481</ele>
        <time>2017-08-29T10:31:02Z</time>
      </trkpt>
      <trkpt lat="45.92171" lon="6.4884">
        <ele>1481</ele>
        <time>2017-08-29T10:31:03Z</time>
      </trkpt>
      <trkpt lat="45.92172" lon="6.48838">
        <ele>1482</ele>
        <time>2017-08-29T10:31:04Z</time>
      </trkpt>
      <trkpt lat="45.92173" lon="6.48836">
        <ele>1482</ele>
        <time>2017-08-29T10:31:05Z</time>
      </trkpt>
      <trkpt lat="45.92174" lon="6.48834">
        <ele>1482</ele>
        <time>2017-08-29T10:31:06Z</time>
      </trkpt>
      <trkpt lat="45.92176" lon="6.48831">
        <ele>1482</ele>
        <time>2017-08-29T10:31:07Z</time>
      </trkpt>
      <trkpt lat="45.92176" lon="6.48831">
        <ele>1482</ele>
        <time>2017-08-29T10:31:08Z</time>
      </trkpt>
      <trkpt lat="45.92178" lon="6.48828">
        <ele>1483</ele>
        <time>2017-08-29T10:31:09Z</time>
      </trkpt>
      <trkpt lat="45.92178" lon="6.48828">
        <ele>1483</ele>
        <time>2017-08-29T10:31:10Z</time>
      </trkpt>
      <trkpt lat="45.9218" lon="6.48824">
        <ele>1483</ele>
        <time>2017-08-29T10:31:11Z</time>
      </trkpt>
      <trkpt lat="45.9218" lon="6.48824">
        <ele>1484</ele>
        <time>2017-08-29T10:31:12Z</time>
      </trkpt>
      <trkpt lat="45.92181" lon="6.48819">
        <ele>1483</ele>
        <time>2017-08-29T10:31:13Z</time>
      </trkpt>
      <trkpt lat="45.92181" lon="6.48819">
        <ele>1483</ele>
        <time>2017-08-29T10:31:14Z</time>
      </trkpt>
      <trkpt lat="45.92181" lon="6.48814">
        <ele>1484</ele>
        <time>2017-08-29T10:31:15Z</time>
      </trkpt>
      <trkpt lat="45.92181" lon="6.48812">
        <ele>1484</ele>
        <time>2017-08-29T10:31:16Z</time>
      </trkpt>
      <trkpt lat="45.92181" lon="6.48812">
        <ele>1484</ele>
        <time>2017-08-29T10:31:17Z</time>
      </trkpt>
      <trkpt lat="45.9218" lon="6.48808">
        <ele>1484</ele>
        <time>2017-08-29T10:31:18Z</time>
      </trkpt>
      <trkpt lat="45.9218" lon="6.48808">
        <ele>1485</ele>
        <time>2017-08-29T10:31:19Z</time>
      </trkpt>
      <trkpt lat="45.92179" lon="6.48803">
        <ele>1485</ele>
        <time>2017-08-29T10:31:20Z</time>
      </trkpt>
      <trkpt lat="45.92179" lon="6.48801">
        <ele>1485</ele>
        <time>2017-08-29T10:31:21Z</time>
      </trkpt>
      <trkpt lat="45.92179" lon="6.48801">
        <ele>1485</ele>
        <time>2017-08-29T10:31:22Z</time>
      </trkpt>
      <trkpt lat="45.92179" lon="6.48796">
        <ele>1485</ele>
        <time>2017-08-29T10:31:23Z</time>
      </trkpt>
      <trkpt lat="45.92178" lon="6.48794">
        <ele>1485</ele>
        <time>2017-08-29T10:31:24Z</time>
      </trkpt>
      <trkpt lat="45.92178" lon="6.48794">
        <ele>1485</ele>
        <time>2017-08-29T10:31:25Z</time>
      </trkpt>
      <trkpt lat="45.92178" lon="6.48789">
        <ele>1485</ele>
        <time>2017-08-29T10:31:26Z</time>
      </trkpt>
      <trkpt lat="45.92178" lon="6.48789">
        <ele>1485</ele>
        <time>2017-08-29T10:31:27Z</time>
      </trkpt>
      <trkpt lat="45.92177" lon="6.48784">
        <ele>1485</ele>
        <time>2017-08-29T10:31:28Z</time>
      </trkpt>
      <trkpt lat="45.92176" lon="6.48782">
        <ele>1486</ele>
        <time>2017-08-29T10:31:29Z</time>
      </trkpt>
      <trkpt lat="45.92175" lon="6.48779">
        <ele>1486</ele>
        <time>2017-08-29T10:31:30Z</time>
      </trkpt>
      <trkpt lat="45.92174" lon="6.48777">
        <ele>1486</ele>
        <time>2017-08-29T10:31:31Z</time>
      </trkpt>
      <trkpt lat="45.92173" lon="6.48774">
        <ele>1486</ele>
        <time>2017-08-29T10:31:32Z</time>
      </trkpt>
      <trkpt lat="45.92172" lon="6.48771">
        <ele>1486</ele>
        <time>2017-08-29T10:31:33Z</time>
      </trkpt>
      <trkpt lat="45.92172" lon="6.48769">
        <ele>1485</ele>
        <time>2017-08-29T10:31:34Z</time>
      </trkpt>
      <trkpt lat="45.92171" lon="6.48766">
        <ele>1485</ele>
        <time>2017-08-29T10:31:35Z</time>
      </trkpt>
      <trkpt lat="45.9217" lon="6.48764">
        <ele>1485</ele>
        <time>2017-08-29T10:31:36Z</time>
      </trkpt>
      <trkpt lat="45.92169" lon="6.48761">
        <ele>1485</ele>
        <time>2017-08-29T10:31:37Z</time>
      </trkpt>
      <trkpt lat="45.92168" lon="6.48759">
        <ele>1486</ele>
        <time>2017-08-29T10:31:38Z</time>
      </trkpt>
      <trkpt lat="45.92168" lon="6.48759">
        <ele>1486</ele>
        <time>2017-08-29T10:31:39Z</time>
      </trkpt>
      <trkpt lat="45.92167" lon="6.48754">
        <ele>1486</ele>
        <time>2017-08-29T10:31:40Z</time>
      </trkpt>
      <trkpt lat="45.92167" lon="6.48754">
        <ele>1486</ele>
        <time>2017-08-29T10:31:41Z</time>
      </trkpt>
      <trkpt lat="45.92166" lon="6.4875">
        <ele>1486</ele>
        <time>2017-08-29T10:31:42Z</time>
      </trkpt>
      <trkpt lat="45.92165" lon="6.48747">
        <ele>1486</ele>
        <time>2017-08-29T10:31:43Z</time>
      </trkpt>
      <trkpt lat="45.92165" lon="6.48747">
        <ele>1486</ele>
        <time>2017-08-29T10:31:44Z</time>
      </trkpt>
      <trkpt lat="45.92164" lon="6.48743">
        <ele>1487</ele>
        <time>2017-08-29T10:31:45Z</time>
      </trkpt>
      <trkpt lat="45.92164" lon="6.48743">
        <ele>1487</ele>
        <time>2017-08-29T10:31:46Z</time>
      </trkpt>
      <trkpt lat="45.92163" lon="6.4874">
        <ele>1487</ele>
        <time>2017-08-29T10:31:47Z</time>
      </trkpt>
      <trkpt lat="45.92163" lon="6.4874">
        <ele>1487</ele>
        <time>2017-08-29T10:31:48Z</time>
      </trkpt>
      <trkpt lat="45.92161" lon="6.48735">
        <ele>1487</ele>
        <time>2017-08-29T10:31:49Z</time>
      </trkpt>
      <trkpt lat="45.92161" lon="6.48735">
        <ele>1487</ele>
        <time>2017-08-29T10:31:50Z</time>
      </trkpt>
      <trkpt lat="45.9216" lon="6.4873">
        <ele>1487</ele>
        <time>2017-08-29T10:31:51Z</time>
      </trkpt>
      <trkpt lat="45.92159" lon="6.48728">
        <ele>1488</ele>
        <time>2017-08-29T10:31:52Z</time>
      </trkpt>
      <trkpt lat="45.92159" lon="6.48726">
        <ele>1488</ele>
        <time>2017-08-29T10:31:53Z</time>
      </trkpt>
      <trkpt lat="45.92159" lon="6.48726">
        <ele>1488</ele>
        <time>2017-08-29T10:31:54Z</time>
      </trkpt>
      <trkpt lat="45.92157" lon="6.48721">
        <ele>1488</ele>
        <time>2017-08-29T10:31:55Z</time>
      </trkpt>
      <trkpt lat="45.92156" lon="6.48719">
        <ele>1488</ele>
        <time>2017-08-29T10:31:56Z</time>
      </trkpt>
      <trkpt lat="45.92155" lon="6.48716">
        <ele>1488</ele>
        <time>2017-08-29T10:31:57Z</time>
      </trkpt>
      <trkpt lat="45.92154" lon="6.48714">
        <ele>1488</ele>
        <time>2017-08-29T10:31:58Z</time>
      </trkpt>
      <trkpt lat="45.92154" lon="6.48714">
        <ele>1488</ele>
        <time>2017-08-29T10:31:59Z</time>
      </trkpt>
      <trkpt lat="45.92151" lon="6.4871">
        <ele>1488</ele>
        <time>2017-08-29T10:32:00Z</time>
      </trkpt>
      <trkpt lat="45.9215" lon="6.48708">
        <ele>1489</ele>
        <time>2017-08-29T10:32:01Z</time>
      </trkpt>
      <trkpt lat="45.9215" lon="6.48708">
        <ele>1489</ele>
        <time>2017-08-29T10:32:02Z</time>
      </trkpt>
      <trkpt lat="45.92148" lon="6.48704">
        <ele>1489</ele>
        <time>2017-08-29T10:32:03Z</time>
      </trkpt>
      <trkpt lat="45.92147" lon="6.48702">
        <ele>1488</ele>
        <time>2017-08-29T10:32:04Z</time>
      </trkpt>
      <trkpt lat="45.92146" lon="6.487">
        <ele>1488</ele>
        <time>2017-08-29T10:32:05Z</time>
      </trkpt>
      <trkpt lat="45.92145" lon="6.48698">
        <ele>1488</ele>
        <time>2017-08-29T10:32:06Z</time>
      </trkpt>
      <trkpt lat="45.92143" lon="6.48695">
        <ele>1488</ele>
        <time>2017-08-29T10:32:07Z</time>
      </trkpt>
      <trkpt lat="45.92142" lon="6.48693">
        <ele>1488</ele>
        <time>2017-08-29T10:32:08Z</time>
      </trkpt>
      <trkpt lat="45.9214" lon="6.4869">
        <ele>1489</ele>
        <time>2017-08-29T10:32:09Z</time>
      </trkpt>
      <trkpt lat="45.92138" lon="6.48688">
        <ele>1489</ele>
        <time>2017-08-29T10:32:10Z</time>
      </trkpt>
      <trkpt lat="45.92136" lon="6.48686">
        <ele>1489</ele>
        <time>2017-08-29T10:32:11Z</time>
      </trkpt>
      <trkpt lat="45.92135" lon="6.48684">
        <ele>1488</ele>
        <time>2017-08-29T10:32:12Z</time>
      </trkpt>
      <trkpt lat="45.92133" lon="6.48681">
        <ele>1488</ele>
        <time>2017-08-29T10:32:13Z</time>
      </trkpt>
      <trkpt lat="45.92131" lon="6.48679">
        <ele>1489</ele>
        <time>2017-08-29T10:32:14Z</time>
      </trkpt>
      <trkpt lat="45.9213" lon="6.48676">
        <ele>1489</ele>
        <time>2017-08-29T10:32:15Z</time>
      </trkpt>
      <trkpt lat="45.92128" lon="6.48673">
        <ele>1489</ele>
        <time>2017-08-29T10:32:16Z</time>
      </trkpt>
      <trkpt lat="45.92127" lon="6.48671">
        <ele>1489</ele>
        <time>2017-08-29T10:32:17Z</time>
      </trkpt>
      <trkpt lat="45.92125" lon="6.48669">
        <ele>1489</ele>
        <time>2017-08-29T10:32:18Z</time>
      </trkpt>
      <trkpt lat="45.92124" lon="6.48667">
        <ele>1489</ele>
        <time>2017-08-29T10:32:19Z</time>
      </trkpt>
      <trkpt lat="45.92122" lon="6.48665">
        <ele>1488</ele>
        <time>2017-08-29T10:32:20Z</time>
      </trkpt>
      <trkpt lat="45.92122" lon="6.48665">
        <ele>1488</ele>
        <time>2017-08-29T10:32:21Z</time>
      </trkpt>
      <trkpt lat="45.9212" lon="6.48661">
        <ele>1488</ele>
        <time>2017-08-29T10:32:22Z</time>
      </trkpt>
      <trkpt lat="45.92119" lon="6.48658">
        <ele>1488</ele>
        <time>2017-08-29T10:32:23Z</time>
      </trkpt>
      <trkpt lat="45.92118" lon="6.48656">
        <ele>1488</ele>
        <time>2017-08-29T10:32:24Z</time>
      </trkpt>
      <trkpt lat="45.92118" lon="6.48653">
        <ele>1488</ele>
        <time>2017-08-29T10:32:25Z</time>
      </trkpt>
      <trkpt lat="45.92117" lon="6.48651">
        <ele>1489</ele>
        <time>2017-08-29T10:32:26Z</time>
      </trkpt>
      <trkpt lat="45.92117" lon="6.48647">
        <ele>1489</ele>
        <time>2017-08-29T10:32:27Z</time>
      </trkpt>
      <trkpt lat="45.92117" lon="6.48645">
        <ele>1489</ele>
        <time>2017-08-29T10:32:28Z</time>
      </trkpt>
      <trkpt lat="45.92117" lon="6.48642">
        <ele>1489</ele>
        <time>2017-08-29T10:32:29Z</time>
      </trkpt>
      <trkpt lat="45.92117" lon="6.48639">
        <ele>1489</ele>
        <time>2017-08-29T10:32:30Z</time>
      </trkpt>
      <trkpt lat="45.92118" lon="6.48636">
        <ele>1490</ele>
        <time>2017-08-29T10:32:31Z</time>
      </trkpt>
      <trkpt lat="45.92119" lon="6.48634">
        <ele>1490</ele>
        <time>2017-08-29T10:32:32Z</time>
      </trkpt>
      <trkpt lat="45.9212" lon="6.48631">
        <ele>1490</ele>
        <time>2017-08-29T10:32:33Z</time>
      </trkpt>
      <trkpt lat="45.92121" lon="6.48628">
        <ele>1490</ele>
        <time>2017-08-29T10:32:34Z</time>
      </trkpt>
      <trkpt lat="45.92122" lon="6.48625">
        <ele>1490</ele>
        <time>2017-08-29T10:32:35Z</time>
      </trkpt>
      <trkpt lat="45.92123" lon="6.48622">
        <ele>1490</ele>
        <time>2017-08-29T10:32:36Z</time>
      </trkpt>
      <trkpt lat="45.92125" lon="6.48619">
        <ele>1490</ele>
        <time>2017-08-29T10:32:37Z</time>
      </trkpt>
      <trkpt lat="45.92126" lon="6.48616">
        <ele>1490</ele>
        <time>2017-08-29T10:32:38Z</time>
      </trkpt>
      <trkpt lat="45.92127" lon="6.48613">
        <ele>1491</ele>
        <time>2017-08-29T10:32:39Z</time>
      </trkpt>
      <trkpt lat="45.92128" lon="6.4861">
        <ele>1491</ele>
        <time>2017-08-29T10:32:40Z</time>
      </trkpt>
      <trkpt lat="45.92129" lon="6.48607">
        <ele>1491</ele>
        <time>2017-08-29T10:32:41Z</time>
      </trkpt>
      <trkpt lat="45.9213" lon="6.48605">
        <ele>1490</ele>
        <time>2017-08-29T10:32:42Z</time>
      </trkpt>
      <trkpt lat="45.92132" lon="6.48601">
        <ele>1490</ele>
        <time>2017-08-29T10:32:43Z</time>
      </trkpt>
      <trkpt lat="45.92133" lon="6.48598">
        <ele>1489</ele>
        <time>2017-08-29T10:32:44Z</time>
      </trkpt>
      <trkpt lat="45.92134" lon="6.48595">
        <ele>1489</ele>
        <time>2017-08-29T10:32:45Z</time>
      </trkpt>
      <trkpt lat="45.92135" lon="6.48592">
        <ele>1489</ele>
        <time>2017-08-29T10:32:46Z</time>
      </trkpt>
      <trkpt lat="45.92136" lon="6.48589">
        <ele>1489</ele>
        <time>2017-08-29T10:32:47Z</time>
      </trkpt>
      <trkpt lat="45.92137" lon="6.48585">
        <ele>1489</ele>
        <time>2017-08-29T10:32:48Z</time>
      </trkpt>
      <trkpt lat="45.92137" lon="6.48582">
        <ele>1489</ele>
        <time>2017-08-29T10:32:49Z</time>
      </trkpt>
      <trkpt lat="45.92138" lon="6.48579">
        <ele>1489</ele>
        <time>2017-08-29T10:32:50Z</time>
      </trkpt>
      <trkpt lat="45.92138" lon="6.48576">
        <ele>1489</ele>
        <time>2017-08-29T10:32:51Z</time>
      </trkpt>
      <trkpt lat="45.92139" lon="6.48572">
        <ele>1489</ele>
        <time>2017-08-29T10:32:52Z</time>
      </trkpt>
      <trkpt lat="45.92139" lon="6.48569">
        <ele>1489</ele>
        <time>2017-08-29T10:32:53Z</time>
      </trkpt>
      <trkpt lat="45.92139" lon="6.48566">
        <ele>1488</ele>
        <time>2017-08-29T10:32:54Z</time>
      </trkpt>
      <trkpt lat="45.92138" lon="6.48563">
        <ele>1489</ele>
        <time>2017-08-29T10:32:55Z</time>
      </trkpt>
      <trkpt lat="45.92138" lon="6.4856">
        <ele>1489</ele>
        <time>2017-08-29T10:32:56Z</time>
      </trkpt>
      <trkpt lat="45.92137" lon="6.48557">
        <ele>1489</ele>
        <time>2017-08-29T10:32:57Z</time>
      </trkpt>
      <trkpt lat="45.92136" lon="6.48554">
        <ele>1489</ele>
        <time>2017-08-29T10:32:58Z</time>
      </trkpt>
      <trkpt lat="45.92135" lon="6.48552">
        <ele>1489</ele>
        <time>2017-08-29T10:32:59Z</time>
      </trkpt>
      <trkpt lat="45.92135" lon="6.48549">
        <ele>1490</ele>
        <time>2017-08-29T10:33:00Z</time>
      </trkpt>
      <trkpt lat="45.92134" lon="6.48546">
        <ele>1490</ele>
        <time>2017-08-29T10:33:01Z</time>
      </trkpt>
      <trkpt lat="45.92133" lon="6.48543">
        <ele>1490</ele>
        <time>2017-08-29T10:33:02Z</time>
      </trkpt>
      <trkpt lat="45.92132" lon="6.48541">
        <ele>1490</ele>
        <time>2017-08-29T10:33:03Z</time>
      </trkpt>
      <trkpt lat="45.92131" lon="6.48538">
        <ele>1491</ele>
        <time>2017-08-29T10:33:04Z</time>
      </trkpt>
      <trkpt lat="45.9213" lon="6.48536">
        <ele>1491</ele>
        <time>2017-08-29T10:33:05Z</time>
      </trkpt>
      <trkpt lat="45.92128" lon="6.48533">
        <ele>1491</ele>
        <time>2017-08-29T10:33:06Z</time>
      </trkpt>
      <trkpt lat="45.92127" lon="6.48532">
        <ele>1491</ele>
        <time>2017-08-29T10:33:07Z</time>
      </trkpt>
      <trkpt lat="45.92125" lon="6.4853">
        <ele>1490</ele>
        <time>2017-08-29T10:33:08Z</time>
      </trkpt>
      <trkpt lat="45.92123" lon="6.48529">
        <ele>1490</ele>
        <time>2017-08-29T10:33:09Z</time>
      </trkpt>
      <trkpt lat="45.92122" lon="6.48527">
        <ele>1490</ele>
        <time>2017-08-29T10:33:10Z</time>
      </trkpt>
      <trkpt lat="45.9212" lon="6.48527">
        <ele>1491</ele>
        <time>2017-08-29T10:33:11Z</time>
      </trkpt>
      <trkpt lat="45.92118" lon="6.48527">
        <ele>1491</ele>
        <time>2017-08-29T10:33:12Z</time>
      </trkpt>
      <trkpt lat="45.92116" lon="6.48528">
        <ele>1491</ele>
        <time>2017-08-29T10:33:13Z</time>
      </trkpt>
      <trkpt lat="45.92113" lon="6.48528">
        <ele>1491</ele>
        <time>2017-08-29T10:33:14Z</time>
      </trkpt>
      <trkpt lat="45.92111" lon="6.48529">
        <ele>1491</ele>
        <time>2017-08-29T10:33:15Z</time>
      </trkpt>
      <trkpt lat="45.92108" lon="6.4853">
        <ele>1491</ele>
        <time>2017-08-29T10:33:16Z</time>
      </trkpt>
      <trkpt lat="45.92106" lon="6.48531">
        <ele>1491</ele>
        <time>2017-08-29T10:33:17Z</time>
      </trkpt>
      <trkpt lat="45.92103" lon="6.48532">
        <ele>1491</ele>
        <time>2017-08-29T10:33:18Z</time>
      </trkpt>
      <trkpt lat="45.92101" lon="6.48532">
        <ele>1491</ele>
        <time>2017-08-29T10:33:19Z</time>
      </trkpt>
      <trkpt lat="45.92098" lon="6.48533">
        <ele>1491</ele>
        <time>2017-08-29T10:33:20Z</time>
      </trkpt>
      <trkpt lat="45.92095" lon="6.48534">
        <ele>1491</ele>
        <time>2017-08-29T10:33:21Z</time>
      </trkpt>
      <trkpt lat="45.92093" lon="6.48534">
        <ele>1491</ele>
        <time>2017-08-29T10:33:22Z</time>
      </trkpt>
      <trkpt lat="45.9209" lon="6.48533">
        <ele>1491</ele>
        <time>2017-08-29T10:33:23Z</time>
      </trkpt>
      <trkpt lat="45.92088" lon="6.48531">
        <ele>1491</ele>
        <time>2017-08-29T10:33:24Z</time>
      </trkpt>
      <trkpt lat="45.92086" lon="6.48529">
        <ele>1490</ele>
        <time>2017-08-29T10:33:25Z</time>
      </trkpt>
      <trkpt lat="45.92085" lon="6.48526">
        <ele>1490</ele>
        <time>2017-08-29T10:33:26Z</time>
      </trkpt>
      <trkpt lat="45.92084" lon="6.48522">
        <ele>1490</ele>
        <time>2017-08-29T10:33:27Z</time>
      </trkpt>
      <trkpt lat="45.92083" lon="6.48519">
        <ele>1489</ele>
        <time>2017-08-29T10:33:28Z</time>
      </trkpt>
      <trkpt lat="45.92082" lon="6.48516">
        <ele>1488</ele>
        <time>2017-08-29T10:33:29Z</time>
      </trkpt>
      <trkpt lat="45.92082" lon="6.48512">
        <ele>1488</ele>
        <time>2017-08-29T10:33:30Z</time>
      </trkpt>
      <trkpt lat="45.92081" lon="6.48509">
        <ele>1488</ele>
        <time>2017-08-29T10:33:31Z</time>
      </trkpt>
      <trkpt lat="45.9208" lon="6.48505">
        <ele>1488</ele>
        <time>2017-08-29T10:33:32Z</time>
      </trkpt>
      <trkpt lat="45.9208" lon="6.48502">
        <ele>1487</ele>
        <time>2017-08-29T10:33:33Z</time>
      </trkpt>
      <trkpt lat="45.92079" lon="6.48498">
        <ele>1487</ele>
        <time>2017-08-29T10:33:34Z</time>
      </trkpt>
      <trkpt lat="45.92079" lon="6.48495">
        <ele>1487</ele>
        <time>2017-08-29T10:33:35Z</time>
      </trkpt>
      <trkpt lat="45.92079" lon="6.48491">
        <ele>1486</ele>
        <time>2017-08-29T10:33:36Z</time>
      </trkpt>
      <trkpt lat="45.92078" lon="6.48487">
        <ele>1485</ele>
        <time>2017-08-29T10:33:37Z</time>
      </trkpt>
      <trkpt lat="45.92079" lon="6.48483">
        <ele>1484</ele>
        <time>2017-08-29T10:33:38Z</time>
      </trkpt>
      <trkpt lat="45.92079" lon="6.4848">
        <ele>1484</ele>
        <time>2017-08-29T10:33:39Z</time>
      </trkpt>
      <trkpt lat="45.92079" lon="6.48476">
        <ele>1484</ele>
        <time>2017-08-29T10:33:40Z</time>
      </trkpt>
      <trkpt lat="45.9208" lon="6.48472">
        <ele>1484</ele>
        <time>2017-08-29T10:33:41Z</time>
      </trkpt>
      <trkpt lat="45.92079" lon="6.48468">
        <ele>1484</ele>
        <time>2017-08-29T10:33:42Z</time>
      </trkpt>
      <trkpt lat="45.92079" lon="6.48465">
        <ele>1483</ele>
        <time>2017-08-29T10:33:43Z</time>
      </trkpt>
      <trkpt lat="45.92079" lon="6.48461">
        <ele>1482</ele>
        <time>2017-08-29T10:33:44Z</time>
      </trkpt>
      <trkpt lat="45.92078" lon="6.48458">
        <ele>1482</ele>
        <time>2017-08-29T10:33:45Z</time>
      </trkpt>
      <trkpt lat="45.92078" lon="6.48453">
        <ele>1481</ele>
        <time>2017-08-29T10:33:46Z</time>
      </trkpt>
      <trkpt lat="45.92078" lon="6.48449">
        <ele>1480</ele>
        <time>2017-08-29T10:33:47Z</time>
      </trkpt>
      <trkpt lat="45.92078" lon="6.48445">
        <ele>1480</ele>
        <time>2017-08-29T10:33:48Z</time>
      </trkpt>
      <trkpt lat="45.92077" lon="6.48441">
        <ele>1479</ele>
        <time>2017-08-29T10:33:49Z</time>
      </trkpt>
      <trkpt lat="45.92077" lon="6.48436">
        <ele>1479</ele>
        <time>2017-08-29T10:33:50Z</time>
      </trkpt>
      <trkpt lat="45.92078" lon="6.48432">
        <ele>1479</ele>
        <time>2017-08-29T10:33:51Z</time>
      </trkpt>
      <trkpt lat="45.92078" lon="6.48428">
        <ele>1479</ele>
        <time>2017-08-29T10:33:52Z</time>
      </trkpt>
      <trkpt lat="45.92079" lon="6.48423">
        <ele>1478</ele>
        <time>2017-08-29T10:33:53Z</time>
      </trkpt>
      <trkpt lat="45.92079" lon="6.48419">
        <ele>1478</ele>
        <time>2017-08-29T10:33:54Z</time>
      </trkpt>
      <trkpt lat="45.92079" lon="6.48415">
        <ele>1477</ele>
        <time>2017-08-29T10:33:55Z</time>
      </trkpt>
      <trkpt lat="45.9208" lon="6.48411">
        <ele>1477</ele>
        <time>2017-08-29T10:33:56Z</time>
      </trkpt>
      <trkpt lat="45.9208" lon="6.48408">
        <ele>1477</ele>
        <time>2017-08-29T10:33:57Z</time>
      </trkpt>
      <trkpt lat="45.92081" lon="6.48404">
        <ele>1477</ele>
        <time>2017-08-29T10:33:58Z</time>
      </trkpt>
      <trkpt lat="45.92081" lon="6.48399">
        <ele>1476</ele>
        <time>2017-08-29T10:33:59Z</time>
      </trkpt>
      <trkpt lat="45.92081" lon="6.48395">
        <ele>1475</ele>
        <time>2017-08-29T10:34:00Z</time>
      </trkpt>
      <trkpt lat="45.92082" lon="6.48392">
        <ele>1474</ele>
        <time>2017-08-29T10:34:01Z</time>
      </trkpt>
      <trkpt lat="45.92082" lon="6.48388">
        <ele>1474</ele>
        <time>2017-08-29T10:34:02Z</time>
      </trkpt>
      <trkpt lat="45.92082" lon="6.48384">
        <ele>1473</ele>
        <time>2017-08-29T10:34:03Z</time>
      </trkpt>
      <trkpt lat="45.92082" lon="6.4838">
        <ele>1473</ele>
        <time>2017-08-29T10:34:04Z</time>
      </trkpt>
      <trkpt lat="45.92083" lon="6.48375">
        <ele>1473</ele>
        <time>2017-08-29T10:34:05Z</time>
      </trkpt>
      <trkpt lat="45.92083" lon="6.48371">
        <ele>1471</ele>
        <time>2017-08-29T10:34:06Z</time>
      </trkpt>
      <trkpt lat="45.92083" lon="6.48367">
        <ele>1470</ele>
        <time>2017-08-29T10:34:07Z</time>
      </trkpt>
      <trkpt lat="45.92083" lon="6.48362">
        <ele>1470</ele>
        <time>2017-08-29T10:34:08Z</time>
      </trkpt>
      <trkpt lat="45.92082" lon="6.48358">
        <ele>1470</ele>
        <time>2017-08-29T10:34:09Z</time>
      </trkpt>
      <trkpt lat="45.92082" lon="6.48354">
        <ele>1470</ele>
        <time>2017-08-29T10:34:10Z</time>
      </trkpt>
      <trkpt lat="45.92082" lon="6.4835">
        <ele>1469</ele>
        <time>2017-08-29T10:34:11Z</time>
      </trkpt>
      <trkpt lat="45.92082" lon="6.48346">
        <ele>1468</ele>
        <time>2017-08-29T10:34:12Z</time>
      </trkpt>
      <trkpt lat="45.92081" lon="6.48342">
        <ele>1468</ele>
        <time>2017-08-29T10:34:13Z</time>
      </trkpt>
      <trkpt lat="45.92082" lon="6.48338">
        <ele>1468</ele>
        <time>2017-08-29T10:34:14Z</time>
      </trkpt>
      <trkpt lat="45.92082" lon="6.48334">
        <ele>1468</ele>
        <time>2017-08-29T10:34:15Z</time>
      </trkpt>
      <trkpt lat="45.92083" lon="6.4833">
        <ele>1468</ele>
        <time>2017-08-29T10:34:16Z</time>
      </trkpt>
      <trkpt lat="45.92084" lon="6.48327">
        <ele>1467</ele>
        <time>2017-08-29T10:34:17Z</time>
      </trkpt>
      <trkpt lat="45.92085" lon="6.48322">
        <ele>1466</ele>
        <time>2017-08-29T10:34:18Z</time>
      </trkpt>
      <trkpt lat="45.92085" lon="6.48318">
        <ele>1466</ele>
        <time>2017-08-29T10:34:19Z</time>
      </trkpt>
      <trkpt lat="45.92085" lon="6.48312">
        <ele>1465</ele>
        <time>2017-08-29T10:34:20Z</time>
      </trkpt>
      <trkpt lat="45.92086" lon="6.48307">
        <ele>1465</ele>
        <time>2017-08-29T10:34:21Z</time>
      </trkpt>
      <trkpt lat="45.92086" lon="6.48302">
        <ele>1464</ele>
        <time>2017-08-29T10:34:22Z</time>
      </trkpt>
      <trkpt lat="45.92086" lon="6.48298">
        <ele>1464</ele>
        <time>2017-08-29T10:34:23Z</time>
      </trkpt>
      <trkpt lat="45.92086" lon="6.48293">
        <ele>1462</ele>
        <time>2017-08-29T10:34:24Z</time>
      </trkpt>
      <trkpt lat="45.92086" lon="6.48289">
        <ele>1461</ele>
        <time>2017-08-29T10:34:25Z</time>
      </trkpt>
      <trkpt lat="45.92086" lon="6.48285">
        <ele>1461</ele>
        <time>2017-08-29T10:34:26Z</time>
      </trkpt>
      <trkpt lat="45.92085" lon="6.4828">
        <ele>1461</ele>
        <time>2017-08-29T10:34:27Z</time>
      </trkpt>
      <trkpt lat="45.92084" lon="6.48275">
        <ele>1461</ele>
        <time>2017-08-29T10:34:28Z</time>
      </trkpt>
      <trkpt lat="45.92084" lon="6.48272">
        <ele>1461</ele>
        <time>2017-08-29T10:34:29Z</time>
      </trkpt>
      <trkpt lat="45.92083" lon="6.4827">
        <ele>1460</ele>
        <time>2017-08-29T10:34:30Z</time>
      </trkpt>
      <trkpt lat="45.92083" lon="6.48267">
        <ele>1460</ele>
        <time>2017-08-29T10:34:31Z</time>
      </trkpt>
      <trkpt lat="45.92082" lon="6.4826">
        <ele>1459</ele>
        <time>2017-08-29T10:34:32Z</time>
      </trkpt>
      <trkpt lat="45.92081" lon="6.48257">
        <ele>1459</ele>
        <time>2017-08-29T10:34:33Z</time>
      </trkpt>
      <trkpt lat="45.9208" lon="6.48255">
        <ele>1459</ele>
        <time>2017-08-29T10:34:34Z</time>
      </trkpt>
      <trkpt lat="45.9208" lon="6.48252">
        <ele>1458</ele>
        <time>2017-08-29T10:34:35Z</time>
      </trkpt>
      <trkpt lat="45.92078" lon="6.48245">
        <ele>1458</ele>
        <time>2017-08-29T10:34:36Z</time>
      </trkpt>
      <trkpt lat="45.92077" lon="6.48241">
        <ele>1458</ele>
        <time>2017-08-29T10:34:37Z</time>
      </trkpt>
      <trkpt lat="45.92077" lon="6.48241">
        <ele>1458</ele>
        <time>2017-08-29T10:34:38Z</time>
      </trkpt>
      <trkpt lat="45.92077" lon="6.48241">
        <ele>1457</ele>
        <time>2017-08-29T10:34:39Z</time>
      </trkpt>
      <trkpt lat="45.92074" lon="6.48225">
        <ele>1456.4</ele>
        <time>2017-08-29T10:34:41Z</time>
      </trkpt>
      <trkpt lat="45.92074" lon="6.48223">
        <ele>1456</ele>
        <time>2017-08-29T10:34:42Z</time>
      </trkpt>
      <trkpt lat="45.92073" lon="6.4822">
        <ele>1454</ele>
        <time>2017-08-29T10:34:43Z</time>
      </trkpt>
      <trkpt lat="45.92072" lon="6.48218">
        <ele>1454</ele>
        <time>2017-08-29T10:34:44Z</time>
      </trkpt>
      <trkpt lat="45.92071" lon="6.4821">
        <ele>1454</ele>
        <time>2017-08-29T10:34:45Z</time>
      </trkpt>
      <trkpt lat="45.92069" lon="6.48206">
        <ele>1454</ele>
        <time>2017-08-29T10:34:46Z</time>
      </trkpt>
      <trkpt lat="45.92068" lon="6.48202">
        <ele>1454</ele>
        <time>2017-08-29T10:34:47Z</time>
      </trkpt>
      <trkpt lat="45.92067" lon="6.48197">
        <ele>1454</ele>
        <time>2017-08-29T10:34:48Z</time>
      </trkpt>
      <trkpt lat="45.92067" lon="6.48193">
        <ele>1453</ele>
        <time>2017-08-29T10:34:49Z</time>
      </trkpt>
      <trkpt lat="45.92066" lon="6.4819">
        <ele>1453</ele>
        <time>2017-08-29T10:34:50Z</time>
      </trkpt>
      <trkpt lat="45.92065" lon="6.48186">
        <ele>1453</ele>
        <time>2017-08-29T10:34:51Z</time>
      </trkpt>
      <trkpt lat="45.92065" lon="6.48182">
        <ele>1452</ele>
        <time>2017-08-29T10:34:52Z</time>
      </trkpt>
      <trkpt lat="45.92064" lon="6.48178">
        <ele>1451</ele>
        <time>2017-08-29T10:34:53Z</time>
      </trkpt>
      <trkpt lat="45.92063" lon="6.48175">
        <ele>1451</ele>
        <time>2017-08-29T10:34:54Z</time>
      </trkpt>
      <trkpt lat="45.92063" lon="6.48171">
        <ele>1450</ele>
        <time>2017-08-29T10:34:55Z</time>
      </trkpt>
      <trkpt lat="45.92062" lon="6.48167">
        <ele>1449</ele>
        <time>2017-08-29T10:34:56Z</time>
      </trkpt>
      <trkpt lat="45.92061" lon="6.48163">
        <ele>1449</ele>
        <time>2017-08-29T10:34:57Z</time>
      </trkpt>
      <trkpt lat="45.92061" lon="6.48159">
        <ele>1449</ele>
        <time>2017-08-29T10:34:58Z</time>
      </trkpt>
      <trkpt lat="45.92061" lon="6.48156">
        <ele>1449</ele>
        <time>2017-08-29T10:34:59Z</time>
      </trkpt>
      <trkpt lat="45.92061" lon="6.48152">
        <ele>1449</ele>
        <time>2017-08-29T10:35:00Z</time>
      </trkpt>
      <trkpt lat="45.92061" lon="6.48148">
        <ele>1449</ele>
        <time>2017-08-29T10:35:01Z</time>
      </trkpt>
      <trkpt lat="45.9206" lon="6.48144">
        <ele>1448</ele>
        <time>2017-08-29T10:35:02Z</time>
      </trkpt>
      <trkpt lat="45.9206" lon="6.4814">
        <ele>1448</ele>
        <time>2017-08-29T10:35:03Z</time>
      </trkpt>
      <trkpt lat="45.9206" lon="6.48136">
        <ele>1448</ele>
        <time>2017-08-29T10:35:04Z</time>
      </trkpt>
      <trkpt lat="45.92061" lon="6.48132">
        <ele>1448</ele>
        <time>2017-08-29T10:35:05Z</time>
      </trkpt>
      <trkpt lat="45.92061" lon="6.48128">
        <ele>1448</ele>
        <time>2017-08-29T10:35:06Z</time>
      </trkpt>
      <trkpt lat="45.92062" lon="6.48124">
        <ele>1447</ele>
        <time>2017-08-29T10:35:07Z</time>
      </trkpt>
      <trkpt lat="45.92062" lon="6.4812">
        <ele>1447</ele>
        <time>2017-08-29T10:35:08Z</time>
      </trkpt>
      <trkpt lat="45.92063" lon="6.48116">
        <ele>1446</ele>
        <time>2017-08-29T10:35:09Z</time>
      </trkpt>
      <trkpt lat="45.92063" lon="6.48112">
        <ele>1446</ele>
        <time>2017-08-29T10:35:10Z</time>
      </trkpt>
      <trkpt lat="45.92063" lon="6.48108">
        <ele>1446</ele>
        <time>2017-08-29T10:35:11Z</time>
      </trkpt>
      <trkpt lat="45.92063" lon="6.48105">
        <ele>1445</ele>
        <time>2017-08-29T10:35:12Z</time>
      </trkpt>
      <trkpt lat="45.92062" lon="6.48101">
        <ele>1444</ele>
        <time>2017-08-29T10:35:13Z</time>
      </trkpt>
      <trkpt lat="45.92061" lon="6.48098">
        <ele>1444</ele>
        <time>2017-08-29T10:35:14Z</time>
      </trkpt>
      <trkpt lat="45.9206" lon="6.48095">
        <ele>1444</ele>
        <time>2017-08-29T10:35:15Z</time>
      </trkpt>
      <trkpt lat="45.92059" lon="6.48091">
        <ele>1444</ele>
        <time>2017-08-29T10:35:16Z</time>
      </trkpt>
      <trkpt lat="45.92058" lon="6.48088">
        <ele>1444</ele>
        <time>2017-08-29T10:35:17Z</time>
      </trkpt>
      <trkpt lat="45.92056" lon="6.48084">
        <ele>1444</ele>
        <time>2017-08-29T10:35:18Z</time>
      </trkpt>
      <trkpt lat="45.92054" lon="6.4808">
        <ele>1444</ele>
        <time>2017-08-29T10:35:19Z</time>
      </trkpt>
      <trkpt lat="45.92052" lon="6.48076">
        <ele>1444</ele>
        <time>2017-08-29T10:35:20Z</time>
      </trkpt>
      <trkpt lat="45.92051" lon="6.48073">
        <ele>1443</ele>
        <time>2017-08-29T10:35:21Z</time>
      </trkpt>
      <trkpt lat="45.92049" lon="6.4807">
        <ele>1443</ele>
        <time>2017-08-29T10:35:22Z</time>
      </trkpt>
      <trkpt lat="45.92048" lon="6.48067">
        <ele>1443</ele>
        <time>2017-08-29T10:35:23Z</time>
      </trkpt>
    </trkseg>
  </trk>
</gpx>